<?xml version="1.0" encoding="UTF-8" standalone="no" ?>
<gpx xmlns="http://www.topografix.com/GPX/1/1" xmlns:xsi="http://www.w3.org/2001/XMLSchema-instance" xsi:schemaLocation="http://www.topografix.com/GPX/1/1 http://www.topografix.com/GPX/1/1/gpx.xsd" version="1.1" creator="VisuGPX - https://www.visugpx.com">
  <metadata>
    <name>20140826 Thonon La Beunaz</name>
    <desc><![CDATA[Etape 1 du circuit Thonon les bains à Chamonix]]></desc>
  </metadata>
  <trk>
    <name><![CDATA[20140826 Thonon La Beunaz_1]]></name>
    <trkseg>
      <trkpt lat="46.36754" lon="6.48334">
        <ele>459.3</ele>
        <time>2014-08-26T07:52:30Z</time>
      </trkpt>
      <trkpt lat="46.36754" lon="6.48335">
        <ele>459.3</ele>
        <time>2014-08-26T07:52:35Z</time>
      </trkpt>
      <trkpt lat="46.36754" lon="6.48338">
        <ele>459.3</ele>
        <time>2014-08-26T07:52:40Z</time>
      </trkpt>
      <trkpt lat="46.36753" lon="6.48339">
        <ele>459.3</ele>
        <time>2014-08-26T07:52:45Z</time>
      </trkpt>
      <trkpt lat="46.36753" lon="6.48339">
        <ele>459.3</ele>
        <time>2014-08-26T07:52:50Z</time>
      </trkpt>
      <trkpt lat="46.36753" lon="6.48339">
        <ele>459.3</ele>
        <time>2014-08-26T07:52:55Z</time>
      </trkpt>
      <trkpt lat="46.36753" lon="6.48337">
        <ele>459.3</ele>
        <time>2014-08-26T07:53:00Z</time>
      </trkpt>
      <trkpt lat="46.36753" lon="6.48336">
        <ele>459.3</ele>
        <time>2014-08-26T07:53:05Z</time>
      </trkpt>
      <trkpt lat="46.36753" lon="6.48335">
        <ele>459.3</ele>
        <time>2014-08-26T07:53:10Z</time>
      </trkpt>
      <trkpt lat="46.36753" lon="6.48336">
        <ele>459.3</ele>
        <time>2014-08-26T07:53:15Z</time>
      </trkpt>
      <trkpt lat="46.36753" lon="6.48335">
        <ele>459.3</ele>
        <time>2014-08-26T07:53:20Z</time>
      </trkpt>
      <trkpt lat="46.36753" lon="6.48333">
        <ele>456.27197</ele>
        <time>2014-08-26T07:53:25Z</time>
      </trkpt>
      <trkpt lat="46.36754" lon="6.48335">
        <ele>456.27197</ele>
        <time>2014-08-26T07:53:30Z</time>
      </trkpt>
      <trkpt lat="46.36754" lon="6.48336">
        <ele>456.27197</ele>
        <time>2014-08-26T07:53:35Z</time>
      </trkpt>
      <trkpt lat="46.36755" lon="6.48332">
        <ele>456.27197</ele>
        <time>2014-08-26T07:53:40Z</time>
      </trkpt>
      <trkpt lat="46.36755" lon="6.48325">
        <ele>458.28992</ele>
        <time>2014-08-26T07:53:45Z</time>
      </trkpt>
      <trkpt lat="46.36752" lon="6.48327">
        <ele>458.28992</ele>
        <time>2014-08-26T07:53:50Z</time>
      </trkpt>
      <trkpt lat="46.36749" lon="6.48329">
        <ele>458.28992</ele>
        <time>2014-08-26T07:53:55Z</time>
      </trkpt>
      <trkpt lat="46.36751" lon="6.48328">
        <ele>458.28992</ele>
        <time>2014-08-26T07:54:00Z</time>
      </trkpt>
      <trkpt lat="46.36751" lon="6.48328">
        <ele>458.28992</ele>
        <time>2014-08-26T07:54:05Z</time>
      </trkpt>
      <trkpt lat="46.36751" lon="6.48329">
        <ele>458.28992</ele>
        <time>2014-08-26T07:54:10Z</time>
      </trkpt>
      <trkpt lat="46.36752" lon="6.48329">
        <ele>460.34027</ele>
        <time>2014-08-26T07:54:15Z</time>
      </trkpt>
      <trkpt lat="46.36753" lon="6.48329">
        <ele>460.34027</ele>
        <time>2014-08-26T07:54:20Z</time>
      </trkpt>
      <trkpt lat="46.36757" lon="6.48328">
        <ele>460.34027</ele>
        <time>2014-08-26T07:54:25Z</time>
      </trkpt>
      <trkpt lat="46.36756" lon="6.48328">
        <ele>460.34027</ele>
        <time>2014-08-26T07:54:30Z</time>
      </trkpt>
      <trkpt lat="46.36756" lon="6.48329">
        <ele>460.34027</ele>
        <time>2014-08-26T07:54:35Z</time>
      </trkpt>
      <trkpt lat="46.36755" lon="6.48332">
        <ele>460.34027</ele>
        <time>2014-08-26T07:54:40Z</time>
      </trkpt>
      <trkpt lat="46.36755" lon="6.48332">
        <ele>460.34027</ele>
        <time>2014-08-26T07:54:45Z</time>
      </trkpt>
      <trkpt lat="46.36756" lon="6.48332">
        <ele>462.31888</ele>
        <time>2014-08-26T07:54:50Z</time>
      </trkpt>
      <trkpt lat="46.36756" lon="6.48332">
        <ele>462.31888</ele>
        <time>2014-08-26T07:54:55Z</time>
      </trkpt>
      <trkpt lat="46.36755" lon="6.48332">
        <ele>462.31888</ele>
        <time>2014-08-26T07:55:00Z</time>
      </trkpt>
      <trkpt lat="46.36754" lon="6.48333">
        <ele>462.31888</ele>
        <time>2014-08-26T07:55:05Z</time>
      </trkpt>
      <trkpt lat="46.36753" lon="6.48334">
        <ele>462.31888</ele>
        <time>2014-08-26T07:55:10Z</time>
      </trkpt>
      <trkpt lat="46.36753" lon="6.48334">
        <ele>462.31888</ele>
        <time>2014-08-26T07:55:15Z</time>
      </trkpt>
      <trkpt lat="46.36754" lon="6.48333">
        <ele>462.31888</ele>
        <time>2014-08-26T07:55:20Z</time>
      </trkpt>
      <trkpt lat="46.36755" lon="6.48333">
        <ele>462.31888</ele>
        <time>2014-08-26T07:55:25Z</time>
      </trkpt>
      <trkpt lat="46.36755" lon="6.48332">
        <ele>462.31888</ele>
        <time>2014-08-26T07:55:30Z</time>
      </trkpt>
      <trkpt lat="46.36756" lon="6.48332">
        <ele>462.31888</ele>
        <time>2014-08-26T07:55:35Z</time>
      </trkpt>
      <trkpt lat="46.36756" lon="6.48331">
        <ele>462.31888</ele>
        <time>2014-08-26T07:55:40Z</time>
      </trkpt>
      <trkpt lat="46.36759" lon="6.48329">
        <ele>464.07947</ele>
        <time>2014-08-26T07:55:45Z</time>
      </trkpt>
      <trkpt lat="46.36759" lon="6.48328">
        <ele>464.07947</ele>
        <time>2014-08-26T07:55:50Z</time>
      </trkpt>
      <trkpt lat="46.36758" lon="6.48329">
        <ele>464.07947</ele>
        <time>2014-08-26T07:55:55Z</time>
      </trkpt>
      <trkpt lat="46.36759" lon="6.48328">
        <ele>464.07947</ele>
        <time>2014-08-26T07:56:00Z</time>
      </trkpt>
      <trkpt lat="46.36761" lon="6.48326">
        <ele>464.07947</ele>
        <time>2014-08-26T07:56:05Z</time>
      </trkpt>
      <trkpt lat="46.36762" lon="6.48324">
        <ele>464.07947</ele>
        <time>2014-08-26T07:56:10Z</time>
      </trkpt>
      <trkpt lat="46.36762" lon="6.48324">
        <ele>464.07947</ele>
        <time>2014-08-26T07:56:15Z</time>
      </trkpt>
      <trkpt lat="46.36762" lon="6.48323">
        <ele>464.07947</ele>
        <time>2014-08-26T07:56:20Z</time>
      </trkpt>
      <trkpt lat="46.36761" lon="6.48323">
        <ele>465.86835</ele>
        <time>2014-08-26T07:56:25Z</time>
      </trkpt>
      <trkpt lat="46.36761" lon="6.48323">
        <ele>465.86835</ele>
        <time>2014-08-26T07:56:30Z</time>
      </trkpt>
      <trkpt lat="46.36761" lon="6.48322">
        <ele>465.86835</ele>
        <time>2014-08-26T07:56:35Z</time>
      </trkpt>
      <trkpt lat="46.3676" lon="6.48323">
        <ele>465.86835</ele>
        <time>2014-08-26T07:56:40Z</time>
      </trkpt>
      <trkpt lat="46.3676" lon="6.48323">
        <ele>465.86835</ele>
        <time>2014-08-26T07:56:45Z</time>
      </trkpt>
      <trkpt lat="46.36761" lon="6.48322">
        <ele>465.86835</ele>
        <time>2014-08-26T07:56:50Z</time>
      </trkpt>
      <trkpt lat="46.36761" lon="6.48321">
        <ele>465.86835</ele>
        <time>2014-08-26T07:56:55Z</time>
      </trkpt>
      <trkpt lat="46.36746" lon="6.4832">
        <ele>467.68405</ele>
        <time>2014-08-26T07:57:00Z</time>
      </trkpt>
      <trkpt lat="46.36737" lon="6.48321">
        <ele>467.68405</ele>
        <time>2014-08-26T07:57:05Z</time>
      </trkpt>
      <trkpt lat="46.36734" lon="6.4832">
        <ele>469.11917</ele>
        <time>2014-08-26T07:57:10Z</time>
      </trkpt>
      <trkpt lat="46.36729" lon="6.48317">
        <ele>469.11917</ele>
        <time>2014-08-26T07:57:15Z</time>
      </trkpt>
      <trkpt lat="46.36727" lon="6.48309">
        <ele>470.08624</ele>
        <time>2014-08-26T07:57:20Z</time>
      </trkpt>
      <trkpt lat="46.36723" lon="6.48299">
        <ele>470.08624</ele>
        <time>2014-08-26T07:57:25Z</time>
      </trkpt>
      <trkpt lat="46.36721" lon="6.48291">
        <ele>470.5908</ele>
        <time>2014-08-26T07:57:30Z</time>
      </trkpt>
      <trkpt lat="46.36717" lon="6.48286">
        <ele>470.5908</ele>
        <time>2014-08-26T07:57:35Z</time>
      </trkpt>
      <trkpt lat="46.36711" lon="6.48286">
        <ele>470.7751</ele>
        <time>2014-08-26T07:57:40Z</time>
      </trkpt>
      <trkpt lat="46.36703" lon="6.48291">
        <ele>470.7751</ele>
        <time>2014-08-26T07:57:45Z</time>
      </trkpt>
      <trkpt lat="46.36698" lon="6.48293">
        <ele>470.64062</ele>
        <time>2014-08-26T07:57:50Z</time>
      </trkpt>
      <trkpt lat="46.36692" lon="6.48292">
        <ele>470.64062</ele>
        <time>2014-08-26T07:57:55Z</time>
      </trkpt>
      <trkpt lat="46.36685" lon="6.48287">
        <ele>470.23788</ele>
        <time>2014-08-26T07:58:00Z</time>
      </trkpt>
      <trkpt lat="46.36677" lon="6.48288">
        <ele>470.23788</ele>
        <time>2014-08-26T07:58:05Z</time>
      </trkpt>
      <trkpt lat="46.36669" lon="6.48292">
        <ele>469.63882</ele>
        <time>2014-08-26T07:58:10Z</time>
      </trkpt>
      <trkpt lat="46.36665" lon="6.48296">
        <ele>469.63882</ele>
        <time>2014-08-26T07:58:15Z</time>
      </trkpt>
      <trkpt lat="46.3666" lon="6.48301">
        <ele>468.92856</ele>
        <time>2014-08-26T07:58:20Z</time>
      </trkpt>
      <trkpt lat="46.36653" lon="6.48304">
        <ele>468.92856</ele>
        <time>2014-08-26T07:58:25Z</time>
      </trkpt>
      <trkpt lat="46.36647" lon="6.48308">
        <ele>468.26492</ele>
        <time>2014-08-26T07:58:30Z</time>
      </trkpt>
      <trkpt lat="46.36641" lon="6.48313">
        <ele>468.26492</ele>
        <time>2014-08-26T07:58:35Z</time>
      </trkpt>
      <trkpt lat="46.36634" lon="6.48315">
        <ele>467.66953</ele>
        <time>2014-08-26T07:58:40Z</time>
      </trkpt>
      <trkpt lat="46.36627" lon="6.48318">
        <ele>467.66953</ele>
        <time>2014-08-26T07:58:45Z</time>
      </trkpt>
      <trkpt lat="46.36623" lon="6.48321">
        <ele>467.059</ele>
        <time>2014-08-26T07:58:50Z</time>
      </trkpt>
      <trkpt lat="46.36617" lon="6.48325">
        <ele>467.059</ele>
        <time>2014-08-26T07:58:55Z</time>
      </trkpt>
      <trkpt lat="46.36611" lon="6.4833">
        <ele>466.38766</ele>
        <time>2014-08-26T07:59:00Z</time>
      </trkpt>
      <trkpt lat="46.36607" lon="6.48333">
        <ele>466.38766</ele>
        <time>2014-08-26T07:59:05Z</time>
      </trkpt>
      <trkpt lat="46.36601" lon="6.48335">
        <ele>465.6911</ele>
        <time>2014-08-26T07:59:10Z</time>
      </trkpt>
      <trkpt lat="46.36596" lon="6.48339">
        <ele>465.6911</ele>
        <time>2014-08-26T07:59:15Z</time>
      </trkpt>
      <trkpt lat="46.36589" lon="6.48343">
        <ele>464.95108</ele>
        <time>2014-08-26T07:59:20Z</time>
      </trkpt>
      <trkpt lat="46.36582" lon="6.48344">
        <ele>464.95108</ele>
        <time>2014-08-26T07:59:25Z</time>
      </trkpt>
      <trkpt lat="46.36574" lon="6.48346">
        <ele>464.2407</ele>
        <time>2014-08-26T07:59:30Z</time>
      </trkpt>
      <trkpt lat="46.36568" lon="6.48349">
        <ele>464.2407</ele>
        <time>2014-08-26T07:59:35Z</time>
      </trkpt>
      <trkpt lat="46.36563" lon="6.48351">
        <ele>463.53156</ele>
        <time>2014-08-26T07:59:40Z</time>
      </trkpt>
      <trkpt lat="46.36556" lon="6.48353">
        <ele>463.53156</ele>
        <time>2014-08-26T07:59:45Z</time>
      </trkpt>
      <trkpt lat="46.36549" lon="6.48354">
        <ele>462.84146</ele>
        <time>2014-08-26T07:59:50Z</time>
      </trkpt>
      <trkpt lat="46.36544" lon="6.48356">
        <ele>462.84146</ele>
        <time>2014-08-26T07:59:55Z</time>
      </trkpt>
      <trkpt lat="46.36538" lon="6.48357">
        <ele>462.15552</ele>
        <time>2014-08-26T08:00:00Z</time>
      </trkpt>
      <trkpt lat="46.36533" lon="6.4836">
        <ele>462.15552</ele>
        <time>2014-08-26T08:00:05Z</time>
      </trkpt>
      <trkpt lat="46.36527" lon="6.48365">
        <ele>461.41638</ele>
        <time>2014-08-26T08:00:10Z</time>
      </trkpt>
      <trkpt lat="46.36521" lon="6.4837">
        <ele>461.41638</ele>
        <time>2014-08-26T08:00:15Z</time>
      </trkpt>
      <trkpt lat="46.36515" lon="6.48376">
        <ele>460.70068</ele>
        <time>2014-08-26T08:00:20Z</time>
      </trkpt>
      <trkpt lat="46.36512" lon="6.48381">
        <ele>460.70068</ele>
        <time>2014-08-26T08:00:25Z</time>
      </trkpt>
      <trkpt lat="46.36509" lon="6.48389">
        <ele>459.97742</ele>
        <time>2014-08-26T08:00:30Z</time>
      </trkpt>
      <trkpt lat="46.36506" lon="6.48396">
        <ele>459.97742</ele>
        <time>2014-08-26T08:00:35Z</time>
      </trkpt>
      <trkpt lat="46.36504" lon="6.48405">
        <ele>459.16238</ele>
        <time>2014-08-26T08:00:40Z</time>
      </trkpt>
      <trkpt lat="46.36503" lon="6.48414">
        <ele>459.16238</ele>
        <time>2014-08-26T08:00:45Z</time>
      </trkpt>
      <trkpt lat="46.36501" lon="6.48423">
        <ele>458.16522</ele>
        <time>2014-08-26T08:00:50Z</time>
      </trkpt>
      <trkpt lat="46.365" lon="6.48428">
        <ele>458.16522</ele>
        <time>2014-08-26T08:00:55Z</time>
      </trkpt>
      <trkpt lat="46.36498" lon="6.48433">
        <ele>458.16522</ele>
        <time>2014-08-26T08:01:00Z</time>
      </trkpt>
      <trkpt lat="46.36495" lon="6.48441">
        <ele>456.81955</ele>
        <time>2014-08-26T08:01:05Z</time>
      </trkpt>
      <trkpt lat="46.36494" lon="6.48453">
        <ele>456.81955</ele>
        <time>2014-08-26T08:01:10Z</time>
      </trkpt>
      <trkpt lat="46.36493" lon="6.48457">
        <ele>455.37408</ele>
        <time>2014-08-26T08:01:15Z</time>
      </trkpt>
      <trkpt lat="46.36492" lon="6.48462">
        <ele>455.37408</ele>
        <time>2014-08-26T08:01:20Z</time>
      </trkpt>
      <trkpt lat="46.36492" lon="6.48464">
        <ele>455.37408</ele>
        <time>2014-08-26T08:01:25Z</time>
      </trkpt>
      <trkpt lat="46.36492" lon="6.48467">
        <ele>455.37408</ele>
        <time>2014-08-26T08:01:30Z</time>
      </trkpt>
      <trkpt lat="46.36486" lon="6.48481">
        <ele>453.91974</ele>
        <time>2014-08-26T08:01:35Z</time>
      </trkpt>
      <trkpt lat="46.36479" lon="6.48492">
        <ele>452.5</ele>
        <time>2014-08-26T08:01:40Z</time>
      </trkpt>
      <trkpt lat="46.36474" lon="6.48501">
        <ele>452.5</ele>
        <time>2014-08-26T08:01:45Z</time>
      </trkpt>
      <trkpt lat="46.36469" lon="6.48508">
        <ele>451.25412</ele>
        <time>2014-08-26T08:01:50Z</time>
      </trkpt>
      <trkpt lat="46.36461" lon="6.48514">
        <ele>451.25412</ele>
        <time>2014-08-26T08:01:55Z</time>
      </trkpt>
      <trkpt lat="46.36456" lon="6.48517">
        <ele>450.25803</ele>
        <time>2014-08-26T08:02:00Z</time>
      </trkpt>
      <trkpt lat="46.36451" lon="6.48522">
        <ele>450.25803</ele>
        <time>2014-08-26T08:02:05Z</time>
      </trkpt>
      <trkpt lat="46.36446" lon="6.48526">
        <ele>449.52783</ele>
        <time>2014-08-26T08:02:10Z</time>
      </trkpt>
      <trkpt lat="46.36441" lon="6.48529">
        <ele>449.52783</ele>
        <time>2014-08-26T08:02:15Z</time>
      </trkpt>
      <trkpt lat="46.36436" lon="6.48534">
        <ele>449.0224</ele>
        <time>2014-08-26T08:02:20Z</time>
      </trkpt>
      <trkpt lat="46.36428" lon="6.48541">
        <ele>449.0224</ele>
        <time>2014-08-26T08:02:25Z</time>
      </trkpt>
      <trkpt lat="46.36421" lon="6.48546">
        <ele>448.71695</ele>
        <time>2014-08-26T08:02:30Z</time>
      </trkpt>
      <trkpt lat="46.36417" lon="6.48549">
        <ele>448.71695</ele>
        <time>2014-08-26T08:02:35Z</time>
      </trkpt>
      <trkpt lat="46.36413" lon="6.4855">
        <ele>448.71695</ele>
        <time>2014-08-26T08:02:40Z</time>
      </trkpt>
      <trkpt lat="46.36407" lon="6.48551">
        <ele>448.80304</ele>
        <time>2014-08-26T08:02:45Z</time>
      </trkpt>
      <trkpt lat="46.364" lon="6.48551">
        <ele>448.80304</ele>
        <time>2014-08-26T08:02:50Z</time>
      </trkpt>
      <trkpt lat="46.36393" lon="6.48552">
        <ele>449.0705</ele>
        <time>2014-08-26T08:02:55Z</time>
      </trkpt>
      <trkpt lat="46.36387" lon="6.48547">
        <ele>449.0705</ele>
        <time>2014-08-26T08:03:00Z</time>
      </trkpt>
      <trkpt lat="46.36383" lon="6.48544">
        <ele>449.53726</ele>
        <time>2014-08-26T08:03:05Z</time>
      </trkpt>
      <trkpt lat="46.36378" lon="6.48539">
        <ele>449.53726</ele>
        <time>2014-08-26T08:03:10Z</time>
      </trkpt>
      <trkpt lat="46.36375" lon="6.48535">
        <ele>450.0285</ele>
        <time>2014-08-26T08:03:15Z</time>
      </trkpt>
      <trkpt lat="46.36371" lon="6.48532">
        <ele>450.0285</ele>
        <time>2014-08-26T08:03:20Z</time>
      </trkpt>
      <trkpt lat="46.36367" lon="6.48527">
        <ele>450.55518</ele>
        <time>2014-08-26T08:03:25Z</time>
      </trkpt>
      <trkpt lat="46.36359" lon="6.48519">
        <ele>451.09778</ele>
        <time>2014-08-26T08:03:30Z</time>
      </trkpt>
      <trkpt lat="46.36356" lon="6.48512">
        <ele>451.09778</ele>
        <time>2014-08-26T08:03:35Z</time>
      </trkpt>
      <trkpt lat="46.3635" lon="6.48504">
        <ele>451.65265</ele>
        <time>2014-08-26T08:03:40Z</time>
      </trkpt>
      <trkpt lat="46.36346" lon="6.48498">
        <ele>451.65265</ele>
        <time>2014-08-26T08:03:45Z</time>
      </trkpt>
      <trkpt lat="46.36342" lon="6.4849">
        <ele>452.2462</ele>
        <time>2014-08-26T08:03:50Z</time>
      </trkpt>
      <trkpt lat="46.36338" lon="6.48483">
        <ele>452.2462</ele>
        <time>2014-08-26T08:03:55Z</time>
      </trkpt>
      <trkpt lat="46.36336" lon="6.48478">
        <ele>452.85794</ele>
        <time>2014-08-26T08:04:00Z</time>
      </trkpt>
      <trkpt lat="46.36332" lon="6.4847">
        <ele>452.85794</ele>
        <time>2014-08-26T08:04:05Z</time>
      </trkpt>
      <trkpt lat="46.36328" lon="6.48463">
        <ele>453.46887</ele>
        <time>2014-08-26T08:04:10Z</time>
      </trkpt>
      <trkpt lat="46.36326" lon="6.48453">
        <ele>453.46887</ele>
        <time>2014-08-26T08:04:15Z</time>
      </trkpt>
      <trkpt lat="46.36323" lon="6.48445">
        <ele>453.9859</ele>
        <time>2014-08-26T08:04:20Z</time>
      </trkpt>
      <trkpt lat="46.36321" lon="6.48438">
        <ele>453.9859</ele>
        <time>2014-08-26T08:04:25Z</time>
      </trkpt>
      <trkpt lat="46.3632" lon="6.48429">
        <ele>454.38358</ele>
        <time>2014-08-26T08:04:30Z</time>
      </trkpt>
      <trkpt lat="46.3632" lon="6.48419">
        <ele>454.38358</ele>
        <time>2014-08-26T08:04:35Z</time>
      </trkpt>
      <trkpt lat="46.36319" lon="6.48411">
        <ele>454.6542</ele>
        <time>2014-08-26T08:04:40Z</time>
      </trkpt>
      <trkpt lat="46.36317" lon="6.48403">
        <ele>454.6542</ele>
        <time>2014-08-26T08:04:45Z</time>
      </trkpt>
      <trkpt lat="46.36318" lon="6.48396">
        <ele>454.8972</ele>
        <time>2014-08-26T08:04:50Z</time>
      </trkpt>
      <trkpt lat="46.36318" lon="6.48386">
        <ele>454.8972</ele>
        <time>2014-08-26T08:04:55Z</time>
      </trkpt>
      <trkpt lat="46.36316" lon="6.48376">
        <ele>455.05353</ele>
        <time>2014-08-26T08:05:00Z</time>
      </trkpt>
      <trkpt lat="46.36314" lon="6.48365">
        <ele>455.05353</ele>
        <time>2014-08-26T08:05:05Z</time>
      </trkpt>
      <trkpt lat="46.36312" lon="6.48355">
        <ele>455.17496</ele>
        <time>2014-08-26T08:05:10Z</time>
      </trkpt>
      <trkpt lat="46.36311" lon="6.48348">
        <ele>455.17496</ele>
        <time>2014-08-26T08:05:15Z</time>
      </trkpt>
      <trkpt lat="46.36309" lon="6.48336">
        <ele>455.26407</ele>
        <time>2014-08-26T08:05:20Z</time>
      </trkpt>
      <trkpt lat="46.36307" lon="6.4833">
        <ele>455.26407</ele>
        <time>2014-08-26T08:05:25Z</time>
      </trkpt>
      <trkpt lat="46.36306" lon="6.48322">
        <ele>455.30838</ele>
        <time>2014-08-26T08:05:30Z</time>
      </trkpt>
      <trkpt lat="46.36303" lon="6.48314">
        <ele>455.30838</ele>
        <time>2014-08-26T08:05:35Z</time>
      </trkpt>
      <trkpt lat="46.36303" lon="6.48307">
        <ele>455.31155</ele>
        <time>2014-08-26T08:05:40Z</time>
      </trkpt>
      <trkpt lat="46.363" lon="6.48299">
        <ele>455.31155</ele>
        <time>2014-08-26T08:05:45Z</time>
      </trkpt>
      <trkpt lat="46.36295" lon="6.48292">
        <ele>455.24725</ele>
        <time>2014-08-26T08:05:50Z</time>
      </trkpt>
      <trkpt lat="46.36291" lon="6.48284">
        <ele>455.24725</ele>
        <time>2014-08-26T08:05:55Z</time>
      </trkpt>
      <trkpt lat="46.36285" lon="6.48275">
        <ele>455.22595</ele>
        <time>2014-08-26T08:06:00Z</time>
      </trkpt>
      <trkpt lat="46.36278" lon="6.48267">
        <ele>455.22595</ele>
        <time>2014-08-26T08:06:05Z</time>
      </trkpt>
      <trkpt lat="46.3627" lon="6.48261">
        <ele>455.33374</ele>
        <time>2014-08-26T08:06:10Z</time>
      </trkpt>
      <trkpt lat="46.36264" lon="6.48258">
        <ele>455.33374</ele>
        <time>2014-08-26T08:06:15Z</time>
      </trkpt>
      <trkpt lat="46.36257" lon="6.48257">
        <ele>455.5599</ele>
        <time>2014-08-26T08:06:20Z</time>
      </trkpt>
      <trkpt lat="46.36252" lon="6.48252">
        <ele>455.5599</ele>
        <time>2014-08-26T08:06:25Z</time>
      </trkpt>
      <trkpt lat="46.36247" lon="6.4825">
        <ele>455.77585</ele>
        <time>2014-08-26T08:06:30Z</time>
      </trkpt>
      <trkpt lat="46.36242" lon="6.48249">
        <ele>455.77585</ele>
        <time>2014-08-26T08:06:35Z</time>
      </trkpt>
      <trkpt lat="46.36236" lon="6.48252">
        <ele>455.9967</ele>
        <time>2014-08-26T08:06:40Z</time>
      </trkpt>
      <trkpt lat="46.36231" lon="6.48254">
        <ele>455.9967</ele>
        <time>2014-08-26T08:06:45Z</time>
      </trkpt>
      <trkpt lat="46.36224" lon="6.48255">
        <ele>456.17752</ele>
        <time>2014-08-26T08:06:50Z</time>
      </trkpt>
      <trkpt lat="46.3622" lon="6.48256">
        <ele>456.17752</ele>
        <time>2014-08-26T08:06:55Z</time>
      </trkpt>
      <trkpt lat="46.36219" lon="6.48257">
        <ele>456.17752</ele>
        <time>2014-08-26T08:07:00Z</time>
      </trkpt>
      <trkpt lat="46.36215" lon="6.4826">
        <ele>456.2918</ele>
        <time>2014-08-26T08:07:05Z</time>
      </trkpt>
      <trkpt lat="46.36211" lon="6.48267">
        <ele>456.2918</ele>
        <time>2014-08-26T08:07:10Z</time>
      </trkpt>
      <trkpt lat="46.36207" lon="6.48273">
        <ele>456.3742</ele>
        <time>2014-08-26T08:07:15Z</time>
      </trkpt>
      <trkpt lat="46.36202" lon="6.4828">
        <ele>456.3742</ele>
        <time>2014-08-26T08:07:20Z</time>
      </trkpt>
      <trkpt lat="46.36199" lon="6.48288">
        <ele>456.4712</ele>
        <time>2014-08-26T08:07:25Z</time>
      </trkpt>
      <trkpt lat="46.36197" lon="6.48294">
        <ele>456.4712</ele>
        <time>2014-08-26T08:07:30Z</time>
      </trkpt>
      <trkpt lat="46.36193" lon="6.48298">
        <ele>456.55237</ele>
        <time>2014-08-26T08:07:35Z</time>
      </trkpt>
      <trkpt lat="46.36189" lon="6.48305">
        <ele>456.55237</ele>
        <time>2014-08-26T08:07:40Z</time>
      </trkpt>
      <trkpt lat="46.36186" lon="6.48312">
        <ele>456.61893</ele>
        <time>2014-08-26T08:07:45Z</time>
      </trkpt>
      <trkpt lat="46.36183" lon="6.48321">
        <ele>456.61893</ele>
        <time>2014-08-26T08:07:50Z</time>
      </trkpt>
      <trkpt lat="46.3618" lon="6.48327">
        <ele>456.7013</ele>
        <time>2014-08-26T08:07:55Z</time>
      </trkpt>
      <trkpt lat="46.36176" lon="6.48335">
        <ele>456.7013</ele>
        <time>2014-08-26T08:08:00Z</time>
      </trkpt>
      <trkpt lat="46.36172" lon="6.48341">
        <ele>456.8418</ele>
        <time>2014-08-26T08:08:05Z</time>
      </trkpt>
      <trkpt lat="46.36167" lon="6.48348">
        <ele>456.8418</ele>
        <time>2014-08-26T08:08:10Z</time>
      </trkpt>
      <trkpt lat="46.36164" lon="6.48354">
        <ele>456.93414</ele>
        <time>2014-08-26T08:08:15Z</time>
      </trkpt>
      <trkpt lat="46.36159" lon="6.48362">
        <ele>456.93414</ele>
        <time>2014-08-26T08:08:20Z</time>
      </trkpt>
      <trkpt lat="46.36157" lon="6.48364">
        <ele>456.79355</ele>
        <time>2014-08-26T08:08:25Z</time>
      </trkpt>
      <trkpt lat="46.36153" lon="6.48374">
        <ele>456.79355</ele>
        <time>2014-08-26T08:08:30Z</time>
      </trkpt>
      <trkpt lat="46.36149" lon="6.48384">
        <ele>456.51093</ele>
        <time>2014-08-26T08:08:35Z</time>
      </trkpt>
      <trkpt lat="46.36146" lon="6.48392">
        <ele>456.51093</ele>
        <time>2014-08-26T08:08:40Z</time>
      </trkpt>
      <trkpt lat="46.36141" lon="6.48398">
        <ele>456.27176</ele>
        <time>2014-08-26T08:08:45Z</time>
      </trkpt>
      <trkpt lat="46.36134" lon="6.48403">
        <ele>456.27176</ele>
        <time>2014-08-26T08:08:50Z</time>
      </trkpt>
      <trkpt lat="46.36129" lon="6.48406">
        <ele>456.0881</ele>
        <time>2014-08-26T08:08:55Z</time>
      </trkpt>
      <trkpt lat="46.36124" lon="6.4841">
        <ele>456.0881</ele>
        <time>2014-08-26T08:09:00Z</time>
      </trkpt>
      <trkpt lat="46.36119" lon="6.48413">
        <ele>455.97092</ele>
        <time>2014-08-26T08:09:05Z</time>
      </trkpt>
      <trkpt lat="46.36115" lon="6.48419">
        <ele>455.97092</ele>
        <time>2014-08-26T08:09:10Z</time>
      </trkpt>
      <trkpt lat="46.36111" lon="6.48422">
        <ele>455.93015</ele>
        <time>2014-08-26T08:09:15Z</time>
      </trkpt>
      <trkpt lat="46.36107" lon="6.48425">
        <ele>455.93015</ele>
        <time>2014-08-26T08:09:20Z</time>
      </trkpt>
      <trkpt lat="46.36101" lon="6.48427">
        <ele>455.8883</ele>
        <time>2014-08-26T08:09:25Z</time>
      </trkpt>
      <trkpt lat="46.36095" lon="6.48428">
        <ele>455.8883</ele>
        <time>2014-08-26T08:09:30Z</time>
      </trkpt>
      <trkpt lat="46.3609" lon="6.4843">
        <ele>455.8025</ele>
        <time>2014-08-26T08:09:35Z</time>
      </trkpt>
      <trkpt lat="46.36085" lon="6.48433">
        <ele>455.8025</ele>
        <time>2014-08-26T08:09:40Z</time>
      </trkpt>
      <trkpt lat="46.3608" lon="6.48436">
        <ele>455.6332</ele>
        <time>2014-08-26T08:09:45Z</time>
      </trkpt>
      <trkpt lat="46.36076" lon="6.48438">
        <ele>455.6332</ele>
        <time>2014-08-26T08:09:50Z</time>
      </trkpt>
      <trkpt lat="46.36072" lon="6.4844">
        <ele>455.6332</ele>
        <time>2014-08-26T08:09:55Z</time>
      </trkpt>
      <trkpt lat="46.3607" lon="6.48442">
        <ele>455.22867</ele>
        <time>2014-08-26T08:10:00Z</time>
      </trkpt>
      <trkpt lat="46.3607" lon="6.4844">
        <ele>455.22867</ele>
        <time>2014-08-26T08:10:05Z</time>
      </trkpt>
      <trkpt lat="46.36065" lon="6.48441">
        <ele>455.22867</ele>
        <time>2014-08-26T08:10:10Z</time>
      </trkpt>
      <trkpt lat="46.36058" lon="6.48441">
        <ele>454.29034</ele>
        <time>2014-08-26T08:10:15Z</time>
      </trkpt>
      <trkpt lat="46.36051" lon="6.48443">
        <ele>454.29034</ele>
        <time>2014-08-26T08:10:20Z</time>
      </trkpt>
      <trkpt lat="46.36047" lon="6.48444">
        <ele>453.09113</ele>
        <time>2014-08-26T08:10:25Z</time>
      </trkpt>
      <trkpt lat="46.36039" lon="6.48446">
        <ele>453.09113</ele>
        <time>2014-08-26T08:10:30Z</time>
      </trkpt>
      <trkpt lat="46.36037" lon="6.48447">
        <ele>452.6053</ele>
        <time>2014-08-26T08:10:35Z</time>
      </trkpt>
      <trkpt lat="46.36037" lon="6.48447">
        <ele>452.6053</ele>
        <time>2014-08-26T08:10:40Z</time>
      </trkpt>
      <trkpt lat="46.36035" lon="6.48456">
        <ele>452.6053</ele>
        <time>2014-08-26T08:10:45Z</time>
      </trkpt>
      <trkpt lat="46.36031" lon="6.48466">
        <ele>452.8972</ele>
        <time>2014-08-26T08:10:50Z</time>
      </trkpt>
      <trkpt lat="46.36028" lon="6.48474">
        <ele>452.8972</ele>
        <time>2014-08-26T08:10:55Z</time>
      </trkpt>
      <trkpt lat="46.36021" lon="6.48483">
        <ele>453.41873</ele>
        <time>2014-08-26T08:11:00Z</time>
      </trkpt>
      <trkpt lat="46.36016" lon="6.48487">
        <ele>453.41873</ele>
        <time>2014-08-26T08:11:05Z</time>
      </trkpt>
      <trkpt lat="46.36008" lon="6.48489">
        <ele>454.09406</ele>
        <time>2014-08-26T08:11:10Z</time>
      </trkpt>
      <trkpt lat="46.36003" lon="6.48492">
        <ele>454.09406</ele>
        <time>2014-08-26T08:11:15Z</time>
      </trkpt>
      <trkpt lat="46.35997" lon="6.48495">
        <ele>454.838</ele>
        <time>2014-08-26T08:11:20Z</time>
      </trkpt>
      <trkpt lat="46.35991" lon="6.48502">
        <ele>454.838</ele>
        <time>2014-08-26T08:11:25Z</time>
      </trkpt>
      <trkpt lat="46.35988" lon="6.48501">
        <ele>455.557</ele>
        <time>2014-08-26T08:11:30Z</time>
      </trkpt>
      <trkpt lat="46.35981" lon="6.48508">
        <ele>455.557</ele>
        <time>2014-08-26T08:11:35Z</time>
      </trkpt>
      <trkpt lat="46.35973" lon="6.48516">
        <ele>456.3951</ele>
        <time>2014-08-26T08:11:40Z</time>
      </trkpt>
      <trkpt lat="46.35965" lon="6.4852">
        <ele>456.3951</ele>
        <time>2014-08-26T08:11:45Z</time>
      </trkpt>
      <trkpt lat="46.35963" lon="6.48527">
        <ele>457.48553</ele>
        <time>2014-08-26T08:11:50Z</time>
      </trkpt>
      <trkpt lat="46.35959" lon="6.48535">
        <ele>457.48553</ele>
        <time>2014-08-26T08:11:55Z</time>
      </trkpt>
      <trkpt lat="46.35956" lon="6.4854">
        <ele>458.8644</ele>
        <time>2014-08-26T08:12:00Z</time>
      </trkpt>
      <trkpt lat="46.35953" lon="6.48544">
        <ele>458.8644</ele>
        <time>2014-08-26T08:12:05Z</time>
      </trkpt>
      <trkpt lat="46.35949" lon="6.48549">
        <ele>460.5068</ele>
        <time>2014-08-26T08:12:10Z</time>
      </trkpt>
      <trkpt lat="46.35947" lon="6.48554">
        <ele>460.5068</ele>
        <time>2014-08-26T08:12:15Z</time>
      </trkpt>
      <trkpt lat="46.35943" lon="6.48559">
        <ele>462.33112</ele>
        <time>2014-08-26T08:12:20Z</time>
      </trkpt>
      <trkpt lat="46.35939" lon="6.48563">
        <ele>462.33112</ele>
        <time>2014-08-26T08:12:25Z</time>
      </trkpt>
      <trkpt lat="46.35934" lon="6.48568">
        <ele>464.27573</ele>
        <time>2014-08-26T08:12:30Z</time>
      </trkpt>
      <trkpt lat="46.35929" lon="6.48572">
        <ele>464.27573</ele>
        <time>2014-08-26T08:12:35Z</time>
      </trkpt>
      <trkpt lat="46.35926" lon="6.48575">
        <ele>466.2688</ele>
        <time>2014-08-26T08:12:40Z</time>
      </trkpt>
      <trkpt lat="46.35923" lon="6.48578">
        <ele>466.2688</ele>
        <time>2014-08-26T08:12:45Z</time>
      </trkpt>
      <trkpt lat="46.35917" lon="6.48581">
        <ele>468.25815</ele>
        <time>2014-08-26T08:12:50Z</time>
      </trkpt>
      <trkpt lat="46.35912" lon="6.48587">
        <ele>468.25815</ele>
        <time>2014-08-26T08:12:55Z</time>
      </trkpt>
      <trkpt lat="46.35909" lon="6.48591">
        <ele>470.22433</ele>
        <time>2014-08-26T08:13:00Z</time>
      </trkpt>
      <trkpt lat="46.35905" lon="6.48594">
        <ele>470.22433</ele>
        <time>2014-08-26T08:13:05Z</time>
      </trkpt>
      <trkpt lat="46.35899" lon="6.48598">
        <ele>472.10623</ele>
        <time>2014-08-26T08:13:10Z</time>
      </trkpt>
      <trkpt lat="46.35893" lon="6.48602">
        <ele>472.10623</ele>
        <time>2014-08-26T08:13:15Z</time>
      </trkpt>
      <trkpt lat="46.35888" lon="6.48607">
        <ele>473.9774</ele>
        <time>2014-08-26T08:13:20Z</time>
      </trkpt>
      <trkpt lat="46.35885" lon="6.4861">
        <ele>473.9774</ele>
        <time>2014-08-26T08:13:25Z</time>
      </trkpt>
      <trkpt lat="46.3588" lon="6.48616">
        <ele>475.79065</ele>
        <time>2014-08-26T08:13:30Z</time>
      </trkpt>
      <trkpt lat="46.35875" lon="6.4862">
        <ele>475.79065</ele>
        <time>2014-08-26T08:13:35Z</time>
      </trkpt>
      <trkpt lat="46.35871" lon="6.48627">
        <ele>477.517</ele>
        <time>2014-08-26T08:13:40Z</time>
      </trkpt>
      <trkpt lat="46.35865" lon="6.48634">
        <ele>477.517</ele>
        <time>2014-08-26T08:13:45Z</time>
      </trkpt>
      <trkpt lat="46.3586" lon="6.4864">
        <ele>479.18774</ele>
        <time>2014-08-26T08:13:50Z</time>
      </trkpt>
      <trkpt lat="46.35856" lon="6.48646">
        <ele>479.18774</ele>
        <time>2014-08-26T08:13:55Z</time>
      </trkpt>
      <trkpt lat="46.35853" lon="6.48652">
        <ele>480.7887</ele>
        <time>2014-08-26T08:14:00Z</time>
      </trkpt>
      <trkpt lat="46.35849" lon="6.48659">
        <ele>480.7887</ele>
        <time>2014-08-26T08:14:05Z</time>
      </trkpt>
      <trkpt lat="46.35845" lon="6.48665">
        <ele>482.27835</ele>
        <time>2014-08-26T08:14:10Z</time>
      </trkpt>
      <trkpt lat="46.35841" lon="6.48671">
        <ele>482.27835</ele>
        <time>2014-08-26T08:14:15Z</time>
      </trkpt>
      <trkpt lat="46.35837" lon="6.48677">
        <ele>483.70517</ele>
        <time>2014-08-26T08:14:20Z</time>
      </trkpt>
      <trkpt lat="46.3583" lon="6.48682">
        <ele>483.70517</ele>
        <time>2014-08-26T08:14:25Z</time>
      </trkpt>
      <trkpt lat="46.35826" lon="6.48687">
        <ele>485.02774</ele>
        <time>2014-08-26T08:14:30Z</time>
      </trkpt>
      <trkpt lat="46.35821" lon="6.48692">
        <ele>485.02774</ele>
        <time>2014-08-26T08:14:35Z</time>
      </trkpt>
      <trkpt lat="46.35816" lon="6.48697">
        <ele>486.26593</ele>
        <time>2014-08-26T08:14:40Z</time>
      </trkpt>
      <trkpt lat="46.35812" lon="6.48702">
        <ele>486.26593</ele>
        <time>2014-08-26T08:14:45Z</time>
      </trkpt>
      <trkpt lat="46.35808" lon="6.48708">
        <ele>487.38068</ele>
        <time>2014-08-26T08:14:50Z</time>
      </trkpt>
      <trkpt lat="46.358" lon="6.48713">
        <ele>487.38068</ele>
        <time>2014-08-26T08:14:55Z</time>
      </trkpt>
      <trkpt lat="46.35795" lon="6.48719">
        <ele>488.40848</ele>
        <time>2014-08-26T08:15:00Z</time>
      </trkpt>
      <trkpt lat="46.35791" lon="6.48724">
        <ele>488.40848</ele>
        <time>2014-08-26T08:15:05Z</time>
      </trkpt>
      <trkpt lat="46.35787" lon="6.48731">
        <ele>489.4122</ele>
        <time>2014-08-26T08:15:10Z</time>
      </trkpt>
      <trkpt lat="46.35782" lon="6.48738">
        <ele>489.4122</ele>
        <time>2014-08-26T08:15:15Z</time>
      </trkpt>
      <trkpt lat="46.35778" lon="6.48742">
        <ele>490.4071</ele>
        <time>2014-08-26T08:15:20Z</time>
      </trkpt>
      <trkpt lat="46.35776" lon="6.48745">
        <ele>490.4071</ele>
        <time>2014-08-26T08:15:25Z</time>
      </trkpt>
      <trkpt lat="46.35777" lon="6.48744">
        <ele>490.4071</ele>
        <time>2014-08-26T08:15:30Z</time>
      </trkpt>
      <trkpt lat="46.35777" lon="6.48744">
        <ele>490.4071</ele>
        <time>2014-08-26T08:15:35Z</time>
      </trkpt>
      <trkpt lat="46.35778" lon="6.48745">
        <ele>490.4071</ele>
        <time>2014-08-26T08:15:40Z</time>
      </trkpt>
      <trkpt lat="46.35773" lon="6.48748">
        <ele>491.30646</ele>
        <time>2014-08-26T08:15:45Z</time>
      </trkpt>
      <trkpt lat="46.35764" lon="6.48754">
        <ele>492.10245</ele>
        <time>2014-08-26T08:15:50Z</time>
      </trkpt>
      <trkpt lat="46.35759" lon="6.4876">
        <ele>492.10245</ele>
        <time>2014-08-26T08:15:55Z</time>
      </trkpt>
      <trkpt lat="46.35754" lon="6.48765">
        <ele>492.75925</ele>
        <time>2014-08-26T08:16:00Z</time>
      </trkpt>
      <trkpt lat="46.35749" lon="6.48771">
        <ele>492.75925</ele>
        <time>2014-08-26T08:16:05Z</time>
      </trkpt>
      <trkpt lat="46.35744" lon="6.48776">
        <ele>493.1722</ele>
        <time>2014-08-26T08:16:10Z</time>
      </trkpt>
      <trkpt lat="46.35741" lon="6.4878">
        <ele>493.1722</ele>
        <time>2014-08-26T08:16:15Z</time>
      </trkpt>
      <trkpt lat="46.35736" lon="6.48785">
        <ele>493.3748</ele>
        <time>2014-08-26T08:16:20Z</time>
      </trkpt>
      <trkpt lat="46.35732" lon="6.48792">
        <ele>493.3748</ele>
        <time>2014-08-26T08:16:25Z</time>
      </trkpt>
      <trkpt lat="46.35728" lon="6.48799">
        <ele>493.44183</ele>
        <time>2014-08-26T08:16:30Z</time>
      </trkpt>
      <trkpt lat="46.35724" lon="6.48805">
        <ele>493.44183</ele>
        <time>2014-08-26T08:16:35Z</time>
      </trkpt>
      <trkpt lat="46.35719" lon="6.48811">
        <ele>493.47202</ele>
        <time>2014-08-26T08:16:40Z</time>
      </trkpt>
      <trkpt lat="46.35714" lon="6.48817">
        <ele>493.47202</ele>
        <time>2014-08-26T08:16:45Z</time>
      </trkpt>
      <trkpt lat="46.3571" lon="6.48822">
        <ele>493.4272</ele>
        <time>2014-08-26T08:16:50Z</time>
      </trkpt>
      <trkpt lat="46.35704" lon="6.48828">
        <ele>493.4272</ele>
        <time>2014-08-26T08:16:55Z</time>
      </trkpt>
      <trkpt lat="46.357" lon="6.48835">
        <ele>493.30103</ele>
        <time>2014-08-26T08:17:00Z</time>
      </trkpt>
      <trkpt lat="46.35695" lon="6.48839">
        <ele>493.30103</ele>
        <time>2014-08-26T08:17:05Z</time>
      </trkpt>
      <trkpt lat="46.35691" lon="6.48842">
        <ele>493.0735</ele>
        <time>2014-08-26T08:17:10Z</time>
      </trkpt>
      <trkpt lat="46.35687" lon="6.48845">
        <ele>493.0735</ele>
        <time>2014-08-26T08:17:15Z</time>
      </trkpt>
      <trkpt lat="46.35682" lon="6.48849">
        <ele>492.8705</ele>
        <time>2014-08-26T08:17:20Z</time>
      </trkpt>
      <trkpt lat="46.35677" lon="6.48853">
        <ele>492.8705</ele>
        <time>2014-08-26T08:17:25Z</time>
      </trkpt>
      <trkpt lat="46.35672" lon="6.48856">
        <ele>492.7222</ele>
        <time>2014-08-26T08:17:30Z</time>
      </trkpt>
      <trkpt lat="46.35667" lon="6.48863">
        <ele>492.7222</ele>
        <time>2014-08-26T08:17:35Z</time>
      </trkpt>
      <trkpt lat="46.35663" lon="6.48869">
        <ele>492.41125</ele>
        <time>2014-08-26T08:17:40Z</time>
      </trkpt>
      <trkpt lat="46.35659" lon="6.48874">
        <ele>492.41125</ele>
        <time>2014-08-26T08:17:45Z</time>
      </trkpt>
      <trkpt lat="46.35655" lon="6.48879">
        <ele>492.01065</ele>
        <time>2014-08-26T08:17:50Z</time>
      </trkpt>
      <trkpt lat="46.35653" lon="6.48881">
        <ele>492.01065</ele>
        <time>2014-08-26T08:17:55Z</time>
      </trkpt>
      <trkpt lat="46.3565" lon="6.48883">
        <ele>492.01065</ele>
        <time>2014-08-26T08:18:00Z</time>
      </trkpt>
      <trkpt lat="46.35643" lon="6.4889">
        <ele>491.41522</ele>
        <time>2014-08-26T08:18:05Z</time>
      </trkpt>
      <trkpt lat="46.3564" lon="6.48895">
        <ele>491.41522</ele>
        <time>2014-08-26T08:18:10Z</time>
      </trkpt>
      <trkpt lat="46.35633" lon="6.48899">
        <ele>490.64346</ele>
        <time>2014-08-26T08:18:15Z</time>
      </trkpt>
      <trkpt lat="46.35632" lon="6.48896">
        <ele>490.64346</ele>
        <time>2014-08-26T08:18:20Z</time>
      </trkpt>
      <trkpt lat="46.35631" lon="6.48897">
        <ele>490.64346</ele>
        <time>2014-08-26T08:18:25Z</time>
      </trkpt>
      <trkpt lat="46.3563" lon="6.48898">
        <ele>490.64346</ele>
        <time>2014-08-26T08:18:30Z</time>
      </trkpt>
      <trkpt lat="46.35626" lon="6.48902">
        <ele>489.5687</ele>
        <time>2014-08-26T08:18:35Z</time>
      </trkpt>
      <trkpt lat="46.35623" lon="6.48903">
        <ele>489.5687</ele>
        <time>2014-08-26T08:18:40Z</time>
      </trkpt>
      <trkpt lat="46.35622" lon="6.48904">
        <ele>489.5687</ele>
        <time>2014-08-26T08:18:45Z</time>
      </trkpt>
      <trkpt lat="46.35621" lon="6.48906">
        <ele>489.5687</ele>
        <time>2014-08-26T08:18:50Z</time>
      </trkpt>
      <trkpt lat="46.35619" lon="6.48908">
        <ele>489.5687</ele>
        <time>2014-08-26T08:18:55Z</time>
      </trkpt>
      <trkpt lat="46.35619" lon="6.48911">
        <ele>488.56442</ele>
        <time>2014-08-26T08:19:00Z</time>
      </trkpt>
      <trkpt lat="46.35618" lon="6.48911">
        <ele>488.56442</ele>
        <time>2014-08-26T08:19:05Z</time>
      </trkpt>
      <trkpt lat="46.35617" lon="6.4891">
        <ele>488.56442</ele>
        <time>2014-08-26T08:19:10Z</time>
      </trkpt>
      <trkpt lat="46.35617" lon="6.48909">
        <ele>488.56442</ele>
        <time>2014-08-26T08:19:15Z</time>
      </trkpt>
      <trkpt lat="46.35618" lon="6.48909">
        <ele>488.56442</ele>
        <time>2014-08-26T08:19:20Z</time>
      </trkpt>
      <trkpt lat="46.35619" lon="6.48911">
        <ele>488.56442</ele>
        <time>2014-08-26T08:19:25Z</time>
      </trkpt>
      <trkpt lat="46.35621" lon="6.48911">
        <ele>488.56442</ele>
        <time>2014-08-26T08:19:30Z</time>
      </trkpt>
      <trkpt lat="46.35622" lon="6.48913">
        <ele>488.56442</ele>
        <time>2014-08-26T08:19:35Z</time>
      </trkpt>
      <trkpt lat="46.35623" lon="6.48912">
        <ele>487.83234</ele>
        <time>2014-08-26T08:19:40Z</time>
      </trkpt>
      <trkpt lat="46.35624" lon="6.48911">
        <ele>487.83234</ele>
        <time>2014-08-26T08:19:45Z</time>
      </trkpt>
      <trkpt lat="46.35626" lon="6.48909">
        <ele>487.83234</ele>
        <time>2014-08-26T08:19:50Z</time>
      </trkpt>
      <trkpt lat="46.35625" lon="6.48908">
        <ele>487.83234</ele>
        <time>2014-08-26T08:19:55Z</time>
      </trkpt>
      <trkpt lat="46.35625" lon="6.48908">
        <ele>487.83234</ele>
        <time>2014-08-26T08:20:00Z</time>
      </trkpt>
      <trkpt lat="46.35624" lon="6.48909">
        <ele>487.83234</ele>
        <time>2014-08-26T08:20:05Z</time>
      </trkpt>
      <trkpt lat="46.35624" lon="6.48911">
        <ele>487.83234</ele>
        <time>2014-08-26T08:20:10Z</time>
      </trkpt>
      <trkpt lat="46.35624" lon="6.48915">
        <ele>487.25577</ele>
        <time>2014-08-26T08:20:15Z</time>
      </trkpt>
      <trkpt lat="46.3562" lon="6.48916">
        <ele>487.25577</ele>
        <time>2014-08-26T08:20:20Z</time>
      </trkpt>
      <trkpt lat="46.35613" lon="6.48922">
        <ele>486.4235</ele>
        <time>2014-08-26T08:20:25Z</time>
      </trkpt>
      <trkpt lat="46.35611" lon="6.48925">
        <ele>486.4235</ele>
        <time>2014-08-26T08:20:30Z</time>
      </trkpt>
      <trkpt lat="46.3561" lon="6.48927">
        <ele>486.4235</ele>
        <time>2014-08-26T08:20:35Z</time>
      </trkpt>
      <trkpt lat="46.35607" lon="6.48932">
        <ele>485.229</ele>
        <time>2014-08-26T08:20:40Z</time>
      </trkpt>
      <trkpt lat="46.35604" lon="6.48939">
        <ele>485.229</ele>
        <time>2014-08-26T08:20:45Z</time>
      </trkpt>
      <trkpt lat="46.35598" lon="6.48946">
        <ele>483.67532</ele>
        <time>2014-08-26T08:20:50Z</time>
      </trkpt>
      <trkpt lat="46.35594" lon="6.48949">
        <ele>483.67532</ele>
        <time>2014-08-26T08:20:55Z</time>
      </trkpt>
      <trkpt lat="46.35594" lon="6.48949">
        <ele>483.67532</ele>
        <time>2014-08-26T08:21:00Z</time>
      </trkpt>
      <trkpt lat="46.35589" lon="6.48957">
        <ele>482.27063</ele>
        <time>2014-08-26T08:21:05Z</time>
      </trkpt>
      <trkpt lat="46.35588" lon="6.48957">
        <ele>482.27063</ele>
        <time>2014-08-26T08:21:10Z</time>
      </trkpt>
      <trkpt lat="46.35588" lon="6.48957">
        <ele>482.27063</ele>
        <time>2014-08-26T08:21:15Z</time>
      </trkpt>
      <trkpt lat="46.35585" lon="6.48959">
        <ele>482.27063</ele>
        <time>2014-08-26T08:21:20Z</time>
      </trkpt>
      <trkpt lat="46.35585" lon="6.48959">
        <ele>482.27063</ele>
        <time>2014-08-26T08:21:25Z</time>
      </trkpt>
      <trkpt lat="46.35583" lon="6.48959">
        <ele>482.27063</ele>
        <time>2014-08-26T08:21:30Z</time>
      </trkpt>
      <trkpt lat="46.35578" lon="6.48961">
        <ele>480.98077</ele>
        <time>2014-08-26T08:21:35Z</time>
      </trkpt>
      <trkpt lat="46.35572" lon="6.48968">
        <ele>480.98077</ele>
        <time>2014-08-26T08:21:40Z</time>
      </trkpt>
      <trkpt lat="46.35558" lon="6.48985">
        <ele>479.97543</ele>
        <time>2014-08-26T08:21:45Z</time>
      </trkpt>
      <trkpt lat="46.35551" lon="6.48999">
        <ele>479.20923</ele>
        <time>2014-08-26T08:21:50Z</time>
      </trkpt>
      <trkpt lat="46.35546" lon="6.49007">
        <ele>479.20923</ele>
        <time>2014-08-26T08:21:55Z</time>
      </trkpt>
      <trkpt lat="46.35546" lon="6.49007">
        <ele>479.20923</ele>
        <time>2014-08-26T08:22:00Z</time>
      </trkpt>
      <trkpt lat="46.35549" lon="6.49026">
        <ele>478.69687</ele>
        <time>2014-08-26T08:22:15Z</time>
      </trkpt>
      <trkpt lat="46.35549" lon="6.49026">
        <ele>478.69687</ele>
        <time>2014-08-26T08:22:20Z</time>
      </trkpt>
      <trkpt lat="46.35545" lon="6.49027">
        <ele>478.69687</ele>
        <time>2014-08-26T08:22:25Z</time>
      </trkpt>
      <trkpt lat="46.35546" lon="6.49028">
        <ele>478.69687</ele>
        <time>2014-08-26T08:22:30Z</time>
      </trkpt>
      <trkpt lat="46.35547" lon="6.4903">
        <ele>478.69687</ele>
        <time>2014-08-26T08:22:35Z</time>
      </trkpt>
      <trkpt lat="46.35547" lon="6.4903">
        <ele>478.69687</ele>
        <time>2014-08-26T08:22:40Z</time>
      </trkpt>
      <trkpt lat="46.35547" lon="6.49034">
        <ele>478.69687</ele>
        <time>2014-08-26T08:22:50Z</time>
      </trkpt>
      <trkpt lat="46.35545" lon="6.49043">
        <ele>478.63852</ele>
        <time>2014-08-26T08:22:55Z</time>
      </trkpt>
      <trkpt lat="46.35543" lon="6.49065">
        <ele>478.74265</ele>
        <time>2014-08-26T08:23:00Z</time>
      </trkpt>
      <trkpt lat="46.35546" lon="6.4909">
        <ele>479.0124</ele>
        <time>2014-08-26T08:23:05Z</time>
      </trkpt>
      <trkpt lat="46.35544" lon="6.49098">
        <ele>479.0124</ele>
        <time>2014-08-26T08:23:10Z</time>
      </trkpt>
      <trkpt lat="46.35544" lon="6.491">
        <ele>479.0124</ele>
        <time>2014-08-26T08:23:15Z</time>
      </trkpt>
      <trkpt lat="46.35544" lon="6.491">
        <ele>479.0124</ele>
        <time>2014-08-26T08:23:20Z</time>
      </trkpt>
      <trkpt lat="46.35542" lon="6.49111">
        <ele>479.8536</ele>
        <time>2014-08-26T08:23:25Z</time>
      </trkpt>
      <trkpt lat="46.35539" lon="6.49117">
        <ele>479.8536</ele>
        <time>2014-08-26T08:23:30Z</time>
      </trkpt>
      <trkpt lat="46.35537" lon="6.4912">
        <ele>479.8536</ele>
        <time>2014-08-26T08:23:35Z</time>
      </trkpt>
      <trkpt lat="46.35535" lon="6.49124">
        <ele>480.81918</ele>
        <time>2014-08-26T08:23:40Z</time>
      </trkpt>
      <trkpt lat="46.35524" lon="6.49148">
        <ele>481.89786</ele>
        <time>2014-08-26T08:23:45Z</time>
      </trkpt>
      <trkpt lat="46.35514" lon="6.49155">
        <ele>483.0068</ele>
        <time>2014-08-26T08:23:50Z</time>
      </trkpt>
      <trkpt lat="46.35512" lon="6.49159">
        <ele>483.0068</ele>
        <time>2014-08-26T08:23:55Z</time>
      </trkpt>
      <trkpt lat="46.35511" lon="6.4916">
        <ele>483.0068</ele>
        <time>2014-08-26T08:24:00Z</time>
      </trkpt>
      <trkpt lat="46.35507" lon="6.4916">
        <ele>483.0068</ele>
        <time>2014-08-26T08:24:05Z</time>
      </trkpt>
      <trkpt lat="46.35505" lon="6.49161">
        <ele>483.93945</ele>
        <time>2014-08-26T08:24:10Z</time>
      </trkpt>
      <trkpt lat="46.35501" lon="6.49166">
        <ele>483.93945</ele>
        <time>2014-08-26T08:24:15Z</time>
      </trkpt>
      <trkpt lat="46.35499" lon="6.49165">
        <ele>483.93945</ele>
        <time>2014-08-26T08:24:20Z</time>
      </trkpt>
      <trkpt lat="46.35499" lon="6.49165">
        <ele>483.93945</ele>
        <time>2014-08-26T08:24:25Z</time>
      </trkpt>
      <trkpt lat="46.35498" lon="6.49166">
        <ele>483.93945</ele>
        <time>2014-08-26T08:24:30Z</time>
      </trkpt>
      <trkpt lat="46.35494" lon="6.49166">
        <ele>485.02356</ele>
        <time>2014-08-26T08:24:35Z</time>
      </trkpt>
      <trkpt lat="46.35486" lon="6.49168">
        <ele>485.02356</ele>
        <time>2014-08-26T08:24:40Z</time>
      </trkpt>
      <trkpt lat="46.35483" lon="6.4917">
        <ele>486.30304</ele>
        <time>2014-08-26T08:24:45Z</time>
      </trkpt>
      <trkpt lat="46.35479" lon="6.49174">
        <ele>486.30304</ele>
        <time>2014-08-26T08:24:50Z</time>
      </trkpt>
      <trkpt lat="46.35476" lon="6.49176">
        <ele>486.30304</ele>
        <time>2014-08-26T08:24:55Z</time>
      </trkpt>
      <trkpt lat="46.35476" lon="6.49176">
        <ele>486.30304</ele>
        <time>2014-08-26T08:25:00Z</time>
      </trkpt>
      <trkpt lat="46.35475" lon="6.49177">
        <ele>486.30304</ele>
        <time>2014-08-26T08:25:05Z</time>
      </trkpt>
      <trkpt lat="46.35471" lon="6.4918">
        <ele>488.10617</ele>
        <time>2014-08-26T08:25:10Z</time>
      </trkpt>
      <trkpt lat="46.35463" lon="6.49187">
        <ele>489.84213</ele>
        <time>2014-08-26T08:25:15Z</time>
      </trkpt>
      <trkpt lat="46.35449" lon="6.49195">
        <ele>491.5401</ele>
        <time>2014-08-26T08:25:20Z</time>
      </trkpt>
      <trkpt lat="46.35447" lon="6.49195">
        <ele>491.5401</ele>
        <time>2014-08-26T08:25:25Z</time>
      </trkpt>
      <trkpt lat="46.35444" lon="6.49191">
        <ele>491.5401</ele>
        <time>2014-08-26T08:25:30Z</time>
      </trkpt>
      <trkpt lat="46.35443" lon="6.49191">
        <ele>491.5401</ele>
        <time>2014-08-26T08:25:35Z</time>
      </trkpt>
      <trkpt lat="46.35438" lon="6.4919">
        <ele>493.8182</ele>
        <time>2014-08-26T08:25:40Z</time>
      </trkpt>
      <trkpt lat="46.35438" lon="6.49191">
        <ele>493.8182</ele>
        <time>2014-08-26T08:25:45Z</time>
      </trkpt>
      <trkpt lat="46.3543" lon="6.49195">
        <ele>496.23865</ele>
        <time>2014-08-26T08:25:50Z</time>
      </trkpt>
      <trkpt lat="46.35418" lon="6.49202">
        <ele>498.61166</ele>
        <time>2014-08-26T08:25:55Z</time>
      </trkpt>
      <trkpt lat="46.35412" lon="6.49211">
        <ele>498.61166</ele>
        <time>2014-08-26T08:26:00Z</time>
      </trkpt>
      <trkpt lat="46.35411" lon="6.49217">
        <ele>500.8769</ele>
        <time>2014-08-26T08:26:05Z</time>
      </trkpt>
      <trkpt lat="46.35412" lon="6.49218">
        <ele>500.8769</ele>
        <time>2014-08-26T08:26:10Z</time>
      </trkpt>
      <trkpt lat="46.35413" lon="6.49218">
        <ele>500.8769</ele>
        <time>2014-08-26T08:26:15Z</time>
      </trkpt>
      <trkpt lat="46.35413" lon="6.49218">
        <ele>500.8769</ele>
        <time>2014-08-26T08:26:20Z</time>
      </trkpt>
      <trkpt lat="46.35414" lon="6.49219">
        <ele>500.8769</ele>
        <time>2014-08-26T08:26:25Z</time>
      </trkpt>
      <trkpt lat="46.35418" lon="6.49223">
        <ele>500.8769</ele>
        <time>2014-08-26T08:26:30Z</time>
      </trkpt>
      <trkpt lat="46.35424" lon="6.49233">
        <ele>502.8635</ele>
        <time>2014-08-26T08:26:35Z</time>
      </trkpt>
      <trkpt lat="46.35426" lon="6.49233">
        <ele>502.8635</ele>
        <time>2014-08-26T08:26:40Z</time>
      </trkpt>
      <trkpt lat="46.35426" lon="6.49233">
        <ele>502.8635</ele>
        <time>2014-08-26T08:26:45Z</time>
      </trkpt>
      <trkpt lat="46.35429" lon="6.49235">
        <ele>502.8635</ele>
        <time>2014-08-26T08:26:50Z</time>
      </trkpt>
      <trkpt lat="46.35437" lon="6.49236">
        <ele>504.12582</ele>
        <time>2014-08-26T08:26:55Z</time>
      </trkpt>
      <trkpt lat="46.35437" lon="6.49236">
        <ele>504.12582</ele>
        <time>2014-08-26T08:27:00Z</time>
      </trkpt>
      <trkpt lat="46.35439" lon="6.49243">
        <ele>504.12582</ele>
        <time>2014-08-26T08:27:05Z</time>
      </trkpt>
      <trkpt lat="46.35453" lon="6.49253">
        <ele>504.98807</ele>
        <time>2014-08-26T08:27:10Z</time>
      </trkpt>
      <trkpt lat="46.35463" lon="6.4926">
        <ele>505.57883</ele>
        <time>2014-08-26T08:27:15Z</time>
      </trkpt>
      <trkpt lat="46.35466" lon="6.49263">
        <ele>505.57883</ele>
        <time>2014-08-26T08:27:20Z</time>
      </trkpt>
      <trkpt lat="46.35468" lon="6.49267">
        <ele>505.57883</ele>
        <time>2014-08-26T08:27:25Z</time>
      </trkpt>
      <trkpt lat="46.35475" lon="6.49273">
        <ele>505.60022</ele>
        <time>2014-08-26T08:27:30Z</time>
      </trkpt>
      <trkpt lat="46.35482" lon="6.49275">
        <ele>505.60022</ele>
        <time>2014-08-26T08:27:35Z</time>
      </trkpt>
      <trkpt lat="46.3549" lon="6.49278">
        <ele>505.18143</ele>
        <time>2014-08-26T08:27:40Z</time>
      </trkpt>
      <trkpt lat="46.35497" lon="6.49278">
        <ele>505.18143</ele>
        <time>2014-08-26T08:27:45Z</time>
      </trkpt>
      <trkpt lat="46.35497" lon="6.49277">
        <ele>505.18143</ele>
        <time>2014-08-26T08:27:50Z</time>
      </trkpt>
      <trkpt lat="46.35501" lon="6.49277">
        <ele>504.35703</ele>
        <time>2014-08-26T08:27:55Z</time>
      </trkpt>
      <trkpt lat="46.35502" lon="6.49276">
        <ele>504.35703</ele>
        <time>2014-08-26T08:28:00Z</time>
      </trkpt>
      <trkpt lat="46.35507" lon="6.49279">
        <ele>504.35703</ele>
        <time>2014-08-26T08:28:05Z</time>
      </trkpt>
      <trkpt lat="46.3552" lon="6.49285">
        <ele>503.3763</ele>
        <time>2014-08-26T08:28:10Z</time>
      </trkpt>
      <trkpt lat="46.35521" lon="6.49287">
        <ele>503.3763</ele>
        <time>2014-08-26T08:28:15Z</time>
      </trkpt>
      <trkpt lat="46.35523" lon="6.49287">
        <ele>503.3763</ele>
        <time>2014-08-26T08:28:20Z</time>
      </trkpt>
      <trkpt lat="46.35532" lon="6.49293">
        <ele>502.83118</ele>
        <time>2014-08-26T08:28:25Z</time>
      </trkpt>
      <trkpt lat="46.35537" lon="6.49295">
        <ele>502.83118</ele>
        <time>2014-08-26T08:28:30Z</time>
      </trkpt>
      <trkpt lat="46.35544" lon="6.49296">
        <ele>502.1735</ele>
        <time>2014-08-26T08:28:35Z</time>
      </trkpt>
      <trkpt lat="46.35549" lon="6.49299">
        <ele>502.1735</ele>
        <time>2014-08-26T08:28:40Z</time>
      </trkpt>
      <trkpt lat="46.35555" lon="6.493">
        <ele>501.2128</ele>
        <time>2014-08-26T08:28:45Z</time>
      </trkpt>
      <trkpt lat="46.35568" lon="6.49301">
        <ele>500.03293</ele>
        <time>2014-08-26T08:28:50Z</time>
      </trkpt>
      <trkpt lat="46.35572" lon="6.49303">
        <ele>500.03293</ele>
        <time>2014-08-26T08:28:55Z</time>
      </trkpt>
      <trkpt lat="46.35576" lon="6.49303">
        <ele>500.03293</ele>
        <time>2014-08-26T08:29:00Z</time>
      </trkpt>
      <trkpt lat="46.35584" lon="6.49307">
        <ele>498.75534</ele>
        <time>2014-08-26T08:29:05Z</time>
      </trkpt>
      <trkpt lat="46.35587" lon="6.49308">
        <ele>498.75534</ele>
        <time>2014-08-26T08:29:10Z</time>
      </trkpt>
      <trkpt lat="46.35587" lon="6.49308">
        <ele>498.75534</ele>
        <time>2014-08-26T08:29:15Z</time>
      </trkpt>
      <trkpt lat="46.35588" lon="6.4931">
        <ele>498.75534</ele>
        <time>2014-08-26T08:29:20Z</time>
      </trkpt>
      <trkpt lat="46.35591" lon="6.49317">
        <ele>497.82434</ele>
        <time>2014-08-26T08:29:25Z</time>
      </trkpt>
      <trkpt lat="46.35592" lon="6.49324">
        <ele>497.82434</ele>
        <time>2014-08-26T08:29:30Z</time>
      </trkpt>
      <trkpt lat="46.35603" lon="6.49336">
        <ele>496.95886</ele>
        <time>2014-08-26T08:29:35Z</time>
      </trkpt>
      <trkpt lat="46.35607" lon="6.49349">
        <ele>496.11438</ele>
        <time>2014-08-26T08:29:40Z</time>
      </trkpt>
      <trkpt lat="46.35611" lon="6.49348">
        <ele>496.11438</ele>
        <time>2014-08-26T08:29:45Z</time>
      </trkpt>
      <trkpt lat="46.35616" lon="6.4935">
        <ele>496.11438</ele>
        <time>2014-08-26T08:29:50Z</time>
      </trkpt>
      <trkpt lat="46.35621" lon="6.4936">
        <ele>494.9902</ele>
        <time>2014-08-26T08:29:55Z</time>
      </trkpt>
      <trkpt lat="46.35624" lon="6.49363">
        <ele>494.9902</ele>
        <time>2014-08-26T08:30:00Z</time>
      </trkpt>
      <trkpt lat="46.35628" lon="6.49368">
        <ele>493.55338</ele>
        <time>2014-08-26T08:30:05Z</time>
      </trkpt>
      <trkpt lat="46.35637" lon="6.49371">
        <ele>492.0769</ele>
        <time>2014-08-26T08:30:10Z</time>
      </trkpt>
      <trkpt lat="46.3564" lon="6.49375">
        <ele>492.0769</ele>
        <time>2014-08-26T08:30:15Z</time>
      </trkpt>
      <trkpt lat="46.35641" lon="6.49379">
        <ele>492.0769</ele>
        <time>2014-08-26T08:30:20Z</time>
      </trkpt>
      <trkpt lat="46.35652" lon="6.49379">
        <ele>490.20847</ele>
        <time>2014-08-26T08:30:25Z</time>
      </trkpt>
      <trkpt lat="46.35657" lon="6.4938">
        <ele>490.20847</ele>
        <time>2014-08-26T08:30:30Z</time>
      </trkpt>
      <trkpt lat="46.35669" lon="6.49385">
        <ele>488.2855</ele>
        <time>2014-08-26T08:30:35Z</time>
      </trkpt>
      <trkpt lat="46.35675" lon="6.4939">
        <ele>488.2855</ele>
        <time>2014-08-26T08:30:40Z</time>
      </trkpt>
      <trkpt lat="46.35676" lon="6.49394">
        <ele>486.419</ele>
        <time>2014-08-26T08:30:45Z</time>
      </trkpt>
      <trkpt lat="46.35675" lon="6.49398">
        <ele>486.419</ele>
        <time>2014-08-26T08:30:50Z</time>
      </trkpt>
      <trkpt lat="46.35678" lon="6.494">
        <ele>486.419</ele>
        <time>2014-08-26T08:30:55Z</time>
      </trkpt>
      <trkpt lat="46.35677" lon="6.49408">
        <ele>484.68277</ele>
        <time>2014-08-26T08:31:00Z</time>
      </trkpt>
      <trkpt lat="46.35676" lon="6.49413">
        <ele>484.68277</ele>
        <time>2014-08-26T08:31:05Z</time>
      </trkpt>
      <trkpt lat="46.35677" lon="6.49418">
        <ele>484.68277</ele>
        <time>2014-08-26T08:31:10Z</time>
      </trkpt>
      <trkpt lat="46.35678" lon="6.49423">
        <ele>483.25995</ele>
        <time>2014-08-26T08:31:15Z</time>
      </trkpt>
      <trkpt lat="46.35679" lon="6.49425">
        <ele>483.25995</ele>
        <time>2014-08-26T08:31:20Z</time>
      </trkpt>
      <trkpt lat="46.35679" lon="6.4943">
        <ele>483.25995</ele>
        <time>2014-08-26T08:31:25Z</time>
      </trkpt>
      <trkpt lat="46.35679" lon="6.49436">
        <ele>482.14627</ele>
        <time>2014-08-26T08:31:30Z</time>
      </trkpt>
      <trkpt lat="46.3568" lon="6.49442">
        <ele>482.14627</ele>
        <time>2014-08-26T08:31:35Z</time>
      </trkpt>
      <trkpt lat="46.3568" lon="6.49443">
        <ele>482.14627</ele>
        <time>2014-08-26T08:31:40Z</time>
      </trkpt>
      <trkpt lat="46.35681" lon="6.49444">
        <ele>482.14627</ele>
        <time>2014-08-26T08:31:45Z</time>
      </trkpt>
      <trkpt lat="46.35679" lon="6.49449">
        <ele>481.481</ele>
        <time>2014-08-26T08:31:50Z</time>
      </trkpt>
      <trkpt lat="46.35678" lon="6.49453">
        <ele>481.481</ele>
        <time>2014-08-26T08:31:55Z</time>
      </trkpt>
      <trkpt lat="46.35676" lon="6.49458">
        <ele>481.481</ele>
        <time>2014-08-26T08:32:00Z</time>
      </trkpt>
      <trkpt lat="46.35676" lon="6.49458">
        <ele>481.481</ele>
        <time>2014-08-26T08:32:05Z</time>
      </trkpt>
      <trkpt lat="46.35678" lon="6.49465">
        <ele>481.26196</ele>
        <time>2014-08-26T08:32:10Z</time>
      </trkpt>
      <trkpt lat="46.35683" lon="6.49473">
        <ele>481.26196</ele>
        <time>2014-08-26T08:32:15Z</time>
      </trkpt>
      <trkpt lat="46.35684" lon="6.49476">
        <ele>481.75967</ele>
        <time>2014-08-26T08:32:20Z</time>
      </trkpt>
      <trkpt lat="46.35685" lon="6.49481">
        <ele>481.75967</ele>
        <time>2014-08-26T08:32:25Z</time>
      </trkpt>
      <trkpt lat="46.35688" lon="6.49487">
        <ele>481.75967</ele>
        <time>2014-08-26T08:32:30Z</time>
      </trkpt>
      <trkpt lat="46.35691" lon="6.49507">
        <ele>483.0785</ele>
        <time>2014-08-26T08:32:35Z</time>
      </trkpt>
      <trkpt lat="46.3569" lon="6.49511">
        <ele>483.0785</ele>
        <time>2014-08-26T08:32:40Z</time>
      </trkpt>
      <trkpt lat="46.3569" lon="6.49518">
        <ele>483.0785</ele>
        <time>2014-08-26T08:32:45Z</time>
      </trkpt>
      <trkpt lat="46.3569" lon="6.49527">
        <ele>484.9525</ele>
        <time>2014-08-26T08:32:50Z</time>
      </trkpt>
      <trkpt lat="46.35689" lon="6.4954">
        <ele>486.8454</ele>
        <time>2014-08-26T08:32:55Z</time>
      </trkpt>
      <trkpt lat="46.35692" lon="6.49544">
        <ele>486.8454</ele>
        <time>2014-08-26T08:33:00Z</time>
      </trkpt>
      <trkpt lat="46.35697" lon="6.4955">
        <ele>488.9087</ele>
        <time>2014-08-26T08:33:05Z</time>
      </trkpt>
      <trkpt lat="46.357" lon="6.49551">
        <ele>488.9087</ele>
        <time>2014-08-26T08:33:10Z</time>
      </trkpt>
      <trkpt lat="46.357" lon="6.49552">
        <ele>488.9087</ele>
        <time>2014-08-26T08:33:15Z</time>
      </trkpt>
      <trkpt lat="46.35704" lon="6.49558">
        <ele>491.1669</ele>
        <time>2014-08-26T08:33:20Z</time>
      </trkpt>
      <trkpt lat="46.35705" lon="6.49561">
        <ele>491.1669</ele>
        <time>2014-08-26T08:33:25Z</time>
      </trkpt>
      <trkpt lat="46.35705" lon="6.49567">
        <ele>491.1669</ele>
        <time>2014-08-26T08:33:30Z</time>
      </trkpt>
      <trkpt lat="46.35705" lon="6.49573">
        <ele>493.44052</ele>
        <time>2014-08-26T08:33:35Z</time>
      </trkpt>
      <trkpt lat="46.35706" lon="6.49579">
        <ele>493.44052</ele>
        <time>2014-08-26T08:33:40Z</time>
      </trkpt>
      <trkpt lat="46.35709" lon="6.49583">
        <ele>493.44052</ele>
        <time>2014-08-26T08:33:45Z</time>
      </trkpt>
      <trkpt lat="46.35709" lon="6.49583">
        <ele>493.44052</ele>
        <time>2014-08-26T08:33:50Z</time>
      </trkpt>
      <trkpt lat="46.35705" lon="6.49604">
        <ele>496.35574</ele>
        <time>2014-08-26T08:33:55Z</time>
      </trkpt>
      <trkpt lat="46.35708" lon="6.49611">
        <ele>496.35574</ele>
        <time>2014-08-26T08:34:00Z</time>
      </trkpt>
      <trkpt lat="46.35711" lon="6.49617">
        <ele>499.55426</ele>
        <time>2014-08-26T08:34:05Z</time>
      </trkpt>
      <trkpt lat="46.35712" lon="6.4962">
        <ele>499.55426</ele>
        <time>2014-08-26T08:34:10Z</time>
      </trkpt>
      <trkpt lat="46.35712" lon="6.49623">
        <ele>499.55426</ele>
        <time>2014-08-26T08:34:15Z</time>
      </trkpt>
      <trkpt lat="46.35713" lon="6.49626">
        <ele>499.55426</ele>
        <time>2014-08-26T08:34:20Z</time>
      </trkpt>
      <trkpt lat="46.35714" lon="6.4963">
        <ele>502.78986</ele>
        <time>2014-08-26T08:34:25Z</time>
      </trkpt>
      <trkpt lat="46.35713" lon="6.49636">
        <ele>502.78986</ele>
        <time>2014-08-26T08:34:30Z</time>
      </trkpt>
      <trkpt lat="46.35715" lon="6.4964">
        <ele>502.78986</ele>
        <time>2014-08-26T08:34:35Z</time>
      </trkpt>
      <trkpt lat="46.35716" lon="6.49643">
        <ele>505.92078</ele>
        <time>2014-08-26T08:34:40Z</time>
      </trkpt>
      <trkpt lat="46.35718" lon="6.49644">
        <ele>505.92078</ele>
        <time>2014-08-26T08:34:45Z</time>
      </trkpt>
      <trkpt lat="46.35719" lon="6.49647">
        <ele>505.92078</ele>
        <time>2014-08-26T08:34:50Z</time>
      </trkpt>
      <trkpt lat="46.35717" lon="6.49653">
        <ele>505.92078</ele>
        <time>2014-08-26T08:34:55Z</time>
      </trkpt>
      <trkpt lat="46.35718" lon="6.49658">
        <ele>508.8161</ele>
        <time>2014-08-26T08:35:00Z</time>
      </trkpt>
      <trkpt lat="46.35718" lon="6.4966">
        <ele>508.8161</ele>
        <time>2014-08-26T08:35:05Z</time>
      </trkpt>
      <trkpt lat="46.35718" lon="6.49662">
        <ele>508.8161</ele>
        <time>2014-08-26T08:35:10Z</time>
      </trkpt>
      <trkpt lat="46.35719" lon="6.49668">
        <ele>508.8161</ele>
        <time>2014-08-26T08:35:15Z</time>
      </trkpt>
      <trkpt lat="46.35721" lon="6.49676">
        <ele>511.34088</ele>
        <time>2014-08-26T08:35:20Z</time>
      </trkpt>
      <trkpt lat="46.35723" lon="6.49681">
        <ele>511.34088</ele>
        <time>2014-08-26T08:35:25Z</time>
      </trkpt>
      <trkpt lat="46.35725" lon="6.49683">
        <ele>511.34088</ele>
        <time>2014-08-26T08:35:30Z</time>
      </trkpt>
      <trkpt lat="46.35728" lon="6.49687">
        <ele>513.8468</ele>
        <time>2014-08-26T08:35:35Z</time>
      </trkpt>
      <trkpt lat="46.35729" lon="6.4969">
        <ele>513.8468</ele>
        <time>2014-08-26T08:35:40Z</time>
      </trkpt>
      <trkpt lat="46.35738" lon="6.49704">
        <ele>516.51587</ele>
        <time>2014-08-26T08:35:45Z</time>
      </trkpt>
      <trkpt lat="46.35744" lon="6.49708">
        <ele>516.51587</ele>
        <time>2014-08-26T08:35:50Z</time>
      </trkpt>
      <trkpt lat="46.35745" lon="6.49711">
        <ele>516.51587</ele>
        <time>2014-08-26T08:35:55Z</time>
      </trkpt>
      <trkpt lat="46.35745" lon="6.49713">
        <ele>519.57404</ele>
        <time>2014-08-26T08:36:00Z</time>
      </trkpt>
      <trkpt lat="46.35748" lon="6.49717">
        <ele>519.57404</ele>
        <time>2014-08-26T08:36:05Z</time>
      </trkpt>
      <trkpt lat="46.35748" lon="6.49717">
        <ele>519.57404</ele>
        <time>2014-08-26T08:36:10Z</time>
      </trkpt>
      <trkpt lat="46.3575" lon="6.49726">
        <ele>522.89813</ele>
        <time>2014-08-26T08:36:15Z</time>
      </trkpt>
      <trkpt lat="46.35752" lon="6.49729">
        <ele>522.89813</ele>
        <time>2014-08-26T08:36:20Z</time>
      </trkpt>
      <trkpt lat="46.35757" lon="6.49739">
        <ele>526.2727</ele>
        <time>2014-08-26T08:36:25Z</time>
      </trkpt>
      <trkpt lat="46.35759" lon="6.49738">
        <ele>526.2727</ele>
        <time>2014-08-26T08:36:30Z</time>
      </trkpt>
      <trkpt lat="46.35759" lon="6.49738">
        <ele>526.2727</ele>
        <time>2014-08-26T08:36:35Z</time>
      </trkpt>
      <trkpt lat="46.35759" lon="6.49739">
        <ele>526.2727</ele>
        <time>2014-08-26T08:36:40Z</time>
      </trkpt>
      <trkpt lat="46.35763" lon="6.49746">
        <ele>526.2727</ele>
        <time>2014-08-26T08:36:45Z</time>
      </trkpt>
      <trkpt lat="46.35766" lon="6.49755">
        <ele>529.6279</ele>
        <time>2014-08-26T08:36:50Z</time>
      </trkpt>
      <trkpt lat="46.35767" lon="6.4976">
        <ele>529.6279</ele>
        <time>2014-08-26T08:36:55Z</time>
      </trkpt>
      <trkpt lat="46.3577" lon="6.49764">
        <ele>529.6279</ele>
        <time>2014-08-26T08:37:00Z</time>
      </trkpt>
      <trkpt lat="46.35772" lon="6.49769">
        <ele>532.7408</ele>
        <time>2014-08-26T08:37:05Z</time>
      </trkpt>
      <trkpt lat="46.35772" lon="6.49774">
        <ele>532.7408</ele>
        <time>2014-08-26T08:37:10Z</time>
      </trkpt>
      <trkpt lat="46.35773" lon="6.49776">
        <ele>532.7408</ele>
        <time>2014-08-26T08:37:15Z</time>
      </trkpt>
      <trkpt lat="46.35773" lon="6.49779">
        <ele>532.7408</ele>
        <time>2014-08-26T08:37:20Z</time>
      </trkpt>
      <trkpt lat="46.35772" lon="6.49783">
        <ele>535.53516</ele>
        <time>2014-08-26T08:37:25Z</time>
      </trkpt>
      <trkpt lat="46.35771" lon="6.49787">
        <ele>535.53516</ele>
        <time>2014-08-26T08:37:30Z</time>
      </trkpt>
      <trkpt lat="46.35771" lon="6.49792">
        <ele>535.53516</ele>
        <time>2014-08-26T08:37:35Z</time>
      </trkpt>
      <trkpt lat="46.35771" lon="6.49794">
        <ele>535.53516</ele>
        <time>2014-08-26T08:37:40Z</time>
      </trkpt>
      <trkpt lat="46.35771" lon="6.49798">
        <ele>538.0426</ele>
        <time>2014-08-26T08:37:45Z</time>
      </trkpt>
      <trkpt lat="46.35768" lon="6.49805">
        <ele>538.0426</ele>
        <time>2014-08-26T08:37:50Z</time>
      </trkpt>
      <trkpt lat="46.35768" lon="6.49806">
        <ele>538.0426</ele>
        <time>2014-08-26T08:37:55Z</time>
      </trkpt>
      <trkpt lat="46.35766" lon="6.49806">
        <ele>538.0426</ele>
        <time>2014-08-26T08:38:00Z</time>
      </trkpt>
      <trkpt lat="46.35764" lon="6.49808">
        <ele>540.3797</ele>
        <time>2014-08-26T08:38:05Z</time>
      </trkpt>
      <trkpt lat="46.35764" lon="6.49813">
        <ele>540.3797</ele>
        <time>2014-08-26T08:38:10Z</time>
      </trkpt>
      <trkpt lat="46.35762" lon="6.49821">
        <ele>542.5545</ele>
        <time>2014-08-26T08:38:15Z</time>
      </trkpt>
      <trkpt lat="46.35762" lon="6.49824">
        <ele>542.5545</ele>
        <time>2014-08-26T08:38:20Z</time>
      </trkpt>
      <trkpt lat="46.35761" lon="6.49825">
        <ele>542.5545</ele>
        <time>2014-08-26T08:38:25Z</time>
      </trkpt>
      <trkpt lat="46.35761" lon="6.49825">
        <ele>542.5545</ele>
        <time>2014-08-26T08:38:30Z</time>
      </trkpt>
      <trkpt lat="46.35763" lon="6.49836">
        <ele>545.6126</ele>
        <time>2014-08-26T08:38:40Z</time>
      </trkpt>
      <trkpt lat="46.35763" lon="6.49846">
        <ele>545.6126</ele>
        <time>2014-08-26T08:38:45Z</time>
      </trkpt>
      <trkpt lat="46.35758" lon="6.49858">
        <ele>548.70465</ele>
        <time>2014-08-26T08:38:50Z</time>
      </trkpt>
      <trkpt lat="46.35756" lon="6.49863">
        <ele>548.70465</ele>
        <time>2014-08-26T08:38:55Z</time>
      </trkpt>
      <trkpt lat="46.35753" lon="6.49869">
        <ele>548.70465</ele>
        <time>2014-08-26T08:39:00Z</time>
      </trkpt>
      <trkpt lat="46.35747" lon="6.49882">
        <ele>551.43304</ele>
        <time>2014-08-26T08:39:05Z</time>
      </trkpt>
      <trkpt lat="46.35741" lon="6.49889">
        <ele>551.43304</ele>
        <time>2014-08-26T08:39:10Z</time>
      </trkpt>
      <trkpt lat="46.35734" lon="6.49895">
        <ele>553.83417</ele>
        <time>2014-08-26T08:39:15Z</time>
      </trkpt>
      <trkpt lat="46.35732" lon="6.49895">
        <ele>553.83417</ele>
        <time>2014-08-26T08:39:20Z</time>
      </trkpt>
      <trkpt lat="46.35728" lon="6.49897">
        <ele>553.83417</ele>
        <time>2014-08-26T08:39:25Z</time>
      </trkpt>
      <trkpt lat="46.35728" lon="6.499">
        <ele>553.83417</ele>
        <time>2014-08-26T08:39:30Z</time>
      </trkpt>
      <trkpt lat="46.35726" lon="6.49903">
        <ele>556.0579</ele>
        <time>2014-08-26T08:39:35Z</time>
      </trkpt>
      <trkpt lat="46.35725" lon="6.49903">
        <ele>556.0579</ele>
        <time>2014-08-26T08:39:40Z</time>
      </trkpt>
      <trkpt lat="46.35724" lon="6.49905">
        <ele>556.0579</ele>
        <time>2014-08-26T08:39:45Z</time>
      </trkpt>
      <trkpt lat="46.35722" lon="6.49912">
        <ele>556.0579</ele>
        <time>2014-08-26T08:39:50Z</time>
      </trkpt>
      <trkpt lat="46.3572" lon="6.49919">
        <ele>558.2873</ele>
        <time>2014-08-26T08:39:55Z</time>
      </trkpt>
      <trkpt lat="46.35715" lon="6.49929">
        <ele>558.2873</ele>
        <time>2014-08-26T08:40:00Z</time>
      </trkpt>
      <trkpt lat="46.35713" lon="6.49934">
        <ele>560.37506</ele>
        <time>2014-08-26T08:40:05Z</time>
      </trkpt>
      <trkpt lat="46.35714" lon="6.49937">
        <ele>560.37506</ele>
        <time>2014-08-26T08:40:10Z</time>
      </trkpt>
      <trkpt lat="46.35716" lon="6.4994">
        <ele>560.37506</ele>
        <time>2014-08-26T08:40:15Z</time>
      </trkpt>
      <trkpt lat="46.35718" lon="6.49941">
        <ele>560.37506</ele>
        <time>2014-08-26T08:40:20Z</time>
      </trkpt>
      <trkpt lat="46.35722" lon="6.49943">
        <ele>562.2861</ele>
        <time>2014-08-26T08:40:25Z</time>
      </trkpt>
      <trkpt lat="46.35725" lon="6.49947">
        <ele>562.2861</ele>
        <time>2014-08-26T08:40:30Z</time>
      </trkpt>
      <trkpt lat="46.35729" lon="6.49959">
        <ele>563.9741</ele>
        <time>2014-08-26T08:40:35Z</time>
      </trkpt>
      <trkpt lat="46.3573" lon="6.49971">
        <ele>563.9741</ele>
        <time>2014-08-26T08:40:40Z</time>
      </trkpt>
      <trkpt lat="46.35732" lon="6.49975">
        <ele>565.3973</ele>
        <time>2014-08-26T08:40:45Z</time>
      </trkpt>
      <trkpt lat="46.35733" lon="6.49982">
        <ele>565.3973</ele>
        <time>2014-08-26T08:40:50Z</time>
      </trkpt>
      <trkpt lat="46.35733" lon="6.49988">
        <ele>566.56067</ele>
        <time>2014-08-26T08:40:55Z</time>
      </trkpt>
      <trkpt lat="46.35735" lon="6.49989">
        <ele>566.56067</ele>
        <time>2014-08-26T08:41:00Z</time>
      </trkpt>
      <trkpt lat="46.35736" lon="6.49992">
        <ele>566.56067</ele>
        <time>2014-08-26T08:41:05Z</time>
      </trkpt>
      <trkpt lat="46.35735" lon="6.49995">
        <ele>566.56067</ele>
        <time>2014-08-26T08:41:10Z</time>
      </trkpt>
      <trkpt lat="46.35729" lon="6.50002">
        <ele>567.62866</ele>
        <time>2014-08-26T08:41:15Z</time>
      </trkpt>
      <trkpt lat="46.3572" lon="6.50012">
        <ele>568.50867</ele>
        <time>2014-08-26T08:41:20Z</time>
      </trkpt>
      <trkpt lat="46.35713" lon="6.50019">
        <ele>569.25995</ele>
        <time>2014-08-26T08:41:25Z</time>
      </trkpt>
      <trkpt lat="46.35706" lon="6.50027">
        <ele>569.25995</ele>
        <time>2014-08-26T08:41:30Z</time>
      </trkpt>
      <trkpt lat="46.35706" lon="6.50027">
        <ele>569.25995</ele>
        <time>2014-08-26T08:41:35Z</time>
      </trkpt>
      <trkpt lat="46.35703" lon="6.50028">
        <ele>569.96655</ele>
        <time>2014-08-26T08:41:40Z</time>
      </trkpt>
      <trkpt lat="46.35698" lon="6.50037">
        <ele>569.96655</ele>
        <time>2014-08-26T08:41:45Z</time>
      </trkpt>
      <trkpt lat="46.35693" lon="6.50043">
        <ele>570.4328</ele>
        <time>2014-08-26T08:41:50Z</time>
      </trkpt>
      <trkpt lat="46.35686" lon="6.5005">
        <ele>570.4328</ele>
        <time>2014-08-26T08:41:55Z</time>
      </trkpt>
      <trkpt lat="46.35681" lon="6.50055">
        <ele>570.65106</ele>
        <time>2014-08-26T08:42:00Z</time>
      </trkpt>
      <trkpt lat="46.35677" lon="6.5006">
        <ele>570.65106</ele>
        <time>2014-08-26T08:42:05Z</time>
      </trkpt>
      <trkpt lat="46.35672" lon="6.50061">
        <ele>570.932</ele>
        <time>2014-08-26T08:42:10Z</time>
      </trkpt>
      <trkpt lat="46.35665" lon="6.50061">
        <ele>570.932</ele>
        <time>2014-08-26T08:42:15Z</time>
      </trkpt>
      <trkpt lat="46.3566" lon="6.50065">
        <ele>571.3041</ele>
        <time>2014-08-26T08:42:20Z</time>
      </trkpt>
      <trkpt lat="46.35656" lon="6.50069">
        <ele>571.3041</ele>
        <time>2014-08-26T08:42:25Z</time>
      </trkpt>
      <trkpt lat="46.35651" lon="6.50075">
        <ele>571.56274</ele>
        <time>2014-08-26T08:42:30Z</time>
      </trkpt>
      <trkpt lat="46.35647" lon="6.50077">
        <ele>571.56274</ele>
        <time>2014-08-26T08:42:35Z</time>
      </trkpt>
      <trkpt lat="46.35643" lon="6.50082">
        <ele>571.7349</ele>
        <time>2014-08-26T08:42:40Z</time>
      </trkpt>
      <trkpt lat="46.35641" lon="6.50085">
        <ele>571.7349</ele>
        <time>2014-08-26T08:42:45Z</time>
      </trkpt>
      <trkpt lat="46.35637" lon="6.50087">
        <ele>571.7349</ele>
        <time>2014-08-26T08:42:50Z</time>
      </trkpt>
      <trkpt lat="46.35635" lon="6.50092">
        <ele>572.0045</ele>
        <time>2014-08-26T08:42:55Z</time>
      </trkpt>
      <trkpt lat="46.35635" lon="6.50091">
        <ele>572.0045</ele>
        <time>2014-08-26T08:43:00Z</time>
      </trkpt>
      <trkpt lat="46.35634" lon="6.50089">
        <ele>572.0045</ele>
        <time>2014-08-26T08:43:05Z</time>
      </trkpt>
      <trkpt lat="46.35633" lon="6.5009">
        <ele>572.0045</ele>
        <time>2014-08-26T08:43:10Z</time>
      </trkpt>
      <trkpt lat="46.35632" lon="6.50092">
        <ele>572.0045</ele>
        <time>2014-08-26T08:43:15Z</time>
      </trkpt>
      <trkpt lat="46.3563" lon="6.50093">
        <ele>572.0045</ele>
        <time>2014-08-26T08:43:20Z</time>
      </trkpt>
      <trkpt lat="46.35629" lon="6.50094">
        <ele>572.0045</ele>
        <time>2014-08-26T08:43:25Z</time>
      </trkpt>
      <trkpt lat="46.35629" lon="6.50092">
        <ele>572.1811</ele>
        <time>2014-08-26T08:43:30Z</time>
      </trkpt>
      <trkpt lat="46.3563" lon="6.5009">
        <ele>572.1811</ele>
        <time>2014-08-26T08:43:35Z</time>
      </trkpt>
      <trkpt lat="46.35629" lon="6.50091">
        <ele>572.1811</ele>
        <time>2014-08-26T08:43:40Z</time>
      </trkpt>
      <trkpt lat="46.35628" lon="6.50095">
        <ele>572.1811</ele>
        <time>2014-08-26T08:43:45Z</time>
      </trkpt>
      <trkpt lat="46.3563" lon="6.50096">
        <ele>572.1811</ele>
        <time>2014-08-26T08:43:50Z</time>
      </trkpt>
      <trkpt lat="46.35631" lon="6.50096">
        <ele>572.1811</ele>
        <time>2014-08-26T08:43:55Z</time>
      </trkpt>
      <trkpt lat="46.35633" lon="6.50094">
        <ele>572.16077</ele>
        <time>2014-08-26T08:44:00Z</time>
      </trkpt>
      <trkpt lat="46.35634" lon="6.50093">
        <ele>572.16077</ele>
        <time>2014-08-26T08:44:05Z</time>
      </trkpt>
      <trkpt lat="46.35635" lon="6.50092">
        <ele>572.16077</ele>
        <time>2014-08-26T08:44:10Z</time>
      </trkpt>
      <trkpt lat="46.35633" lon="6.50091">
        <ele>572.16077</ele>
        <time>2014-08-26T08:44:15Z</time>
      </trkpt>
      <trkpt lat="46.35632" lon="6.50092">
        <ele>572.16077</ele>
        <time>2014-08-26T08:44:20Z</time>
      </trkpt>
      <trkpt lat="46.35634" lon="6.50093">
        <ele>572.16077</ele>
        <time>2014-08-26T08:44:25Z</time>
      </trkpt>
      <trkpt lat="46.3564" lon="6.50097">
        <ele>572.5538</ele>
        <time>2014-08-26T08:44:30Z</time>
      </trkpt>
      <trkpt lat="46.35642" lon="6.50104">
        <ele>572.5538</ele>
        <time>2014-08-26T08:44:35Z</time>
      </trkpt>
      <trkpt lat="46.35646" lon="6.50111">
        <ele>572.7858</ele>
        <time>2014-08-26T08:44:40Z</time>
      </trkpt>
      <trkpt lat="46.35647" lon="6.50116">
        <ele>572.7858</ele>
        <time>2014-08-26T08:44:45Z</time>
      </trkpt>
      <trkpt lat="46.35647" lon="6.50118">
        <ele>572.7858</ele>
        <time>2014-08-26T08:44:50Z</time>
      </trkpt>
      <trkpt lat="46.3565" lon="6.50119">
        <ele>572.7858</ele>
        <time>2014-08-26T08:44:55Z</time>
      </trkpt>
      <trkpt lat="46.35652" lon="6.50124">
        <ele>572.42615</ele>
        <time>2014-08-26T08:45:00Z</time>
      </trkpt>
      <trkpt lat="46.35658" lon="6.50132">
        <ele>572.42615</ele>
        <time>2014-08-26T08:45:05Z</time>
      </trkpt>
      <trkpt lat="46.35662" lon="6.50135">
        <ele>571.82666</ele>
        <time>2014-08-26T08:45:10Z</time>
      </trkpt>
      <trkpt lat="46.35669" lon="6.50142">
        <ele>571.82666</ele>
        <time>2014-08-26T08:45:15Z</time>
      </trkpt>
      <trkpt lat="46.35669" lon="6.50144">
        <ele>571.82666</ele>
        <time>2014-08-26T08:45:20Z</time>
      </trkpt>
      <trkpt lat="46.35669" lon="6.50144">
        <ele>571.82666</ele>
        <time>2014-08-26T08:45:25Z</time>
      </trkpt>
      <trkpt lat="46.35667" lon="6.5015">
        <ele>571.48676</ele>
        <time>2014-08-26T08:45:30Z</time>
      </trkpt>
      <trkpt lat="46.35667" lon="6.5015">
        <ele>571.48676</ele>
        <time>2014-08-26T08:45:35Z</time>
      </trkpt>
      <trkpt lat="46.35662" lon="6.50155">
        <ele>571.48676</ele>
        <time>2014-08-26T08:45:45Z</time>
      </trkpt>
      <trkpt lat="46.35658" lon="6.50153">
        <ele>571.7533</ele>
        <time>2014-08-26T08:45:50Z</time>
      </trkpt>
      <trkpt lat="46.35654" lon="6.50152">
        <ele>571.7533</ele>
        <time>2014-08-26T08:45:55Z</time>
      </trkpt>
      <trkpt lat="46.35651" lon="6.50154">
        <ele>571.7533</ele>
        <time>2014-08-26T08:46:00Z</time>
      </trkpt>
      <trkpt lat="46.35642" lon="6.50157">
        <ele>572.15295</ele>
        <time>2014-08-26T08:46:05Z</time>
      </trkpt>
      <trkpt lat="46.35642" lon="6.50157">
        <ele>572.15295</ele>
        <time>2014-08-26T08:46:10Z</time>
      </trkpt>
      <trkpt lat="46.35642" lon="6.50156">
        <ele>572.15295</ele>
        <time>2014-08-26T08:46:15Z</time>
      </trkpt>
      <trkpt lat="46.35641" lon="6.50155">
        <ele>572.15295</ele>
        <time>2014-08-26T08:46:20Z</time>
      </trkpt>
      <trkpt lat="46.35639" lon="6.50155">
        <ele>572.15295</ele>
        <time>2014-08-26T08:46:25Z</time>
      </trkpt>
      <trkpt lat="46.35639" lon="6.50155">
        <ele>572.15295</ele>
        <time>2014-08-26T08:46:30Z</time>
      </trkpt>
      <trkpt lat="46.35637" lon="6.50151">
        <ele>572.15295</ele>
        <time>2014-08-26T08:46:35Z</time>
      </trkpt>
      <trkpt lat="46.35636" lon="6.50151">
        <ele>572.15295</ele>
        <time>2014-08-26T08:46:40Z</time>
      </trkpt>
      <trkpt lat="46.35635" lon="6.5015">
        <ele>573.97626</ele>
        <time>2014-08-26T08:46:45Z</time>
      </trkpt>
      <trkpt lat="46.35632" lon="6.50148">
        <ele>573.97626</ele>
        <time>2014-08-26T08:46:50Z</time>
      </trkpt>
      <trkpt lat="46.35625" lon="6.50148">
        <ele>575.9505</ele>
        <time>2014-08-26T08:46:55Z</time>
      </trkpt>
      <trkpt lat="46.35622" lon="6.50149">
        <ele>575.9505</ele>
        <time>2014-08-26T08:47:00Z</time>
      </trkpt>
      <trkpt lat="46.35621" lon="6.50149">
        <ele>575.9505</ele>
        <time>2014-08-26T08:47:05Z</time>
      </trkpt>
      <trkpt lat="46.35619" lon="6.50146">
        <ele>575.9505</ele>
        <time>2014-08-26T08:47:10Z</time>
      </trkpt>
      <trkpt lat="46.35612" lon="6.50142">
        <ele>578.40906</ele>
        <time>2014-08-26T08:47:15Z</time>
      </trkpt>
      <trkpt lat="46.35609" lon="6.50138">
        <ele>578.40906</ele>
        <time>2014-08-26T08:47:20Z</time>
      </trkpt>
      <trkpt lat="46.35609" lon="6.50138">
        <ele>578.40906</ele>
        <time>2014-08-26T08:47:25Z</time>
      </trkpt>
      <trkpt lat="46.35607" lon="6.50138">
        <ele>578.40906</ele>
        <time>2014-08-26T08:47:30Z</time>
      </trkpt>
      <trkpt lat="46.35604" lon="6.50135">
        <ele>581.27026</ele>
        <time>2014-08-26T08:47:35Z</time>
      </trkpt>
      <trkpt lat="46.35593" lon="6.50127">
        <ele>584.0251</ele>
        <time>2014-08-26T08:47:40Z</time>
      </trkpt>
      <trkpt lat="46.35582" lon="6.50119">
        <ele>586.6774</ele>
        <time>2014-08-26T08:47:45Z</time>
      </trkpt>
      <trkpt lat="46.35577" lon="6.50113">
        <ele>586.6774</ele>
        <time>2014-08-26T08:47:50Z</time>
      </trkpt>
      <trkpt lat="46.35569" lon="6.50115">
        <ele>589.3466</ele>
        <time>2014-08-26T08:47:55Z</time>
      </trkpt>
      <trkpt lat="46.35563" lon="6.50115">
        <ele>589.3466</ele>
        <time>2014-08-26T08:48:00Z</time>
      </trkpt>
      <trkpt lat="46.35559" lon="6.50114">
        <ele>591.7253</ele>
        <time>2014-08-26T08:48:05Z</time>
      </trkpt>
      <trkpt lat="46.35551" lon="6.50113">
        <ele>591.7253</ele>
        <time>2014-08-26T08:48:10Z</time>
      </trkpt>
      <trkpt lat="46.35547" lon="6.50112">
        <ele>593.7599</ele>
        <time>2014-08-26T08:48:15Z</time>
      </trkpt>
      <trkpt lat="46.35544" lon="6.50109">
        <ele>593.7599</ele>
        <time>2014-08-26T08:48:20Z</time>
      </trkpt>
      <trkpt lat="46.35542" lon="6.50105">
        <ele>593.7599</ele>
        <time>2014-08-26T08:48:25Z</time>
      </trkpt>
      <trkpt lat="46.35539" lon="6.50104">
        <ele>595.5171</ele>
        <time>2014-08-26T08:48:30Z</time>
      </trkpt>
      <trkpt lat="46.35536" lon="6.50106">
        <ele>595.5171</ele>
        <time>2014-08-26T08:48:35Z</time>
      </trkpt>
      <trkpt lat="46.35532" lon="6.50105">
        <ele>595.5171</ele>
        <time>2014-08-26T08:48:40Z</time>
      </trkpt>
      <trkpt lat="46.3553" lon="6.50103">
        <ele>596.94415</ele>
        <time>2014-08-26T08:48:45Z</time>
      </trkpt>
      <trkpt lat="46.35529" lon="6.50102">
        <ele>596.94415</ele>
        <time>2014-08-26T08:48:50Z</time>
      </trkpt>
      <trkpt lat="46.35525" lon="6.50101">
        <ele>596.94415</ele>
        <time>2014-08-26T08:48:55Z</time>
      </trkpt>
      <trkpt lat="46.35522" lon="6.50099">
        <ele>596.94415</ele>
        <time>2014-08-26T08:49:00Z</time>
      </trkpt>
      <trkpt lat="46.35516" lon="6.50092">
        <ele>597.82025</ele>
        <time>2014-08-26T08:49:05Z</time>
      </trkpt>
      <trkpt lat="46.35513" lon="6.50089">
        <ele>597.82025</ele>
        <time>2014-08-26T08:49:10Z</time>
      </trkpt>
      <trkpt lat="46.35512" lon="6.5009">
        <ele>597.82025</ele>
        <time>2014-08-26T08:49:15Z</time>
      </trkpt>
      <trkpt lat="46.35509" lon="6.50088">
        <ele>597.82025</ele>
        <time>2014-08-26T08:49:20Z</time>
      </trkpt>
      <trkpt lat="46.35507" lon="6.50086">
        <ele>598.3891</ele>
        <time>2014-08-26T08:49:25Z</time>
      </trkpt>
      <trkpt lat="46.35506" lon="6.50086">
        <ele>598.3891</ele>
        <time>2014-08-26T08:49:30Z</time>
      </trkpt>
      <trkpt lat="46.35504" lon="6.50087">
        <ele>598.3891</ele>
        <time>2014-08-26T08:49:35Z</time>
      </trkpt>
      <trkpt lat="46.35503" lon="6.50088">
        <ele>598.3891</ele>
        <time>2014-08-26T08:49:40Z</time>
      </trkpt>
      <trkpt lat="46.355" lon="6.5009">
        <ele>598.3891</ele>
        <time>2014-08-26T08:49:45Z</time>
      </trkpt>
      <trkpt lat="46.35497" lon="6.50091">
        <ele>598.8196</ele>
        <time>2014-08-26T08:49:50Z</time>
      </trkpt>
      <trkpt lat="46.35497" lon="6.50091">
        <ele>598.8196</ele>
        <time>2014-08-26T08:49:55Z</time>
      </trkpt>
      <trkpt lat="46.35488" lon="6.5009">
        <ele>598.8196</ele>
        <time>2014-08-26T08:50:05Z</time>
      </trkpt>
      <trkpt lat="46.35486" lon="6.50088">
        <ele>599.42725</ele>
        <time>2014-08-26T08:50:10Z</time>
      </trkpt>
      <trkpt lat="46.35483" lon="6.50089">
        <ele>599.42725</ele>
        <time>2014-08-26T08:50:15Z</time>
      </trkpt>
      <trkpt lat="46.35482" lon="6.50089">
        <ele>599.42725</ele>
        <time>2014-08-26T08:50:20Z</time>
      </trkpt>
      <trkpt lat="46.3548" lon="6.5009">
        <ele>599.42725</ele>
        <time>2014-08-26T08:50:25Z</time>
      </trkpt>
      <trkpt lat="46.35475" lon="6.50092">
        <ele>600.2012</ele>
        <time>2014-08-26T08:50:30Z</time>
      </trkpt>
      <trkpt lat="46.35471" lon="6.50093">
        <ele>600.2012</ele>
        <time>2014-08-26T08:50:35Z</time>
      </trkpt>
      <trkpt lat="46.35472" lon="6.50098">
        <ele>600.2012</ele>
        <time>2014-08-26T08:50:40Z</time>
      </trkpt>
      <trkpt lat="46.35475" lon="6.50103">
        <ele>600.7562</ele>
        <time>2014-08-26T08:50:45Z</time>
      </trkpt>
      <trkpt lat="46.35479" lon="6.50106">
        <ele>600.7562</ele>
        <time>2014-08-26T08:50:50Z</time>
      </trkpt>
      <trkpt lat="46.3548" lon="6.50112">
        <ele>600.7562</ele>
        <time>2014-08-26T08:50:55Z</time>
      </trkpt>
      <trkpt lat="46.35483" lon="6.50119">
        <ele>601.0963</ele>
        <time>2014-08-26T08:51:00Z</time>
      </trkpt>
      <trkpt lat="46.35487" lon="6.50122">
        <ele>601.0963</ele>
        <time>2014-08-26T08:51:05Z</time>
      </trkpt>
      <trkpt lat="46.35493" lon="6.50125">
        <ele>601.34094</ele>
        <time>2014-08-26T08:51:10Z</time>
      </trkpt>
      <trkpt lat="46.35496" lon="6.50126">
        <ele>601.34094</ele>
        <time>2014-08-26T08:51:15Z</time>
      </trkpt>
      <trkpt lat="46.35498" lon="6.50128">
        <ele>601.34094</ele>
        <time>2014-08-26T08:51:20Z</time>
      </trkpt>
      <trkpt lat="46.35502" lon="6.50132">
        <ele>601.42816</ele>
        <time>2014-08-26T08:51:25Z</time>
      </trkpt>
      <trkpt lat="46.35504" lon="6.50134">
        <ele>601.42816</ele>
        <time>2014-08-26T08:51:30Z</time>
      </trkpt>
      <trkpt lat="46.35509" lon="6.50138">
        <ele>601.42816</ele>
        <time>2014-08-26T08:51:35Z</time>
      </trkpt>
      <trkpt lat="46.35516" lon="6.50143">
        <ele>601.14246</ele>
        <time>2014-08-26T08:51:40Z</time>
      </trkpt>
      <trkpt lat="46.35517" lon="6.50147">
        <ele>601.14246</ele>
        <time>2014-08-26T08:51:45Z</time>
      </trkpt>
      <trkpt lat="46.35516" lon="6.50152">
        <ele>601.14246</ele>
        <time>2014-08-26T08:51:50Z</time>
      </trkpt>
      <trkpt lat="46.35524" lon="6.50157">
        <ele>600.6022</ele>
        <time>2014-08-26T08:51:55Z</time>
      </trkpt>
      <trkpt lat="46.35527" lon="6.50157">
        <ele>600.6022</ele>
        <time>2014-08-26T08:52:00Z</time>
      </trkpt>
      <trkpt lat="46.35531" lon="6.50162">
        <ele>600.6022</ele>
        <time>2014-08-26T08:52:05Z</time>
      </trkpt>
      <trkpt lat="46.35537" lon="6.50166">
        <ele>599.7591</ele>
        <time>2014-08-26T08:52:10Z</time>
      </trkpt>
      <trkpt lat="46.35544" lon="6.50171">
        <ele>599.7591</ele>
        <time>2014-08-26T08:52:15Z</time>
      </trkpt>
      <trkpt lat="46.35554" lon="6.50187">
        <ele>598.7423</ele>
        <time>2014-08-26T08:52:20Z</time>
      </trkpt>
      <trkpt lat="46.35557" lon="6.50197">
        <ele>598.7423</ele>
        <time>2014-08-26T08:52:25Z</time>
      </trkpt>
      <trkpt lat="46.35561" lon="6.50202">
        <ele>597.54193</ele>
        <time>2014-08-26T08:52:30Z</time>
      </trkpt>
      <trkpt lat="46.35565" lon="6.50208">
        <ele>597.54193</ele>
        <time>2014-08-26T08:52:35Z</time>
      </trkpt>
      <trkpt lat="46.3557" lon="6.50216">
        <ele>596.3945</ele>
        <time>2014-08-26T08:52:40Z</time>
      </trkpt>
      <trkpt lat="46.35571" lon="6.50222">
        <ele>596.3945</ele>
        <time>2014-08-26T08:52:45Z</time>
      </trkpt>
      <trkpt lat="46.3557" lon="6.50226">
        <ele>596.3945</ele>
        <time>2014-08-26T08:52:50Z</time>
      </trkpt>
      <trkpt lat="46.35571" lon="6.5023">
        <ele>595.36017</ele>
        <time>2014-08-26T08:52:55Z</time>
      </trkpt>
      <trkpt lat="46.3557" lon="6.50235">
        <ele>595.36017</ele>
        <time>2014-08-26T08:53:00Z</time>
      </trkpt>
      <trkpt lat="46.35571" lon="6.50238">
        <ele>595.36017</ele>
        <time>2014-08-26T08:53:05Z</time>
      </trkpt>
      <trkpt lat="46.35572" lon="6.50241">
        <ele>595.36017</ele>
        <time>2014-08-26T08:53:10Z</time>
      </trkpt>
      <trkpt lat="46.35576" lon="6.50253">
        <ele>594.6961</ele>
        <time>2014-08-26T08:53:15Z</time>
      </trkpt>
      <trkpt lat="46.35585" lon="6.50266">
        <ele>594.2359</ele>
        <time>2014-08-26T08:53:20Z</time>
      </trkpt>
      <trkpt lat="46.35584" lon="6.50268">
        <ele>594.2359</ele>
        <time>2014-08-26T08:53:25Z</time>
      </trkpt>
      <trkpt lat="46.35584" lon="6.50274">
        <ele>594.2359</ele>
        <time>2014-08-26T08:53:30Z</time>
      </trkpt>
      <trkpt lat="46.35587" lon="6.50305">
        <ele>594.1849</ele>
        <time>2014-08-26T08:53:35Z</time>
      </trkpt>
      <trkpt lat="46.35592" lon="6.50312">
        <ele>594.1849</ele>
        <time>2014-08-26T08:53:40Z</time>
      </trkpt>
      <trkpt lat="46.35596" lon="6.5032">
        <ele>594.271</ele>
        <time>2014-08-26T08:53:45Z</time>
      </trkpt>
      <trkpt lat="46.356" lon="6.50325">
        <ele>594.271</ele>
        <time>2014-08-26T08:53:50Z</time>
      </trkpt>
      <trkpt lat="46.35604" lon="6.50326">
        <ele>594.271</ele>
        <time>2014-08-26T08:53:55Z</time>
      </trkpt>
      <trkpt lat="46.35605" lon="6.50327">
        <ele>594.48645</ele>
        <time>2014-08-26T08:54:00Z</time>
      </trkpt>
      <trkpt lat="46.35605" lon="6.5033">
        <ele>594.48645</ele>
        <time>2014-08-26T08:54:05Z</time>
      </trkpt>
      <trkpt lat="46.35607" lon="6.50336">
        <ele>594.48645</ele>
        <time>2014-08-26T08:54:10Z</time>
      </trkpt>
      <trkpt lat="46.35611" lon="6.50341">
        <ele>595.0831</ele>
        <time>2014-08-26T08:54:15Z</time>
      </trkpt>
      <trkpt lat="46.35618" lon="6.50348">
        <ele>595.0831</ele>
        <time>2014-08-26T08:54:20Z</time>
      </trkpt>
      <trkpt lat="46.35623" lon="6.50363">
        <ele>595.8031</ele>
        <time>2014-08-26T08:54:25Z</time>
      </trkpt>
      <trkpt lat="46.35625" lon="6.50373">
        <ele>595.8031</ele>
        <time>2014-08-26T08:54:30Z</time>
      </trkpt>
      <trkpt lat="46.35628" lon="6.50381">
        <ele>596.3349</ele>
        <time>2014-08-26T08:54:35Z</time>
      </trkpt>
      <trkpt lat="46.35628" lon="6.50384">
        <ele>596.3349</ele>
        <time>2014-08-26T08:54:40Z</time>
      </trkpt>
      <trkpt lat="46.35627" lon="6.5039">
        <ele>596.3349</ele>
        <time>2014-08-26T08:54:45Z</time>
      </trkpt>
      <trkpt lat="46.35628" lon="6.50393">
        <ele>596.3349</ele>
        <time>2014-08-26T08:54:50Z</time>
      </trkpt>
      <trkpt lat="46.35631" lon="6.50397">
        <ele>596.98126</ele>
        <time>2014-08-26T08:54:55Z</time>
      </trkpt>
      <trkpt lat="46.35636" lon="6.50405">
        <ele>596.98126</ele>
        <time>2014-08-26T08:55:00Z</time>
      </trkpt>
      <trkpt lat="46.35639" lon="6.50417">
        <ele>597.60425</ele>
        <time>2014-08-26T08:55:05Z</time>
      </trkpt>
      <trkpt lat="46.35639" lon="6.50417">
        <ele>597.60425</ele>
        <time>2014-08-26T08:55:10Z</time>
      </trkpt>
      <trkpt lat="46.3564" lon="6.50422">
        <ele>597.60425</ele>
        <time>2014-08-26T08:55:15Z</time>
      </trkpt>
      <trkpt lat="46.35638" lon="6.50425">
        <ele>597.60425</ele>
        <time>2014-08-26T08:55:20Z</time>
      </trkpt>
      <trkpt lat="46.35643" lon="6.50435">
        <ele>598.47955</ele>
        <time>2014-08-26T08:55:25Z</time>
      </trkpt>
      <trkpt lat="46.35642" lon="6.50444">
        <ele>598.47955</ele>
        <time>2014-08-26T08:55:30Z</time>
      </trkpt>
      <trkpt lat="46.35644" lon="6.50455">
        <ele>599.18463</ele>
        <time>2014-08-26T08:55:35Z</time>
      </trkpt>
      <trkpt lat="46.35649" lon="6.50468">
        <ele>599.65967</ele>
        <time>2014-08-26T08:55:40Z</time>
      </trkpt>
      <trkpt lat="46.35649" lon="6.50478">
        <ele>599.65967</ele>
        <time>2014-08-26T08:55:45Z</time>
      </trkpt>
      <trkpt lat="46.35649" lon="6.5049">
        <ele>600.0516</ele>
        <time>2014-08-26T08:55:50Z</time>
      </trkpt>
      <trkpt lat="46.35646" lon="6.50503">
        <ele>600.45355</ele>
        <time>2014-08-26T08:55:55Z</time>
      </trkpt>
      <trkpt lat="46.35647" lon="6.50506">
        <ele>600.45355</ele>
        <time>2014-08-26T08:56:00Z</time>
      </trkpt>
      <trkpt lat="46.35642" lon="6.50515">
        <ele>600.6778</ele>
        <time>2014-08-26T08:56:05Z</time>
      </trkpt>
      <trkpt lat="46.35636" lon="6.50526">
        <ele>600.83923</ele>
        <time>2014-08-26T08:56:10Z</time>
      </trkpt>
      <trkpt lat="46.3563" lon="6.50538">
        <ele>601.00104</ele>
        <time>2014-08-26T08:56:15Z</time>
      </trkpt>
      <trkpt lat="46.35627" lon="6.50546">
        <ele>601.00104</ele>
        <time>2014-08-26T08:56:20Z</time>
      </trkpt>
      <trkpt lat="46.35627" lon="6.50547">
        <ele>601.00104</ele>
        <time>2014-08-26T08:56:25Z</time>
      </trkpt>
      <trkpt lat="46.35627" lon="6.50547">
        <ele>601.00104</ele>
        <time>2014-08-26T08:56:30Z</time>
      </trkpt>
      <trkpt lat="46.35627" lon="6.50553">
        <ele>601.16406</ele>
        <time>2014-08-26T08:56:35Z</time>
      </trkpt>
      <trkpt lat="46.35624" lon="6.50563">
        <ele>601.16406</ele>
        <time>2014-08-26T08:56:40Z</time>
      </trkpt>
      <trkpt lat="46.35624" lon="6.50563">
        <ele>601.16406</ele>
        <time>2014-08-26T08:56:45Z</time>
      </trkpt>
      <trkpt lat="46.35617" lon="6.5057">
        <ele>601.32916</ele>
        <time>2014-08-26T08:56:50Z</time>
      </trkpt>
      <trkpt lat="46.35615" lon="6.50576">
        <ele>601.32916</ele>
        <time>2014-08-26T08:56:55Z</time>
      </trkpt>
      <trkpt lat="46.35614" lon="6.50582">
        <ele>601.52576</ele>
        <time>2014-08-26T08:57:00Z</time>
      </trkpt>
      <trkpt lat="46.35614" lon="6.50595">
        <ele>601.6513</ele>
        <time>2014-08-26T08:57:05Z</time>
      </trkpt>
      <trkpt lat="46.35602" lon="6.50621">
        <ele>601.6686</ele>
        <time>2014-08-26T08:57:10Z</time>
      </trkpt>
      <trkpt lat="46.35602" lon="6.50625">
        <ele>601.6686</ele>
        <time>2014-08-26T08:57:15Z</time>
      </trkpt>
      <trkpt lat="46.35602" lon="6.50629">
        <ele>601.6686</ele>
        <time>2014-08-26T08:57:20Z</time>
      </trkpt>
      <trkpt lat="46.35598" lon="6.5064">
        <ele>601.4281</ele>
        <time>2014-08-26T08:57:25Z</time>
      </trkpt>
      <trkpt lat="46.35597" lon="6.50642">
        <ele>601.4281</ele>
        <time>2014-08-26T08:57:30Z</time>
      </trkpt>
      <trkpt lat="46.35597" lon="6.50642">
        <ele>601.4281</ele>
        <time>2014-08-26T08:57:35Z</time>
      </trkpt>
      <trkpt lat="46.35595" lon="6.50651">
        <ele>601.4281</ele>
        <time>2014-08-26T08:57:40Z</time>
      </trkpt>
      <trkpt lat="46.35594" lon="6.50669">
        <ele>601.1811</ele>
        <time>2014-08-26T08:57:45Z</time>
      </trkpt>
      <trkpt lat="46.35596" lon="6.50679">
        <ele>601.1811</ele>
        <time>2014-08-26T08:57:50Z</time>
      </trkpt>
      <trkpt lat="46.35597" lon="6.50688">
        <ele>600.9009</ele>
        <time>2014-08-26T08:57:55Z</time>
      </trkpt>
      <trkpt lat="46.356" lon="6.50696">
        <ele>600.9009</ele>
        <time>2014-08-26T08:58:00Z</time>
      </trkpt>
      <trkpt lat="46.35603" lon="6.50701">
        <ele>600.4476</ele>
        <time>2014-08-26T08:58:05Z</time>
      </trkpt>
      <trkpt lat="46.35605" lon="6.50709">
        <ele>600.4476</ele>
        <time>2014-08-26T08:58:10Z</time>
      </trkpt>
      <trkpt lat="46.35605" lon="6.5072">
        <ele>599.8648</ele>
        <time>2014-08-26T08:58:15Z</time>
      </trkpt>
      <trkpt lat="46.35605" lon="6.50726">
        <ele>599.8648</ele>
        <time>2014-08-26T08:58:20Z</time>
      </trkpt>
      <trkpt lat="46.35602" lon="6.50735">
        <ele>599.1646</ele>
        <time>2014-08-26T08:58:25Z</time>
      </trkpt>
      <trkpt lat="46.35602" lon="6.50745">
        <ele>599.1646</ele>
        <time>2014-08-26T08:58:30Z</time>
      </trkpt>
      <trkpt lat="46.35602" lon="6.50755">
        <ele>598.5457</ele>
        <time>2014-08-26T08:58:35Z</time>
      </trkpt>
      <trkpt lat="46.35603" lon="6.50765">
        <ele>598.5457</ele>
        <time>2014-08-26T08:58:40Z</time>
      </trkpt>
      <trkpt lat="46.35604" lon="6.50772">
        <ele>598.0478</ele>
        <time>2014-08-26T08:58:45Z</time>
      </trkpt>
      <trkpt lat="46.35606" lon="6.50777">
        <ele>598.0478</ele>
        <time>2014-08-26T08:58:50Z</time>
      </trkpt>
      <trkpt lat="46.35608" lon="6.50785">
        <ele>597.5055</ele>
        <time>2014-08-26T08:58:55Z</time>
      </trkpt>
      <trkpt lat="46.35608" lon="6.50789">
        <ele>597.5055</ele>
        <time>2014-08-26T08:59:00Z</time>
      </trkpt>
      <trkpt lat="46.35608" lon="6.50795">
        <ele>597.5055</ele>
        <time>2014-08-26T08:59:05Z</time>
      </trkpt>
      <trkpt lat="46.35609" lon="6.50804">
        <ele>596.9962</ele>
        <time>2014-08-26T08:59:10Z</time>
      </trkpt>
      <trkpt lat="46.35607" lon="6.50823">
        <ele>596.4763</ele>
        <time>2014-08-26T08:59:15Z</time>
      </trkpt>
      <trkpt lat="46.35608" lon="6.50832">
        <ele>596.4763</ele>
        <time>2014-08-26T08:59:20Z</time>
      </trkpt>
      <trkpt lat="46.3561" lon="6.50838">
        <ele>595.8187</ele>
        <time>2014-08-26T08:59:25Z</time>
      </trkpt>
      <trkpt lat="46.35611" lon="6.5084">
        <ele>595.8187</ele>
        <time>2014-08-26T08:59:30Z</time>
      </trkpt>
      <trkpt lat="46.35611" lon="6.50844">
        <ele>595.8187</ele>
        <time>2014-08-26T08:59:35Z</time>
      </trkpt>
      <trkpt lat="46.35609" lon="6.50859">
        <ele>594.90607</ele>
        <time>2014-08-26T08:59:40Z</time>
      </trkpt>
      <trkpt lat="46.35607" lon="6.50875">
        <ele>594.1203</ele>
        <time>2014-08-26T08:59:45Z</time>
      </trkpt>
      <trkpt lat="46.35607" lon="6.50882">
        <ele>594.1203</ele>
        <time>2014-08-26T08:59:50Z</time>
      </trkpt>
      <trkpt lat="46.35606" lon="6.50894">
        <ele>593.55536</ele>
        <time>2014-08-26T08:59:55Z</time>
      </trkpt>
      <trkpt lat="46.35605" lon="6.50902">
        <ele>593.55536</ele>
        <time>2014-08-26T09:00:00Z</time>
      </trkpt>
      <trkpt lat="46.35605" lon="6.50906">
        <ele>593.55536</ele>
        <time>2014-08-26T09:00:05Z</time>
      </trkpt>
      <trkpt lat="46.35606" lon="6.5091">
        <ele>593.1535</ele>
        <time>2014-08-26T09:00:10Z</time>
      </trkpt>
      <trkpt lat="46.35612" lon="6.50914">
        <ele>593.1535</ele>
        <time>2014-08-26T09:00:15Z</time>
      </trkpt>
      <trkpt lat="46.35619" lon="6.50921">
        <ele>592.80316</ele>
        <time>2014-08-26T09:00:20Z</time>
      </trkpt>
      <trkpt lat="46.35619" lon="6.50922">
        <ele>592.80316</ele>
        <time>2014-08-26T09:00:25Z</time>
      </trkpt>
      <trkpt lat="46.35621" lon="6.50924">
        <ele>592.80316</ele>
        <time>2014-08-26T09:00:30Z</time>
      </trkpt>
      <trkpt lat="46.3562" lon="6.50931">
        <ele>592.80316</ele>
        <time>2014-08-26T09:00:35Z</time>
      </trkpt>
      <trkpt lat="46.35626" lon="6.50936">
        <ele>592.1989</ele>
        <time>2014-08-26T09:00:40Z</time>
      </trkpt>
      <trkpt lat="46.35626" lon="6.50936">
        <ele>592.1989</ele>
        <time>2014-08-26T09:00:45Z</time>
      </trkpt>
      <trkpt lat="46.35631" lon="6.50939">
        <ele>592.1989</ele>
        <time>2014-08-26T09:00:50Z</time>
      </trkpt>
      <trkpt lat="46.35635" lon="6.50944">
        <ele>591.75006</ele>
        <time>2014-08-26T09:00:55Z</time>
      </trkpt>
      <trkpt lat="46.35635" lon="6.50945">
        <ele>591.75006</ele>
        <time>2014-08-26T09:01:00Z</time>
      </trkpt>
      <trkpt lat="46.35641" lon="6.50951">
        <ele>591.75006</ele>
        <time>2014-08-26T09:01:05Z</time>
      </trkpt>
      <trkpt lat="46.35655" lon="6.5097">
        <ele>591.6049</ele>
        <time>2014-08-26T09:01:10Z</time>
      </trkpt>
      <trkpt lat="46.35662" lon="6.50973">
        <ele>591.6049</ele>
        <time>2014-08-26T09:01:15Z</time>
      </trkpt>
      <trkpt lat="46.35666" lon="6.50974">
        <ele>591.5828</ele>
        <time>2014-08-26T09:01:20Z</time>
      </trkpt>
      <trkpt lat="46.35668" lon="6.50982">
        <ele>591.5828</ele>
        <time>2014-08-26T09:01:25Z</time>
      </trkpt>
      <trkpt lat="46.35675" lon="6.50989">
        <ele>591.64575</ele>
        <time>2014-08-26T09:01:30Z</time>
      </trkpt>
      <trkpt lat="46.35684" lon="6.51007">
        <ele>591.7438</ele>
        <time>2014-08-26T09:01:35Z</time>
      </trkpt>
      <trkpt lat="46.35685" lon="6.51021">
        <ele>591.8303</ele>
        <time>2014-08-26T09:01:40Z</time>
      </trkpt>
      <trkpt lat="46.35685" lon="6.51031">
        <ele>591.8303</ele>
        <time>2014-08-26T09:01:45Z</time>
      </trkpt>
      <trkpt lat="46.35686" lon="6.51032">
        <ele>591.8303</ele>
        <time>2014-08-26T09:01:50Z</time>
      </trkpt>
      <trkpt lat="46.35686" lon="6.51037">
        <ele>591.9921</ele>
        <time>2014-08-26T09:01:55Z</time>
      </trkpt>
      <trkpt lat="46.35689" lon="6.51043">
        <ele>591.9921</ele>
        <time>2014-08-26T09:02:00Z</time>
      </trkpt>
      <trkpt lat="46.3569" lon="6.51064">
        <ele>592.0931</ele>
        <time>2014-08-26T09:02:05Z</time>
      </trkpt>
      <trkpt lat="46.35692" lon="6.5107">
        <ele>592.0931</ele>
        <time>2014-08-26T09:02:10Z</time>
      </trkpt>
      <trkpt lat="46.35693" lon="6.51073">
        <ele>592.0931</ele>
        <time>2014-08-26T09:02:15Z</time>
      </trkpt>
      <trkpt lat="46.35693" lon="6.51073">
        <ele>592.0931</ele>
        <time>2014-08-26T09:02:20Z</time>
      </trkpt>
      <trkpt lat="46.35697" lon="6.51076">
        <ele>592.18005</ele>
        <time>2014-08-26T09:02:35Z</time>
      </trkpt>
      <trkpt lat="46.35699" lon="6.51081">
        <ele>592.18005</ele>
        <time>2014-08-26T09:02:40Z</time>
      </trkpt>
      <trkpt lat="46.35704" lon="6.51089">
        <ele>592.6424</ele>
        <time>2014-08-26T09:02:45Z</time>
      </trkpt>
      <trkpt lat="46.35706" lon="6.51091">
        <ele>592.6424</ele>
        <time>2014-08-26T09:02:50Z</time>
      </trkpt>
      <trkpt lat="46.35709" lon="6.51102">
        <ele>593.45074</ele>
        <time>2014-08-26T09:02:55Z</time>
      </trkpt>
      <trkpt lat="46.35709" lon="6.51103">
        <ele>593.45074</ele>
        <time>2014-08-26T09:03:00Z</time>
      </trkpt>
      <trkpt lat="46.35711" lon="6.51105">
        <ele>593.45074</ele>
        <time>2014-08-26T09:03:05Z</time>
      </trkpt>
      <trkpt lat="46.35711" lon="6.51106">
        <ele>593.45074</ele>
        <time>2014-08-26T09:03:10Z</time>
      </trkpt>
      <trkpt lat="46.35717" lon="6.51119">
        <ele>594.3751</ele>
        <time>2014-08-26T09:03:15Z</time>
      </trkpt>
      <trkpt lat="46.35722" lon="6.51136">
        <ele>595.1732</ele>
        <time>2014-08-26T09:03:20Z</time>
      </trkpt>
      <trkpt lat="46.35724" lon="6.51148">
        <ele>595.1732</ele>
        <time>2014-08-26T09:03:25Z</time>
      </trkpt>
      <trkpt lat="46.35728" lon="6.51157">
        <ele>595.6354</ele>
        <time>2014-08-26T09:03:30Z</time>
      </trkpt>
      <trkpt lat="46.35727" lon="6.51175">
        <ele>595.9429</ele>
        <time>2014-08-26T09:03:35Z</time>
      </trkpt>
      <trkpt lat="46.35729" lon="6.51178">
        <ele>595.9429</ele>
        <time>2014-08-26T09:03:40Z</time>
      </trkpt>
      <trkpt lat="46.35732" lon="6.51181">
        <ele>595.9429</ele>
        <time>2014-08-26T09:03:45Z</time>
      </trkpt>
      <trkpt lat="46.35736" lon="6.51184">
        <ele>595.8031</ele>
        <time>2014-08-26T09:03:50Z</time>
      </trkpt>
      <trkpt lat="46.35741" lon="6.51184">
        <ele>595.8031</ele>
        <time>2014-08-26T09:03:55Z</time>
      </trkpt>
      <trkpt lat="46.35747" lon="6.51185">
        <ele>595.5514</ele>
        <time>2014-08-26T09:04:00Z</time>
      </trkpt>
      <trkpt lat="46.35754" lon="6.51185">
        <ele>595.5514</ele>
        <time>2014-08-26T09:04:05Z</time>
      </trkpt>
      <trkpt lat="46.3576" lon="6.51183">
        <ele>595.44116</ele>
        <time>2014-08-26T09:04:10Z</time>
      </trkpt>
      <trkpt lat="46.35765" lon="6.51182">
        <ele>595.44116</ele>
        <time>2014-08-26T09:04:15Z</time>
      </trkpt>
      <trkpt lat="46.35775" lon="6.5118">
        <ele>595.57715</ele>
        <time>2014-08-26T09:04:20Z</time>
      </trkpt>
      <trkpt lat="46.3578" lon="6.51175">
        <ele>595.57715</ele>
        <time>2014-08-26T09:04:25Z</time>
      </trkpt>
      <trkpt lat="46.35783" lon="6.51173">
        <ele>595.8683</ele>
        <time>2014-08-26T09:04:30Z</time>
      </trkpt>
      <trkpt lat="46.35786" lon="6.51173">
        <ele>595.8683</ele>
        <time>2014-08-26T09:04:35Z</time>
      </trkpt>
      <trkpt lat="46.35792" lon="6.51168">
        <ele>596.1578</ele>
        <time>2014-08-26T09:04:40Z</time>
      </trkpt>
      <trkpt lat="46.35791" lon="6.51163">
        <ele>596.1578</ele>
        <time>2014-08-26T09:04:45Z</time>
      </trkpt>
      <trkpt lat="46.35791" lon="6.5116">
        <ele>596.1578</ele>
        <time>2014-08-26T09:04:50Z</time>
      </trkpt>
      <trkpt lat="46.35792" lon="6.51156">
        <ele>596.27167</ele>
        <time>2014-08-26T09:04:55Z</time>
      </trkpt>
      <trkpt lat="46.35794" lon="6.5115">
        <ele>596.27167</ele>
        <time>2014-08-26T09:05:00Z</time>
      </trkpt>
      <trkpt lat="46.35795" lon="6.51149">
        <ele>596.27167</ele>
        <time>2014-08-26T09:05:05Z</time>
      </trkpt>
      <trkpt lat="46.35795" lon="6.51146">
        <ele>596.27167</ele>
        <time>2014-08-26T09:05:10Z</time>
      </trkpt>
      <trkpt lat="46.35794" lon="6.5114">
        <ele>596.03467</ele>
        <time>2014-08-26T09:05:15Z</time>
      </trkpt>
      <trkpt lat="46.35796" lon="6.51136">
        <ele>596.03467</ele>
        <time>2014-08-26T09:05:20Z</time>
      </trkpt>
      <trkpt lat="46.358" lon="6.5113">
        <ele>596.03467</ele>
        <time>2014-08-26T09:05:25Z</time>
      </trkpt>
      <trkpt lat="46.35801" lon="6.51113">
        <ele>595.50165</ele>
        <time>2014-08-26T09:05:30Z</time>
      </trkpt>
      <trkpt lat="46.35801" lon="6.51104">
        <ele>595.50165</ele>
        <time>2014-08-26T09:05:35Z</time>
      </trkpt>
      <trkpt lat="46.35801" lon="6.51102">
        <ele>595.50165</ele>
        <time>2014-08-26T09:05:40Z</time>
      </trkpt>
      <trkpt lat="46.35801" lon="6.51092">
        <ele>595.61786</ele>
        <time>2014-08-26T09:05:45Z</time>
      </trkpt>
      <trkpt lat="46.35798" lon="6.51075">
        <ele>595.97455</ele>
        <time>2014-08-26T09:05:50Z</time>
      </trkpt>
      <trkpt lat="46.35799" lon="6.51074">
        <ele>595.97455</ele>
        <time>2014-08-26T09:05:55Z</time>
      </trkpt>
      <trkpt lat="46.35797" lon="6.51063">
        <ele>595.97455</ele>
        <time>2014-08-26T09:06:00Z</time>
      </trkpt>
      <trkpt lat="46.35796" lon="6.51051">
        <ele>596.82654</ele>
        <time>2014-08-26T09:06:05Z</time>
      </trkpt>
      <trkpt lat="46.35804" lon="6.51027">
        <ele>597.74567</ele>
        <time>2014-08-26T09:06:10Z</time>
      </trkpt>
      <trkpt lat="46.35804" lon="6.51019">
        <ele>597.74567</ele>
        <time>2014-08-26T09:06:15Z</time>
      </trkpt>
      <trkpt lat="46.35805" lon="6.51018">
        <ele>597.74567</ele>
        <time>2014-08-26T09:06:20Z</time>
      </trkpt>
      <trkpt lat="46.35806" lon="6.51014">
        <ele>598.7385</ele>
        <time>2014-08-26T09:06:25Z</time>
      </trkpt>
      <trkpt lat="46.35808" lon="6.51012">
        <ele>598.7385</ele>
        <time>2014-08-26T09:06:30Z</time>
      </trkpt>
      <trkpt lat="46.35812" lon="6.51009">
        <ele>598.7385</ele>
        <time>2014-08-26T09:06:35Z</time>
      </trkpt>
      <trkpt lat="46.35819" lon="6.51008">
        <ele>599.7966</ele>
        <time>2014-08-26T09:06:40Z</time>
      </trkpt>
      <trkpt lat="46.35822" lon="6.51009">
        <ele>599.7966</ele>
        <time>2014-08-26T09:06:45Z</time>
      </trkpt>
      <trkpt lat="46.35823" lon="6.51009">
        <ele>599.7966</ele>
        <time>2014-08-26T09:06:50Z</time>
      </trkpt>
      <trkpt lat="46.35825" lon="6.51009">
        <ele>599.7966</ele>
        <time>2014-08-26T09:06:55Z</time>
      </trkpt>
      <trkpt lat="46.35825" lon="6.51008">
        <ele>599.7966</ele>
        <time>2014-08-26T09:07:00Z</time>
      </trkpt>
      <trkpt lat="46.35826" lon="6.51008">
        <ele>599.7966</ele>
        <time>2014-08-26T09:07:05Z</time>
      </trkpt>
      <trkpt lat="46.35827" lon="6.51007">
        <ele>599.7966</ele>
        <time>2014-08-26T09:07:10Z</time>
      </trkpt>
      <trkpt lat="46.35829" lon="6.51008">
        <ele>601.1713</ele>
        <time>2014-08-26T09:07:15Z</time>
      </trkpt>
      <trkpt lat="46.35831" lon="6.51002">
        <ele>601.1713</ele>
        <time>2014-08-26T09:07:20Z</time>
      </trkpt>
      <trkpt lat="46.35835" lon="6.50993">
        <ele>602.6048</ele>
        <time>2014-08-26T09:07:25Z</time>
      </trkpt>
      <trkpt lat="46.35835" lon="6.50993">
        <ele>602.6048</ele>
        <time>2014-08-26T09:07:30Z</time>
      </trkpt>
      <trkpt lat="46.35834" lon="6.50994">
        <ele>602.6048</ele>
        <time>2014-08-26T09:07:35Z</time>
      </trkpt>
      <trkpt lat="46.35836" lon="6.50998">
        <ele>602.6048</ele>
        <time>2014-08-26T09:07:40Z</time>
      </trkpt>
      <trkpt lat="46.35837" lon="6.51001">
        <ele>602.6048</ele>
        <time>2014-08-26T09:07:45Z</time>
      </trkpt>
      <trkpt lat="46.35838" lon="6.51004">
        <ele>603.8437</ele>
        <time>2014-08-26T09:07:50Z</time>
      </trkpt>
      <trkpt lat="46.35836" lon="6.51007">
        <ele>603.8437</ele>
        <time>2014-08-26T09:07:55Z</time>
      </trkpt>
      <trkpt lat="46.35833" lon="6.51007">
        <ele>603.8437</ele>
        <time>2014-08-26T09:08:00Z</time>
      </trkpt>
      <trkpt lat="46.35832" lon="6.51007">
        <ele>603.8437</ele>
        <time>2014-08-26T09:08:05Z</time>
      </trkpt>
      <trkpt lat="46.35832" lon="6.51008">
        <ele>603.8437</ele>
        <time>2014-08-26T09:08:10Z</time>
      </trkpt>
      <trkpt lat="46.35831" lon="6.51008">
        <ele>603.8437</ele>
        <time>2014-08-26T09:08:15Z</time>
      </trkpt>
      <trkpt lat="46.35831" lon="6.51008">
        <ele>603.8437</ele>
        <time>2014-08-26T09:08:20Z</time>
      </trkpt>
      <trkpt lat="46.3583" lon="6.51008">
        <ele>603.8437</ele>
        <time>2014-08-26T09:08:25Z</time>
      </trkpt>
      <trkpt lat="46.35829" lon="6.51009">
        <ele>604.9274</ele>
        <time>2014-08-26T09:08:30Z</time>
      </trkpt>
      <trkpt lat="46.35829" lon="6.5101">
        <ele>604.9274</ele>
        <time>2014-08-26T09:08:35Z</time>
      </trkpt>
      <trkpt lat="46.35828" lon="6.51011">
        <ele>604.9274</ele>
        <time>2014-08-26T09:08:40Z</time>
      </trkpt>
      <trkpt lat="46.35828" lon="6.51011">
        <ele>604.9274</ele>
        <time>2014-08-26T09:08:45Z</time>
      </trkpt>
      <trkpt lat="46.35828" lon="6.51011">
        <ele>604.9274</ele>
        <time>2014-08-26T09:08:50Z</time>
      </trkpt>
      <trkpt lat="46.35829" lon="6.51012">
        <ele>604.9274</ele>
        <time>2014-08-26T09:08:55Z</time>
      </trkpt>
      <trkpt lat="46.35829" lon="6.5101">
        <ele>604.9274</ele>
        <time>2014-08-26T09:09:00Z</time>
      </trkpt>
      <trkpt lat="46.3583" lon="6.5101">
        <ele>604.9274</ele>
        <time>2014-08-26T09:09:05Z</time>
      </trkpt>
      <trkpt lat="46.35831" lon="6.51009">
        <ele>604.9274</ele>
        <time>2014-08-26T09:09:10Z</time>
      </trkpt>
      <trkpt lat="46.35833" lon="6.51006">
        <ele>605.92206</ele>
        <time>2014-08-26T09:09:15Z</time>
      </trkpt>
      <trkpt lat="46.35832" lon="6.51005">
        <ele>605.92206</ele>
        <time>2014-08-26T09:09:20Z</time>
      </trkpt>
      <trkpt lat="46.35833" lon="6.51003">
        <ele>605.92206</ele>
        <time>2014-08-26T09:09:25Z</time>
      </trkpt>
      <trkpt lat="46.35831" lon="6.51003">
        <ele>605.92206</ele>
        <time>2014-08-26T09:09:30Z</time>
      </trkpt>
      <trkpt lat="46.35831" lon="6.51009">
        <ele>605.92206</ele>
        <time>2014-08-26T09:09:35Z</time>
      </trkpt>
      <trkpt lat="46.35829" lon="6.5102">
        <ele>606.6585</ele>
        <time>2014-08-26T09:09:40Z</time>
      </trkpt>
      <trkpt lat="46.35827" lon="6.5103">
        <ele>606.6585</ele>
        <time>2014-08-26T09:09:45Z</time>
      </trkpt>
      <trkpt lat="46.35829" lon="6.51037">
        <ele>607.2835</ele>
        <time>2014-08-26T09:09:50Z</time>
      </trkpt>
      <trkpt lat="46.35829" lon="6.51047">
        <ele>607.2835</ele>
        <time>2014-08-26T09:09:55Z</time>
      </trkpt>
      <trkpt lat="46.35831" lon="6.51057">
        <ele>607.80365</ele>
        <time>2014-08-26T09:10:00Z</time>
      </trkpt>
      <trkpt lat="46.3583" lon="6.51068">
        <ele>607.80365</ele>
        <time>2014-08-26T09:10:05Z</time>
      </trkpt>
      <trkpt lat="46.35831" lon="6.51076">
        <ele>608.2688</ele>
        <time>2014-08-26T09:10:10Z</time>
      </trkpt>
      <trkpt lat="46.35831" lon="6.51085">
        <ele>608.2688</ele>
        <time>2014-08-26T09:10:15Z</time>
      </trkpt>
      <trkpt lat="46.35832" lon="6.51093">
        <ele>608.68207</ele>
        <time>2014-08-26T09:10:20Z</time>
      </trkpt>
      <trkpt lat="46.35832" lon="6.51105">
        <ele>608.68207</ele>
        <time>2014-08-26T09:10:25Z</time>
      </trkpt>
      <trkpt lat="46.35831" lon="6.51114">
        <ele>609.06085</ele>
        <time>2014-08-26T09:10:30Z</time>
      </trkpt>
      <trkpt lat="46.35831" lon="6.51123">
        <ele>609.06085</ele>
        <time>2014-08-26T09:10:35Z</time>
      </trkpt>
      <trkpt lat="46.35833" lon="6.51134">
        <ele>609.4216</ele>
        <time>2014-08-26T09:10:40Z</time>
      </trkpt>
      <trkpt lat="46.35833" lon="6.51144">
        <ele>609.4216</ele>
        <time>2014-08-26T09:10:45Z</time>
      </trkpt>
      <trkpt lat="46.35832" lon="6.51151">
        <ele>609.77954</ele>
        <time>2014-08-26T09:10:50Z</time>
      </trkpt>
      <trkpt lat="46.35833" lon="6.51158">
        <ele>609.77954</ele>
        <time>2014-08-26T09:10:55Z</time>
      </trkpt>
      <trkpt lat="46.35831" lon="6.51168">
        <ele>610.07697</ele>
        <time>2014-08-26T09:11:00Z</time>
      </trkpt>
      <trkpt lat="46.35829" lon="6.51178">
        <ele>610.07697</ele>
        <time>2014-08-26T09:11:05Z</time>
      </trkpt>
      <trkpt lat="46.35828" lon="6.5118">
        <ele>610.07697</ele>
        <time>2014-08-26T09:11:10Z</time>
      </trkpt>
      <trkpt lat="46.35827" lon="6.51182">
        <ele>610.30365</ele>
        <time>2014-08-26T09:11:15Z</time>
      </trkpt>
      <trkpt lat="46.35824" lon="6.5119">
        <ele>610.30365</ele>
        <time>2014-08-26T09:11:20Z</time>
      </trkpt>
      <trkpt lat="46.35821" lon="6.51198">
        <ele>610.43616</ele>
        <time>2014-08-26T09:11:25Z</time>
      </trkpt>
      <trkpt lat="46.35818" lon="6.51205">
        <ele>610.43616</ele>
        <time>2014-08-26T09:11:30Z</time>
      </trkpt>
      <trkpt lat="46.35815" lon="6.51211">
        <ele>610.5393</ele>
        <time>2014-08-26T09:11:35Z</time>
      </trkpt>
      <trkpt lat="46.35811" lon="6.51218">
        <ele>610.5393</ele>
        <time>2014-08-26T09:11:40Z</time>
      </trkpt>
      <trkpt lat="46.35807" lon="6.51226">
        <ele>610.61597</ele>
        <time>2014-08-26T09:11:45Z</time>
      </trkpt>
      <trkpt lat="46.35804" lon="6.5123">
        <ele>610.61597</ele>
        <time>2014-08-26T09:11:50Z</time>
      </trkpt>
      <trkpt lat="46.35799" lon="6.51238">
        <ele>610.62537</ele>
        <time>2014-08-26T09:11:55Z</time>
      </trkpt>
      <trkpt lat="46.35796" lon="6.51243">
        <ele>610.62537</ele>
        <time>2014-08-26T09:12:00Z</time>
      </trkpt>
      <trkpt lat="46.35793" lon="6.51242">
        <ele>610.62537</ele>
        <time>2014-08-26T09:12:05Z</time>
      </trkpt>
      <trkpt lat="46.35792" lon="6.51246">
        <ele>610.6166</ele>
        <time>2014-08-26T09:12:10Z</time>
      </trkpt>
      <trkpt lat="46.3579" lon="6.51254">
        <ele>610.6166</ele>
        <time>2014-08-26T09:12:15Z</time>
      </trkpt>
      <trkpt lat="46.35788" lon="6.51263">
        <ele>610.5199</ele>
        <time>2014-08-26T09:12:20Z</time>
      </trkpt>
      <trkpt lat="46.35787" lon="6.51271">
        <ele>610.5199</ele>
        <time>2014-08-26T09:12:25Z</time>
      </trkpt>
      <trkpt lat="46.35786" lon="6.51279">
        <ele>610.415</ele>
        <time>2014-08-26T09:12:30Z</time>
      </trkpt>
      <trkpt lat="46.3578" lon="6.5129">
        <ele>610.24603</ele>
        <time>2014-08-26T09:12:35Z</time>
      </trkpt>
      <trkpt lat="46.35776" lon="6.51295">
        <ele>610.24603</ele>
        <time>2014-08-26T09:12:40Z</time>
      </trkpt>
      <trkpt lat="46.35773" lon="6.51302">
        <ele>610.09125</ele>
        <time>2014-08-26T09:12:45Z</time>
      </trkpt>
      <trkpt lat="46.3577" lon="6.51316">
        <ele>609.9223</ele>
        <time>2014-08-26T09:12:50Z</time>
      </trkpt>
      <trkpt lat="46.35764" lon="6.5132">
        <ele>609.9223</ele>
        <time>2014-08-26T09:12:55Z</time>
      </trkpt>
      <trkpt lat="46.3576" lon="6.51324">
        <ele>609.8713</ele>
        <time>2014-08-26T09:13:00Z</time>
      </trkpt>
      <trkpt lat="46.35757" lon="6.51329">
        <ele>609.8713</ele>
        <time>2014-08-26T09:13:05Z</time>
      </trkpt>
      <trkpt lat="46.35755" lon="6.5133">
        <ele>609.8713</ele>
        <time>2014-08-26T09:13:10Z</time>
      </trkpt>
      <trkpt lat="46.35751" lon="6.51337">
        <ele>609.9162</ele>
        <time>2014-08-26T09:13:15Z</time>
      </trkpt>
      <trkpt lat="46.35744" lon="6.51341">
        <ele>609.9162</ele>
        <time>2014-08-26T09:13:20Z</time>
      </trkpt>
      <trkpt lat="46.35739" lon="6.51346">
        <ele>609.97894</ele>
        <time>2014-08-26T09:13:25Z</time>
      </trkpt>
      <trkpt lat="46.35736" lon="6.51353">
        <ele>609.97894</ele>
        <time>2014-08-26T09:13:30Z</time>
      </trkpt>
      <trkpt lat="46.35731" lon="6.51359">
        <ele>610.0445</ele>
        <time>2014-08-26T09:13:35Z</time>
      </trkpt>
      <trkpt lat="46.35723" lon="6.51364">
        <ele>610.0445</ele>
        <time>2014-08-26T09:13:40Z</time>
      </trkpt>
      <trkpt lat="46.35718" lon="6.51374">
        <ele>610.04144</ele>
        <time>2014-08-26T09:13:45Z</time>
      </trkpt>
      <trkpt lat="46.35712" lon="6.51379">
        <ele>610.04144</ele>
        <time>2014-08-26T09:13:50Z</time>
      </trkpt>
      <trkpt lat="46.3571" lon="6.51386">
        <ele>610.0477</ele>
        <time>2014-08-26T09:13:55Z</time>
      </trkpt>
      <trkpt lat="46.35707" lon="6.51395">
        <ele>610.0477</ele>
        <time>2014-08-26T09:14:00Z</time>
      </trkpt>
      <trkpt lat="46.35706" lon="6.514">
        <ele>610.03485</ele>
        <time>2014-08-26T09:14:05Z</time>
      </trkpt>
      <trkpt lat="46.35704" lon="6.51403">
        <ele>610.03485</ele>
        <time>2014-08-26T09:14:10Z</time>
      </trkpt>
      <trkpt lat="46.357" lon="6.51411">
        <ele>609.8034</ele>
        <time>2014-08-26T09:14:15Z</time>
      </trkpt>
      <trkpt lat="46.35696" lon="6.5142">
        <ele>609.8034</ele>
        <time>2014-08-26T09:14:20Z</time>
      </trkpt>
      <trkpt lat="46.35694" lon="6.51431">
        <ele>609.44305</ele>
        <time>2014-08-26T09:14:25Z</time>
      </trkpt>
      <trkpt lat="46.35693" lon="6.5144">
        <ele>609.44305</ele>
        <time>2014-08-26T09:14:30Z</time>
      </trkpt>
      <trkpt lat="46.35691" lon="6.51452">
        <ele>608.9363</ele>
        <time>2014-08-26T09:14:35Z</time>
      </trkpt>
      <trkpt lat="46.35686" lon="6.51458">
        <ele>608.9363</ele>
        <time>2014-08-26T09:14:40Z</time>
      </trkpt>
      <trkpt lat="46.35684" lon="6.51465">
        <ele>608.3251</ele>
        <time>2014-08-26T09:14:45Z</time>
      </trkpt>
      <trkpt lat="46.35682" lon="6.51468">
        <ele>608.3251</ele>
        <time>2014-08-26T09:14:50Z</time>
      </trkpt>
      <trkpt lat="46.35683" lon="6.51469">
        <ele>608.3251</ele>
        <time>2014-08-26T09:14:55Z</time>
      </trkpt>
      <trkpt lat="46.35687" lon="6.51468">
        <ele>608.3251</ele>
        <time>2014-08-26T09:15:00Z</time>
      </trkpt>
      <trkpt lat="46.35691" lon="6.51469">
        <ele>607.5619</ele>
        <time>2014-08-26T09:15:05Z</time>
      </trkpt>
      <trkpt lat="46.35697" lon="6.5147">
        <ele>607.5619</ele>
        <time>2014-08-26T09:15:10Z</time>
      </trkpt>
      <trkpt lat="46.35699" lon="6.51469">
        <ele>607.5619</ele>
        <time>2014-08-26T09:15:15Z</time>
      </trkpt>
      <trkpt lat="46.35707" lon="6.51472">
        <ele>606.4879</ele>
        <time>2014-08-26T09:15:20Z</time>
      </trkpt>
      <trkpt lat="46.35714" lon="6.51477">
        <ele>606.4879</ele>
        <time>2014-08-26T09:15:25Z</time>
      </trkpt>
      <trkpt lat="46.35721" lon="6.51479">
        <ele>605.38916</ele>
        <time>2014-08-26T09:15:30Z</time>
      </trkpt>
      <trkpt lat="46.35726" lon="6.51481">
        <ele>605.38916</ele>
        <time>2014-08-26T09:15:35Z</time>
      </trkpt>
      <trkpt lat="46.35729" lon="6.5148">
        <ele>605.38916</ele>
        <time>2014-08-26T09:15:40Z</time>
      </trkpt>
      <trkpt lat="46.35736" lon="6.51481">
        <ele>604.1127</ele>
        <time>2014-08-26T09:15:45Z</time>
      </trkpt>
      <trkpt lat="46.35744" lon="6.51485">
        <ele>604.1127</ele>
        <time>2014-08-26T09:15:50Z</time>
      </trkpt>
      <trkpt lat="46.35748" lon="6.51483">
        <ele>602.89197</ele>
        <time>2014-08-26T09:15:55Z</time>
      </trkpt>
      <trkpt lat="46.35757" lon="6.51483">
        <ele>602.89197</ele>
        <time>2014-08-26T09:16:00Z</time>
      </trkpt>
      <trkpt lat="46.35763" lon="6.51486">
        <ele>601.78455</ele>
        <time>2014-08-26T09:16:05Z</time>
      </trkpt>
      <trkpt lat="46.35769" lon="6.51491">
        <ele>601.78455</ele>
        <time>2014-08-26T09:16:10Z</time>
      </trkpt>
      <trkpt lat="46.35773" lon="6.51494">
        <ele>600.8001</ele>
        <time>2014-08-26T09:16:15Z</time>
      </trkpt>
      <trkpt lat="46.35776" lon="6.51495">
        <ele>600.8001</ele>
        <time>2014-08-26T09:16:20Z</time>
      </trkpt>
      <trkpt lat="46.35781" lon="6.515">
        <ele>599.90405</ele>
        <time>2014-08-26T09:16:25Z</time>
      </trkpt>
      <trkpt lat="46.35791" lon="6.51503">
        <ele>599.09265</ele>
        <time>2014-08-26T09:16:30Z</time>
      </trkpt>
      <trkpt lat="46.35796" lon="6.51504">
        <ele>599.09265</ele>
        <time>2014-08-26T09:16:35Z</time>
      </trkpt>
      <trkpt lat="46.35805" lon="6.51508">
        <ele>598.3911</ele>
        <time>2014-08-26T09:16:40Z</time>
      </trkpt>
      <trkpt lat="46.35805" lon="6.51512">
        <ele>598.3911</ele>
        <time>2014-08-26T09:16:45Z</time>
      </trkpt>
      <trkpt lat="46.35811" lon="6.51515">
        <ele>598.3911</ele>
        <time>2014-08-26T09:16:50Z</time>
      </trkpt>
      <trkpt lat="46.35814" lon="6.51517">
        <ele>597.73584</ele>
        <time>2014-08-26T09:16:55Z</time>
      </trkpt>
      <trkpt lat="46.35817" lon="6.51521">
        <ele>597.73584</ele>
        <time>2014-08-26T09:17:00Z</time>
      </trkpt>
      <trkpt lat="46.35825" lon="6.51531">
        <ele>597.16864</ele>
        <time>2014-08-26T09:17:05Z</time>
      </trkpt>
      <trkpt lat="46.35831" lon="6.51543">
        <ele>596.71344</ele>
        <time>2014-08-26T09:17:10Z</time>
      </trkpt>
      <trkpt lat="46.35836" lon="6.51549">
        <ele>596.71344</ele>
        <time>2014-08-26T09:17:15Z</time>
      </trkpt>
      <trkpt lat="46.35842" lon="6.51554">
        <ele>596.392</ele>
        <time>2014-08-26T09:17:20Z</time>
      </trkpt>
      <trkpt lat="46.35847" lon="6.51556">
        <ele>596.392</ele>
        <time>2014-08-26T09:17:25Z</time>
      </trkpt>
      <trkpt lat="46.3585" lon="6.5156">
        <ele>596.15216</ele>
        <time>2014-08-26T09:17:30Z</time>
      </trkpt>
      <trkpt lat="46.35859" lon="6.51564">
        <ele>595.9594</ele>
        <time>2014-08-26T09:17:35Z</time>
      </trkpt>
      <trkpt lat="46.35862" lon="6.51568">
        <ele>595.9594</ele>
        <time>2014-08-26T09:17:40Z</time>
      </trkpt>
      <trkpt lat="46.35861" lon="6.51569">
        <ele>595.9594</ele>
        <time>2014-08-26T09:17:45Z</time>
      </trkpt>
      <trkpt lat="46.3586" lon="6.51574">
        <ele>595.8826</ele>
        <time>2014-08-26T09:17:50Z</time>
      </trkpt>
      <trkpt lat="46.35858" lon="6.51577">
        <ele>595.8826</ele>
        <time>2014-08-26T09:17:55Z</time>
      </trkpt>
      <trkpt lat="46.35857" lon="6.51578">
        <ele>595.8826</ele>
        <time>2014-08-26T09:18:00Z</time>
      </trkpt>
      <trkpt lat="46.35853" lon="6.51579">
        <ele>595.8826</ele>
        <time>2014-08-26T09:18:05Z</time>
      </trkpt>
      <trkpt lat="46.35852" lon="6.51579">
        <ele>595.8826</ele>
        <time>2014-08-26T09:18:10Z</time>
      </trkpt>
      <trkpt lat="46.35851" lon="6.5158">
        <ele>595.92755</ele>
        <time>2014-08-26T09:18:15Z</time>
      </trkpt>
      <trkpt lat="46.35844" lon="6.51584">
        <ele>595.92755</ele>
        <time>2014-08-26T09:18:20Z</time>
      </trkpt>
      <trkpt lat="46.35839" lon="6.51586">
        <ele>596.0992</ele>
        <time>2014-08-26T09:18:25Z</time>
      </trkpt>
      <trkpt lat="46.35836" lon="6.5159">
        <ele>596.0992</ele>
        <time>2014-08-26T09:18:30Z</time>
      </trkpt>
      <trkpt lat="46.35835" lon="6.51591">
        <ele>596.0992</ele>
        <time>2014-08-26T09:18:35Z</time>
      </trkpt>
      <trkpt lat="46.35833" lon="6.51593">
        <ele>596.0992</ele>
        <time>2014-08-26T09:18:40Z</time>
      </trkpt>
      <trkpt lat="46.35829" lon="6.51597">
        <ele>596.3295</ele>
        <time>2014-08-26T09:18:45Z</time>
      </trkpt>
      <trkpt lat="46.35826" lon="6.51602">
        <ele>596.3295</ele>
        <time>2014-08-26T09:18:50Z</time>
      </trkpt>
      <trkpt lat="46.35823" lon="6.51604">
        <ele>596.3295</ele>
        <time>2014-08-26T09:18:55Z</time>
      </trkpt>
      <trkpt lat="46.35815" lon="6.51607">
        <ele>596.5554</ele>
        <time>2014-08-26T09:19:00Z</time>
      </trkpt>
      <trkpt lat="46.35806" lon="6.51609">
        <ele>596.83374</ele>
        <time>2014-08-26T09:19:05Z</time>
      </trkpt>
      <trkpt lat="46.35801" lon="6.51609">
        <ele>596.83374</ele>
        <time>2014-08-26T09:19:10Z</time>
      </trkpt>
      <trkpt lat="46.35796" lon="6.51611">
        <ele>597.2601</ele>
        <time>2014-08-26T09:19:15Z</time>
      </trkpt>
      <trkpt lat="46.35795" lon="6.51613">
        <ele>597.2601</ele>
        <time>2014-08-26T09:19:20Z</time>
      </trkpt>
      <trkpt lat="46.35794" lon="6.51615">
        <ele>597.2601</ele>
        <time>2014-08-26T09:19:25Z</time>
      </trkpt>
      <trkpt lat="46.35792" lon="6.51615">
        <ele>597.2601</ele>
        <time>2014-08-26T09:19:30Z</time>
      </trkpt>
      <trkpt lat="46.35785" lon="6.51617">
        <ele>598.0811</ele>
        <time>2014-08-26T09:19:35Z</time>
      </trkpt>
      <trkpt lat="46.35782" lon="6.51616">
        <ele>598.0811</ele>
        <time>2014-08-26T09:19:40Z</time>
      </trkpt>
      <trkpt lat="46.35783" lon="6.5162">
        <ele>598.0811</ele>
        <time>2014-08-26T09:19:45Z</time>
      </trkpt>
      <trkpt lat="46.35781" lon="6.51621">
        <ele>598.0811</ele>
        <time>2014-08-26T09:19:50Z</time>
      </trkpt>
      <trkpt lat="46.35777" lon="6.51618">
        <ele>598.9911</ele>
        <time>2014-08-26T09:19:55Z</time>
      </trkpt>
      <trkpt lat="46.35776" lon="6.51617">
        <ele>598.9911</ele>
        <time>2014-08-26T09:20:00Z</time>
      </trkpt>
      <trkpt lat="46.35772" lon="6.51616">
        <ele>598.9911</ele>
        <time>2014-08-26T09:20:05Z</time>
      </trkpt>
      <trkpt lat="46.35771" lon="6.51615">
        <ele>598.9911</ele>
        <time>2014-08-26T09:20:10Z</time>
      </trkpt>
      <trkpt lat="46.35767" lon="6.51616">
        <ele>599.6921</ele>
        <time>2014-08-26T09:20:15Z</time>
      </trkpt>
      <trkpt lat="46.35762" lon="6.51616">
        <ele>599.6921</ele>
        <time>2014-08-26T09:20:20Z</time>
      </trkpt>
      <trkpt lat="46.35759" lon="6.51618">
        <ele>599.6921</ele>
        <time>2014-08-26T09:20:25Z</time>
      </trkpt>
      <trkpt lat="46.35755" lon="6.51617">
        <ele>599.73566</ele>
        <time>2014-08-26T09:20:30Z</time>
      </trkpt>
      <trkpt lat="46.35751" lon="6.51619">
        <ele>599.73566</ele>
        <time>2014-08-26T09:20:35Z</time>
      </trkpt>
      <trkpt lat="46.35745" lon="6.51623">
        <ele>599.5872</ele>
        <time>2014-08-26T09:20:40Z</time>
      </trkpt>
      <trkpt lat="46.35742" lon="6.51625">
        <ele>599.5872</ele>
        <time>2014-08-26T09:20:45Z</time>
      </trkpt>
      <trkpt lat="46.35742" lon="6.51625">
        <ele>599.5872</ele>
        <time>2014-08-26T09:20:50Z</time>
      </trkpt>
      <trkpt lat="46.35733" lon="6.51631">
        <ele>600.3271</ele>
        <time>2014-08-26T09:21:00Z</time>
      </trkpt>
      <trkpt lat="46.35728" lon="6.51641">
        <ele>600.3271</ele>
        <time>2014-08-26T09:21:05Z</time>
      </trkpt>
      <trkpt lat="46.35722" lon="6.51647">
        <ele>601.1668</ele>
        <time>2014-08-26T09:21:10Z</time>
      </trkpt>
      <trkpt lat="46.35708" lon="6.51656">
        <ele>601.9951</ele>
        <time>2014-08-26T09:21:15Z</time>
      </trkpt>
      <trkpt lat="46.35699" lon="6.51663">
        <ele>602.8532</ele>
        <time>2014-08-26T09:21:20Z</time>
      </trkpt>
      <trkpt lat="46.35691" lon="6.51666">
        <ele>602.8532</ele>
        <time>2014-08-26T09:21:25Z</time>
      </trkpt>
      <trkpt lat="46.35687" lon="6.5167">
        <ele>603.85126</ele>
        <time>2014-08-26T09:21:30Z</time>
      </trkpt>
      <trkpt lat="46.35679" lon="6.51674">
        <ele>603.85126</ele>
        <time>2014-08-26T09:21:35Z</time>
      </trkpt>
      <trkpt lat="46.35679" lon="6.51675">
        <ele>603.85126</ele>
        <time>2014-08-26T09:21:40Z</time>
      </trkpt>
      <trkpt lat="46.35673" lon="6.51677">
        <ele>604.97565</ele>
        <time>2014-08-26T09:21:45Z</time>
      </trkpt>
      <trkpt lat="46.35667" lon="6.5168">
        <ele>604.97565</ele>
        <time>2014-08-26T09:21:50Z</time>
      </trkpt>
      <trkpt lat="46.35661" lon="6.51683">
        <ele>606.1126</ele>
        <time>2014-08-26T09:21:55Z</time>
      </trkpt>
      <trkpt lat="46.35654" lon="6.51685">
        <ele>606.1126</ele>
        <time>2014-08-26T09:22:00Z</time>
      </trkpt>
      <trkpt lat="46.35648" lon="6.51687">
        <ele>606.98376</ele>
        <time>2014-08-26T09:22:05Z</time>
      </trkpt>
      <trkpt lat="46.35645" lon="6.5169">
        <ele>606.98376</ele>
        <time>2014-08-26T09:22:10Z</time>
      </trkpt>
      <trkpt lat="46.3564" lon="6.51689">
        <ele>606.98376</ele>
        <time>2014-08-26T09:22:15Z</time>
      </trkpt>
      <trkpt lat="46.35635" lon="6.5169">
        <ele>607.4762</ele>
        <time>2014-08-26T09:22:20Z</time>
      </trkpt>
      <trkpt lat="46.3563" lon="6.51692">
        <ele>607.4762</ele>
        <time>2014-08-26T09:22:25Z</time>
      </trkpt>
      <trkpt lat="46.35623" lon="6.51693">
        <ele>607.8754</ele>
        <time>2014-08-26T09:22:30Z</time>
      </trkpt>
      <trkpt lat="46.35616" lon="6.51697">
        <ele>607.8754</ele>
        <time>2014-08-26T09:22:35Z</time>
      </trkpt>
      <trkpt lat="46.3561" lon="6.51702">
        <ele>608.28784</ele>
        <time>2014-08-26T09:22:40Z</time>
      </trkpt>
      <trkpt lat="46.35604" lon="6.51706">
        <ele>608.28784</ele>
        <time>2014-08-26T09:22:45Z</time>
      </trkpt>
      <trkpt lat="46.35598" lon="6.51709">
        <ele>608.7255</ele>
        <time>2014-08-26T09:22:50Z</time>
      </trkpt>
      <trkpt lat="46.35594" lon="6.51713">
        <ele>608.7255</ele>
        <time>2014-08-26T09:22:55Z</time>
      </trkpt>
      <trkpt lat="46.3559" lon="6.51716">
        <ele>609.2718</ele>
        <time>2014-08-26T09:23:00Z</time>
      </trkpt>
      <trkpt lat="46.35585" lon="6.51718">
        <ele>609.2718</ele>
        <time>2014-08-26T09:23:05Z</time>
      </trkpt>
      <trkpt lat="46.3558" lon="6.51721">
        <ele>609.84503</ele>
        <time>2014-08-26T09:23:10Z</time>
      </trkpt>
      <trkpt lat="46.35575" lon="6.51724">
        <ele>609.84503</ele>
        <time>2014-08-26T09:23:15Z</time>
      </trkpt>
      <trkpt lat="46.35568" lon="6.51727">
        <ele>610.47046</ele>
        <time>2014-08-26T09:23:20Z</time>
      </trkpt>
      <trkpt lat="46.35564" lon="6.5173">
        <ele>610.47046</ele>
        <time>2014-08-26T09:23:25Z</time>
      </trkpt>
      <trkpt lat="46.3556" lon="6.51735">
        <ele>611.0994</ele>
        <time>2014-08-26T09:23:30Z</time>
      </trkpt>
      <trkpt lat="46.35556" lon="6.51739">
        <ele>611.0994</ele>
        <time>2014-08-26T09:23:35Z</time>
      </trkpt>
      <trkpt lat="46.35551" lon="6.51742">
        <ele>611.7155</ele>
        <time>2014-08-26T09:23:40Z</time>
      </trkpt>
      <trkpt lat="46.35546" lon="6.51745">
        <ele>611.7155</ele>
        <time>2014-08-26T09:23:45Z</time>
      </trkpt>
      <trkpt lat="46.3554" lon="6.51746">
        <ele>612.3759</ele>
        <time>2014-08-26T09:23:50Z</time>
      </trkpt>
      <trkpt lat="46.35535" lon="6.51747">
        <ele>612.3759</ele>
        <time>2014-08-26T09:23:55Z</time>
      </trkpt>
      <trkpt lat="46.35529" lon="6.51749">
        <ele>612.96045</ele>
        <time>2014-08-26T09:24:00Z</time>
      </trkpt>
      <trkpt lat="46.35524" lon="6.51752">
        <ele>612.96045</ele>
        <time>2014-08-26T09:24:05Z</time>
      </trkpt>
      <trkpt lat="46.35517" lon="6.51754">
        <ele>613.5598</ele>
        <time>2014-08-26T09:24:10Z</time>
      </trkpt>
      <trkpt lat="46.35512" lon="6.51755">
        <ele>613.5598</ele>
        <time>2014-08-26T09:24:15Z</time>
      </trkpt>
      <trkpt lat="46.35505" lon="6.51757">
        <ele>614.18616</ele>
        <time>2014-08-26T09:24:20Z</time>
      </trkpt>
      <trkpt lat="46.355" lon="6.51759">
        <ele>614.18616</ele>
        <time>2014-08-26T09:24:25Z</time>
      </trkpt>
      <trkpt lat="46.35493" lon="6.5176">
        <ele>614.7784</ele>
        <time>2014-08-26T09:24:30Z</time>
      </trkpt>
      <trkpt lat="46.35488" lon="6.51761">
        <ele>614.7784</ele>
        <time>2014-08-26T09:24:35Z</time>
      </trkpt>
      <trkpt lat="46.35481" lon="6.5176">
        <ele>615.338</ele>
        <time>2014-08-26T09:24:40Z</time>
      </trkpt>
      <trkpt lat="46.35477" lon="6.51762">
        <ele>615.338</ele>
        <time>2014-08-26T09:24:45Z</time>
      </trkpt>
      <trkpt lat="46.35471" lon="6.51764">
        <ele>615.8375</ele>
        <time>2014-08-26T09:24:50Z</time>
      </trkpt>
      <trkpt lat="46.35466" lon="6.51767">
        <ele>615.8375</ele>
        <time>2014-08-26T09:24:55Z</time>
      </trkpt>
      <trkpt lat="46.3546" lon="6.51767">
        <ele>616.295</ele>
        <time>2014-08-26T09:25:00Z</time>
      </trkpt>
      <trkpt lat="46.35453" lon="6.5177">
        <ele>616.295</ele>
        <time>2014-08-26T09:25:05Z</time>
      </trkpt>
      <trkpt lat="46.35449" lon="6.51773">
        <ele>616.612</ele>
        <time>2014-08-26T09:25:10Z</time>
      </trkpt>
      <trkpt lat="46.35445" lon="6.51774">
        <ele>616.612</ele>
        <time>2014-08-26T09:25:15Z</time>
      </trkpt>
      <trkpt lat="46.3544" lon="6.51774">
        <ele>616.84204</ele>
        <time>2014-08-26T09:25:20Z</time>
      </trkpt>
      <trkpt lat="46.35435" lon="6.51776">
        <ele>616.84204</ele>
        <time>2014-08-26T09:25:25Z</time>
      </trkpt>
      <trkpt lat="46.35427" lon="6.51781">
        <ele>616.9771</ele>
        <time>2014-08-26T09:25:30Z</time>
      </trkpt>
      <trkpt lat="46.35419" lon="6.51783">
        <ele>616.9771</ele>
        <time>2014-08-26T09:25:35Z</time>
      </trkpt>
      <trkpt lat="46.35414" lon="6.51785">
        <ele>617.0536</ele>
        <time>2014-08-26T09:25:40Z</time>
      </trkpt>
      <trkpt lat="46.3541" lon="6.51788">
        <ele>617.0536</ele>
        <time>2014-08-26T09:25:45Z</time>
      </trkpt>
      <trkpt lat="46.35405" lon="6.51791">
        <ele>617.11957</ele>
        <time>2014-08-26T09:25:50Z</time>
      </trkpt>
      <trkpt lat="46.354" lon="6.51794">
        <ele>617.11957</ele>
        <time>2014-08-26T09:25:55Z</time>
      </trkpt>
      <trkpt lat="46.35396" lon="6.51796">
        <ele>617.2054</ele>
        <time>2014-08-26T09:26:00Z</time>
      </trkpt>
      <trkpt lat="46.35391" lon="6.51797">
        <ele>617.2054</ele>
        <time>2014-08-26T09:26:05Z</time>
      </trkpt>
      <trkpt lat="46.35386" lon="6.51797">
        <ele>617.3391</ele>
        <time>2014-08-26T09:26:10Z</time>
      </trkpt>
      <trkpt lat="46.35382" lon="6.51793">
        <ele>617.3391</ele>
        <time>2014-08-26T09:26:15Z</time>
      </trkpt>
      <trkpt lat="46.35377" lon="6.51787">
        <ele>617.5178</ele>
        <time>2014-08-26T09:26:20Z</time>
      </trkpt>
      <trkpt lat="46.35373" lon="6.51782">
        <ele>617.5178</ele>
        <time>2014-08-26T09:26:25Z</time>
      </trkpt>
      <trkpt lat="46.35367" lon="6.51773">
        <ele>617.6955</ele>
        <time>2014-08-26T09:26:30Z</time>
      </trkpt>
      <trkpt lat="46.35363" lon="6.51766">
        <ele>617.6955</ele>
        <time>2014-08-26T09:26:35Z</time>
      </trkpt>
      <trkpt lat="46.35359" lon="6.51762">
        <ele>617.9591</ele>
        <time>2014-08-26T09:26:40Z</time>
      </trkpt>
      <trkpt lat="46.35354" lon="6.51761">
        <ele>617.9591</ele>
        <time>2014-08-26T09:26:45Z</time>
      </trkpt>
      <trkpt lat="46.35349" lon="6.51766">
        <ele>618.2306</ele>
        <time>2014-08-26T09:26:50Z</time>
      </trkpt>
      <trkpt lat="46.35346" lon="6.5177">
        <ele>618.2306</ele>
        <time>2014-08-26T09:26:55Z</time>
      </trkpt>
      <trkpt lat="46.35342" lon="6.51774">
        <ele>618.48083</ele>
        <time>2014-08-26T09:27:00Z</time>
      </trkpt>
      <trkpt lat="46.35337" lon="6.5178">
        <ele>618.48083</ele>
        <time>2014-08-26T09:27:05Z</time>
      </trkpt>
      <trkpt lat="46.35333" lon="6.51786">
        <ele>618.7118</ele>
        <time>2014-08-26T09:27:10Z</time>
      </trkpt>
      <trkpt lat="46.35328" lon="6.51791">
        <ele>618.7118</ele>
        <time>2014-08-26T09:27:15Z</time>
      </trkpt>
      <trkpt lat="46.35326" lon="6.51795">
        <ele>618.9108</ele>
        <time>2014-08-26T09:27:20Z</time>
      </trkpt>
      <trkpt lat="46.35322" lon="6.51801">
        <ele>618.9108</ele>
        <time>2014-08-26T09:27:25Z</time>
      </trkpt>
      <trkpt lat="46.35317" lon="6.51806">
        <ele>619.05194</ele>
        <time>2014-08-26T09:27:30Z</time>
      </trkpt>
      <trkpt lat="46.35312" lon="6.51814">
        <ele>619.05194</ele>
        <time>2014-08-26T09:27:35Z</time>
      </trkpt>
      <trkpt lat="46.35308" lon="6.51818">
        <ele>619.2266</ele>
        <time>2014-08-26T09:27:40Z</time>
      </trkpt>
      <trkpt lat="46.35302" lon="6.51824">
        <ele>619.2266</ele>
        <time>2014-08-26T09:27:45Z</time>
      </trkpt>
      <trkpt lat="46.35297" lon="6.51828">
        <ele>619.38965</ele>
        <time>2014-08-26T09:27:50Z</time>
      </trkpt>
      <trkpt lat="46.35293" lon="6.51832">
        <ele>619.38965</ele>
        <time>2014-08-26T09:27:55Z</time>
      </trkpt>
      <trkpt lat="46.35288" lon="6.51838">
        <ele>619.51373</ele>
        <time>2014-08-26T09:28:00Z</time>
      </trkpt>
      <trkpt lat="46.35284" lon="6.51846">
        <ele>619.51373</ele>
        <time>2014-08-26T09:28:05Z</time>
      </trkpt>
      <trkpt lat="46.3528" lon="6.5185">
        <ele>619.55927</ele>
        <time>2014-08-26T09:28:10Z</time>
      </trkpt>
      <trkpt lat="46.35275" lon="6.51856">
        <ele>619.55927</ele>
        <time>2014-08-26T09:28:15Z</time>
      </trkpt>
      <trkpt lat="46.35269" lon="6.51862">
        <ele>619.5905</ele>
        <time>2014-08-26T09:28:20Z</time>
      </trkpt>
      <trkpt lat="46.35263" lon="6.51867">
        <ele>619.5905</ele>
        <time>2014-08-26T09:28:25Z</time>
      </trkpt>
      <trkpt lat="46.35258" lon="6.5187">
        <ele>619.68164</ele>
        <time>2014-08-26T09:28:30Z</time>
      </trkpt>
      <trkpt lat="46.35253" lon="6.51874">
        <ele>619.68164</ele>
        <time>2014-08-26T09:28:35Z</time>
      </trkpt>
      <trkpt lat="46.35247" lon="6.51879">
        <ele>619.72815</ele>
        <time>2014-08-26T09:28:40Z</time>
      </trkpt>
      <trkpt lat="46.35242" lon="6.51882">
        <ele>619.72815</ele>
        <time>2014-08-26T09:28:45Z</time>
      </trkpt>
      <trkpt lat="46.35238" lon="6.51886">
        <ele>619.76306</ele>
        <time>2014-08-26T09:28:50Z</time>
      </trkpt>
      <trkpt lat="46.35232" lon="6.51891">
        <ele>619.76306</ele>
        <time>2014-08-26T09:28:55Z</time>
      </trkpt>
      <trkpt lat="46.35226" lon="6.51895">
        <ele>619.80255</ele>
        <time>2014-08-26T09:29:00Z</time>
      </trkpt>
      <trkpt lat="46.35221" lon="6.51897">
        <ele>619.80255</ele>
        <time>2014-08-26T09:29:05Z</time>
      </trkpt>
      <trkpt lat="46.35215" lon="6.51901">
        <ele>619.86163</ele>
        <time>2014-08-26T09:29:10Z</time>
      </trkpt>
      <trkpt lat="46.35212" lon="6.51905">
        <ele>619.86163</ele>
        <time>2014-08-26T09:29:15Z</time>
      </trkpt>
      <trkpt lat="46.35206" lon="6.51909">
        <ele>620.0262</ele>
        <time>2014-08-26T09:29:20Z</time>
      </trkpt>
      <trkpt lat="46.35198" lon="6.51912">
        <ele>620.0262</ele>
        <time>2014-08-26T09:29:25Z</time>
      </trkpt>
      <trkpt lat="46.35193" lon="6.51916">
        <ele>620.1881</ele>
        <time>2014-08-26T09:29:30Z</time>
      </trkpt>
      <trkpt lat="46.35188" lon="6.51919">
        <ele>620.1881</ele>
        <time>2014-08-26T09:29:35Z</time>
      </trkpt>
      <trkpt lat="46.35182" lon="6.51923">
        <ele>620.34814</ele>
        <time>2014-08-26T09:29:40Z</time>
      </trkpt>
      <trkpt lat="46.35177" lon="6.51926">
        <ele>620.34814</ele>
        <time>2014-08-26T09:29:45Z</time>
      </trkpt>
      <trkpt lat="46.3517" lon="6.5193">
        <ele>620.4637</ele>
        <time>2014-08-26T09:29:50Z</time>
      </trkpt>
      <trkpt lat="46.35165" lon="6.51935">
        <ele>620.4637</ele>
        <time>2014-08-26T09:29:55Z</time>
      </trkpt>
      <trkpt lat="46.35158" lon="6.51938">
        <ele>620.553</ele>
        <time>2014-08-26T09:30:00Z</time>
      </trkpt>
      <trkpt lat="46.35152" lon="6.51941">
        <ele>620.553</ele>
        <time>2014-08-26T09:30:05Z</time>
      </trkpt>
      <trkpt lat="46.35148" lon="6.51946">
        <ele>620.5899</ele>
        <time>2014-08-26T09:30:10Z</time>
      </trkpt>
      <trkpt lat="46.35144" lon="6.51949">
        <ele>620.5899</ele>
        <time>2014-08-26T09:30:15Z</time>
      </trkpt>
      <trkpt lat="46.35138" lon="6.51952">
        <ele>620.6943</ele>
        <time>2014-08-26T09:30:20Z</time>
      </trkpt>
      <trkpt lat="46.35134" lon="6.51956">
        <ele>620.6943</ele>
        <time>2014-08-26T09:30:25Z</time>
      </trkpt>
      <trkpt lat="46.35128" lon="6.51959">
        <ele>620.7321</ele>
        <time>2014-08-26T09:30:30Z</time>
      </trkpt>
      <trkpt lat="46.35122" lon="6.51962">
        <ele>620.7321</ele>
        <time>2014-08-26T09:30:35Z</time>
      </trkpt>
      <trkpt lat="46.35117" lon="6.51966">
        <ele>620.7811</ele>
        <time>2014-08-26T09:30:40Z</time>
      </trkpt>
      <trkpt lat="46.35112" lon="6.51969">
        <ele>620.7811</ele>
        <time>2014-08-26T09:30:45Z</time>
      </trkpt>
      <trkpt lat="46.35111" lon="6.51974">
        <ele>620.7811</ele>
        <time>2014-08-26T09:30:50Z</time>
      </trkpt>
      <trkpt lat="46.35109" lon="6.51977">
        <ele>620.8123</ele>
        <time>2014-08-26T09:30:55Z</time>
      </trkpt>
      <trkpt lat="46.35102" lon="6.51981">
        <ele>620.8123</ele>
        <time>2014-08-26T09:31:00Z</time>
      </trkpt>
      <trkpt lat="46.3509" lon="6.51979">
        <ele>620.8422</ele>
        <time>2014-08-26T09:31:05Z</time>
      </trkpt>
      <trkpt lat="46.35082" lon="6.51981">
        <ele>620.8422</ele>
        <time>2014-08-26T09:31:10Z</time>
      </trkpt>
      <trkpt lat="46.35078" lon="6.51985">
        <ele>620.7995</ele>
        <time>2014-08-26T09:31:15Z</time>
      </trkpt>
      <trkpt lat="46.35075" lon="6.5199">
        <ele>620.7995</ele>
        <time>2014-08-26T09:31:20Z</time>
      </trkpt>
      <trkpt lat="46.3507" lon="6.51994">
        <ele>620.73364</ele>
        <time>2014-08-26T09:31:25Z</time>
      </trkpt>
      <trkpt lat="46.35065" lon="6.51998">
        <ele>620.73364</ele>
        <time>2014-08-26T09:31:30Z</time>
      </trkpt>
      <trkpt lat="46.35061" lon="6.52003">
        <ele>620.77704</ele>
        <time>2014-08-26T09:31:35Z</time>
      </trkpt>
      <trkpt lat="46.35058" lon="6.52008">
        <ele>620.77704</ele>
        <time>2014-08-26T09:31:40Z</time>
      </trkpt>
      <trkpt lat="46.35056" lon="6.52014">
        <ele>620.77704</ele>
        <time>2014-08-26T09:31:45Z</time>
      </trkpt>
      <trkpt lat="46.35054" lon="6.5202">
        <ele>620.89343</ele>
        <time>2014-08-26T09:31:50Z</time>
      </trkpt>
      <trkpt lat="46.35051" lon="6.52026">
        <ele>620.89343</ele>
        <time>2014-08-26T09:31:55Z</time>
      </trkpt>
      <trkpt lat="46.35048" lon="6.5203">
        <ele>621.0922</ele>
        <time>2014-08-26T09:32:00Z</time>
      </trkpt>
      <trkpt lat="46.35046" lon="6.52038">
        <ele>621.0922</ele>
        <time>2014-08-26T09:32:05Z</time>
      </trkpt>
      <trkpt lat="46.35044" lon="6.52045">
        <ele>621.4396</ele>
        <time>2014-08-26T09:32:10Z</time>
      </trkpt>
      <trkpt lat="46.35042" lon="6.52054">
        <ele>621.4396</ele>
        <time>2014-08-26T09:32:15Z</time>
      </trkpt>
      <trkpt lat="46.3504" lon="6.52059">
        <ele>621.9242</ele>
        <time>2014-08-26T09:32:20Z</time>
      </trkpt>
      <trkpt lat="46.35037" lon="6.52064">
        <ele>621.9242</ele>
        <time>2014-08-26T09:32:25Z</time>
      </trkpt>
      <trkpt lat="46.35035" lon="6.52071">
        <ele>622.56415</ele>
        <time>2014-08-26T09:32:30Z</time>
      </trkpt>
      <trkpt lat="46.35033" lon="6.52077">
        <ele>622.56415</ele>
        <time>2014-08-26T09:32:35Z</time>
      </trkpt>
      <trkpt lat="46.3503" lon="6.52083">
        <ele>623.30365</ele>
        <time>2014-08-26T09:32:40Z</time>
      </trkpt>
      <trkpt lat="46.35028" lon="6.52092">
        <ele>623.30365</ele>
        <time>2014-08-26T09:32:45Z</time>
      </trkpt>
      <trkpt lat="46.35024" lon="6.52098">
        <ele>624.1483</ele>
        <time>2014-08-26T09:32:50Z</time>
      </trkpt>
      <trkpt lat="46.35023" lon="6.52102">
        <ele>624.1483</ele>
        <time>2014-08-26T09:32:55Z</time>
      </trkpt>
      <trkpt lat="46.35021" lon="6.52111">
        <ele>624.1483</ele>
        <time>2014-08-26T09:33:00Z</time>
      </trkpt>
      <trkpt lat="46.35019" lon="6.52116">
        <ele>625.1607</ele>
        <time>2014-08-26T09:33:05Z</time>
      </trkpt>
      <trkpt lat="46.35013" lon="6.5212">
        <ele>625.1607</ele>
        <time>2014-08-26T09:33:10Z</time>
      </trkpt>
      <trkpt lat="46.35011" lon="6.52122">
        <ele>625.1607</ele>
        <time>2014-08-26T09:33:15Z</time>
      </trkpt>
      <trkpt lat="46.3501" lon="6.52124">
        <ele>626.1966</ele>
        <time>2014-08-26T09:33:20Z</time>
      </trkpt>
      <trkpt lat="46.3501" lon="6.52124">
        <ele>626.1966</ele>
        <time>2014-08-26T09:33:25Z</time>
      </trkpt>
      <trkpt lat="46.35006" lon="6.52126">
        <ele>626.1966</ele>
        <time>2014-08-26T09:33:30Z</time>
      </trkpt>
      <trkpt lat="46.35005" lon="6.52128">
        <ele>626.1966</ele>
        <time>2014-08-26T09:33:35Z</time>
      </trkpt>
      <trkpt lat="46.35005" lon="6.52128">
        <ele>626.1966</ele>
        <time>2014-08-26T09:33:40Z</time>
      </trkpt>
      <trkpt lat="46.35007" lon="6.52129">
        <ele>627.3528</ele>
        <time>2014-08-26T09:33:45Z</time>
      </trkpt>
      <trkpt lat="46.35009" lon="6.52128">
        <ele>627.3528</ele>
        <time>2014-08-26T09:33:50Z</time>
      </trkpt>
      <trkpt lat="46.35011" lon="6.52126">
        <ele>627.3528</ele>
        <time>2014-08-26T09:33:55Z</time>
      </trkpt>
      <trkpt lat="46.35012" lon="6.52132">
        <ele>627.3528</ele>
        <time>2014-08-26T09:34:00Z</time>
      </trkpt>
      <trkpt lat="46.35013" lon="6.52133">
        <ele>628.69</ele>
        <time>2014-08-26T09:34:05Z</time>
      </trkpt>
      <trkpt lat="46.35013" lon="6.52134">
        <ele>628.69</ele>
        <time>2014-08-26T09:34:10Z</time>
      </trkpt>
      <trkpt lat="46.35013" lon="6.52133">
        <ele>628.69</ele>
        <time>2014-08-26T09:34:15Z</time>
      </trkpt>
      <trkpt lat="46.35014" lon="6.52135">
        <ele>628.69</ele>
        <time>2014-08-26T09:34:20Z</time>
      </trkpt>
      <trkpt lat="46.35014" lon="6.52136">
        <ele>628.69</ele>
        <time>2014-08-26T09:34:25Z</time>
      </trkpt>
      <trkpt lat="46.35014" lon="6.52136">
        <ele>628.69</ele>
        <time>2014-08-26T09:34:30Z</time>
      </trkpt>
      <trkpt lat="46.35014" lon="6.52136">
        <ele>628.69</ele>
        <time>2014-08-26T09:34:35Z</time>
      </trkpt>
      <trkpt lat="46.35014" lon="6.52137">
        <ele>628.69</ele>
        <time>2014-08-26T09:34:55Z</time>
      </trkpt>
      <trkpt lat="46.35014" lon="6.52139">
        <ele>628.69</ele>
        <time>2014-08-26T09:35:05Z</time>
      </trkpt>
      <trkpt lat="46.35014" lon="6.52139">
        <ele>628.69</ele>
        <time>2014-08-26T09:35:10Z</time>
      </trkpt>
      <trkpt lat="46.35013" lon="6.52138">
        <ele>628.69</ele>
        <time>2014-08-26T09:36:55Z</time>
      </trkpt>
      <trkpt lat="46.35014" lon="6.52138">
        <ele>628.69</ele>
        <time>2014-08-26T09:37:00Z</time>
      </trkpt>
      <trkpt lat="46.35014" lon="6.52138">
        <ele>628.69</ele>
        <time>2014-08-26T09:37:05Z</time>
      </trkpt>
      <trkpt lat="46.35014" lon="6.52138">
        <ele>628.69</ele>
        <time>2014-08-26T09:37:25Z</time>
      </trkpt>
      <trkpt lat="46.35013" lon="6.52137">
        <ele>628.69</ele>
        <time>2014-08-26T09:37:30Z</time>
      </trkpt>
      <trkpt lat="46.35013" lon="6.52137">
        <ele>628.69</ele>
        <time>2014-08-26T09:37:35Z</time>
      </trkpt>
      <trkpt lat="46.35013" lon="6.52136">
        <ele>628.69</ele>
        <time>2014-08-26T09:38:10Z</time>
      </trkpt>
      <trkpt lat="46.35013" lon="6.52136">
        <ele>628.69</ele>
        <time>2014-08-26T09:38:15Z</time>
      </trkpt>
      <trkpt lat="46.35012" lon="6.52135">
        <ele>630.4799</ele>
        <time>2014-08-26T09:38:20Z</time>
      </trkpt>
      <trkpt lat="46.35012" lon="6.52136">
        <ele>630.4799</ele>
        <time>2014-08-26T09:39:05Z</time>
      </trkpt>
      <trkpt lat="46.35011" lon="6.52135">
        <ele>630.4799</ele>
        <time>2014-08-26T09:39:10Z</time>
      </trkpt>
      <trkpt lat="46.35011" lon="6.52135">
        <ele>630.4799</ele>
        <time>2014-08-26T09:39:15Z</time>
      </trkpt>
      <trkpt lat="46.35011" lon="6.52134">
        <ele>630.4799</ele>
        <time>2014-08-26T09:39:35Z</time>
      </trkpt>
      <trkpt lat="46.35011" lon="6.52134">
        <ele>630.4799</ele>
        <time>2014-08-26T09:39:40Z</time>
      </trkpt>
      <trkpt lat="46.35012" lon="6.52135">
        <ele>630.4799</ele>
        <time>2014-08-26T09:39:50Z</time>
      </trkpt>
      <trkpt lat="46.35012" lon="6.52135">
        <ele>630.4799</ele>
        <time>2014-08-26T09:39:55Z</time>
      </trkpt>
      <trkpt lat="46.35012" lon="6.52135">
        <ele>630.4799</ele>
        <time>2014-08-26T09:40:30Z</time>
      </trkpt>
      <trkpt lat="46.35012" lon="6.52135">
        <ele>630.4799</ele>
        <time>2014-08-26T09:40:50Z</time>
      </trkpt>
      <trkpt lat="46.35012" lon="6.52135">
        <ele>630.4799</ele>
        <time>2014-08-26T09:40:55Z</time>
      </trkpt>
      <trkpt lat="46.35012" lon="6.52134">
        <ele>630.4799</ele>
        <time>2014-08-26T09:41:30Z</time>
      </trkpt>
      <trkpt lat="46.35012" lon="6.52133">
        <ele>630.4799</ele>
        <time>2014-08-26T09:41:35Z</time>
      </trkpt>
      <trkpt lat="46.35011" lon="6.52129">
        <ele>630.4799</ele>
        <time>2014-08-26T09:41:40Z</time>
      </trkpt>
      <trkpt lat="46.3501" lon="6.52124">
        <ele>632.4113</ele>
        <time>2014-08-26T09:41:45Z</time>
      </trkpt>
      <trkpt lat="46.35012" lon="6.52121">
        <ele>632.4113</ele>
        <time>2014-08-26T09:41:50Z</time>
      </trkpt>
      <trkpt lat="46.35018" lon="6.52125">
        <ele>634.15186</ele>
        <time>2014-08-26T09:41:55Z</time>
      </trkpt>
      <trkpt lat="46.35025" lon="6.52133">
        <ele>635.726</ele>
        <time>2014-08-26T09:42:00Z</time>
      </trkpt>
      <trkpt lat="46.35031" lon="6.52142">
        <ele>635.726</ele>
        <time>2014-08-26T09:42:05Z</time>
      </trkpt>
      <trkpt lat="46.35035" lon="6.5215">
        <ele>637.0127</ele>
        <time>2014-08-26T09:42:10Z</time>
      </trkpt>
      <trkpt lat="46.35037" lon="6.52158">
        <ele>637.0127</ele>
        <time>2014-08-26T09:42:15Z</time>
      </trkpt>
      <trkpt lat="46.35041" lon="6.52164">
        <ele>638.1167</ele>
        <time>2014-08-26T09:42:20Z</time>
      </trkpt>
      <trkpt lat="46.35043" lon="6.52174">
        <ele>638.1167</ele>
        <time>2014-08-26T09:42:25Z</time>
      </trkpt>
      <trkpt lat="46.35045" lon="6.52183">
        <ele>639.107</ele>
        <time>2014-08-26T09:42:30Z</time>
      </trkpt>
      <trkpt lat="46.35048" lon="6.52188">
        <ele>639.107</ele>
        <time>2014-08-26T09:42:35Z</time>
      </trkpt>
      <trkpt lat="46.35052" lon="6.52197">
        <ele>639.91815</ele>
        <time>2014-08-26T09:42:40Z</time>
      </trkpt>
      <trkpt lat="46.35056" lon="6.52207">
        <ele>639.91815</ele>
        <time>2014-08-26T09:42:45Z</time>
      </trkpt>
      <trkpt lat="46.35059" lon="6.52216">
        <ele>640.6774</ele>
        <time>2014-08-26T09:42:50Z</time>
      </trkpt>
      <trkpt lat="46.35063" lon="6.52221">
        <ele>640.6774</ele>
        <time>2014-08-26T09:42:55Z</time>
      </trkpt>
      <trkpt lat="46.35063" lon="6.52221">
        <ele>640.6774</ele>
        <time>2014-08-26T09:43:00Z</time>
      </trkpt>
      <trkpt lat="46.35062" lon="6.52226">
        <ele>640.6774</ele>
        <time>2014-08-26T09:43:05Z</time>
      </trkpt>
      <trkpt lat="46.35055" lon="6.52247">
        <ele>641.07056</ele>
        <time>2014-08-26T09:43:10Z</time>
      </trkpt>
      <trkpt lat="46.35053" lon="6.52254">
        <ele>641.07056</ele>
        <time>2014-08-26T09:43:15Z</time>
      </trkpt>
      <trkpt lat="46.3505" lon="6.52262">
        <ele>641.08136</ele>
        <time>2014-08-26T09:43:20Z</time>
      </trkpt>
      <trkpt lat="46.35042" lon="6.52269">
        <ele>641.08136</ele>
        <time>2014-08-26T09:43:25Z</time>
      </trkpt>
      <trkpt lat="46.35038" lon="6.52275">
        <ele>640.7392</ele>
        <time>2014-08-26T09:43:30Z</time>
      </trkpt>
      <trkpt lat="46.35035" lon="6.5228">
        <ele>640.7392</ele>
        <time>2014-08-26T09:43:35Z</time>
      </trkpt>
      <trkpt lat="46.35032" lon="6.52286">
        <ele>639.98584</ele>
        <time>2014-08-26T09:43:40Z</time>
      </trkpt>
      <trkpt lat="46.35027" lon="6.52294">
        <ele>639.98584</ele>
        <time>2014-08-26T09:43:45Z</time>
      </trkpt>
      <trkpt lat="46.35021" lon="6.52299">
        <ele>638.94135</ele>
        <time>2014-08-26T09:43:50Z</time>
      </trkpt>
      <trkpt lat="46.35019" lon="6.52308">
        <ele>638.94135</ele>
        <time>2014-08-26T09:43:55Z</time>
      </trkpt>
      <trkpt lat="46.35018" lon="6.52321">
        <ele>637.77563</ele>
        <time>2014-08-26T09:44:00Z</time>
      </trkpt>
      <trkpt lat="46.35018" lon="6.52327">
        <ele>637.77563</ele>
        <time>2014-08-26T09:44:05Z</time>
      </trkpt>
      <trkpt lat="46.35018" lon="6.52328">
        <ele>637.77563</ele>
        <time>2014-08-26T09:44:10Z</time>
      </trkpt>
      <trkpt lat="46.35015" lon="6.52344">
        <ele>636.8049</ele>
        <time>2014-08-26T09:44:15Z</time>
      </trkpt>
      <trkpt lat="46.35012" lon="6.52367">
        <ele>635.9036</ele>
        <time>2014-08-26T09:44:20Z</time>
      </trkpt>
      <trkpt lat="46.35011" lon="6.52376">
        <ele>635.9036</ele>
        <time>2014-08-26T09:44:25Z</time>
      </trkpt>
      <trkpt lat="46.3501" lon="6.52378">
        <ele>635.9036</ele>
        <time>2014-08-26T09:44:30Z</time>
      </trkpt>
      <trkpt lat="46.35007" lon="6.52377">
        <ele>635.2003</ele>
        <time>2014-08-26T09:44:35Z</time>
      </trkpt>
      <trkpt lat="46.35006" lon="6.52376">
        <ele>635.2003</ele>
        <time>2014-08-26T09:44:40Z</time>
      </trkpt>
      <trkpt lat="46.35005" lon="6.52377">
        <ele>635.2003</ele>
        <time>2014-08-26T09:44:45Z</time>
      </trkpt>
      <trkpt lat="46.35005" lon="6.52379">
        <ele>635.2003</ele>
        <time>2014-08-26T09:44:50Z</time>
      </trkpt>
      <trkpt lat="46.35003" lon="6.5238">
        <ele>635.2003</ele>
        <time>2014-08-26T09:44:55Z</time>
      </trkpt>
      <trkpt lat="46.34999" lon="6.52381">
        <ele>635.2003</ele>
        <time>2014-08-26T09:45:00Z</time>
      </trkpt>
      <trkpt lat="46.34999" lon="6.52384">
        <ele>634.55414</ele>
        <time>2014-08-26T09:45:05Z</time>
      </trkpt>
      <trkpt lat="46.34999" lon="6.52386">
        <ele>634.55414</ele>
        <time>2014-08-26T09:45:10Z</time>
      </trkpt>
      <trkpt lat="46.34998" lon="6.52389">
        <ele>634.55414</ele>
        <time>2014-08-26T09:45:15Z</time>
      </trkpt>
      <trkpt lat="46.34997" lon="6.52389">
        <ele>634.55414</ele>
        <time>2014-08-26T09:45:20Z</time>
      </trkpt>
      <trkpt lat="46.34996" lon="6.52391">
        <ele>634.55414</ele>
        <time>2014-08-26T09:45:25Z</time>
      </trkpt>
      <trkpt lat="46.34996" lon="6.52393">
        <ele>634.55414</ele>
        <time>2014-08-26T09:45:30Z</time>
      </trkpt>
      <trkpt lat="46.34995" lon="6.52393">
        <ele>633.61816</ele>
        <time>2014-08-26T09:45:35Z</time>
      </trkpt>
      <trkpt lat="46.34994" lon="6.52395">
        <ele>633.61816</ele>
        <time>2014-08-26T09:45:40Z</time>
      </trkpt>
      <trkpt lat="46.34992" lon="6.524">
        <ele>633.61816</ele>
        <time>2014-08-26T09:45:45Z</time>
      </trkpt>
      <trkpt lat="46.34988" lon="6.52404">
        <ele>632.64813</ele>
        <time>2014-08-26T09:45:50Z</time>
      </trkpt>
      <trkpt lat="46.34985" lon="6.52406">
        <ele>632.64813</ele>
        <time>2014-08-26T09:45:55Z</time>
      </trkpt>
      <trkpt lat="46.34983" lon="6.52408">
        <ele>632.64813</ele>
        <time>2014-08-26T09:46:00Z</time>
      </trkpt>
      <trkpt lat="46.34981" lon="6.52411">
        <ele>632.64813</ele>
        <time>2014-08-26T09:46:05Z</time>
      </trkpt>
      <trkpt lat="46.34979" lon="6.52415">
        <ele>631.5064</ele>
        <time>2014-08-26T09:46:10Z</time>
      </trkpt>
      <trkpt lat="46.34974" lon="6.52419">
        <ele>631.5064</ele>
        <time>2014-08-26T09:46:15Z</time>
      </trkpt>
      <trkpt lat="46.34971" lon="6.52424">
        <ele>630.455</ele>
        <time>2014-08-26T09:46:20Z</time>
      </trkpt>
      <trkpt lat="46.34968" lon="6.52425">
        <ele>630.455</ele>
        <time>2014-08-26T09:46:25Z</time>
      </trkpt>
      <trkpt lat="46.34964" lon="6.52424">
        <ele>630.455</ele>
        <time>2014-08-26T09:46:30Z</time>
      </trkpt>
      <trkpt lat="46.34962" lon="6.52425">
        <ele>630.455</ele>
        <time>2014-08-26T09:46:35Z</time>
      </trkpt>
      <trkpt lat="46.34961" lon="6.52423">
        <ele>629.8372</ele>
        <time>2014-08-26T09:46:40Z</time>
      </trkpt>
      <trkpt lat="46.34958" lon="6.52421">
        <ele>629.8372</ele>
        <time>2014-08-26T09:46:45Z</time>
      </trkpt>
      <trkpt lat="46.34954" lon="6.52421">
        <ele>629.8372</ele>
        <time>2014-08-26T09:46:50Z</time>
      </trkpt>
      <trkpt lat="46.34952" lon="6.52421">
        <ele>629.52313</ele>
        <time>2014-08-26T09:46:55Z</time>
      </trkpt>
      <trkpt lat="46.34949" lon="6.52423">
        <ele>629.52313</ele>
        <time>2014-08-26T09:47:00Z</time>
      </trkpt>
      <trkpt lat="46.34945" lon="6.52424">
        <ele>629.52313</ele>
        <time>2014-08-26T09:47:05Z</time>
      </trkpt>
      <trkpt lat="46.34942" lon="6.52427">
        <ele>629.3337</ele>
        <time>2014-08-26T09:47:10Z</time>
      </trkpt>
      <trkpt lat="46.34939" lon="6.52427">
        <ele>629.3337</ele>
        <time>2014-08-26T09:47:15Z</time>
      </trkpt>
      <trkpt lat="46.34936" lon="6.52429">
        <ele>629.3337</ele>
        <time>2014-08-26T09:47:20Z</time>
      </trkpt>
      <trkpt lat="46.34929" lon="6.52437">
        <ele>629.18915</ele>
        <time>2014-08-26T09:47:25Z</time>
      </trkpt>
      <trkpt lat="46.34922" lon="6.52442">
        <ele>629.18915</ele>
        <time>2014-08-26T09:47:30Z</time>
      </trkpt>
      <trkpt lat="46.34917" lon="6.52445">
        <ele>629.1307</ele>
        <time>2014-08-26T09:47:35Z</time>
      </trkpt>
      <trkpt lat="46.34915" lon="6.52445">
        <ele>629.1307</ele>
        <time>2014-08-26T09:47:40Z</time>
      </trkpt>
      <trkpt lat="46.34909" lon="6.52444">
        <ele>629.1307</ele>
        <time>2014-08-26T09:47:45Z</time>
      </trkpt>
      <trkpt lat="46.34904" lon="6.5245">
        <ele>629.31134</ele>
        <time>2014-08-26T09:47:50Z</time>
      </trkpt>
      <trkpt lat="46.34899" lon="6.52458">
        <ele>629.31134</ele>
        <time>2014-08-26T09:47:55Z</time>
      </trkpt>
      <trkpt lat="46.34893" lon="6.52464">
        <ele>629.5553</ele>
        <time>2014-08-26T09:48:00Z</time>
      </trkpt>
      <trkpt lat="46.34889" lon="6.52469">
        <ele>629.5553</ele>
        <time>2014-08-26T09:48:05Z</time>
      </trkpt>
      <trkpt lat="46.34885" lon="6.52484">
        <ele>629.829</ele>
        <time>2014-08-26T09:48:10Z</time>
      </trkpt>
      <trkpt lat="46.3488" lon="6.52496">
        <ele>630.1012</ele>
        <time>2014-08-26T09:48:15Z</time>
      </trkpt>
      <trkpt lat="46.34877" lon="6.52499">
        <ele>630.1012</ele>
        <time>2014-08-26T09:48:20Z</time>
      </trkpt>
      <trkpt lat="46.34874" lon="6.52501">
        <ele>630.1012</ele>
        <time>2014-08-26T09:48:25Z</time>
      </trkpt>
      <trkpt lat="46.34869" lon="6.5251">
        <ele>630.5591</ele>
        <time>2014-08-26T09:48:30Z</time>
      </trkpt>
      <trkpt lat="46.34868" lon="6.52511">
        <ele>630.5591</ele>
        <time>2014-08-26T09:48:35Z</time>
      </trkpt>
      <trkpt lat="46.34866" lon="6.52514">
        <ele>630.5591</ele>
        <time>2014-08-26T09:48:40Z</time>
      </trkpt>
      <trkpt lat="46.34861" lon="6.52526">
        <ele>631.0153</ele>
        <time>2014-08-26T09:48:45Z</time>
      </trkpt>
      <trkpt lat="46.34859" lon="6.52528">
        <ele>631.0153</ele>
        <time>2014-08-26T09:48:50Z</time>
      </trkpt>
      <trkpt lat="46.34859" lon="6.52532">
        <ele>631.0153</ele>
        <time>2014-08-26T09:48:55Z</time>
      </trkpt>
      <trkpt lat="46.34857" lon="6.52534">
        <ele>631.0153</ele>
        <time>2014-08-26T09:49:00Z</time>
      </trkpt>
      <trkpt lat="46.34856" lon="6.52538">
        <ele>631.58435</ele>
        <time>2014-08-26T09:49:05Z</time>
      </trkpt>
      <trkpt lat="46.34857" lon="6.52543">
        <ele>631.58435</ele>
        <time>2014-08-26T09:49:10Z</time>
      </trkpt>
      <trkpt lat="46.3486" lon="6.5255">
        <ele>631.58435</ele>
        <time>2014-08-26T09:49:15Z</time>
      </trkpt>
      <trkpt lat="46.34859" lon="6.52576">
        <ele>632.1126</ele>
        <time>2014-08-26T09:49:20Z</time>
      </trkpt>
      <trkpt lat="46.34856" lon="6.52587">
        <ele>632.1126</ele>
        <time>2014-08-26T09:49:25Z</time>
      </trkpt>
      <trkpt lat="46.34854" lon="6.52597">
        <ele>632.6884</ele>
        <time>2014-08-26T09:49:30Z</time>
      </trkpt>
      <trkpt lat="46.34851" lon="6.52605">
        <ele>632.6884</ele>
        <time>2014-08-26T09:49:35Z</time>
      </trkpt>
      <trkpt lat="46.34844" lon="6.52611">
        <ele>633.2493</ele>
        <time>2014-08-26T09:49:40Z</time>
      </trkpt>
      <trkpt lat="46.34844" lon="6.52614">
        <ele>633.2493</ele>
        <time>2014-08-26T09:49:45Z</time>
      </trkpt>
      <trkpt lat="46.34842" lon="6.52627">
        <ele>633.824</ele>
        <time>2014-08-26T09:49:50Z</time>
      </trkpt>
      <trkpt lat="46.34842" lon="6.52634">
        <ele>633.824</ele>
        <time>2014-08-26T09:49:55Z</time>
      </trkpt>
      <trkpt lat="46.34843" lon="6.52642">
        <ele>634.38116</ele>
        <time>2014-08-26T09:50:00Z</time>
      </trkpt>
      <trkpt lat="46.34843" lon="6.52647">
        <ele>634.38116</ele>
        <time>2014-08-26T09:50:05Z</time>
      </trkpt>
      <trkpt lat="46.34838" lon="6.52654">
        <ele>634.9354</ele>
        <time>2014-08-26T09:50:10Z</time>
      </trkpt>
      <trkpt lat="46.34836" lon="6.52662">
        <ele>634.9354</ele>
        <time>2014-08-26T09:50:15Z</time>
      </trkpt>
      <trkpt lat="46.34835" lon="6.52664">
        <ele>634.9354</ele>
        <time>2014-08-26T09:50:20Z</time>
      </trkpt>
      <trkpt lat="46.34835" lon="6.52669">
        <ele>635.41345</ele>
        <time>2014-08-26T09:50:25Z</time>
      </trkpt>
      <trkpt lat="46.34835" lon="6.52674">
        <ele>635.41345</ele>
        <time>2014-08-26T09:50:30Z</time>
      </trkpt>
      <trkpt lat="46.34832" lon="6.52679">
        <ele>635.41345</ele>
        <time>2014-08-26T09:50:35Z</time>
      </trkpt>
      <trkpt lat="46.34831" lon="6.52685">
        <ele>635.7911</ele>
        <time>2014-08-26T09:50:40Z</time>
      </trkpt>
      <trkpt lat="46.34831" lon="6.52689">
        <ele>635.7911</ele>
        <time>2014-08-26T09:50:45Z</time>
      </trkpt>
      <trkpt lat="46.34833" lon="6.52692">
        <ele>635.7911</ele>
        <time>2014-08-26T09:50:50Z</time>
      </trkpt>
      <trkpt lat="46.34833" lon="6.52692">
        <ele>635.7911</ele>
        <time>2014-08-26T09:50:55Z</time>
      </trkpt>
      <trkpt lat="46.34831" lon="6.52717">
        <ele>636.4495</ele>
        <time>2014-08-26T09:51:05Z</time>
      </trkpt>
      <trkpt lat="46.34839" lon="6.52744">
        <ele>637.2225</ele>
        <time>2014-08-26T09:51:10Z</time>
      </trkpt>
      <trkpt lat="46.34842" lon="6.5277">
        <ele>637.9988</ele>
        <time>2014-08-26T09:51:15Z</time>
      </trkpt>
      <trkpt lat="46.34844" lon="6.52775">
        <ele>637.9988</ele>
        <time>2014-08-26T09:51:20Z</time>
      </trkpt>
      <trkpt lat="46.34845" lon="6.52782">
        <ele>638.7475</ele>
        <time>2014-08-26T09:51:25Z</time>
      </trkpt>
      <trkpt lat="46.34841" lon="6.52796">
        <ele>639.44006</ele>
        <time>2014-08-26T09:51:30Z</time>
      </trkpt>
      <trkpt lat="46.34841" lon="6.52798">
        <ele>639.44006</ele>
        <time>2014-08-26T09:51:35Z</time>
      </trkpt>
      <trkpt lat="46.34841" lon="6.52802">
        <ele>639.44006</ele>
        <time>2014-08-26T09:51:40Z</time>
      </trkpt>
      <trkpt lat="46.34839" lon="6.52805">
        <ele>639.44006</ele>
        <time>2014-08-26T09:51:45Z</time>
      </trkpt>
      <trkpt lat="46.34838" lon="6.5281">
        <ele>640.0069</ele>
        <time>2014-08-26T09:51:50Z</time>
      </trkpt>
      <trkpt lat="46.3483" lon="6.52826">
        <ele>640.4993</ele>
        <time>2014-08-26T09:51:55Z</time>
      </trkpt>
      <trkpt lat="46.34823" lon="6.52831">
        <ele>640.4993</ele>
        <time>2014-08-26T09:52:00Z</time>
      </trkpt>
      <trkpt lat="46.34822" lon="6.52833">
        <ele>640.9217</ele>
        <time>2014-08-26T09:52:05Z</time>
      </trkpt>
      <trkpt lat="46.34818" lon="6.52846">
        <ele>641.2641</ele>
        <time>2014-08-26T09:52:10Z</time>
      </trkpt>
      <trkpt lat="46.34815" lon="6.52843">
        <ele>641.2641</ele>
        <time>2014-08-26T09:52:15Z</time>
      </trkpt>
      <trkpt lat="46.34811" lon="6.52846">
        <ele>641.2641</ele>
        <time>2014-08-26T09:52:20Z</time>
      </trkpt>
      <trkpt lat="46.34809" lon="6.52846">
        <ele>641.43097</ele>
        <time>2014-08-26T09:52:25Z</time>
      </trkpt>
      <trkpt lat="46.34805" lon="6.52845">
        <ele>641.43097</ele>
        <time>2014-08-26T09:52:30Z</time>
      </trkpt>
      <trkpt lat="46.34797" lon="6.52849">
        <ele>641.44965</ele>
        <time>2014-08-26T09:52:35Z</time>
      </trkpt>
      <trkpt lat="46.34794" lon="6.52856">
        <ele>641.44965</ele>
        <time>2014-08-26T09:52:40Z</time>
      </trkpt>
      <trkpt lat="46.34789" lon="6.52857">
        <ele>641.4323</ele>
        <time>2014-08-26T09:52:45Z</time>
      </trkpt>
      <trkpt lat="46.34781" lon="6.52854">
        <ele>641.4323</ele>
        <time>2014-08-26T09:52:50Z</time>
      </trkpt>
      <trkpt lat="46.34773" lon="6.52855">
        <ele>641.339</ele>
        <time>2014-08-26T09:52:55Z</time>
      </trkpt>
      <trkpt lat="46.34763" lon="6.52851">
        <ele>641.2193</ele>
        <time>2014-08-26T09:53:00Z</time>
      </trkpt>
      <trkpt lat="46.34758" lon="6.52849">
        <ele>641.2193</ele>
        <time>2014-08-26T09:53:05Z</time>
      </trkpt>
      <trkpt lat="46.34755" lon="6.52851">
        <ele>641.2193</ele>
        <time>2014-08-26T09:53:10Z</time>
      </trkpt>
      <trkpt lat="46.34749" lon="6.52851">
        <ele>641.07605</ele>
        <time>2014-08-26T09:53:15Z</time>
      </trkpt>
      <trkpt lat="46.34742" lon="6.52843">
        <ele>641.07605</ele>
        <time>2014-08-26T09:53:20Z</time>
      </trkpt>
      <trkpt lat="46.34738" lon="6.52841">
        <ele>640.92633</ele>
        <time>2014-08-26T09:53:25Z</time>
      </trkpt>
      <trkpt lat="46.34736" lon="6.52838">
        <ele>640.92633</ele>
        <time>2014-08-26T09:53:30Z</time>
      </trkpt>
      <trkpt lat="46.3473" lon="6.52831">
        <ele>640.7861</ele>
        <time>2014-08-26T09:53:35Z</time>
      </trkpt>
      <trkpt lat="46.34725" lon="6.52826">
        <ele>640.7861</ele>
        <time>2014-08-26T09:53:40Z</time>
      </trkpt>
      <trkpt lat="46.34722" lon="6.52823">
        <ele>640.5691</ele>
        <time>2014-08-26T09:53:45Z</time>
      </trkpt>
      <trkpt lat="46.34718" lon="6.52822">
        <ele>640.5691</ele>
        <time>2014-08-26T09:53:50Z</time>
      </trkpt>
      <trkpt lat="46.34716" lon="6.52819">
        <ele>640.5691</ele>
        <time>2014-08-26T09:53:55Z</time>
      </trkpt>
      <trkpt lat="46.34712" lon="6.52817">
        <ele>640.10925</ele>
        <time>2014-08-26T09:54:00Z</time>
      </trkpt>
      <trkpt lat="46.34708" lon="6.52814">
        <ele>640.10925</ele>
        <time>2014-08-26T09:54:05Z</time>
      </trkpt>
      <trkpt lat="46.34704" lon="6.52809">
        <ele>639.54156</ele>
        <time>2014-08-26T09:54:10Z</time>
      </trkpt>
      <trkpt lat="46.347" lon="6.52807">
        <ele>639.54156</ele>
        <time>2014-08-26T09:54:15Z</time>
      </trkpt>
      <trkpt lat="46.34695" lon="6.52801">
        <ele>638.8617</ele>
        <time>2014-08-26T09:54:20Z</time>
      </trkpt>
      <trkpt lat="46.34694" lon="6.528">
        <ele>638.8617</ele>
        <time>2014-08-26T09:54:25Z</time>
      </trkpt>
      <trkpt lat="46.34686" lon="6.52789">
        <ele>638.3974</ele>
        <time>2014-08-26T09:54:30Z</time>
      </trkpt>
      <trkpt lat="46.34686" lon="6.52789">
        <ele>638.3974</ele>
        <time>2014-08-26T09:54:35Z</time>
      </trkpt>
      <trkpt lat="46.34685" lon="6.52787">
        <ele>638.3974</ele>
        <time>2014-08-26T09:54:40Z</time>
      </trkpt>
      <trkpt lat="46.34684" lon="6.52785">
        <ele>638.3974</ele>
        <time>2014-08-26T09:54:45Z</time>
      </trkpt>
      <trkpt lat="46.34683" lon="6.52784">
        <ele>638.3974</ele>
        <time>2014-08-26T09:54:50Z</time>
      </trkpt>
      <trkpt lat="46.34683" lon="6.52786">
        <ele>638.3974</ele>
        <time>2014-08-26T09:54:55Z</time>
      </trkpt>
      <trkpt lat="46.34679" lon="6.5279">
        <ele>638.24994</ele>
        <time>2014-08-26T09:55:00Z</time>
      </trkpt>
      <trkpt lat="46.34674" lon="6.52796">
        <ele>638.24994</ele>
        <time>2014-08-26T09:55:05Z</time>
      </trkpt>
      <trkpt lat="46.34669" lon="6.52805">
        <ele>638.31055</ele>
        <time>2014-08-26T09:55:10Z</time>
      </trkpt>
      <trkpt lat="46.34662" lon="6.52808">
        <ele>638.31055</ele>
        <time>2014-08-26T09:55:15Z</time>
      </trkpt>
      <trkpt lat="46.34656" lon="6.52812">
        <ele>638.52106</ele>
        <time>2014-08-26T09:55:20Z</time>
      </trkpt>
      <trkpt lat="46.34653" lon="6.52815">
        <ele>638.52106</ele>
        <time>2014-08-26T09:55:25Z</time>
      </trkpt>
      <trkpt lat="46.34647" lon="6.5282">
        <ele>638.82697</ele>
        <time>2014-08-26T09:55:30Z</time>
      </trkpt>
      <trkpt lat="46.34647" lon="6.52821">
        <ele>638.82697</ele>
        <time>2014-08-26T09:55:35Z</time>
      </trkpt>
      <trkpt lat="46.34643" lon="6.52824">
        <ele>638.82697</ele>
        <time>2014-08-26T09:55:40Z</time>
      </trkpt>
      <trkpt lat="46.34641" lon="6.52827">
        <ele>638.82697</ele>
        <time>2014-08-26T09:55:45Z</time>
      </trkpt>
      <trkpt lat="46.34635" lon="6.52824">
        <ele>638.9328</ele>
        <time>2014-08-26T09:55:50Z</time>
      </trkpt>
      <trkpt lat="46.34629" lon="6.52822">
        <ele>638.9328</ele>
        <time>2014-08-26T09:55:55Z</time>
      </trkpt>
      <trkpt lat="46.34625" lon="6.52822">
        <ele>639.055</ele>
        <time>2014-08-26T09:56:00Z</time>
      </trkpt>
      <trkpt lat="46.34622" lon="6.52821">
        <ele>639.055</ele>
        <time>2014-08-26T09:56:05Z</time>
      </trkpt>
      <trkpt lat="46.34619" lon="6.5282">
        <ele>639.055</ele>
        <time>2014-08-26T09:56:10Z</time>
      </trkpt>
      <trkpt lat="46.34612" lon="6.52816">
        <ele>639.1204</ele>
        <time>2014-08-26T09:56:15Z</time>
      </trkpt>
      <trkpt lat="46.34606" lon="6.52812">
        <ele>639.1204</ele>
        <time>2014-08-26T09:56:20Z</time>
      </trkpt>
      <trkpt lat="46.34602" lon="6.52807">
        <ele>638.9605</ele>
        <time>2014-08-26T09:56:25Z</time>
      </trkpt>
      <trkpt lat="46.34601" lon="6.52807">
        <ele>638.9605</ele>
        <time>2014-08-26T09:56:30Z</time>
      </trkpt>
      <trkpt lat="46.34595" lon="6.52816">
        <ele>638.93854</ele>
        <time>2014-08-26T09:56:35Z</time>
      </trkpt>
      <trkpt lat="46.34596" lon="6.52822">
        <ele>638.93854</ele>
        <time>2014-08-26T09:56:40Z</time>
      </trkpt>
      <trkpt lat="46.34591" lon="6.52826">
        <ele>639.07355</ele>
        <time>2014-08-26T09:56:45Z</time>
      </trkpt>
      <trkpt lat="46.34582" lon="6.52831">
        <ele>639.07355</ele>
        <time>2014-08-26T09:56:50Z</time>
      </trkpt>
      <trkpt lat="46.34582" lon="6.52831">
        <ele>639.07355</ele>
        <time>2014-08-26T09:56:55Z</time>
      </trkpt>
      <trkpt lat="46.3458" lon="6.52836">
        <ele>639.3684</ele>
        <time>2014-08-26T09:57:00Z</time>
      </trkpt>
      <trkpt lat="46.3458" lon="6.52837">
        <ele>639.3684</ele>
        <time>2014-08-26T09:57:05Z</time>
      </trkpt>
      <trkpt lat="46.34576" lon="6.52848">
        <ele>639.3684</ele>
        <time>2014-08-26T09:57:10Z</time>
      </trkpt>
      <trkpt lat="46.3457" lon="6.52867">
        <ele>639.7965</ele>
        <time>2014-08-26T09:57:15Z</time>
      </trkpt>
      <trkpt lat="46.34567" lon="6.52881">
        <ele>640.30383</ele>
        <time>2014-08-26T09:57:20Z</time>
      </trkpt>
      <trkpt lat="46.34556" lon="6.52886">
        <ele>640.8691</ele>
        <time>2014-08-26T09:57:25Z</time>
      </trkpt>
      <trkpt lat="46.34548" lon="6.52904">
        <ele>641.52997</ele>
        <time>2014-08-26T09:57:30Z</time>
      </trkpt>
      <trkpt lat="46.34544" lon="6.52917">
        <ele>642.3067</ele>
        <time>2014-08-26T09:57:35Z</time>
      </trkpt>
      <trkpt lat="46.34541" lon="6.52929">
        <ele>643.2465</ele>
        <time>2014-08-26T09:57:40Z</time>
      </trkpt>
      <trkpt lat="46.34535" lon="6.52937">
        <ele>643.2465</ele>
        <time>2014-08-26T09:57:45Z</time>
      </trkpt>
      <trkpt lat="46.3453" lon="6.52938">
        <ele>644.33514</ele>
        <time>2014-08-26T09:57:50Z</time>
      </trkpt>
      <trkpt lat="46.34526" lon="6.52938">
        <ele>644.33514</ele>
        <time>2014-08-26T09:57:55Z</time>
      </trkpt>
      <trkpt lat="46.34522" lon="6.52933">
        <ele>644.33514</ele>
        <time>2014-08-26T09:58:00Z</time>
      </trkpt>
      <trkpt lat="46.34519" lon="6.52933">
        <ele>645.4292</ele>
        <time>2014-08-26T09:58:05Z</time>
      </trkpt>
      <trkpt lat="46.34518" lon="6.52932">
        <ele>645.4292</ele>
        <time>2014-08-26T09:58:10Z</time>
      </trkpt>
      <trkpt lat="46.34513" lon="6.52931">
        <ele>645.4292</ele>
        <time>2014-08-26T09:58:15Z</time>
      </trkpt>
      <trkpt lat="46.34507" lon="6.52929">
        <ele>646.59766</ele>
        <time>2014-08-26T09:58:20Z</time>
      </trkpt>
      <trkpt lat="46.34497" lon="6.52929">
        <ele>647.8033</ele>
        <time>2014-08-26T09:58:25Z</time>
      </trkpt>
      <trkpt lat="46.34494" lon="6.52928">
        <ele>647.8033</ele>
        <time>2014-08-26T09:58:30Z</time>
      </trkpt>
      <trkpt lat="46.34488" lon="6.52934">
        <ele>649.0116</ele>
        <time>2014-08-26T09:58:35Z</time>
      </trkpt>
      <trkpt lat="46.34484" lon="6.52941">
        <ele>649.0116</ele>
        <time>2014-08-26T09:58:40Z</time>
      </trkpt>
      <trkpt lat="46.34483" lon="6.52944">
        <ele>649.9744</ele>
        <time>2014-08-26T09:58:45Z</time>
      </trkpt>
      <trkpt lat="46.34481" lon="6.52948">
        <ele>649.9744</ele>
        <time>2014-08-26T09:58:50Z</time>
      </trkpt>
      <trkpt lat="46.34473" lon="6.5295">
        <ele>650.70764</ele>
        <time>2014-08-26T09:58:55Z</time>
      </trkpt>
      <trkpt lat="46.34472" lon="6.52953">
        <ele>650.70764</ele>
        <time>2014-08-26T09:59:00Z</time>
      </trkpt>
      <trkpt lat="46.34471" lon="6.52956">
        <ele>650.70764</ele>
        <time>2014-08-26T09:59:05Z</time>
      </trkpt>
      <trkpt lat="46.34474" lon="6.52973">
        <ele>651.24097</ele>
        <time>2014-08-26T09:59:10Z</time>
      </trkpt>
      <trkpt lat="46.34478" lon="6.52984">
        <ele>651.24097</ele>
        <time>2014-08-26T09:59:15Z</time>
      </trkpt>
      <trkpt lat="46.3448" lon="6.52994">
        <ele>651.67474</ele>
        <time>2014-08-26T09:59:20Z</time>
      </trkpt>
      <trkpt lat="46.34481" lon="6.52998">
        <ele>651.67474</ele>
        <time>2014-08-26T09:59:25Z</time>
      </trkpt>
      <trkpt lat="46.3448" lon="6.53001">
        <ele>651.67474</ele>
        <time>2014-08-26T09:59:30Z</time>
      </trkpt>
      <trkpt lat="46.34478" lon="6.53002">
        <ele>651.67474</ele>
        <time>2014-08-26T09:59:35Z</time>
      </trkpt>
      <trkpt lat="46.34473" lon="6.53004">
        <ele>651.7274</ele>
        <time>2014-08-26T09:59:40Z</time>
      </trkpt>
      <trkpt lat="46.34471" lon="6.53005">
        <ele>651.7274</ele>
        <time>2014-08-26T09:59:45Z</time>
      </trkpt>
      <trkpt lat="46.34465" lon="6.53009">
        <ele>651.7013</ele>
        <time>2014-08-26T09:59:50Z</time>
      </trkpt>
      <trkpt lat="46.34458" lon="6.53011">
        <ele>651.7013</ele>
        <time>2014-08-26T09:59:55Z</time>
      </trkpt>
      <trkpt lat="46.34451" lon="6.53011">
        <ele>651.6752</ele>
        <time>2014-08-26T10:00:00Z</time>
      </trkpt>
      <trkpt lat="46.34448" lon="6.53013">
        <ele>651.6752</ele>
        <time>2014-08-26T10:00:05Z</time>
      </trkpt>
      <trkpt lat="46.34442" lon="6.53027">
        <ele>651.938</ele>
        <time>2014-08-26T10:00:10Z</time>
      </trkpt>
      <trkpt lat="46.34437" lon="6.53025">
        <ele>651.938</ele>
        <time>2014-08-26T10:00:15Z</time>
      </trkpt>
      <trkpt lat="46.34437" lon="6.53025">
        <ele>651.938</ele>
        <time>2014-08-26T10:00:20Z</time>
      </trkpt>
      <trkpt lat="46.34435" lon="6.53026">
        <ele>651.938</ele>
        <time>2014-08-26T10:00:25Z</time>
      </trkpt>
      <trkpt lat="46.34434" lon="6.53026">
        <ele>651.938</ele>
        <time>2014-08-26T10:00:30Z</time>
      </trkpt>
      <trkpt lat="46.34434" lon="6.53026">
        <ele>651.938</ele>
        <time>2014-08-26T10:00:35Z</time>
      </trkpt>
      <trkpt lat="46.34434" lon="6.5303">
        <ele>653.0163</ele>
        <time>2014-08-26T10:00:45Z</time>
      </trkpt>
      <trkpt lat="46.34434" lon="6.53033">
        <ele>653.0163</ele>
        <time>2014-08-26T10:00:50Z</time>
      </trkpt>
      <trkpt lat="46.34431" lon="6.53037">
        <ele>653.0163</ele>
        <time>2014-08-26T10:00:55Z</time>
      </trkpt>
      <trkpt lat="46.34428" lon="6.53042">
        <ele>654.4012</ele>
        <time>2014-08-26T10:01:00Z</time>
      </trkpt>
      <trkpt lat="46.34428" lon="6.53044">
        <ele>654.4012</ele>
        <time>2014-08-26T10:01:05Z</time>
      </trkpt>
      <trkpt lat="46.34427" lon="6.53048">
        <ele>654.4012</ele>
        <time>2014-08-26T10:01:10Z</time>
      </trkpt>
      <trkpt lat="46.34428" lon="6.53052">
        <ele>654.4012</ele>
        <time>2014-08-26T10:01:15Z</time>
      </trkpt>
      <trkpt lat="46.34429" lon="6.53055">
        <ele>655.79333</ele>
        <time>2014-08-26T10:01:20Z</time>
      </trkpt>
      <trkpt lat="46.3443" lon="6.53057">
        <ele>655.79333</ele>
        <time>2014-08-26T10:01:25Z</time>
      </trkpt>
      <trkpt lat="46.3443" lon="6.53057">
        <ele>655.79333</ele>
        <time>2014-08-26T10:01:30Z</time>
      </trkpt>
      <trkpt lat="46.34429" lon="6.53058">
        <ele>655.79333</ele>
        <time>2014-08-26T10:01:35Z</time>
      </trkpt>
      <trkpt lat="46.34426" lon="6.53063">
        <ele>655.79333</ele>
        <time>2014-08-26T10:01:40Z</time>
      </trkpt>
      <trkpt lat="46.34425" lon="6.53072">
        <ele>657.074</ele>
        <time>2014-08-26T10:01:45Z</time>
      </trkpt>
      <trkpt lat="46.34425" lon="6.5308">
        <ele>657.074</ele>
        <time>2014-08-26T10:01:50Z</time>
      </trkpt>
      <trkpt lat="46.34428" lon="6.53091">
        <ele>658.3063</ele>
        <time>2014-08-26T10:01:55Z</time>
      </trkpt>
      <trkpt lat="46.34429" lon="6.53093">
        <ele>658.3063</ele>
        <time>2014-08-26T10:02:00Z</time>
      </trkpt>
      <trkpt lat="46.3443" lon="6.53094">
        <ele>658.3063</ele>
        <time>2014-08-26T10:02:05Z</time>
      </trkpt>
      <trkpt lat="46.3443" lon="6.53094">
        <ele>658.3063</ele>
        <time>2014-08-26T10:02:10Z</time>
      </trkpt>
      <trkpt lat="46.3443" lon="6.53103">
        <ele>659.794</ele>
        <time>2014-08-26T10:02:15Z</time>
      </trkpt>
      <trkpt lat="46.3443" lon="6.53105">
        <ele>659.794</ele>
        <time>2014-08-26T10:02:20Z</time>
      </trkpt>
      <trkpt lat="46.3443" lon="6.53105">
        <ele>659.794</ele>
        <time>2014-08-26T10:02:25Z</time>
      </trkpt>
      <trkpt lat="46.34431" lon="6.53107">
        <ele>659.794</ele>
        <time>2014-08-26T10:02:30Z</time>
      </trkpt>
      <trkpt lat="46.34431" lon="6.53108">
        <ele>659.794</ele>
        <time>2014-08-26T10:02:35Z</time>
      </trkpt>
      <trkpt lat="46.34431" lon="6.53111">
        <ele>659.794</ele>
        <time>2014-08-26T10:02:40Z</time>
      </trkpt>
      <trkpt lat="46.34431" lon="6.53111">
        <ele>659.794</ele>
        <time>2014-08-26T10:02:45Z</time>
      </trkpt>
      <trkpt lat="46.34441" lon="6.53118">
        <ele>661.08295</ele>
        <time>2014-08-26T10:02:50Z</time>
      </trkpt>
      <trkpt lat="46.3444" lon="6.53123">
        <ele>661.08295</ele>
        <time>2014-08-26T10:02:55Z</time>
      </trkpt>
      <trkpt lat="46.34443" lon="6.53131">
        <ele>662.3293</ele>
        <time>2014-08-26T10:03:00Z</time>
      </trkpt>
      <trkpt lat="46.34449" lon="6.53164">
        <ele>663.5339</ele>
        <time>2014-08-26T10:03:05Z</time>
      </trkpt>
      <trkpt lat="46.34454" lon="6.5317">
        <ele>663.5339</ele>
        <time>2014-08-26T10:03:10Z</time>
      </trkpt>
      <trkpt lat="46.34457" lon="6.53173">
        <ele>664.6688</ele>
        <time>2014-08-26T10:03:15Z</time>
      </trkpt>
      <trkpt lat="46.34457" lon="6.53177">
        <ele>664.6688</ele>
        <time>2014-08-26T10:03:20Z</time>
      </trkpt>
      <trkpt lat="46.3446" lon="6.53176">
        <ele>664.6688</ele>
        <time>2014-08-26T10:03:25Z</time>
      </trkpt>
      <trkpt lat="46.34463" lon="6.53176">
        <ele>664.6688</ele>
        <time>2014-08-26T10:03:30Z</time>
      </trkpt>
      <trkpt lat="46.34468" lon="6.53179">
        <ele>665.55</ele>
        <time>2014-08-26T10:03:35Z</time>
      </trkpt>
      <trkpt lat="46.34469" lon="6.53182">
        <ele>665.55</ele>
        <time>2014-08-26T10:03:40Z</time>
      </trkpt>
      <trkpt lat="46.34472" lon="6.53183">
        <ele>665.55</ele>
        <time>2014-08-26T10:03:45Z</time>
      </trkpt>
      <trkpt lat="46.34477" lon="6.53187">
        <ele>666.1086</ele>
        <time>2014-08-26T10:03:50Z</time>
      </trkpt>
      <trkpt lat="46.3448" lon="6.53188">
        <ele>666.1086</ele>
        <time>2014-08-26T10:03:55Z</time>
      </trkpt>
      <trkpt lat="46.34483" lon="6.5319">
        <ele>666.1086</ele>
        <time>2014-08-26T10:04:00Z</time>
      </trkpt>
      <trkpt lat="46.34483" lon="6.53191">
        <ele>666.1086</ele>
        <time>2014-08-26T10:04:05Z</time>
      </trkpt>
      <trkpt lat="46.34483" lon="6.5319">
        <ele>666.1086</ele>
        <time>2014-08-26T10:04:10Z</time>
      </trkpt>
      <trkpt lat="46.3448" lon="6.53191">
        <ele>666.49774</ele>
        <time>2014-08-26T10:04:15Z</time>
      </trkpt>
      <trkpt lat="46.34478" lon="6.53192">
        <ele>666.49774</ele>
        <time>2014-08-26T10:04:20Z</time>
      </trkpt>
      <trkpt lat="46.34476" lon="6.53192">
        <ele>666.49774</ele>
        <time>2014-08-26T10:04:25Z</time>
      </trkpt>
      <trkpt lat="46.34476" lon="6.53192">
        <ele>666.49774</ele>
        <time>2014-08-26T10:04:30Z</time>
      </trkpt>
      <trkpt lat="46.34475" lon="6.53193">
        <ele>666.49774</ele>
        <time>2014-08-26T10:04:35Z</time>
      </trkpt>
      <trkpt lat="46.34471" lon="6.53194">
        <ele>666.73035</ele>
        <time>2014-08-26T10:04:40Z</time>
      </trkpt>
      <trkpt lat="46.34467" lon="6.53193">
        <ele>666.73035</ele>
        <time>2014-08-26T10:04:45Z</time>
      </trkpt>
      <trkpt lat="46.34462" lon="6.53191">
        <ele>666.54504</ele>
        <time>2014-08-26T10:04:50Z</time>
      </trkpt>
      <trkpt lat="46.34455" lon="6.5319">
        <ele>666.54504</ele>
        <time>2014-08-26T10:04:55Z</time>
      </trkpt>
      <trkpt lat="46.34452" lon="6.5319">
        <ele>666.0755</ele>
        <time>2014-08-26T10:05:00Z</time>
      </trkpt>
      <trkpt lat="46.3445" lon="6.5319">
        <ele>666.0755</ele>
        <time>2014-08-26T10:05:05Z</time>
      </trkpt>
      <trkpt lat="46.34449" lon="6.5319">
        <ele>666.0755</ele>
        <time>2014-08-26T10:05:10Z</time>
      </trkpt>
      <trkpt lat="46.34447" lon="6.53191">
        <ele>666.0755</ele>
        <time>2014-08-26T10:05:15Z</time>
      </trkpt>
      <trkpt lat="46.34443" lon="6.53193">
        <ele>665.36</ele>
        <time>2014-08-26T10:05:20Z</time>
      </trkpt>
      <trkpt lat="46.34442" lon="6.53194">
        <ele>665.36</ele>
        <time>2014-08-26T10:05:25Z</time>
      </trkpt>
      <trkpt lat="46.34438" lon="6.53191">
        <ele>665.36</ele>
        <time>2014-08-26T10:05:30Z</time>
      </trkpt>
      <trkpt lat="46.34433" lon="6.53191">
        <ele>664.4634</ele>
        <time>2014-08-26T10:05:35Z</time>
      </trkpt>
      <trkpt lat="46.3443" lon="6.53192">
        <ele>664.4634</ele>
        <time>2014-08-26T10:05:40Z</time>
      </trkpt>
      <trkpt lat="46.34429" lon="6.53192">
        <ele>664.4634</ele>
        <time>2014-08-26T10:05:45Z</time>
      </trkpt>
      <trkpt lat="46.3442" lon="6.53189">
        <ele>663.60504</ele>
        <time>2014-08-26T10:05:50Z</time>
      </trkpt>
      <trkpt lat="46.34417" lon="6.53188">
        <ele>663.60504</ele>
        <time>2014-08-26T10:05:55Z</time>
      </trkpt>
      <trkpt lat="46.34416" lon="6.53188">
        <ele>663.60504</ele>
        <time>2014-08-26T10:06:00Z</time>
      </trkpt>
      <trkpt lat="46.34415" lon="6.53188">
        <ele>663.60504</ele>
        <time>2014-08-26T10:06:05Z</time>
      </trkpt>
      <trkpt lat="46.34415" lon="6.53187">
        <ele>663.60504</ele>
        <time>2014-08-26T10:06:15Z</time>
      </trkpt>
      <trkpt lat="46.34415" lon="6.53187">
        <ele>663.60504</ele>
        <time>2014-08-26T10:06:20Z</time>
      </trkpt>
      <trkpt lat="46.34413" lon="6.53183">
        <ele>663.60504</ele>
        <time>2014-08-26T10:06:35Z</time>
      </trkpt>
      <trkpt lat="46.34404" lon="6.53167">
        <ele>664.50104</ele>
        <time>2014-08-26T10:06:40Z</time>
      </trkpt>
      <trkpt lat="46.34397" lon="6.53153">
        <ele>665.4077</ele>
        <time>2014-08-26T10:06:45Z</time>
      </trkpt>
      <trkpt lat="46.34391" lon="6.5315">
        <ele>665.4077</ele>
        <time>2014-08-26T10:06:50Z</time>
      </trkpt>
      <trkpt lat="46.34386" lon="6.53147">
        <ele>666.48193</ele>
        <time>2014-08-26T10:06:55Z</time>
      </trkpt>
      <trkpt lat="46.34383" lon="6.53147">
        <ele>666.48193</ele>
        <time>2014-08-26T10:07:00Z</time>
      </trkpt>
      <trkpt lat="46.3438" lon="6.53144">
        <ele>666.48193</ele>
        <time>2014-08-26T10:07:05Z</time>
      </trkpt>
      <trkpt lat="46.34378" lon="6.53144">
        <ele>666.48193</ele>
        <time>2014-08-26T10:07:10Z</time>
      </trkpt>
      <trkpt lat="46.34375" lon="6.53145">
        <ele>667.66675</ele>
        <time>2014-08-26T10:07:15Z</time>
      </trkpt>
      <trkpt lat="46.34372" lon="6.53145">
        <ele>667.66675</ele>
        <time>2014-08-26T10:07:20Z</time>
      </trkpt>
      <trkpt lat="46.34372" lon="6.53144">
        <ele>667.66675</ele>
        <time>2014-08-26T10:07:25Z</time>
      </trkpt>
      <trkpt lat="46.34372" lon="6.53144">
        <ele>667.66675</ele>
        <time>2014-08-26T10:07:30Z</time>
      </trkpt>
      <trkpt lat="46.34371" lon="6.53141">
        <ele>667.66675</ele>
        <time>2014-08-26T10:07:35Z</time>
      </trkpt>
      <trkpt lat="46.3437" lon="6.53137">
        <ele>667.66675</ele>
        <time>2014-08-26T10:07:40Z</time>
      </trkpt>
      <trkpt lat="46.34368" lon="6.53132">
        <ele>668.70734</ele>
        <time>2014-08-26T10:07:45Z</time>
      </trkpt>
      <trkpt lat="46.34367" lon="6.5313">
        <ele>668.70734</ele>
        <time>2014-08-26T10:07:50Z</time>
      </trkpt>
      <trkpt lat="46.34366" lon="6.53129">
        <ele>668.70734</ele>
        <time>2014-08-26T10:07:55Z</time>
      </trkpt>
      <trkpt lat="46.34363" lon="6.53127">
        <ele>668.70734</ele>
        <time>2014-08-26T10:08:00Z</time>
      </trkpt>
      <trkpt lat="46.3436" lon="6.53124">
        <ele>669.1376</ele>
        <time>2014-08-26T10:08:05Z</time>
      </trkpt>
      <trkpt lat="46.34359" lon="6.53119">
        <ele>669.1376</ele>
        <time>2014-08-26T10:08:10Z</time>
      </trkpt>
      <trkpt lat="46.34355" lon="6.53112">
        <ele>669.3053</ele>
        <time>2014-08-26T10:08:15Z</time>
      </trkpt>
      <trkpt lat="46.34351" lon="6.53108">
        <ele>669.3053</ele>
        <time>2014-08-26T10:08:20Z</time>
      </trkpt>
      <trkpt lat="46.34345" lon="6.53106">
        <ele>669.47595</ele>
        <time>2014-08-26T10:08:25Z</time>
      </trkpt>
      <trkpt lat="46.34345" lon="6.53106">
        <ele>669.47595</ele>
        <time>2014-08-26T10:08:30Z</time>
      </trkpt>
      <trkpt lat="46.34342" lon="6.53099">
        <ele>669.47595</ele>
        <time>2014-08-26T10:08:50Z</time>
      </trkpt>
      <trkpt lat="46.34321" lon="6.53062">
        <ele>670.47205</ele>
        <time>2014-08-26T10:08:55Z</time>
      </trkpt>
      <trkpt lat="46.34312" lon="6.53056">
        <ele>671.52563</ele>
        <time>2014-08-26T10:09:00Z</time>
      </trkpt>
      <trkpt lat="46.3431" lon="6.5306">
        <ele>671.52563</ele>
        <time>2014-08-26T10:09:05Z</time>
      </trkpt>
      <trkpt lat="46.34309" lon="6.53062">
        <ele>671.52563</ele>
        <time>2014-08-26T10:09:10Z</time>
      </trkpt>
      <trkpt lat="46.34307" lon="6.53064">
        <ele>671.52563</ele>
        <time>2014-08-26T10:09:15Z</time>
      </trkpt>
      <trkpt lat="46.34305" lon="6.53064">
        <ele>672.60236</ele>
        <time>2014-08-26T10:09:20Z</time>
      </trkpt>
      <trkpt lat="46.34303" lon="6.53062">
        <ele>672.60236</ele>
        <time>2014-08-26T10:09:25Z</time>
      </trkpt>
      <trkpt lat="46.34302" lon="6.53054">
        <ele>672.60236</ele>
        <time>2014-08-26T10:09:30Z</time>
      </trkpt>
      <trkpt lat="46.34302" lon="6.53047">
        <ele>673.90094</ele>
        <time>2014-08-26T10:09:35Z</time>
      </trkpt>
      <trkpt lat="46.34301" lon="6.53037">
        <ele>673.90094</ele>
        <time>2014-08-26T10:09:40Z</time>
      </trkpt>
      <trkpt lat="46.34303" lon="6.53027">
        <ele>675.2878</ele>
        <time>2014-08-26T10:09:45Z</time>
      </trkpt>
      <trkpt lat="46.34303" lon="6.5302">
        <ele>675.2878</ele>
        <time>2014-08-26T10:09:50Z</time>
      </trkpt>
      <trkpt lat="46.34304" lon="6.5301">
        <ele>676.62463</ele>
        <time>2014-08-26T10:09:55Z</time>
      </trkpt>
      <trkpt lat="46.34303" lon="6.53004">
        <ele>676.62463</ele>
        <time>2014-08-26T10:10:00Z</time>
      </trkpt>
      <trkpt lat="46.34305" lon="6.52998">
        <ele>676.62463</ele>
        <time>2014-08-26T10:10:05Z</time>
      </trkpt>
      <trkpt lat="46.34308" lon="6.5299">
        <ele>678.2445</ele>
        <time>2014-08-26T10:10:10Z</time>
      </trkpt>
      <trkpt lat="46.34306" lon="6.52984">
        <ele>678.2445</ele>
        <time>2014-08-26T10:10:15Z</time>
      </trkpt>
      <trkpt lat="46.34305" lon="6.52981">
        <ele>678.2445</ele>
        <time>2014-08-26T10:10:20Z</time>
      </trkpt>
      <trkpt lat="46.34304" lon="6.52978">
        <ele>678.2445</ele>
        <time>2014-08-26T10:10:25Z</time>
      </trkpt>
      <trkpt lat="46.34303" lon="6.52975">
        <ele>680.0229</ele>
        <time>2014-08-26T10:10:30Z</time>
      </trkpt>
      <trkpt lat="46.34301" lon="6.52972">
        <ele>680.0229</ele>
        <time>2014-08-26T10:10:35Z</time>
      </trkpt>
      <trkpt lat="46.34296" lon="6.52971">
        <ele>680.0229</ele>
        <time>2014-08-26T10:10:40Z</time>
      </trkpt>
      <trkpt lat="46.34292" lon="6.52976">
        <ele>681.8009</ele>
        <time>2014-08-26T10:10:45Z</time>
      </trkpt>
      <trkpt lat="46.34287" lon="6.52983">
        <ele>681.8009</ele>
        <time>2014-08-26T10:10:50Z</time>
      </trkpt>
      <trkpt lat="46.3428" lon="6.52987">
        <ele>683.50336</ele>
        <time>2014-08-26T10:10:55Z</time>
      </trkpt>
      <trkpt lat="46.34273" lon="6.5299">
        <ele>683.50336</ele>
        <time>2014-08-26T10:11:00Z</time>
      </trkpt>
      <trkpt lat="46.34267" lon="6.52993">
        <ele>685.21924</ele>
        <time>2014-08-26T10:11:05Z</time>
      </trkpt>
      <trkpt lat="46.34264" lon="6.52997">
        <ele>685.21924</ele>
        <time>2014-08-26T10:11:10Z</time>
      </trkpt>
      <trkpt lat="46.34257" lon="6.53002">
        <ele>686.8439</ele>
        <time>2014-08-26T10:11:15Z</time>
      </trkpt>
      <trkpt lat="46.34254" lon="6.53006">
        <ele>686.8439</ele>
        <time>2014-08-26T10:11:20Z</time>
      </trkpt>
      <trkpt lat="46.3425" lon="6.53009">
        <ele>686.8439</ele>
        <time>2014-08-26T10:11:25Z</time>
      </trkpt>
      <trkpt lat="46.34246" lon="6.53013">
        <ele>688.68396</ele>
        <time>2014-08-26T10:11:30Z</time>
      </trkpt>
      <trkpt lat="46.34241" lon="6.53014">
        <ele>688.68396</ele>
        <time>2014-08-26T10:11:35Z</time>
      </trkpt>
      <trkpt lat="46.34236" lon="6.53018">
        <ele>690.562</ele>
        <time>2014-08-26T10:11:40Z</time>
      </trkpt>
      <trkpt lat="46.34233" lon="6.53019">
        <ele>690.562</ele>
        <time>2014-08-26T10:11:45Z</time>
      </trkpt>
      <trkpt lat="46.34227" lon="6.53022">
        <ele>692.45764</ele>
        <time>2014-08-26T10:11:50Z</time>
      </trkpt>
      <trkpt lat="46.34223" lon="6.53025">
        <ele>692.45764</ele>
        <time>2014-08-26T10:11:55Z</time>
      </trkpt>
      <trkpt lat="46.34218" lon="6.53028">
        <ele>694.4385</ele>
        <time>2014-08-26T10:12:00Z</time>
      </trkpt>
      <trkpt lat="46.34214" lon="6.53031">
        <ele>694.4385</ele>
        <time>2014-08-26T10:12:05Z</time>
      </trkpt>
      <trkpt lat="46.34209" lon="6.53033">
        <ele>696.4084</ele>
        <time>2014-08-26T10:12:10Z</time>
      </trkpt>
      <trkpt lat="46.34204" lon="6.53035">
        <ele>696.4084</ele>
        <time>2014-08-26T10:12:15Z</time>
      </trkpt>
      <trkpt lat="46.34199" lon="6.53037">
        <ele>698.27856</ele>
        <time>2014-08-26T10:12:20Z</time>
      </trkpt>
      <trkpt lat="46.34194" lon="6.53042">
        <ele>698.27856</ele>
        <time>2014-08-26T10:12:25Z</time>
      </trkpt>
      <trkpt lat="46.34189" lon="6.53046">
        <ele>700.05347</ele>
        <time>2014-08-26T10:12:30Z</time>
      </trkpt>
      <trkpt lat="46.34183" lon="6.5305">
        <ele>700.05347</ele>
        <time>2014-08-26T10:12:35Z</time>
      </trkpt>
      <trkpt lat="46.34179" lon="6.53052">
        <ele>701.7952</ele>
        <time>2014-08-26T10:12:40Z</time>
      </trkpt>
      <trkpt lat="46.34175" lon="6.53056">
        <ele>701.7952</ele>
        <time>2014-08-26T10:12:45Z</time>
      </trkpt>
      <trkpt lat="46.34172" lon="6.53061">
        <ele>703.5471</ele>
        <time>2014-08-26T10:12:50Z</time>
      </trkpt>
      <trkpt lat="46.34168" lon="6.53065">
        <ele>703.5471</ele>
        <time>2014-08-26T10:12:55Z</time>
      </trkpt>
      <trkpt lat="46.34163" lon="6.53068">
        <ele>705.13324</ele>
        <time>2014-08-26T10:13:00Z</time>
      </trkpt>
      <trkpt lat="46.34159" lon="6.53071">
        <ele>705.13324</ele>
        <time>2014-08-26T10:13:05Z</time>
      </trkpt>
      <trkpt lat="46.34156" lon="6.53076">
        <ele>706.5785</ele>
        <time>2014-08-26T10:13:10Z</time>
      </trkpt>
      <trkpt lat="46.34151" lon="6.5308">
        <ele>706.5785</ele>
        <time>2014-08-26T10:13:15Z</time>
      </trkpt>
      <trkpt lat="46.34147" lon="6.53083">
        <ele>707.92065</ele>
        <time>2014-08-26T10:13:20Z</time>
      </trkpt>
      <trkpt lat="46.34142" lon="6.53087">
        <ele>707.92065</ele>
        <time>2014-08-26T10:13:25Z</time>
      </trkpt>
      <trkpt lat="46.34138" lon="6.53092">
        <ele>709.18097</ele>
        <time>2014-08-26T10:13:30Z</time>
      </trkpt>
      <trkpt lat="46.34133" lon="6.53097">
        <ele>709.18097</ele>
        <time>2014-08-26T10:13:35Z</time>
      </trkpt>
      <trkpt lat="46.3413" lon="6.531">
        <ele>710.3648</ele>
        <time>2014-08-26T10:13:40Z</time>
      </trkpt>
      <trkpt lat="46.34126" lon="6.53101">
        <ele>710.3648</ele>
        <time>2014-08-26T10:13:45Z</time>
      </trkpt>
      <trkpt lat="46.34121" lon="6.53103">
        <ele>710.3648</ele>
        <time>2014-08-26T10:13:50Z</time>
      </trkpt>
      <trkpt lat="46.34118" lon="6.53106">
        <ele>711.62164</ele>
        <time>2014-08-26T10:13:55Z</time>
      </trkpt>
      <trkpt lat="46.34114" lon="6.53108">
        <ele>711.62164</ele>
        <time>2014-08-26T10:14:00Z</time>
      </trkpt>
      <trkpt lat="46.3411" lon="6.5311">
        <ele>712.6863</ele>
        <time>2014-08-26T10:14:05Z</time>
      </trkpt>
      <trkpt lat="46.34106" lon="6.53111">
        <ele>712.6863</ele>
        <time>2014-08-26T10:14:10Z</time>
      </trkpt>
      <trkpt lat="46.34102" lon="6.53111">
        <ele>712.6863</ele>
        <time>2014-08-26T10:14:15Z</time>
      </trkpt>
      <trkpt lat="46.34097" lon="6.53114">
        <ele>713.6595</ele>
        <time>2014-08-26T10:14:20Z</time>
      </trkpt>
      <trkpt lat="46.34091" lon="6.53119">
        <ele>713.6595</ele>
        <time>2014-08-26T10:14:25Z</time>
      </trkpt>
      <trkpt lat="46.34087" lon="6.53121">
        <ele>714.62054</ele>
        <time>2014-08-26T10:14:30Z</time>
      </trkpt>
      <trkpt lat="46.34081" lon="6.53123">
        <ele>714.62054</ele>
        <time>2014-08-26T10:14:35Z</time>
      </trkpt>
      <trkpt lat="46.34076" lon="6.53125">
        <ele>715.5277</ele>
        <time>2014-08-26T10:14:40Z</time>
      </trkpt>
      <trkpt lat="46.34072" lon="6.53129">
        <ele>715.5277</ele>
        <time>2014-08-26T10:14:45Z</time>
      </trkpt>
      <trkpt lat="46.34069" lon="6.53133">
        <ele>716.57306</ele>
        <time>2014-08-26T10:14:50Z</time>
      </trkpt>
      <trkpt lat="46.34065" lon="6.53139">
        <ele>716.57306</ele>
        <time>2014-08-26T10:14:55Z</time>
      </trkpt>
      <trkpt lat="46.34061" lon="6.53144">
        <ele>717.6748</ele>
        <time>2014-08-26T10:15:00Z</time>
      </trkpt>
      <trkpt lat="46.34058" lon="6.53147">
        <ele>717.6748</ele>
        <time>2014-08-26T10:15:05Z</time>
      </trkpt>
      <trkpt lat="46.34054" lon="6.53153">
        <ele>718.81476</ele>
        <time>2014-08-26T10:15:10Z</time>
      </trkpt>
      <trkpt lat="46.34053" lon="6.53156">
        <ele>718.81476</ele>
        <time>2014-08-26T10:15:15Z</time>
      </trkpt>
      <trkpt lat="46.34049" lon="6.5316">
        <ele>718.81476</ele>
        <time>2014-08-26T10:15:20Z</time>
      </trkpt>
      <trkpt lat="46.34045" lon="6.53165">
        <ele>720.0336</ele>
        <time>2014-08-26T10:15:25Z</time>
      </trkpt>
      <trkpt lat="46.34042" lon="6.5317">
        <ele>720.0336</ele>
        <time>2014-08-26T10:15:30Z</time>
      </trkpt>
      <trkpt lat="46.34037" lon="6.53174">
        <ele>721.28235</ele>
        <time>2014-08-26T10:15:35Z</time>
      </trkpt>
      <trkpt lat="46.34033" lon="6.53179">
        <ele>721.28235</ele>
        <time>2014-08-26T10:15:40Z</time>
      </trkpt>
      <trkpt lat="46.34028" lon="6.53184">
        <ele>722.5444</ele>
        <time>2014-08-26T10:15:45Z</time>
      </trkpt>
      <trkpt lat="46.34025" lon="6.53187">
        <ele>722.5444</ele>
        <time>2014-08-26T10:15:50Z</time>
      </trkpt>
      <trkpt lat="46.34021" lon="6.53193">
        <ele>723.83307</ele>
        <time>2014-08-26T10:15:55Z</time>
      </trkpt>
      <trkpt lat="46.34016" lon="6.53199">
        <ele>723.83307</ele>
        <time>2014-08-26T10:16:00Z</time>
      </trkpt>
      <trkpt lat="46.34012" lon="6.53206">
        <ele>724.988</ele>
        <time>2014-08-26T10:16:05Z</time>
      </trkpt>
      <trkpt lat="46.34008" lon="6.5321">
        <ele>724.988</ele>
        <time>2014-08-26T10:16:10Z</time>
      </trkpt>
      <trkpt lat="46.34003" lon="6.53215">
        <ele>726.0336</ele>
        <time>2014-08-26T10:16:15Z</time>
      </trkpt>
      <trkpt lat="46.33997" lon="6.53218">
        <ele>726.0336</ele>
        <time>2014-08-26T10:16:20Z</time>
      </trkpt>
      <trkpt lat="46.33995" lon="6.53219">
        <ele>726.0336</ele>
        <time>2014-08-26T10:16:25Z</time>
      </trkpt>
      <trkpt lat="46.33991" lon="6.53222">
        <ele>727.0508</ele>
        <time>2014-08-26T10:16:30Z</time>
      </trkpt>
      <trkpt lat="46.3399" lon="6.53222">
        <ele>727.0508</ele>
        <time>2014-08-26T10:16:35Z</time>
      </trkpt>
      <trkpt lat="46.3399" lon="6.53225">
        <ele>727.0508</ele>
        <time>2014-08-26T10:16:40Z</time>
      </trkpt>
      <trkpt lat="46.33989" lon="6.53231">
        <ele>727.0508</ele>
        <time>2014-08-26T10:16:45Z</time>
      </trkpt>
      <trkpt lat="46.3399" lon="6.53233">
        <ele>727.0508</ele>
        <time>2014-08-26T10:16:50Z</time>
      </trkpt>
      <trkpt lat="46.3399" lon="6.53241">
        <ele>727.9847</ele>
        <time>2014-08-26T10:16:55Z</time>
      </trkpt>
      <trkpt lat="46.33989" lon="6.53246">
        <ele>727.9847</ele>
        <time>2014-08-26T10:17:00Z</time>
      </trkpt>
      <trkpt lat="46.33988" lon="6.53253">
        <ele>727.9847</ele>
        <time>2014-08-26T10:17:05Z</time>
      </trkpt>
      <trkpt lat="46.33986" lon="6.5326">
        <ele>728.74146</ele>
        <time>2014-08-26T10:17:10Z</time>
      </trkpt>
      <trkpt lat="46.33984" lon="6.53268">
        <ele>728.74146</ele>
        <time>2014-08-26T10:17:15Z</time>
      </trkpt>
      <trkpt lat="46.33982" lon="6.53276">
        <ele>729.3645</ele>
        <time>2014-08-26T10:17:20Z</time>
      </trkpt>
      <trkpt lat="46.3398" lon="6.53282">
        <ele>729.3645</ele>
        <time>2014-08-26T10:17:25Z</time>
      </trkpt>
      <trkpt lat="46.33979" lon="6.53291">
        <ele>729.8656</ele>
        <time>2014-08-26T10:17:30Z</time>
      </trkpt>
      <trkpt lat="46.33976" lon="6.53301">
        <ele>729.8656</ele>
        <time>2014-08-26T10:17:35Z</time>
      </trkpt>
      <trkpt lat="46.33973" lon="6.53308">
        <ele>730.28467</ele>
        <time>2014-08-26T10:17:40Z</time>
      </trkpt>
      <trkpt lat="46.3397" lon="6.53316">
        <ele>730.28467</ele>
        <time>2014-08-26T10:17:45Z</time>
      </trkpt>
      <trkpt lat="46.33968" lon="6.53324">
        <ele>730.6157</ele>
        <time>2014-08-26T10:17:50Z</time>
      </trkpt>
      <trkpt lat="46.33965" lon="6.53329">
        <ele>730.6157</ele>
        <time>2014-08-26T10:17:55Z</time>
      </trkpt>
      <trkpt lat="46.33962" lon="6.53334">
        <ele>730.79596</ele>
        <time>2014-08-26T10:18:00Z</time>
      </trkpt>
      <trkpt lat="46.3396" lon="6.5334">
        <ele>730.79596</ele>
        <time>2014-08-26T10:18:05Z</time>
      </trkpt>
      <trkpt lat="46.33959" lon="6.53345">
        <ele>730.79596</ele>
        <time>2014-08-26T10:18:10Z</time>
      </trkpt>
      <trkpt lat="46.33955" lon="6.53356">
        <ele>730.998</ele>
        <time>2014-08-26T10:18:15Z</time>
      </trkpt>
      <trkpt lat="46.33953" lon="6.53363">
        <ele>730.998</ele>
        <time>2014-08-26T10:18:20Z</time>
      </trkpt>
      <trkpt lat="46.33953" lon="6.53363">
        <ele>730.998</ele>
        <time>2014-08-26T10:18:25Z</time>
      </trkpt>
      <trkpt lat="46.33952" lon="6.53367">
        <ele>730.998</ele>
        <time>2014-08-26T10:18:30Z</time>
      </trkpt>
      <trkpt lat="46.33947" lon="6.53381">
        <ele>731.1079</ele>
        <time>2014-08-26T10:18:35Z</time>
      </trkpt>
      <trkpt lat="46.33945" lon="6.53389">
        <ele>731.1079</ele>
        <time>2014-08-26T10:18:40Z</time>
      </trkpt>
      <trkpt lat="46.33943" lon="6.53394">
        <ele>731.16455</ele>
        <time>2014-08-26T10:18:45Z</time>
      </trkpt>
      <trkpt lat="46.33938" lon="6.53402">
        <ele>731.16455</ele>
        <time>2014-08-26T10:18:50Z</time>
      </trkpt>
      <trkpt lat="46.33935" lon="6.53407">
        <ele>731.17505</ele>
        <time>2014-08-26T10:18:55Z</time>
      </trkpt>
      <trkpt lat="46.33931" lon="6.53415">
        <ele>731.17505</ele>
        <time>2014-08-26T10:19:00Z</time>
      </trkpt>
      <trkpt lat="46.33929" lon="6.53422">
        <ele>731.2327</ele>
        <time>2014-08-26T10:19:05Z</time>
      </trkpt>
      <trkpt lat="46.33927" lon="6.53429">
        <ele>731.2327</ele>
        <time>2014-08-26T10:19:10Z</time>
      </trkpt>
      <trkpt lat="46.33926" lon="6.53431">
        <ele>731.2327</ele>
        <time>2014-08-26T10:19:15Z</time>
      </trkpt>
      <trkpt lat="46.33923" lon="6.53441">
        <ele>731.3373</ele>
        <time>2014-08-26T10:19:20Z</time>
      </trkpt>
      <trkpt lat="46.3392" lon="6.53449">
        <ele>731.3373</ele>
        <time>2014-08-26T10:19:25Z</time>
      </trkpt>
      <trkpt lat="46.33918" lon="6.53452">
        <ele>731.4883</ele>
        <time>2014-08-26T10:19:30Z</time>
      </trkpt>
      <trkpt lat="46.33916" lon="6.53457">
        <ele>731.4883</ele>
        <time>2014-08-26T10:19:35Z</time>
      </trkpt>
      <trkpt lat="46.33913" lon="6.53467">
        <ele>731.786</ele>
        <time>2014-08-26T10:19:40Z</time>
      </trkpt>
      <trkpt lat="46.33911" lon="6.53474">
        <ele>731.786</ele>
        <time>2014-08-26T10:19:45Z</time>
      </trkpt>
      <trkpt lat="46.33908" lon="6.53482">
        <ele>732.3373</ele>
        <time>2014-08-26T10:19:50Z</time>
      </trkpt>
      <trkpt lat="46.33905" lon="6.53491">
        <ele>732.3373</ele>
        <time>2014-08-26T10:19:55Z</time>
      </trkpt>
      <trkpt lat="46.33905" lon="6.53496">
        <ele>732.85126</ele>
        <time>2014-08-26T10:20:00Z</time>
      </trkpt>
      <trkpt lat="46.33904" lon="6.53501">
        <ele>732.85126</ele>
        <time>2014-08-26T10:20:05Z</time>
      </trkpt>
      <trkpt lat="46.33901" lon="6.53506">
        <ele>732.85126</ele>
        <time>2014-08-26T10:20:10Z</time>
      </trkpt>
      <trkpt lat="46.339" lon="6.53511">
        <ele>733.38983</ele>
        <time>2014-08-26T10:20:15Z</time>
      </trkpt>
      <trkpt lat="46.33899" lon="6.53515">
        <ele>733.38983</ele>
        <time>2014-08-26T10:20:20Z</time>
      </trkpt>
      <trkpt lat="46.33897" lon="6.53524">
        <ele>733.9959</ele>
        <time>2014-08-26T10:20:25Z</time>
      </trkpt>
      <trkpt lat="46.33896" lon="6.53527">
        <ele>733.9959</ele>
        <time>2014-08-26T10:20:30Z</time>
      </trkpt>
      <trkpt lat="46.33893" lon="6.53535">
        <ele>733.9959</ele>
        <time>2014-08-26T10:20:35Z</time>
      </trkpt>
      <trkpt lat="46.3389" lon="6.53544">
        <ele>734.5649</ele>
        <time>2014-08-26T10:20:40Z</time>
      </trkpt>
      <trkpt lat="46.3389" lon="6.53548">
        <ele>734.5649</ele>
        <time>2014-08-26T10:20:45Z</time>
      </trkpt>
      <trkpt lat="46.3389" lon="6.53551">
        <ele>734.5649</ele>
        <time>2014-08-26T10:20:50Z</time>
      </trkpt>
      <trkpt lat="46.33889" lon="6.53555">
        <ele>734.5649</ele>
        <time>2014-08-26T10:20:55Z</time>
      </trkpt>
      <trkpt lat="46.33888" lon="6.53559">
        <ele>735.11505</ele>
        <time>2014-08-26T10:21:00Z</time>
      </trkpt>
      <trkpt lat="46.33889" lon="6.53566">
        <ele>735.11505</ele>
        <time>2014-08-26T10:21:05Z</time>
      </trkpt>
      <trkpt lat="46.33889" lon="6.53579">
        <ele>735.5625</ele>
        <time>2014-08-26T10:21:10Z</time>
      </trkpt>
      <trkpt lat="46.33891" lon="6.53586">
        <ele>735.5625</ele>
        <time>2014-08-26T10:21:15Z</time>
      </trkpt>
      <trkpt lat="46.33892" lon="6.53593">
        <ele>735.9451</ele>
        <time>2014-08-26T10:21:20Z</time>
      </trkpt>
      <trkpt lat="46.33895" lon="6.53605">
        <ele>736.34125</ele>
        <time>2014-08-26T10:21:25Z</time>
      </trkpt>
      <trkpt lat="46.33897" lon="6.53613">
        <ele>736.34125</ele>
        <time>2014-08-26T10:21:30Z</time>
      </trkpt>
      <trkpt lat="46.33899" lon="6.5362">
        <ele>736.8089</ele>
        <time>2014-08-26T10:21:35Z</time>
      </trkpt>
      <trkpt lat="46.33902" lon="6.53624">
        <ele>736.8089</ele>
        <time>2014-08-26T10:21:40Z</time>
      </trkpt>
      <trkpt lat="46.33905" lon="6.5363">
        <ele>737.3729</ele>
        <time>2014-08-26T10:21:45Z</time>
      </trkpt>
      <trkpt lat="46.33908" lon="6.53636">
        <ele>737.3729</ele>
        <time>2014-08-26T10:21:50Z</time>
      </trkpt>
      <trkpt lat="46.33908" lon="6.53641">
        <ele>737.3729</ele>
        <time>2014-08-26T10:21:55Z</time>
      </trkpt>
      <trkpt lat="46.33908" lon="6.53647">
        <ele>738.05585</ele>
        <time>2014-08-26T10:22:00Z</time>
      </trkpt>
      <trkpt lat="46.33909" lon="6.53652">
        <ele>738.05585</ele>
        <time>2014-08-26T10:22:05Z</time>
      </trkpt>
      <trkpt lat="46.3391" lon="6.5366">
        <ele>738.05585</ele>
        <time>2014-08-26T10:22:10Z</time>
      </trkpt>
      <trkpt lat="46.3391" lon="6.53667">
        <ele>738.7053</ele>
        <time>2014-08-26T10:22:15Z</time>
      </trkpt>
      <trkpt lat="46.3391" lon="6.53675">
        <ele>738.7053</ele>
        <time>2014-08-26T10:22:20Z</time>
      </trkpt>
      <trkpt lat="46.3391" lon="6.5368">
        <ele>738.7053</ele>
        <time>2014-08-26T10:22:25Z</time>
      </trkpt>
      <trkpt lat="46.33908" lon="6.53685">
        <ele>739.5116</ele>
        <time>2014-08-26T10:22:30Z</time>
      </trkpt>
      <trkpt lat="46.33907" lon="6.5369">
        <ele>739.5116</ele>
        <time>2014-08-26T10:22:35Z</time>
      </trkpt>
      <trkpt lat="46.33908" lon="6.53698">
        <ele>740.34796</ele>
        <time>2014-08-26T10:22:40Z</time>
      </trkpt>
      <trkpt lat="46.33908" lon="6.53706">
        <ele>740.34796</ele>
        <time>2014-08-26T10:22:45Z</time>
      </trkpt>
      <trkpt lat="46.33907" lon="6.53712">
        <ele>741.1976</ele>
        <time>2014-08-26T10:22:50Z</time>
      </trkpt>
      <trkpt lat="46.33909" lon="6.53717">
        <ele>741.1976</ele>
        <time>2014-08-26T10:22:55Z</time>
      </trkpt>
      <trkpt lat="46.33908" lon="6.53722">
        <ele>741.1976</ele>
        <time>2014-08-26T10:23:00Z</time>
      </trkpt>
      <trkpt lat="46.3391" lon="6.53728">
        <ele>742.1601</ele>
        <time>2014-08-26T10:23:05Z</time>
      </trkpt>
      <trkpt lat="46.33911" lon="6.53733">
        <ele>742.1601</ele>
        <time>2014-08-26T10:23:10Z</time>
      </trkpt>
      <trkpt lat="46.33913" lon="6.53738">
        <ele>742.1601</ele>
        <time>2014-08-26T10:23:15Z</time>
      </trkpt>
      <trkpt lat="46.33913" lon="6.53744">
        <ele>743.0682</ele>
        <time>2014-08-26T10:23:20Z</time>
      </trkpt>
      <trkpt lat="46.33912" lon="6.53752">
        <ele>743.0682</ele>
        <time>2014-08-26T10:23:25Z</time>
      </trkpt>
      <trkpt lat="46.33911" lon="6.53759">
        <ele>743.9542</ele>
        <time>2014-08-26T10:23:30Z</time>
      </trkpt>
      <trkpt lat="46.33911" lon="6.53764">
        <ele>743.9542</ele>
        <time>2014-08-26T10:23:35Z</time>
      </trkpt>
      <trkpt lat="46.33911" lon="6.53768">
        <ele>743.9542</ele>
        <time>2014-08-26T10:23:40Z</time>
      </trkpt>
      <trkpt lat="46.33913" lon="6.53774">
        <ele>744.9203</ele>
        <time>2014-08-26T10:23:45Z</time>
      </trkpt>
      <trkpt lat="46.33915" lon="6.53776">
        <ele>744.9203</ele>
        <time>2014-08-26T10:23:50Z</time>
      </trkpt>
      <trkpt lat="46.33914" lon="6.5378">
        <ele>744.9203</ele>
        <time>2014-08-26T10:23:55Z</time>
      </trkpt>
      <trkpt lat="46.33913" lon="6.53801">
        <ele>746.003</ele>
        <time>2014-08-26T10:24:00Z</time>
      </trkpt>
      <trkpt lat="46.33914" lon="6.53808">
        <ele>746.003</ele>
        <time>2014-08-26T10:24:05Z</time>
      </trkpt>
      <trkpt lat="46.33914" lon="6.53814">
        <ele>747.2792</ele>
        <time>2014-08-26T10:24:10Z</time>
      </trkpt>
      <trkpt lat="46.33917" lon="6.53822">
        <ele>747.2792</ele>
        <time>2014-08-26T10:24:15Z</time>
      </trkpt>
      <trkpt lat="46.33922" lon="6.5383">
        <ele>748.74756</ele>
        <time>2014-08-26T10:24:20Z</time>
      </trkpt>
      <trkpt lat="46.33923" lon="6.53836">
        <ele>748.74756</ele>
        <time>2014-08-26T10:24:25Z</time>
      </trkpt>
      <trkpt lat="46.33925" lon="6.53842">
        <ele>748.74756</ele>
        <time>2014-08-26T10:24:30Z</time>
      </trkpt>
      <trkpt lat="46.33926" lon="6.53846">
        <ele>750.4062</ele>
        <time>2014-08-26T10:24:35Z</time>
      </trkpt>
      <trkpt lat="46.33928" lon="6.5385">
        <ele>750.4062</ele>
        <time>2014-08-26T10:24:40Z</time>
      </trkpt>
      <trkpt lat="46.33929" lon="6.53857">
        <ele>750.4062</ele>
        <time>2014-08-26T10:24:45Z</time>
      </trkpt>
      <trkpt lat="46.33929" lon="6.53864">
        <ele>752.20966</ele>
        <time>2014-08-26T10:24:50Z</time>
      </trkpt>
      <trkpt lat="46.33929" lon="6.53872">
        <ele>752.20966</ele>
        <time>2014-08-26T10:24:55Z</time>
      </trkpt>
      <trkpt lat="46.33929" lon="6.53879">
        <ele>753.98566</ele>
        <time>2014-08-26T10:25:00Z</time>
      </trkpt>
      <trkpt lat="46.3393" lon="6.53885">
        <ele>753.98566</ele>
        <time>2014-08-26T10:25:05Z</time>
      </trkpt>
      <trkpt lat="46.3393" lon="6.5389">
        <ele>753.98566</ele>
        <time>2014-08-26T10:25:10Z</time>
      </trkpt>
      <trkpt lat="46.33928" lon="6.53895">
        <ele>755.7765</ele>
        <time>2014-08-26T10:25:15Z</time>
      </trkpt>
      <trkpt lat="46.33932" lon="6.53906">
        <ele>755.7765</ele>
        <time>2014-08-26T10:25:20Z</time>
      </trkpt>
      <trkpt lat="46.33935" lon="6.53913">
        <ele>757.4771</ele>
        <time>2014-08-26T10:25:25Z</time>
      </trkpt>
      <trkpt lat="46.33939" lon="6.53919">
        <ele>757.4771</ele>
        <time>2014-08-26T10:25:30Z</time>
      </trkpt>
      <trkpt lat="46.3394" lon="6.53925">
        <ele>759.2212</ele>
        <time>2014-08-26T10:25:35Z</time>
      </trkpt>
      <trkpt lat="46.33945" lon="6.5393">
        <ele>759.2212</ele>
        <time>2014-08-26T10:25:40Z</time>
      </trkpt>
      <trkpt lat="46.33947" lon="6.53935">
        <ele>760.94495</ele>
        <time>2014-08-26T10:25:45Z</time>
      </trkpt>
      <trkpt lat="46.33954" lon="6.53943">
        <ele>760.94495</ele>
        <time>2014-08-26T10:25:50Z</time>
      </trkpt>
      <trkpt lat="46.33954" lon="6.5395">
        <ele>762.5464</ele>
        <time>2014-08-26T10:25:55Z</time>
      </trkpt>
      <trkpt lat="46.33955" lon="6.53954">
        <ele>762.5464</ele>
        <time>2014-08-26T10:26:00Z</time>
      </trkpt>
      <trkpt lat="46.33955" lon="6.53964">
        <ele>764.04645</ele>
        <time>2014-08-26T10:26:05Z</time>
      </trkpt>
      <trkpt lat="46.33957" lon="6.53969">
        <ele>764.04645</ele>
        <time>2014-08-26T10:26:10Z</time>
      </trkpt>
      <trkpt lat="46.3396" lon="6.53976">
        <ele>765.4363</ele>
        <time>2014-08-26T10:26:15Z</time>
      </trkpt>
      <trkpt lat="46.33962" lon="6.53981">
        <ele>765.4363</ele>
        <time>2014-08-26T10:26:20Z</time>
      </trkpt>
      <trkpt lat="46.33964" lon="6.5399">
        <ele>766.75104</ele>
        <time>2014-08-26T10:26:25Z</time>
      </trkpt>
      <trkpt lat="46.33965" lon="6.53996">
        <ele>766.75104</ele>
        <time>2014-08-26T10:26:30Z</time>
      </trkpt>
      <trkpt lat="46.33966" lon="6.54001">
        <ele>766.75104</ele>
        <time>2014-08-26T10:26:35Z</time>
      </trkpt>
      <trkpt lat="46.33966" lon="6.54005">
        <ele>768.08136</ele>
        <time>2014-08-26T10:26:40Z</time>
      </trkpt>
      <trkpt lat="46.33964" lon="6.54013">
        <ele>768.08136</ele>
        <time>2014-08-26T10:26:45Z</time>
      </trkpt>
      <trkpt lat="46.33965" lon="6.5402">
        <ele>769.25183</ele>
        <time>2014-08-26T10:26:50Z</time>
      </trkpt>
      <trkpt lat="46.33966" lon="6.54026">
        <ele>769.25183</ele>
        <time>2014-08-26T10:26:55Z</time>
      </trkpt>
      <trkpt lat="46.33967" lon="6.54031">
        <ele>769.25183</ele>
        <time>2014-08-26T10:27:00Z</time>
      </trkpt>
      <trkpt lat="46.33968" lon="6.54035">
        <ele>770.27325</ele>
        <time>2014-08-26T10:27:05Z</time>
      </trkpt>
      <trkpt lat="46.33966" lon="6.54046">
        <ele>770.27325</ele>
        <time>2014-08-26T10:27:10Z</time>
      </trkpt>
      <trkpt lat="46.33964" lon="6.54053">
        <ele>771.0697</ele>
        <time>2014-08-26T10:27:15Z</time>
      </trkpt>
      <trkpt lat="46.33961" lon="6.54068">
        <ele>771.73004</ele>
        <time>2014-08-26T10:27:20Z</time>
      </trkpt>
      <trkpt lat="46.33958" lon="6.54076">
        <ele>771.73004</ele>
        <time>2014-08-26T10:27:25Z</time>
      </trkpt>
      <trkpt lat="46.33957" lon="6.54082">
        <ele>772.30817</ele>
        <time>2014-08-26T10:27:30Z</time>
      </trkpt>
      <trkpt lat="46.33955" lon="6.54091">
        <ele>772.30817</ele>
        <time>2014-08-26T10:27:35Z</time>
      </trkpt>
      <trkpt lat="46.33954" lon="6.54095">
        <ele>772.8832</ele>
        <time>2014-08-26T10:27:40Z</time>
      </trkpt>
      <trkpt lat="46.33954" lon="6.54101">
        <ele>772.8832</ele>
        <time>2014-08-26T10:27:45Z</time>
      </trkpt>
      <trkpt lat="46.33953" lon="6.54104">
        <ele>772.8832</ele>
        <time>2014-08-26T10:27:50Z</time>
      </trkpt>
      <trkpt lat="46.33951" lon="6.54114">
        <ele>773.60034</ele>
        <time>2014-08-26T10:27:55Z</time>
      </trkpt>
      <trkpt lat="46.33949" lon="6.54124">
        <ele>773.60034</ele>
        <time>2014-08-26T10:28:00Z</time>
      </trkpt>
      <trkpt lat="46.33948" lon="6.54129">
        <ele>774.5364</ele>
        <time>2014-08-26T10:28:05Z</time>
      </trkpt>
      <trkpt lat="46.33946" lon="6.54135">
        <ele>774.5364</ele>
        <time>2014-08-26T10:28:10Z</time>
      </trkpt>
      <trkpt lat="46.33943" lon="6.54145">
        <ele>775.5312</ele>
        <time>2014-08-26T10:28:15Z</time>
      </trkpt>
      <trkpt lat="46.33944" lon="6.54154">
        <ele>775.5312</ele>
        <time>2014-08-26T10:28:20Z</time>
      </trkpt>
      <trkpt lat="46.33943" lon="6.54158">
        <ele>775.5312</ele>
        <time>2014-08-26T10:28:25Z</time>
      </trkpt>
      <trkpt lat="46.33943" lon="6.5416">
        <ele>776.4217</ele>
        <time>2014-08-26T10:28:30Z</time>
      </trkpt>
      <trkpt lat="46.3394" lon="6.54165">
        <ele>776.4217</ele>
        <time>2014-08-26T10:28:35Z</time>
      </trkpt>
      <trkpt lat="46.33937" lon="6.54172">
        <ele>777.2879</ele>
        <time>2014-08-26T10:28:40Z</time>
      </trkpt>
      <trkpt lat="46.33939" lon="6.54188">
        <ele>778.0743</ele>
        <time>2014-08-26T10:28:45Z</time>
      </trkpt>
      <trkpt lat="46.33938" lon="6.54192">
        <ele>778.0743</ele>
        <time>2014-08-26T10:28:50Z</time>
      </trkpt>
      <trkpt lat="46.3394" lon="6.54209">
        <ele>778.8304</ele>
        <time>2014-08-26T10:28:55Z</time>
      </trkpt>
      <trkpt lat="46.33939" lon="6.5422">
        <ele>778.8304</ele>
        <time>2014-08-26T10:29:00Z</time>
      </trkpt>
      <trkpt lat="46.33938" lon="6.5423">
        <ele>779.7321</ele>
        <time>2014-08-26T10:29:05Z</time>
      </trkpt>
      <trkpt lat="46.33938" lon="6.54235">
        <ele>779.7321</ele>
        <time>2014-08-26T10:29:10Z</time>
      </trkpt>
      <trkpt lat="46.33938" lon="6.54242">
        <ele>779.7321</ele>
        <time>2014-08-26T10:29:15Z</time>
      </trkpt>
      <trkpt lat="46.33936" lon="6.54246">
        <ele>780.86975</ele>
        <time>2014-08-26T10:29:20Z</time>
      </trkpt>
      <trkpt lat="46.33936" lon="6.54255">
        <ele>780.86975</ele>
        <time>2014-08-26T10:29:25Z</time>
      </trkpt>
      <trkpt lat="46.33936" lon="6.54259">
        <ele>782.2833</ele>
        <time>2014-08-26T10:29:30Z</time>
      </trkpt>
      <trkpt lat="46.33935" lon="6.5426">
        <ele>782.2833</ele>
        <time>2014-08-26T10:29:35Z</time>
      </trkpt>
      <trkpt lat="46.33932" lon="6.54271">
        <ele>783.6054</ele>
        <time>2014-08-26T10:29:40Z</time>
      </trkpt>
      <trkpt lat="46.33932" lon="6.54279">
        <ele>783.6054</ele>
        <time>2014-08-26T10:29:45Z</time>
      </trkpt>
      <trkpt lat="46.33931" lon="6.5428">
        <ele>783.6054</ele>
        <time>2014-08-26T10:29:50Z</time>
      </trkpt>
      <trkpt lat="46.33931" lon="6.54286">
        <ele>784.42395</ele>
        <time>2014-08-26T10:29:55Z</time>
      </trkpt>
      <trkpt lat="46.33931" lon="6.54294">
        <ele>784.42395</ele>
        <time>2014-08-26T10:30:00Z</time>
      </trkpt>
      <trkpt lat="46.3393" lon="6.54297">
        <ele>784.42395</ele>
        <time>2014-08-26T10:30:05Z</time>
      </trkpt>
      <trkpt lat="46.3393" lon="6.54308">
        <ele>784.8053</ele>
        <time>2014-08-26T10:30:10Z</time>
      </trkpt>
      <trkpt lat="46.33935" lon="6.54314">
        <ele>784.8053</ele>
        <time>2014-08-26T10:30:15Z</time>
      </trkpt>
      <trkpt lat="46.33943" lon="6.54324">
        <ele>785.2012</ele>
        <time>2014-08-26T10:30:20Z</time>
      </trkpt>
      <trkpt lat="46.33948" lon="6.54335">
        <ele>785.59784</ele>
        <time>2014-08-26T10:30:25Z</time>
      </trkpt>
      <trkpt lat="46.33953" lon="6.54341">
        <ele>785.59784</ele>
        <time>2014-08-26T10:30:30Z</time>
      </trkpt>
      <trkpt lat="46.33957" lon="6.54349">
        <ele>786.2419</ele>
        <time>2014-08-26T10:30:35Z</time>
      </trkpt>
      <trkpt lat="46.33961" lon="6.54361">
        <ele>786.97217</ele>
        <time>2014-08-26T10:30:40Z</time>
      </trkpt>
      <trkpt lat="46.33961" lon="6.54365">
        <ele>786.97217</ele>
        <time>2014-08-26T10:30:45Z</time>
      </trkpt>
      <trkpt lat="46.33962" lon="6.54372">
        <ele>786.97217</ele>
        <time>2014-08-26T10:30:50Z</time>
      </trkpt>
      <trkpt lat="46.33962" lon="6.54381">
        <ele>788.25854</ele>
        <time>2014-08-26T10:30:55Z</time>
      </trkpt>
      <trkpt lat="46.33962" lon="6.5439">
        <ele>788.25854</ele>
        <time>2014-08-26T10:31:00Z</time>
      </trkpt>
      <trkpt lat="46.3396" lon="6.54397">
        <ele>789.48303</ele>
        <time>2014-08-26T10:31:05Z</time>
      </trkpt>
      <trkpt lat="46.33958" lon="6.54401">
        <ele>789.48303</ele>
        <time>2014-08-26T10:31:10Z</time>
      </trkpt>
      <trkpt lat="46.33958" lon="6.54403">
        <ele>789.48303</ele>
        <time>2014-08-26T10:31:15Z</time>
      </trkpt>
      <trkpt lat="46.33959" lon="6.54407">
        <ele>789.48303</ele>
        <time>2014-08-26T10:31:20Z</time>
      </trkpt>
      <trkpt lat="46.33956" lon="6.54416">
        <ele>790.6206</ele>
        <time>2014-08-26T10:31:25Z</time>
      </trkpt>
      <trkpt lat="46.33955" lon="6.54422">
        <ele>790.6206</ele>
        <time>2014-08-26T10:31:30Z</time>
      </trkpt>
      <trkpt lat="46.33955" lon="6.54426">
        <ele>790.6206</ele>
        <time>2014-08-26T10:31:35Z</time>
      </trkpt>
      <trkpt lat="46.33952" lon="6.54433">
        <ele>791.5188</ele>
        <time>2014-08-26T10:31:40Z</time>
      </trkpt>
      <trkpt lat="46.33949" lon="6.54442">
        <ele>791.5188</ele>
        <time>2014-08-26T10:31:45Z</time>
      </trkpt>
      <trkpt lat="46.33946" lon="6.54449">
        <ele>792.2675</ele>
        <time>2014-08-26T10:31:50Z</time>
      </trkpt>
      <trkpt lat="46.33941" lon="6.54453">
        <ele>792.2675</ele>
        <time>2014-08-26T10:31:55Z</time>
      </trkpt>
      <trkpt lat="46.33939" lon="6.54458">
        <ele>792.82074</ele>
        <time>2014-08-26T10:32:00Z</time>
      </trkpt>
      <trkpt lat="46.33932" lon="6.54466">
        <ele>792.82074</ele>
        <time>2014-08-26T10:32:05Z</time>
      </trkpt>
      <trkpt lat="46.33922" lon="6.54472">
        <ele>793.0067</ele>
        <time>2014-08-26T10:32:10Z</time>
      </trkpt>
      <trkpt lat="46.3392" lon="6.54472">
        <ele>793.0067</ele>
        <time>2014-08-26T10:32:15Z</time>
      </trkpt>
      <trkpt lat="46.33915" lon="6.54476">
        <ele>793.0067</ele>
        <time>2014-08-26T10:32:20Z</time>
      </trkpt>
      <trkpt lat="46.33911" lon="6.54481">
        <ele>792.91235</ele>
        <time>2014-08-26T10:32:25Z</time>
      </trkpt>
      <trkpt lat="46.33909" lon="6.54482">
        <ele>792.91235</ele>
        <time>2014-08-26T10:32:30Z</time>
      </trkpt>
      <trkpt lat="46.33902" lon="6.54486">
        <ele>792.9359</ele>
        <time>2014-08-26T10:32:35Z</time>
      </trkpt>
      <trkpt lat="46.33902" lon="6.54487">
        <ele>792.9359</ele>
        <time>2014-08-26T10:32:40Z</time>
      </trkpt>
      <trkpt lat="46.33898" lon="6.54489">
        <ele>792.9359</ele>
        <time>2014-08-26T10:32:45Z</time>
      </trkpt>
      <trkpt lat="46.33894" lon="6.54492">
        <ele>793.1867</ele>
        <time>2014-08-26T10:32:50Z</time>
      </trkpt>
      <trkpt lat="46.33894" lon="6.54492">
        <ele>793.1867</ele>
        <time>2014-08-26T10:32:55Z</time>
      </trkpt>
      <trkpt lat="46.33889" lon="6.54493">
        <ele>793.1867</ele>
        <time>2014-08-26T10:33:10Z</time>
      </trkpt>
      <trkpt lat="46.33888" lon="6.54494">
        <ele>793.1867</ele>
        <time>2014-08-26T10:33:15Z</time>
      </trkpt>
      <trkpt lat="46.33882" lon="6.54499">
        <ele>793.4915</ele>
        <time>2014-08-26T10:33:20Z</time>
      </trkpt>
      <trkpt lat="46.33876" lon="6.54503">
        <ele>793.4915</ele>
        <time>2014-08-26T10:33:25Z</time>
      </trkpt>
      <trkpt lat="46.33866" lon="6.54504">
        <ele>794.16516</ele>
        <time>2014-08-26T10:33:30Z</time>
      </trkpt>
      <trkpt lat="46.33866" lon="6.54504">
        <ele>794.16516</ele>
        <time>2014-08-26T10:33:35Z</time>
      </trkpt>
      <trkpt lat="46.33857" lon="6.54515">
        <ele>795.1814</ele>
        <time>2014-08-26T10:33:40Z</time>
      </trkpt>
      <trkpt lat="46.33848" lon="6.54525">
        <ele>796.0968</ele>
        <time>2014-08-26T10:33:45Z</time>
      </trkpt>
      <trkpt lat="46.33848" lon="6.54525">
        <ele>796.0968</ele>
        <time>2014-08-26T10:33:50Z</time>
      </trkpt>
      <trkpt lat="46.33846" lon="6.54527">
        <ele>796.0968</ele>
        <time>2014-08-26T10:33:55Z</time>
      </trkpt>
      <trkpt lat="46.33846" lon="6.54527">
        <ele>796.0968</ele>
        <time>2014-08-26T10:34:00Z</time>
      </trkpt>
      <trkpt lat="46.33839" lon="6.5453">
        <ele>796.8612</ele>
        <time>2014-08-26T10:34:05Z</time>
      </trkpt>
      <trkpt lat="46.33829" lon="6.5454">
        <ele>797.4284</ele>
        <time>2014-08-26T10:34:10Z</time>
      </trkpt>
      <trkpt lat="46.33822" lon="6.54538">
        <ele>797.4284</ele>
        <time>2014-08-26T10:34:15Z</time>
      </trkpt>
      <trkpt lat="46.33821" lon="6.54539">
        <ele>797.4284</ele>
        <time>2014-08-26T10:34:20Z</time>
      </trkpt>
      <trkpt lat="46.33816" lon="6.54542">
        <ele>797.74176</ele>
        <time>2014-08-26T10:34:25Z</time>
      </trkpt>
      <trkpt lat="46.33813" lon="6.54545">
        <ele>797.74176</ele>
        <time>2014-08-26T10:34:30Z</time>
      </trkpt>
      <trkpt lat="46.33811" lon="6.54546">
        <ele>797.74176</ele>
        <time>2014-08-26T10:34:35Z</time>
      </trkpt>
      <trkpt lat="46.33808" lon="6.54547">
        <ele>797.74176</ele>
        <time>2014-08-26T10:34:40Z</time>
      </trkpt>
      <trkpt lat="46.33806" lon="6.54549">
        <ele>798.2827</ele>
        <time>2014-08-26T10:34:45Z</time>
      </trkpt>
      <trkpt lat="46.33805" lon="6.5455">
        <ele>798.2827</ele>
        <time>2014-08-26T10:34:50Z</time>
      </trkpt>
      <trkpt lat="46.33801" lon="6.54554">
        <ele>798.2827</ele>
        <time>2014-08-26T10:34:55Z</time>
      </trkpt>
      <trkpt lat="46.33801" lon="6.54554">
        <ele>798.2827</ele>
        <time>2014-08-26T10:35:00Z</time>
      </trkpt>
      <trkpt lat="46.33796" lon="6.54553">
        <ele>799.266</ele>
        <time>2014-08-26T10:35:25Z</time>
      </trkpt>
      <trkpt lat="46.33781" lon="6.54564">
        <ele>800.2985</ele>
        <time>2014-08-26T10:35:30Z</time>
      </trkpt>
      <trkpt lat="46.33781" lon="6.54564">
        <ele>800.2985</ele>
        <time>2014-08-26T10:35:35Z</time>
      </trkpt>
      <trkpt lat="46.33781" lon="6.54564">
        <ele>800.2985</ele>
        <time>2014-08-26T10:35:40Z</time>
      </trkpt>
      <trkpt lat="46.33781" lon="6.54564">
        <ele>800.2985</ele>
        <time>2014-08-26T10:35:55Z</time>
      </trkpt>
      <trkpt lat="46.33781" lon="6.54564">
        <ele>800.2985</ele>
        <time>2014-08-26T10:36:00Z</time>
      </trkpt>
      <trkpt lat="46.33781" lon="6.54564">
        <ele>800.2985</ele>
        <time>2014-08-26T10:36:05Z</time>
      </trkpt>
      <trkpt lat="46.33781" lon="6.54563">
        <ele>800.2985</ele>
        <time>2014-08-26T10:36:10Z</time>
      </trkpt>
      <trkpt lat="46.33781" lon="6.54563">
        <ele>800.2985</ele>
        <time>2014-08-26T10:36:15Z</time>
      </trkpt>
      <trkpt lat="46.33781" lon="6.54563">
        <ele>800.2985</ele>
        <time>2014-08-26T10:36:30Z</time>
      </trkpt>
      <trkpt lat="46.33781" lon="6.54563">
        <ele>800.2985</ele>
        <time>2014-08-26T10:36:35Z</time>
      </trkpt>
      <trkpt lat="46.3378" lon="6.54563">
        <ele>800.2985</ele>
        <time>2014-08-26T10:36:40Z</time>
      </trkpt>
      <trkpt lat="46.3378" lon="6.54563">
        <ele>800.2985</ele>
        <time>2014-08-26T10:36:45Z</time>
      </trkpt>
      <trkpt lat="46.3378" lon="6.54565">
        <ele>800.2985</ele>
        <time>2014-08-26T10:37:25Z</time>
      </trkpt>
      <trkpt lat="46.33778" lon="6.54565">
        <ele>800.2985</ele>
        <time>2014-08-26T10:37:30Z</time>
      </trkpt>
      <trkpt lat="46.33778" lon="6.54567">
        <ele>800.2985</ele>
        <time>2014-08-26T10:37:35Z</time>
      </trkpt>
      <trkpt lat="46.33778" lon="6.54567">
        <ele>800.2985</ele>
        <time>2014-08-26T10:37:40Z</time>
      </trkpt>
      <trkpt lat="46.33777" lon="6.54568">
        <ele>800.2985</ele>
        <time>2014-08-26T10:37:50Z</time>
      </trkpt>
      <trkpt lat="46.33777" lon="6.54567">
        <ele>804.1287</ele>
        <time>2014-08-26T10:38:40Z</time>
      </trkpt>
      <trkpt lat="46.33777" lon="6.54566">
        <ele>804.1287</ele>
        <time>2014-08-26T10:38:45Z</time>
      </trkpt>
      <trkpt lat="46.33777" lon="6.54566">
        <ele>804.1287</ele>
        <time>2014-08-26T10:38:50Z</time>
      </trkpt>
      <trkpt lat="46.33777" lon="6.54566">
        <ele>804.1287</ele>
        <time>2014-08-26T10:38:55Z</time>
      </trkpt>
      <trkpt lat="46.33777" lon="6.54566">
        <ele>804.1287</ele>
        <time>2014-08-26T10:39:00Z</time>
      </trkpt>
      <trkpt lat="46.33777" lon="6.54566">
        <ele>804.1287</ele>
        <time>2014-08-26T10:39:05Z</time>
      </trkpt>
      <trkpt lat="46.33777" lon="6.54565">
        <ele>804.1287</ele>
        <time>2014-08-26T10:39:10Z</time>
      </trkpt>
      <trkpt lat="46.33777" lon="6.54565">
        <ele>804.1287</ele>
        <time>2014-08-26T10:39:15Z</time>
      </trkpt>
      <trkpt lat="46.33776" lon="6.54564">
        <ele>804.1287</ele>
        <time>2014-08-26T10:39:25Z</time>
      </trkpt>
      <trkpt lat="46.33776" lon="6.54564">
        <ele>804.1287</ele>
        <time>2014-08-26T10:39:30Z</time>
      </trkpt>
      <trkpt lat="46.33773" lon="6.54566">
        <ele>804.1287</ele>
        <time>2014-08-26T10:39:35Z</time>
      </trkpt>
      <trkpt lat="46.33765" lon="6.54567">
        <ele>807.3002</ele>
        <time>2014-08-26T10:39:40Z</time>
      </trkpt>
      <trkpt lat="46.33765" lon="6.54568">
        <ele>807.3002</ele>
        <time>2014-08-26T10:39:45Z</time>
      </trkpt>
      <trkpt lat="46.3376" lon="6.54574">
        <ele>807.3002</ele>
        <time>2014-08-26T10:39:50Z</time>
      </trkpt>
      <trkpt lat="46.33759" lon="6.54576">
        <ele>809.4657</ele>
        <time>2014-08-26T10:39:55Z</time>
      </trkpt>
      <trkpt lat="46.33753" lon="6.54589">
        <ele>811.2863</ele>
        <time>2014-08-26T10:40:00Z</time>
      </trkpt>
      <trkpt lat="46.33755" lon="6.54604">
        <ele>812.92883</ele>
        <time>2014-08-26T10:40:05Z</time>
      </trkpt>
      <trkpt lat="46.33756" lon="6.54607">
        <ele>812.92883</ele>
        <time>2014-08-26T10:40:10Z</time>
      </trkpt>
      <trkpt lat="46.33756" lon="6.54619">
        <ele>814.66364</ele>
        <time>2014-08-26T10:40:15Z</time>
      </trkpt>
      <trkpt lat="46.33754" lon="6.5464">
        <ele>816.23645</ele>
        <time>2014-08-26T10:40:20Z</time>
      </trkpt>
      <trkpt lat="46.33757" lon="6.54652">
        <ele>816.23645</ele>
        <time>2014-08-26T10:40:25Z</time>
      </trkpt>
      <trkpt lat="46.33759" lon="6.54661">
        <ele>817.6142</ele>
        <time>2014-08-26T10:40:30Z</time>
      </trkpt>
      <trkpt lat="46.33759" lon="6.54661">
        <ele>817.6142</ele>
        <time>2014-08-26T10:40:35Z</time>
      </trkpt>
      <trkpt lat="46.33759" lon="6.5466">
        <ele>817.6142</ele>
        <time>2014-08-26T10:41:10Z</time>
      </trkpt>
      <trkpt lat="46.33757" lon="6.54665">
        <ele>817.6142</ele>
        <time>2014-08-26T10:41:15Z</time>
      </trkpt>
      <trkpt lat="46.33753" lon="6.54674">
        <ele>818.36316</ele>
        <time>2014-08-26T10:41:20Z</time>
      </trkpt>
      <trkpt lat="46.3375" lon="6.5468">
        <ele>818.36316</ele>
        <time>2014-08-26T10:41:25Z</time>
      </trkpt>
      <trkpt lat="46.3375" lon="6.5468">
        <ele>818.36316</ele>
        <time>2014-08-26T10:41:30Z</time>
      </trkpt>
      <trkpt lat="46.3375" lon="6.54683">
        <ele>818.36316</ele>
        <time>2014-08-26T10:41:35Z</time>
      </trkpt>
      <trkpt lat="46.3375" lon="6.54687">
        <ele>818.8183</ele>
        <time>2014-08-26T10:41:40Z</time>
      </trkpt>
      <trkpt lat="46.3375" lon="6.54688">
        <ele>818.8183</ele>
        <time>2014-08-26T10:41:45Z</time>
      </trkpt>
      <trkpt lat="46.3375" lon="6.54695">
        <ele>818.8183</ele>
        <time>2014-08-26T10:41:50Z</time>
      </trkpt>
      <trkpt lat="46.33752" lon="6.54699">
        <ele>818.9593</ele>
        <time>2014-08-26T10:41:55Z</time>
      </trkpt>
      <trkpt lat="46.33756" lon="6.54707">
        <ele>818.9593</ele>
        <time>2014-08-26T10:42:00Z</time>
      </trkpt>
      <trkpt lat="46.3376" lon="6.54724">
        <ele>818.9557</ele>
        <time>2014-08-26T10:42:05Z</time>
      </trkpt>
      <trkpt lat="46.3376" lon="6.5473">
        <ele>818.9557</ele>
        <time>2014-08-26T10:42:10Z</time>
      </trkpt>
      <trkpt lat="46.33761" lon="6.54736">
        <ele>818.9557</ele>
        <time>2014-08-26T10:42:15Z</time>
      </trkpt>
      <trkpt lat="46.33759" lon="6.54746">
        <ele>819.06586</ele>
        <time>2014-08-26T10:42:20Z</time>
      </trkpt>
      <trkpt lat="46.3376" lon="6.54757">
        <ele>819.06586</ele>
        <time>2014-08-26T10:42:25Z</time>
      </trkpt>
      <trkpt lat="46.3376" lon="6.54776">
        <ele>819.4279</ele>
        <time>2014-08-26T10:42:30Z</time>
      </trkpt>
      <trkpt lat="46.33759" lon="6.54777">
        <ele>819.4279</ele>
        <time>2014-08-26T10:42:35Z</time>
      </trkpt>
      <trkpt lat="46.33762" lon="6.54782">
        <ele>819.4279</ele>
        <time>2014-08-26T10:42:40Z</time>
      </trkpt>
      <trkpt lat="46.33764" lon="6.54788">
        <ele>819.6217</ele>
        <time>2014-08-26T10:42:45Z</time>
      </trkpt>
      <trkpt lat="46.33764" lon="6.54798">
        <ele>819.6217</ele>
        <time>2014-08-26T10:42:50Z</time>
      </trkpt>
      <trkpt lat="46.33766" lon="6.54801">
        <ele>819.1861</ele>
        <time>2014-08-26T10:42:55Z</time>
      </trkpt>
      <trkpt lat="46.33767" lon="6.54802">
        <ele>819.1861</ele>
        <time>2014-08-26T10:43:00Z</time>
      </trkpt>
      <trkpt lat="46.33769" lon="6.54808">
        <ele>819.1861</ele>
        <time>2014-08-26T10:43:05Z</time>
      </trkpt>
      <trkpt lat="46.33769" lon="6.54823">
        <ele>817.7823</ele>
        <time>2014-08-26T10:43:10Z</time>
      </trkpt>
      <trkpt lat="46.33766" lon="6.5483">
        <ele>817.7823</ele>
        <time>2014-08-26T10:43:15Z</time>
      </trkpt>
      <trkpt lat="46.33764" lon="6.54833">
        <ele>817.7823</ele>
        <time>2014-08-26T10:43:20Z</time>
      </trkpt>
      <trkpt lat="46.33762" lon="6.54834">
        <ele>815.90594</ele>
        <time>2014-08-26T10:43:25Z</time>
      </trkpt>
      <trkpt lat="46.33759" lon="6.54842">
        <ele>815.90594</ele>
        <time>2014-08-26T10:43:30Z</time>
      </trkpt>
      <trkpt lat="46.33757" lon="6.54846">
        <ele>813.67175</ele>
        <time>2014-08-26T10:43:35Z</time>
      </trkpt>
      <trkpt lat="46.33755" lon="6.54853">
        <ele>813.67175</ele>
        <time>2014-08-26T10:43:40Z</time>
      </trkpt>
      <trkpt lat="46.33753" lon="6.54859">
        <ele>811.2446</ele>
        <time>2014-08-26T10:43:45Z</time>
      </trkpt>
      <trkpt lat="46.33749" lon="6.54863">
        <ele>811.2446</ele>
        <time>2014-08-26T10:43:50Z</time>
      </trkpt>
      <trkpt lat="46.33747" lon="6.54869">
        <ele>808.63367</ele>
        <time>2014-08-26T10:43:55Z</time>
      </trkpt>
      <trkpt lat="46.33745" lon="6.5487">
        <ele>808.63367</ele>
        <time>2014-08-26T10:44:00Z</time>
      </trkpt>
      <trkpt lat="46.33745" lon="6.54871">
        <ele>808.63367</ele>
        <time>2014-08-26T10:44:05Z</time>
      </trkpt>
      <trkpt lat="46.33745" lon="6.54871">
        <ele>808.63367</ele>
        <time>2014-08-26T10:44:10Z</time>
      </trkpt>
      <trkpt lat="46.3374" lon="6.5487">
        <ele>808.63367</ele>
        <time>2014-08-26T10:44:15Z</time>
      </trkpt>
      <trkpt lat="46.33739" lon="6.54871">
        <ele>808.63367</ele>
        <time>2014-08-26T10:44:20Z</time>
      </trkpt>
      <trkpt lat="46.3373" lon="6.54885">
        <ele>805.4442</ele>
        <time>2014-08-26T10:44:25Z</time>
      </trkpt>
      <trkpt lat="46.33717" lon="6.54901">
        <ele>802.42175</ele>
        <time>2014-08-26T10:44:30Z</time>
      </trkpt>
      <trkpt lat="46.33707" lon="6.54912">
        <ele>799.7088</ele>
        <time>2014-08-26T10:44:35Z</time>
      </trkpt>
      <trkpt lat="46.33698" lon="6.54924">
        <ele>797.33545</ele>
        <time>2014-08-26T10:44:40Z</time>
      </trkpt>
      <trkpt lat="46.33694" lon="6.54928">
        <ele>797.33545</ele>
        <time>2014-08-26T10:44:45Z</time>
      </trkpt>
      <trkpt lat="46.33689" lon="6.54939">
        <ele>795.38605</ele>
        <time>2014-08-26T10:44:50Z</time>
      </trkpt>
      <trkpt lat="46.33688" lon="6.5494">
        <ele>795.38605</ele>
        <time>2014-08-26T10:44:55Z</time>
      </trkpt>
      <trkpt lat="46.33685" lon="6.54948">
        <ele>795.38605</ele>
        <time>2014-08-26T10:45:00Z</time>
      </trkpt>
      <trkpt lat="46.33679" lon="6.5496">
        <ele>794.096</ele>
        <time>2014-08-26T10:45:05Z</time>
      </trkpt>
      <trkpt lat="46.33674" lon="6.54966">
        <ele>794.096</ele>
        <time>2014-08-26T10:45:10Z</time>
      </trkpt>
      <trkpt lat="46.33673" lon="6.54968">
        <ele>794.096</ele>
        <time>2014-08-26T10:45:15Z</time>
      </trkpt>
      <trkpt lat="46.33671" lon="6.54976">
        <ele>792.93195</ele>
        <time>2014-08-26T10:45:20Z</time>
      </trkpt>
      <trkpt lat="46.33668" lon="6.54987">
        <ele>792.93195</ele>
        <time>2014-08-26T10:45:25Z</time>
      </trkpt>
      <trkpt lat="46.3366" lon="6.54995">
        <ele>791.8026</ele>
        <time>2014-08-26T10:45:30Z</time>
      </trkpt>
      <trkpt lat="46.33658" lon="6.55002">
        <ele>791.8026</ele>
        <time>2014-08-26T10:45:35Z</time>
      </trkpt>
      <trkpt lat="46.33658" lon="6.55003">
        <ele>791.8026</ele>
        <time>2014-08-26T10:45:40Z</time>
      </trkpt>
      <trkpt lat="46.33655" lon="6.55009">
        <ele>790.89703</ele>
        <time>2014-08-26T10:45:45Z</time>
      </trkpt>
      <trkpt lat="46.33653" lon="6.55012">
        <ele>790.89703</ele>
        <time>2014-08-26T10:45:50Z</time>
      </trkpt>
      <trkpt lat="46.33652" lon="6.55015">
        <ele>790.89703</ele>
        <time>2014-08-26T10:45:55Z</time>
      </trkpt>
      <trkpt lat="46.3365" lon="6.55019">
        <ele>790.89703</ele>
        <time>2014-08-26T10:46:00Z</time>
      </trkpt>
      <trkpt lat="46.33648" lon="6.5502">
        <ele>790.3894</ele>
        <time>2014-08-26T10:46:05Z</time>
      </trkpt>
      <trkpt lat="46.33642" lon="6.55027">
        <ele>790.3894</ele>
        <time>2014-08-26T10:46:10Z</time>
      </trkpt>
      <trkpt lat="46.33642" lon="6.55027">
        <ele>790.3894</ele>
        <time>2014-08-26T10:46:15Z</time>
      </trkpt>
      <trkpt lat="46.33633" lon="6.55047">
        <ele>789.8347</ele>
        <time>2014-08-26T10:46:20Z</time>
      </trkpt>
      <trkpt lat="46.33628" lon="6.55058">
        <ele>789.3537</ele>
        <time>2014-08-26T10:46:25Z</time>
      </trkpt>
      <trkpt lat="46.33623" lon="6.55067">
        <ele>789.3537</ele>
        <time>2014-08-26T10:46:30Z</time>
      </trkpt>
      <trkpt lat="46.33623" lon="6.55068">
        <ele>789.3537</ele>
        <time>2014-08-26T10:46:35Z</time>
      </trkpt>
      <trkpt lat="46.33623" lon="6.55071">
        <ele>789.56213</ele>
        <time>2014-08-26T10:46:40Z</time>
      </trkpt>
      <trkpt lat="46.33622" lon="6.55076">
        <ele>789.56213</ele>
        <time>2014-08-26T10:46:45Z</time>
      </trkpt>
      <trkpt lat="46.33618" lon="6.55088">
        <ele>790.2217</ele>
        <time>2014-08-26T10:46:50Z</time>
      </trkpt>
      <trkpt lat="46.33611" lon="6.551">
        <ele>791.00903</ele>
        <time>2014-08-26T10:46:55Z</time>
      </trkpt>
      <trkpt lat="46.33608" lon="6.55112">
        <ele>791.00903</ele>
        <time>2014-08-26T10:47:00Z</time>
      </trkpt>
      <trkpt lat="46.33602" lon="6.55131">
        <ele>791.4945</ele>
        <time>2014-08-26T10:47:05Z</time>
      </trkpt>
      <trkpt lat="46.33602" lon="6.55136">
        <ele>791.4945</ele>
        <time>2014-08-26T10:47:10Z</time>
      </trkpt>
      <trkpt lat="46.33601" lon="6.5514">
        <ele>791.4945</ele>
        <time>2014-08-26T10:47:15Z</time>
      </trkpt>
      <trkpt lat="46.33601" lon="6.5514">
        <ele>791.4945</ele>
        <time>2014-08-26T10:47:20Z</time>
      </trkpt>
      <trkpt lat="46.33601" lon="6.5514">
        <ele>791.4945</ele>
        <time>2014-08-26T10:47:25Z</time>
      </trkpt>
      <trkpt lat="46.33601" lon="6.5514">
        <ele>791.4945</ele>
        <time>2014-08-26T10:47:30Z</time>
      </trkpt>
      <trkpt lat="46.336" lon="6.55142">
        <ele>791.4945</ele>
        <time>2014-08-26T10:47:35Z</time>
      </trkpt>
      <trkpt lat="46.336" lon="6.55142">
        <ele>791.4945</ele>
        <time>2014-08-26T10:47:40Z</time>
      </trkpt>
      <trkpt lat="46.33599" lon="6.55144">
        <ele>791.3384</ele>
        <time>2014-08-26T10:47:45Z</time>
      </trkpt>
      <trkpt lat="46.33598" lon="6.55152">
        <ele>791.3384</ele>
        <time>2014-08-26T10:47:50Z</time>
      </trkpt>
      <trkpt lat="46.33596" lon="6.55165">
        <ele>791.2362</ele>
        <time>2014-08-26T10:47:55Z</time>
      </trkpt>
      <trkpt lat="46.33596" lon="6.55165">
        <ele>791.2362</ele>
        <time>2014-08-26T10:48:00Z</time>
      </trkpt>
      <trkpt lat="46.33592" lon="6.55174">
        <ele>791.2362</ele>
        <time>2014-08-26T10:48:05Z</time>
      </trkpt>
      <trkpt lat="46.33589" lon="6.55195">
        <ele>791.42883</ele>
        <time>2014-08-26T10:48:10Z</time>
      </trkpt>
      <trkpt lat="46.33586" lon="6.55205">
        <ele>791.42883</ele>
        <time>2014-08-26T10:48:15Z</time>
      </trkpt>
      <trkpt lat="46.33583" lon="6.5522">
        <ele>791.9079</ele>
        <time>2014-08-26T10:48:20Z</time>
      </trkpt>
      <trkpt lat="46.33584" lon="6.55227">
        <ele>791.9079</ele>
        <time>2014-08-26T10:48:25Z</time>
      </trkpt>
      <trkpt lat="46.33583" lon="6.55235">
        <ele>792.66473</ele>
        <time>2014-08-26T10:48:30Z</time>
      </trkpt>
      <trkpt lat="46.33576" lon="6.55248">
        <ele>793.5176</ele>
        <time>2014-08-26T10:48:35Z</time>
      </trkpt>
      <trkpt lat="46.33575" lon="6.5525">
        <ele>793.5176</ele>
        <time>2014-08-26T10:48:40Z</time>
      </trkpt>
      <trkpt lat="46.3357" lon="6.55258">
        <ele>794.4273</ele>
        <time>2014-08-26T10:48:45Z</time>
      </trkpt>
      <trkpt lat="46.33569" lon="6.55262">
        <ele>794.4273</ele>
        <time>2014-08-26T10:48:50Z</time>
      </trkpt>
      <trkpt lat="46.33567" lon="6.55265">
        <ele>794.4273</ele>
        <time>2014-08-26T10:48:55Z</time>
      </trkpt>
      <trkpt lat="46.33564" lon="6.55269">
        <ele>795.4153</ele>
        <time>2014-08-26T10:49:00Z</time>
      </trkpt>
      <trkpt lat="46.33561" lon="6.55275">
        <ele>795.4153</ele>
        <time>2014-08-26T10:49:05Z</time>
      </trkpt>
      <trkpt lat="46.33561" lon="6.55277">
        <ele>795.4153</ele>
        <time>2014-08-26T10:49:10Z</time>
      </trkpt>
      <trkpt lat="46.33561" lon="6.55277">
        <ele>795.4153</ele>
        <time>2014-08-26T10:49:15Z</time>
      </trkpt>
      <trkpt lat="46.33561" lon="6.55281">
        <ele>796.61615</ele>
        <time>2014-08-26T10:49:20Z</time>
      </trkpt>
      <trkpt lat="46.33558" lon="6.55283">
        <ele>796.61615</ele>
        <time>2014-08-26T10:49:25Z</time>
      </trkpt>
      <trkpt lat="46.33553" lon="6.55294">
        <ele>798.0677</ele>
        <time>2014-08-26T10:49:30Z</time>
      </trkpt>
      <trkpt lat="46.33548" lon="6.55301">
        <ele>798.0677</ele>
        <time>2014-08-26T10:49:35Z</time>
      </trkpt>
      <trkpt lat="46.33542" lon="6.5531">
        <ele>799.55927</ele>
        <time>2014-08-26T10:49:40Z</time>
      </trkpt>
      <trkpt lat="46.33536" lon="6.55321">
        <ele>801.0685</ele>
        <time>2014-08-26T10:49:45Z</time>
      </trkpt>
      <trkpt lat="46.3353" lon="6.5533">
        <ele>801.0685</ele>
        <time>2014-08-26T10:49:50Z</time>
      </trkpt>
      <trkpt lat="46.33529" lon="6.55331">
        <ele>802.79065</ele>
        <time>2014-08-26T10:49:55Z</time>
      </trkpt>
      <trkpt lat="46.33528" lon="6.55332">
        <ele>802.79065</ele>
        <time>2014-08-26T10:50:00Z</time>
      </trkpt>
      <trkpt lat="46.33528" lon="6.55335">
        <ele>802.79065</ele>
        <time>2014-08-26T10:50:05Z</time>
      </trkpt>
      <trkpt lat="46.33527" lon="6.55337">
        <ele>802.79065</ele>
        <time>2014-08-26T10:50:10Z</time>
      </trkpt>
      <trkpt lat="46.33526" lon="6.55342">
        <ele>802.79065</ele>
        <time>2014-08-26T10:50:15Z</time>
      </trkpt>
      <trkpt lat="46.33523" lon="6.55351">
        <ele>804.63257</ele>
        <time>2014-08-26T10:50:20Z</time>
      </trkpt>
      <trkpt lat="46.33523" lon="6.55352">
        <ele>804.63257</ele>
        <time>2014-08-26T10:50:25Z</time>
      </trkpt>
      <trkpt lat="46.33523" lon="6.55352">
        <ele>804.63257</ele>
        <time>2014-08-26T10:50:30Z</time>
      </trkpt>
      <trkpt lat="46.33518" lon="6.55359">
        <ele>804.63257</ele>
        <time>2014-08-26T10:50:35Z</time>
      </trkpt>
      <trkpt lat="46.33516" lon="6.5537">
        <ele>806.60834</ele>
        <time>2014-08-26T10:50:40Z</time>
      </trkpt>
      <trkpt lat="46.33515" lon="6.55382">
        <ele>806.60834</ele>
        <time>2014-08-26T10:50:45Z</time>
      </trkpt>
      <trkpt lat="46.33516" lon="6.55386">
        <ele>808.5578</ele>
        <time>2014-08-26T10:50:50Z</time>
      </trkpt>
      <trkpt lat="46.33515" lon="6.55388">
        <ele>808.5578</ele>
        <time>2014-08-26T10:50:55Z</time>
      </trkpt>
      <trkpt lat="46.33513" lon="6.55397">
        <ele>808.5578</ele>
        <time>2014-08-26T10:51:00Z</time>
      </trkpt>
      <trkpt lat="46.33515" lon="6.55401">
        <ele>810.30396</ele>
        <time>2014-08-26T10:51:05Z</time>
      </trkpt>
      <trkpt lat="46.33515" lon="6.55407">
        <ele>810.30396</ele>
        <time>2014-08-26T10:51:10Z</time>
      </trkpt>
      <trkpt lat="46.33516" lon="6.55413">
        <ele>810.30396</ele>
        <time>2014-08-26T10:51:15Z</time>
      </trkpt>
      <trkpt lat="46.33519" lon="6.55419">
        <ele>811.91394</ele>
        <time>2014-08-26T10:51:20Z</time>
      </trkpt>
      <trkpt lat="46.33519" lon="6.55431">
        <ele>811.91394</ele>
        <time>2014-08-26T10:51:25Z</time>
      </trkpt>
      <trkpt lat="46.33518" lon="6.55439">
        <ele>813.4218</ele>
        <time>2014-08-26T10:51:30Z</time>
      </trkpt>
      <trkpt lat="46.33517" lon="6.55449">
        <ele>813.4218</ele>
        <time>2014-08-26T10:51:35Z</time>
      </trkpt>
      <trkpt lat="46.33515" lon="6.55457">
        <ele>814.80164</ele>
        <time>2014-08-26T10:51:40Z</time>
      </trkpt>
      <trkpt lat="46.33515" lon="6.55462">
        <ele>814.80164</ele>
        <time>2014-08-26T10:51:45Z</time>
      </trkpt>
      <trkpt lat="46.33517" lon="6.55469">
        <ele>814.80164</ele>
        <time>2014-08-26T10:51:50Z</time>
      </trkpt>
      <trkpt lat="46.33516" lon="6.55477">
        <ele>816.0012</ele>
        <time>2014-08-26T10:51:55Z</time>
      </trkpt>
      <trkpt lat="46.33516" lon="6.55482">
        <ele>816.0012</ele>
        <time>2014-08-26T10:52:00Z</time>
      </trkpt>
      <trkpt lat="46.33517" lon="6.55493">
        <ele>817.2321</ele>
        <time>2014-08-26T10:52:05Z</time>
      </trkpt>
      <trkpt lat="46.33515" lon="6.555">
        <ele>817.2321</ele>
        <time>2014-08-26T10:52:10Z</time>
      </trkpt>
      <trkpt lat="46.33514" lon="6.55509">
        <ele>818.5175</ele>
        <time>2014-08-26T10:52:15Z</time>
      </trkpt>
      <trkpt lat="46.33511" lon="6.55514">
        <ele>818.5175</ele>
        <time>2014-08-26T10:52:20Z</time>
      </trkpt>
      <trkpt lat="46.33511" lon="6.55514">
        <ele>818.5175</ele>
        <time>2014-08-26T10:52:25Z</time>
      </trkpt>
      <trkpt lat="46.33511" lon="6.55515">
        <ele>818.5175</ele>
        <time>2014-08-26T10:52:30Z</time>
      </trkpt>
      <trkpt lat="46.33512" lon="6.55517">
        <ele>818.5175</ele>
        <time>2014-08-26T10:52:35Z</time>
      </trkpt>
      <trkpt lat="46.33511" lon="6.55518">
        <ele>818.5175</ele>
        <time>2014-08-26T10:52:40Z</time>
      </trkpt>
      <trkpt lat="46.33511" lon="6.55519">
        <ele>818.5175</ele>
        <time>2014-08-26T10:52:45Z</time>
      </trkpt>
      <trkpt lat="46.33511" lon="6.55521">
        <ele>819.83563</ele>
        <time>2014-08-26T10:52:50Z</time>
      </trkpt>
      <trkpt lat="46.3351" lon="6.55525">
        <ele>819.83563</ele>
        <time>2014-08-26T10:52:55Z</time>
      </trkpt>
      <trkpt lat="46.33508" lon="6.55529">
        <ele>819.83563</ele>
        <time>2014-08-26T10:53:00Z</time>
      </trkpt>
      <trkpt lat="46.33507" lon="6.55529">
        <ele>819.83563</ele>
        <time>2014-08-26T10:53:05Z</time>
      </trkpt>
      <trkpt lat="46.33507" lon="6.55531">
        <ele>819.83563</ele>
        <time>2014-08-26T10:53:10Z</time>
      </trkpt>
      <trkpt lat="46.33506" lon="6.55533">
        <ele>820.57544</ele>
        <time>2014-08-26T10:53:15Z</time>
      </trkpt>
      <trkpt lat="46.33503" lon="6.55538">
        <ele>820.57544</ele>
        <time>2014-08-26T10:53:20Z</time>
      </trkpt>
      <trkpt lat="46.335" lon="6.55546">
        <ele>821.1668</ele>
        <time>2014-08-26T10:53:25Z</time>
      </trkpt>
      <trkpt lat="46.33498" lon="6.55548">
        <ele>821.1668</ele>
        <time>2014-08-26T10:53:30Z</time>
      </trkpt>
      <trkpt lat="46.33496" lon="6.55564">
        <ele>821.9655</ele>
        <time>2014-08-26T10:53:35Z</time>
      </trkpt>
      <trkpt lat="46.33491" lon="6.55567">
        <ele>821.9655</ele>
        <time>2014-08-26T10:53:40Z</time>
      </trkpt>
      <trkpt lat="46.3349" lon="6.5557">
        <ele>821.9655</ele>
        <time>2014-08-26T10:53:45Z</time>
      </trkpt>
      <trkpt lat="46.33485" lon="6.55581">
        <ele>823.0845</ele>
        <time>2014-08-26T10:53:50Z</time>
      </trkpt>
      <trkpt lat="46.33477" lon="6.55597">
        <ele>824.1807</ele>
        <time>2014-08-26T10:53:55Z</time>
      </trkpt>
      <trkpt lat="46.33472" lon="6.55606">
        <ele>824.1807</ele>
        <time>2014-08-26T10:54:00Z</time>
      </trkpt>
      <trkpt lat="46.33468" lon="6.55609">
        <ele>825.3403</ele>
        <time>2014-08-26T10:54:05Z</time>
      </trkpt>
      <trkpt lat="46.33467" lon="6.55613">
        <ele>825.3403</ele>
        <time>2014-08-26T10:54:10Z</time>
      </trkpt>
      <trkpt lat="46.33464" lon="6.55617">
        <ele>825.3403</ele>
        <time>2014-08-26T10:54:15Z</time>
      </trkpt>
      <trkpt lat="46.33463" lon="6.55623">
        <ele>826.585</ele>
        <time>2014-08-26T10:54:20Z</time>
      </trkpt>
      <trkpt lat="46.33459" lon="6.55637">
        <ele>827.84875</ele>
        <time>2014-08-26T10:54:25Z</time>
      </trkpt>
      <trkpt lat="46.33458" lon="6.55639">
        <ele>827.84875</ele>
        <time>2014-08-26T10:54:30Z</time>
      </trkpt>
      <trkpt lat="46.33458" lon="6.55639">
        <ele>827.84875</ele>
        <time>2014-08-26T10:54:35Z</time>
      </trkpt>
      <trkpt lat="46.33457" lon="6.55639">
        <ele>827.84875</ele>
        <time>2014-08-26T10:54:40Z</time>
      </trkpt>
      <trkpt lat="46.33457" lon="6.5564">
        <ele>827.84875</ele>
        <time>2014-08-26T10:54:45Z</time>
      </trkpt>
      <trkpt lat="46.33454" lon="6.5564">
        <ele>827.84875</ele>
        <time>2014-08-26T10:54:50Z</time>
      </trkpt>
      <trkpt lat="46.33451" lon="6.55647">
        <ele>829.4447</ele>
        <time>2014-08-26T10:54:55Z</time>
      </trkpt>
      <trkpt lat="46.33442" lon="6.55646">
        <ele>829.4447</ele>
        <time>2014-08-26T10:55:00Z</time>
      </trkpt>
      <trkpt lat="46.33442" lon="6.55646">
        <ele>831.0716</ele>
        <time>2014-08-26T10:55:05Z</time>
      </trkpt>
      <trkpt lat="46.33441" lon="6.55648">
        <ele>831.0716</ele>
        <time>2014-08-26T10:55:10Z</time>
      </trkpt>
      <trkpt lat="46.33436" lon="6.55652">
        <ele>831.0716</ele>
        <time>2014-08-26T10:55:15Z</time>
      </trkpt>
      <trkpt lat="46.33434" lon="6.55656">
        <ele>832.5366</ele>
        <time>2014-08-26T10:55:20Z</time>
      </trkpt>
      <trkpt lat="46.33434" lon="6.55657">
        <ele>832.5366</ele>
        <time>2014-08-26T10:55:25Z</time>
      </trkpt>
      <trkpt lat="46.33432" lon="6.55661">
        <ele>832.5366</ele>
        <time>2014-08-26T10:55:30Z</time>
      </trkpt>
      <trkpt lat="46.33428" lon="6.55666">
        <ele>833.6762</ele>
        <time>2014-08-26T10:55:35Z</time>
      </trkpt>
      <trkpt lat="46.33423" lon="6.55667">
        <ele>833.6762</ele>
        <time>2014-08-26T10:55:40Z</time>
      </trkpt>
      <trkpt lat="46.3342" lon="6.55672">
        <ele>834.5127</ele>
        <time>2014-08-26T10:55:45Z</time>
      </trkpt>
      <trkpt lat="46.33416" lon="6.55682">
        <ele>834.5127</ele>
        <time>2014-08-26T10:55:50Z</time>
      </trkpt>
      <trkpt lat="46.33416" lon="6.55682">
        <ele>834.5127</ele>
        <time>2014-08-26T10:55:55Z</time>
      </trkpt>
      <trkpt lat="46.33415" lon="6.55687">
        <ele>835.44244</ele>
        <time>2014-08-26T10:56:00Z</time>
      </trkpt>
      <trkpt lat="46.33415" lon="6.55698">
        <ele>835.44244</ele>
        <time>2014-08-26T10:56:05Z</time>
      </trkpt>
      <trkpt lat="46.33411" lon="6.55706">
        <ele>836.7316</ele>
        <time>2014-08-26T10:56:10Z</time>
      </trkpt>
      <trkpt lat="46.33404" lon="6.55718">
        <ele>838.1072</ele>
        <time>2014-08-26T10:56:15Z</time>
      </trkpt>
      <trkpt lat="46.33403" lon="6.55729">
        <ele>838.1072</ele>
        <time>2014-08-26T10:56:20Z</time>
      </trkpt>
      <trkpt lat="46.33398" lon="6.55734">
        <ele>839.8347</ele>
        <time>2014-08-26T10:56:25Z</time>
      </trkpt>
      <trkpt lat="46.33391" lon="6.55741">
        <ele>839.8347</ele>
        <time>2014-08-26T10:56:30Z</time>
      </trkpt>
      <trkpt lat="46.33385" lon="6.55748">
        <ele>841.6119</ele>
        <time>2014-08-26T10:56:35Z</time>
      </trkpt>
      <trkpt lat="46.33379" lon="6.55752">
        <ele>841.6119</ele>
        <time>2014-08-26T10:56:40Z</time>
      </trkpt>
      <trkpt lat="46.33379" lon="6.55754">
        <ele>841.6119</ele>
        <time>2014-08-26T10:56:45Z</time>
      </trkpt>
      <trkpt lat="46.33376" lon="6.55761">
        <ele>843.34576</ele>
        <time>2014-08-26T10:56:50Z</time>
      </trkpt>
      <trkpt lat="46.33376" lon="6.5576">
        <ele>843.34576</ele>
        <time>2014-08-26T10:56:55Z</time>
      </trkpt>
      <trkpt lat="46.33373" lon="6.55762">
        <ele>843.34576</ele>
        <time>2014-08-26T10:57:00Z</time>
      </trkpt>
      <trkpt lat="46.33369" lon="6.5577">
        <ele>844.7631</ele>
        <time>2014-08-26T10:57:05Z</time>
      </trkpt>
      <trkpt lat="46.33367" lon="6.55774">
        <ele>844.7631</ele>
        <time>2014-08-26T10:57:10Z</time>
      </trkpt>
      <trkpt lat="46.33365" lon="6.55777">
        <ele>844.7631</ele>
        <time>2014-08-26T10:57:15Z</time>
      </trkpt>
      <trkpt lat="46.33364" lon="6.5578">
        <ele>844.7631</ele>
        <time>2014-08-26T10:57:20Z</time>
      </trkpt>
      <trkpt lat="46.33356" lon="6.55794">
        <ele>845.8857</ele>
        <time>2014-08-26T10:57:25Z</time>
      </trkpt>
      <trkpt lat="46.33351" lon="6.55809">
        <ele>846.9506</ele>
        <time>2014-08-26T10:57:30Z</time>
      </trkpt>
      <trkpt lat="46.33349" lon="6.55824">
        <ele>847.9904</ele>
        <time>2014-08-26T10:57:35Z</time>
      </trkpt>
      <trkpt lat="46.33343" lon="6.55838">
        <ele>848.93475</ele>
        <time>2014-08-26T10:57:40Z</time>
      </trkpt>
      <trkpt lat="46.33337" lon="6.55845">
        <ele>848.93475</ele>
        <time>2014-08-26T10:57:45Z</time>
      </trkpt>
      <trkpt lat="46.33338" lon="6.55846">
        <ele>848.93475</ele>
        <time>2014-08-26T10:57:50Z</time>
      </trkpt>
      <trkpt lat="46.33336" lon="6.5585">
        <ele>849.7618</ele>
        <time>2014-08-26T10:57:55Z</time>
      </trkpt>
      <trkpt lat="46.33334" lon="6.55852">
        <ele>849.7618</ele>
        <time>2014-08-26T10:58:00Z</time>
      </trkpt>
      <trkpt lat="46.33333" lon="6.55853">
        <ele>849.7618</ele>
        <time>2014-08-26T10:58:05Z</time>
      </trkpt>
      <trkpt lat="46.33331" lon="6.55858">
        <ele>849.7618</ele>
        <time>2014-08-26T10:58:10Z</time>
      </trkpt>
      <trkpt lat="46.33326" lon="6.55874">
        <ele>850.0915</ele>
        <time>2014-08-26T10:58:15Z</time>
      </trkpt>
      <trkpt lat="46.33324" lon="6.55879">
        <ele>850.0915</ele>
        <time>2014-08-26T10:58:20Z</time>
      </trkpt>
      <trkpt lat="46.33318" lon="6.55888">
        <ele>850.1497</ele>
        <time>2014-08-26T10:58:25Z</time>
      </trkpt>
      <trkpt lat="46.33317" lon="6.55896">
        <ele>850.1497</ele>
        <time>2014-08-26T10:58:30Z</time>
      </trkpt>
      <trkpt lat="46.33317" lon="6.55908">
        <ele>850.2617</ele>
        <time>2014-08-26T10:58:35Z</time>
      </trkpt>
      <trkpt lat="46.33313" lon="6.55917">
        <ele>850.2617</ele>
        <time>2014-08-26T10:58:40Z</time>
      </trkpt>
      <trkpt lat="46.33314" lon="6.55922">
        <ele>850.6135</ele>
        <time>2014-08-26T10:58:45Z</time>
      </trkpt>
      <trkpt lat="46.33316" lon="6.55924">
        <ele>850.6135</ele>
        <time>2014-08-26T10:58:50Z</time>
      </trkpt>
      <trkpt lat="46.33318" lon="6.55927">
        <ele>850.6135</ele>
        <time>2014-08-26T10:58:55Z</time>
      </trkpt>
      <trkpt lat="46.33319" lon="6.55931">
        <ele>850.6135</ele>
        <time>2014-08-26T10:59:00Z</time>
      </trkpt>
      <trkpt lat="46.33319" lon="6.55933">
        <ele>850.9733</ele>
        <time>2014-08-26T10:59:05Z</time>
      </trkpt>
      <trkpt lat="46.33314" lon="6.55941">
        <ele>850.9733</ele>
        <time>2014-08-26T10:59:10Z</time>
      </trkpt>
      <trkpt lat="46.33315" lon="6.55948">
        <ele>851.37134</ele>
        <time>2014-08-26T10:59:15Z</time>
      </trkpt>
      <trkpt lat="46.33319" lon="6.55958">
        <ele>851.37134</ele>
        <time>2014-08-26T10:59:20Z</time>
      </trkpt>
      <trkpt lat="46.33317" lon="6.5597">
        <ele>851.76337</ele>
        <time>2014-08-26T10:59:25Z</time>
      </trkpt>
      <trkpt lat="46.33317" lon="6.55978">
        <ele>851.76337</ele>
        <time>2014-08-26T10:59:30Z</time>
      </trkpt>
      <trkpt lat="46.33319" lon="6.55984">
        <ele>852.0798</ele>
        <time>2014-08-26T10:59:35Z</time>
      </trkpt>
      <trkpt lat="46.33319" lon="6.55988">
        <ele>852.0798</ele>
        <time>2014-08-26T10:59:40Z</time>
      </trkpt>
      <trkpt lat="46.3332" lon="6.55994">
        <ele>852.0798</ele>
        <time>2014-08-26T10:59:45Z</time>
      </trkpt>
      <trkpt lat="46.33319" lon="6.55999">
        <ele>852.24164</ele>
        <time>2014-08-26T10:59:50Z</time>
      </trkpt>
      <trkpt lat="46.33317" lon="6.56001">
        <ele>852.24164</ele>
        <time>2014-08-26T10:59:55Z</time>
      </trkpt>
      <trkpt lat="46.33317" lon="6.56009">
        <ele>852.24164</ele>
        <time>2014-08-26T11:00:00Z</time>
      </trkpt>
      <trkpt lat="46.33319" lon="6.56014">
        <ele>852.2486</ele>
        <time>2014-08-26T11:00:05Z</time>
      </trkpt>
      <trkpt lat="46.33319" lon="6.56015">
        <ele>852.2486</ele>
        <time>2014-08-26T11:00:10Z</time>
      </trkpt>
      <trkpt lat="46.33322" lon="6.56027">
        <ele>852.3454</ele>
        <time>2014-08-26T11:00:15Z</time>
      </trkpt>
      <trkpt lat="46.33322" lon="6.56027">
        <ele>852.3454</ele>
        <time>2014-08-26T11:00:20Z</time>
      </trkpt>
      <trkpt lat="46.33319" lon="6.56044">
        <ele>852.49945</ele>
        <time>2014-08-26T11:00:25Z</time>
      </trkpt>
      <trkpt lat="46.33313" lon="6.5606">
        <ele>852.5649</ele>
        <time>2014-08-26T11:00:30Z</time>
      </trkpt>
      <trkpt lat="46.33311" lon="6.56065">
        <ele>852.5649</ele>
        <time>2014-08-26T11:00:35Z</time>
      </trkpt>
      <trkpt lat="46.33311" lon="6.56065">
        <ele>852.5649</ele>
        <time>2014-08-26T11:00:40Z</time>
      </trkpt>
      <trkpt lat="46.33303" lon="6.56082">
        <ele>852.7815</ele>
        <time>2014-08-26T11:00:45Z</time>
      </trkpt>
      <trkpt lat="46.333" lon="6.56094">
        <ele>852.90985</ele>
        <time>2014-08-26T11:00:50Z</time>
      </trkpt>
      <trkpt lat="46.33299" lon="6.56098">
        <ele>852.90985</ele>
        <time>2014-08-26T11:00:55Z</time>
      </trkpt>
      <trkpt lat="46.33298" lon="6.56102">
        <ele>852.90985</ele>
        <time>2014-08-26T11:01:00Z</time>
      </trkpt>
      <trkpt lat="46.33295" lon="6.56107">
        <ele>853.03094</ele>
        <time>2014-08-26T11:01:05Z</time>
      </trkpt>
      <trkpt lat="46.33292" lon="6.56119">
        <ele>853.1189</ele>
        <time>2014-08-26T11:01:10Z</time>
      </trkpt>
      <trkpt lat="46.33291" lon="6.56124">
        <ele>853.1189</ele>
        <time>2014-08-26T11:01:15Z</time>
      </trkpt>
      <trkpt lat="46.3328" lon="6.56136">
        <ele>853.29395</ele>
        <time>2014-08-26T11:01:20Z</time>
      </trkpt>
      <trkpt lat="46.3327" lon="6.56147">
        <ele>853.4798</ele>
        <time>2014-08-26T11:01:25Z</time>
      </trkpt>
      <trkpt lat="46.33269" lon="6.56147">
        <ele>853.4798</ele>
        <time>2014-08-26T11:01:30Z</time>
      </trkpt>
      <trkpt lat="46.33269" lon="6.56147">
        <ele>853.4798</ele>
        <time>2014-08-26T11:01:35Z</time>
      </trkpt>
      <trkpt lat="46.33265" lon="6.56151">
        <ele>853.4798</ele>
        <time>2014-08-26T11:01:40Z</time>
      </trkpt>
      <trkpt lat="46.33252" lon="6.5616">
        <ele>853.5048</ele>
        <time>2014-08-26T11:01:45Z</time>
      </trkpt>
      <trkpt lat="46.33246" lon="6.56167">
        <ele>853.5048</ele>
        <time>2014-08-26T11:01:50Z</time>
      </trkpt>
      <trkpt lat="46.33237" lon="6.56171">
        <ele>853.7436</ele>
        <time>2014-08-26T11:01:55Z</time>
      </trkpt>
      <trkpt lat="46.33233" lon="6.56174">
        <ele>853.7436</ele>
        <time>2014-08-26T11:02:00Z</time>
      </trkpt>
      <trkpt lat="46.33233" lon="6.56174">
        <ele>853.7436</ele>
        <time>2014-08-26T11:02:05Z</time>
      </trkpt>
      <trkpt lat="46.33226" lon="6.56179">
        <ele>854.34076</ele>
        <time>2014-08-26T11:02:10Z</time>
      </trkpt>
      <trkpt lat="46.33216" lon="6.56187">
        <ele>855.0113</ele>
        <time>2014-08-26T11:02:15Z</time>
      </trkpt>
      <trkpt lat="46.33213" lon="6.56185">
        <ele>855.0113</ele>
        <time>2014-08-26T11:02:20Z</time>
      </trkpt>
      <trkpt lat="46.3321" lon="6.56184">
        <ele>855.0113</ele>
        <time>2014-08-26T11:02:25Z</time>
      </trkpt>
      <trkpt lat="46.33205" lon="6.56185">
        <ele>855.5341</ele>
        <time>2014-08-26T11:02:30Z</time>
      </trkpt>
      <trkpt lat="46.33205" lon="6.56184">
        <ele>855.5341</ele>
        <time>2014-08-26T11:02:35Z</time>
      </trkpt>
      <trkpt lat="46.33201" lon="6.56184">
        <ele>855.5341</ele>
        <time>2014-08-26T11:02:40Z</time>
      </trkpt>
      <trkpt lat="46.332" lon="6.56186">
        <ele>855.5341</ele>
        <time>2014-08-26T11:02:45Z</time>
      </trkpt>
      <trkpt lat="46.33201" lon="6.56189">
        <ele>855.5341</ele>
        <time>2014-08-26T11:02:50Z</time>
      </trkpt>
      <trkpt lat="46.33202" lon="6.56191">
        <ele>855.2869</ele>
        <time>2014-08-26T11:02:55Z</time>
      </trkpt>
      <trkpt lat="46.33202" lon="6.56192">
        <ele>855.2869</ele>
        <time>2014-08-26T11:03:00Z</time>
      </trkpt>
      <trkpt lat="46.33202" lon="6.56192">
        <ele>855.2869</ele>
        <time>2014-08-26T11:03:05Z</time>
      </trkpt>
      <trkpt lat="46.33202" lon="6.56192">
        <ele>855.2869</ele>
        <time>2014-08-26T11:03:10Z</time>
      </trkpt>
      <trkpt lat="46.332" lon="6.56193">
        <ele>855.2869</ele>
        <time>2014-08-26T11:03:15Z</time>
      </trkpt>
      <trkpt lat="46.33199" lon="6.56194">
        <ele>855.2869</ele>
        <time>2014-08-26T11:03:20Z</time>
      </trkpt>
      <trkpt lat="46.33197" lon="6.56195">
        <ele>855.2869</ele>
        <time>2014-08-26T11:03:25Z</time>
      </trkpt>
      <trkpt lat="46.33196" lon="6.56196">
        <ele>855.2869</ele>
        <time>2014-08-26T11:03:30Z</time>
      </trkpt>
      <trkpt lat="46.33196" lon="6.56196">
        <ele>855.2869</ele>
        <time>2014-08-26T11:03:35Z</time>
      </trkpt>
      <trkpt lat="46.33195" lon="6.56197">
        <ele>854.45886</ele>
        <time>2014-08-26T11:03:40Z</time>
      </trkpt>
      <trkpt lat="46.33196" lon="6.56197">
        <ele>854.45886</ele>
        <time>2014-08-26T11:03:45Z</time>
      </trkpt>
      <trkpt lat="46.332" lon="6.56198">
        <ele>854.45886</ele>
        <time>2014-08-26T11:03:50Z</time>
      </trkpt>
      <trkpt lat="46.33201" lon="6.56199">
        <ele>854.45886</ele>
        <time>2014-08-26T11:03:55Z</time>
      </trkpt>
      <trkpt lat="46.332" lon="6.56199">
        <ele>854.45886</ele>
        <time>2014-08-26T11:04:00Z</time>
      </trkpt>
      <trkpt lat="46.33199" lon="6.56197">
        <ele>854.45886</ele>
        <time>2014-08-26T11:04:05Z</time>
      </trkpt>
      <trkpt lat="46.33198" lon="6.56196">
        <ele>853.5438</ele>
        <time>2014-08-26T11:04:10Z</time>
      </trkpt>
      <trkpt lat="46.33198" lon="6.56196">
        <ele>853.5438</ele>
        <time>2014-08-26T11:04:15Z</time>
      </trkpt>
      <trkpt lat="46.33198" lon="6.56196">
        <ele>853.5438</ele>
        <time>2014-08-26T11:04:20Z</time>
      </trkpt>
      <trkpt lat="46.33197" lon="6.56195">
        <ele>853.5438</ele>
        <time>2014-08-26T11:04:35Z</time>
      </trkpt>
      <trkpt lat="46.33197" lon="6.56195">
        <ele>853.5438</ele>
        <time>2014-08-26T11:04:40Z</time>
      </trkpt>
      <trkpt lat="46.33198" lon="6.56196">
        <ele>853.5438</ele>
        <time>2014-08-26T11:04:45Z</time>
      </trkpt>
      <trkpt lat="46.33198" lon="6.56195">
        <ele>853.5438</ele>
        <time>2014-08-26T11:04:50Z</time>
      </trkpt>
      <trkpt lat="46.33198" lon="6.56195">
        <ele>853.5438</ele>
        <time>2014-08-26T11:04:55Z</time>
      </trkpt>
      <trkpt lat="46.33197" lon="6.56196">
        <ele>853.5438</ele>
        <time>2014-08-26T11:05:00Z</time>
      </trkpt>
      <trkpt lat="46.33197" lon="6.56191">
        <ele>853.5438</ele>
        <time>2014-08-26T11:05:05Z</time>
      </trkpt>
      <trkpt lat="46.33197" lon="6.56191">
        <ele>853.5438</ele>
        <time>2014-08-26T11:05:10Z</time>
      </trkpt>
      <trkpt lat="46.33196" lon="6.56192">
        <ele>853.5438</ele>
        <time>2014-08-26T11:05:20Z</time>
      </trkpt>
      <trkpt lat="46.33196" lon="6.56192">
        <ele>853.5438</ele>
        <time>2014-08-26T11:05:25Z</time>
      </trkpt>
      <trkpt lat="46.33191" lon="6.56192">
        <ele>852.6539</ele>
        <time>2014-08-26T11:05:30Z</time>
      </trkpt>
      <trkpt lat="46.33187" lon="6.56192">
        <ele>852.6539</ele>
        <time>2014-08-26T11:05:35Z</time>
      </trkpt>
      <trkpt lat="46.33185" lon="6.56189">
        <ele>852.6539</ele>
        <time>2014-08-26T11:05:40Z</time>
      </trkpt>
      <trkpt lat="46.33181" lon="6.56185">
        <ele>852.13745</ele>
        <time>2014-08-26T11:05:45Z</time>
      </trkpt>
      <trkpt lat="46.33178" lon="6.56187">
        <ele>852.13745</ele>
        <time>2014-08-26T11:05:50Z</time>
      </trkpt>
      <trkpt lat="46.33176" lon="6.56188">
        <ele>852.13745</ele>
        <time>2014-08-26T11:05:55Z</time>
      </trkpt>
      <trkpt lat="46.33173" lon="6.56189">
        <ele>852.13745</ele>
        <time>2014-08-26T11:06:00Z</time>
      </trkpt>
      <trkpt lat="46.3317" lon="6.56192">
        <ele>851.5527</ele>
        <time>2014-08-26T11:06:05Z</time>
      </trkpt>
      <trkpt lat="46.33162" lon="6.56196">
        <ele>850.908</ele>
        <time>2014-08-26T11:06:10Z</time>
      </trkpt>
      <trkpt lat="46.33157" lon="6.56197">
        <ele>850.908</ele>
        <time>2014-08-26T11:06:15Z</time>
      </trkpt>
      <trkpt lat="46.3315" lon="6.56197">
        <ele>850.12506</ele>
        <time>2014-08-26T11:06:20Z</time>
      </trkpt>
      <trkpt lat="46.33145" lon="6.56194">
        <ele>850.12506</ele>
        <time>2014-08-26T11:06:25Z</time>
      </trkpt>
      <trkpt lat="46.33143" lon="6.56195">
        <ele>850.12506</ele>
        <time>2014-08-26T11:06:30Z</time>
      </trkpt>
      <trkpt lat="46.3314" lon="6.56196">
        <ele>849.46277</ele>
        <time>2014-08-26T11:06:35Z</time>
      </trkpt>
      <trkpt lat="46.33134" lon="6.562">
        <ele>849.46277</ele>
        <time>2014-08-26T11:06:40Z</time>
      </trkpt>
      <trkpt lat="46.33129" lon="6.562">
        <ele>848.8869</ele>
        <time>2014-08-26T11:06:45Z</time>
      </trkpt>
      <trkpt lat="46.33123" lon="6.562">
        <ele>848.8869</ele>
        <time>2014-08-26T11:06:50Z</time>
      </trkpt>
      <trkpt lat="46.33118" lon="6.56198">
        <ele>848.2933</ele>
        <time>2014-08-26T11:06:55Z</time>
      </trkpt>
      <trkpt lat="46.33114" lon="6.56196">
        <ele>848.2933</ele>
        <time>2014-08-26T11:07:00Z</time>
      </trkpt>
      <trkpt lat="46.33108" lon="6.56195">
        <ele>847.78723</ele>
        <time>2014-08-26T11:07:05Z</time>
      </trkpt>
      <trkpt lat="46.33103" lon="6.56194">
        <ele>847.78723</ele>
        <time>2014-08-26T11:07:10Z</time>
      </trkpt>
      <trkpt lat="46.331" lon="6.56194">
        <ele>847.78723</ele>
        <time>2014-08-26T11:07:15Z</time>
      </trkpt>
      <trkpt lat="46.33098" lon="6.56194">
        <ele>847.43695</ele>
        <time>2014-08-26T11:07:20Z</time>
      </trkpt>
      <trkpt lat="46.33095" lon="6.56194">
        <ele>847.43695</ele>
        <time>2014-08-26T11:07:25Z</time>
      </trkpt>
      <trkpt lat="46.33089" lon="6.56193">
        <ele>847.262</ele>
        <time>2014-08-26T11:07:30Z</time>
      </trkpt>
      <trkpt lat="46.33084" lon="6.56193">
        <ele>847.262</ele>
        <time>2014-08-26T11:07:35Z</time>
      </trkpt>
      <trkpt lat="46.33079" lon="6.56194">
        <ele>847.2511</ele>
        <time>2014-08-26T11:07:40Z</time>
      </trkpt>
      <trkpt lat="46.33076" lon="6.56193">
        <ele>847.2511</ele>
        <time>2014-08-26T11:07:45Z</time>
      </trkpt>
      <trkpt lat="46.33074" lon="6.56194">
        <ele>847.2511</ele>
        <time>2014-08-26T11:07:50Z</time>
      </trkpt>
      <trkpt lat="46.3306" lon="6.56193">
        <ele>847.37866</ele>
        <time>2014-08-26T11:07:55Z</time>
      </trkpt>
      <trkpt lat="46.33053" lon="6.56191">
        <ele>847.37866</ele>
        <time>2014-08-26T11:08:00Z</time>
      </trkpt>
      <trkpt lat="46.33052" lon="6.5619">
        <ele>847.37866</ele>
        <time>2014-08-26T11:08:05Z</time>
      </trkpt>
      <trkpt lat="46.33049" lon="6.56193">
        <ele>847.4477</ele>
        <time>2014-08-26T11:08:10Z</time>
      </trkpt>
      <trkpt lat="46.33046" lon="6.56195">
        <ele>847.4477</ele>
        <time>2014-08-26T11:08:15Z</time>
      </trkpt>
      <trkpt lat="46.33043" lon="6.56196">
        <ele>847.4477</ele>
        <time>2014-08-26T11:08:20Z</time>
      </trkpt>
      <trkpt lat="46.3304" lon="6.56198">
        <ele>847.6505</ele>
        <time>2014-08-26T11:08:25Z</time>
      </trkpt>
      <trkpt lat="46.33029" lon="6.56199">
        <ele>847.862</ele>
        <time>2014-08-26T11:08:30Z</time>
      </trkpt>
      <trkpt lat="46.33024" lon="6.56201">
        <ele>847.862</ele>
        <time>2014-08-26T11:08:35Z</time>
      </trkpt>
      <trkpt lat="46.33018" lon="6.56202">
        <ele>848.06714</ele>
        <time>2014-08-26T11:08:40Z</time>
      </trkpt>
      <trkpt lat="46.33009" lon="6.56202">
        <ele>848.19434</ele>
        <time>2014-08-26T11:08:45Z</time>
      </trkpt>
      <trkpt lat="46.33007" lon="6.56201">
        <ele>848.19434</ele>
        <time>2014-08-26T11:08:50Z</time>
      </trkpt>
      <trkpt lat="46.33007" lon="6.56198">
        <ele>848.19434</ele>
        <time>2014-08-26T11:08:55Z</time>
      </trkpt>
      <trkpt lat="46.33006" lon="6.56193">
        <ele>848.19434</ele>
        <time>2014-08-26T11:09:00Z</time>
      </trkpt>
      <trkpt lat="46.33" lon="6.56189">
        <ele>848.1629</ele>
        <time>2014-08-26T11:09:05Z</time>
      </trkpt>
      <trkpt lat="46.32997" lon="6.56182">
        <ele>848.1629</ele>
        <time>2014-08-26T11:09:10Z</time>
      </trkpt>
      <trkpt lat="46.3299" lon="6.56182">
        <ele>848.0859</ele>
        <time>2014-08-26T11:09:15Z</time>
      </trkpt>
      <trkpt lat="46.32985" lon="6.56179">
        <ele>848.0859</ele>
        <time>2014-08-26T11:09:20Z</time>
      </trkpt>
      <trkpt lat="46.32979" lon="6.56177">
        <ele>848.0392</ele>
        <time>2014-08-26T11:09:25Z</time>
      </trkpt>
      <trkpt lat="46.32977" lon="6.56177">
        <ele>848.0392</ele>
        <time>2014-08-26T11:09:30Z</time>
      </trkpt>
      <trkpt lat="46.32965" lon="6.56178">
        <ele>848.1652</ele>
        <time>2014-08-26T11:09:35Z</time>
      </trkpt>
      <trkpt lat="46.32962" lon="6.56179">
        <ele>848.1652</ele>
        <time>2014-08-26T11:09:40Z</time>
      </trkpt>
      <trkpt lat="46.32952" lon="6.56182">
        <ele>848.3934</ele>
        <time>2014-08-26T11:09:45Z</time>
      </trkpt>
      <trkpt lat="46.32944" lon="6.56184">
        <ele>848.3934</ele>
        <time>2014-08-26T11:09:50Z</time>
      </trkpt>
      <trkpt lat="46.32937" lon="6.56183">
        <ele>848.67255</ele>
        <time>2014-08-26T11:09:55Z</time>
      </trkpt>
      <trkpt lat="46.32932" lon="6.56182">
        <ele>848.67255</ele>
        <time>2014-08-26T11:10:00Z</time>
      </trkpt>
      <trkpt lat="46.32922" lon="6.56184">
        <ele>848.9839</ele>
        <time>2014-08-26T11:10:05Z</time>
      </trkpt>
      <trkpt lat="46.32921" lon="6.56182">
        <ele>848.9839</ele>
        <time>2014-08-26T11:10:10Z</time>
      </trkpt>
      <trkpt lat="46.32921" lon="6.56175">
        <ele>848.9839</ele>
        <time>2014-08-26T11:10:15Z</time>
      </trkpt>
      <trkpt lat="46.32917" lon="6.56169">
        <ele>849.52606</ele>
        <time>2014-08-26T11:10:20Z</time>
      </trkpt>
      <trkpt lat="46.32913" lon="6.56167">
        <ele>849.52606</ele>
        <time>2014-08-26T11:10:25Z</time>
      </trkpt>
      <trkpt lat="46.32906" lon="6.56167">
        <ele>850.17975</ele>
        <time>2014-08-26T11:10:30Z</time>
      </trkpt>
      <trkpt lat="46.32902" lon="6.56166">
        <ele>850.17975</ele>
        <time>2014-08-26T11:10:35Z</time>
      </trkpt>
      <trkpt lat="46.329" lon="6.56167">
        <ele>850.17975</ele>
        <time>2014-08-26T11:10:40Z</time>
      </trkpt>
      <trkpt lat="46.32886" lon="6.56168">
        <ele>850.90607</ele>
        <time>2014-08-26T11:10:45Z</time>
      </trkpt>
      <trkpt lat="46.32878" lon="6.56167">
        <ele>850.90607</ele>
        <time>2014-08-26T11:10:50Z</time>
      </trkpt>
      <trkpt lat="46.32871" lon="6.56169">
        <ele>851.7266</ele>
        <time>2014-08-26T11:10:55Z</time>
      </trkpt>
      <trkpt lat="46.32864" lon="6.56171">
        <ele>851.7266</ele>
        <time>2014-08-26T11:11:00Z</time>
      </trkpt>
      <trkpt lat="46.32859" lon="6.5617">
        <ele>852.64655</ele>
        <time>2014-08-26T11:11:05Z</time>
      </trkpt>
      <trkpt lat="46.32855" lon="6.56167">
        <ele>852.64655</ele>
        <time>2014-08-26T11:11:10Z</time>
      </trkpt>
      <trkpt lat="46.32853" lon="6.56167">
        <ele>852.64655</ele>
        <time>2014-08-26T11:11:15Z</time>
      </trkpt>
      <trkpt lat="46.32844" lon="6.56162">
        <ele>853.59827</ele>
        <time>2014-08-26T11:11:20Z</time>
      </trkpt>
      <trkpt lat="46.32839" lon="6.56157">
        <ele>853.59827</ele>
        <time>2014-08-26T11:11:25Z</time>
      </trkpt>
      <trkpt lat="46.32836" lon="6.56145">
        <ele>854.51917</ele>
        <time>2014-08-26T11:11:30Z</time>
      </trkpt>
      <trkpt lat="46.3283" lon="6.5614">
        <ele>854.51917</ele>
        <time>2014-08-26T11:11:35Z</time>
      </trkpt>
      <trkpt lat="46.32826" lon="6.56139">
        <ele>855.4811</ele>
        <time>2014-08-26T11:11:40Z</time>
      </trkpt>
      <trkpt lat="46.32822" lon="6.56137">
        <ele>855.4811</ele>
        <time>2014-08-26T11:11:45Z</time>
      </trkpt>
      <trkpt lat="46.32817" lon="6.56137">
        <ele>856.4206</ele>
        <time>2014-08-26T11:11:50Z</time>
      </trkpt>
      <trkpt lat="46.32816" lon="6.56136">
        <ele>856.4206</ele>
        <time>2014-08-26T11:11:55Z</time>
      </trkpt>
      <trkpt lat="46.32815" lon="6.56137">
        <ele>856.4206</ele>
        <time>2014-08-26T11:12:00Z</time>
      </trkpt>
      <trkpt lat="46.32812" lon="6.56129">
        <ele>856.4206</ele>
        <time>2014-08-26T11:12:05Z</time>
      </trkpt>
      <trkpt lat="46.32811" lon="6.56126">
        <ele>857.1207</ele>
        <time>2014-08-26T11:12:10Z</time>
      </trkpt>
      <trkpt lat="46.3281" lon="6.56127">
        <ele>857.1207</ele>
        <time>2014-08-26T11:12:15Z</time>
      </trkpt>
      <trkpt lat="46.32801" lon="6.56129">
        <ele>857.6547</ele>
        <time>2014-08-26T11:12:20Z</time>
      </trkpt>
      <trkpt lat="46.32796" lon="6.56123">
        <ele>857.6547</ele>
        <time>2014-08-26T11:12:25Z</time>
      </trkpt>
      <trkpt lat="46.32795" lon="6.56121">
        <ele>857.6547</ele>
        <time>2014-08-26T11:12:30Z</time>
      </trkpt>
      <trkpt lat="46.32796" lon="6.56121">
        <ele>857.6547</ele>
        <time>2014-08-26T11:12:35Z</time>
      </trkpt>
      <trkpt lat="46.3279" lon="6.56119">
        <ele>858.01904</ele>
        <time>2014-08-26T11:12:40Z</time>
      </trkpt>
      <trkpt lat="46.32781" lon="6.56118">
        <ele>858.01904</ele>
        <time>2014-08-26T11:12:45Z</time>
      </trkpt>
      <trkpt lat="46.32776" lon="6.56118">
        <ele>858.28296</ele>
        <time>2014-08-26T11:12:50Z</time>
      </trkpt>
      <trkpt lat="46.32772" lon="6.56119">
        <ele>858.28296</ele>
        <time>2014-08-26T11:12:55Z</time>
      </trkpt>
      <trkpt lat="46.32765" lon="6.56117">
        <ele>858.3668</ele>
        <time>2014-08-26T11:13:00Z</time>
      </trkpt>
      <trkpt lat="46.3276" lon="6.56115">
        <ele>858.3668</ele>
        <time>2014-08-26T11:13:05Z</time>
      </trkpt>
      <trkpt lat="46.32754" lon="6.56113">
        <ele>858.2406</ele>
        <time>2014-08-26T11:13:10Z</time>
      </trkpt>
      <trkpt lat="46.32748" lon="6.56109">
        <ele>858.2406</ele>
        <time>2014-08-26T11:13:15Z</time>
      </trkpt>
      <trkpt lat="46.32744" lon="6.56106">
        <ele>857.9492</ele>
        <time>2014-08-26T11:13:20Z</time>
      </trkpt>
      <trkpt lat="46.32737" lon="6.56103">
        <ele>857.9492</ele>
        <time>2014-08-26T11:13:25Z</time>
      </trkpt>
      <trkpt lat="46.32732" lon="6.56101">
        <ele>857.37616</ele>
        <time>2014-08-26T11:13:30Z</time>
      </trkpt>
      <trkpt lat="46.32727" lon="6.56096">
        <ele>857.37616</ele>
        <time>2014-08-26T11:13:35Z</time>
      </trkpt>
      <trkpt lat="46.32722" lon="6.56092">
        <ele>856.63055</ele>
        <time>2014-08-26T11:13:40Z</time>
      </trkpt>
      <trkpt lat="46.32716" lon="6.56089">
        <ele>856.63055</ele>
        <time>2014-08-26T11:13:45Z</time>
      </trkpt>
      <trkpt lat="46.32709" lon="6.5609">
        <ele>855.7995</ele>
        <time>2014-08-26T11:13:50Z</time>
      </trkpt>
      <trkpt lat="46.32703" lon="6.5609">
        <ele>855.7995</ele>
        <time>2014-08-26T11:13:55Z</time>
      </trkpt>
      <trkpt lat="46.32694" lon="6.56089">
        <ele>854.96405</ele>
        <time>2014-08-26T11:14:00Z</time>
      </trkpt>
      <trkpt lat="46.3269" lon="6.56088">
        <ele>854.96405</ele>
        <time>2014-08-26T11:14:05Z</time>
      </trkpt>
      <trkpt lat="46.32684" lon="6.56089">
        <ele>854.12714</ele>
        <time>2014-08-26T11:14:10Z</time>
      </trkpt>
      <trkpt lat="46.32679" lon="6.56088">
        <ele>854.12714</ele>
        <time>2014-08-26T11:14:15Z</time>
      </trkpt>
      <trkpt lat="46.32674" lon="6.56085">
        <ele>853.1907</ele>
        <time>2014-08-26T11:14:20Z</time>
      </trkpt>
      <trkpt lat="46.3267" lon="6.5608">
        <ele>853.1907</ele>
        <time>2014-08-26T11:14:25Z</time>
      </trkpt>
      <trkpt lat="46.32665" lon="6.56077">
        <ele>852.1937</ele>
        <time>2014-08-26T11:14:30Z</time>
      </trkpt>
      <trkpt lat="46.3266" lon="6.56076">
        <ele>852.1937</ele>
        <time>2014-08-26T11:14:35Z</time>
      </trkpt>
      <trkpt lat="46.32657" lon="6.5607">
        <ele>851.1294</ele>
        <time>2014-08-26T11:14:40Z</time>
      </trkpt>
      <trkpt lat="46.32651" lon="6.56069">
        <ele>851.1294</ele>
        <time>2014-08-26T11:14:45Z</time>
      </trkpt>
      <trkpt lat="46.32646" lon="6.56066">
        <ele>849.76086</ele>
        <time>2014-08-26T11:14:50Z</time>
      </trkpt>
      <trkpt lat="46.32642" lon="6.56065">
        <ele>849.76086</ele>
        <time>2014-08-26T11:14:55Z</time>
      </trkpt>
      <trkpt lat="46.32634" lon="6.56066">
        <ele>848.17224</ele>
        <time>2014-08-26T11:15:00Z</time>
      </trkpt>
      <trkpt lat="46.32628" lon="6.56064">
        <ele>848.17224</ele>
        <time>2014-08-26T11:15:05Z</time>
      </trkpt>
      <trkpt lat="46.32621" lon="6.56062">
        <ele>846.6148</ele>
        <time>2014-08-26T11:15:10Z</time>
      </trkpt>
      <trkpt lat="46.32614" lon="6.56061">
        <ele>846.6148</ele>
        <time>2014-08-26T11:15:15Z</time>
      </trkpt>
      <trkpt lat="46.32607" lon="6.56061">
        <ele>845.1772</ele>
        <time>2014-08-26T11:15:20Z</time>
      </trkpt>
      <trkpt lat="46.32606" lon="6.56059">
        <ele>845.1772</ele>
        <time>2014-08-26T11:15:25Z</time>
      </trkpt>
      <trkpt lat="46.32605" lon="6.56057">
        <ele>845.1772</ele>
        <time>2014-08-26T11:15:30Z</time>
      </trkpt>
      <trkpt lat="46.32605" lon="6.56052">
        <ele>845.1772</ele>
        <time>2014-08-26T11:15:35Z</time>
      </trkpt>
      <trkpt lat="46.32604" lon="6.56049">
        <ele>843.8691</ele>
        <time>2014-08-26T11:15:40Z</time>
      </trkpt>
      <trkpt lat="46.32604" lon="6.56049">
        <ele>843.8691</ele>
        <time>2014-08-26T11:15:45Z</time>
      </trkpt>
      <trkpt lat="46.32605" lon="6.5605">
        <ele>843.8691</ele>
        <time>2014-08-26T11:17:00Z</time>
      </trkpt>
      <trkpt lat="46.32605" lon="6.5605">
        <ele>843.8691</ele>
        <time>2014-08-26T11:17:05Z</time>
      </trkpt>
      <trkpt lat="46.32605" lon="6.56049">
        <ele>843.8691</ele>
        <time>2014-08-26T11:17:10Z</time>
      </trkpt>
      <trkpt lat="46.32605" lon="6.56049">
        <ele>843.8691</ele>
        <time>2014-08-26T11:17:15Z</time>
      </trkpt>
      <trkpt lat="46.32605" lon="6.56047">
        <ele>843.8691</ele>
        <time>2014-08-26T11:17:40Z</time>
      </trkpt>
      <trkpt lat="46.32605" lon="6.56047">
        <ele>843.8691</ele>
        <time>2014-08-26T11:17:45Z</time>
      </trkpt>
      <trkpt lat="46.32605" lon="6.56046">
        <ele>843.8691</ele>
        <time>2014-08-26T11:17:50Z</time>
      </trkpt>
      <trkpt lat="46.32605" lon="6.56045">
        <ele>843.8691</ele>
        <time>2014-08-26T11:17:55Z</time>
      </trkpt>
      <trkpt lat="46.32604" lon="6.56045">
        <ele>843.8691</ele>
        <time>2014-08-26T11:18:00Z</time>
      </trkpt>
      <trkpt lat="46.32604" lon="6.56045">
        <ele>843.8691</ele>
        <time>2014-08-26T11:18:05Z</time>
      </trkpt>
      <trkpt lat="46.32604" lon="6.56044">
        <ele>843.8691</ele>
        <time>2014-08-26T11:18:20Z</time>
      </trkpt>
      <trkpt lat="46.32604" lon="6.56044">
        <ele>843.8691</ele>
        <time>2014-08-26T11:18:25Z</time>
      </trkpt>
      <trkpt lat="46.32604" lon="6.56043">
        <ele>843.8691</ele>
        <time>2014-08-26T11:18:40Z</time>
      </trkpt>
      <trkpt lat="46.32604" lon="6.56041">
        <ele>843.8691</ele>
        <time>2014-08-26T11:18:45Z</time>
      </trkpt>
      <trkpt lat="46.32603" lon="6.56041">
        <ele>843.8691</ele>
        <time>2014-08-26T11:18:50Z</time>
      </trkpt>
      <trkpt lat="46.32603" lon="6.56041">
        <ele>843.8691</ele>
        <time>2014-08-26T11:18:55Z</time>
      </trkpt>
      <trkpt lat="46.32604" lon="6.56044">
        <ele>842.4973</ele>
        <time>2014-08-26T11:19:40Z</time>
      </trkpt>
      <trkpt lat="46.32604" lon="6.56044">
        <ele>842.4973</ele>
        <time>2014-08-26T11:19:45Z</time>
      </trkpt>
      <trkpt lat="46.32604" lon="6.56044">
        <ele>842.4973</ele>
        <time>2014-08-26T11:22:10Z</time>
      </trkpt>
      <trkpt lat="46.32604" lon="6.56044">
        <ele>842.4973</ele>
        <time>2014-08-26T11:22:15Z</time>
      </trkpt>
      <trkpt lat="46.32604" lon="6.56044">
        <ele>842.4973</ele>
        <time>2014-08-26T11:22:20Z</time>
      </trkpt>
      <trkpt lat="46.32605" lon="6.56045">
        <ele>842.4973</ele>
        <time>2014-08-26T11:23:00Z</time>
      </trkpt>
      <trkpt lat="46.32605" lon="6.56045">
        <ele>842.4973</ele>
        <time>2014-08-26T11:23:05Z</time>
      </trkpt>
      <trkpt lat="46.32607" lon="6.56045">
        <ele>842.4973</ele>
        <time>2014-08-26T11:24:30Z</time>
      </trkpt>
      <trkpt lat="46.32608" lon="6.56045">
        <ele>842.4973</ele>
        <time>2014-08-26T11:24:35Z</time>
      </trkpt>
      <trkpt lat="46.32611" lon="6.56044">
        <ele>842.4973</ele>
        <time>2014-08-26T11:24:40Z</time>
      </trkpt>
      <trkpt lat="46.32611" lon="6.56044">
        <ele>842.4973</ele>
        <time>2014-08-26T11:24:45Z</time>
      </trkpt>
      <trkpt lat="46.32611" lon="6.56044">
        <ele>842.4973</ele>
        <time>2014-08-26T11:24:50Z</time>
      </trkpt>
      <trkpt lat="46.32611" lon="6.56044">
        <ele>842.4973</ele>
        <time>2014-08-26T11:24:55Z</time>
      </trkpt>
      <trkpt lat="46.32612" lon="6.56043">
        <ele>841.5601</ele>
        <time>2014-08-26T11:25:15Z</time>
      </trkpt>
      <trkpt lat="46.32612" lon="6.56042">
        <ele>841.5601</ele>
        <time>2014-08-26T11:25:20Z</time>
      </trkpt>
      <trkpt lat="46.32612" lon="6.56041">
        <ele>841.5601</ele>
        <time>2014-08-26T11:25:25Z</time>
      </trkpt>
      <trkpt lat="46.32611" lon="6.56041">
        <ele>841.5601</ele>
        <time>2014-08-26T11:25:40Z</time>
      </trkpt>
      <trkpt lat="46.32611" lon="6.56041">
        <ele>841.5601</ele>
        <time>2014-08-26T11:25:45Z</time>
      </trkpt>
      <trkpt lat="46.32611" lon="6.56043">
        <ele>841.5601</ele>
        <time>2014-08-26T11:25:50Z</time>
      </trkpt>
      <trkpt lat="46.32611" lon="6.56043">
        <ele>841.5601</ele>
        <time>2014-08-26T11:25:55Z</time>
      </trkpt>
      <trkpt lat="46.32611" lon="6.56043">
        <ele>841.5601</ele>
        <time>2014-08-26T11:26:00Z</time>
      </trkpt>
      <trkpt lat="46.32611" lon="6.56043">
        <ele>841.5601</ele>
        <time>2014-08-26T11:27:35Z</time>
      </trkpt>
      <trkpt lat="46.32614" lon="6.56042">
        <ele>841.5601</ele>
        <time>2014-08-26T11:27:40Z</time>
      </trkpt>
      <trkpt lat="46.32614" lon="6.56042">
        <ele>841.5601</ele>
        <time>2014-08-26T11:27:45Z</time>
      </trkpt>
      <trkpt lat="46.32613" lon="6.56043">
        <ele>841.5601</ele>
        <time>2014-08-26T11:28:55Z</time>
      </trkpt>
      <trkpt lat="46.32613" lon="6.56043">
        <ele>841.5601</ele>
        <time>2014-08-26T11:29:00Z</time>
      </trkpt>
      <trkpt lat="46.32612" lon="6.56043">
        <ele>841.5601</ele>
        <time>2014-08-26T11:29:05Z</time>
      </trkpt>
      <trkpt lat="46.32612" lon="6.56043">
        <ele>841.5601</ele>
        <time>2014-08-26T11:29:10Z</time>
      </trkpt>
      <trkpt lat="46.32612" lon="6.56043">
        <ele>841.5601</ele>
        <time>2014-08-26T11:29:15Z</time>
      </trkpt>
      <trkpt lat="46.32612" lon="6.56045">
        <ele>841.2155</ele>
        <time>2014-08-26T11:29:25Z</time>
      </trkpt>
      <trkpt lat="46.32612" lon="6.56045">
        <ele>841.2155</ele>
        <time>2014-08-26T11:29:30Z</time>
      </trkpt>
      <trkpt lat="46.32612" lon="6.56045">
        <ele>841.2155</ele>
        <time>2014-08-26T11:29:35Z</time>
      </trkpt>
      <trkpt lat="46.32612" lon="6.56046">
        <ele>841.2155</ele>
        <time>2014-08-26T11:29:40Z</time>
      </trkpt>
      <trkpt lat="46.32612" lon="6.56046">
        <ele>841.2155</ele>
        <time>2014-08-26T11:29:45Z</time>
      </trkpt>
      <trkpt lat="46.3261" lon="6.56047">
        <ele>841.2155</ele>
        <time>2014-08-26T11:30:05Z</time>
      </trkpt>
      <trkpt lat="46.3261" lon="6.56048">
        <ele>841.2155</ele>
        <time>2014-08-26T11:30:10Z</time>
      </trkpt>
      <trkpt lat="46.32609" lon="6.56049">
        <ele>841.2155</ele>
        <time>2014-08-26T11:31:05Z</time>
      </trkpt>
      <trkpt lat="46.32608" lon="6.56053">
        <ele>841.2155</ele>
        <time>2014-08-26T11:31:10Z</time>
      </trkpt>
      <trkpt lat="46.32605" lon="6.56063">
        <ele>840.772</ele>
        <time>2014-08-26T11:31:15Z</time>
      </trkpt>
      <trkpt lat="46.32601" lon="6.56071">
        <ele>840.772</ele>
        <time>2014-08-26T11:31:20Z</time>
      </trkpt>
      <trkpt lat="46.32598" lon="6.56075">
        <ele>840.3675</ele>
        <time>2014-08-26T11:31:25Z</time>
      </trkpt>
      <trkpt lat="46.32596" lon="6.56077">
        <ele>840.3675</ele>
        <time>2014-08-26T11:31:30Z</time>
      </trkpt>
      <trkpt lat="46.32591" lon="6.56084">
        <ele>840.3675</ele>
        <time>2014-08-26T11:31:35Z</time>
      </trkpt>
      <trkpt lat="46.32588" lon="6.56091">
        <ele>839.9421</ele>
        <time>2014-08-26T11:31:40Z</time>
      </trkpt>
      <trkpt lat="46.32584" lon="6.56095">
        <ele>839.9421</ele>
        <time>2014-08-26T11:31:45Z</time>
      </trkpt>
      <trkpt lat="46.32582" lon="6.56098">
        <ele>839.9421</ele>
        <time>2014-08-26T11:31:50Z</time>
      </trkpt>
      <trkpt lat="46.32582" lon="6.56098">
        <ele>839.9421</ele>
        <time>2014-08-26T11:31:55Z</time>
      </trkpt>
      <trkpt lat="46.32582" lon="6.56098">
        <ele>839.9421</ele>
        <time>2014-08-26T11:32:25Z</time>
      </trkpt>
      <trkpt lat="46.32582" lon="6.56098">
        <ele>839.9421</ele>
        <time>2014-08-26T11:32:30Z</time>
      </trkpt>
      <trkpt lat="46.32581" lon="6.56097">
        <ele>839.9421</ele>
        <time>2014-08-26T11:33:05Z</time>
      </trkpt>
      <trkpt lat="46.32581" lon="6.56097">
        <ele>838.9505</ele>
        <time>2014-08-26T11:33:10Z</time>
      </trkpt>
      <trkpt lat="46.32581" lon="6.56097">
        <ele>838.9505</ele>
        <time>2014-08-26T11:33:15Z</time>
      </trkpt>
      <trkpt lat="46.3258" lon="6.56097">
        <ele>838.9505</ele>
        <time>2014-08-26T11:33:25Z</time>
      </trkpt>
      <trkpt lat="46.32576" lon="6.56097">
        <ele>838.9505</ele>
        <time>2014-08-26T11:33:30Z</time>
      </trkpt>
      <trkpt lat="46.32569" lon="6.56097">
        <ele>837.8255</ele>
        <time>2014-08-26T11:33:35Z</time>
      </trkpt>
      <trkpt lat="46.32565" lon="6.56095">
        <ele>837.8255</ele>
        <time>2014-08-26T11:33:40Z</time>
      </trkpt>
      <trkpt lat="46.32556" lon="6.56095">
        <ele>836.7523</ele>
        <time>2014-08-26T11:33:45Z</time>
      </trkpt>
      <trkpt lat="46.32547" lon="6.56095">
        <ele>836.7523</ele>
        <time>2014-08-26T11:33:50Z</time>
      </trkpt>
      <trkpt lat="46.3254" lon="6.56095">
        <ele>835.8447</ele>
        <time>2014-08-26T11:33:55Z</time>
      </trkpt>
      <trkpt lat="46.32535" lon="6.56093">
        <ele>835.8447</ele>
        <time>2014-08-26T11:34:00Z</time>
      </trkpt>
      <trkpt lat="46.32529" lon="6.56095">
        <ele>835.0922</ele>
        <time>2014-08-26T11:34:05Z</time>
      </trkpt>
      <trkpt lat="46.32522" lon="6.56096">
        <ele>835.0922</ele>
        <time>2014-08-26T11:34:10Z</time>
      </trkpt>
      <trkpt lat="46.32514" lon="6.56096">
        <ele>834.61444</ele>
        <time>2014-08-26T11:34:15Z</time>
      </trkpt>
      <trkpt lat="46.32507" lon="6.56099">
        <ele>834.61444</ele>
        <time>2014-08-26T11:34:20Z</time>
      </trkpt>
      <trkpt lat="46.32501" lon="6.561">
        <ele>834.1033</ele>
        <time>2014-08-26T11:34:25Z</time>
      </trkpt>
      <trkpt lat="46.32495" lon="6.561">
        <ele>834.1033</ele>
        <time>2014-08-26T11:34:30Z</time>
      </trkpt>
      <trkpt lat="46.32488" lon="6.56101">
        <ele>833.44635</ele>
        <time>2014-08-26T11:34:35Z</time>
      </trkpt>
      <trkpt lat="46.32482" lon="6.56104">
        <ele>833.44635</ele>
        <time>2014-08-26T11:34:40Z</time>
      </trkpt>
      <trkpt lat="46.32476" lon="6.56108">
        <ele>832.6695</ele>
        <time>2014-08-26T11:34:45Z</time>
      </trkpt>
      <trkpt lat="46.32471" lon="6.56114">
        <ele>832.6695</ele>
        <time>2014-08-26T11:34:50Z</time>
      </trkpt>
      <trkpt lat="46.32467" lon="6.56117">
        <ele>831.72485</ele>
        <time>2014-08-26T11:34:55Z</time>
      </trkpt>
      <trkpt lat="46.32462" lon="6.56124">
        <ele>831.72485</ele>
        <time>2014-08-26T11:35:00Z</time>
      </trkpt>
      <trkpt lat="46.32457" lon="6.56131">
        <ele>830.6983</ele>
        <time>2014-08-26T11:35:05Z</time>
      </trkpt>
      <trkpt lat="46.32453" lon="6.56136">
        <ele>830.6983</ele>
        <time>2014-08-26T11:35:10Z</time>
      </trkpt>
      <trkpt lat="46.3245" lon="6.5614">
        <ele>829.5975</ele>
        <time>2014-08-26T11:35:15Z</time>
      </trkpt>
      <trkpt lat="46.32445" lon="6.56145">
        <ele>829.5975</ele>
        <time>2014-08-26T11:35:20Z</time>
      </trkpt>
      <trkpt lat="46.3244" lon="6.56152">
        <ele>828.4583</ele>
        <time>2014-08-26T11:35:25Z</time>
      </trkpt>
      <trkpt lat="46.32436" lon="6.56157">
        <ele>828.4583</ele>
        <time>2014-08-26T11:35:30Z</time>
      </trkpt>
      <trkpt lat="46.32431" lon="6.56162">
        <ele>827.2422</ele>
        <time>2014-08-26T11:35:35Z</time>
      </trkpt>
      <trkpt lat="46.32426" lon="6.56169">
        <ele>827.2422</ele>
        <time>2014-08-26T11:35:40Z</time>
      </trkpt>
      <trkpt lat="46.3242" lon="6.56176">
        <ele>826.08655</ele>
        <time>2014-08-26T11:35:45Z</time>
      </trkpt>
      <trkpt lat="46.32416" lon="6.56182">
        <ele>826.08655</ele>
        <time>2014-08-26T11:35:50Z</time>
      </trkpt>
      <trkpt lat="46.32412" lon="6.56187">
        <ele>824.97406</ele>
        <time>2014-08-26T11:35:55Z</time>
      </trkpt>
      <trkpt lat="46.32408" lon="6.56193">
        <ele>824.97406</ele>
        <time>2014-08-26T11:36:00Z</time>
      </trkpt>
      <trkpt lat="46.32402" lon="6.562">
        <ele>823.91766</ele>
        <time>2014-08-26T11:36:05Z</time>
      </trkpt>
      <trkpt lat="46.32398" lon="6.56206">
        <ele>823.91766</ele>
        <time>2014-08-26T11:36:10Z</time>
      </trkpt>
      <trkpt lat="46.32394" lon="6.5621">
        <ele>822.94324</ele>
        <time>2014-08-26T11:36:15Z</time>
      </trkpt>
      <trkpt lat="46.32389" lon="6.56213">
        <ele>822.94324</ele>
        <time>2014-08-26T11:36:20Z</time>
      </trkpt>
      <trkpt lat="46.32383" lon="6.56214">
        <ele>821.90173</ele>
        <time>2014-08-26T11:36:25Z</time>
      </trkpt>
      <trkpt lat="46.32378" lon="6.56216">
        <ele>821.90173</ele>
        <time>2014-08-26T11:36:30Z</time>
      </trkpt>
      <trkpt lat="46.3237" lon="6.56219">
        <ele>820.81366</ele>
        <time>2014-08-26T11:36:35Z</time>
      </trkpt>
      <trkpt lat="46.32363" lon="6.56221">
        <ele>820.81366</ele>
        <time>2014-08-26T11:36:40Z</time>
      </trkpt>
      <trkpt lat="46.32355" lon="6.56222">
        <ele>819.68365</ele>
        <time>2014-08-26T11:36:45Z</time>
      </trkpt>
      <trkpt lat="46.32347" lon="6.56224">
        <ele>819.68365</ele>
        <time>2014-08-26T11:36:50Z</time>
      </trkpt>
      <trkpt lat="46.3234" lon="6.56225">
        <ele>818.51605</ele>
        <time>2014-08-26T11:36:55Z</time>
      </trkpt>
      <trkpt lat="46.32334" lon="6.56228">
        <ele>818.51605</ele>
        <time>2014-08-26T11:37:00Z</time>
      </trkpt>
      <trkpt lat="46.32327" lon="6.56232">
        <ele>817.27167</ele>
        <time>2014-08-26T11:37:05Z</time>
      </trkpt>
      <trkpt lat="46.3232" lon="6.56236">
        <ele>817.27167</ele>
        <time>2014-08-26T11:37:10Z</time>
      </trkpt>
      <trkpt lat="46.32314" lon="6.56239">
        <ele>816.0009</ele>
        <time>2014-08-26T11:37:15Z</time>
      </trkpt>
      <trkpt lat="46.32307" lon="6.56241">
        <ele>816.0009</ele>
        <time>2014-08-26T11:37:20Z</time>
      </trkpt>
      <trkpt lat="46.32304" lon="6.56241">
        <ele>814.8081</ele>
        <time>2014-08-26T11:37:25Z</time>
      </trkpt>
      <trkpt lat="46.32301" lon="6.56242">
        <ele>814.8081</ele>
        <time>2014-08-26T11:37:30Z</time>
      </trkpt>
      <trkpt lat="46.32301" lon="6.56241">
        <ele>814.8081</ele>
        <time>2014-08-26T11:37:35Z</time>
      </trkpt>
      <trkpt lat="46.32298" lon="6.56246">
        <ele>814.8081</ele>
        <time>2014-08-26T11:37:40Z</time>
      </trkpt>
      <trkpt lat="46.32295" lon="6.56255">
        <ele>813.47253</ele>
        <time>2014-08-26T11:37:45Z</time>
      </trkpt>
      <trkpt lat="46.32293" lon="6.56265">
        <ele>813.47253</ele>
        <time>2014-08-26T11:37:50Z</time>
      </trkpt>
      <trkpt lat="46.32293" lon="6.56281">
        <ele>812.2801</ele>
        <time>2014-08-26T11:37:55Z</time>
      </trkpt>
      <trkpt lat="46.32295" lon="6.56292">
        <ele>812.2801</ele>
        <time>2014-08-26T11:38:00Z</time>
      </trkpt>
      <trkpt lat="46.32302" lon="6.56298">
        <ele>811.279</ele>
        <time>2014-08-26T11:38:05Z</time>
      </trkpt>
      <trkpt lat="46.32307" lon="6.56299">
        <ele>811.279</ele>
        <time>2014-08-26T11:38:10Z</time>
      </trkpt>
      <trkpt lat="46.32312" lon="6.56298">
        <ele>810.26843</ele>
        <time>2014-08-26T11:38:15Z</time>
      </trkpt>
      <trkpt lat="46.32319" lon="6.56302">
        <ele>810.26843</ele>
        <time>2014-08-26T11:38:20Z</time>
      </trkpt>
      <trkpt lat="46.32324" lon="6.56306">
        <ele>809.23505</ele>
        <time>2014-08-26T11:38:25Z</time>
      </trkpt>
      <trkpt lat="46.32329" lon="6.56311">
        <ele>809.23505</ele>
        <time>2014-08-26T11:38:30Z</time>
      </trkpt>
      <trkpt lat="46.32332" lon="6.56314">
        <ele>808.2676</ele>
        <time>2014-08-26T11:38:35Z</time>
      </trkpt>
      <trkpt lat="46.32338" lon="6.56318">
        <ele>808.2676</ele>
        <time>2014-08-26T11:38:40Z</time>
      </trkpt>
      <trkpt lat="46.32342" lon="6.56324">
        <ele>807.34705</ele>
        <time>2014-08-26T11:38:45Z</time>
      </trkpt>
      <trkpt lat="46.32348" lon="6.56328">
        <ele>807.34705</ele>
        <time>2014-08-26T11:38:50Z</time>
      </trkpt>
      <trkpt lat="46.32354" lon="6.56331">
        <ele>806.2827</ele>
        <time>2014-08-26T11:38:55Z</time>
      </trkpt>
      <trkpt lat="46.32357" lon="6.56332">
        <ele>806.2827</ele>
        <time>2014-08-26T11:39:00Z</time>
      </trkpt>
      <trkpt lat="46.32361" lon="6.56337">
        <ele>806.2827</ele>
        <time>2014-08-26T11:39:05Z</time>
      </trkpt>
      <trkpt lat="46.32367" lon="6.56343">
        <ele>805.02795</ele>
        <time>2014-08-26T11:39:10Z</time>
      </trkpt>
      <trkpt lat="46.32373" lon="6.5635">
        <ele>805.02795</ele>
        <time>2014-08-26T11:39:15Z</time>
      </trkpt>
      <trkpt lat="46.32378" lon="6.56358">
        <ele>803.6698</ele>
        <time>2014-08-26T11:39:20Z</time>
      </trkpt>
      <trkpt lat="46.3238" lon="6.56365">
        <ele>803.6698</ele>
        <time>2014-08-26T11:39:25Z</time>
      </trkpt>
      <trkpt lat="46.32383" lon="6.56372">
        <ele>802.2602</ele>
        <time>2014-08-26T11:39:30Z</time>
      </trkpt>
      <trkpt lat="46.32386" lon="6.56383">
        <ele>802.2602</ele>
        <time>2014-08-26T11:39:35Z</time>
      </trkpt>
      <trkpt lat="46.32387" lon="6.56391">
        <ele>800.81866</ele>
        <time>2014-08-26T11:39:40Z</time>
      </trkpt>
      <trkpt lat="46.32389" lon="6.56398">
        <ele>800.81866</ele>
        <time>2014-08-26T11:39:45Z</time>
      </trkpt>
      <trkpt lat="46.32393" lon="6.56408">
        <ele>799.29126</ele>
        <time>2014-08-26T11:39:50Z</time>
      </trkpt>
      <trkpt lat="46.32396" lon="6.56417">
        <ele>799.29126</ele>
        <time>2014-08-26T11:39:55Z</time>
      </trkpt>
      <trkpt lat="46.32399" lon="6.56424">
        <ele>797.71466</ele>
        <time>2014-08-26T11:40:00Z</time>
      </trkpt>
      <trkpt lat="46.32402" lon="6.56432">
        <ele>797.71466</ele>
        <time>2014-08-26T11:40:05Z</time>
      </trkpt>
      <trkpt lat="46.32404" lon="6.56441">
        <ele>796.06525</ele>
        <time>2014-08-26T11:40:10Z</time>
      </trkpt>
      <trkpt lat="46.32406" lon="6.56447">
        <ele>796.06525</ele>
        <time>2014-08-26T11:40:15Z</time>
      </trkpt>
      <trkpt lat="46.32408" lon="6.56456">
        <ele>794.3502</ele>
        <time>2014-08-26T11:40:20Z</time>
      </trkpt>
      <trkpt lat="46.3241" lon="6.56465">
        <ele>794.3502</ele>
        <time>2014-08-26T11:40:25Z</time>
      </trkpt>
      <trkpt lat="46.32412" lon="6.56473">
        <ele>792.5042</ele>
        <time>2014-08-26T11:40:30Z</time>
      </trkpt>
      <trkpt lat="46.32415" lon="6.56481">
        <ele>792.5042</ele>
        <time>2014-08-26T11:40:35Z</time>
      </trkpt>
      <trkpt lat="46.32417" lon="6.56491">
        <ele>790.5824</ele>
        <time>2014-08-26T11:40:40Z</time>
      </trkpt>
      <trkpt lat="46.3242" lon="6.565">
        <ele>790.5824</ele>
        <time>2014-08-26T11:40:45Z</time>
      </trkpt>
      <trkpt lat="46.32422" lon="6.56508">
        <ele>788.6792</ele>
        <time>2014-08-26T11:40:50Z</time>
      </trkpt>
      <trkpt lat="46.32425" lon="6.56515">
        <ele>788.6792</ele>
        <time>2014-08-26T11:40:55Z</time>
      </trkpt>
      <trkpt lat="46.32427" lon="6.56521">
        <ele>786.89636</ele>
        <time>2014-08-26T11:41:00Z</time>
      </trkpt>
      <trkpt lat="46.32428" lon="6.56525">
        <ele>786.89636</ele>
        <time>2014-08-26T11:41:05Z</time>
      </trkpt>
      <trkpt lat="46.32429" lon="6.56526">
        <ele>786.89636</ele>
        <time>2014-08-26T11:41:10Z</time>
      </trkpt>
      <trkpt lat="46.32429" lon="6.56529">
        <ele>786.89636</ele>
        <time>2014-08-26T11:41:15Z</time>
      </trkpt>
      <trkpt lat="46.32427" lon="6.56538">
        <ele>785.0252</ele>
        <time>2014-08-26T11:41:20Z</time>
      </trkpt>
      <trkpt lat="46.32424" lon="6.56548">
        <ele>785.0252</ele>
        <time>2014-08-26T11:41:25Z</time>
      </trkpt>
      <trkpt lat="46.32421" lon="6.56558">
        <ele>783.30493</ele>
        <time>2014-08-26T11:41:30Z</time>
      </trkpt>
      <trkpt lat="46.3242" lon="6.56564">
        <ele>783.30493</ele>
        <time>2014-08-26T11:41:35Z</time>
      </trkpt>
      <trkpt lat="46.32419" lon="6.56573">
        <ele>781.7693</ele>
        <time>2014-08-26T11:41:40Z</time>
      </trkpt>
      <trkpt lat="46.32421" lon="6.56582">
        <ele>781.7693</ele>
        <time>2014-08-26T11:41:45Z</time>
      </trkpt>
      <trkpt lat="46.32422" lon="6.5659">
        <ele>780.1752</ele>
        <time>2014-08-26T11:41:50Z</time>
      </trkpt>
      <trkpt lat="46.32422" lon="6.56595">
        <ele>780.1752</ele>
        <time>2014-08-26T11:41:55Z</time>
      </trkpt>
      <trkpt lat="46.32422" lon="6.56603">
        <ele>778.51355</ele>
        <time>2014-08-26T11:42:00Z</time>
      </trkpt>
      <trkpt lat="46.32424" lon="6.56611">
        <ele>778.51355</ele>
        <time>2014-08-26T11:42:05Z</time>
      </trkpt>
      <trkpt lat="46.32429" lon="6.5662">
        <ele>776.7763</ele>
        <time>2014-08-26T11:42:10Z</time>
      </trkpt>
      <trkpt lat="46.3243" lon="6.56627">
        <ele>776.7763</ele>
        <time>2014-08-26T11:42:15Z</time>
      </trkpt>
      <trkpt lat="46.32429" lon="6.56642">
        <ele>775.02795</ele>
        <time>2014-08-26T11:42:20Z</time>
      </trkpt>
      <trkpt lat="46.32428" lon="6.56652">
        <ele>775.02795</ele>
        <time>2014-08-26T11:42:25Z</time>
      </trkpt>
      <trkpt lat="46.32426" lon="6.5666">
        <ele>773.44366</ele>
        <time>2014-08-26T11:42:30Z</time>
      </trkpt>
      <trkpt lat="46.32423" lon="6.5667">
        <ele>773.44366</ele>
        <time>2014-08-26T11:42:35Z</time>
      </trkpt>
      <trkpt lat="46.32422" lon="6.56679">
        <ele>772.0123</ele>
        <time>2014-08-26T11:42:40Z</time>
      </trkpt>
      <trkpt lat="46.32422" lon="6.56687">
        <ele>772.0123</ele>
        <time>2014-08-26T11:42:45Z</time>
      </trkpt>
      <trkpt lat="46.32422" lon="6.56695">
        <ele>770.7374</ele>
        <time>2014-08-26T11:42:50Z</time>
      </trkpt>
      <trkpt lat="46.32422" lon="6.56708">
        <ele>770.7374</ele>
        <time>2014-08-26T11:42:55Z</time>
      </trkpt>
      <trkpt lat="46.32421" lon="6.56717">
        <ele>769.57855</ele>
        <time>2014-08-26T11:43:00Z</time>
      </trkpt>
      <trkpt lat="46.3242" lon="6.56725">
        <ele>769.57855</ele>
        <time>2014-08-26T11:43:05Z</time>
      </trkpt>
      <trkpt lat="46.32418" lon="6.56734">
        <ele>768.4115</ele>
        <time>2014-08-26T11:43:10Z</time>
      </trkpt>
      <trkpt lat="46.32418" lon="6.56742">
        <ele>768.4115</ele>
        <time>2014-08-26T11:43:15Z</time>
      </trkpt>
      <trkpt lat="46.32417" lon="6.56752">
        <ele>767.2939</ele>
        <time>2014-08-26T11:43:20Z</time>
      </trkpt>
      <trkpt lat="46.32417" lon="6.56757">
        <ele>767.2939</ele>
        <time>2014-08-26T11:43:25Z</time>
      </trkpt>
      <trkpt lat="46.32415" lon="6.56764">
        <ele>767.2939</ele>
        <time>2014-08-26T11:43:30Z</time>
      </trkpt>
      <trkpt lat="46.32412" lon="6.5677">
        <ele>765.9332</ele>
        <time>2014-08-26T11:43:35Z</time>
      </trkpt>
      <trkpt lat="46.3241" lon="6.56778">
        <ele>765.9332</ele>
        <time>2014-08-26T11:43:40Z</time>
      </trkpt>
      <trkpt lat="46.32406" lon="6.56788">
        <ele>764.5347</ele>
        <time>2014-08-26T11:43:45Z</time>
      </trkpt>
      <trkpt lat="46.32404" lon="6.56796">
        <ele>764.5347</ele>
        <time>2014-08-26T11:43:50Z</time>
      </trkpt>
      <trkpt lat="46.32402" lon="6.56807">
        <ele>763.0003</ele>
        <time>2014-08-26T11:43:55Z</time>
      </trkpt>
      <trkpt lat="46.32402" lon="6.56816">
        <ele>763.0003</ele>
        <time>2014-08-26T11:44:00Z</time>
      </trkpt>
      <trkpt lat="46.32401" lon="6.56823">
        <ele>761.4701</ele>
        <time>2014-08-26T11:44:05Z</time>
      </trkpt>
      <trkpt lat="46.32401" lon="6.56833">
        <ele>761.4701</ele>
        <time>2014-08-26T11:44:10Z</time>
      </trkpt>
      <trkpt lat="46.32401" lon="6.56843">
        <ele>759.872</ele>
        <time>2014-08-26T11:44:15Z</time>
      </trkpt>
      <trkpt lat="46.324" lon="6.56852">
        <ele>759.872</ele>
        <time>2014-08-26T11:44:20Z</time>
      </trkpt>
      <trkpt lat="46.324" lon="6.5686">
        <ele>758.2836</ele>
        <time>2014-08-26T11:44:25Z</time>
      </trkpt>
      <trkpt lat="46.32397" lon="6.56872">
        <ele>758.2836</ele>
        <time>2014-08-26T11:44:30Z</time>
      </trkpt>
      <trkpt lat="46.32397" lon="6.56882">
        <ele>756.6903</ele>
        <time>2014-08-26T11:44:35Z</time>
      </trkpt>
      <trkpt lat="46.32396" lon="6.5689">
        <ele>756.6903</ele>
        <time>2014-08-26T11:44:40Z</time>
      </trkpt>
      <trkpt lat="46.32396" lon="6.569">
        <ele>755.25134</ele>
        <time>2014-08-26T11:44:45Z</time>
      </trkpt>
      <trkpt lat="46.32395" lon="6.56911">
        <ele>755.25134</ele>
        <time>2014-08-26T11:44:50Z</time>
      </trkpt>
      <trkpt lat="46.32392" lon="6.56921">
        <ele>753.9267</ele>
        <time>2014-08-26T11:44:55Z</time>
      </trkpt>
      <trkpt lat="46.32392" lon="6.56927">
        <ele>753.9267</ele>
        <time>2014-08-26T11:45:00Z</time>
      </trkpt>
      <trkpt lat="46.32392" lon="6.56927">
        <ele>753.9267</ele>
        <time>2014-08-26T11:45:05Z</time>
      </trkpt>
      <trkpt lat="46.32391" lon="6.56926">
        <ele>753.9267</ele>
        <time>2014-08-26T11:45:10Z</time>
      </trkpt>
      <trkpt lat="46.3239" lon="6.56928">
        <ele>753.9267</ele>
        <time>2014-08-26T11:45:15Z</time>
      </trkpt>
      <trkpt lat="46.32391" lon="6.56931">
        <ele>752.77954</ele>
        <time>2014-08-26T11:45:20Z</time>
      </trkpt>
      <trkpt lat="46.3239" lon="6.56933">
        <ele>752.77954</ele>
        <time>2014-08-26T11:45:25Z</time>
      </trkpt>
      <trkpt lat="46.32392" lon="6.56941">
        <ele>752.77954</ele>
        <time>2014-08-26T11:45:30Z</time>
      </trkpt>
      <trkpt lat="46.3239" lon="6.56952">
        <ele>751.6375</ele>
        <time>2014-08-26T11:45:35Z</time>
      </trkpt>
      <trkpt lat="46.32387" lon="6.56959">
        <ele>751.6375</ele>
        <time>2014-08-26T11:45:40Z</time>
      </trkpt>
      <trkpt lat="46.32387" lon="6.56967">
        <ele>750.5426</ele>
        <time>2014-08-26T11:45:45Z</time>
      </trkpt>
      <trkpt lat="46.32391" lon="6.56976">
        <ele>750.5426</ele>
        <time>2014-08-26T11:45:50Z</time>
      </trkpt>
      <trkpt lat="46.3239" lon="6.56987">
        <ele>749.4614</ele>
        <time>2014-08-26T11:45:55Z</time>
      </trkpt>
      <trkpt lat="46.32389" lon="6.56996">
        <ele>749.4614</ele>
        <time>2014-08-26T11:46:00Z</time>
      </trkpt>
      <trkpt lat="46.32389" lon="6.57004">
        <ele>748.4352</ele>
        <time>2014-08-26T11:46:05Z</time>
      </trkpt>
      <trkpt lat="46.32389" lon="6.57012">
        <ele>748.4352</ele>
        <time>2014-08-26T11:46:10Z</time>
      </trkpt>
      <trkpt lat="46.32389" lon="6.57021">
        <ele>747.37213</ele>
        <time>2014-08-26T11:46:15Z</time>
      </trkpt>
      <trkpt lat="46.32388" lon="6.57031">
        <ele>747.37213</ele>
        <time>2014-08-26T11:46:20Z</time>
      </trkpt>
      <trkpt lat="46.32388" lon="6.57045">
        <ele>746.37463</ele>
        <time>2014-08-26T11:46:25Z</time>
      </trkpt>
      <trkpt lat="46.32388" lon="6.57056">
        <ele>746.37463</ele>
        <time>2014-08-26T11:46:30Z</time>
      </trkpt>
      <trkpt lat="46.3239" lon="6.57066">
        <ele>745.5663</ele>
        <time>2014-08-26T11:46:35Z</time>
      </trkpt>
      <trkpt lat="46.32391" lon="6.57074">
        <ele>745.5663</ele>
        <time>2014-08-26T11:46:40Z</time>
      </trkpt>
      <trkpt lat="46.32392" lon="6.57082">
        <ele>744.83057</ele>
        <time>2014-08-26T11:46:45Z</time>
      </trkpt>
      <trkpt lat="46.32396" lon="6.57088">
        <ele>744.83057</ele>
        <time>2014-08-26T11:46:50Z</time>
      </trkpt>
      <trkpt lat="46.32396" lon="6.57098">
        <ele>744.24646</ele>
        <time>2014-08-26T11:46:55Z</time>
      </trkpt>
      <trkpt lat="46.32396" lon="6.57108">
        <ele>744.24646</ele>
        <time>2014-08-26T11:47:00Z</time>
      </trkpt>
      <trkpt lat="46.32395" lon="6.57113">
        <ele>743.8004</ele>
        <time>2014-08-26T11:47:05Z</time>
      </trkpt>
      <trkpt lat="46.32395" lon="6.57117">
        <ele>743.8004</ele>
        <time>2014-08-26T11:47:10Z</time>
      </trkpt>
      <trkpt lat="46.32396" lon="6.57127">
        <ele>743.4219</ele>
        <time>2014-08-26T11:47:15Z</time>
      </trkpt>
      <trkpt lat="46.32397" lon="6.57134">
        <ele>743.4219</ele>
        <time>2014-08-26T11:47:20Z</time>
      </trkpt>
      <trkpt lat="46.32399" lon="6.57141">
        <ele>743.00195</ele>
        <time>2014-08-26T11:47:25Z</time>
      </trkpt>
      <trkpt lat="46.32399" lon="6.57149">
        <ele>743.00195</ele>
        <time>2014-08-26T11:47:30Z</time>
      </trkpt>
      <trkpt lat="46.32401" lon="6.57153">
        <ele>743.00195</ele>
        <time>2014-08-26T11:47:35Z</time>
      </trkpt>
      <trkpt lat="46.32405" lon="6.57161">
        <ele>742.3825</ele>
        <time>2014-08-26T11:47:40Z</time>
      </trkpt>
      <trkpt lat="46.32404" lon="6.57173">
        <ele>742.3825</ele>
        <time>2014-08-26T11:47:45Z</time>
      </trkpt>
      <trkpt lat="46.32403" lon="6.57184">
        <ele>741.7344</ele>
        <time>2014-08-26T11:47:50Z</time>
      </trkpt>
      <trkpt lat="46.32402" lon="6.57191">
        <ele>741.7344</ele>
        <time>2014-08-26T11:47:55Z</time>
      </trkpt>
      <trkpt lat="46.324" lon="6.57197">
        <ele>741.0864</ele>
        <time>2014-08-26T11:48:00Z</time>
      </trkpt>
      <trkpt lat="46.32399" lon="6.57205">
        <ele>741.0864</ele>
        <time>2014-08-26T11:48:05Z</time>
      </trkpt>
      <trkpt lat="46.32396" lon="6.57214">
        <ele>740.4799</ele>
        <time>2014-08-26T11:48:10Z</time>
      </trkpt>
      <trkpt lat="46.32395" lon="6.57219">
        <ele>740.4799</ele>
        <time>2014-08-26T11:48:15Z</time>
      </trkpt>
      <trkpt lat="46.32392" lon="6.57224">
        <ele>740.4799</ele>
        <time>2014-08-26T11:48:20Z</time>
      </trkpt>
      <trkpt lat="46.32391" lon="6.57232">
        <ele>739.7367</ele>
        <time>2014-08-26T11:48:25Z</time>
      </trkpt>
      <trkpt lat="46.32388" lon="6.57238">
        <ele>739.7367</ele>
        <time>2014-08-26T11:48:30Z</time>
      </trkpt>
      <trkpt lat="46.32388" lon="6.57238">
        <ele>739.7367</ele>
        <time>2014-08-26T11:48:35Z</time>
      </trkpt>
      <trkpt lat="46.32386" lon="6.57241">
        <ele>739.7367</ele>
        <time>2014-08-26T11:48:40Z</time>
      </trkpt>
      <trkpt lat="46.32377" lon="6.57255">
        <ele>738.7498</ele>
        <time>2014-08-26T11:48:45Z</time>
      </trkpt>
      <trkpt lat="46.3237" lon="6.57264">
        <ele>737.7525</ele>
        <time>2014-08-26T11:48:50Z</time>
      </trkpt>
      <trkpt lat="46.32365" lon="6.57273">
        <ele>737.7525</ele>
        <time>2014-08-26T11:48:55Z</time>
      </trkpt>
      <trkpt lat="46.32361" lon="6.57282">
        <ele>736.687</ele>
        <time>2014-08-26T11:49:00Z</time>
      </trkpt>
      <trkpt lat="46.32361" lon="6.57284">
        <ele>736.687</ele>
        <time>2014-08-26T11:49:05Z</time>
      </trkpt>
      <trkpt lat="46.32359" lon="6.57291">
        <ele>736.687</ele>
        <time>2014-08-26T11:49:10Z</time>
      </trkpt>
      <trkpt lat="46.32357" lon="6.573">
        <ele>735.64417</ele>
        <time>2014-08-26T11:49:15Z</time>
      </trkpt>
      <trkpt lat="46.32353" lon="6.57313">
        <ele>734.737</ele>
        <time>2014-08-26T11:49:20Z</time>
      </trkpt>
      <trkpt lat="46.32351" lon="6.57322">
        <ele>734.737</ele>
        <time>2014-08-26T11:49:25Z</time>
      </trkpt>
      <trkpt lat="46.32349" lon="6.5733">
        <ele>733.8249</ele>
        <time>2014-08-26T11:49:30Z</time>
      </trkpt>
      <trkpt lat="46.3235" lon="6.5734">
        <ele>733.8249</ele>
        <time>2014-08-26T11:49:35Z</time>
      </trkpt>
      <trkpt lat="46.32352" lon="6.57346">
        <ele>733.03705</ele>
        <time>2014-08-26T11:49:40Z</time>
      </trkpt>
      <trkpt lat="46.32354" lon="6.57351">
        <ele>733.03705</ele>
        <time>2014-08-26T11:49:45Z</time>
      </trkpt>
      <trkpt lat="46.32353" lon="6.57361">
        <ele>732.26227</ele>
        <time>2014-08-26T11:49:50Z</time>
      </trkpt>
      <trkpt lat="46.32356" lon="6.57365">
        <ele>732.26227</ele>
        <time>2014-08-26T11:49:55Z</time>
      </trkpt>
      <trkpt lat="46.32358" lon="6.57368">
        <ele>732.26227</ele>
        <time>2014-08-26T11:50:00Z</time>
      </trkpt>
      <trkpt lat="46.32359" lon="6.57375">
        <ele>731.3398</ele>
        <time>2014-08-26T11:50:05Z</time>
      </trkpt>
      <trkpt lat="46.32362" lon="6.57382">
        <ele>731.3398</ele>
        <time>2014-08-26T11:50:10Z</time>
      </trkpt>
      <trkpt lat="46.32364" lon="6.57384">
        <ele>731.3398</ele>
        <time>2014-08-26T11:50:15Z</time>
      </trkpt>
      <trkpt lat="46.32364" lon="6.57387">
        <ele>730.27985</ele>
        <time>2014-08-26T11:50:20Z</time>
      </trkpt>
      <trkpt lat="46.32364" lon="6.57389">
        <ele>730.27985</ele>
        <time>2014-08-26T11:50:25Z</time>
      </trkpt>
      <trkpt lat="46.32379" lon="6.5741">
        <ele>729.2219</ele>
        <time>2014-08-26T11:50:30Z</time>
      </trkpt>
      <trkpt lat="46.32385" lon="6.5742">
        <ele>729.2219</ele>
        <time>2014-08-26T11:50:35Z</time>
      </trkpt>
      <trkpt lat="46.32387" lon="6.57429">
        <ele>728.09357</ele>
        <time>2014-08-26T11:50:40Z</time>
      </trkpt>
      <trkpt lat="46.32389" lon="6.57437">
        <ele>728.09357</ele>
        <time>2014-08-26T11:50:45Z</time>
      </trkpt>
      <trkpt lat="46.32392" lon="6.57444">
        <ele>726.89984</ele>
        <time>2014-08-26T11:50:50Z</time>
      </trkpt>
      <trkpt lat="46.32397" lon="6.57453">
        <ele>726.89984</ele>
        <time>2014-08-26T11:50:55Z</time>
      </trkpt>
      <trkpt lat="46.32401" lon="6.57458">
        <ele>725.7756</ele>
        <time>2014-08-26T11:51:00Z</time>
      </trkpt>
      <trkpt lat="46.32406" lon="6.57467">
        <ele>725.7756</ele>
        <time>2014-08-26T11:51:05Z</time>
      </trkpt>
      <trkpt lat="46.32409" lon="6.5747">
        <ele>724.71564</ele>
        <time>2014-08-26T11:51:10Z</time>
      </trkpt>
      <trkpt lat="46.32412" lon="6.57474">
        <ele>724.71564</ele>
        <time>2014-08-26T11:51:15Z</time>
      </trkpt>
      <trkpt lat="46.32414" lon="6.57479">
        <ele>724.71564</ele>
        <time>2014-08-26T11:51:20Z</time>
      </trkpt>
      <trkpt lat="46.32419" lon="6.57486">
        <ele>723.5279</ele>
        <time>2014-08-26T11:51:25Z</time>
      </trkpt>
      <trkpt lat="46.32423" lon="6.57492">
        <ele>723.5279</ele>
        <time>2014-08-26T11:51:30Z</time>
      </trkpt>
      <trkpt lat="46.32427" lon="6.57499">
        <ele>722.3084</ele>
        <time>2014-08-26T11:51:35Z</time>
      </trkpt>
      <trkpt lat="46.32431" lon="6.57504">
        <ele>722.3084</ele>
        <time>2014-08-26T11:51:40Z</time>
      </trkpt>
      <trkpt lat="46.32434" lon="6.57509">
        <ele>721.0888</ele>
        <time>2014-08-26T11:51:45Z</time>
      </trkpt>
      <trkpt lat="46.32438" lon="6.57512">
        <ele>721.0888</ele>
        <time>2014-08-26T11:51:50Z</time>
      </trkpt>
      <trkpt lat="46.32441" lon="6.57516">
        <ele>721.0888</ele>
        <time>2014-08-26T11:51:55Z</time>
      </trkpt>
      <trkpt lat="46.32442" lon="6.57519">
        <ele>719.9559</ele>
        <time>2014-08-26T11:52:00Z</time>
      </trkpt>
      <trkpt lat="46.32442" lon="6.5752">
        <ele>719.9559</ele>
        <time>2014-08-26T11:52:05Z</time>
      </trkpt>
      <trkpt lat="46.32446" lon="6.57524">
        <ele>719.9559</ele>
        <time>2014-08-26T11:52:10Z</time>
      </trkpt>
      <trkpt lat="46.32451" lon="6.57533">
        <ele>718.745</ele>
        <time>2014-08-26T11:52:15Z</time>
      </trkpt>
      <trkpt lat="46.32456" lon="6.5754">
        <ele>718.745</ele>
        <time>2014-08-26T11:52:20Z</time>
      </trkpt>
      <trkpt lat="46.32458" lon="6.57546">
        <ele>717.59204</ele>
        <time>2014-08-26T11:52:25Z</time>
      </trkpt>
      <trkpt lat="46.32461" lon="6.57552">
        <ele>717.59204</ele>
        <time>2014-08-26T11:52:30Z</time>
      </trkpt>
      <trkpt lat="46.32464" lon="6.57554">
        <ele>717.59204</ele>
        <time>2014-08-26T11:52:35Z</time>
      </trkpt>
      <trkpt lat="46.32469" lon="6.5756">
        <ele>716.4065</ele>
        <time>2014-08-26T11:52:40Z</time>
      </trkpt>
      <trkpt lat="46.3247" lon="6.57567">
        <ele>716.4065</ele>
        <time>2014-08-26T11:52:45Z</time>
      </trkpt>
      <trkpt lat="46.32471" lon="6.57574">
        <ele>715.13354</ele>
        <time>2014-08-26T11:52:50Z</time>
      </trkpt>
      <trkpt lat="46.32476" lon="6.57583">
        <ele>715.13354</ele>
        <time>2014-08-26T11:52:55Z</time>
      </trkpt>
      <trkpt lat="46.32479" lon="6.57594">
        <ele>713.9244</ele>
        <time>2014-08-26T11:53:00Z</time>
      </trkpt>
      <trkpt lat="46.32481" lon="6.57609">
        <ele>712.7891</ele>
        <time>2014-08-26T11:53:05Z</time>
      </trkpt>
      <trkpt lat="46.32483" lon="6.57612">
        <ele>712.7891</ele>
        <time>2014-08-26T11:53:10Z</time>
      </trkpt>
      <trkpt lat="46.32485" lon="6.57616">
        <ele>712.7891</ele>
        <time>2014-08-26T11:53:15Z</time>
      </trkpt>
      <trkpt lat="46.32489" lon="6.57624">
        <ele>711.43445</ele>
        <time>2014-08-26T11:53:20Z</time>
      </trkpt>
      <trkpt lat="46.32496" lon="6.57631">
        <ele>711.43445</ele>
        <time>2014-08-26T11:53:25Z</time>
      </trkpt>
      <trkpt lat="46.32498" lon="6.57631">
        <ele>709.9782</ele>
        <time>2014-08-26T11:53:30Z</time>
      </trkpt>
      <trkpt lat="46.32503" lon="6.57639">
        <ele>709.9782</ele>
        <time>2014-08-26T11:53:35Z</time>
      </trkpt>
      <trkpt lat="46.32508" lon="6.57646">
        <ele>708.5588</ele>
        <time>2014-08-26T11:53:40Z</time>
      </trkpt>
      <trkpt lat="46.32509" lon="6.57654">
        <ele>708.5588</ele>
        <time>2014-08-26T11:53:45Z</time>
      </trkpt>
      <trkpt lat="46.32512" lon="6.5766">
        <ele>707.3042</ele>
        <time>2014-08-26T11:53:50Z</time>
      </trkpt>
      <trkpt lat="46.3251" lon="6.57666">
        <ele>707.3042</ele>
        <time>2014-08-26T11:53:55Z</time>
      </trkpt>
      <trkpt lat="46.32513" lon="6.57675">
        <ele>706.1309</ele>
        <time>2014-08-26T11:54:00Z</time>
      </trkpt>
      <trkpt lat="46.32517" lon="6.57678">
        <ele>706.1309</ele>
        <time>2014-08-26T11:54:05Z</time>
      </trkpt>
      <trkpt lat="46.32521" lon="6.57683">
        <ele>705.03326</ele>
        <time>2014-08-26T11:54:10Z</time>
      </trkpt>
      <trkpt lat="46.32523" lon="6.57686">
        <ele>705.03326</ele>
        <time>2014-08-26T11:54:15Z</time>
      </trkpt>
      <trkpt lat="46.32527" lon="6.57691">
        <ele>705.03326</ele>
        <time>2014-08-26T11:54:20Z</time>
      </trkpt>
      <trkpt lat="46.32527" lon="6.57692">
        <ele>703.833</ele>
        <time>2014-08-26T11:54:25Z</time>
      </trkpt>
      <trkpt lat="46.32529" lon="6.57696">
        <ele>703.833</ele>
        <time>2014-08-26T11:54:30Z</time>
      </trkpt>
      <trkpt lat="46.32534" lon="6.57704">
        <ele>702.6678</ele>
        <time>2014-08-26T11:54:35Z</time>
      </trkpt>
      <trkpt lat="46.32539" lon="6.57709">
        <ele>702.6678</ele>
        <time>2014-08-26T11:54:40Z</time>
      </trkpt>
      <trkpt lat="46.32543" lon="6.57717">
        <ele>701.5929</ele>
        <time>2014-08-26T11:54:45Z</time>
      </trkpt>
      <trkpt lat="46.32547" lon="6.5772">
        <ele>701.5929</ele>
        <time>2014-08-26T11:54:50Z</time>
      </trkpt>
      <trkpt lat="46.32551" lon="6.5772">
        <ele>701.5929</ele>
        <time>2014-08-26T11:54:55Z</time>
      </trkpt>
      <trkpt lat="46.32553" lon="6.57718">
        <ele>700.5875</ele>
        <time>2014-08-26T11:55:00Z</time>
      </trkpt>
      <trkpt lat="46.32554" lon="6.57715">
        <ele>700.5875</ele>
        <time>2014-08-26T11:55:05Z</time>
      </trkpt>
      <trkpt lat="46.32557" lon="6.57713">
        <ele>700.5875</ele>
        <time>2014-08-26T11:55:10Z</time>
      </trkpt>
      <trkpt lat="46.32558" lon="6.57712">
        <ele>700.5875</ele>
        <time>2014-08-26T11:55:15Z</time>
      </trkpt>
      <trkpt lat="46.3256" lon="6.57712">
        <ele>700.5875</ele>
        <time>2014-08-26T11:55:20Z</time>
      </trkpt>
      <trkpt lat="46.32559" lon="6.57711">
        <ele>700.5875</ele>
        <time>2014-08-26T11:55:25Z</time>
      </trkpt>
      <trkpt lat="46.32559" lon="6.57711">
        <ele>699.6895</ele>
        <time>2014-08-26T11:55:30Z</time>
      </trkpt>
      <trkpt lat="46.3256" lon="6.57711">
        <ele>699.6895</ele>
        <time>2014-08-26T11:55:35Z</time>
      </trkpt>
      <trkpt lat="46.32561" lon="6.57713">
        <ele>699.6895</ele>
        <time>2014-08-26T11:55:40Z</time>
      </trkpt>
      <trkpt lat="46.32563" lon="6.57717">
        <ele>699.6895</ele>
        <time>2014-08-26T11:55:45Z</time>
      </trkpt>
      <trkpt lat="46.32567" lon="6.57725">
        <ele>698.97705</ele>
        <time>2014-08-26T11:55:50Z</time>
      </trkpt>
      <trkpt lat="46.32567" lon="6.57731">
        <ele>698.97705</ele>
        <time>2014-08-26T11:55:55Z</time>
      </trkpt>
      <trkpt lat="46.32567" lon="6.57738">
        <ele>698.46436</ele>
        <time>2014-08-26T11:56:00Z</time>
      </trkpt>
      <trkpt lat="46.32567" lon="6.57745">
        <ele>698.46436</ele>
        <time>2014-08-26T11:56:05Z</time>
      </trkpt>
      <trkpt lat="46.32566" lon="6.57754">
        <ele>698.0343</ele>
        <time>2014-08-26T11:56:10Z</time>
      </trkpt>
      <trkpt lat="46.32568" lon="6.57764">
        <ele>698.0343</ele>
        <time>2014-08-26T11:56:15Z</time>
      </trkpt>
      <trkpt lat="46.32569" lon="6.57776">
        <ele>697.6359</ele>
        <time>2014-08-26T11:56:20Z</time>
      </trkpt>
      <trkpt lat="46.3257" lon="6.57787">
        <ele>697.6359</ele>
        <time>2014-08-26T11:56:25Z</time>
      </trkpt>
      <trkpt lat="46.3257" lon="6.57794">
        <ele>697.4379</ele>
        <time>2014-08-26T11:56:30Z</time>
      </trkpt>
      <trkpt lat="46.3257" lon="6.57805">
        <ele>697.4379</ele>
        <time>2014-08-26T11:56:35Z</time>
      </trkpt>
      <trkpt lat="46.3257" lon="6.57816">
        <ele>697.38</ele>
        <time>2014-08-26T11:56:40Z</time>
      </trkpt>
      <trkpt lat="46.32568" lon="6.57827">
        <ele>697.38</ele>
        <time>2014-08-26T11:56:45Z</time>
      </trkpt>
      <trkpt lat="46.32567" lon="6.57836">
        <ele>697.49225</ele>
        <time>2014-08-26T11:56:50Z</time>
      </trkpt>
      <trkpt lat="46.32566" lon="6.57844">
        <ele>697.49225</ele>
        <time>2014-08-26T11:56:55Z</time>
      </trkpt>
      <trkpt lat="46.32566" lon="6.57852">
        <ele>697.7446</ele>
        <time>2014-08-26T11:57:00Z</time>
      </trkpt>
      <trkpt lat="46.32567" lon="6.57857">
        <ele>697.7446</ele>
        <time>2014-08-26T11:57:05Z</time>
      </trkpt>
      <trkpt lat="46.32567" lon="6.57856">
        <ele>697.7446</ele>
        <time>2014-08-26T11:57:10Z</time>
      </trkpt>
      <trkpt lat="46.32566" lon="6.57853">
        <ele>697.7446</ele>
        <time>2014-08-26T11:57:15Z</time>
      </trkpt>
      <trkpt lat="46.32566" lon="6.57852">
        <ele>697.7446</ele>
        <time>2014-08-26T11:57:20Z</time>
      </trkpt>
      <trkpt lat="46.32566" lon="6.57852">
        <ele>697.7446</ele>
        <time>2014-08-26T11:57:25Z</time>
      </trkpt>
      <trkpt lat="46.32566" lon="6.57858">
        <ele>697.9503</ele>
        <time>2014-08-26T11:58:30Z</time>
      </trkpt>
      <trkpt lat="46.32566" lon="6.57858">
        <ele>697.9503</ele>
        <time>2014-08-26T11:58:35Z</time>
      </trkpt>
      <trkpt lat="46.32568" lon="6.57863">
        <ele>697.9503</ele>
        <time>2014-08-26T11:58:40Z</time>
      </trkpt>
      <trkpt lat="46.3257" lon="6.57872">
        <ele>698.06616</ele>
        <time>2014-08-26T11:58:45Z</time>
      </trkpt>
      <trkpt lat="46.3257" lon="6.5788">
        <ele>698.06616</ele>
        <time>2014-08-26T11:58:50Z</time>
      </trkpt>
      <trkpt lat="46.32569" lon="6.57889">
        <ele>698.11</ele>
        <time>2014-08-26T11:58:55Z</time>
      </trkpt>
      <trkpt lat="46.32572" lon="6.579">
        <ele>698.11</ele>
        <time>2014-08-26T11:59:00Z</time>
      </trkpt>
      <trkpt lat="46.32576" lon="6.5791">
        <ele>698.3437</ele>
        <time>2014-08-26T11:59:05Z</time>
      </trkpt>
      <trkpt lat="46.32578" lon="6.57917">
        <ele>698.3437</ele>
        <time>2014-08-26T11:59:10Z</time>
      </trkpt>
      <trkpt lat="46.3258" lon="6.57923">
        <ele>698.5771</ele>
        <time>2014-08-26T11:59:15Z</time>
      </trkpt>
      <trkpt lat="46.3258" lon="6.57931">
        <ele>698.5771</ele>
        <time>2014-08-26T11:59:20Z</time>
      </trkpt>
      <trkpt lat="46.3258" lon="6.5794">
        <ele>698.70605</ele>
        <time>2014-08-26T11:59:25Z</time>
      </trkpt>
      <trkpt lat="46.3258" lon="6.57946">
        <ele>698.70605</ele>
        <time>2014-08-26T11:59:30Z</time>
      </trkpt>
      <trkpt lat="46.32578" lon="6.57956">
        <ele>698.6634</ele>
        <time>2014-08-26T11:59:35Z</time>
      </trkpt>
      <trkpt lat="46.32578" lon="6.57962">
        <ele>698.6634</ele>
        <time>2014-08-26T11:59:40Z</time>
      </trkpt>
      <trkpt lat="46.32577" lon="6.57972">
        <ele>698.5169</ele>
        <time>2014-08-26T11:59:45Z</time>
      </trkpt>
      <trkpt lat="46.32577" lon="6.57981">
        <ele>698.5169</ele>
        <time>2014-08-26T11:59:50Z</time>
      </trkpt>
      <trkpt lat="46.32576" lon="6.57989">
        <ele>698.3011</ele>
        <time>2014-08-26T11:59:55Z</time>
      </trkpt>
      <trkpt lat="46.32574" lon="6.57998">
        <ele>698.3011</ele>
        <time>2014-08-26T12:00:00Z</time>
      </trkpt>
      <trkpt lat="46.32571" lon="6.58008">
        <ele>698.0483</ele>
        <time>2014-08-26T12:00:05Z</time>
      </trkpt>
      <trkpt lat="46.32568" lon="6.58018">
        <ele>698.0483</ele>
        <time>2014-08-26T12:00:10Z</time>
      </trkpt>
      <trkpt lat="46.32565" lon="6.58025">
        <ele>697.7884</ele>
        <time>2014-08-26T12:00:15Z</time>
      </trkpt>
      <trkpt lat="46.32562" lon="6.58028">
        <ele>697.7884</ele>
        <time>2014-08-26T12:00:20Z</time>
      </trkpt>
      <trkpt lat="46.32561" lon="6.58032">
        <ele>697.7884</ele>
        <time>2014-08-26T12:00:25Z</time>
      </trkpt>
      <trkpt lat="46.3256" lon="6.58034">
        <ele>697.7884</ele>
        <time>2014-08-26T12:00:30Z</time>
      </trkpt>
      <trkpt lat="46.32559" lon="6.58039">
        <ele>697.3187</ele>
        <time>2014-08-26T12:00:35Z</time>
      </trkpt>
      <trkpt lat="46.32557" lon="6.58046">
        <ele>697.3187</ele>
        <time>2014-08-26T12:00:40Z</time>
      </trkpt>
      <trkpt lat="46.32556" lon="6.58054">
        <ele>696.7549</ele>
        <time>2014-08-26T12:00:45Z</time>
      </trkpt>
      <trkpt lat="46.32555" lon="6.5806">
        <ele>696.7549</ele>
        <time>2014-08-26T12:00:50Z</time>
      </trkpt>
      <trkpt lat="46.32551" lon="6.58064">
        <ele>696.7549</ele>
        <time>2014-08-26T12:00:55Z</time>
      </trkpt>
      <trkpt lat="46.3255" lon="6.58064">
        <ele>696.3195</ele>
        <time>2014-08-26T12:01:00Z</time>
      </trkpt>
      <trkpt lat="46.32549" lon="6.58069">
        <ele>696.3195</ele>
        <time>2014-08-26T12:01:05Z</time>
      </trkpt>
      <trkpt lat="46.32548" lon="6.58073">
        <ele>696.3195</ele>
        <time>2014-08-26T12:01:10Z</time>
      </trkpt>
      <trkpt lat="46.32547" lon="6.58076">
        <ele>696.3195</ele>
        <time>2014-08-26T12:01:15Z</time>
      </trkpt>
      <trkpt lat="46.32545" lon="6.5808">
        <ele>695.94476</ele>
        <time>2014-08-26T12:01:20Z</time>
      </trkpt>
      <trkpt lat="46.32546" lon="6.58087">
        <ele>695.94476</ele>
        <time>2014-08-26T12:01:25Z</time>
      </trkpt>
      <trkpt lat="46.32547" lon="6.58098">
        <ele>695.6398</ele>
        <time>2014-08-26T12:01:30Z</time>
      </trkpt>
      <trkpt lat="46.32547" lon="6.58099">
        <ele>695.6398</ele>
        <time>2014-08-26T12:01:35Z</time>
      </trkpt>
      <trkpt lat="46.32546" lon="6.58105">
        <ele>695.6398</ele>
        <time>2014-08-26T12:01:40Z</time>
      </trkpt>
      <trkpt lat="46.3254" lon="6.5812">
        <ele>695.21106</ele>
        <time>2014-08-26T12:01:45Z</time>
      </trkpt>
      <trkpt lat="46.32541" lon="6.58128">
        <ele>695.21106</ele>
        <time>2014-08-26T12:01:50Z</time>
      </trkpt>
      <trkpt lat="46.32543" lon="6.58131">
        <ele>695.21106</ele>
        <time>2014-08-26T12:01:55Z</time>
      </trkpt>
      <trkpt lat="46.32546" lon="6.58131">
        <ele>694.55194</ele>
        <time>2014-08-26T12:02:00Z</time>
      </trkpt>
      <trkpt lat="46.32549" lon="6.58131">
        <ele>694.55194</ele>
        <time>2014-08-26T12:02:05Z</time>
      </trkpt>
      <trkpt lat="46.32556" lon="6.58132">
        <ele>693.8379</ele>
        <time>2014-08-26T12:02:10Z</time>
      </trkpt>
      <trkpt lat="46.32564" lon="6.58131">
        <ele>693.8379</ele>
        <time>2014-08-26T12:02:15Z</time>
      </trkpt>
      <trkpt lat="46.32569" lon="6.58129">
        <ele>693.1021</ele>
        <time>2014-08-26T12:02:20Z</time>
      </trkpt>
      <trkpt lat="46.32574" lon="6.58128">
        <ele>693.1021</ele>
        <time>2014-08-26T12:02:25Z</time>
      </trkpt>
      <trkpt lat="46.3258" lon="6.5813">
        <ele>692.34674</ele>
        <time>2014-08-26T12:02:30Z</time>
      </trkpt>
      <trkpt lat="46.32585" lon="6.5813">
        <ele>692.34674</ele>
        <time>2014-08-26T12:02:35Z</time>
      </trkpt>
      <trkpt lat="46.32591" lon="6.58132">
        <ele>691.444</ele>
        <time>2014-08-26T12:02:40Z</time>
      </trkpt>
      <trkpt lat="46.32594" lon="6.58133">
        <ele>691.444</ele>
        <time>2014-08-26T12:02:45Z</time>
      </trkpt>
      <trkpt lat="46.32596" lon="6.58134">
        <ele>691.444</ele>
        <time>2014-08-26T12:02:50Z</time>
      </trkpt>
      <trkpt lat="46.32602" lon="6.58138">
        <ele>690.34796</ele>
        <time>2014-08-26T12:02:55Z</time>
      </trkpt>
      <trkpt lat="46.32604" lon="6.58143">
        <ele>690.34796</ele>
        <time>2014-08-26T12:03:00Z</time>
      </trkpt>
      <trkpt lat="46.32604" lon="6.5815">
        <ele>690.34796</ele>
        <time>2014-08-26T12:03:05Z</time>
      </trkpt>
      <trkpt lat="46.32601" lon="6.58157">
        <ele>688.7575</ele>
        <time>2014-08-26T12:03:10Z</time>
      </trkpt>
      <trkpt lat="46.32597" lon="6.58159">
        <ele>688.7575</ele>
        <time>2014-08-26T12:03:15Z</time>
      </trkpt>
      <trkpt lat="46.32595" lon="6.5816">
        <ele>688.7575</ele>
        <time>2014-08-26T12:03:20Z</time>
      </trkpt>
      <trkpt lat="46.32593" lon="6.58161">
        <ele>688.7575</ele>
        <time>2014-08-26T12:03:25Z</time>
      </trkpt>
      <trkpt lat="46.3259" lon="6.58166">
        <ele>686.4092</ele>
        <time>2014-08-26T12:03:30Z</time>
      </trkpt>
      <trkpt lat="46.32582" lon="6.5817">
        <ele>686.4092</ele>
        <time>2014-08-26T12:03:35Z</time>
      </trkpt>
      <trkpt lat="46.32576" lon="6.58176">
        <ele>683.9258</ele>
        <time>2014-08-26T12:03:40Z</time>
      </trkpt>
      <trkpt lat="46.32565" lon="6.58184">
        <ele>681.55334</ele>
        <time>2014-08-26T12:03:45Z</time>
      </trkpt>
      <trkpt lat="46.32558" lon="6.58192">
        <ele>681.55334</ele>
        <time>2014-08-26T12:03:50Z</time>
      </trkpt>
      <trkpt lat="46.32552" lon="6.582">
        <ele>679.26</ele>
        <time>2014-08-26T12:03:55Z</time>
      </trkpt>
      <trkpt lat="46.32544" lon="6.58203">
        <ele>679.26</ele>
        <time>2014-08-26T12:04:00Z</time>
      </trkpt>
      <trkpt lat="46.32538" lon="6.58209">
        <ele>677.16016</ele>
        <time>2014-08-26T12:04:05Z</time>
      </trkpt>
      <trkpt lat="46.32533" lon="6.58214">
        <ele>677.16016</ele>
        <time>2014-08-26T12:04:10Z</time>
      </trkpt>
      <trkpt lat="46.32529" lon="6.58219">
        <ele>675.2006</ele>
        <time>2014-08-26T12:04:15Z</time>
      </trkpt>
      <trkpt lat="46.32525" lon="6.58223">
        <ele>675.2006</ele>
        <time>2014-08-26T12:04:20Z</time>
      </trkpt>
      <trkpt lat="46.32523" lon="6.58229">
        <ele>673.3606</ele>
        <time>2014-08-26T12:04:25Z</time>
      </trkpt>
      <trkpt lat="46.32522" lon="6.58232">
        <ele>673.3606</ele>
        <time>2014-08-26T12:04:30Z</time>
      </trkpt>
      <trkpt lat="46.32521" lon="6.58235">
        <ele>673.3606</ele>
        <time>2014-08-26T12:04:35Z</time>
      </trkpt>
      <trkpt lat="46.32519" lon="6.58245">
        <ele>671.3176</ele>
        <time>2014-08-26T12:04:40Z</time>
      </trkpt>
      <trkpt lat="46.32516" lon="6.58249">
        <ele>671.3176</ele>
        <time>2014-08-26T12:04:45Z</time>
      </trkpt>
      <trkpt lat="46.32512" lon="6.58256">
        <ele>669.1771</ele>
        <time>2014-08-26T12:04:50Z</time>
      </trkpt>
      <trkpt lat="46.3251" lon="6.58261">
        <ele>669.1771</ele>
        <time>2014-08-26T12:04:55Z</time>
      </trkpt>
      <trkpt lat="46.32506" lon="6.58265">
        <ele>669.1771</ele>
        <time>2014-08-26T12:05:00Z</time>
      </trkpt>
      <trkpt lat="46.32505" lon="6.58266">
        <ele>667.1521</ele>
        <time>2014-08-26T12:05:05Z</time>
      </trkpt>
      <trkpt lat="46.32504" lon="6.58267">
        <ele>667.1521</ele>
        <time>2014-08-26T12:05:10Z</time>
      </trkpt>
      <trkpt lat="46.32501" lon="6.58266">
        <ele>667.1521</ele>
        <time>2014-08-26T12:05:15Z</time>
      </trkpt>
      <trkpt lat="46.32496" lon="6.58266">
        <ele>665.18024</ele>
        <time>2014-08-26T12:05:20Z</time>
      </trkpt>
      <trkpt lat="46.32493" lon="6.58271">
        <ele>665.18024</ele>
        <time>2014-08-26T12:05:25Z</time>
      </trkpt>
      <trkpt lat="46.32486" lon="6.58283">
        <ele>663.3332</ele>
        <time>2014-08-26T12:05:30Z</time>
      </trkpt>
      <trkpt lat="46.32486" lon="6.5829">
        <ele>663.3332</ele>
        <time>2014-08-26T12:05:35Z</time>
      </trkpt>
      <trkpt lat="46.32488" lon="6.58293">
        <ele>663.3332</ele>
        <time>2014-08-26T12:05:40Z</time>
      </trkpt>
      <trkpt lat="46.32491" lon="6.58298">
        <ele>661.6913</ele>
        <time>2014-08-26T12:05:45Z</time>
      </trkpt>
      <trkpt lat="46.32492" lon="6.58299">
        <ele>661.6913</ele>
        <time>2014-08-26T12:05:50Z</time>
      </trkpt>
      <trkpt lat="46.32495" lon="6.58301">
        <ele>661.6913</ele>
        <time>2014-08-26T12:05:55Z</time>
      </trkpt>
      <trkpt lat="46.32501" lon="6.58302">
        <ele>659.88165</ele>
        <time>2014-08-26T12:06:00Z</time>
      </trkpt>
      <trkpt lat="46.32503" lon="6.58301">
        <ele>659.88165</ele>
        <time>2014-08-26T12:06:05Z</time>
      </trkpt>
      <trkpt lat="46.3251" lon="6.58301">
        <ele>658.0923</ele>
        <time>2014-08-26T12:06:10Z</time>
      </trkpt>
      <trkpt lat="46.32518" lon="6.58298">
        <ele>658.0923</ele>
        <time>2014-08-26T12:06:15Z</time>
      </trkpt>
      <trkpt lat="46.32524" lon="6.58294">
        <ele>656.20905</ele>
        <time>2014-08-26T12:06:20Z</time>
      </trkpt>
      <trkpt lat="46.32529" lon="6.58291">
        <ele>656.20905</ele>
        <time>2014-08-26T12:06:25Z</time>
      </trkpt>
      <trkpt lat="46.32532" lon="6.58285">
        <ele>654.38574</ele>
        <time>2014-08-26T12:06:30Z</time>
      </trkpt>
      <trkpt lat="46.32535" lon="6.58286">
        <ele>654.38574</ele>
        <time>2014-08-26T12:06:35Z</time>
      </trkpt>
      <trkpt lat="46.32537" lon="6.58291">
        <ele>654.38574</ele>
        <time>2014-08-26T12:06:40Z</time>
      </trkpt>
      <trkpt lat="46.32537" lon="6.58294">
        <ele>652.6205</ele>
        <time>2014-08-26T12:06:45Z</time>
      </trkpt>
      <trkpt lat="46.32538" lon="6.58297">
        <ele>652.6205</ele>
        <time>2014-08-26T12:06:50Z</time>
      </trkpt>
      <trkpt lat="46.32539" lon="6.58303">
        <ele>652.6205</ele>
        <time>2014-08-26T12:06:55Z</time>
      </trkpt>
      <trkpt lat="46.3254" lon="6.58311">
        <ele>650.5222</ele>
        <time>2014-08-26T12:07:00Z</time>
      </trkpt>
      <trkpt lat="46.32539" lon="6.58314">
        <ele>650.5222</ele>
        <time>2014-08-26T12:07:05Z</time>
      </trkpt>
      <trkpt lat="46.3254" lon="6.5832">
        <ele>650.5222</ele>
        <time>2014-08-26T12:07:10Z</time>
      </trkpt>
      <trkpt lat="46.32541" lon="6.58334">
        <ele>648.032</ele>
        <time>2014-08-26T12:07:15Z</time>
      </trkpt>
      <trkpt lat="46.32541" lon="6.58345">
        <ele>648.032</ele>
        <time>2014-08-26T12:07:20Z</time>
      </trkpt>
      <trkpt lat="46.32545" lon="6.58351">
        <ele>645.5431</ele>
        <time>2014-08-26T12:07:25Z</time>
      </trkpt>
      <trkpt lat="46.32547" lon="6.58361">
        <ele>645.5431</ele>
        <time>2014-08-26T12:07:30Z</time>
      </trkpt>
      <trkpt lat="46.3255" lon="6.58371">
        <ele>643.16016</ele>
        <time>2014-08-26T12:07:35Z</time>
      </trkpt>
      <trkpt lat="46.32553" lon="6.5838">
        <ele>643.16016</ele>
        <time>2014-08-26T12:07:40Z</time>
      </trkpt>
      <trkpt lat="46.32558" lon="6.58391">
        <ele>640.90796</ele>
        <time>2014-08-26T12:07:45Z</time>
      </trkpt>
      <trkpt lat="46.3256" lon="6.58394">
        <ele>640.90796</ele>
        <time>2014-08-26T12:07:50Z</time>
      </trkpt>
      <trkpt lat="46.32563" lon="6.58399">
        <ele>640.90796</ele>
        <time>2014-08-26T12:07:55Z</time>
      </trkpt>
      <trkpt lat="46.32567" lon="6.58402">
        <ele>638.7367</ele>
        <time>2014-08-26T12:08:00Z</time>
      </trkpt>
      <trkpt lat="46.32568" lon="6.58408">
        <ele>638.7367</ele>
        <time>2014-08-26T12:08:05Z</time>
      </trkpt>
      <trkpt lat="46.32572" lon="6.58413">
        <ele>636.67206</ele>
        <time>2014-08-26T12:08:10Z</time>
      </trkpt>
      <trkpt lat="46.32575" lon="6.58416">
        <ele>636.67206</ele>
        <time>2014-08-26T12:08:15Z</time>
      </trkpt>
      <trkpt lat="46.3258" lon="6.58422">
        <ele>634.80945</ele>
        <time>2014-08-26T12:08:20Z</time>
      </trkpt>
      <trkpt lat="46.32582" lon="6.58424">
        <ele>634.80945</ele>
        <time>2014-08-26T12:08:25Z</time>
      </trkpt>
      <trkpt lat="46.32585" lon="6.58429">
        <ele>634.80945</ele>
        <time>2014-08-26T12:08:30Z</time>
      </trkpt>
      <trkpt lat="46.32584" lon="6.58431">
        <ele>634.80945</ele>
        <time>2014-08-26T12:08:35Z</time>
      </trkpt>
      <trkpt lat="46.32583" lon="6.58431">
        <ele>634.80945</ele>
        <time>2014-08-26T12:08:40Z</time>
      </trkpt>
      <trkpt lat="46.3258" lon="6.58431">
        <ele>632.34314</ele>
        <time>2014-08-26T12:08:45Z</time>
      </trkpt>
      <trkpt lat="46.32579" lon="6.58431">
        <ele>632.34314</ele>
        <time>2014-08-26T12:08:50Z</time>
      </trkpt>
      <trkpt lat="46.32577" lon="6.58431">
        <ele>632.34314</ele>
        <time>2014-08-26T12:08:55Z</time>
      </trkpt>
      <trkpt lat="46.32572" lon="6.58432">
        <ele>632.34314</ele>
        <time>2014-08-26T12:09:00Z</time>
      </trkpt>
      <trkpt lat="46.32563" lon="6.58444">
        <ele>629.75305</ele>
        <time>2014-08-26T12:09:05Z</time>
      </trkpt>
      <trkpt lat="46.32557" lon="6.58445">
        <ele>629.75305</ele>
        <time>2014-08-26T12:09:10Z</time>
      </trkpt>
      <trkpt lat="46.32556" lon="6.58444">
        <ele>629.75305</ele>
        <time>2014-08-26T12:09:15Z</time>
      </trkpt>
      <trkpt lat="46.32552" lon="6.58444">
        <ele>627.1815</ele>
        <time>2014-08-26T12:09:20Z</time>
      </trkpt>
      <trkpt lat="46.32545" lon="6.58444">
        <ele>627.1815</ele>
        <time>2014-08-26T12:09:25Z</time>
      </trkpt>
      <trkpt lat="46.32542" lon="6.58443">
        <ele>624.44324</ele>
        <time>2014-08-26T12:09:30Z</time>
      </trkpt>
      <trkpt lat="46.32539" lon="6.58444">
        <ele>624.44324</ele>
        <time>2014-08-26T12:09:35Z</time>
      </trkpt>
      <trkpt lat="46.32539" lon="6.58445">
        <ele>624.44324</ele>
        <time>2014-08-26T12:09:40Z</time>
      </trkpt>
      <trkpt lat="46.32535" lon="6.58443">
        <ele>624.44324</ele>
        <time>2014-08-26T12:09:45Z</time>
      </trkpt>
      <trkpt lat="46.32532" lon="6.58441">
        <ele>621.3379</ele>
        <time>2014-08-26T12:09:50Z</time>
      </trkpt>
      <trkpt lat="46.3253" lon="6.58442">
        <ele>621.3379</ele>
        <time>2014-08-26T12:09:55Z</time>
      </trkpt>
      <trkpt lat="46.32527" lon="6.58443">
        <ele>621.3379</ele>
        <time>2014-08-26T12:10:00Z</time>
      </trkpt>
      <trkpt lat="46.32527" lon="6.58443">
        <ele>621.3379</ele>
        <time>2014-08-26T12:10:05Z</time>
      </trkpt>
      <trkpt lat="46.32522" lon="6.58441">
        <ele>617.63776</ele>
        <time>2014-08-26T12:10:10Z</time>
      </trkpt>
      <trkpt lat="46.32515" lon="6.5844">
        <ele>617.63776</ele>
        <time>2014-08-26T12:10:15Z</time>
      </trkpt>
      <trkpt lat="46.32507" lon="6.58438">
        <ele>613.86816</ele>
        <time>2014-08-26T12:10:20Z</time>
      </trkpt>
      <trkpt lat="46.32502" lon="6.58438">
        <ele>613.86816</ele>
        <time>2014-08-26T12:10:25Z</time>
      </trkpt>
      <trkpt lat="46.32494" lon="6.58441">
        <ele>610.4297</ele>
        <time>2014-08-26T12:10:30Z</time>
      </trkpt>
      <trkpt lat="46.3249" lon="6.58441">
        <ele>610.4297</ele>
        <time>2014-08-26T12:10:35Z</time>
      </trkpt>
      <trkpt lat="46.32483" lon="6.58443">
        <ele>607.27423</ele>
        <time>2014-08-26T12:10:40Z</time>
      </trkpt>
      <trkpt lat="46.32483" lon="6.58444">
        <ele>607.27423</ele>
        <time>2014-08-26T12:10:45Z</time>
      </trkpt>
      <trkpt lat="46.3248" lon="6.58446">
        <ele>607.27423</ele>
        <time>2014-08-26T12:10:50Z</time>
      </trkpt>
      <trkpt lat="46.32471" lon="6.58453">
        <ele>604.2988</ele>
        <time>2014-08-26T12:10:55Z</time>
      </trkpt>
      <trkpt lat="46.32469" lon="6.58453">
        <ele>604.2988</ele>
        <time>2014-08-26T12:11:00Z</time>
      </trkpt>
      <trkpt lat="46.32458" lon="6.58458">
        <ele>601.58026</ele>
        <time>2014-08-26T12:11:05Z</time>
      </trkpt>
      <trkpt lat="46.32447" lon="6.58465">
        <ele>599.16003</ele>
        <time>2014-08-26T12:11:10Z</time>
      </trkpt>
      <trkpt lat="46.3244" lon="6.58467">
        <ele>599.16003</ele>
        <time>2014-08-26T12:11:15Z</time>
      </trkpt>
      <trkpt lat="46.32436" lon="6.58467">
        <ele>596.773</ele>
        <time>2014-08-26T12:11:20Z</time>
      </trkpt>
      <trkpt lat="46.32436" lon="6.58467">
        <ele>596.773</ele>
        <time>2014-08-26T12:11:25Z</time>
      </trkpt>
      <trkpt lat="46.32433" lon="6.58468">
        <ele>596.773</ele>
        <time>2014-08-26T12:11:30Z</time>
      </trkpt>
      <trkpt lat="46.32427" lon="6.58472">
        <ele>594.2741</ele>
        <time>2014-08-26T12:11:35Z</time>
      </trkpt>
      <trkpt lat="46.32421" lon="6.58476">
        <ele>594.2741</ele>
        <time>2014-08-26T12:11:40Z</time>
      </trkpt>
      <trkpt lat="46.32417" lon="6.58482">
        <ele>591.9471</ele>
        <time>2014-08-26T12:11:45Z</time>
      </trkpt>
      <trkpt lat="46.32413" lon="6.58485">
        <ele>591.9471</ele>
        <time>2014-08-26T12:11:50Z</time>
      </trkpt>
      <trkpt lat="46.32411" lon="6.58487">
        <ele>591.9471</ele>
        <time>2014-08-26T12:11:55Z</time>
      </trkpt>
      <trkpt lat="46.32409" lon="6.5849">
        <ele>589.3481</ele>
        <time>2014-08-26T12:12:00Z</time>
      </trkpt>
      <trkpt lat="46.32408" lon="6.58497">
        <ele>589.3481</ele>
        <time>2014-08-26T12:12:05Z</time>
      </trkpt>
      <trkpt lat="46.32406" lon="6.58497">
        <ele>589.3481</ele>
        <time>2014-08-26T12:12:10Z</time>
      </trkpt>
      <trkpt lat="46.32409" lon="6.58502">
        <ele>586.4987</ele>
        <time>2014-08-26T12:12:15Z</time>
      </trkpt>
      <trkpt lat="46.32411" lon="6.58507">
        <ele>586.4987</ele>
        <time>2014-08-26T12:12:20Z</time>
      </trkpt>
      <trkpt lat="46.32413" lon="6.5851">
        <ele>586.4987</ele>
        <time>2014-08-26T12:12:25Z</time>
      </trkpt>
      <trkpt lat="46.32419" lon="6.58514">
        <ele>583.6648</ele>
        <time>2014-08-26T12:12:30Z</time>
      </trkpt>
      <trkpt lat="46.32422" lon="6.58518">
        <ele>583.6648</ele>
        <time>2014-08-26T12:12:35Z</time>
      </trkpt>
      <trkpt lat="46.32422" lon="6.58524">
        <ele>583.6648</ele>
        <time>2014-08-26T12:12:40Z</time>
      </trkpt>
      <trkpt lat="46.32421" lon="6.58528">
        <ele>580.804</ele>
        <time>2014-08-26T12:12:45Z</time>
      </trkpt>
      <trkpt lat="46.32416" lon="6.58528">
        <ele>580.804</ele>
        <time>2014-08-26T12:12:50Z</time>
      </trkpt>
      <trkpt lat="46.32414" lon="6.58529">
        <ele>580.804</ele>
        <time>2014-08-26T12:12:55Z</time>
      </trkpt>
      <trkpt lat="46.32412" lon="6.5853">
        <ele>580.804</ele>
        <time>2014-08-26T12:13:00Z</time>
      </trkpt>
      <trkpt lat="46.32409" lon="6.58534">
        <ele>577.762</ele>
        <time>2014-08-26T12:13:05Z</time>
      </trkpt>
      <trkpt lat="46.32404" lon="6.58543">
        <ele>577.762</ele>
        <time>2014-08-26T12:13:10Z</time>
      </trkpt>
      <trkpt lat="46.32402" lon="6.58547">
        <ele>574.7707</ele>
        <time>2014-08-26T12:13:15Z</time>
      </trkpt>
      <trkpt lat="46.32397" lon="6.58554">
        <ele>574.7707</ele>
        <time>2014-08-26T12:13:20Z</time>
      </trkpt>
      <trkpt lat="46.32395" lon="6.58556">
        <ele>574.7707</ele>
        <time>2014-08-26T12:13:25Z</time>
      </trkpt>
      <trkpt lat="46.32392" lon="6.58562">
        <ele>571.7278</ele>
        <time>2014-08-26T12:13:30Z</time>
      </trkpt>
      <trkpt lat="46.32386" lon="6.58566">
        <ele>571.7278</ele>
        <time>2014-08-26T12:13:35Z</time>
      </trkpt>
      <trkpt lat="46.32383" lon="6.58564">
        <ele>568.9997</ele>
        <time>2014-08-26T12:13:40Z</time>
      </trkpt>
      <trkpt lat="46.32384" lon="6.58564">
        <ele>568.9997</ele>
        <time>2014-08-26T12:13:45Z</time>
      </trkpt>
      <trkpt lat="46.32387" lon="6.58564">
        <ele>568.9997</ele>
        <time>2014-08-26T12:13:50Z</time>
      </trkpt>
      <trkpt lat="46.3239" lon="6.58564">
        <ele>568.9997</ele>
        <time>2014-08-26T12:13:55Z</time>
      </trkpt>
      <trkpt lat="46.32391" lon="6.58564">
        <ele>568.9997</ele>
        <time>2014-08-26T12:14:00Z</time>
      </trkpt>
      <trkpt lat="46.32397" lon="6.58564">
        <ele>566.3339</ele>
        <time>2014-08-26T12:14:05Z</time>
      </trkpt>
      <trkpt lat="46.32401" lon="6.58567">
        <ele>566.3339</ele>
        <time>2014-08-26T12:14:10Z</time>
      </trkpt>
      <trkpt lat="46.32406" lon="6.58568">
        <ele>563.8855</ele>
        <time>2014-08-26T12:14:15Z</time>
      </trkpt>
      <trkpt lat="46.32409" lon="6.58569">
        <ele>563.8855</ele>
        <time>2014-08-26T12:14:20Z</time>
      </trkpt>
      <trkpt lat="46.32411" lon="6.58568">
        <ele>563.8855</ele>
        <time>2014-08-26T12:14:25Z</time>
      </trkpt>
      <trkpt lat="46.32415" lon="6.58567">
        <ele>563.8855</ele>
        <time>2014-08-26T12:14:30Z</time>
      </trkpt>
      <trkpt lat="46.32419" lon="6.58567">
        <ele>561.2497</ele>
        <time>2014-08-26T12:14:35Z</time>
      </trkpt>
      <trkpt lat="46.32431" lon="6.58562">
        <ele>558.859</ele>
        <time>2014-08-26T12:14:40Z</time>
      </trkpt>
      <trkpt lat="46.32434" lon="6.58564">
        <ele>558.859</ele>
        <time>2014-08-26T12:14:45Z</time>
      </trkpt>
      <trkpt lat="46.32438" lon="6.58566">
        <ele>558.859</ele>
        <time>2014-08-26T12:14:50Z</time>
      </trkpt>
      <trkpt lat="46.32456" lon="6.58574">
        <ele>556.2774</ele>
        <time>2014-08-26T12:14:55Z</time>
      </trkpt>
      <trkpt lat="46.32457" lon="6.58579">
        <ele>556.2774</ele>
        <time>2014-08-26T12:15:00Z</time>
      </trkpt>
      <trkpt lat="46.32455" lon="6.58589">
        <ele>553.7788</ele>
        <time>2014-08-26T12:15:05Z</time>
      </trkpt>
      <trkpt lat="46.32451" lon="6.58593">
        <ele>553.7788</ele>
        <time>2014-08-26T12:15:10Z</time>
      </trkpt>
      <trkpt lat="46.32447" lon="6.58593">
        <ele>553.7788</ele>
        <time>2014-08-26T12:15:15Z</time>
      </trkpt>
      <trkpt lat="46.32442" lon="6.58595">
        <ele>551.242</ele>
        <time>2014-08-26T12:15:20Z</time>
      </trkpt>
      <trkpt lat="46.32436" lon="6.586">
        <ele>551.242</ele>
        <time>2014-08-26T12:15:25Z</time>
      </trkpt>
      <trkpt lat="46.32433" lon="6.58602">
        <ele>548.8861</ele>
        <time>2014-08-26T12:15:30Z</time>
      </trkpt>
      <trkpt lat="46.32428" lon="6.58602">
        <ele>548.8861</ele>
        <time>2014-08-26T12:15:35Z</time>
      </trkpt>
      <trkpt lat="46.32426" lon="6.58602">
        <ele>548.8861</ele>
        <time>2014-08-26T12:15:40Z</time>
      </trkpt>
      <trkpt lat="46.32424" lon="6.58605">
        <ele>546.4956</ele>
        <time>2014-08-26T12:15:45Z</time>
      </trkpt>
      <trkpt lat="46.32419" lon="6.5861">
        <ele>546.4956</ele>
        <time>2014-08-26T12:15:50Z</time>
      </trkpt>
      <trkpt lat="46.32414" lon="6.58617">
        <ele>544.3899</ele>
        <time>2014-08-26T12:15:55Z</time>
      </trkpt>
      <trkpt lat="46.3241" lon="6.58618">
        <ele>544.3899</ele>
        <time>2014-08-26T12:16:00Z</time>
      </trkpt>
      <trkpt lat="46.32403" lon="6.58619">
        <ele>542.5899</ele>
        <time>2014-08-26T12:16:05Z</time>
      </trkpt>
      <trkpt lat="46.32401" lon="6.5862">
        <ele>542.5899</ele>
        <time>2014-08-26T12:16:10Z</time>
      </trkpt>
      <trkpt lat="46.32399" lon="6.58619">
        <ele>542.5899</ele>
        <time>2014-08-26T12:16:15Z</time>
      </trkpt>
      <trkpt lat="46.32398" lon="6.58618">
        <ele>542.5899</ele>
        <time>2014-08-26T12:16:20Z</time>
      </trkpt>
      <trkpt lat="46.32394" lon="6.58618">
        <ele>541.07117</ele>
        <time>2014-08-26T12:16:25Z</time>
      </trkpt>
      <trkpt lat="46.32394" lon="6.58618">
        <ele>541.07117</ele>
        <time>2014-08-26T12:16:30Z</time>
      </trkpt>
      <trkpt lat="46.32391" lon="6.58626">
        <ele>541.07117</ele>
        <time>2014-08-26T12:16:35Z</time>
      </trkpt>
      <trkpt lat="46.32392" lon="6.58628">
        <ele>541.07117</ele>
        <time>2014-08-26T12:16:40Z</time>
      </trkpt>
      <trkpt lat="46.32394" lon="6.58631">
        <ele>539.5795</ele>
        <time>2014-08-26T12:16:45Z</time>
      </trkpt>
      <trkpt lat="46.32394" lon="6.58633">
        <ele>539.5795</ele>
        <time>2014-08-26T12:16:50Z</time>
      </trkpt>
      <trkpt lat="46.32398" lon="6.58627">
        <ele>539.5795</ele>
        <time>2014-08-26T12:16:55Z</time>
      </trkpt>
      <trkpt lat="46.324" lon="6.58625">
        <ele>538.08105</ele>
        <time>2014-08-26T12:17:00Z</time>
      </trkpt>
      <trkpt lat="46.32403" lon="6.58625">
        <ele>538.08105</ele>
        <time>2014-08-26T12:17:05Z</time>
      </trkpt>
      <trkpt lat="46.32407" lon="6.58622">
        <ele>538.08105</ele>
        <time>2014-08-26T12:17:10Z</time>
      </trkpt>
      <trkpt lat="46.3241" lon="6.58624">
        <ele>536.5156</ele>
        <time>2014-08-26T12:17:15Z</time>
      </trkpt>
      <trkpt lat="46.32416" lon="6.58624">
        <ele>536.5156</ele>
        <time>2014-08-26T12:17:20Z</time>
      </trkpt>
      <trkpt lat="46.32424" lon="6.58622">
        <ele>535.0295</ele>
        <time>2014-08-26T12:17:25Z</time>
      </trkpt>
      <trkpt lat="46.3243" lon="6.58621">
        <ele>535.0295</ele>
        <time>2014-08-26T12:17:30Z</time>
      </trkpt>
      <trkpt lat="46.32434" lon="6.58617">
        <ele>533.64246</ele>
        <time>2014-08-26T12:17:35Z</time>
      </trkpt>
      <trkpt lat="46.32441" lon="6.58616">
        <ele>533.64246</ele>
        <time>2014-08-26T12:17:40Z</time>
      </trkpt>
      <trkpt lat="46.32448" lon="6.58614">
        <ele>532.4017</ele>
        <time>2014-08-26T12:17:45Z</time>
      </trkpt>
      <trkpt lat="46.32455" lon="6.58612">
        <ele>532.4017</ele>
        <time>2014-08-26T12:17:50Z</time>
      </trkpt>
      <trkpt lat="46.3246" lon="6.5861">
        <ele>531.30707</ele>
        <time>2014-08-26T12:17:55Z</time>
      </trkpt>
      <trkpt lat="46.32465" lon="6.58609">
        <ele>531.30707</ele>
        <time>2014-08-26T12:18:00Z</time>
      </trkpt>
      <trkpt lat="46.32472" lon="6.58606">
        <ele>530.2286</ele>
        <time>2014-08-26T12:18:05Z</time>
      </trkpt>
      <trkpt lat="46.32479" lon="6.58606">
        <ele>530.2286</ele>
        <time>2014-08-26T12:18:10Z</time>
      </trkpt>
      <trkpt lat="46.32486" lon="6.58606">
        <ele>528.9014</ele>
        <time>2014-08-26T12:18:15Z</time>
      </trkpt>
      <trkpt lat="46.32492" lon="6.58607">
        <ele>528.9014</ele>
        <time>2014-08-26T12:18:20Z</time>
      </trkpt>
      <trkpt lat="46.32499" lon="6.5861">
        <ele>527.5135</ele>
        <time>2014-08-26T12:18:25Z</time>
      </trkpt>
      <trkpt lat="46.32504" lon="6.58614">
        <ele>527.5135</ele>
        <time>2014-08-26T12:18:30Z</time>
      </trkpt>
      <trkpt lat="46.32507" lon="6.58617">
        <ele>526.34</ele>
        <time>2014-08-26T12:18:35Z</time>
      </trkpt>
      <trkpt lat="46.32503" lon="6.5863">
        <ele>525.4048</ele>
        <time>2014-08-26T12:18:40Z</time>
      </trkpt>
      <trkpt lat="46.32499" lon="6.58637">
        <ele>525.4048</ele>
        <time>2014-08-26T12:18:45Z</time>
      </trkpt>
      <trkpt lat="46.32494" lon="6.58647">
        <ele>524.7869</ele>
        <time>2014-08-26T12:18:50Z</time>
      </trkpt>
      <trkpt lat="46.32491" lon="6.58655">
        <ele>524.7869</ele>
        <time>2014-08-26T12:18:55Z</time>
      </trkpt>
      <trkpt lat="46.32488" lon="6.58662">
        <ele>524.51575</ele>
        <time>2014-08-26T12:19:00Z</time>
      </trkpt>
      <trkpt lat="46.32484" lon="6.58671">
        <ele>524.51575</ele>
        <time>2014-08-26T12:19:05Z</time>
      </trkpt>
      <trkpt lat="46.32481" lon="6.58678">
        <ele>524.5454</ele>
        <time>2014-08-26T12:19:10Z</time>
      </trkpt>
      <trkpt lat="46.32479" lon="6.58684">
        <ele>524.5454</ele>
        <time>2014-08-26T12:19:15Z</time>
      </trkpt>
      <trkpt lat="46.32477" lon="6.58692">
        <ele>524.70294</ele>
        <time>2014-08-26T12:19:20Z</time>
      </trkpt>
      <trkpt lat="46.32475" lon="6.58698">
        <ele>524.70294</ele>
        <time>2014-08-26T12:19:25Z</time>
      </trkpt>
      <trkpt lat="46.32472" lon="6.58706">
        <ele>524.9866</ele>
        <time>2014-08-26T12:19:30Z</time>
      </trkpt>
      <trkpt lat="46.32469" lon="6.58713">
        <ele>524.9866</ele>
        <time>2014-08-26T12:19:35Z</time>
      </trkpt>
      <trkpt lat="46.32466" lon="6.58722">
        <ele>525.40857</ele>
        <time>2014-08-26T12:19:40Z</time>
      </trkpt>
      <trkpt lat="46.32462" lon="6.5873">
        <ele>525.40857</ele>
        <time>2014-08-26T12:19:45Z</time>
      </trkpt>
      <trkpt lat="46.32462" lon="6.58734">
        <ele>526.03784</ele>
        <time>2014-08-26T12:19:50Z</time>
      </trkpt>
      <trkpt lat="46.3246" lon="6.58742">
        <ele>526.03784</ele>
        <time>2014-08-26T12:19:55Z</time>
      </trkpt>
      <trkpt lat="46.3246" lon="6.58749">
        <ele>526.837</ele>
        <time>2014-08-26T12:20:00Z</time>
      </trkpt>
      <trkpt lat="46.32462" lon="6.58758">
        <ele>526.837</ele>
        <time>2014-08-26T12:20:05Z</time>
      </trkpt>
      <trkpt lat="46.32462" lon="6.58765">
        <ele>527.7997</ele>
        <time>2014-08-26T12:20:10Z</time>
      </trkpt>
      <trkpt lat="46.32462" lon="6.58769">
        <ele>527.7997</ele>
        <time>2014-08-26T12:20:15Z</time>
      </trkpt>
      <trkpt lat="46.32462" lon="6.58769">
        <ele>527.7997</ele>
        <time>2014-08-26T12:20:20Z</time>
      </trkpt>
      <trkpt lat="46.32462" lon="6.58774">
        <ele>527.7997</ele>
        <time>2014-08-26T12:20:25Z</time>
      </trkpt>
      <trkpt lat="46.32461" lon="6.58783">
        <ele>529.09283</ele>
        <time>2014-08-26T12:20:30Z</time>
      </trkpt>
      <trkpt lat="46.3246" lon="6.5879">
        <ele>529.09283</ele>
        <time>2014-08-26T12:20:35Z</time>
      </trkpt>
      <trkpt lat="46.32455" lon="6.58793">
        <ele>530.3948</ele>
        <time>2014-08-26T12:20:40Z</time>
      </trkpt>
      <trkpt lat="46.3245" lon="6.58793">
        <ele>530.3948</ele>
        <time>2014-08-26T12:20:45Z</time>
      </trkpt>
      <trkpt lat="46.32444" lon="6.58793">
        <ele>531.6958</ele>
        <time>2014-08-26T12:20:50Z</time>
      </trkpt>
      <trkpt lat="46.32439" lon="6.58793">
        <ele>531.6958</ele>
        <time>2014-08-26T12:20:55Z</time>
      </trkpt>
      <trkpt lat="46.32434" lon="6.58794">
        <ele>533.0016</ele>
        <time>2014-08-26T12:21:00Z</time>
      </trkpt>
      <trkpt lat="46.32431" lon="6.58798">
        <ele>533.0016</ele>
        <time>2014-08-26T12:21:05Z</time>
      </trkpt>
      <trkpt lat="46.32428" lon="6.58804">
        <ele>533.0016</ele>
        <time>2014-08-26T12:21:10Z</time>
      </trkpt>
      <trkpt lat="46.32425" lon="6.58807">
        <ele>534.24554</ele>
        <time>2014-08-26T12:21:15Z</time>
      </trkpt>
      <trkpt lat="46.32423" lon="6.5881">
        <ele>534.24554</ele>
        <time>2014-08-26T12:21:20Z</time>
      </trkpt>
      <trkpt lat="46.32422" lon="6.58816">
        <ele>534.24554</ele>
        <time>2014-08-26T12:21:25Z</time>
      </trkpt>
      <trkpt lat="46.32417" lon="6.58826">
        <ele>535.5682</ele>
        <time>2014-08-26T12:21:30Z</time>
      </trkpt>
      <trkpt lat="46.32417" lon="6.58828">
        <ele>535.5682</ele>
        <time>2014-08-26T12:21:35Z</time>
      </trkpt>
      <trkpt lat="46.32417" lon="6.58828">
        <ele>535.5682</ele>
        <time>2014-08-26T12:21:40Z</time>
      </trkpt>
      <trkpt lat="46.32416" lon="6.5883">
        <ele>535.5682</ele>
        <time>2014-08-26T12:21:55Z</time>
      </trkpt>
      <trkpt lat="46.32414" lon="6.58835">
        <ele>535.5682</ele>
        <time>2014-08-26T12:22:00Z</time>
      </trkpt>
      <trkpt lat="46.32412" lon="6.58843">
        <ele>536.69604</ele>
        <time>2014-08-26T12:22:05Z</time>
      </trkpt>
      <trkpt lat="46.3241" lon="6.58848">
        <ele>536.69604</ele>
        <time>2014-08-26T12:22:10Z</time>
      </trkpt>
      <trkpt lat="46.32409" lon="6.58853">
        <ele>536.69604</ele>
        <time>2014-08-26T12:22:15Z</time>
      </trkpt>
      <trkpt lat="46.32407" lon="6.58861">
        <ele>537.4776</ele>
        <time>2014-08-26T12:22:20Z</time>
      </trkpt>
      <trkpt lat="46.32404" lon="6.58873">
        <ele>537.4776</ele>
        <time>2014-08-26T12:22:25Z</time>
      </trkpt>
      <trkpt lat="46.32403" lon="6.58882">
        <ele>538.23474</ele>
        <time>2014-08-26T12:22:30Z</time>
      </trkpt>
      <trkpt lat="46.32401" lon="6.5889">
        <ele>538.23474</ele>
        <time>2014-08-26T12:22:35Z</time>
      </trkpt>
      <trkpt lat="46.32402" lon="6.58898">
        <ele>539.0354</ele>
        <time>2014-08-26T12:22:40Z</time>
      </trkpt>
      <trkpt lat="46.32402" lon="6.58902">
        <ele>539.0354</ele>
        <time>2014-08-26T12:22:45Z</time>
      </trkpt>
      <trkpt lat="46.32402" lon="6.5891">
        <ele>539.0354</ele>
        <time>2014-08-26T12:22:50Z</time>
      </trkpt>
      <trkpt lat="46.32404" lon="6.58917">
        <ele>540.1013</ele>
        <time>2014-08-26T12:22:55Z</time>
      </trkpt>
      <trkpt lat="46.32407" lon="6.58929">
        <ele>540.1013</ele>
        <time>2014-08-26T12:23:00Z</time>
      </trkpt>
      <trkpt lat="46.32408" lon="6.58936">
        <ele>541.1761</ele>
        <time>2014-08-26T12:23:05Z</time>
      </trkpt>
      <trkpt lat="46.32409" lon="6.58946">
        <ele>541.1761</ele>
        <time>2014-08-26T12:23:10Z</time>
      </trkpt>
      <trkpt lat="46.3241" lon="6.58957">
        <ele>542.3973</ele>
        <time>2014-08-26T12:23:15Z</time>
      </trkpt>
      <trkpt lat="46.3241" lon="6.58964">
        <ele>542.3973</ele>
        <time>2014-08-26T12:23:20Z</time>
      </trkpt>
      <trkpt lat="46.3241" lon="6.58971">
        <ele>543.76227</ele>
        <time>2014-08-26T12:23:25Z</time>
      </trkpt>
      <trkpt lat="46.3241" lon="6.5898">
        <ele>543.76227</ele>
        <time>2014-08-26T12:23:30Z</time>
      </trkpt>
      <trkpt lat="46.32412" lon="6.58986">
        <ele>545.1245</ele>
        <time>2014-08-26T12:23:35Z</time>
      </trkpt>
      <trkpt lat="46.32414" lon="6.58994">
        <ele>545.1245</ele>
        <time>2014-08-26T12:23:40Z</time>
      </trkpt>
      <trkpt lat="46.32414" lon="6.59001">
        <ele>546.4637</ele>
        <time>2014-08-26T12:23:45Z</time>
      </trkpt>
      <trkpt lat="46.32416" lon="6.59009">
        <ele>546.4637</ele>
        <time>2014-08-26T12:23:50Z</time>
      </trkpt>
      <trkpt lat="46.32415" lon="6.59017">
        <ele>547.80457</ele>
        <time>2014-08-26T12:23:55Z</time>
      </trkpt>
      <trkpt lat="46.32414" lon="6.59025">
        <ele>547.80457</ele>
        <time>2014-08-26T12:24:00Z</time>
      </trkpt>
      <trkpt lat="46.32416" lon="6.59032">
        <ele>549.15594</ele>
        <time>2014-08-26T12:24:05Z</time>
      </trkpt>
      <trkpt lat="46.32418" lon="6.59038">
        <ele>549.15594</ele>
        <time>2014-08-26T12:24:10Z</time>
      </trkpt>
      <trkpt lat="46.32419" lon="6.59043">
        <ele>549.15594</ele>
        <time>2014-08-26T12:24:15Z</time>
      </trkpt>
      <trkpt lat="46.3242" lon="6.59051">
        <ele>550.4972</ele>
        <time>2014-08-26T12:24:20Z</time>
      </trkpt>
      <trkpt lat="46.32422" lon="6.59063">
        <ele>550.4972</ele>
        <time>2014-08-26T12:24:25Z</time>
      </trkpt>
      <trkpt lat="46.32423" lon="6.59075">
        <ele>551.7521</ele>
        <time>2014-08-26T12:24:30Z</time>
      </trkpt>
      <trkpt lat="46.32424" lon="6.59081">
        <ele>551.7521</ele>
        <time>2014-08-26T12:24:35Z</time>
      </trkpt>
      <trkpt lat="46.32425" lon="6.59086">
        <ele>551.7521</ele>
        <time>2014-08-26T12:24:40Z</time>
      </trkpt>
      <trkpt lat="46.32426" lon="6.5909">
        <ele>553.1384</ele>
        <time>2014-08-26T12:24:45Z</time>
      </trkpt>
      <trkpt lat="46.32429" lon="6.59097">
        <ele>553.1384</ele>
        <time>2014-08-26T12:24:50Z</time>
      </trkpt>
      <trkpt lat="46.32431" lon="6.59101">
        <ele>554.6131</ele>
        <time>2014-08-26T12:24:55Z</time>
      </trkpt>
      <trkpt lat="46.32433" lon="6.5911">
        <ele>554.6131</ele>
        <time>2014-08-26T12:25:00Z</time>
      </trkpt>
      <trkpt lat="46.32437" lon="6.59118">
        <ele>556.1073</ele>
        <time>2014-08-26T12:25:05Z</time>
      </trkpt>
      <trkpt lat="46.32438" lon="6.59129">
        <ele>556.1073</ele>
        <time>2014-08-26T12:25:10Z</time>
      </trkpt>
      <trkpt lat="46.3244" lon="6.59139">
        <ele>557.60046</ele>
        <time>2014-08-26T12:25:15Z</time>
      </trkpt>
      <trkpt lat="46.32441" lon="6.59145">
        <ele>557.60046</ele>
        <time>2014-08-26T12:25:20Z</time>
      </trkpt>
      <trkpt lat="46.32442" lon="6.59152">
        <ele>559.0453</ele>
        <time>2014-08-26T12:25:25Z</time>
      </trkpt>
      <trkpt lat="46.32441" lon="6.59161">
        <ele>559.0453</ele>
        <time>2014-08-26T12:25:30Z</time>
      </trkpt>
      <trkpt lat="46.32442" lon="6.59162">
        <ele>559.0453</ele>
        <time>2014-08-26T12:25:35Z</time>
      </trkpt>
      <trkpt lat="46.32442" lon="6.59165">
        <ele>559.0453</ele>
        <time>2014-08-26T12:25:40Z</time>
      </trkpt>
      <trkpt lat="46.32443" lon="6.59168">
        <ele>559.9368</ele>
        <time>2014-08-26T12:25:45Z</time>
      </trkpt>
      <trkpt lat="46.32445" lon="6.59172">
        <ele>559.9368</ele>
        <time>2014-08-26T12:25:50Z</time>
      </trkpt>
      <trkpt lat="46.32446" lon="6.59173">
        <ele>559.9368</ele>
        <time>2014-08-26T12:25:55Z</time>
      </trkpt>
      <trkpt lat="46.32446" lon="6.59173">
        <ele>559.9368</ele>
        <time>2014-08-26T12:26:00Z</time>
      </trkpt>
      <trkpt lat="46.32445" lon="6.59183">
        <ele>560.60175</ele>
        <time>2014-08-26T12:26:05Z</time>
      </trkpt>
      <trkpt lat="46.32448" lon="6.59192">
        <ele>560.60175</ele>
        <time>2014-08-26T12:26:10Z</time>
      </trkpt>
      <trkpt lat="46.32451" lon="6.59198">
        <ele>561.0121</ele>
        <time>2014-08-26T12:26:15Z</time>
      </trkpt>
      <trkpt lat="46.32451" lon="6.59201">
        <ele>561.0121</ele>
        <time>2014-08-26T12:26:20Z</time>
      </trkpt>
      <trkpt lat="46.32451" lon="6.59206">
        <ele>561.0121</ele>
        <time>2014-08-26T12:26:25Z</time>
      </trkpt>
      <trkpt lat="46.32447" lon="6.59211">
        <ele>560.8835</ele>
        <time>2014-08-26T12:26:30Z</time>
      </trkpt>
      <trkpt lat="46.32445" lon="6.5922">
        <ele>560.8835</ele>
        <time>2014-08-26T12:26:35Z</time>
      </trkpt>
      <trkpt lat="46.32449" lon="6.59231">
        <ele>560.32874</ele>
        <time>2014-08-26T12:26:40Z</time>
      </trkpt>
      <trkpt lat="46.3245" lon="6.59238">
        <ele>560.32874</ele>
        <time>2014-08-26T12:26:45Z</time>
      </trkpt>
      <trkpt lat="46.32455" lon="6.59246">
        <ele>559.6844</ele>
        <time>2014-08-26T12:26:50Z</time>
      </trkpt>
      <trkpt lat="46.32456" lon="6.59249">
        <ele>559.6844</ele>
        <time>2014-08-26T12:26:55Z</time>
      </trkpt>
      <trkpt lat="46.32463" lon="6.59254">
        <ele>558.83026</ele>
        <time>2014-08-26T12:27:00Z</time>
      </trkpt>
      <trkpt lat="46.32467" lon="6.59256">
        <ele>558.83026</ele>
        <time>2014-08-26T12:27:05Z</time>
      </trkpt>
      <trkpt lat="46.32469" lon="6.59256">
        <ele>558.83026</ele>
        <time>2014-08-26T12:27:10Z</time>
      </trkpt>
      <trkpt lat="46.32472" lon="6.59253">
        <ele>557.8287</ele>
        <time>2014-08-26T12:27:15Z</time>
      </trkpt>
      <trkpt lat="46.32473" lon="6.59251">
        <ele>557.8287</ele>
        <time>2014-08-26T12:27:20Z</time>
      </trkpt>
      <trkpt lat="46.32474" lon="6.59249">
        <ele>557.8287</ele>
        <time>2014-08-26T12:27:25Z</time>
      </trkpt>
      <trkpt lat="46.32476" lon="6.59244">
        <ele>557.8287</ele>
        <time>2014-08-26T12:27:45Z</time>
      </trkpt>
      <trkpt lat="46.32476" lon="6.59239">
        <ele>557.0838</ele>
        <time>2014-08-26T12:27:50Z</time>
      </trkpt>
      <trkpt lat="46.32477" lon="6.59234">
        <ele>557.0838</ele>
        <time>2014-08-26T12:27:55Z</time>
      </trkpt>
      <trkpt lat="46.32478" lon="6.59233">
        <ele>557.0838</ele>
        <time>2014-08-26T12:28:00Z</time>
      </trkpt>
      <trkpt lat="46.32478" lon="6.59231">
        <ele>557.0838</ele>
        <time>2014-08-26T12:28:05Z</time>
      </trkpt>
      <trkpt lat="46.32478" lon="6.5923">
        <ele>557.0838</ele>
        <time>2014-08-26T12:28:10Z</time>
      </trkpt>
      <trkpt lat="46.32479" lon="6.59227">
        <ele>556.99817</ele>
        <time>2014-08-26T12:28:15Z</time>
      </trkpt>
      <trkpt lat="46.32482" lon="6.59225">
        <ele>556.99817</ele>
        <time>2014-08-26T12:28:20Z</time>
      </trkpt>
      <trkpt lat="46.32487" lon="6.59218">
        <ele>556.84784</ele>
        <time>2014-08-26T12:28:25Z</time>
      </trkpt>
      <trkpt lat="46.32492" lon="6.59215">
        <ele>556.84784</ele>
        <time>2014-08-26T12:28:30Z</time>
      </trkpt>
      <trkpt lat="46.32496" lon="6.59211">
        <ele>556.3658</ele>
        <time>2014-08-26T12:28:35Z</time>
      </trkpt>
      <trkpt lat="46.32498" lon="6.59207">
        <ele>556.3658</ele>
        <time>2014-08-26T12:28:40Z</time>
      </trkpt>
      <trkpt lat="46.32499" lon="6.59205">
        <ele>556.3658</ele>
        <time>2014-08-26T12:28:45Z</time>
      </trkpt>
      <trkpt lat="46.32505" lon="6.59196">
        <ele>556.14136</ele>
        <time>2014-08-26T12:28:50Z</time>
      </trkpt>
      <trkpt lat="46.32508" lon="6.59188">
        <ele>556.14136</ele>
        <time>2014-08-26T12:28:55Z</time>
      </trkpt>
      <trkpt lat="46.32513" lon="6.59178">
        <ele>556.0714</ele>
        <time>2014-08-26T12:29:00Z</time>
      </trkpt>
      <trkpt lat="46.32516" lon="6.59173">
        <ele>556.0714</ele>
        <time>2014-08-26T12:29:05Z</time>
      </trkpt>
      <trkpt lat="46.32519" lon="6.59166">
        <ele>556.161</ele>
        <time>2014-08-26T12:29:10Z</time>
      </trkpt>
      <trkpt lat="46.3252" lon="6.59165">
        <ele>556.161</ele>
        <time>2014-08-26T12:29:15Z</time>
      </trkpt>
      <trkpt lat="46.32521" lon="6.59163">
        <ele>556.161</ele>
        <time>2014-08-26T12:29:20Z</time>
      </trkpt>
      <trkpt lat="46.32524" lon="6.59159">
        <ele>556.161</ele>
        <time>2014-08-26T12:29:25Z</time>
      </trkpt>
      <trkpt lat="46.32526" lon="6.59157">
        <ele>556.2989</ele>
        <time>2014-08-26T12:29:30Z</time>
      </trkpt>
      <trkpt lat="46.32528" lon="6.59153">
        <ele>556.2989</ele>
        <time>2014-08-26T12:29:35Z</time>
      </trkpt>
      <trkpt lat="46.32529" lon="6.59149">
        <ele>556.2989</ele>
        <time>2014-08-26T12:29:40Z</time>
      </trkpt>
      <trkpt lat="46.32532" lon="6.59142">
        <ele>556.33875</ele>
        <time>2014-08-26T12:29:45Z</time>
      </trkpt>
      <trkpt lat="46.32531" lon="6.59136">
        <ele>556.33875</ele>
        <time>2014-08-26T12:29:50Z</time>
      </trkpt>
      <trkpt lat="46.32534" lon="6.59128">
        <ele>556.4768</ele>
        <time>2014-08-26T12:29:55Z</time>
      </trkpt>
      <trkpt lat="46.32537" lon="6.59117">
        <ele>556.4768</ele>
        <time>2014-08-26T12:30:00Z</time>
      </trkpt>
      <trkpt lat="46.32543" lon="6.59108">
        <ele>556.7647</ele>
        <time>2014-08-26T12:30:05Z</time>
      </trkpt>
      <trkpt lat="46.32547" lon="6.59102">
        <ele>556.7647</ele>
        <time>2014-08-26T12:30:10Z</time>
      </trkpt>
      <trkpt lat="46.32548" lon="6.59099">
        <ele>556.7647</ele>
        <time>2014-08-26T12:30:15Z</time>
      </trkpt>
      <trkpt lat="46.3255" lon="6.59095">
        <ele>557.12036</ele>
        <time>2014-08-26T12:30:20Z</time>
      </trkpt>
      <trkpt lat="46.32552" lon="6.59093">
        <ele>557.12036</ele>
        <time>2014-08-26T12:30:25Z</time>
      </trkpt>
      <trkpt lat="46.32554" lon="6.59087">
        <ele>557.12036</ele>
        <time>2014-08-26T12:30:30Z</time>
      </trkpt>
      <trkpt lat="46.32554" lon="6.59087">
        <ele>557.12036</ele>
        <time>2014-08-26T12:30:35Z</time>
      </trkpt>
      <trkpt lat="46.32553" lon="6.59085">
        <ele>557.12036</ele>
        <time>2014-08-26T12:30:45Z</time>
      </trkpt>
      <trkpt lat="46.32552" lon="6.59081">
        <ele>557.4819</ele>
        <time>2014-08-26T12:30:50Z</time>
      </trkpt>
      <trkpt lat="46.32554" lon="6.59074">
        <ele>557.4819</ele>
        <time>2014-08-26T12:30:55Z</time>
      </trkpt>
      <trkpt lat="46.32554" lon="6.59074">
        <ele>557.4819</ele>
        <time>2014-08-26T12:31:00Z</time>
      </trkpt>
      <trkpt lat="46.32555" lon="6.59073">
        <ele>557.4819</ele>
        <time>2014-08-26T12:31:05Z</time>
      </trkpt>
      <trkpt lat="46.32555" lon="6.59073">
        <ele>557.4819</ele>
        <time>2014-08-26T12:31:10Z</time>
      </trkpt>
      <trkpt lat="46.32558" lon="6.5907">
        <ele>557.7197</ele>
        <time>2014-08-26T12:31:20Z</time>
      </trkpt>
      <trkpt lat="46.32559" lon="6.5907">
        <ele>557.7197</ele>
        <time>2014-08-26T12:31:25Z</time>
      </trkpt>
      <trkpt lat="46.32558" lon="6.59061">
        <ele>557.7197</ele>
        <time>2014-08-26T12:31:30Z</time>
      </trkpt>
      <trkpt lat="46.32558" lon="6.59061">
        <ele>557.7197</ele>
        <time>2014-08-26T12:31:35Z</time>
      </trkpt>
      <trkpt lat="46.32558" lon="6.59063">
        <ele>557.7197</ele>
        <time>2014-08-26T12:31:40Z</time>
      </trkpt>
      <trkpt lat="46.32558" lon="6.59063">
        <ele>557.7197</ele>
        <time>2014-08-26T12:31:45Z</time>
      </trkpt>
      <trkpt lat="46.32557" lon="6.59064">
        <ele>558.14667</ele>
        <time>2014-08-26T12:31:50Z</time>
      </trkpt>
      <trkpt lat="46.32562" lon="6.59063">
        <ele>558.14667</ele>
        <time>2014-08-26T12:31:55Z</time>
      </trkpt>
      <trkpt lat="46.32562" lon="6.59063">
        <ele>558.14667</ele>
        <time>2014-08-26T12:32:00Z</time>
      </trkpt>
      <trkpt lat="46.32562" lon="6.59063">
        <ele>558.14667</ele>
        <time>2014-08-26T12:32:05Z</time>
      </trkpt>
      <trkpt lat="46.32562" lon="6.59063">
        <ele>558.14667</ele>
        <time>2014-08-26T12:32:10Z</time>
      </trkpt>
      <trkpt lat="46.32563" lon="6.59066">
        <ele>558.14667</ele>
        <time>2014-08-26T12:32:15Z</time>
      </trkpt>
      <trkpt lat="46.32563" lon="6.59066">
        <ele>558.14667</ele>
        <time>2014-08-26T12:32:20Z</time>
      </trkpt>
      <trkpt lat="46.32563" lon="6.59068">
        <ele>558.14667</ele>
        <time>2014-08-26T12:32:25Z</time>
      </trkpt>
      <trkpt lat="46.32563" lon="6.59069">
        <ele>558.562</ele>
        <time>2014-08-26T12:32:30Z</time>
      </trkpt>
      <trkpt lat="46.32565" lon="6.59071">
        <ele>558.562</ele>
        <time>2014-08-26T12:32:35Z</time>
      </trkpt>
      <trkpt lat="46.32565" lon="6.5907">
        <ele>558.562</ele>
        <time>2014-08-26T12:32:40Z</time>
      </trkpt>
      <trkpt lat="46.32565" lon="6.59071">
        <ele>558.562</ele>
        <time>2014-08-26T12:32:45Z</time>
      </trkpt>
      <trkpt lat="46.32563" lon="6.59075">
        <ele>558.562</ele>
        <time>2014-08-26T12:32:50Z</time>
      </trkpt>
      <trkpt lat="46.32562" lon="6.59075">
        <ele>558.562</ele>
        <time>2014-08-26T12:32:55Z</time>
      </trkpt>
      <trkpt lat="46.32562" lon="6.59075">
        <ele>559.622</ele>
        <time>2014-08-26T12:33:00Z</time>
      </trkpt>
      <trkpt lat="46.32562" lon="6.5908">
        <ele>560.68195</ele>
        <time>2014-08-26T12:35:40Z</time>
      </trkpt>
      <trkpt lat="46.32563" lon="6.59082">
        <ele>560.68195</ele>
        <time>2014-08-26T12:35:45Z</time>
      </trkpt>
      <trkpt lat="46.32563" lon="6.59082">
        <ele>560.68195</ele>
        <time>2014-08-26T12:35:50Z</time>
      </trkpt>
      <trkpt lat="46.32562" lon="6.59082">
        <ele>560.68195</ele>
        <time>2014-08-26T12:35:55Z</time>
      </trkpt>
      <trkpt lat="46.32562" lon="6.59082">
        <ele>560.68195</ele>
        <time>2014-08-26T12:36:00Z</time>
      </trkpt>
      <trkpt lat="46.32502" lon="6.59131">
        <ele>561.4868</ele>
        <time>2014-08-26T13:04:14Z</time>
      </trkpt>
      <trkpt lat="46.32587" lon="6.59047">
        <ele>562.29175</ele>
        <time>2014-08-26T13:04:19Z</time>
      </trkpt>
      <trkpt lat="46.32546" lon="6.59095">
        <ele>563.0966</ele>
        <time>2014-08-26T13:04:24Z</time>
      </trkpt>
      <trkpt lat="46.32552" lon="6.59087">
        <ele>563.9015</ele>
        <time>2014-08-26T13:04:44Z</time>
      </trkpt>
      <trkpt lat="46.32561" lon="6.59085">
        <ele>563.9015</ele>
        <time>2014-08-26T13:04:49Z</time>
      </trkpt>
      <trkpt lat="46.32565" lon="6.59084">
        <ele>564.8467</ele>
        <time>2014-08-26T13:05:14Z</time>
      </trkpt>
      <trkpt lat="46.32566" lon="6.59084">
        <ele>564.8467</ele>
        <time>2014-08-26T13:05:19Z</time>
      </trkpt>
      <trkpt lat="46.32566" lon="6.59083">
        <ele>564.8467</ele>
        <time>2014-08-26T13:05:24Z</time>
      </trkpt>
      <trkpt lat="46.32567" lon="6.59083">
        <ele>564.8467</ele>
        <time>2014-08-26T13:05:29Z</time>
      </trkpt>
      <trkpt lat="46.32567" lon="6.59083">
        <ele>564.8467</ele>
        <time>2014-08-26T13:05:34Z</time>
      </trkpt>
      <trkpt lat="46.32568" lon="6.59083">
        <ele>564.8467</ele>
        <time>2014-08-26T13:05:49Z</time>
      </trkpt>
      <trkpt lat="46.32568" lon="6.59083">
        <ele>564.8467</ele>
        <time>2014-08-26T13:05:59Z</time>
      </trkpt>
      <trkpt lat="46.32568" lon="6.59083">
        <ele>564.8467</ele>
        <time>2014-08-26T13:06:04Z</time>
      </trkpt>
      <trkpt lat="46.32569" lon="6.59083">
        <ele>564.8467</ele>
        <time>2014-08-26T13:06:09Z</time>
      </trkpt>
      <trkpt lat="46.3257" lon="6.59084">
        <ele>564.8467</ele>
        <time>2014-08-26T13:06:14Z</time>
      </trkpt>
      <trkpt lat="46.32571" lon="6.59085">
        <ele>564.8467</ele>
        <time>2014-08-26T13:06:19Z</time>
      </trkpt>
      <trkpt lat="46.32571" lon="6.59085">
        <ele>564.8467</ele>
        <time>2014-08-26T13:06:24Z</time>
      </trkpt>
      <trkpt lat="46.32571" lon="6.59089">
        <ele>564.0151</ele>
        <time>2014-08-26T13:06:29Z</time>
      </trkpt>
      <trkpt lat="46.32571" lon="6.59092">
        <ele>564.0151</ele>
        <time>2014-08-26T13:06:34Z</time>
      </trkpt>
      <trkpt lat="46.3257" lon="6.59096">
        <ele>564.0151</ele>
        <time>2014-08-26T13:06:39Z</time>
      </trkpt>
      <trkpt lat="46.32567" lon="6.59101">
        <ele>562.5933</ele>
        <time>2014-08-26T13:06:44Z</time>
      </trkpt>
      <trkpt lat="46.32562" lon="6.59108">
        <ele>562.5933</ele>
        <time>2014-08-26T13:06:49Z</time>
      </trkpt>
      <trkpt lat="46.32558" lon="6.59114">
        <ele>561.0771</ele>
        <time>2014-08-26T13:06:54Z</time>
      </trkpt>
      <trkpt lat="46.32553" lon="6.59121">
        <ele>561.0771</ele>
        <time>2014-08-26T13:06:59Z</time>
      </trkpt>
      <trkpt lat="46.32548" lon="6.59128">
        <ele>559.47925</ele>
        <time>2014-08-26T13:07:04Z</time>
      </trkpt>
      <trkpt lat="46.32544" lon="6.59135">
        <ele>559.47925</ele>
        <time>2014-08-26T13:07:09Z</time>
      </trkpt>
      <trkpt lat="46.3254" lon="6.59144">
        <ele>557.9129</ele>
        <time>2014-08-26T13:07:14Z</time>
      </trkpt>
      <trkpt lat="46.32536" lon="6.59152">
        <ele>557.9129</ele>
        <time>2014-08-26T13:07:19Z</time>
      </trkpt>
      <trkpt lat="46.3253" lon="6.59158">
        <ele>556.3817</ele>
        <time>2014-08-26T13:07:24Z</time>
      </trkpt>
      <trkpt lat="46.32525" lon="6.59163">
        <ele>556.3817</ele>
        <time>2014-08-26T13:07:29Z</time>
      </trkpt>
      <trkpt lat="46.32521" lon="6.59169">
        <ele>554.8601</ele>
        <time>2014-08-26T13:07:34Z</time>
      </trkpt>
      <trkpt lat="46.32518" lon="6.5918">
        <ele>554.8601</ele>
        <time>2014-08-26T13:07:39Z</time>
      </trkpt>
      <trkpt lat="46.32516" lon="6.59189">
        <ele>553.5837</ele>
        <time>2014-08-26T13:07:44Z</time>
      </trkpt>
      <trkpt lat="46.32515" lon="6.59197">
        <ele>553.5837</ele>
        <time>2014-08-26T13:07:49Z</time>
      </trkpt>
      <trkpt lat="46.32512" lon="6.59202">
        <ele>552.42426</ele>
        <time>2014-08-26T13:07:54Z</time>
      </trkpt>
      <trkpt lat="46.32508" lon="6.59207">
        <ele>552.42426</ele>
        <time>2014-08-26T13:07:59Z</time>
      </trkpt>
      <trkpt lat="46.32505" lon="6.59213">
        <ele>551.2912</ele>
        <time>2014-08-26T13:08:04Z</time>
      </trkpt>
      <trkpt lat="46.32502" lon="6.59218">
        <ele>551.2912</ele>
        <time>2014-08-26T13:08:09Z</time>
      </trkpt>
      <trkpt lat="46.32501" lon="6.5922">
        <ele>551.2912</ele>
        <time>2014-08-26T13:08:14Z</time>
      </trkpt>
      <trkpt lat="46.32501" lon="6.5922">
        <ele>551.2912</ele>
        <time>2014-08-26T13:08:19Z</time>
      </trkpt>
      <trkpt lat="46.325" lon="6.5922">
        <ele>551.2912</ele>
        <time>2014-08-26T13:08:24Z</time>
      </trkpt>
      <trkpt lat="46.325" lon="6.5922">
        <ele>551.2912</ele>
        <time>2014-08-26T13:08:29Z</time>
      </trkpt>
      <trkpt lat="46.32501" lon="6.5922">
        <ele>551.2912</ele>
        <time>2014-08-26T13:08:34Z</time>
      </trkpt>
      <trkpt lat="46.32501" lon="6.5922">
        <ele>551.2912</ele>
        <time>2014-08-26T13:08:39Z</time>
      </trkpt>
      <trkpt lat="46.32504" lon="6.59223">
        <ele>550.50415</ele>
        <time>2014-08-26T13:09:19Z</time>
      </trkpt>
      <trkpt lat="46.32505" lon="6.59224">
        <ele>550.50415</ele>
        <time>2014-08-26T13:09:24Z</time>
      </trkpt>
      <trkpt lat="46.32509" lon="6.59227">
        <ele>550.50415</ele>
        <time>2014-08-26T13:09:29Z</time>
      </trkpt>
      <trkpt lat="46.32511" lon="6.59229">
        <ele>550.50415</ele>
        <time>2014-08-26T13:09:34Z</time>
      </trkpt>
      <trkpt lat="46.32511" lon="6.59228">
        <ele>550.50415</ele>
        <time>2014-08-26T13:09:39Z</time>
      </trkpt>
      <trkpt lat="46.32511" lon="6.59228">
        <ele>550.50415</ele>
        <time>2014-08-26T13:09:44Z</time>
      </trkpt>
      <trkpt lat="46.32513" lon="6.59228">
        <ele>549.6374</ele>
        <time>2014-08-26T13:09:59Z</time>
      </trkpt>
      <trkpt lat="46.32513" lon="6.59228">
        <ele>549.6374</ele>
        <time>2014-08-26T13:10:04Z</time>
      </trkpt>
      <trkpt lat="46.32513" lon="6.59229">
        <ele>549.6374</ele>
        <time>2014-08-26T13:10:09Z</time>
      </trkpt>
      <trkpt lat="46.32514" lon="6.59232">
        <ele>549.6374</ele>
        <time>2014-08-26T13:10:14Z</time>
      </trkpt>
      <trkpt lat="46.32516" lon="6.59235">
        <ele>549.6374</ele>
        <time>2014-08-26T13:10:19Z</time>
      </trkpt>
      <trkpt lat="46.32519" lon="6.59241">
        <ele>548.6715</ele>
        <time>2014-08-26T13:10:24Z</time>
      </trkpt>
      <trkpt lat="46.3252" lon="6.59244">
        <ele>548.6715</ele>
        <time>2014-08-26T13:10:29Z</time>
      </trkpt>
      <trkpt lat="46.32521" lon="6.59245">
        <ele>548.6715</ele>
        <time>2014-08-26T13:10:34Z</time>
      </trkpt>
      <trkpt lat="46.32524" lon="6.5925">
        <ele>548.6715</ele>
        <time>2014-08-26T13:10:39Z</time>
      </trkpt>
      <trkpt lat="46.32526" lon="6.59255">
        <ele>548.0209</ele>
        <time>2014-08-26T13:10:44Z</time>
      </trkpt>
      <trkpt lat="46.32527" lon="6.59257">
        <ele>548.0209</ele>
        <time>2014-08-26T13:10:49Z</time>
      </trkpt>
      <trkpt lat="46.3253" lon="6.5926">
        <ele>548.0209</ele>
        <time>2014-08-26T13:10:54Z</time>
      </trkpt>
      <trkpt lat="46.32532" lon="6.59263">
        <ele>548.0209</ele>
        <time>2014-08-26T13:10:59Z</time>
      </trkpt>
      <trkpt lat="46.32534" lon="6.59262">
        <ele>548.054</ele>
        <time>2014-08-26T13:11:04Z</time>
      </trkpt>
      <trkpt lat="46.32535" lon="6.59263">
        <ele>548.054</ele>
        <time>2014-08-26T13:11:09Z</time>
      </trkpt>
      <trkpt lat="46.32536" lon="6.59262">
        <ele>548.054</ele>
        <time>2014-08-26T13:11:14Z</time>
      </trkpt>
      <trkpt lat="46.32536" lon="6.59262">
        <ele>548.054</ele>
        <time>2014-08-26T13:11:19Z</time>
      </trkpt>
      <trkpt lat="46.32537" lon="6.5926">
        <ele>548.054</ele>
        <time>2014-08-26T13:11:24Z</time>
      </trkpt>
      <trkpt lat="46.32539" lon="6.59258">
        <ele>548.054</ele>
        <time>2014-08-26T13:11:29Z</time>
      </trkpt>
      <trkpt lat="46.32541" lon="6.59254">
        <ele>548.7213</ele>
        <time>2014-08-26T13:11:34Z</time>
      </trkpt>
      <trkpt lat="46.32543" lon="6.59249">
        <ele>548.7213</ele>
        <time>2014-08-26T13:11:39Z</time>
      </trkpt>
      <trkpt lat="46.32543" lon="6.59246">
        <ele>548.7213</ele>
        <time>2014-08-26T13:11:44Z</time>
      </trkpt>
      <trkpt lat="46.32544" lon="6.59244">
        <ele>548.7213</ele>
        <time>2014-08-26T13:11:49Z</time>
      </trkpt>
      <trkpt lat="46.32544" lon="6.59244">
        <ele>548.7213</ele>
        <time>2014-08-26T13:11:54Z</time>
      </trkpt>
      <trkpt lat="46.32547" lon="6.59242">
        <ele>549.78766</ele>
        <time>2014-08-26T13:11:59Z</time>
      </trkpt>
      <trkpt lat="46.32549" lon="6.59241">
        <ele>549.78766</ele>
        <time>2014-08-26T13:12:04Z</time>
      </trkpt>
      <trkpt lat="46.32553" lon="6.59235">
        <ele>549.78766</ele>
        <time>2014-08-26T13:12:09Z</time>
      </trkpt>
      <trkpt lat="46.32554" lon="6.59233">
        <ele>550.84644</ele>
        <time>2014-08-26T13:12:14Z</time>
      </trkpt>
      <trkpt lat="46.32558" lon="6.5923">
        <ele>550.84644</ele>
        <time>2014-08-26T13:12:19Z</time>
      </trkpt>
      <trkpt lat="46.32558" lon="6.59228">
        <ele>550.84644</ele>
        <time>2014-08-26T13:12:24Z</time>
      </trkpt>
      <trkpt lat="46.32561" lon="6.5922">
        <ele>551.92456</ele>
        <time>2014-08-26T13:12:29Z</time>
      </trkpt>
      <trkpt lat="46.32564" lon="6.59218">
        <ele>551.92456</ele>
        <time>2014-08-26T13:12:34Z</time>
      </trkpt>
      <trkpt lat="46.32567" lon="6.59215">
        <ele>551.92456</ele>
        <time>2014-08-26T13:12:39Z</time>
      </trkpt>
      <trkpt lat="46.32568" lon="6.59216">
        <ele>551.92456</ele>
        <time>2014-08-26T13:12:44Z</time>
      </trkpt>
      <trkpt lat="46.3257" lon="6.59219">
        <ele>553.42145</ele>
        <time>2014-08-26T13:12:49Z</time>
      </trkpt>
      <trkpt lat="46.32571" lon="6.59221">
        <ele>553.42145</ele>
        <time>2014-08-26T13:12:54Z</time>
      </trkpt>
      <trkpt lat="46.3257" lon="6.59224">
        <ele>553.42145</ele>
        <time>2014-08-26T13:12:59Z</time>
      </trkpt>
      <trkpt lat="46.32571" lon="6.59226">
        <ele>553.42145</ele>
        <time>2014-08-26T13:13:04Z</time>
      </trkpt>
      <trkpt lat="46.32571" lon="6.5923">
        <ele>553.42145</ele>
        <time>2014-08-26T13:13:09Z</time>
      </trkpt>
      <trkpt lat="46.32572" lon="6.59232">
        <ele>555.3024</ele>
        <time>2014-08-26T13:13:14Z</time>
      </trkpt>
      <trkpt lat="46.32575" lon="6.59235">
        <ele>555.3024</ele>
        <time>2014-08-26T13:13:19Z</time>
      </trkpt>
      <trkpt lat="46.32577" lon="6.59238">
        <ele>555.3024</ele>
        <time>2014-08-26T13:13:24Z</time>
      </trkpt>
      <trkpt lat="46.3258" lon="6.59236">
        <ele>557.3182</ele>
        <time>2014-08-26T13:13:29Z</time>
      </trkpt>
      <trkpt lat="46.32581" lon="6.59235">
        <ele>557.3182</ele>
        <time>2014-08-26T13:13:34Z</time>
      </trkpt>
      <trkpt lat="46.32581" lon="6.59235">
        <ele>557.3182</ele>
        <time>2014-08-26T13:13:39Z</time>
      </trkpt>
      <trkpt lat="46.32582" lon="6.59234">
        <ele>557.3182</ele>
        <time>2014-08-26T13:13:44Z</time>
      </trkpt>
      <trkpt lat="46.32584" lon="6.59234">
        <ele>557.3182</ele>
        <time>2014-08-26T13:13:49Z</time>
      </trkpt>
      <trkpt lat="46.32585" lon="6.59233">
        <ele>557.3182</ele>
        <time>2014-08-26T13:13:54Z</time>
      </trkpt>
      <trkpt lat="46.32585" lon="6.59233">
        <ele>557.3182</ele>
        <time>2014-08-26T13:13:59Z</time>
      </trkpt>
      <trkpt lat="46.32588" lon="6.59233">
        <ele>557.3182</ele>
        <time>2014-08-26T13:14:04Z</time>
      </trkpt>
      <trkpt lat="46.32589" lon="6.59232">
        <ele>560.6638</ele>
        <time>2014-08-26T13:14:09Z</time>
      </trkpt>
      <trkpt lat="46.32591" lon="6.5923">
        <ele>560.6638</ele>
        <time>2014-08-26T13:14:14Z</time>
      </trkpt>
      <trkpt lat="46.32593" lon="6.59232">
        <ele>560.6638</ele>
        <time>2014-08-26T13:14:19Z</time>
      </trkpt>
      <trkpt lat="46.32597" lon="6.5923">
        <ele>565.01654</ele>
        <time>2014-08-26T13:14:24Z</time>
      </trkpt>
      <trkpt lat="46.32598" lon="6.5923">
        <ele>565.01654</ele>
        <time>2014-08-26T13:14:29Z</time>
      </trkpt>
      <trkpt lat="46.32597" lon="6.59229">
        <ele>565.01654</ele>
        <time>2014-08-26T13:14:34Z</time>
      </trkpt>
      <trkpt lat="46.32598" lon="6.59229">
        <ele>565.01654</ele>
        <time>2014-08-26T13:14:39Z</time>
      </trkpt>
      <trkpt lat="46.32598" lon="6.59229">
        <ele>565.01654</ele>
        <time>2014-08-26T13:14:44Z</time>
      </trkpt>
      <trkpt lat="46.32598" lon="6.59232">
        <ele>565.01654</ele>
        <time>2014-08-26T13:14:49Z</time>
      </trkpt>
      <trkpt lat="46.32599" lon="6.59236">
        <ele>569.48334</ele>
        <time>2014-08-26T13:14:54Z</time>
      </trkpt>
      <trkpt lat="46.32601" lon="6.59239">
        <ele>569.48334</ele>
        <time>2014-08-26T13:14:59Z</time>
      </trkpt>
      <trkpt lat="46.32601" lon="6.59241">
        <ele>569.48334</ele>
        <time>2014-08-26T13:15:04Z</time>
      </trkpt>
      <trkpt lat="46.32601" lon="6.59244">
        <ele>569.48334</ele>
        <time>2014-08-26T13:15:09Z</time>
      </trkpt>
      <trkpt lat="46.32603" lon="6.59244">
        <ele>569.48334</ele>
        <time>2014-08-26T13:15:14Z</time>
      </trkpt>
      <trkpt lat="46.32604" lon="6.59247">
        <ele>573.5537</ele>
        <time>2014-08-26T13:15:19Z</time>
      </trkpt>
      <trkpt lat="46.32606" lon="6.59248">
        <ele>573.5537</ele>
        <time>2014-08-26T13:15:24Z</time>
      </trkpt>
      <trkpt lat="46.32606" lon="6.59247">
        <ele>573.5537</ele>
        <time>2014-08-26T13:15:29Z</time>
      </trkpt>
      <trkpt lat="46.32607" lon="6.59247">
        <ele>573.5537</ele>
        <time>2014-08-26T13:15:34Z</time>
      </trkpt>
      <trkpt lat="46.32608" lon="6.59244">
        <ele>573.5537</ele>
        <time>2014-08-26T13:15:39Z</time>
      </trkpt>
      <trkpt lat="46.32608" lon="6.59244">
        <ele>573.5537</ele>
        <time>2014-08-26T13:15:44Z</time>
      </trkpt>
      <trkpt lat="46.3261" lon="6.59242">
        <ele>573.5537</ele>
        <time>2014-08-26T13:15:54Z</time>
      </trkpt>
      <trkpt lat="46.32613" lon="6.59239">
        <ele>578.0672</ele>
        <time>2014-08-26T13:15:59Z</time>
      </trkpt>
      <trkpt lat="46.32613" lon="6.59239">
        <ele>578.0672</ele>
        <time>2014-08-26T13:16:04Z</time>
      </trkpt>
      <trkpt lat="46.32618" lon="6.5923">
        <ele>578.0672</ele>
        <time>2014-08-26T13:16:09Z</time>
      </trkpt>
      <trkpt lat="46.32621" lon="6.5923">
        <ele>582.69104</ele>
        <time>2014-08-26T13:16:14Z</time>
      </trkpt>
      <trkpt lat="46.32623" lon="6.59228">
        <ele>582.69104</ele>
        <time>2014-08-26T13:16:19Z</time>
      </trkpt>
      <trkpt lat="46.32623" lon="6.59228">
        <ele>582.69104</ele>
        <time>2014-08-26T13:16:24Z</time>
      </trkpt>
      <trkpt lat="46.32626" lon="6.5923">
        <ele>582.69104</ele>
        <time>2014-08-26T13:16:29Z</time>
      </trkpt>
      <trkpt lat="46.32627" lon="6.5923">
        <ele>582.69104</ele>
        <time>2014-08-26T13:16:34Z</time>
      </trkpt>
      <trkpt lat="46.32629" lon="6.59222">
        <ele>587.866</ele>
        <time>2014-08-26T13:16:39Z</time>
      </trkpt>
      <trkpt lat="46.3263" lon="6.59215">
        <ele>587.866</ele>
        <time>2014-08-26T13:16:44Z</time>
      </trkpt>
      <trkpt lat="46.32631" lon="6.59211">
        <ele>587.866</ele>
        <time>2014-08-26T13:16:49Z</time>
      </trkpt>
      <trkpt lat="46.32632" lon="6.59203">
        <ele>593.24976</ele>
        <time>2014-08-26T13:16:54Z</time>
      </trkpt>
      <trkpt lat="46.32631" lon="6.59197">
        <ele>593.24976</ele>
        <time>2014-08-26T13:16:59Z</time>
      </trkpt>
      <trkpt lat="46.32631" lon="6.59193">
        <ele>593.24976</ele>
        <time>2014-08-26T13:17:04Z</time>
      </trkpt>
      <trkpt lat="46.32633" lon="6.59186">
        <ele>598.6112</ele>
        <time>2014-08-26T13:17:09Z</time>
      </trkpt>
      <trkpt lat="46.32634" lon="6.59182">
        <ele>598.6112</ele>
        <time>2014-08-26T13:17:14Z</time>
      </trkpt>
      <trkpt lat="46.32634" lon="6.59177">
        <ele>598.6112</ele>
        <time>2014-08-26T13:17:19Z</time>
      </trkpt>
      <trkpt lat="46.32634" lon="6.59175">
        <ele>598.6112</ele>
        <time>2014-08-26T13:17:24Z</time>
      </trkpt>
      <trkpt lat="46.32637" lon="6.59171">
        <ele>603.3474</ele>
        <time>2014-08-26T13:17:29Z</time>
      </trkpt>
      <trkpt lat="46.3264" lon="6.59169">
        <ele>603.3474</ele>
        <time>2014-08-26T13:17:34Z</time>
      </trkpt>
      <trkpt lat="46.32641" lon="6.59167">
        <ele>603.3474</ele>
        <time>2014-08-26T13:17:39Z</time>
      </trkpt>
      <trkpt lat="46.32643" lon="6.59166">
        <ele>603.3474</ele>
        <time>2014-08-26T13:17:44Z</time>
      </trkpt>
      <trkpt lat="46.32643" lon="6.59166">
        <ele>603.3474</ele>
        <time>2014-08-26T13:17:49Z</time>
      </trkpt>
      <trkpt lat="46.32644" lon="6.59165">
        <ele>603.3474</ele>
        <time>2014-08-26T13:17:54Z</time>
      </trkpt>
      <trkpt lat="46.32645" lon="6.59164">
        <ele>607.19</ele>
        <time>2014-08-26T13:17:59Z</time>
      </trkpt>
      <trkpt lat="46.32645" lon="6.59164">
        <ele>607.19</ele>
        <time>2014-08-26T13:18:04Z</time>
      </trkpt>
      <trkpt lat="46.32647" lon="6.59161">
        <ele>607.19</ele>
        <time>2014-08-26T13:18:09Z</time>
      </trkpt>
      <trkpt lat="46.32649" lon="6.59158">
        <ele>607.19</ele>
        <time>2014-08-26T13:18:14Z</time>
      </trkpt>
      <trkpt lat="46.32649" lon="6.59158">
        <ele>607.19</ele>
        <time>2014-08-26T13:18:19Z</time>
      </trkpt>
      <trkpt lat="46.32652" lon="6.59155">
        <ele>611.2476</ele>
        <time>2014-08-26T13:18:34Z</time>
      </trkpt>
      <trkpt lat="46.32656" lon="6.59153">
        <ele>611.2476</ele>
        <time>2014-08-26T13:18:39Z</time>
      </trkpt>
      <trkpt lat="46.32656" lon="6.59151">
        <ele>611.2476</ele>
        <time>2014-08-26T13:18:44Z</time>
      </trkpt>
      <trkpt lat="46.32657" lon="6.59152">
        <ele>611.2476</ele>
        <time>2014-08-26T13:18:49Z</time>
      </trkpt>
      <trkpt lat="46.32659" lon="6.59153">
        <ele>611.2476</ele>
        <time>2014-08-26T13:18:54Z</time>
      </trkpt>
      <trkpt lat="46.3266" lon="6.59153">
        <ele>611.2476</ele>
        <time>2014-08-26T13:18:59Z</time>
      </trkpt>
      <trkpt lat="46.32661" lon="6.59153">
        <ele>615.6538</ele>
        <time>2014-08-26T13:19:04Z</time>
      </trkpt>
      <trkpt lat="46.32661" lon="6.59153">
        <ele>615.6538</ele>
        <time>2014-08-26T13:19:09Z</time>
      </trkpt>
      <trkpt lat="46.32664" lon="6.59157">
        <ele>615.6538</ele>
        <time>2014-08-26T13:19:19Z</time>
      </trkpt>
      <trkpt lat="46.32668" lon="6.59159">
        <ele>615.6538</ele>
        <time>2014-08-26T13:19:24Z</time>
      </trkpt>
      <trkpt lat="46.32672" lon="6.59159">
        <ele>619.53705</ele>
        <time>2014-08-26T13:19:29Z</time>
      </trkpt>
      <trkpt lat="46.32672" lon="6.59159">
        <ele>619.53705</ele>
        <time>2014-08-26T13:19:34Z</time>
      </trkpt>
      <trkpt lat="46.32673" lon="6.59161">
        <ele>619.53705</ele>
        <time>2014-08-26T13:19:39Z</time>
      </trkpt>
      <trkpt lat="46.32673" lon="6.59163">
        <ele>619.53705</ele>
        <time>2014-08-26T13:19:44Z</time>
      </trkpt>
      <trkpt lat="46.32674" lon="6.59163">
        <ele>619.53705</ele>
        <time>2014-08-26T13:19:49Z</time>
      </trkpt>
      <trkpt lat="46.32678" lon="6.59165">
        <ele>619.53705</ele>
        <time>2014-08-26T13:19:54Z</time>
      </trkpt>
      <trkpt lat="46.32683" lon="6.59171">
        <ele>622.27905</ele>
        <time>2014-08-26T13:19:59Z</time>
      </trkpt>
      <trkpt lat="46.32685" lon="6.59171">
        <ele>622.27905</ele>
        <time>2014-08-26T13:20:04Z</time>
      </trkpt>
      <trkpt lat="46.32686" lon="6.5917">
        <ele>622.27905</ele>
        <time>2014-08-26T13:20:09Z</time>
      </trkpt>
      <trkpt lat="46.32686" lon="6.59171">
        <ele>622.27905</ele>
        <time>2014-08-26T13:20:19Z</time>
      </trkpt>
      <trkpt lat="46.32689" lon="6.59169">
        <ele>622.27905</ele>
        <time>2014-08-26T13:20:24Z</time>
      </trkpt>
      <trkpt lat="46.3269" lon="6.5917">
        <ele>622.27905</ele>
        <time>2014-08-26T13:20:29Z</time>
      </trkpt>
      <trkpt lat="46.3269" lon="6.59169">
        <ele>622.27905</ele>
        <time>2014-08-26T13:20:34Z</time>
      </trkpt>
      <trkpt lat="46.32691" lon="6.59169">
        <ele>622.27905</ele>
        <time>2014-08-26T13:20:39Z</time>
      </trkpt>
      <trkpt lat="46.32691" lon="6.59169">
        <ele>622.27905</ele>
        <time>2014-08-26T13:20:44Z</time>
      </trkpt>
      <trkpt lat="46.32694" lon="6.5917">
        <ele>625.74603</ele>
        <time>2014-08-26T13:20:49Z</time>
      </trkpt>
      <trkpt lat="46.32694" lon="6.5917">
        <ele>625.74603</ele>
        <time>2014-08-26T13:20:54Z</time>
      </trkpt>
      <trkpt lat="46.32695" lon="6.5917">
        <ele>625.74603</ele>
        <time>2014-08-26T13:21:09Z</time>
      </trkpt>
      <trkpt lat="46.32697" lon="6.59169">
        <ele>625.74603</ele>
        <time>2014-08-26T13:21:14Z</time>
      </trkpt>
      <trkpt lat="46.32698" lon="6.59167">
        <ele>625.74603</ele>
        <time>2014-08-26T13:21:19Z</time>
      </trkpt>
      <trkpt lat="46.32702" lon="6.59165">
        <ele>630.2384</ele>
        <time>2014-08-26T13:21:24Z</time>
      </trkpt>
      <trkpt lat="46.32702" lon="6.59162">
        <ele>630.2384</ele>
        <time>2014-08-26T13:21:29Z</time>
      </trkpt>
      <trkpt lat="46.32703" lon="6.5916">
        <ele>630.2384</ele>
        <time>2014-08-26T13:21:34Z</time>
      </trkpt>
      <trkpt lat="46.32702" lon="6.59153">
        <ele>630.2384</ele>
        <time>2014-08-26T13:21:39Z</time>
      </trkpt>
      <trkpt lat="46.32703" lon="6.59151">
        <ele>634.7639</ele>
        <time>2014-08-26T13:21:44Z</time>
      </trkpt>
      <trkpt lat="46.32702" lon="6.59148">
        <ele>634.7639</ele>
        <time>2014-08-26T13:21:49Z</time>
      </trkpt>
      <trkpt lat="46.32703" lon="6.59147">
        <ele>634.7639</ele>
        <time>2014-08-26T13:21:54Z</time>
      </trkpt>
      <trkpt lat="46.32703" lon="6.59144">
        <ele>634.7639</ele>
        <time>2014-08-26T13:21:59Z</time>
      </trkpt>
      <trkpt lat="46.32703" lon="6.59144">
        <ele>634.7639</ele>
        <time>2014-08-26T13:22:04Z</time>
      </trkpt>
      <trkpt lat="46.32703" lon="6.59143">
        <ele>634.7639</ele>
        <time>2014-08-26T13:22:09Z</time>
      </trkpt>
      <trkpt lat="46.32705" lon="6.59138">
        <ele>639.00867</ele>
        <time>2014-08-26T13:22:14Z</time>
      </trkpt>
      <trkpt lat="46.32705" lon="6.59137">
        <ele>639.00867</ele>
        <time>2014-08-26T13:22:19Z</time>
      </trkpt>
      <trkpt lat="46.32706" lon="6.59134">
        <ele>639.00867</ele>
        <time>2014-08-26T13:22:24Z</time>
      </trkpt>
      <trkpt lat="46.32706" lon="6.59134">
        <ele>639.00867</ele>
        <time>2014-08-26T13:22:29Z</time>
      </trkpt>
      <trkpt lat="46.32707" lon="6.59134">
        <ele>639.00867</ele>
        <time>2014-08-26T13:22:34Z</time>
      </trkpt>
      <trkpt lat="46.32709" lon="6.59132">
        <ele>639.00867</ele>
        <time>2014-08-26T13:22:39Z</time>
      </trkpt>
      <trkpt lat="46.32711" lon="6.59127">
        <ele>643.27374</ele>
        <time>2014-08-26T13:22:44Z</time>
      </trkpt>
      <trkpt lat="46.32713" lon="6.59126">
        <ele>643.27374</ele>
        <time>2014-08-26T13:22:49Z</time>
      </trkpt>
      <trkpt lat="46.32714" lon="6.59127">
        <ele>643.27374</ele>
        <time>2014-08-26T13:22:54Z</time>
      </trkpt>
      <trkpt lat="46.32719" lon="6.59128">
        <ele>643.27374</ele>
        <time>2014-08-26T13:22:59Z</time>
      </trkpt>
      <trkpt lat="46.32722" lon="6.59129">
        <ele>647.42035</ele>
        <time>2014-08-26T13:23:04Z</time>
      </trkpt>
      <trkpt lat="46.32723" lon="6.59129">
        <ele>647.42035</ele>
        <time>2014-08-26T13:23:09Z</time>
      </trkpt>
      <trkpt lat="46.32725" lon="6.59132">
        <ele>647.42035</ele>
        <time>2014-08-26T13:23:14Z</time>
      </trkpt>
      <trkpt lat="46.32729" lon="6.59132">
        <ele>647.42035</ele>
        <time>2014-08-26T13:23:19Z</time>
      </trkpt>
      <trkpt lat="46.32733" lon="6.59129">
        <ele>651.10443</ele>
        <time>2014-08-26T13:23:24Z</time>
      </trkpt>
      <trkpt lat="46.32736" lon="6.59132">
        <ele>651.10443</ele>
        <time>2014-08-26T13:23:29Z</time>
      </trkpt>
      <trkpt lat="46.32739" lon="6.59135">
        <ele>651.10443</ele>
        <time>2014-08-26T13:23:34Z</time>
      </trkpt>
      <trkpt lat="46.32739" lon="6.59136">
        <ele>651.10443</ele>
        <time>2014-08-26T13:23:39Z</time>
      </trkpt>
      <trkpt lat="46.32743" lon="6.59137">
        <ele>654.4843</ele>
        <time>2014-08-26T13:23:44Z</time>
      </trkpt>
      <trkpt lat="46.32745" lon="6.59135">
        <ele>654.4843</ele>
        <time>2014-08-26T13:23:49Z</time>
      </trkpt>
      <trkpt lat="46.32746" lon="6.59135">
        <ele>654.4843</ele>
        <time>2014-08-26T13:23:54Z</time>
      </trkpt>
      <trkpt lat="46.32745" lon="6.59142">
        <ele>654.4843</ele>
        <time>2014-08-26T13:23:59Z</time>
      </trkpt>
      <trkpt lat="46.32745" lon="6.59146">
        <ele>657.4196</ele>
        <time>2014-08-26T13:24:04Z</time>
      </trkpt>
      <trkpt lat="46.32748" lon="6.59149">
        <ele>657.4196</ele>
        <time>2014-08-26T13:24:09Z</time>
      </trkpt>
      <trkpt lat="46.3275" lon="6.59151">
        <ele>657.4196</ele>
        <time>2014-08-26T13:24:14Z</time>
      </trkpt>
      <trkpt lat="46.32754" lon="6.5915">
        <ele>659.98364</ele>
        <time>2014-08-26T13:24:19Z</time>
      </trkpt>
      <trkpt lat="46.32755" lon="6.5915">
        <ele>659.98364</ele>
        <time>2014-08-26T13:24:24Z</time>
      </trkpt>
      <trkpt lat="46.32756" lon="6.59149">
        <ele>659.98364</ele>
        <time>2014-08-26T13:24:29Z</time>
      </trkpt>
      <trkpt lat="46.32757" lon="6.59146">
        <ele>659.98364</ele>
        <time>2014-08-26T13:24:34Z</time>
      </trkpt>
      <trkpt lat="46.32762" lon="6.59141">
        <ele>662.4617</ele>
        <time>2014-08-26T13:24:39Z</time>
      </trkpt>
      <trkpt lat="46.32764" lon="6.59139">
        <ele>662.4617</ele>
        <time>2014-08-26T13:24:44Z</time>
      </trkpt>
      <trkpt lat="46.32765" lon="6.59137">
        <ele>662.4617</ele>
        <time>2014-08-26T13:24:49Z</time>
      </trkpt>
      <trkpt lat="46.32766" lon="6.59135">
        <ele>662.4617</ele>
        <time>2014-08-26T13:24:54Z</time>
      </trkpt>
      <trkpt lat="46.32769" lon="6.59132">
        <ele>665.1329</ele>
        <time>2014-08-26T13:24:59Z</time>
      </trkpt>
      <trkpt lat="46.32771" lon="6.59131">
        <ele>665.1329</ele>
        <time>2014-08-26T13:25:04Z</time>
      </trkpt>
      <trkpt lat="46.32772" lon="6.59133">
        <ele>665.1329</ele>
        <time>2014-08-26T13:25:09Z</time>
      </trkpt>
      <trkpt lat="46.32773" lon="6.59138">
        <ele>665.1329</ele>
        <time>2014-08-26T13:25:14Z</time>
      </trkpt>
      <trkpt lat="46.32773" lon="6.59144">
        <ele>667.60724</ele>
        <time>2014-08-26T13:25:19Z</time>
      </trkpt>
      <trkpt lat="46.32773" lon="6.59145">
        <ele>667.60724</ele>
        <time>2014-08-26T13:25:24Z</time>
      </trkpt>
      <trkpt lat="46.32774" lon="6.59147">
        <ele>667.60724</ele>
        <time>2014-08-26T13:25:29Z</time>
      </trkpt>
      <trkpt lat="46.32775" lon="6.59146">
        <ele>667.60724</ele>
        <time>2014-08-26T13:25:34Z</time>
      </trkpt>
      <trkpt lat="46.32778" lon="6.59146">
        <ele>667.60724</ele>
        <time>2014-08-26T13:25:39Z</time>
      </trkpt>
      <trkpt lat="46.32778" lon="6.59146">
        <ele>667.60724</ele>
        <time>2014-08-26T13:25:44Z</time>
      </trkpt>
      <trkpt lat="46.32777" lon="6.59147">
        <ele>667.60724</ele>
        <time>2014-08-26T13:25:49Z</time>
      </trkpt>
      <trkpt lat="46.32778" lon="6.59147">
        <ele>667.60724</ele>
        <time>2014-08-26T13:25:54Z</time>
      </trkpt>
      <trkpt lat="46.32778" lon="6.59147">
        <ele>667.60724</ele>
        <time>2014-08-26T13:25:59Z</time>
      </trkpt>
      <trkpt lat="46.32779" lon="6.59148">
        <ele>667.60724</ele>
        <time>2014-08-26T13:26:04Z</time>
      </trkpt>
      <trkpt lat="46.3278" lon="6.59147">
        <ele>671.2679</ele>
        <time>2014-08-26T13:26:09Z</time>
      </trkpt>
      <trkpt lat="46.32783" lon="6.59146">
        <ele>671.2679</ele>
        <time>2014-08-26T13:26:14Z</time>
      </trkpt>
      <trkpt lat="46.32784" lon="6.59146">
        <ele>671.2679</ele>
        <time>2014-08-26T13:26:19Z</time>
      </trkpt>
      <trkpt lat="46.32789" lon="6.59147">
        <ele>671.2679</ele>
        <time>2014-08-26T13:26:24Z</time>
      </trkpt>
      <trkpt lat="46.32791" lon="6.59151">
        <ele>675.2171</ele>
        <time>2014-08-26T13:26:29Z</time>
      </trkpt>
      <trkpt lat="46.32796" lon="6.5915">
        <ele>675.2171</ele>
        <time>2014-08-26T13:26:34Z</time>
      </trkpt>
      <trkpt lat="46.32799" lon="6.5915">
        <ele>675.2171</ele>
        <time>2014-08-26T13:26:39Z</time>
      </trkpt>
      <trkpt lat="46.32801" lon="6.5915">
        <ele>678.8099</ele>
        <time>2014-08-26T13:26:44Z</time>
      </trkpt>
      <trkpt lat="46.32803" lon="6.5915">
        <ele>678.8099</ele>
        <time>2014-08-26T13:26:49Z</time>
      </trkpt>
      <trkpt lat="46.32805" lon="6.59148">
        <ele>678.8099</ele>
        <time>2014-08-26T13:26:54Z</time>
      </trkpt>
      <trkpt lat="46.32805" lon="6.59148">
        <ele>678.8099</ele>
        <time>2014-08-26T13:26:59Z</time>
      </trkpt>
      <trkpt lat="46.32808" lon="6.59147">
        <ele>678.8099</ele>
        <time>2014-08-26T13:27:04Z</time>
      </trkpt>
      <trkpt lat="46.32809" lon="6.59148">
        <ele>682.05505</ele>
        <time>2014-08-26T13:27:09Z</time>
      </trkpt>
      <trkpt lat="46.32809" lon="6.59148">
        <ele>682.05505</ele>
        <time>2014-08-26T13:27:14Z</time>
      </trkpt>
      <trkpt lat="46.32812" lon="6.59156">
        <ele>682.05505</ele>
        <time>2014-08-26T13:27:19Z</time>
      </trkpt>
      <trkpt lat="46.32812" lon="6.59157">
        <ele>682.05505</ele>
        <time>2014-08-26T13:27:24Z</time>
      </trkpt>
      <trkpt lat="46.32811" lon="6.59159">
        <ele>682.05505</ele>
        <time>2014-08-26T13:27:29Z</time>
      </trkpt>
      <trkpt lat="46.32812" lon="6.5916">
        <ele>685.2502</ele>
        <time>2014-08-26T13:27:34Z</time>
      </trkpt>
      <trkpt lat="46.32813" lon="6.59161">
        <ele>685.2502</ele>
        <time>2014-08-26T13:27:39Z</time>
      </trkpt>
      <trkpt lat="46.32816" lon="6.59164">
        <ele>685.2502</ele>
        <time>2014-08-26T13:27:44Z</time>
      </trkpt>
      <trkpt lat="46.32821" lon="6.59165">
        <ele>688.383</ele>
        <time>2014-08-26T13:27:49Z</time>
      </trkpt>
      <trkpt lat="46.32823" lon="6.59164">
        <ele>688.383</ele>
        <time>2014-08-26T13:27:54Z</time>
      </trkpt>
      <trkpt lat="46.32829" lon="6.59163">
        <ele>688.383</ele>
        <time>2014-08-26T13:27:59Z</time>
      </trkpt>
      <trkpt lat="46.32832" lon="6.59162">
        <ele>691.4426</ele>
        <time>2014-08-26T13:28:04Z</time>
      </trkpt>
      <trkpt lat="46.32832" lon="6.59162">
        <ele>691.4426</ele>
        <time>2014-08-26T13:28:09Z</time>
      </trkpt>
      <trkpt lat="46.32835" lon="6.59159">
        <ele>691.4426</ele>
        <time>2014-08-26T13:28:19Z</time>
      </trkpt>
      <trkpt lat="46.32838" lon="6.59158">
        <ele>691.4426</ele>
        <time>2014-08-26T13:28:24Z</time>
      </trkpt>
      <trkpt lat="46.32844" lon="6.59158">
        <ele>694.63544</ele>
        <time>2014-08-26T13:28:29Z</time>
      </trkpt>
      <trkpt lat="46.32848" lon="6.59161">
        <ele>694.63544</ele>
        <time>2014-08-26T13:28:34Z</time>
      </trkpt>
      <trkpt lat="46.3285" lon="6.59162">
        <ele>694.63544</ele>
        <time>2014-08-26T13:28:39Z</time>
      </trkpt>
      <trkpt lat="46.32853" lon="6.59163">
        <ele>697.5472</ele>
        <time>2014-08-26T13:28:44Z</time>
      </trkpt>
      <trkpt lat="46.32854" lon="6.59164">
        <ele>697.5472</ele>
        <time>2014-08-26T13:28:49Z</time>
      </trkpt>
      <trkpt lat="46.32854" lon="6.59164">
        <ele>697.5472</ele>
        <time>2014-08-26T13:28:54Z</time>
      </trkpt>
      <trkpt lat="46.32857" lon="6.59164">
        <ele>697.5472</ele>
        <time>2014-08-26T13:28:59Z</time>
      </trkpt>
      <trkpt lat="46.32858" lon="6.59163">
        <ele>697.5472</ele>
        <time>2014-08-26T13:29:04Z</time>
      </trkpt>
      <trkpt lat="46.32864" lon="6.5916">
        <ele>700.55865</ele>
        <time>2014-08-26T13:29:09Z</time>
      </trkpt>
      <trkpt lat="46.32866" lon="6.59154">
        <ele>700.55865</ele>
        <time>2014-08-26T13:29:14Z</time>
      </trkpt>
      <trkpt lat="46.32867" lon="6.59152">
        <ele>700.55865</ele>
        <time>2014-08-26T13:29:19Z</time>
      </trkpt>
      <trkpt lat="46.32871" lon="6.59148">
        <ele>703.5471</ele>
        <time>2014-08-26T13:29:24Z</time>
      </trkpt>
      <trkpt lat="46.32876" lon="6.59144">
        <ele>703.5471</ele>
        <time>2014-08-26T13:29:29Z</time>
      </trkpt>
      <trkpt lat="46.3288" lon="6.59139">
        <ele>706.45667</ele>
        <time>2014-08-26T13:29:34Z</time>
      </trkpt>
      <trkpt lat="46.32884" lon="6.59131">
        <ele>706.45667</ele>
        <time>2014-08-26T13:29:39Z</time>
      </trkpt>
      <trkpt lat="46.32884" lon="6.59127">
        <ele>709.10596</ele>
        <time>2014-08-26T13:29:44Z</time>
      </trkpt>
      <trkpt lat="46.32885" lon="6.59126">
        <ele>709.10596</ele>
        <time>2014-08-26T13:29:49Z</time>
      </trkpt>
      <trkpt lat="46.32889" lon="6.59123">
        <ele>709.10596</ele>
        <time>2014-08-26T13:29:54Z</time>
      </trkpt>
      <trkpt lat="46.3289" lon="6.59119">
        <ele>709.10596</ele>
        <time>2014-08-26T13:29:59Z</time>
      </trkpt>
      <trkpt lat="46.32891" lon="6.59112">
        <ele>711.328</ele>
        <time>2014-08-26T13:30:04Z</time>
      </trkpt>
      <trkpt lat="46.32898" lon="6.59096">
        <ele>713.0846</ele>
        <time>2014-08-26T13:30:09Z</time>
      </trkpt>
      <trkpt lat="46.32899" lon="6.59094">
        <ele>713.0846</ele>
        <time>2014-08-26T13:30:14Z</time>
      </trkpt>
      <trkpt lat="46.329" lon="6.59091">
        <ele>713.0846</ele>
        <time>2014-08-26T13:30:19Z</time>
      </trkpt>
      <trkpt lat="46.32903" lon="6.59088">
        <ele>713.0846</ele>
        <time>2014-08-26T13:30:24Z</time>
      </trkpt>
      <trkpt lat="46.32906" lon="6.59083">
        <ele>714.1255</ele>
        <time>2014-08-26T13:30:29Z</time>
      </trkpt>
      <trkpt lat="46.32907" lon="6.59075">
        <ele>714.1255</ele>
        <time>2014-08-26T13:30:34Z</time>
      </trkpt>
      <trkpt lat="46.32909" lon="6.59068">
        <ele>714.6965</ele>
        <time>2014-08-26T13:30:39Z</time>
      </trkpt>
      <trkpt lat="46.32911" lon="6.59058">
        <ele>714.6965</ele>
        <time>2014-08-26T13:30:44Z</time>
      </trkpt>
      <trkpt lat="46.32914" lon="6.59045">
        <ele>715.0412</ele>
        <time>2014-08-26T13:30:49Z</time>
      </trkpt>
      <trkpt lat="46.32914" lon="6.59041">
        <ele>715.0412</ele>
        <time>2014-08-26T13:30:54Z</time>
      </trkpt>
      <trkpt lat="46.32915" lon="6.59037">
        <ele>715.0412</ele>
        <time>2014-08-26T13:30:59Z</time>
      </trkpt>
      <trkpt lat="46.32916" lon="6.59033">
        <ele>715.0412</ele>
        <time>2014-08-26T13:31:04Z</time>
      </trkpt>
      <trkpt lat="46.32918" lon="6.59026">
        <ele>715.4434</ele>
        <time>2014-08-26T13:31:09Z</time>
      </trkpt>
      <trkpt lat="46.3292" lon="6.59021">
        <ele>715.4434</ele>
        <time>2014-08-26T13:31:14Z</time>
      </trkpt>
      <trkpt lat="46.32921" lon="6.59017">
        <ele>715.4434</ele>
        <time>2014-08-26T13:31:19Z</time>
      </trkpt>
      <trkpt lat="46.32924" lon="6.59014">
        <ele>716.02203</ele>
        <time>2014-08-26T13:31:24Z</time>
      </trkpt>
      <trkpt lat="46.32929" lon="6.59009">
        <ele>716.02203</ele>
        <time>2014-08-26T13:31:29Z</time>
      </trkpt>
      <trkpt lat="46.3293" lon="6.59005">
        <ele>716.02203</ele>
        <time>2014-08-26T13:31:34Z</time>
      </trkpt>
      <trkpt lat="46.32932" lon="6.59003">
        <ele>716.5983</ele>
        <time>2014-08-26T13:31:39Z</time>
      </trkpt>
      <trkpt lat="46.32935" lon="6.59">
        <ele>716.5983</ele>
        <time>2014-08-26T13:31:44Z</time>
      </trkpt>
      <trkpt lat="46.32936" lon="6.58997">
        <ele>716.5983</ele>
        <time>2014-08-26T13:31:49Z</time>
      </trkpt>
      <trkpt lat="46.32939" lon="6.58994">
        <ele>717.1508</ele>
        <time>2014-08-26T13:31:54Z</time>
      </trkpt>
      <trkpt lat="46.32943" lon="6.58989">
        <ele>717.1508</ele>
        <time>2014-08-26T13:31:59Z</time>
      </trkpt>
      <trkpt lat="46.32946" lon="6.58985">
        <ele>717.5298</ele>
        <time>2014-08-26T13:32:04Z</time>
      </trkpt>
      <trkpt lat="46.32948" lon="6.58982">
        <ele>717.5298</ele>
        <time>2014-08-26T13:32:09Z</time>
      </trkpt>
      <trkpt lat="46.32953" lon="6.58976">
        <ele>717.81323</ele>
        <time>2014-08-26T13:32:14Z</time>
      </trkpt>
      <trkpt lat="46.32956" lon="6.58974">
        <ele>717.81323</ele>
        <time>2014-08-26T13:32:19Z</time>
      </trkpt>
      <trkpt lat="46.32956" lon="6.58976">
        <ele>717.81323</ele>
        <time>2014-08-26T13:32:24Z</time>
      </trkpt>
      <trkpt lat="46.32957" lon="6.58974">
        <ele>717.81323</ele>
        <time>2014-08-26T13:32:29Z</time>
      </trkpt>
      <trkpt lat="46.32958" lon="6.5897">
        <ele>717.91504</ele>
        <time>2014-08-26T13:32:34Z</time>
      </trkpt>
      <trkpt lat="46.3296" lon="6.58964">
        <ele>717.91504</ele>
        <time>2014-08-26T13:32:39Z</time>
      </trkpt>
      <trkpt lat="46.32963" lon="6.58963">
        <ele>717.91504</ele>
        <time>2014-08-26T13:32:44Z</time>
      </trkpt>
      <trkpt lat="46.32966" lon="6.5896">
        <ele>717.79895</ele>
        <time>2014-08-26T13:32:49Z</time>
      </trkpt>
      <trkpt lat="46.32968" lon="6.58955">
        <ele>717.79895</ele>
        <time>2014-08-26T13:32:54Z</time>
      </trkpt>
      <trkpt lat="46.3297" lon="6.58953">
        <ele>717.79895</ele>
        <time>2014-08-26T13:32:59Z</time>
      </trkpt>
      <trkpt lat="46.32971" lon="6.5895">
        <ele>717.79895</ele>
        <time>2014-08-26T13:33:04Z</time>
      </trkpt>
      <trkpt lat="46.32972" lon="6.58947">
        <ele>717.56165</ele>
        <time>2014-08-26T13:33:09Z</time>
      </trkpt>
      <trkpt lat="46.32974" lon="6.58944">
        <ele>717.56165</ele>
        <time>2014-08-26T13:33:14Z</time>
      </trkpt>
      <trkpt lat="46.32977" lon="6.58939">
        <ele>717.56165</ele>
        <time>2014-08-26T13:33:19Z</time>
      </trkpt>
      <trkpt lat="46.32979" lon="6.58938">
        <ele>717.36487</ele>
        <time>2014-08-26T13:33:24Z</time>
      </trkpt>
      <trkpt lat="46.32983" lon="6.58934">
        <ele>717.36487</ele>
        <time>2014-08-26T13:33:29Z</time>
      </trkpt>
      <trkpt lat="46.32988" lon="6.58933">
        <ele>717.1132</ele>
        <time>2014-08-26T13:33:34Z</time>
      </trkpt>
      <trkpt lat="46.32995" lon="6.58931">
        <ele>717.1132</ele>
        <time>2014-08-26T13:33:39Z</time>
      </trkpt>
      <trkpt lat="46.33001" lon="6.58929">
        <ele>716.8481</ele>
        <time>2014-08-26T13:33:44Z</time>
      </trkpt>
      <trkpt lat="46.33004" lon="6.58928">
        <ele>716.8481</ele>
        <time>2014-08-26T13:33:49Z</time>
      </trkpt>
      <trkpt lat="46.33004" lon="6.58925">
        <ele>716.8481</ele>
        <time>2014-08-26T13:33:54Z</time>
      </trkpt>
      <trkpt lat="46.33006" lon="6.58921">
        <ele>716.8481</ele>
        <time>2014-08-26T13:33:59Z</time>
      </trkpt>
      <trkpt lat="46.33008" lon="6.58918">
        <ele>716.867</ele>
        <time>2014-08-26T13:34:04Z</time>
      </trkpt>
      <trkpt lat="46.33014" lon="6.58916">
        <ele>716.867</ele>
        <time>2014-08-26T13:34:09Z</time>
      </trkpt>
      <trkpt lat="46.33015" lon="6.58915">
        <ele>716.867</ele>
        <time>2014-08-26T13:34:14Z</time>
      </trkpt>
      <trkpt lat="46.33016" lon="6.58917">
        <ele>716.867</ele>
        <time>2014-08-26T13:34:19Z</time>
      </trkpt>
      <trkpt lat="46.33016" lon="6.5892">
        <ele>716.6231</ele>
        <time>2014-08-26T13:34:24Z</time>
      </trkpt>
      <trkpt lat="46.33017" lon="6.58923">
        <ele>716.6231</ele>
        <time>2014-08-26T13:34:29Z</time>
      </trkpt>
      <trkpt lat="46.33019" lon="6.58923">
        <ele>716.6231</ele>
        <time>2014-08-26T13:34:34Z</time>
      </trkpt>
      <trkpt lat="46.3302" lon="6.58922">
        <ele>716.6231</ele>
        <time>2014-08-26T13:34:39Z</time>
      </trkpt>
      <trkpt lat="46.3302" lon="6.58927">
        <ele>716.1725</ele>
        <time>2014-08-26T13:34:44Z</time>
      </trkpt>
      <trkpt lat="46.33022" lon="6.58938">
        <ele>716.1725</ele>
        <time>2014-08-26T13:34:49Z</time>
      </trkpt>
      <trkpt lat="46.33022" lon="6.58943">
        <ele>715.6538</ele>
        <time>2014-08-26T13:34:54Z</time>
      </trkpt>
      <trkpt lat="46.33023" lon="6.58944">
        <ele>715.6538</ele>
        <time>2014-08-26T13:34:59Z</time>
      </trkpt>
      <trkpt lat="46.33026" lon="6.58952">
        <ele>715.6538</ele>
        <time>2014-08-26T13:35:04Z</time>
      </trkpt>
      <trkpt lat="46.33031" lon="6.58955">
        <ele>715.2963</ele>
        <time>2014-08-26T13:35:09Z</time>
      </trkpt>
      <trkpt lat="46.33034" lon="6.58961">
        <ele>715.2963</ele>
        <time>2014-08-26T13:35:14Z</time>
      </trkpt>
      <trkpt lat="46.33035" lon="6.58964">
        <ele>715.2963</ele>
        <time>2014-08-26T13:35:19Z</time>
      </trkpt>
      <trkpt lat="46.33036" lon="6.58966">
        <ele>715.2963</ele>
        <time>2014-08-26T13:35:24Z</time>
      </trkpt>
      <trkpt lat="46.33036" lon="6.58976">
        <ele>715.60016</ele>
        <time>2014-08-26T13:35:29Z</time>
      </trkpt>
      <trkpt lat="46.33036" lon="6.58976">
        <ele>715.60016</ele>
        <time>2014-08-26T13:35:34Z</time>
      </trkpt>
      <trkpt lat="46.33038" lon="6.58977">
        <ele>715.60016</ele>
        <time>2014-08-26T13:35:39Z</time>
      </trkpt>
      <trkpt lat="46.3304" lon="6.58978">
        <ele>715.60016</ele>
        <time>2014-08-26T13:35:44Z</time>
      </trkpt>
      <trkpt lat="46.33041" lon="6.58985">
        <ele>715.60016</ele>
        <time>2014-08-26T13:35:49Z</time>
      </trkpt>
      <trkpt lat="46.33042" lon="6.58991">
        <ele>716.81036</ele>
        <time>2014-08-26T13:35:54Z</time>
      </trkpt>
      <trkpt lat="46.33042" lon="6.58992">
        <ele>716.81036</ele>
        <time>2014-08-26T13:35:59Z</time>
      </trkpt>
      <trkpt lat="46.33045" lon="6.58997">
        <ele>716.81036</ele>
        <time>2014-08-26T13:36:04Z</time>
      </trkpt>
      <trkpt lat="46.33049" lon="6.58997">
        <ele>716.81036</ele>
        <time>2014-08-26T13:36:09Z</time>
      </trkpt>
      <trkpt lat="46.33049" lon="6.58999">
        <ele>718.4883</ele>
        <time>2014-08-26T13:36:14Z</time>
      </trkpt>
      <trkpt lat="46.33052" lon="6.59015">
        <ele>720.0242</ele>
        <time>2014-08-26T13:36:19Z</time>
      </trkpt>
      <trkpt lat="46.33052" lon="6.59019">
        <ele>720.0242</ele>
        <time>2014-08-26T13:36:24Z</time>
      </trkpt>
      <trkpt lat="46.33053" lon="6.59027">
        <ele>720.0242</ele>
        <time>2014-08-26T13:36:29Z</time>
      </trkpt>
      <trkpt lat="46.3306" lon="6.59033">
        <ele>721.5307</ele>
        <time>2014-08-26T13:36:34Z</time>
      </trkpt>
      <trkpt lat="46.33067" lon="6.59035">
        <ele>721.5307</ele>
        <time>2014-08-26T13:36:39Z</time>
      </trkpt>
      <trkpt lat="46.33071" lon="6.59039">
        <ele>722.8815</ele>
        <time>2014-08-26T13:36:44Z</time>
      </trkpt>
      <trkpt lat="46.33071" lon="6.59042">
        <ele>722.8815</ele>
        <time>2014-08-26T13:36:49Z</time>
      </trkpt>
      <trkpt lat="46.33072" lon="6.59046">
        <ele>722.8815</ele>
        <time>2014-08-26T13:36:54Z</time>
      </trkpt>
      <trkpt lat="46.33072" lon="6.59047">
        <ele>722.8815</ele>
        <time>2014-08-26T13:36:59Z</time>
      </trkpt>
      <trkpt lat="46.33072" lon="6.59049">
        <ele>722.8815</ele>
        <time>2014-08-26T13:37:04Z</time>
      </trkpt>
      <trkpt lat="46.33074" lon="6.59058">
        <ele>724.53613</ele>
        <time>2014-08-26T13:37:09Z</time>
      </trkpt>
      <trkpt lat="46.33081" lon="6.59056">
        <ele>724.53613</ele>
        <time>2014-08-26T13:37:14Z</time>
      </trkpt>
      <trkpt lat="46.33085" lon="6.59055">
        <ele>726.34296</ele>
        <time>2014-08-26T13:37:19Z</time>
      </trkpt>
      <trkpt lat="46.33085" lon="6.59057">
        <ele>726.34296</ele>
        <time>2014-08-26T13:37:24Z</time>
      </trkpt>
      <trkpt lat="46.33085" lon="6.59057">
        <ele>726.34296</ele>
        <time>2014-08-26T13:37:29Z</time>
      </trkpt>
      <trkpt lat="46.33086" lon="6.59064">
        <ele>726.34296</ele>
        <time>2014-08-26T13:37:34Z</time>
      </trkpt>
      <trkpt lat="46.33087" lon="6.59071">
        <ele>728.2474</ele>
        <time>2014-08-26T13:37:39Z</time>
      </trkpt>
      <trkpt lat="46.33087" lon="6.59071">
        <ele>728.2474</ele>
        <time>2014-08-26T13:37:44Z</time>
      </trkpt>
      <trkpt lat="46.3309" lon="6.59073">
        <ele>728.2474</ele>
        <time>2014-08-26T13:37:49Z</time>
      </trkpt>
      <trkpt lat="46.33096" lon="6.59081">
        <ele>729.72284</ele>
        <time>2014-08-26T13:37:54Z</time>
      </trkpt>
      <trkpt lat="46.331" lon="6.59082">
        <ele>729.72284</ele>
        <time>2014-08-26T13:37:59Z</time>
      </trkpt>
      <trkpt lat="46.33101" lon="6.59083">
        <ele>729.72284</ele>
        <time>2014-08-26T13:38:04Z</time>
      </trkpt>
      <trkpt lat="46.33102" lon="6.59084">
        <ele>729.72284</ele>
        <time>2014-08-26T13:38:09Z</time>
      </trkpt>
      <trkpt lat="46.33108" lon="6.59088">
        <ele>730.7004</ele>
        <time>2014-08-26T13:38:14Z</time>
      </trkpt>
      <trkpt lat="46.33108" lon="6.59088">
        <ele>730.7004</ele>
        <time>2014-08-26T13:38:19Z</time>
      </trkpt>
      <trkpt lat="46.33109" lon="6.59096">
        <ele>730.7004</ele>
        <time>2014-08-26T13:38:29Z</time>
      </trkpt>
      <trkpt lat="46.3311" lon="6.59099">
        <ele>730.7004</ele>
        <time>2014-08-26T13:38:34Z</time>
      </trkpt>
      <trkpt lat="46.33113" lon="6.59106">
        <ele>732.09735</ele>
        <time>2014-08-26T13:38:39Z</time>
      </trkpt>
      <trkpt lat="46.33117" lon="6.59116">
        <ele>732.09735</ele>
        <time>2014-08-26T13:38:44Z</time>
      </trkpt>
      <trkpt lat="46.33116" lon="6.59123">
        <ele>733.53754</ele>
        <time>2014-08-26T13:38:49Z</time>
      </trkpt>
      <trkpt lat="46.33116" lon="6.59123">
        <ele>733.53754</ele>
        <time>2014-08-26T13:38:54Z</time>
      </trkpt>
      <trkpt lat="46.33117" lon="6.59128">
        <ele>733.53754</ele>
        <time>2014-08-26T13:38:59Z</time>
      </trkpt>
      <trkpt lat="46.33116" lon="6.59128">
        <ele>733.53754</ele>
        <time>2014-08-26T13:39:04Z</time>
      </trkpt>
      <trkpt lat="46.33115" lon="6.5913">
        <ele>733.53754</ele>
        <time>2014-08-26T13:39:09Z</time>
      </trkpt>
      <trkpt lat="46.33116" lon="6.5913">
        <ele>733.53754</ele>
        <time>2014-08-26T13:39:14Z</time>
      </trkpt>
      <trkpt lat="46.33116" lon="6.59131">
        <ele>733.53754</ele>
        <time>2014-08-26T13:39:19Z</time>
      </trkpt>
      <trkpt lat="46.33113" lon="6.59138">
        <ele>734.98895</ele>
        <time>2014-08-26T13:39:24Z</time>
      </trkpt>
      <trkpt lat="46.33112" lon="6.59142">
        <ele>734.98895</ele>
        <time>2014-08-26T13:39:29Z</time>
      </trkpt>
      <trkpt lat="46.33112" lon="6.59145">
        <ele>734.98895</ele>
        <time>2014-08-26T13:39:34Z</time>
      </trkpt>
      <trkpt lat="46.33102" lon="6.59159">
        <ele>736.278</ele>
        <time>2014-08-26T13:39:39Z</time>
      </trkpt>
      <trkpt lat="46.33101" lon="6.59159">
        <ele>736.278</ele>
        <time>2014-08-26T13:39:44Z</time>
      </trkpt>
      <trkpt lat="46.33099" lon="6.59164">
        <ele>736.278</ele>
        <time>2014-08-26T13:39:49Z</time>
      </trkpt>
      <trkpt lat="46.33099" lon="6.59164">
        <ele>736.278</ele>
        <time>2014-08-26T13:39:54Z</time>
      </trkpt>
      <trkpt lat="46.33097" lon="6.59171">
        <ele>737.8782</ele>
        <time>2014-08-26T13:39:59Z</time>
      </trkpt>
      <trkpt lat="46.33097" lon="6.59171">
        <ele>737.8782</ele>
        <time>2014-08-26T13:40:04Z</time>
      </trkpt>
      <trkpt lat="46.33096" lon="6.59185">
        <ele>739.30475</ele>
        <time>2014-08-26T13:40:14Z</time>
      </trkpt>
      <trkpt lat="46.33091" lon="6.59207">
        <ele>740.4263</ele>
        <time>2014-08-26T13:40:19Z</time>
      </trkpt>
      <trkpt lat="46.33089" lon="6.59214">
        <ele>740.4263</ele>
        <time>2014-08-26T13:40:24Z</time>
      </trkpt>
      <trkpt lat="46.33088" lon="6.59221">
        <ele>741.20807</ele>
        <time>2014-08-26T13:40:29Z</time>
      </trkpt>
      <trkpt lat="46.33085" lon="6.59238">
        <ele>741.8351</ele>
        <time>2014-08-26T13:40:34Z</time>
      </trkpt>
      <trkpt lat="46.33083" lon="6.59241">
        <ele>741.8351</ele>
        <time>2014-08-26T13:40:39Z</time>
      </trkpt>
      <trkpt lat="46.33082" lon="6.59243">
        <ele>741.8351</ele>
        <time>2014-08-26T13:40:44Z</time>
      </trkpt>
      <trkpt lat="46.3308" lon="6.59243">
        <ele>741.8351</ele>
        <time>2014-08-26T13:40:49Z</time>
      </trkpt>
      <trkpt lat="46.33079" lon="6.59244">
        <ele>741.8351</ele>
        <time>2014-08-26T13:40:54Z</time>
      </trkpt>
      <trkpt lat="46.33077" lon="6.59247">
        <ele>741.90265</ele>
        <time>2014-08-26T13:40:59Z</time>
      </trkpt>
      <trkpt lat="46.33072" lon="6.59253">
        <ele>741.90265</ele>
        <time>2014-08-26T13:41:04Z</time>
      </trkpt>
      <trkpt lat="46.33069" lon="6.59255">
        <ele>741.78656</ele>
        <time>2014-08-26T13:41:09Z</time>
      </trkpt>
      <trkpt lat="46.33067" lon="6.59258">
        <ele>741.78656</ele>
        <time>2014-08-26T13:41:14Z</time>
      </trkpt>
      <trkpt lat="46.33067" lon="6.59258">
        <ele>741.78656</ele>
        <time>2014-08-26T13:41:19Z</time>
      </trkpt>
      <trkpt lat="46.33065" lon="6.59268">
        <ele>741.5762</ele>
        <time>2014-08-26T13:41:24Z</time>
      </trkpt>
      <trkpt lat="46.33065" lon="6.59272">
        <ele>741.5762</ele>
        <time>2014-08-26T13:41:29Z</time>
      </trkpt>
      <trkpt lat="46.33065" lon="6.59272">
        <ele>741.5762</ele>
        <time>2014-08-26T13:41:34Z</time>
      </trkpt>
      <trkpt lat="46.33066" lon="6.59274">
        <ele>741.5762</ele>
        <time>2014-08-26T13:41:39Z</time>
      </trkpt>
      <trkpt lat="46.33063" lon="6.59285">
        <ele>741.55615</ele>
        <time>2014-08-26T13:41:44Z</time>
      </trkpt>
      <trkpt lat="46.33059" lon="6.59296">
        <ele>741.55615</ele>
        <time>2014-08-26T13:41:49Z</time>
      </trkpt>
      <trkpt lat="46.33058" lon="6.59299">
        <ele>741.5861</ele>
        <time>2014-08-26T13:41:54Z</time>
      </trkpt>
      <trkpt lat="46.33058" lon="6.59304">
        <ele>741.5861</ele>
        <time>2014-08-26T13:41:59Z</time>
      </trkpt>
      <trkpt lat="46.33058" lon="6.59306">
        <ele>741.5861</ele>
        <time>2014-08-26T13:42:04Z</time>
      </trkpt>
      <trkpt lat="46.33063" lon="6.59323">
        <ele>741.7809</ele>
        <time>2014-08-26T13:42:09Z</time>
      </trkpt>
      <trkpt lat="46.33067" lon="6.59333">
        <ele>741.7809</ele>
        <time>2014-08-26T13:42:14Z</time>
      </trkpt>
      <trkpt lat="46.33068" lon="6.59342">
        <ele>741.7273</ele>
        <time>2014-08-26T13:42:19Z</time>
      </trkpt>
      <trkpt lat="46.33069" lon="6.59347">
        <ele>741.7273</ele>
        <time>2014-08-26T13:42:24Z</time>
      </trkpt>
      <trkpt lat="46.33072" lon="6.59357">
        <ele>741.56195</ele>
        <time>2014-08-26T13:42:29Z</time>
      </trkpt>
      <trkpt lat="46.33072" lon="6.59357">
        <ele>741.56195</ele>
        <time>2014-08-26T13:42:34Z</time>
      </trkpt>
      <trkpt lat="46.33073" lon="6.59359">
        <ele>741.56195</ele>
        <time>2014-08-26T13:42:39Z</time>
      </trkpt>
      <trkpt lat="46.33073" lon="6.5936">
        <ele>741.56195</ele>
        <time>2014-08-26T13:42:44Z</time>
      </trkpt>
      <trkpt lat="46.33074" lon="6.5936">
        <ele>741.56195</ele>
        <time>2014-08-26T13:42:49Z</time>
      </trkpt>
      <trkpt lat="46.33075" lon="6.59361">
        <ele>741.56195</ele>
        <time>2014-08-26T13:42:54Z</time>
      </trkpt>
      <trkpt lat="46.33082" lon="6.59366">
        <ele>740.87866</ele>
        <time>2014-08-26T13:42:59Z</time>
      </trkpt>
      <trkpt lat="46.33084" lon="6.59367">
        <ele>740.87866</ele>
        <time>2014-08-26T13:43:04Z</time>
      </trkpt>
      <trkpt lat="46.3309" lon="6.59372">
        <ele>740.15234</ele>
        <time>2014-08-26T13:43:09Z</time>
      </trkpt>
      <trkpt lat="46.33097" lon="6.59376">
        <ele>740.15234</ele>
        <time>2014-08-26T13:43:14Z</time>
      </trkpt>
      <trkpt lat="46.33098" lon="6.59383">
        <ele>739.43427</ele>
        <time>2014-08-26T13:43:19Z</time>
      </trkpt>
      <trkpt lat="46.331" lon="6.59386">
        <ele>739.43427</ele>
        <time>2014-08-26T13:43:24Z</time>
      </trkpt>
      <trkpt lat="46.33103" lon="6.59388">
        <ele>739.43427</ele>
        <time>2014-08-26T13:43:29Z</time>
      </trkpt>
      <trkpt lat="46.33107" lon="6.5939">
        <ele>738.77155</ele>
        <time>2014-08-26T13:43:34Z</time>
      </trkpt>
      <trkpt lat="46.33108" lon="6.59391">
        <ele>738.77155</ele>
        <time>2014-08-26T13:43:39Z</time>
      </trkpt>
      <trkpt lat="46.33111" lon="6.59393">
        <ele>738.77155</ele>
        <time>2014-08-26T13:43:44Z</time>
      </trkpt>
      <trkpt lat="46.33114" lon="6.59392">
        <ele>738.77155</ele>
        <time>2014-08-26T13:43:49Z</time>
      </trkpt>
      <trkpt lat="46.33118" lon="6.59394">
        <ele>738.1933</ele>
        <time>2014-08-26T13:43:54Z</time>
      </trkpt>
      <trkpt lat="46.33123" lon="6.59396">
        <ele>738.1933</ele>
        <time>2014-08-26T13:43:59Z</time>
      </trkpt>
      <trkpt lat="46.33126" lon="6.59398">
        <ele>738.1933</ele>
        <time>2014-08-26T13:44:04Z</time>
      </trkpt>
      <trkpt lat="46.33127" lon="6.59401">
        <ele>737.8846</ele>
        <time>2014-08-26T13:44:09Z</time>
      </trkpt>
      <trkpt lat="46.3313" lon="6.59399">
        <ele>737.8846</ele>
        <time>2014-08-26T13:44:14Z</time>
      </trkpt>
      <trkpt lat="46.33135" lon="6.59399">
        <ele>737.8846</ele>
        <time>2014-08-26T13:44:19Z</time>
      </trkpt>
      <trkpt lat="46.33139" lon="6.59398">
        <ele>737.64136</ele>
        <time>2014-08-26T13:44:24Z</time>
      </trkpt>
      <trkpt lat="46.33143" lon="6.59398">
        <ele>737.64136</ele>
        <time>2014-08-26T13:44:29Z</time>
      </trkpt>
      <trkpt lat="46.33146" lon="6.59397">
        <ele>737.64136</ele>
        <time>2014-08-26T13:44:34Z</time>
      </trkpt>
      <trkpt lat="46.3315" lon="6.59397">
        <ele>737.5336</ele>
        <time>2014-08-26T13:44:39Z</time>
      </trkpt>
      <trkpt lat="46.33153" lon="6.59396">
        <ele>737.5336</ele>
        <time>2014-08-26T13:44:44Z</time>
      </trkpt>
      <trkpt lat="46.33159" lon="6.59394">
        <ele>737.4096</ele>
        <time>2014-08-26T13:44:49Z</time>
      </trkpt>
      <trkpt lat="46.33165" lon="6.59394">
        <ele>737.4096</ele>
        <time>2014-08-26T13:44:54Z</time>
      </trkpt>
      <trkpt lat="46.33171" lon="6.59393">
        <ele>737.2006</ele>
        <time>2014-08-26T13:44:59Z</time>
      </trkpt>
      <trkpt lat="46.33176" lon="6.59394">
        <ele>737.2006</ele>
        <time>2014-08-26T13:45:04Z</time>
      </trkpt>
      <trkpt lat="46.33181" lon="6.59395">
        <ele>737.0018</ele>
        <time>2014-08-26T13:45:09Z</time>
      </trkpt>
      <trkpt lat="46.33187" lon="6.59397">
        <ele>737.0018</ele>
        <time>2014-08-26T13:45:14Z</time>
      </trkpt>
      <trkpt lat="46.33193" lon="6.59399">
        <ele>736.872</ele>
        <time>2014-08-26T13:45:19Z</time>
      </trkpt>
      <trkpt lat="46.332" lon="6.59402">
        <ele>736.872</ele>
        <time>2014-08-26T13:45:24Z</time>
      </trkpt>
      <trkpt lat="46.33205" lon="6.59405">
        <ele>736.85144</ele>
        <time>2014-08-26T13:45:29Z</time>
      </trkpt>
      <trkpt lat="46.33209" lon="6.59406">
        <ele>736.85144</ele>
        <time>2014-08-26T13:45:34Z</time>
      </trkpt>
      <trkpt lat="46.33214" lon="6.59409">
        <ele>736.9766</ele>
        <time>2014-08-26T13:45:39Z</time>
      </trkpt>
      <trkpt lat="46.33218" lon="6.59411">
        <ele>736.9766</ele>
        <time>2014-08-26T13:45:44Z</time>
      </trkpt>
      <trkpt lat="46.3322" lon="6.59414">
        <ele>736.9766</ele>
        <time>2014-08-26T13:45:49Z</time>
      </trkpt>
      <trkpt lat="46.33226" lon="6.59418">
        <ele>737.382</ele>
        <time>2014-08-26T13:45:54Z</time>
      </trkpt>
      <trkpt lat="46.33231" lon="6.59423">
        <ele>737.382</ele>
        <time>2014-08-26T13:45:59Z</time>
      </trkpt>
      <trkpt lat="46.33234" lon="6.59424">
        <ele>737.382</ele>
        <time>2014-08-26T13:46:04Z</time>
      </trkpt>
      <trkpt lat="46.33239" lon="6.59427">
        <ele>737.94617</ele>
        <time>2014-08-26T13:46:09Z</time>
      </trkpt>
      <trkpt lat="46.33245" lon="6.59429">
        <ele>737.94617</ele>
        <time>2014-08-26T13:46:14Z</time>
      </trkpt>
      <trkpt lat="46.33248" lon="6.5943">
        <ele>738.5849</ele>
        <time>2014-08-26T13:46:19Z</time>
      </trkpt>
      <trkpt lat="46.33253" lon="6.5943">
        <ele>738.5849</ele>
        <time>2014-08-26T13:46:24Z</time>
      </trkpt>
      <trkpt lat="46.33258" lon="6.59429">
        <ele>739.39276</ele>
        <time>2014-08-26T13:46:29Z</time>
      </trkpt>
      <trkpt lat="46.3326" lon="6.59425">
        <ele>739.39276</ele>
        <time>2014-08-26T13:46:34Z</time>
      </trkpt>
      <trkpt lat="46.33262" lon="6.59422">
        <ele>739.39276</ele>
        <time>2014-08-26T13:46:39Z</time>
      </trkpt>
      <trkpt lat="46.33263" lon="6.59422">
        <ele>739.39276</ele>
        <time>2014-08-26T13:46:44Z</time>
      </trkpt>
      <trkpt lat="46.33266" lon="6.59421">
        <ele>740.34155</ele>
        <time>2014-08-26T13:46:49Z</time>
      </trkpt>
      <trkpt lat="46.33269" lon="6.59421">
        <ele>740.34155</ele>
        <time>2014-08-26T13:46:54Z</time>
      </trkpt>
      <trkpt lat="46.33273" lon="6.59421">
        <ele>740.34155</ele>
        <time>2014-08-26T13:46:59Z</time>
      </trkpt>
      <trkpt lat="46.33274" lon="6.59423">
        <ele>741.46246</ele>
        <time>2014-08-26T13:47:04Z</time>
      </trkpt>
      <trkpt lat="46.33276" lon="6.59425">
        <ele>741.46246</ele>
        <time>2014-08-26T13:47:09Z</time>
      </trkpt>
      <trkpt lat="46.33283" lon="6.59431">
        <ele>742.53876</ele>
        <time>2014-08-26T13:47:14Z</time>
      </trkpt>
      <trkpt lat="46.3329" lon="6.59438">
        <ele>742.53876</ele>
        <time>2014-08-26T13:47:19Z</time>
      </trkpt>
      <trkpt lat="46.33296" lon="6.59444">
        <ele>743.57135</ele>
        <time>2014-08-26T13:47:24Z</time>
      </trkpt>
      <trkpt lat="46.333" lon="6.59451">
        <ele>743.57135</ele>
        <time>2014-08-26T13:47:29Z</time>
      </trkpt>
      <trkpt lat="46.33304" lon="6.59455">
        <ele>744.5614</ele>
        <time>2014-08-26T13:47:34Z</time>
      </trkpt>
      <trkpt lat="46.33307" lon="6.59459">
        <ele>744.5614</ele>
        <time>2014-08-26T13:47:39Z</time>
      </trkpt>
      <trkpt lat="46.33311" lon="6.59461">
        <ele>744.5614</ele>
        <time>2014-08-26T13:47:44Z</time>
      </trkpt>
      <trkpt lat="46.33316" lon="6.59462">
        <ele>745.43787</ele>
        <time>2014-08-26T13:47:49Z</time>
      </trkpt>
      <trkpt lat="46.33321" lon="6.59465">
        <ele>745.43787</ele>
        <time>2014-08-26T13:47:54Z</time>
      </trkpt>
      <trkpt lat="46.33325" lon="6.59465">
        <ele>746.36584</ele>
        <time>2014-08-26T13:47:59Z</time>
      </trkpt>
      <trkpt lat="46.33332" lon="6.59464">
        <ele>746.36584</ele>
        <time>2014-08-26T13:48:04Z</time>
      </trkpt>
      <trkpt lat="46.33337" lon="6.59462">
        <ele>747.3972</ele>
        <time>2014-08-26T13:48:09Z</time>
      </trkpt>
      <trkpt lat="46.33341" lon="6.59461">
        <ele>747.3972</ele>
        <time>2014-08-26T13:48:14Z</time>
      </trkpt>
      <trkpt lat="46.33347" lon="6.59458">
        <ele>748.4502</ele>
        <time>2014-08-26T13:48:19Z</time>
      </trkpt>
      <trkpt lat="46.33351" lon="6.59456">
        <ele>748.4502</ele>
        <time>2014-08-26T13:48:24Z</time>
      </trkpt>
      <trkpt lat="46.33357" lon="6.59454">
        <ele>749.46326</ele>
        <time>2014-08-26T13:48:29Z</time>
      </trkpt>
      <trkpt lat="46.33363" lon="6.59453">
        <ele>749.46326</ele>
        <time>2014-08-26T13:48:34Z</time>
      </trkpt>
      <trkpt lat="46.33365" lon="6.59455">
        <ele>749.46326</ele>
        <time>2014-08-26T13:48:39Z</time>
      </trkpt>
      <trkpt lat="46.33369" lon="6.59458">
        <ele>750.45154</ele>
        <time>2014-08-26T13:48:44Z</time>
      </trkpt>
      <trkpt lat="46.33373" lon="6.59456">
        <ele>750.45154</ele>
        <time>2014-08-26T13:48:49Z</time>
      </trkpt>
      <trkpt lat="46.33378" lon="6.59454">
        <ele>751.37164</ele>
        <time>2014-08-26T13:48:54Z</time>
      </trkpt>
      <trkpt lat="46.3338" lon="6.59454">
        <ele>751.37164</ele>
        <time>2014-08-26T13:48:59Z</time>
      </trkpt>
      <trkpt lat="46.33384" lon="6.59452">
        <ele>751.37164</ele>
        <time>2014-08-26T13:49:04Z</time>
      </trkpt>
      <trkpt lat="46.33386" lon="6.59454">
        <ele>751.37164</ele>
        <time>2014-08-26T13:49:09Z</time>
      </trkpt>
      <trkpt lat="46.33388" lon="6.59459">
        <ele>752.3707</ele>
        <time>2014-08-26T13:49:14Z</time>
      </trkpt>
      <trkpt lat="46.33391" lon="6.59463">
        <ele>752.3707</ele>
        <time>2014-08-26T13:49:19Z</time>
      </trkpt>
      <trkpt lat="46.33396" lon="6.59467">
        <ele>753.23926</ele>
        <time>2014-08-26T13:49:24Z</time>
      </trkpt>
      <trkpt lat="46.33397" lon="6.59469">
        <ele>753.23926</ele>
        <time>2014-08-26T13:49:29Z</time>
      </trkpt>
      <trkpt lat="46.33401" lon="6.59472">
        <ele>753.23926</ele>
        <time>2014-08-26T13:49:34Z</time>
      </trkpt>
      <trkpt lat="46.33406" lon="6.59475">
        <ele>754.0716</ele>
        <time>2014-08-26T13:49:39Z</time>
      </trkpt>
      <trkpt lat="46.33414" lon="6.59476">
        <ele>754.0716</ele>
        <time>2014-08-26T13:49:44Z</time>
      </trkpt>
      <trkpt lat="46.33425" lon="6.59479">
        <ele>754.9265</ele>
        <time>2014-08-26T13:49:49Z</time>
      </trkpt>
      <trkpt lat="46.33435" lon="6.59478">
        <ele>755.74316</ele>
        <time>2014-08-26T13:49:54Z</time>
      </trkpt>
      <trkpt lat="46.3344" lon="6.59475">
        <ele>755.74316</ele>
        <time>2014-08-26T13:49:59Z</time>
      </trkpt>
      <trkpt lat="46.33443" lon="6.59477">
        <ele>755.74316</ele>
        <time>2014-08-26T13:50:04Z</time>
      </trkpt>
      <trkpt lat="46.33446" lon="6.59476">
        <ele>756.63824</ele>
        <time>2014-08-26T13:50:09Z</time>
      </trkpt>
      <trkpt lat="46.33447" lon="6.59477">
        <ele>756.63824</ele>
        <time>2014-08-26T13:50:14Z</time>
      </trkpt>
      <trkpt lat="46.33448" lon="6.59479">
        <ele>756.63824</ele>
        <time>2014-08-26T13:50:19Z</time>
      </trkpt>
      <trkpt lat="46.3345" lon="6.59478">
        <ele>756.63824</ele>
        <time>2014-08-26T13:50:24Z</time>
      </trkpt>
      <trkpt lat="46.33454" lon="6.59478">
        <ele>757.64764</ele>
        <time>2014-08-26T13:50:29Z</time>
      </trkpt>
      <trkpt lat="46.3346" lon="6.59479">
        <ele>757.64764</ele>
        <time>2014-08-26T13:50:34Z</time>
      </trkpt>
      <trkpt lat="46.33466" lon="6.59481">
        <ele>758.66016</ele>
        <time>2014-08-26T13:50:39Z</time>
      </trkpt>
      <trkpt lat="46.33472" lon="6.59486">
        <ele>758.66016</ele>
        <time>2014-08-26T13:50:44Z</time>
      </trkpt>
      <trkpt lat="46.33473" lon="6.59487">
        <ele>758.66016</ele>
        <time>2014-08-26T13:50:49Z</time>
      </trkpt>
      <trkpt lat="46.33476" lon="6.59489">
        <ele>759.7025</ele>
        <time>2014-08-26T13:50:54Z</time>
      </trkpt>
      <trkpt lat="46.33478" lon="6.59492">
        <ele>759.7025</ele>
        <time>2014-08-26T13:50:59Z</time>
      </trkpt>
      <trkpt lat="46.33478" lon="6.59492">
        <ele>759.7025</ele>
        <time>2014-08-26T13:51:04Z</time>
      </trkpt>
      <trkpt lat="46.33481" lon="6.59494">
        <ele>759.7025</ele>
        <time>2014-08-26T13:51:29Z</time>
      </trkpt>
      <trkpt lat="46.33481" lon="6.59494">
        <ele>759.7025</ele>
        <time>2014-08-26T13:51:34Z</time>
      </trkpt>
      <trkpt lat="46.33492" lon="6.59502">
        <ele>761.10223</ele>
        <time>2014-08-26T13:51:39Z</time>
      </trkpt>
      <trkpt lat="46.33497" lon="6.59505">
        <ele>761.10223</ele>
        <time>2014-08-26T13:51:44Z</time>
      </trkpt>
      <trkpt lat="46.335" lon="6.59508">
        <ele>761.10223</ele>
        <time>2014-08-26T13:51:49Z</time>
      </trkpt>
      <trkpt lat="46.33511" lon="6.59512">
        <ele>762.6283</ele>
        <time>2014-08-26T13:51:54Z</time>
      </trkpt>
      <trkpt lat="46.33516" lon="6.59519">
        <ele>762.6283</ele>
        <time>2014-08-26T13:51:59Z</time>
      </trkpt>
      <trkpt lat="46.33518" lon="6.59525">
        <ele>764.02344</ele>
        <time>2014-08-26T13:52:04Z</time>
      </trkpt>
      <trkpt lat="46.33522" lon="6.59531">
        <ele>764.02344</ele>
        <time>2014-08-26T13:52:09Z</time>
      </trkpt>
      <trkpt lat="46.33523" lon="6.59533">
        <ele>764.02344</ele>
        <time>2014-08-26T13:52:14Z</time>
      </trkpt>
      <trkpt lat="46.33525" lon="6.59535">
        <ele>765.4242</ele>
        <time>2014-08-26T13:52:19Z</time>
      </trkpt>
      <trkpt lat="46.33527" lon="6.59535">
        <ele>765.4242</ele>
        <time>2014-08-26T13:52:24Z</time>
      </trkpt>
      <trkpt lat="46.33536" lon="6.59542">
        <ele>766.7411</ele>
        <time>2014-08-26T13:52:29Z</time>
      </trkpt>
      <trkpt lat="46.33542" lon="6.59547">
        <ele>766.7411</ele>
        <time>2014-08-26T13:52:34Z</time>
      </trkpt>
      <trkpt lat="46.33546" lon="6.5955">
        <ele>767.99225</ele>
        <time>2014-08-26T13:52:39Z</time>
      </trkpt>
      <trkpt lat="46.33549" lon="6.59558">
        <ele>767.99225</ele>
        <time>2014-08-26T13:52:44Z</time>
      </trkpt>
      <trkpt lat="46.33551" lon="6.59566">
        <ele>769.25244</ele>
        <time>2014-08-26T13:52:49Z</time>
      </trkpt>
      <trkpt lat="46.33555" lon="6.5957">
        <ele>769.25244</ele>
        <time>2014-08-26T13:52:54Z</time>
      </trkpt>
      <trkpt lat="46.33557" lon="6.59572">
        <ele>769.25244</ele>
        <time>2014-08-26T13:52:59Z</time>
      </trkpt>
      <trkpt lat="46.33558" lon="6.59574">
        <ele>770.591</ele>
        <time>2014-08-26T13:53:04Z</time>
      </trkpt>
      <trkpt lat="46.33561" lon="6.59577">
        <ele>770.591</ele>
        <time>2014-08-26T13:53:09Z</time>
      </trkpt>
      <trkpt lat="46.33565" lon="6.59579">
        <ele>770.591</ele>
        <time>2014-08-26T13:53:14Z</time>
      </trkpt>
      <trkpt lat="46.33569" lon="6.59582">
        <ele>771.9711</ele>
        <time>2014-08-26T13:53:19Z</time>
      </trkpt>
      <trkpt lat="46.33569" lon="6.59587">
        <ele>771.9711</ele>
        <time>2014-08-26T13:53:24Z</time>
      </trkpt>
      <trkpt lat="46.33568" lon="6.59593">
        <ele>771.9711</ele>
        <time>2014-08-26T13:53:29Z</time>
      </trkpt>
      <trkpt lat="46.33569" lon="6.59595">
        <ele>773.474</ele>
        <time>2014-08-26T13:53:34Z</time>
      </trkpt>
      <trkpt lat="46.33574" lon="6.59597">
        <ele>773.474</ele>
        <time>2014-08-26T13:53:39Z</time>
      </trkpt>
      <trkpt lat="46.33578" lon="6.596">
        <ele>775.1313</ele>
        <time>2014-08-26T13:53:44Z</time>
      </trkpt>
      <trkpt lat="46.33581" lon="6.596">
        <ele>775.1313</ele>
        <time>2014-08-26T13:53:49Z</time>
      </trkpt>
      <trkpt lat="46.33583" lon="6.59602">
        <ele>775.1313</ele>
        <time>2014-08-26T13:53:54Z</time>
      </trkpt>
      <trkpt lat="46.33582" lon="6.59608">
        <ele>776.9431</ele>
        <time>2014-08-26T13:53:59Z</time>
      </trkpt>
      <trkpt lat="46.33583" lon="6.5961">
        <ele>776.9431</ele>
        <time>2014-08-26T13:54:04Z</time>
      </trkpt>
      <trkpt lat="46.33585" lon="6.59613">
        <ele>776.9431</ele>
        <time>2014-08-26T13:54:09Z</time>
      </trkpt>
      <trkpt lat="46.33586" lon="6.59613">
        <ele>776.9431</ele>
        <time>2014-08-26T13:54:14Z</time>
      </trkpt>
      <trkpt lat="46.33589" lon="6.59612">
        <ele>776.9431</ele>
        <time>2014-08-26T13:54:19Z</time>
      </trkpt>
      <trkpt lat="46.3359" lon="6.59614">
        <ele>778.3472</ele>
        <time>2014-08-26T13:54:24Z</time>
      </trkpt>
      <trkpt lat="46.33591" lon="6.59614">
        <ele>778.3472</ele>
        <time>2014-08-26T13:54:29Z</time>
      </trkpt>
      <trkpt lat="46.33592" lon="6.59614">
        <ele>778.3472</ele>
        <time>2014-08-26T13:54:34Z</time>
      </trkpt>
      <trkpt lat="46.33592" lon="6.59614">
        <ele>778.3472</ele>
        <time>2014-08-26T13:54:39Z</time>
      </trkpt>
      <trkpt lat="46.33592" lon="6.59614">
        <ele>778.3472</ele>
        <time>2014-08-26T13:54:44Z</time>
      </trkpt>
      <trkpt lat="46.33591" lon="6.59621">
        <ele>778.3472</ele>
        <time>2014-08-26T13:54:59Z</time>
      </trkpt>
      <trkpt lat="46.33588" lon="6.59626">
        <ele>779.6022</ele>
        <time>2014-08-26T13:55:04Z</time>
      </trkpt>
      <trkpt lat="46.33588" lon="6.59629">
        <ele>779.6022</ele>
        <time>2014-08-26T13:55:09Z</time>
      </trkpt>
      <trkpt lat="46.33587" lon="6.59629">
        <ele>779.6022</ele>
        <time>2014-08-26T13:55:14Z</time>
      </trkpt>
      <trkpt lat="46.33587" lon="6.59629">
        <ele>779.6022</ele>
        <time>2014-08-26T13:55:19Z</time>
      </trkpt>
      <trkpt lat="46.33587" lon="6.59626">
        <ele>779.6022</ele>
        <time>2014-08-26T13:55:24Z</time>
      </trkpt>
      <trkpt lat="46.33587" lon="6.59627">
        <ele>779.6022</ele>
        <time>2014-08-26T13:55:29Z</time>
      </trkpt>
      <trkpt lat="46.33587" lon="6.5963">
        <ele>779.6022</ele>
        <time>2014-08-26T13:55:34Z</time>
      </trkpt>
      <trkpt lat="46.33588" lon="6.59633">
        <ele>780.7606</ele>
        <time>2014-08-26T13:55:39Z</time>
      </trkpt>
      <trkpt lat="46.3359" lon="6.5964">
        <ele>780.7606</ele>
        <time>2014-08-26T13:55:44Z</time>
      </trkpt>
      <trkpt lat="46.33594" lon="6.59649">
        <ele>781.8141</ele>
        <time>2014-08-26T13:55:49Z</time>
      </trkpt>
      <trkpt lat="46.33594" lon="6.59656">
        <ele>781.8141</ele>
        <time>2014-08-26T13:55:54Z</time>
      </trkpt>
      <trkpt lat="46.33597" lon="6.59659">
        <ele>781.8141</ele>
        <time>2014-08-26T13:55:59Z</time>
      </trkpt>
      <trkpt lat="46.33603" lon="6.59667">
        <ele>782.6973</ele>
        <time>2014-08-26T13:56:04Z</time>
      </trkpt>
      <trkpt lat="46.33607" lon="6.59671">
        <ele>782.6973</ele>
        <time>2014-08-26T13:56:09Z</time>
      </trkpt>
      <trkpt lat="46.3361" lon="6.59676">
        <ele>783.5235</ele>
        <time>2014-08-26T13:56:14Z</time>
      </trkpt>
      <trkpt lat="46.3361" lon="6.59679">
        <ele>783.5235</ele>
        <time>2014-08-26T13:56:19Z</time>
      </trkpt>
      <trkpt lat="46.3361" lon="6.59679">
        <ele>783.5235</ele>
        <time>2014-08-26T13:56:24Z</time>
      </trkpt>
      <trkpt lat="46.3361" lon="6.59679">
        <ele>783.5235</ele>
        <time>2014-08-26T13:56:29Z</time>
      </trkpt>
      <trkpt lat="46.3361" lon="6.59679">
        <ele>783.5235</ele>
        <time>2014-08-26T13:56:34Z</time>
      </trkpt>
      <trkpt lat="46.33609" lon="6.59678">
        <ele>783.5235</ele>
        <time>2014-08-26T13:56:39Z</time>
      </trkpt>
      <trkpt lat="46.33607" lon="6.59679">
        <ele>783.5235</ele>
        <time>2014-08-26T13:56:44Z</time>
      </trkpt>
      <trkpt lat="46.33605" lon="6.59679">
        <ele>783.5235</ele>
        <time>2014-08-26T13:56:49Z</time>
      </trkpt>
      <trkpt lat="46.33604" lon="6.5968">
        <ele>784.31116</ele>
        <time>2014-08-26T13:56:54Z</time>
      </trkpt>
      <trkpt lat="46.33603" lon="6.5968">
        <ele>784.31116</ele>
        <time>2014-08-26T13:56:59Z</time>
      </trkpt>
      <trkpt lat="46.33602" lon="6.5968">
        <ele>784.31116</ele>
        <time>2014-08-26T13:57:04Z</time>
      </trkpt>
      <trkpt lat="46.33601" lon="6.5968">
        <ele>784.31116</ele>
        <time>2014-08-26T13:57:09Z</time>
      </trkpt>
      <trkpt lat="46.33602" lon="6.59679">
        <ele>784.31116</ele>
        <time>2014-08-26T13:57:14Z</time>
      </trkpt>
      <trkpt lat="46.33603" lon="6.59679">
        <ele>784.31116</ele>
        <time>2014-08-26T13:57:19Z</time>
      </trkpt>
      <trkpt lat="46.33602" lon="6.59679">
        <ele>784.31116</ele>
        <time>2014-08-26T13:57:24Z</time>
      </trkpt>
      <trkpt lat="46.33602" lon="6.59679">
        <ele>784.31116</ele>
        <time>2014-08-26T13:57:29Z</time>
      </trkpt>
      <trkpt lat="46.33602" lon="6.59679">
        <ele>784.31116</ele>
        <time>2014-08-26T13:57:34Z</time>
      </trkpt>
      <trkpt lat="46.33602" lon="6.59679">
        <ele>784.31116</ele>
        <time>2014-08-26T13:58:29Z</time>
      </trkpt>
      <trkpt lat="46.33602" lon="6.59679">
        <ele>784.31116</ele>
        <time>2014-08-26T13:58:34Z</time>
      </trkpt>
      <trkpt lat="46.33602" lon="6.59679">
        <ele>784.31116</ele>
        <time>2014-08-26T13:58:49Z</time>
      </trkpt>
      <trkpt lat="46.33603" lon="6.59678">
        <ele>784.31116</ele>
        <time>2014-08-26T13:58:54Z</time>
      </trkpt>
      <trkpt lat="46.33603" lon="6.59677">
        <ele>784.31116</ele>
        <time>2014-08-26T13:58:59Z</time>
      </trkpt>
      <trkpt lat="46.33602" lon="6.59671">
        <ele>785.2507</ele>
        <time>2014-08-26T13:59:04Z</time>
      </trkpt>
      <trkpt lat="46.33602" lon="6.59667">
        <ele>785.2507</ele>
        <time>2014-08-26T13:59:09Z</time>
      </trkpt>
      <trkpt lat="46.33607" lon="6.59668">
        <ele>785.2507</ele>
        <time>2014-08-26T13:59:14Z</time>
      </trkpt>
      <trkpt lat="46.33614" lon="6.59671">
        <ele>785.8983</ele>
        <time>2014-08-26T13:59:19Z</time>
      </trkpt>
      <trkpt lat="46.3362" lon="6.59677">
        <ele>785.8983</ele>
        <time>2014-08-26T13:59:24Z</time>
      </trkpt>
      <trkpt lat="46.33626" lon="6.5968">
        <ele>786.36255</ele>
        <time>2014-08-26T13:59:29Z</time>
      </trkpt>
      <trkpt lat="46.3363" lon="6.59682">
        <ele>786.36255</ele>
        <time>2014-08-26T13:59:34Z</time>
      </trkpt>
      <trkpt lat="46.33634" lon="6.59684">
        <ele>786.36255</ele>
        <time>2014-08-26T13:59:39Z</time>
      </trkpt>
      <trkpt lat="46.33638" lon="6.5969">
        <ele>786.83105</ele>
        <time>2014-08-26T13:59:44Z</time>
      </trkpt>
      <trkpt lat="46.33643" lon="6.59693">
        <ele>786.83105</ele>
        <time>2014-08-26T13:59:49Z</time>
      </trkpt>
      <trkpt lat="46.33649" lon="6.59698">
        <ele>787.3192</ele>
        <time>2014-08-26T13:59:54Z</time>
      </trkpt>
      <trkpt lat="46.33655" lon="6.59705">
        <ele>787.3192</ele>
        <time>2014-08-26T13:59:59Z</time>
      </trkpt>
      <trkpt lat="46.33658" lon="6.59713">
        <ele>787.82666</ele>
        <time>2014-08-26T14:00:04Z</time>
      </trkpt>
      <trkpt lat="46.3366" lon="6.5972">
        <ele>787.82666</ele>
        <time>2014-08-26T14:00:09Z</time>
      </trkpt>
      <trkpt lat="46.33661" lon="6.59725">
        <ele>788.28125</ele>
        <time>2014-08-26T14:00:14Z</time>
      </trkpt>
      <trkpt lat="46.33662" lon="6.59731">
        <ele>788.28125</ele>
        <time>2014-08-26T14:00:19Z</time>
      </trkpt>
      <trkpt lat="46.33664" lon="6.5974">
        <ele>788.6161</ele>
        <time>2014-08-26T14:00:24Z</time>
      </trkpt>
      <trkpt lat="46.33665" lon="6.59746">
        <ele>788.6161</ele>
        <time>2014-08-26T14:00:29Z</time>
      </trkpt>
      <trkpt lat="46.33668" lon="6.59755">
        <ele>788.79846</ele>
        <time>2014-08-26T14:00:34Z</time>
      </trkpt>
      <trkpt lat="46.33669" lon="6.59759">
        <ele>788.79846</ele>
        <time>2014-08-26T14:00:39Z</time>
      </trkpt>
      <trkpt lat="46.33671" lon="6.59767">
        <ele>788.79846</ele>
        <time>2014-08-26T14:00:44Z</time>
      </trkpt>
      <trkpt lat="46.33674" lon="6.59774">
        <ele>788.74084</ele>
        <time>2014-08-26T14:00:49Z</time>
      </trkpt>
      <trkpt lat="46.33677" lon="6.59782">
        <ele>788.74084</ele>
        <time>2014-08-26T14:00:54Z</time>
      </trkpt>
      <trkpt lat="46.33681" lon="6.59791">
        <ele>788.65106</ele>
        <time>2014-08-26T14:00:59Z</time>
      </trkpt>
      <trkpt lat="46.33684" lon="6.59798">
        <ele>788.65106</ele>
        <time>2014-08-26T14:01:04Z</time>
      </trkpt>
      <trkpt lat="46.33687" lon="6.59803">
        <ele>788.592</ele>
        <time>2014-08-26T14:01:09Z</time>
      </trkpt>
      <trkpt lat="46.33691" lon="6.59806">
        <ele>788.592</ele>
        <time>2014-08-26T14:01:14Z</time>
      </trkpt>
      <trkpt lat="46.33695" lon="6.5981">
        <ele>788.592</ele>
        <time>2014-08-26T14:01:19Z</time>
      </trkpt>
      <trkpt lat="46.33699" lon="6.59817">
        <ele>788.5786</ele>
        <time>2014-08-26T14:01:24Z</time>
      </trkpt>
      <trkpt lat="46.33705" lon="6.59824">
        <ele>788.5786</ele>
        <time>2014-08-26T14:01:29Z</time>
      </trkpt>
      <trkpt lat="46.33707" lon="6.59829">
        <ele>788.49493</ele>
        <time>2014-08-26T14:01:34Z</time>
      </trkpt>
      <trkpt lat="46.3371" lon="6.59832">
        <ele>788.49493</ele>
        <time>2014-08-26T14:01:39Z</time>
      </trkpt>
      <trkpt lat="46.33712" lon="6.59837">
        <ele>788.49493</ele>
        <time>2014-08-26T14:01:44Z</time>
      </trkpt>
      <trkpt lat="46.33715" lon="6.59842">
        <ele>788.23364</ele>
        <time>2014-08-26T14:01:49Z</time>
      </trkpt>
      <trkpt lat="46.33716" lon="6.59851">
        <ele>788.23364</ele>
        <time>2014-08-26T14:01:54Z</time>
      </trkpt>
      <trkpt lat="46.33717" lon="6.59861">
        <ele>787.8399</ele>
        <time>2014-08-26T14:01:59Z</time>
      </trkpt>
      <trkpt lat="46.33717" lon="6.59869">
        <ele>787.8399</ele>
        <time>2014-08-26T14:02:04Z</time>
      </trkpt>
      <trkpt lat="46.33716" lon="6.59879">
        <ele>787.5289</ele>
        <time>2014-08-26T14:02:09Z</time>
      </trkpt>
      <trkpt lat="46.33713" lon="6.59891">
        <ele>787.5289</ele>
        <time>2014-08-26T14:02:14Z</time>
      </trkpt>
      <trkpt lat="46.33713" lon="6.59899">
        <ele>787.3986</ele>
        <time>2014-08-26T14:02:19Z</time>
      </trkpt>
      <trkpt lat="46.33714" lon="6.59907">
        <ele>787.3986</ele>
        <time>2014-08-26T14:02:24Z</time>
      </trkpt>
      <trkpt lat="46.33713" lon="6.59916">
        <ele>787.309</ele>
        <time>2014-08-26T14:02:29Z</time>
      </trkpt>
      <trkpt lat="46.33713" lon="6.59925">
        <ele>787.309</ele>
        <time>2014-08-26T14:02:34Z</time>
      </trkpt>
      <trkpt lat="46.33713" lon="6.59934">
        <ele>787.4037</ele>
        <time>2014-08-26T14:02:39Z</time>
      </trkpt>
      <trkpt lat="46.33714" lon="6.59942">
        <ele>787.4037</ele>
        <time>2014-08-26T14:02:44Z</time>
      </trkpt>
      <trkpt lat="46.33714" lon="6.5995">
        <ele>787.873</ele>
        <time>2014-08-26T14:02:49Z</time>
      </trkpt>
      <trkpt lat="46.33714" lon="6.59957">
        <ele>787.873</ele>
        <time>2014-08-26T14:02:54Z</time>
      </trkpt>
      <trkpt lat="46.33715" lon="6.59963">
        <ele>788.50287</ele>
        <time>2014-08-26T14:02:59Z</time>
      </trkpt>
      <trkpt lat="46.33716" lon="6.5997">
        <ele>788.50287</ele>
        <time>2014-08-26T14:03:04Z</time>
      </trkpt>
      <trkpt lat="46.33716" lon="6.59978">
        <ele>789.2388</ele>
        <time>2014-08-26T14:03:09Z</time>
      </trkpt>
      <trkpt lat="46.33717" lon="6.59985">
        <ele>789.2388</ele>
        <time>2014-08-26T14:03:14Z</time>
      </trkpt>
      <trkpt lat="46.33718" lon="6.59994">
        <ele>790.04407</ele>
        <time>2014-08-26T14:03:19Z</time>
      </trkpt>
      <trkpt lat="46.33719" lon="6.60002">
        <ele>790.04407</ele>
        <time>2014-08-26T14:03:24Z</time>
      </trkpt>
      <trkpt lat="46.33719" lon="6.60012">
        <ele>790.9568</ele>
        <time>2014-08-26T14:03:29Z</time>
      </trkpt>
      <trkpt lat="46.3372" lon="6.60017">
        <ele>790.9568</ele>
        <time>2014-08-26T14:03:34Z</time>
      </trkpt>
      <trkpt lat="46.3372" lon="6.60025">
        <ele>791.8243</ele>
        <time>2014-08-26T14:03:39Z</time>
      </trkpt>
      <trkpt lat="46.33721" lon="6.60031">
        <ele>791.8243</ele>
        <time>2014-08-26T14:03:44Z</time>
      </trkpt>
      <trkpt lat="46.33722" lon="6.60038">
        <ele>792.7071</ele>
        <time>2014-08-26T14:03:49Z</time>
      </trkpt>
      <trkpt lat="46.33721" lon="6.60043">
        <ele>792.7071</ele>
        <time>2014-08-26T14:03:54Z</time>
      </trkpt>
      <trkpt lat="46.33719" lon="6.60051">
        <ele>793.54584</ele>
        <time>2014-08-26T14:03:59Z</time>
      </trkpt>
      <trkpt lat="46.33718" lon="6.60058">
        <ele>793.54584</ele>
        <time>2014-08-26T14:04:04Z</time>
      </trkpt>
      <trkpt lat="46.33717" lon="6.60065">
        <ele>794.2425</ele>
        <time>2014-08-26T14:04:09Z</time>
      </trkpt>
      <trkpt lat="46.33715" lon="6.60071">
        <ele>794.2425</ele>
        <time>2014-08-26T14:04:14Z</time>
      </trkpt>
      <trkpt lat="46.33714" lon="6.60073">
        <ele>794.2425</ele>
        <time>2014-08-26T14:04:19Z</time>
      </trkpt>
      <trkpt lat="46.33712" lon="6.60083">
        <ele>794.8794</ele>
        <time>2014-08-26T14:04:24Z</time>
      </trkpt>
      <trkpt lat="46.33709" lon="6.60092">
        <ele>794.8794</ele>
        <time>2014-08-26T14:04:29Z</time>
      </trkpt>
      <trkpt lat="46.33708" lon="6.60101">
        <ele>795.3745</ele>
        <time>2014-08-26T14:04:34Z</time>
      </trkpt>
      <trkpt lat="46.33707" lon="6.60111">
        <ele>795.3745</ele>
        <time>2014-08-26T14:04:39Z</time>
      </trkpt>
      <trkpt lat="46.33707" lon="6.60119">
        <ele>795.7819</ele>
        <time>2014-08-26T14:04:44Z</time>
      </trkpt>
      <trkpt lat="46.33707" lon="6.60129">
        <ele>795.7819</ele>
        <time>2014-08-26T14:04:49Z</time>
      </trkpt>
      <trkpt lat="46.3371" lon="6.60139">
        <ele>796.2096</ele>
        <time>2014-08-26T14:04:54Z</time>
      </trkpt>
      <trkpt lat="46.33712" lon="6.60147">
        <ele>796.2096</ele>
        <time>2014-08-26T14:04:59Z</time>
      </trkpt>
      <trkpt lat="46.33713" lon="6.60154">
        <ele>796.6421</ele>
        <time>2014-08-26T14:05:04Z</time>
      </trkpt>
      <trkpt lat="46.33714" lon="6.60159">
        <ele>796.6421</ele>
        <time>2014-08-26T14:05:09Z</time>
      </trkpt>
      <trkpt lat="46.33716" lon="6.60166">
        <ele>796.6421</ele>
        <time>2014-08-26T14:05:14Z</time>
      </trkpt>
      <trkpt lat="46.33717" lon="6.60172">
        <ele>797.03644</ele>
        <time>2014-08-26T14:05:19Z</time>
      </trkpt>
      <trkpt lat="46.33718" lon="6.60177">
        <ele>797.03644</ele>
        <time>2014-08-26T14:05:24Z</time>
      </trkpt>
      <trkpt lat="46.3372" lon="6.60185">
        <ele>797.4104</ele>
        <time>2014-08-26T14:05:29Z</time>
      </trkpt>
      <trkpt lat="46.33722" lon="6.60193">
        <ele>797.4104</ele>
        <time>2014-08-26T14:05:34Z</time>
      </trkpt>
      <trkpt lat="46.33725" lon="6.60203">
        <ele>797.63635</ele>
        <time>2014-08-26T14:05:39Z</time>
      </trkpt>
      <trkpt lat="46.33728" lon="6.6021">
        <ele>797.63635</ele>
        <time>2014-08-26T14:05:44Z</time>
      </trkpt>
      <trkpt lat="46.33731" lon="6.60216">
        <ele>797.7262</ele>
        <time>2014-08-26T14:05:49Z</time>
      </trkpt>
      <trkpt lat="46.33733" lon="6.60221">
        <ele>797.7262</ele>
        <time>2014-08-26T14:05:54Z</time>
      </trkpt>
      <trkpt lat="46.33733" lon="6.6023">
        <ele>797.7202</ele>
        <time>2014-08-26T14:05:59Z</time>
      </trkpt>
      <trkpt lat="46.33734" lon="6.60238">
        <ele>797.7202</ele>
        <time>2014-08-26T14:06:04Z</time>
      </trkpt>
      <trkpt lat="46.33736" lon="6.60248">
        <ele>797.51166</ele>
        <time>2014-08-26T14:06:09Z</time>
      </trkpt>
      <trkpt lat="46.33736" lon="6.60257">
        <ele>797.51166</ele>
        <time>2014-08-26T14:06:14Z</time>
      </trkpt>
      <trkpt lat="46.33737" lon="6.60264">
        <ele>797.18964</ele>
        <time>2014-08-26T14:06:19Z</time>
      </trkpt>
      <trkpt lat="46.33739" lon="6.6027">
        <ele>797.18964</ele>
        <time>2014-08-26T14:06:24Z</time>
      </trkpt>
      <trkpt lat="46.33741" lon="6.60282">
        <ele>796.8802</ele>
        <time>2014-08-26T14:06:29Z</time>
      </trkpt>
      <trkpt lat="46.33741" lon="6.60293">
        <ele>796.8802</ele>
        <time>2014-08-26T14:06:34Z</time>
      </trkpt>
      <trkpt lat="46.33741" lon="6.60301">
        <ele>796.77216</ele>
        <time>2014-08-26T14:06:39Z</time>
      </trkpt>
      <trkpt lat="46.33743" lon="6.60307">
        <ele>796.77216</ele>
        <time>2014-08-26T14:06:44Z</time>
      </trkpt>
      <trkpt lat="46.33745" lon="6.60311">
        <ele>796.77216</ele>
        <time>2014-08-26T14:06:49Z</time>
      </trkpt>
      <trkpt lat="46.33744" lon="6.60318">
        <ele>796.67944</ele>
        <time>2014-08-26T14:06:54Z</time>
      </trkpt>
      <trkpt lat="46.33744" lon="6.60326">
        <ele>796.67944</ele>
        <time>2014-08-26T14:06:59Z</time>
      </trkpt>
      <trkpt lat="46.33745" lon="6.60333">
        <ele>796.5451</ele>
        <time>2014-08-26T14:07:04Z</time>
      </trkpt>
      <trkpt lat="46.33747" lon="6.60337">
        <ele>796.5451</ele>
        <time>2014-08-26T14:07:09Z</time>
      </trkpt>
      <trkpt lat="46.33749" lon="6.60344">
        <ele>796.5451</ele>
        <time>2014-08-26T14:07:14Z</time>
      </trkpt>
      <trkpt lat="46.33752" lon="6.60351">
        <ele>796.2729</ele>
        <time>2014-08-26T14:07:19Z</time>
      </trkpt>
      <trkpt lat="46.33754" lon="6.60357">
        <ele>796.2729</ele>
        <time>2014-08-26T14:07:24Z</time>
      </trkpt>
      <trkpt lat="46.33757" lon="6.60364">
        <ele>796.03357</ele>
        <time>2014-08-26T14:07:29Z</time>
      </trkpt>
      <trkpt lat="46.33759" lon="6.60373">
        <ele>796.03357</ele>
        <time>2014-08-26T14:07:34Z</time>
      </trkpt>
      <trkpt lat="46.33761" lon="6.6038">
        <ele>795.7834</ele>
        <time>2014-08-26T14:07:39Z</time>
      </trkpt>
      <trkpt lat="46.33763" lon="6.60389">
        <ele>795.7834</ele>
        <time>2014-08-26T14:07:44Z</time>
      </trkpt>
      <trkpt lat="46.33765" lon="6.60394">
        <ele>795.56836</ele>
        <time>2014-08-26T14:07:49Z</time>
      </trkpt>
      <trkpt lat="46.33766" lon="6.604">
        <ele>795.56836</ele>
        <time>2014-08-26T14:07:54Z</time>
      </trkpt>
      <trkpt lat="46.33769" lon="6.60403">
        <ele>795.56836</ele>
        <time>2014-08-26T14:07:59Z</time>
      </trkpt>
      <trkpt lat="46.33771" lon="6.6041">
        <ele>795.60376</ele>
        <time>2014-08-26T14:08:04Z</time>
      </trkpt>
      <trkpt lat="46.33774" lon="6.60416">
        <ele>795.60376</ele>
        <time>2014-08-26T14:08:09Z</time>
      </trkpt>
      <trkpt lat="46.33778" lon="6.60423">
        <ele>795.728</ele>
        <time>2014-08-26T14:08:14Z</time>
      </trkpt>
      <trkpt lat="46.33781" lon="6.60431">
        <ele>795.728</ele>
        <time>2014-08-26T14:08:19Z</time>
      </trkpt>
      <trkpt lat="46.33783" lon="6.60439">
        <ele>795.99304</ele>
        <time>2014-08-26T14:08:24Z</time>
      </trkpt>
      <trkpt lat="46.33784" lon="6.60448">
        <ele>795.99304</ele>
        <time>2014-08-26T14:08:29Z</time>
      </trkpt>
      <trkpt lat="46.33786" lon="6.60455">
        <ele>796.3887</ele>
        <time>2014-08-26T14:08:34Z</time>
      </trkpt>
      <trkpt lat="46.33788" lon="6.60465">
        <ele>796.3887</ele>
        <time>2014-08-26T14:08:39Z</time>
      </trkpt>
      <trkpt lat="46.33789" lon="6.60473">
        <ele>796.91956</ele>
        <time>2014-08-26T14:08:44Z</time>
      </trkpt>
      <trkpt lat="46.33791" lon="6.60481">
        <ele>796.91956</ele>
        <time>2014-08-26T14:08:49Z</time>
      </trkpt>
      <trkpt lat="46.33791" lon="6.60488">
        <ele>797.4887</ele>
        <time>2014-08-26T14:08:54Z</time>
      </trkpt>
      <trkpt lat="46.33793" lon="6.60494">
        <ele>797.4887</ele>
        <time>2014-08-26T14:08:59Z</time>
      </trkpt>
      <trkpt lat="46.33795" lon="6.60499">
        <ele>797.4887</ele>
        <time>2014-08-26T14:09:04Z</time>
      </trkpt>
      <trkpt lat="46.33798" lon="6.60505">
        <ele>798.1214</ele>
        <time>2014-08-26T14:09:09Z</time>
      </trkpt>
      <trkpt lat="46.33801" lon="6.6051">
        <ele>798.1214</ele>
        <time>2014-08-26T14:09:14Z</time>
      </trkpt>
      <trkpt lat="46.33805" lon="6.60514">
        <ele>798.62463</ele>
        <time>2014-08-26T14:09:19Z</time>
      </trkpt>
      <trkpt lat="46.33809" lon="6.60518">
        <ele>798.62463</ele>
        <time>2014-08-26T14:09:24Z</time>
      </trkpt>
      <trkpt lat="46.33813" lon="6.60523">
        <ele>799.09375</ele>
        <time>2014-08-26T14:09:29Z</time>
      </trkpt>
      <trkpt lat="46.33819" lon="6.60527">
        <ele>799.09375</ele>
        <time>2014-08-26T14:09:34Z</time>
      </trkpt>
      <trkpt lat="46.33822" lon="6.6053">
        <ele>799.819</ele>
        <time>2014-08-26T14:09:39Z</time>
      </trkpt>
      <trkpt lat="46.33826" lon="6.60535">
        <ele>799.819</ele>
        <time>2014-08-26T14:09:44Z</time>
      </trkpt>
      <trkpt lat="46.3383" lon="6.60541">
        <ele>800.8666</ele>
        <time>2014-08-26T14:09:49Z</time>
      </trkpt>
      <trkpt lat="46.33833" lon="6.60547">
        <ele>800.8666</ele>
        <time>2014-08-26T14:09:54Z</time>
      </trkpt>
      <trkpt lat="46.33835" lon="6.60556">
        <ele>802.03784</ele>
        <time>2014-08-26T14:09:59Z</time>
      </trkpt>
      <trkpt lat="46.33838" lon="6.60562">
        <ele>802.03784</ele>
        <time>2014-08-26T14:10:04Z</time>
      </trkpt>
      <trkpt lat="46.33839" lon="6.60569">
        <ele>803.0905</ele>
        <time>2014-08-26T14:10:09Z</time>
      </trkpt>
      <trkpt lat="46.3384" lon="6.60574">
        <ele>803.0905</ele>
        <time>2014-08-26T14:10:14Z</time>
      </trkpt>
      <trkpt lat="46.3384" lon="6.60582">
        <ele>804.0743</ele>
        <time>2014-08-26T14:10:19Z</time>
      </trkpt>
      <trkpt lat="46.3384" lon="6.60593">
        <ele>804.0743</ele>
        <time>2014-08-26T14:10:24Z</time>
      </trkpt>
      <trkpt lat="46.33839" lon="6.606">
        <ele>805.1939</ele>
        <time>2014-08-26T14:10:29Z</time>
      </trkpt>
      <trkpt lat="46.33839" lon="6.60609">
        <ele>805.1939</ele>
        <time>2014-08-26T14:10:34Z</time>
      </trkpt>
      <trkpt lat="46.33841" lon="6.60617">
        <ele>806.2785</ele>
        <time>2014-08-26T14:10:39Z</time>
      </trkpt>
      <trkpt lat="46.33843" lon="6.60624">
        <ele>806.2785</ele>
        <time>2014-08-26T14:10:44Z</time>
      </trkpt>
      <trkpt lat="46.33844" lon="6.60629">
        <ele>807.40045</ele>
        <time>2014-08-26T14:10:49Z</time>
      </trkpt>
      <trkpt lat="46.33846" lon="6.60636">
        <ele>807.40045</ele>
        <time>2014-08-26T14:10:54Z</time>
      </trkpt>
      <trkpt lat="46.33849" lon="6.60641">
        <ele>808.4826</ele>
        <time>2014-08-26T14:10:59Z</time>
      </trkpt>
      <trkpt lat="46.33852" lon="6.60648">
        <ele>808.4826</ele>
        <time>2014-08-26T14:11:04Z</time>
      </trkpt>
      <trkpt lat="46.33855" lon="6.60653">
        <ele>809.5256</ele>
        <time>2014-08-26T14:11:09Z</time>
      </trkpt>
      <trkpt lat="46.3386" lon="6.60659">
        <ele>809.5256</ele>
        <time>2014-08-26T14:11:14Z</time>
      </trkpt>
      <trkpt lat="46.33863" lon="6.60663">
        <ele>810.5302</ele>
        <time>2014-08-26T14:11:19Z</time>
      </trkpt>
      <trkpt lat="46.33868" lon="6.60667">
        <ele>810.5302</ele>
        <time>2014-08-26T14:11:24Z</time>
      </trkpt>
      <trkpt lat="46.33871" lon="6.60672">
        <ele>811.3677</ele>
        <time>2014-08-26T14:11:29Z</time>
      </trkpt>
      <trkpt lat="46.33874" lon="6.6068">
        <ele>811.3677</ele>
        <time>2014-08-26T14:11:34Z</time>
      </trkpt>
      <trkpt lat="46.33876" lon="6.60685">
        <ele>812.0921</ele>
        <time>2014-08-26T14:11:39Z</time>
      </trkpt>
      <trkpt lat="46.33879" lon="6.60692">
        <ele>812.0921</ele>
        <time>2014-08-26T14:11:44Z</time>
      </trkpt>
      <trkpt lat="46.33881" lon="6.60698">
        <ele>812.9413</ele>
        <time>2014-08-26T14:11:49Z</time>
      </trkpt>
      <trkpt lat="46.33883" lon="6.60706">
        <ele>812.9413</ele>
        <time>2014-08-26T14:11:54Z</time>
      </trkpt>
      <trkpt lat="46.33886" lon="6.60713">
        <ele>813.8758</ele>
        <time>2014-08-26T14:11:59Z</time>
      </trkpt>
      <trkpt lat="46.33888" lon="6.60719">
        <ele>813.8758</ele>
        <time>2014-08-26T14:12:04Z</time>
      </trkpt>
      <trkpt lat="46.33888" lon="6.6073">
        <ele>814.80145</ele>
        <time>2014-08-26T14:12:09Z</time>
      </trkpt>
      <trkpt lat="46.33888" lon="6.60738">
        <ele>814.80145</ele>
        <time>2014-08-26T14:12:14Z</time>
      </trkpt>
      <trkpt lat="46.3389" lon="6.60744">
        <ele>815.74615</ele>
        <time>2014-08-26T14:12:19Z</time>
      </trkpt>
      <trkpt lat="46.33891" lon="6.60748">
        <ele>815.74615</ele>
        <time>2014-08-26T14:12:24Z</time>
      </trkpt>
      <trkpt lat="46.33894" lon="6.60753">
        <ele>815.74615</ele>
        <time>2014-08-26T14:12:29Z</time>
      </trkpt>
      <trkpt lat="46.33897" lon="6.60766">
        <ele>816.79346</ele>
        <time>2014-08-26T14:12:34Z</time>
      </trkpt>
      <trkpt lat="46.33898" lon="6.60771">
        <ele>816.79346</ele>
        <time>2014-08-26T14:12:39Z</time>
      </trkpt>
      <trkpt lat="46.33902" lon="6.60779">
        <ele>817.8764</ele>
        <time>2014-08-26T14:12:44Z</time>
      </trkpt>
      <trkpt lat="46.33906" lon="6.60787">
        <ele>817.8764</ele>
        <time>2014-08-26T14:12:49Z</time>
      </trkpt>
      <trkpt lat="46.33908" lon="6.60795">
        <ele>818.9042</ele>
        <time>2014-08-26T14:12:54Z</time>
      </trkpt>
      <trkpt lat="46.33912" lon="6.60802">
        <ele>818.9042</ele>
        <time>2014-08-26T14:12:59Z</time>
      </trkpt>
      <trkpt lat="46.33916" lon="6.60807">
        <ele>819.7927</ele>
        <time>2014-08-26T14:13:04Z</time>
      </trkpt>
      <trkpt lat="46.33919" lon="6.60813">
        <ele>819.7927</ele>
        <time>2014-08-26T14:13:09Z</time>
      </trkpt>
      <trkpt lat="46.33922" lon="6.60819">
        <ele>820.53674</ele>
        <time>2014-08-26T14:13:14Z</time>
      </trkpt>
      <trkpt lat="46.33924" lon="6.60825">
        <ele>820.53674</ele>
        <time>2014-08-26T14:13:19Z</time>
      </trkpt>
      <trkpt lat="46.33927" lon="6.60831">
        <ele>821.1029</ele>
        <time>2014-08-26T14:13:24Z</time>
      </trkpt>
      <trkpt lat="46.3393" lon="6.60839">
        <ele>821.1029</ele>
        <time>2014-08-26T14:13:29Z</time>
      </trkpt>
      <trkpt lat="46.33933" lon="6.60848">
        <ele>821.5329</ele>
        <time>2014-08-26T14:13:34Z</time>
      </trkpt>
      <trkpt lat="46.33937" lon="6.60855">
        <ele>821.5329</ele>
        <time>2014-08-26T14:13:39Z</time>
      </trkpt>
      <trkpt lat="46.3394" lon="6.6086">
        <ele>821.85144</ele>
        <time>2014-08-26T14:13:44Z</time>
      </trkpt>
      <trkpt lat="46.33942" lon="6.60865">
        <ele>821.85144</ele>
        <time>2014-08-26T14:13:49Z</time>
      </trkpt>
      <trkpt lat="46.33945" lon="6.60868">
        <ele>821.85144</ele>
        <time>2014-08-26T14:13:54Z</time>
      </trkpt>
      <trkpt lat="46.33947" lon="6.60872">
        <ele>822.053</ele>
        <time>2014-08-26T14:13:59Z</time>
      </trkpt>
      <trkpt lat="46.33952" lon="6.60879">
        <ele>822.053</ele>
        <time>2014-08-26T14:14:04Z</time>
      </trkpt>
      <trkpt lat="46.33956" lon="6.60883">
        <ele>822.2335</ele>
        <time>2014-08-26T14:14:09Z</time>
      </trkpt>
      <trkpt lat="46.33963" lon="6.60892">
        <ele>822.2335</ele>
        <time>2014-08-26T14:14:14Z</time>
      </trkpt>
      <trkpt lat="46.33967" lon="6.60901">
        <ele>822.2659</ele>
        <time>2014-08-26T14:14:19Z</time>
      </trkpt>
      <trkpt lat="46.33971" lon="6.60907">
        <ele>822.2659</ele>
        <time>2014-08-26T14:14:24Z</time>
      </trkpt>
      <trkpt lat="46.33974" lon="6.60913">
        <ele>822.2492</ele>
        <time>2014-08-26T14:14:29Z</time>
      </trkpt>
      <trkpt lat="46.33977" lon="6.60919">
        <ele>822.2492</ele>
        <time>2014-08-26T14:14:34Z</time>
      </trkpt>
      <trkpt lat="46.33979" lon="6.60925">
        <ele>822.33264</ele>
        <time>2014-08-26T14:14:39Z</time>
      </trkpt>
      <trkpt lat="46.33981" lon="6.60934">
        <ele>822.33264</ele>
        <time>2014-08-26T14:14:44Z</time>
      </trkpt>
      <trkpt lat="46.33983" lon="6.60942">
        <ele>822.4959</ele>
        <time>2014-08-26T14:14:49Z</time>
      </trkpt>
      <trkpt lat="46.33984" lon="6.60947">
        <ele>822.4959</ele>
        <time>2014-08-26T14:14:54Z</time>
      </trkpt>
      <trkpt lat="46.33986" lon="6.60955">
        <ele>822.70557</ele>
        <time>2014-08-26T14:14:59Z</time>
      </trkpt>
      <trkpt lat="46.33987" lon="6.60962">
        <ele>822.70557</ele>
        <time>2014-08-26T14:15:04Z</time>
      </trkpt>
      <trkpt lat="46.33989" lon="6.60967">
        <ele>822.81506</ele>
        <time>2014-08-26T14:15:09Z</time>
      </trkpt>
      <trkpt lat="46.33992" lon="6.60974">
        <ele>822.81506</ele>
        <time>2014-08-26T14:15:14Z</time>
      </trkpt>
      <trkpt lat="46.33994" lon="6.60982">
        <ele>822.7035</ele>
        <time>2014-08-26T14:15:19Z</time>
      </trkpt>
      <trkpt lat="46.33997" lon="6.60989">
        <ele>822.7035</ele>
        <time>2014-08-26T14:15:24Z</time>
      </trkpt>
      <trkpt lat="46.33999" lon="6.60995">
        <ele>822.5043</ele>
        <time>2014-08-26T14:15:29Z</time>
      </trkpt>
      <trkpt lat="46.34002" lon="6.61004">
        <ele>822.5043</ele>
        <time>2014-08-26T14:15:34Z</time>
      </trkpt>
      <trkpt lat="46.34004" lon="6.61012">
        <ele>822.154</ele>
        <time>2014-08-26T14:15:39Z</time>
      </trkpt>
      <trkpt lat="46.34006" lon="6.6102">
        <ele>822.154</ele>
        <time>2014-08-26T14:15:44Z</time>
      </trkpt>
      <trkpt lat="46.34007" lon="6.61026">
        <ele>821.7096</ele>
        <time>2014-08-26T14:15:49Z</time>
      </trkpt>
      <trkpt lat="46.3401" lon="6.61032">
        <ele>821.7096</ele>
        <time>2014-08-26T14:15:54Z</time>
      </trkpt>
      <trkpt lat="46.34012" lon="6.61039">
        <ele>821.2385</ele>
        <time>2014-08-26T14:15:59Z</time>
      </trkpt>
      <trkpt lat="46.34014" lon="6.61045">
        <ele>821.2385</ele>
        <time>2014-08-26T14:16:04Z</time>
      </trkpt>
      <trkpt lat="46.34018" lon="6.61054">
        <ele>820.6879</ele>
        <time>2014-08-26T14:16:09Z</time>
      </trkpt>
      <trkpt lat="46.34021" lon="6.61063">
        <ele>820.6879</ele>
        <time>2014-08-26T14:16:14Z</time>
      </trkpt>
      <trkpt lat="46.34023" lon="6.61071">
        <ele>820.11</ele>
        <time>2014-08-26T14:16:19Z</time>
      </trkpt>
      <trkpt lat="46.34026" lon="6.61079">
        <ele>820.11</ele>
        <time>2014-08-26T14:16:24Z</time>
      </trkpt>
      <trkpt lat="46.34029" lon="6.61084">
        <ele>819.4377</ele>
        <time>2014-08-26T14:16:29Z</time>
      </trkpt>
      <trkpt lat="46.34032" lon="6.61092">
        <ele>819.4377</ele>
        <time>2014-08-26T14:16:34Z</time>
      </trkpt>
      <trkpt lat="46.34034" lon="6.61098">
        <ele>818.6814</ele>
        <time>2014-08-26T14:16:39Z</time>
      </trkpt>
      <trkpt lat="46.34036" lon="6.61107">
        <ele>818.6814</ele>
        <time>2014-08-26T14:16:44Z</time>
      </trkpt>
      <trkpt lat="46.34037" lon="6.61116">
        <ele>817.9228</ele>
        <time>2014-08-26T14:16:49Z</time>
      </trkpt>
      <trkpt lat="46.34039" lon="6.61124">
        <ele>817.9228</ele>
        <time>2014-08-26T14:16:54Z</time>
      </trkpt>
      <trkpt lat="46.34042" lon="6.61131">
        <ele>817.16547</ele>
        <time>2014-08-26T14:16:59Z</time>
      </trkpt>
      <trkpt lat="46.34046" lon="6.61139">
        <ele>817.16547</ele>
        <time>2014-08-26T14:17:04Z</time>
      </trkpt>
      <trkpt lat="46.34048" lon="6.61145">
        <ele>816.45593</ele>
        <time>2014-08-26T14:17:09Z</time>
      </trkpt>
      <trkpt lat="46.34051" lon="6.61153">
        <ele>816.45593</ele>
        <time>2014-08-26T14:17:14Z</time>
      </trkpt>
      <trkpt lat="46.34053" lon="6.61159">
        <ele>815.79395</ele>
        <time>2014-08-26T14:17:19Z</time>
      </trkpt>
      <trkpt lat="46.34057" lon="6.61169">
        <ele>815.79395</ele>
        <time>2014-08-26T14:17:24Z</time>
      </trkpt>
      <trkpt lat="46.3406" lon="6.61178">
        <ele>815.2509</ele>
        <time>2014-08-26T14:17:29Z</time>
      </trkpt>
      <trkpt lat="46.34062" lon="6.61183">
        <ele>815.2509</ele>
        <time>2014-08-26T14:17:34Z</time>
      </trkpt>
      <trkpt lat="46.34064" lon="6.61189">
        <ele>815.2509</ele>
        <time>2014-08-26T14:17:39Z</time>
      </trkpt>
      <trkpt lat="46.34067" lon="6.61193">
        <ele>814.74866</ele>
        <time>2014-08-26T14:17:44Z</time>
      </trkpt>
      <trkpt lat="46.34068" lon="6.61199">
        <ele>814.74866</ele>
        <time>2014-08-26T14:17:49Z</time>
      </trkpt>
      <trkpt lat="46.34071" lon="6.61201">
        <ele>814.74866</ele>
        <time>2014-08-26T14:17:54Z</time>
      </trkpt>
      <trkpt lat="46.34072" lon="6.612">
        <ele>814.74866</ele>
        <time>2014-08-26T14:17:59Z</time>
      </trkpt>
      <trkpt lat="46.34073" lon="6.61198">
        <ele>814.40186</ele>
        <time>2014-08-26T14:18:04Z</time>
      </trkpt>
      <trkpt lat="46.34075" lon="6.61198">
        <ele>814.40186</ele>
        <time>2014-08-26T14:18:09Z</time>
      </trkpt>
      <trkpt lat="46.34078" lon="6.61197">
        <ele>814.40186</ele>
        <time>2014-08-26T14:18:14Z</time>
      </trkpt>
      <trkpt lat="46.34082" lon="6.61196">
        <ele>814.40186</ele>
        <time>2014-08-26T14:18:19Z</time>
      </trkpt>
      <trkpt lat="46.34084" lon="6.61198">
        <ele>814.3882</ele>
        <time>2014-08-26T14:18:24Z</time>
      </trkpt>
      <trkpt lat="46.34084" lon="6.61198">
        <ele>814.3882</ele>
        <time>2014-08-26T14:18:29Z</time>
      </trkpt>
      <trkpt lat="46.34084" lon="6.61198">
        <ele>814.3882</ele>
        <time>2014-08-26T14:18:34Z</time>
      </trkpt>
      <trkpt lat="46.34085" lon="6.61199">
        <ele>814.3882</ele>
        <time>2014-08-26T14:18:39Z</time>
      </trkpt>
      <trkpt lat="46.34085" lon="6.61198">
        <ele>814.3882</ele>
        <time>2014-08-26T14:18:44Z</time>
      </trkpt>
      <trkpt lat="46.34087" lon="6.61197">
        <ele>814.3882</ele>
        <time>2014-08-26T14:18:49Z</time>
      </trkpt>
      <trkpt lat="46.34087" lon="6.61195">
        <ele>814.3882</ele>
        <time>2014-08-26T14:18:54Z</time>
      </trkpt>
      <trkpt lat="46.34087" lon="6.61195">
        <ele>814.3882</ele>
        <time>2014-08-26T14:18:59Z</time>
      </trkpt>
      <trkpt lat="46.34087" lon="6.61192">
        <ele>814.3882</ele>
        <time>2014-08-26T14:19:04Z</time>
      </trkpt>
      <trkpt lat="46.34087" lon="6.61191">
        <ele>814.4679</ele>
        <time>2014-08-26T14:19:09Z</time>
      </trkpt>
      <trkpt lat="46.34087" lon="6.61191">
        <ele>814.4679</ele>
        <time>2014-08-26T14:19:14Z</time>
      </trkpt>
      <trkpt lat="46.34088" lon="6.61193">
        <ele>814.4679</ele>
        <time>2014-08-26T14:19:19Z</time>
      </trkpt>
      <trkpt lat="46.34085" lon="6.61196">
        <ele>814.4679</ele>
        <time>2014-08-26T14:19:24Z</time>
      </trkpt>
      <trkpt lat="46.34085" lon="6.61198">
        <ele>814.4679</ele>
        <time>2014-08-26T14:19:29Z</time>
      </trkpt>
      <trkpt lat="46.34086" lon="6.61197">
        <ele>814.4679</ele>
        <time>2014-08-26T14:19:34Z</time>
      </trkpt>
      <trkpt lat="46.34085" lon="6.61196">
        <ele>814.4679</ele>
        <time>2014-08-26T14:19:39Z</time>
      </trkpt>
      <trkpt lat="46.34085" lon="6.61196">
        <ele>814.4679</ele>
        <time>2014-08-26T14:19:44Z</time>
      </trkpt>
      <trkpt lat="46.34084" lon="6.61196">
        <ele>814.4679</ele>
        <time>2014-08-26T14:19:49Z</time>
      </trkpt>
      <trkpt lat="46.34083" lon="6.61196">
        <ele>814.66345</ele>
        <time>2014-08-26T14:19:54Z</time>
      </trkpt>
      <trkpt lat="46.34081" lon="6.61196">
        <ele>814.66345</ele>
        <time>2014-08-26T14:19:59Z</time>
      </trkpt>
      <trkpt lat="46.34076" lon="6.61199">
        <ele>814.66345</ele>
        <time>2014-08-26T14:20:04Z</time>
      </trkpt>
      <trkpt lat="46.34074" lon="6.61209">
        <ele>814.76465</ele>
        <time>2014-08-26T14:20:09Z</time>
      </trkpt>
      <trkpt lat="46.34075" lon="6.61216">
        <ele>814.76465</ele>
        <time>2014-08-26T14:20:14Z</time>
      </trkpt>
      <trkpt lat="46.34076" lon="6.61224">
        <ele>814.8363</ele>
        <time>2014-08-26T14:20:19Z</time>
      </trkpt>
      <trkpt lat="46.34077" lon="6.61234">
        <ele>814.8363</ele>
        <time>2014-08-26T14:20:24Z</time>
      </trkpt>
      <trkpt lat="46.34077" lon="6.6124">
        <ele>814.8089</ele>
        <time>2014-08-26T14:20:29Z</time>
      </trkpt>
      <trkpt lat="46.34078" lon="6.61248">
        <ele>814.8089</ele>
        <time>2014-08-26T14:20:34Z</time>
      </trkpt>
      <trkpt lat="46.34077" lon="6.61255">
        <ele>814.7911</ele>
        <time>2014-08-26T14:20:39Z</time>
      </trkpt>
      <trkpt lat="46.34078" lon="6.61263">
        <ele>814.7911</ele>
        <time>2014-08-26T14:20:44Z</time>
      </trkpt>
      <trkpt lat="46.34079" lon="6.6127">
        <ele>814.66736</ele>
        <time>2014-08-26T14:20:49Z</time>
      </trkpt>
      <trkpt lat="46.3408" lon="6.61278">
        <ele>814.66736</ele>
        <time>2014-08-26T14:20:54Z</time>
      </trkpt>
      <trkpt lat="46.3408" lon="6.61287">
        <ele>814.67664</ele>
        <time>2014-08-26T14:20:59Z</time>
      </trkpt>
      <trkpt lat="46.34082" lon="6.61296">
        <ele>814.67664</ele>
        <time>2014-08-26T14:21:04Z</time>
      </trkpt>
      <trkpt lat="46.34084" lon="6.61302">
        <ele>814.7663</ele>
        <time>2014-08-26T14:21:09Z</time>
      </trkpt>
      <trkpt lat="46.34086" lon="6.61309">
        <ele>814.7663</ele>
        <time>2014-08-26T14:21:14Z</time>
      </trkpt>
      <trkpt lat="46.34087" lon="6.61316">
        <ele>814.95917</ele>
        <time>2014-08-26T14:21:19Z</time>
      </trkpt>
      <trkpt lat="46.34089" lon="6.61323">
        <ele>814.95917</ele>
        <time>2014-08-26T14:21:24Z</time>
      </trkpt>
      <trkpt lat="46.34091" lon="6.61331">
        <ele>815.2473</ele>
        <time>2014-08-26T14:21:29Z</time>
      </trkpt>
      <trkpt lat="46.34092" lon="6.61338">
        <ele>815.2473</ele>
        <time>2014-08-26T14:21:34Z</time>
      </trkpt>
      <trkpt lat="46.34093" lon="6.61344">
        <ele>815.5943</ele>
        <time>2014-08-26T14:21:39Z</time>
      </trkpt>
      <trkpt lat="46.34092" lon="6.61353">
        <ele>815.5943</ele>
        <time>2014-08-26T14:21:44Z</time>
      </trkpt>
      <trkpt lat="46.34091" lon="6.61358">
        <ele>815.9805</ele>
        <time>2014-08-26T14:21:49Z</time>
      </trkpt>
      <trkpt lat="46.34091" lon="6.61364">
        <ele>815.9805</ele>
        <time>2014-08-26T14:21:54Z</time>
      </trkpt>
      <trkpt lat="46.34092" lon="6.61372">
        <ele>816.3877</ele>
        <time>2014-08-26T14:21:59Z</time>
      </trkpt>
      <trkpt lat="46.34092" lon="6.6138">
        <ele>816.3877</ele>
        <time>2014-08-26T14:22:04Z</time>
      </trkpt>
      <trkpt lat="46.34092" lon="6.61387">
        <ele>816.78436</ele>
        <time>2014-08-26T14:22:09Z</time>
      </trkpt>
      <trkpt lat="46.34093" lon="6.61394">
        <ele>816.78436</ele>
        <time>2014-08-26T14:22:14Z</time>
      </trkpt>
      <trkpt lat="46.34095" lon="6.61402">
        <ele>817.25665</ele>
        <time>2014-08-26T14:22:19Z</time>
      </trkpt>
      <trkpt lat="46.34097" lon="6.61409">
        <ele>817.25665</ele>
        <time>2014-08-26T14:22:24Z</time>
      </trkpt>
      <trkpt lat="46.34099" lon="6.61418">
        <ele>817.8554</ele>
        <time>2014-08-26T14:22:29Z</time>
      </trkpt>
      <trkpt lat="46.34103" lon="6.61425">
        <ele>817.8554</ele>
        <time>2014-08-26T14:22:34Z</time>
      </trkpt>
      <trkpt lat="46.34105" lon="6.6143">
        <ele>818.6129</ele>
        <time>2014-08-26T14:22:39Z</time>
      </trkpt>
      <trkpt lat="46.34109" lon="6.61437">
        <ele>818.6129</ele>
        <time>2014-08-26T14:22:44Z</time>
      </trkpt>
      <trkpt lat="46.34112" lon="6.61443">
        <ele>819.4001</ele>
        <time>2014-08-26T14:22:49Z</time>
      </trkpt>
      <trkpt lat="46.34115" lon="6.61449">
        <ele>819.4001</ele>
        <time>2014-08-26T14:22:54Z</time>
      </trkpt>
      <trkpt lat="46.34118" lon="6.61454">
        <ele>820.1837</ele>
        <time>2014-08-26T14:22:59Z</time>
      </trkpt>
      <trkpt lat="46.34122" lon="6.6146">
        <ele>820.1837</ele>
        <time>2014-08-26T14:23:04Z</time>
      </trkpt>
      <trkpt lat="46.34125" lon="6.61467">
        <ele>821.0916</ele>
        <time>2014-08-26T14:23:09Z</time>
      </trkpt>
      <trkpt lat="46.34129" lon="6.61472">
        <ele>821.0916</ele>
        <time>2014-08-26T14:23:14Z</time>
      </trkpt>
      <trkpt lat="46.34132" lon="6.61478">
        <ele>822.0978</ele>
        <time>2014-08-26T14:23:19Z</time>
      </trkpt>
      <trkpt lat="46.34135" lon="6.61481">
        <ele>822.0978</ele>
        <time>2014-08-26T14:23:24Z</time>
      </trkpt>
      <trkpt lat="46.3414" lon="6.61487">
        <ele>823.17773</ele>
        <time>2014-08-26T14:23:29Z</time>
      </trkpt>
      <trkpt lat="46.34147" lon="6.61491">
        <ele>823.17773</ele>
        <time>2014-08-26T14:23:34Z</time>
      </trkpt>
      <trkpt lat="46.34152" lon="6.61496">
        <ele>824.1214</ele>
        <time>2014-08-26T14:23:39Z</time>
      </trkpt>
      <trkpt lat="46.34155" lon="6.615">
        <ele>824.1214</ele>
        <time>2014-08-26T14:23:44Z</time>
      </trkpt>
      <trkpt lat="46.34157" lon="6.61503">
        <ele>824.1214</ele>
        <time>2014-08-26T14:23:49Z</time>
      </trkpt>
      <trkpt lat="46.34161" lon="6.6151">
        <ele>825.06604</ele>
        <time>2014-08-26T14:23:54Z</time>
      </trkpt>
      <trkpt lat="46.34166" lon="6.61516">
        <ele>825.06604</ele>
        <time>2014-08-26T14:23:59Z</time>
      </trkpt>
      <trkpt lat="46.34168" lon="6.61519">
        <ele>826.0234</ele>
        <time>2014-08-26T14:24:04Z</time>
      </trkpt>
      <trkpt lat="46.3417" lon="6.61526">
        <ele>826.0234</ele>
        <time>2014-08-26T14:24:09Z</time>
      </trkpt>
      <trkpt lat="46.34173" lon="6.61533">
        <ele>827.0766</ele>
        <time>2014-08-26T14:24:14Z</time>
      </trkpt>
      <trkpt lat="46.34177" lon="6.61539">
        <ele>827.0766</ele>
        <time>2014-08-26T14:24:19Z</time>
      </trkpt>
      <trkpt lat="46.3418" lon="6.61545">
        <ele>828.1294</ele>
        <time>2014-08-26T14:24:24Z</time>
      </trkpt>
      <trkpt lat="46.34183" lon="6.61552">
        <ele>828.1294</ele>
        <time>2014-08-26T14:24:29Z</time>
      </trkpt>
      <trkpt lat="46.34186" lon="6.61558">
        <ele>829.0063</ele>
        <time>2014-08-26T14:24:34Z</time>
      </trkpt>
      <trkpt lat="46.3419" lon="6.61563">
        <ele>829.0063</ele>
        <time>2014-08-26T14:24:39Z</time>
      </trkpt>
      <trkpt lat="46.34193" lon="6.6157">
        <ele>829.7181</ele>
        <time>2014-08-26T14:24:44Z</time>
      </trkpt>
      <trkpt lat="46.34196" lon="6.61576">
        <ele>829.7181</ele>
        <time>2014-08-26T14:24:49Z</time>
      </trkpt>
      <trkpt lat="46.34199" lon="6.61581">
        <ele>830.47705</ele>
        <time>2014-08-26T14:24:54Z</time>
      </trkpt>
      <trkpt lat="46.34201" lon="6.61588">
        <ele>830.47705</ele>
        <time>2014-08-26T14:24:59Z</time>
      </trkpt>
      <trkpt lat="46.34205" lon="6.61596">
        <ele>831.13403</ele>
        <time>2014-08-26T14:25:04Z</time>
      </trkpt>
      <trkpt lat="46.3421" lon="6.61604">
        <ele>831.13403</ele>
        <time>2014-08-26T14:25:09Z</time>
      </trkpt>
      <trkpt lat="46.34215" lon="6.61609">
        <ele>831.69525</ele>
        <time>2014-08-26T14:25:14Z</time>
      </trkpt>
      <trkpt lat="46.34218" lon="6.61614">
        <ele>831.69525</ele>
        <time>2014-08-26T14:25:19Z</time>
      </trkpt>
      <trkpt lat="46.34221" lon="6.61621">
        <ele>832.1522</ele>
        <time>2014-08-26T14:25:24Z</time>
      </trkpt>
      <trkpt lat="46.34223" lon="6.61628">
        <ele>832.1522</ele>
        <time>2014-08-26T14:25:29Z</time>
      </trkpt>
      <trkpt lat="46.34225" lon="6.61636">
        <ele>832.41125</ele>
        <time>2014-08-26T14:25:34Z</time>
      </trkpt>
      <trkpt lat="46.34227" lon="6.61643">
        <ele>832.41125</ele>
        <time>2014-08-26T14:25:39Z</time>
      </trkpt>
      <trkpt lat="46.34228" lon="6.61649">
        <ele>832.50116</ele>
        <time>2014-08-26T14:25:44Z</time>
      </trkpt>
      <trkpt lat="46.34229" lon="6.61656">
        <ele>832.50116</ele>
        <time>2014-08-26T14:25:49Z</time>
      </trkpt>
      <trkpt lat="46.34229" lon="6.61662">
        <ele>832.4782</ele>
        <time>2014-08-26T14:25:54Z</time>
      </trkpt>
      <trkpt lat="46.34231" lon="6.61671">
        <ele>832.4782</ele>
        <time>2014-08-26T14:25:59Z</time>
      </trkpt>
      <trkpt lat="46.34232" lon="6.61678">
        <ele>832.33704</ele>
        <time>2014-08-26T14:26:04Z</time>
      </trkpt>
      <trkpt lat="46.34234" lon="6.61689">
        <ele>832.33704</ele>
        <time>2014-08-26T14:26:09Z</time>
      </trkpt>
      <trkpt lat="46.34233" lon="6.61696">
        <ele>832.05884</ele>
        <time>2014-08-26T14:26:14Z</time>
      </trkpt>
      <trkpt lat="46.34234" lon="6.61703">
        <ele>832.05884</ele>
        <time>2014-08-26T14:26:19Z</time>
      </trkpt>
      <trkpt lat="46.34235" lon="6.61709">
        <ele>831.785</ele>
        <time>2014-08-26T14:26:24Z</time>
      </trkpt>
      <trkpt lat="46.34239" lon="6.61719">
        <ele>831.785</ele>
        <time>2014-08-26T14:26:29Z</time>
      </trkpt>
      <trkpt lat="46.34242" lon="6.61729">
        <ele>831.4448</ele>
        <time>2014-08-26T14:26:34Z</time>
      </trkpt>
      <trkpt lat="46.34246" lon="6.61738">
        <ele>831.4448</ele>
        <time>2014-08-26T14:26:39Z</time>
      </trkpt>
      <trkpt lat="46.34249" lon="6.61742">
        <ele>831.21796</ele>
        <time>2014-08-26T14:26:44Z</time>
      </trkpt>
      <trkpt lat="46.34254" lon="6.6175">
        <ele>831.21796</ele>
        <time>2014-08-26T14:26:49Z</time>
      </trkpt>
      <trkpt lat="46.34256" lon="6.61755">
        <ele>831.15533</ele>
        <time>2014-08-26T14:26:54Z</time>
      </trkpt>
      <trkpt lat="46.3426" lon="6.61762">
        <ele>831.15533</ele>
        <time>2014-08-26T14:26:59Z</time>
      </trkpt>
      <trkpt lat="46.34263" lon="6.61767">
        <ele>831.20276</ele>
        <time>2014-08-26T14:27:04Z</time>
      </trkpt>
      <trkpt lat="46.34267" lon="6.61773">
        <ele>831.20276</ele>
        <time>2014-08-26T14:27:09Z</time>
      </trkpt>
      <trkpt lat="46.34272" lon="6.61779">
        <ele>831.2665</ele>
        <time>2014-08-26T14:27:14Z</time>
      </trkpt>
      <trkpt lat="46.34275" lon="6.61785">
        <ele>831.2665</ele>
        <time>2014-08-26T14:27:19Z</time>
      </trkpt>
      <trkpt lat="46.34279" lon="6.61792">
        <ele>831.46136</ele>
        <time>2014-08-26T14:27:24Z</time>
      </trkpt>
      <trkpt lat="46.34282" lon="6.61797">
        <ele>831.46136</ele>
        <time>2014-08-26T14:27:29Z</time>
      </trkpt>
      <trkpt lat="46.34286" lon="6.61804">
        <ele>831.73486</ele>
        <time>2014-08-26T14:27:34Z</time>
      </trkpt>
      <trkpt lat="46.34289" lon="6.61811">
        <ele>831.73486</ele>
        <time>2014-08-26T14:27:39Z</time>
      </trkpt>
      <trkpt lat="46.34293" lon="6.61817">
        <ele>832.0527</ele>
        <time>2014-08-26T14:27:44Z</time>
      </trkpt>
      <trkpt lat="46.34297" lon="6.61821">
        <ele>832.0527</ele>
        <time>2014-08-26T14:27:49Z</time>
      </trkpt>
      <trkpt lat="46.34301" lon="6.61827">
        <ele>832.3394</ele>
        <time>2014-08-26T14:27:54Z</time>
      </trkpt>
      <trkpt lat="46.34304" lon="6.61832">
        <ele>832.3394</ele>
        <time>2014-08-26T14:27:59Z</time>
      </trkpt>
      <trkpt lat="46.34307" lon="6.61839">
        <ele>832.6696</ele>
        <time>2014-08-26T14:28:04Z</time>
      </trkpt>
      <trkpt lat="46.3431" lon="6.61845">
        <ele>832.6696</ele>
        <time>2014-08-26T14:28:09Z</time>
      </trkpt>
      <trkpt lat="46.34313" lon="6.61851">
        <ele>832.896</ele>
        <time>2014-08-26T14:28:14Z</time>
      </trkpt>
      <trkpt lat="46.34315" lon="6.61856">
        <ele>832.896</ele>
        <time>2014-08-26T14:28:19Z</time>
      </trkpt>
      <trkpt lat="46.34317" lon="6.61864">
        <ele>832.9687</ele>
        <time>2014-08-26T14:28:24Z</time>
      </trkpt>
      <trkpt lat="46.34319" lon="6.61871">
        <ele>832.9687</ele>
        <time>2014-08-26T14:28:29Z</time>
      </trkpt>
      <trkpt lat="46.34319" lon="6.6188">
        <ele>832.8854</ele>
        <time>2014-08-26T14:28:34Z</time>
      </trkpt>
      <trkpt lat="46.34322" lon="6.61888">
        <ele>832.8854</ele>
        <time>2014-08-26T14:28:39Z</time>
      </trkpt>
      <trkpt lat="46.34323" lon="6.61894">
        <ele>832.8172</ele>
        <time>2014-08-26T14:28:44Z</time>
      </trkpt>
      <trkpt lat="46.34325" lon="6.619">
        <ele>832.8172</ele>
        <time>2014-08-26T14:28:49Z</time>
      </trkpt>
      <trkpt lat="46.34326" lon="6.61911">
        <ele>832.7064</ele>
        <time>2014-08-26T14:28:54Z</time>
      </trkpt>
      <trkpt lat="46.34327" lon="6.6192">
        <ele>832.7064</ele>
        <time>2014-08-26T14:28:59Z</time>
      </trkpt>
      <trkpt lat="46.34328" lon="6.61929">
        <ele>832.5142</ele>
        <time>2014-08-26T14:29:04Z</time>
      </trkpt>
      <trkpt lat="46.3433" lon="6.61937">
        <ele>832.5142</ele>
        <time>2014-08-26T14:29:09Z</time>
      </trkpt>
      <trkpt lat="46.34331" lon="6.61945">
        <ele>832.29114</ele>
        <time>2014-08-26T14:29:14Z</time>
      </trkpt>
      <trkpt lat="46.34332" lon="6.61955">
        <ele>832.29114</ele>
        <time>2014-08-26T14:29:19Z</time>
      </trkpt>
      <trkpt lat="46.34334" lon="6.61963">
        <ele>832.17065</ele>
        <time>2014-08-26T14:29:24Z</time>
      </trkpt>
      <trkpt lat="46.34336" lon="6.61972">
        <ele>832.17065</ele>
        <time>2014-08-26T14:29:29Z</time>
      </trkpt>
      <trkpt lat="46.34338" lon="6.61978">
        <ele>832.1752</ele>
        <time>2014-08-26T14:29:34Z</time>
      </trkpt>
      <trkpt lat="46.34339" lon="6.61985">
        <ele>832.1752</ele>
        <time>2014-08-26T14:29:39Z</time>
      </trkpt>
      <trkpt lat="46.34341" lon="6.61991">
        <ele>832.1523</ele>
        <time>2014-08-26T14:29:44Z</time>
      </trkpt>
      <trkpt lat="46.34343" lon="6.61998">
        <ele>832.1523</ele>
        <time>2014-08-26T14:29:49Z</time>
      </trkpt>
      <trkpt lat="46.34345" lon="6.62005">
        <ele>832.10486</ele>
        <time>2014-08-26T14:29:54Z</time>
      </trkpt>
      <trkpt lat="46.34349" lon="6.62011">
        <ele>832.10486</ele>
        <time>2014-08-26T14:29:59Z</time>
      </trkpt>
      <trkpt lat="46.34353" lon="6.62018">
        <ele>832.09314</ele>
        <time>2014-08-26T14:30:04Z</time>
      </trkpt>
      <trkpt lat="46.34357" lon="6.62024">
        <ele>832.09314</ele>
        <time>2014-08-26T14:30:09Z</time>
      </trkpt>
      <trkpt lat="46.34362" lon="6.6203">
        <ele>832.1874</ele>
        <time>2014-08-26T14:30:14Z</time>
      </trkpt>
      <trkpt lat="46.34364" lon="6.62036">
        <ele>832.1874</ele>
        <time>2014-08-26T14:30:19Z</time>
      </trkpt>
      <trkpt lat="46.34369" lon="6.62044">
        <ele>832.33704</ele>
        <time>2014-08-26T14:30:24Z</time>
      </trkpt>
      <trkpt lat="46.34373" lon="6.62049">
        <ele>832.33704</ele>
        <time>2014-08-26T14:30:29Z</time>
      </trkpt>
      <trkpt lat="46.34377" lon="6.62054">
        <ele>832.53827</ele>
        <time>2014-08-26T14:30:34Z</time>
      </trkpt>
      <trkpt lat="46.3438" lon="6.62057">
        <ele>832.53827</ele>
        <time>2014-08-26T14:30:39Z</time>
      </trkpt>
      <trkpt lat="46.34383" lon="6.62061">
        <ele>832.53827</ele>
        <time>2014-08-26T14:30:44Z</time>
      </trkpt>
      <trkpt lat="46.34386" lon="6.62067">
        <ele>832.701</ele>
        <time>2014-08-26T14:30:49Z</time>
      </trkpt>
      <trkpt lat="46.3439" lon="6.62075">
        <ele>832.701</ele>
        <time>2014-08-26T14:30:54Z</time>
      </trkpt>
      <trkpt lat="46.3439" lon="6.62076">
        <ele>832.701</ele>
        <time>2014-08-26T14:30:59Z</time>
      </trkpt>
      <trkpt lat="46.3439" lon="6.62076">
        <ele>832.701</ele>
        <time>2014-08-26T14:31:04Z</time>
      </trkpt>
      <trkpt lat="46.34391" lon="6.62075">
        <ele>832.701</ele>
        <time>2014-08-26T14:31:09Z</time>
      </trkpt>
      <trkpt lat="46.34391" lon="6.62077">
        <ele>832.9578</ele>
        <time>2014-08-26T14:31:14Z</time>
      </trkpt>
      <trkpt lat="46.34391" lon="6.62076">
        <ele>832.9578</ele>
        <time>2014-08-26T14:31:19Z</time>
      </trkpt>
      <trkpt lat="46.34391" lon="6.62075">
        <ele>832.9578</ele>
        <time>2014-08-26T14:31:24Z</time>
      </trkpt>
      <trkpt lat="46.34391" lon="6.62073">
        <ele>832.9578</ele>
        <time>2014-08-26T14:31:29Z</time>
      </trkpt>
      <trkpt lat="46.34391" lon="6.62074">
        <ele>832.9578</ele>
        <time>2014-08-26T14:31:34Z</time>
      </trkpt>
      <trkpt lat="46.34391" lon="6.62074">
        <ele>832.9578</ele>
        <time>2014-08-26T14:31:39Z</time>
      </trkpt>
      <trkpt lat="46.34389" lon="6.62075">
        <ele>832.9578</ele>
        <time>2014-08-26T14:31:44Z</time>
      </trkpt>
      <trkpt lat="46.34388" lon="6.62077">
        <ele>832.9578</ele>
        <time>2014-08-26T14:31:49Z</time>
      </trkpt>
      <trkpt lat="46.34388" lon="6.62078">
        <ele>832.9578</ele>
        <time>2014-08-26T14:31:54Z</time>
      </trkpt>
      <trkpt lat="46.3439" lon="6.62078">
        <ele>833.24414</ele>
        <time>2014-08-26T14:31:59Z</time>
      </trkpt>
      <trkpt lat="46.34391" lon="6.6208">
        <ele>833.24414</ele>
        <time>2014-08-26T14:32:04Z</time>
      </trkpt>
      <trkpt lat="46.34393" lon="6.62081">
        <ele>833.24414</ele>
        <time>2014-08-26T14:32:09Z</time>
      </trkpt>
      <trkpt lat="46.34393" lon="6.6208">
        <ele>833.24414</ele>
        <time>2014-08-26T14:32:14Z</time>
      </trkpt>
      <trkpt lat="46.34394" lon="6.62082">
        <ele>833.24414</ele>
        <time>2014-08-26T14:32:19Z</time>
      </trkpt>
      <trkpt lat="46.34393" lon="6.62085">
        <ele>833.24414</ele>
        <time>2014-08-26T14:32:24Z</time>
      </trkpt>
      <trkpt lat="46.34392" lon="6.62088">
        <ele>833.6153</ele>
        <time>2014-08-26T14:32:29Z</time>
      </trkpt>
      <trkpt lat="46.34391" lon="6.62089">
        <ele>833.6153</ele>
        <time>2014-08-26T14:32:34Z</time>
      </trkpt>
      <trkpt lat="46.3439" lon="6.62089">
        <ele>833.6153</ele>
        <time>2014-08-26T14:32:39Z</time>
      </trkpt>
      <trkpt lat="46.3439" lon="6.62089">
        <ele>833.6153</ele>
        <time>2014-08-26T14:32:44Z</time>
      </trkpt>
      <trkpt lat="46.3439" lon="6.62088">
        <ele>833.6153</ele>
        <time>2014-08-26T14:32:49Z</time>
      </trkpt>
      <trkpt lat="46.3439" lon="6.62088">
        <ele>833.6153</ele>
        <time>2014-08-26T14:32:54Z</time>
      </trkpt>
      <trkpt lat="46.34389" lon="6.62088">
        <ele>833.6153</ele>
        <time>2014-08-26T14:32:59Z</time>
      </trkpt>
      <trkpt lat="46.34389" lon="6.62088">
        <ele>833.6153</ele>
        <time>2014-08-26T14:33:04Z</time>
      </trkpt>
      <trkpt lat="46.3439" lon="6.62088">
        <ele>833.6153</ele>
        <time>2014-08-26T14:33:09Z</time>
      </trkpt>
      <trkpt lat="46.3439" lon="6.62086">
        <ele>833.6153</ele>
        <time>2014-08-26T14:33:14Z</time>
      </trkpt>
      <trkpt lat="46.34391" lon="6.62085">
        <ele>833.6153</ele>
        <time>2014-08-26T14:33:19Z</time>
      </trkpt>
      <trkpt lat="46.34391" lon="6.62085">
        <ele>833.6153</ele>
        <time>2014-08-26T14:33:24Z</time>
      </trkpt>
      <trkpt lat="46.34392" lon="6.62084">
        <ele>833.6153</ele>
        <time>2014-08-26T14:33:29Z</time>
      </trkpt>
      <trkpt lat="46.34391" lon="6.62085">
        <ele>834.03564</ele>
        <time>2014-08-26T14:33:34Z</time>
      </trkpt>
      <trkpt lat="46.34391" lon="6.62087">
        <ele>834.03564</ele>
        <time>2014-08-26T14:33:39Z</time>
      </trkpt>
      <trkpt lat="46.34392" lon="6.62088">
        <ele>834.03564</ele>
        <time>2014-08-26T14:33:44Z</time>
      </trkpt>
      <trkpt lat="46.34392" lon="6.62089">
        <ele>834.03564</ele>
        <time>2014-08-26T14:33:49Z</time>
      </trkpt>
      <trkpt lat="46.34391" lon="6.6209">
        <ele>834.03564</ele>
        <time>2014-08-26T14:33:54Z</time>
      </trkpt>
      <trkpt lat="46.3439" lon="6.6209">
        <ele>834.03564</ele>
        <time>2014-08-26T14:33:59Z</time>
      </trkpt>
      <trkpt lat="46.3439" lon="6.62091">
        <ele>834.03564</ele>
        <time>2014-08-26T14:34:04Z</time>
      </trkpt>
      <trkpt lat="46.3439" lon="6.6209">
        <ele>834.03564</ele>
        <time>2014-08-26T14:34:09Z</time>
      </trkpt>
      <trkpt lat="46.3439" lon="6.62089">
        <ele>834.03564</ele>
        <time>2014-08-26T14:34:14Z</time>
      </trkpt>
      <trkpt lat="46.3439" lon="6.62089">
        <ele>834.03564</ele>
        <time>2014-08-26T14:34:19Z</time>
      </trkpt>
      <trkpt lat="46.34389" lon="6.62089">
        <ele>834.03564</ele>
        <time>2014-08-26T14:34:24Z</time>
      </trkpt>
      <trkpt lat="46.34388" lon="6.62088">
        <ele>834.03564</ele>
        <time>2014-08-26T14:34:29Z</time>
      </trkpt>
      <trkpt lat="46.34387" lon="6.62087">
        <ele>834.2273</ele>
        <time>2014-08-26T14:34:34Z</time>
      </trkpt>
      <trkpt lat="46.34387" lon="6.62087">
        <ele>834.2273</ele>
        <time>2014-08-26T14:34:39Z</time>
      </trkpt>
      <trkpt lat="46.34387" lon="6.62086">
        <ele>834.2273</ele>
        <time>2014-08-26T14:34:44Z</time>
      </trkpt>
      <trkpt lat="46.34386" lon="6.62087">
        <ele>834.2273</ele>
        <time>2014-08-26T14:34:49Z</time>
      </trkpt>
      <trkpt lat="46.34386" lon="6.62088">
        <ele>834.2273</ele>
        <time>2014-08-26T14:34:54Z</time>
      </trkpt>
      <trkpt lat="46.34386" lon="6.62088">
        <ele>834.2273</ele>
        <time>2014-08-26T14:34:59Z</time>
      </trkpt>
      <trkpt lat="46.34386" lon="6.62088">
        <ele>834.2273</ele>
        <time>2014-08-26T14:35:04Z</time>
      </trkpt>
      <trkpt lat="46.34385" lon="6.6209">
        <ele>834.2273</ele>
        <time>2014-08-26T14:35:29Z</time>
      </trkpt>
      <trkpt lat="46.34385" lon="6.6209">
        <ele>834.2273</ele>
        <time>2014-08-26T14:35:34Z</time>
      </trkpt>
      <trkpt lat="46.34385" lon="6.62091">
        <ele>834.2273</ele>
        <time>2014-08-26T14:37:44Z</time>
      </trkpt>
      <trkpt lat="46.34385" lon="6.62091">
        <ele>834.2273</ele>
        <time>2014-08-26T14:37:49Z</time>
      </trkpt>
      <trkpt lat="46.34386" lon="6.62097">
        <ele>834.32227</ele>
        <time>2014-08-26T14:38:29Z</time>
      </trkpt>
      <trkpt lat="46.34388" lon="6.62108">
        <ele>834.32227</ele>
        <time>2014-08-26T14:38:34Z</time>
      </trkpt>
      <trkpt lat="46.34389" lon="6.62117">
        <ele>834.5153</ele>
        <time>2014-08-26T14:38:39Z</time>
      </trkpt>
      <trkpt lat="46.34389" lon="6.62127">
        <ele>834.5153</ele>
        <time>2014-08-26T14:38:44Z</time>
      </trkpt>
      <trkpt lat="46.34389" lon="6.62134">
        <ele>834.82806</ele>
        <time>2014-08-26T14:38:49Z</time>
      </trkpt>
      <trkpt lat="46.34387" lon="6.62138">
        <ele>834.82806</ele>
        <time>2014-08-26T14:38:54Z</time>
      </trkpt>
      <trkpt lat="46.34387" lon="6.62145">
        <ele>834.82806</ele>
        <time>2014-08-26T14:38:59Z</time>
      </trkpt>
      <trkpt lat="46.34386" lon="6.62155">
        <ele>835.04956</ele>
        <time>2014-08-26T14:39:04Z</time>
      </trkpt>
      <trkpt lat="46.34385" lon="6.62163">
        <ele>835.04956</ele>
        <time>2014-08-26T14:39:09Z</time>
      </trkpt>
      <trkpt lat="46.34385" lon="6.62171">
        <ele>835.30176</ele>
        <time>2014-08-26T14:39:14Z</time>
      </trkpt>
      <trkpt lat="46.34385" lon="6.62182">
        <ele>835.30176</ele>
        <time>2014-08-26T14:39:19Z</time>
      </trkpt>
      <trkpt lat="46.34386" lon="6.62191">
        <ele>835.4813</ele>
        <time>2014-08-26T14:39:24Z</time>
      </trkpt>
      <trkpt lat="46.34387" lon="6.62196">
        <ele>835.4813</ele>
        <time>2014-08-26T14:39:29Z</time>
      </trkpt>
      <trkpt lat="46.34387" lon="6.62202">
        <ele>835.4813</ele>
        <time>2014-08-26T14:39:34Z</time>
      </trkpt>
      <trkpt lat="46.34387" lon="6.62209">
        <ele>835.3918</ele>
        <time>2014-08-26T14:39:39Z</time>
      </trkpt>
      <trkpt lat="46.34388" lon="6.62214">
        <ele>835.3918</ele>
        <time>2014-08-26T14:39:44Z</time>
      </trkpt>
      <trkpt lat="46.34388" lon="6.62225">
        <ele>835.0825</ele>
        <time>2014-08-26T14:39:49Z</time>
      </trkpt>
      <trkpt lat="46.34387" lon="6.62234">
        <ele>835.0825</ele>
        <time>2014-08-26T14:39:54Z</time>
      </trkpt>
      <trkpt lat="46.34386" lon="6.62241">
        <ele>834.54224</ele>
        <time>2014-08-26T14:39:59Z</time>
      </trkpt>
      <trkpt lat="46.34385" lon="6.62247">
        <ele>834.54224</ele>
        <time>2014-08-26T14:40:04Z</time>
      </trkpt>
      <trkpt lat="46.34383" lon="6.62253">
        <ele>834.54224</ele>
        <time>2014-08-26T14:40:09Z</time>
      </trkpt>
      <trkpt lat="46.34381" lon="6.6226">
        <ele>833.67456</ele>
        <time>2014-08-26T14:40:14Z</time>
      </trkpt>
      <trkpt lat="46.34379" lon="6.62267">
        <ele>833.67456</ele>
        <time>2014-08-26T14:40:19Z</time>
      </trkpt>
      <trkpt lat="46.34377" lon="6.62274">
        <ele>832.665</ele>
        <time>2014-08-26T14:40:24Z</time>
      </trkpt>
      <trkpt lat="46.34376" lon="6.62283">
        <ele>832.665</ele>
        <time>2014-08-26T14:40:29Z</time>
      </trkpt>
      <trkpt lat="46.34375" lon="6.62291">
        <ele>831.49835</ele>
        <time>2014-08-26T14:40:34Z</time>
      </trkpt>
      <trkpt lat="46.34373" lon="6.623">
        <ele>831.49835</ele>
        <time>2014-08-26T14:40:39Z</time>
      </trkpt>
      <trkpt lat="46.34373" lon="6.62309">
        <ele>830.2907</ele>
        <time>2014-08-26T14:40:44Z</time>
      </trkpt>
      <trkpt lat="46.34373" lon="6.6232">
        <ele>830.2907</ele>
        <time>2014-08-26T14:40:49Z</time>
      </trkpt>
      <trkpt lat="46.34372" lon="6.62329">
        <ele>829.06335</ele>
        <time>2014-08-26T14:40:54Z</time>
      </trkpt>
      <trkpt lat="46.34373" lon="6.62337">
        <ele>829.06335</ele>
        <time>2014-08-26T14:40:59Z</time>
      </trkpt>
      <trkpt lat="46.34374" lon="6.62346">
        <ele>827.82135</ele>
        <time>2014-08-26T14:41:04Z</time>
      </trkpt>
      <trkpt lat="46.34376" lon="6.62356">
        <ele>827.82135</ele>
        <time>2014-08-26T14:41:09Z</time>
      </trkpt>
      <trkpt lat="46.34378" lon="6.62366">
        <ele>826.512</ele>
        <time>2014-08-26T14:41:14Z</time>
      </trkpt>
      <trkpt lat="46.34381" lon="6.62373">
        <ele>826.512</ele>
        <time>2014-08-26T14:41:19Z</time>
      </trkpt>
      <trkpt lat="46.34385" lon="6.62381">
        <ele>825.30255</ele>
        <time>2014-08-26T14:41:24Z</time>
      </trkpt>
      <trkpt lat="46.34389" lon="6.62387">
        <ele>825.30255</ele>
        <time>2014-08-26T14:41:29Z</time>
      </trkpt>
      <trkpt lat="46.34394" lon="6.62394">
        <ele>824.146</ele>
        <time>2014-08-26T14:41:34Z</time>
      </trkpt>
      <trkpt lat="46.34399" lon="6.62398">
        <ele>824.146</ele>
        <time>2014-08-26T14:41:39Z</time>
      </trkpt>
      <trkpt lat="46.34404" lon="6.62401">
        <ele>823.0129</ele>
        <time>2014-08-26T14:41:44Z</time>
      </trkpt>
      <trkpt lat="46.34409" lon="6.62402">
        <ele>823.0129</ele>
        <time>2014-08-26T14:41:49Z</time>
      </trkpt>
      <trkpt lat="46.34413" lon="6.62402">
        <ele>823.0129</ele>
        <time>2014-08-26T14:41:54Z</time>
      </trkpt>
      <trkpt lat="46.34417" lon="6.62403">
        <ele>821.8326</ele>
        <time>2014-08-26T14:41:59Z</time>
      </trkpt>
      <trkpt lat="46.34424" lon="6.62401">
        <ele>821.8326</ele>
        <time>2014-08-26T14:42:04Z</time>
      </trkpt>
      <trkpt lat="46.34431" lon="6.62397">
        <ele>820.78467</ele>
        <time>2014-08-26T14:42:09Z</time>
      </trkpt>
      <trkpt lat="46.34436" lon="6.62397">
        <ele>820.78467</ele>
        <time>2014-08-26T14:42:14Z</time>
      </trkpt>
      <trkpt lat="46.34441" lon="6.62397">
        <ele>819.81903</ele>
        <time>2014-08-26T14:42:19Z</time>
      </trkpt>
      <trkpt lat="46.34449" lon="6.62401">
        <ele>819.81903</ele>
        <time>2014-08-26T14:42:24Z</time>
      </trkpt>
      <trkpt lat="46.34456" lon="6.62406">
        <ele>819.01843</ele>
        <time>2014-08-26T14:42:29Z</time>
      </trkpt>
      <trkpt lat="46.34461" lon="6.6241">
        <ele>819.01843</ele>
        <time>2014-08-26T14:42:34Z</time>
      </trkpt>
      <trkpt lat="46.34466" lon="6.62413">
        <ele>818.2717</ele>
        <time>2014-08-26T14:42:39Z</time>
      </trkpt>
      <trkpt lat="46.34472" lon="6.62418">
        <ele>818.2717</ele>
        <time>2014-08-26T14:42:44Z</time>
      </trkpt>
      <trkpt lat="46.34476" lon="6.62419">
        <ele>817.47577</ele>
        <time>2014-08-26T14:42:49Z</time>
      </trkpt>
      <trkpt lat="46.3448" lon="6.62421">
        <ele>817.47577</ele>
        <time>2014-08-26T14:42:54Z</time>
      </trkpt>
      <trkpt lat="46.34484" lon="6.62425">
        <ele>816.6791</ele>
        <time>2014-08-26T14:42:59Z</time>
      </trkpt>
      <trkpt lat="46.34487" lon="6.62426">
        <ele>816.6791</ele>
        <time>2014-08-26T14:43:04Z</time>
      </trkpt>
      <trkpt lat="46.34492" lon="6.62428">
        <ele>816.6791</ele>
        <time>2014-08-26T14:43:09Z</time>
      </trkpt>
      <trkpt lat="46.34497" lon="6.62431">
        <ele>815.8257</ele>
        <time>2014-08-26T14:43:14Z</time>
      </trkpt>
      <trkpt lat="46.34499" lon="6.62436">
        <ele>815.8257</ele>
        <time>2014-08-26T14:43:19Z</time>
      </trkpt>
      <trkpt lat="46.34499" lon="6.6244">
        <ele>815.8257</ele>
        <time>2014-08-26T14:43:24Z</time>
      </trkpt>
      <trkpt lat="46.34499" lon="6.62446">
        <ele>814.734</ele>
        <time>2014-08-26T14:43:29Z</time>
      </trkpt>
      <trkpt lat="46.34498" lon="6.62452">
        <ele>814.734</ele>
        <time>2014-08-26T14:43:34Z</time>
      </trkpt>
      <trkpt lat="46.34498" lon="6.62459">
        <ele>813.45276</ele>
        <time>2014-08-26T14:43:39Z</time>
      </trkpt>
      <trkpt lat="46.34498" lon="6.62466">
        <ele>813.45276</ele>
        <time>2014-08-26T14:43:44Z</time>
      </trkpt>
      <trkpt lat="46.34499" lon="6.62472">
        <ele>813.45276</ele>
        <time>2014-08-26T14:43:49Z</time>
      </trkpt>
      <trkpt lat="46.345" lon="6.62478">
        <ele>811.7246</ele>
        <time>2014-08-26T14:43:54Z</time>
      </trkpt>
      <trkpt lat="46.34498" lon="6.62484">
        <ele>811.7246</ele>
        <time>2014-08-26T14:43:59Z</time>
      </trkpt>
      <trkpt lat="46.34498" lon="6.62501">
        <ele>809.9035</ele>
        <time>2014-08-26T14:44:04Z</time>
      </trkpt>
      <trkpt lat="46.34499" lon="6.62514">
        <ele>808.2307</ele>
        <time>2014-08-26T14:44:09Z</time>
      </trkpt>
      <trkpt lat="46.34505" lon="6.62523">
        <ele>808.2307</ele>
        <time>2014-08-26T14:44:14Z</time>
      </trkpt>
      <trkpt lat="46.34508" lon="6.62528">
        <ele>806.59814</ele>
        <time>2014-08-26T14:44:19Z</time>
      </trkpt>
      <trkpt lat="46.34511" lon="6.62532">
        <ele>806.59814</ele>
        <time>2014-08-26T14:44:24Z</time>
      </trkpt>
      <trkpt lat="46.34514" lon="6.6254">
        <ele>804.9773</ele>
        <time>2014-08-26T14:44:29Z</time>
      </trkpt>
      <trkpt lat="46.34518" lon="6.62549">
        <ele>804.9773</ele>
        <time>2014-08-26T14:44:34Z</time>
      </trkpt>
      <trkpt lat="46.34521" lon="6.62554">
        <ele>803.4137</ele>
        <time>2014-08-26T14:44:39Z</time>
      </trkpt>
      <trkpt lat="46.34525" lon="6.62561">
        <ele>803.4137</ele>
        <time>2014-08-26T14:44:44Z</time>
      </trkpt>
      <trkpt lat="46.34526" lon="6.62565">
        <ele>802.1079</ele>
        <time>2014-08-26T14:44:49Z</time>
      </trkpt>
      <trkpt lat="46.34529" lon="6.6257">
        <ele>802.1079</ele>
        <time>2014-08-26T14:44:54Z</time>
      </trkpt>
      <trkpt lat="46.34529" lon="6.62574">
        <ele>802.1079</ele>
        <time>2014-08-26T14:44:59Z</time>
      </trkpt>
      <trkpt lat="46.3453" lon="6.62579">
        <ele>800.8557</ele>
        <time>2014-08-26T14:45:04Z</time>
      </trkpt>
      <trkpt lat="46.34535" lon="6.62587">
        <ele>800.8557</ele>
        <time>2014-08-26T14:45:09Z</time>
      </trkpt>
      <trkpt lat="46.34538" lon="6.62591">
        <ele>799.61176</ele>
        <time>2014-08-26T14:45:14Z</time>
      </trkpt>
      <trkpt lat="46.34543" lon="6.62601">
        <ele>799.61176</ele>
        <time>2014-08-26T14:45:19Z</time>
      </trkpt>
      <trkpt lat="46.34545" lon="6.62606">
        <ele>798.49255</ele>
        <time>2014-08-26T14:45:24Z</time>
      </trkpt>
      <trkpt lat="46.34548" lon="6.62613">
        <ele>798.49255</ele>
        <time>2014-08-26T14:45:29Z</time>
      </trkpt>
      <trkpt lat="46.34552" lon="6.6262">
        <ele>797.5046</ele>
        <time>2014-08-26T14:45:34Z</time>
      </trkpt>
      <trkpt lat="46.34554" lon="6.62627">
        <ele>797.5046</ele>
        <time>2014-08-26T14:45:39Z</time>
      </trkpt>
      <trkpt lat="46.34556" lon="6.62631">
        <ele>797.5046</ele>
        <time>2014-08-26T14:45:44Z</time>
      </trkpt>
      <trkpt lat="46.34558" lon="6.62636">
        <ele>796.6246</ele>
        <time>2014-08-26T14:45:49Z</time>
      </trkpt>
      <trkpt lat="46.3456" lon="6.6264">
        <ele>796.6246</ele>
        <time>2014-08-26T14:45:54Z</time>
      </trkpt>
      <trkpt lat="46.34563" lon="6.62648">
        <ele>795.701</ele>
        <time>2014-08-26T14:45:59Z</time>
      </trkpt>
      <trkpt lat="46.34565" lon="6.62654">
        <ele>795.701</ele>
        <time>2014-08-26T14:46:04Z</time>
      </trkpt>
      <trkpt lat="46.34567" lon="6.62657">
        <ele>795.701</ele>
        <time>2014-08-26T14:46:09Z</time>
      </trkpt>
      <trkpt lat="46.34569" lon="6.62662">
        <ele>794.6366</ele>
        <time>2014-08-26T14:46:14Z</time>
      </trkpt>
      <trkpt lat="46.34574" lon="6.62667">
        <ele>794.6366</ele>
        <time>2014-08-26T14:46:19Z</time>
      </trkpt>
      <trkpt lat="46.34577" lon="6.62674">
        <ele>793.5722</ele>
        <time>2014-08-26T14:46:24Z</time>
      </trkpt>
      <trkpt lat="46.34581" lon="6.62681">
        <ele>793.5722</ele>
        <time>2014-08-26T14:46:29Z</time>
      </trkpt>
      <trkpt lat="46.34586" lon="6.62691">
        <ele>792.75354</ele>
        <time>2014-08-26T14:46:34Z</time>
      </trkpt>
      <trkpt lat="46.34588" lon="6.62695">
        <ele>792.75354</ele>
        <time>2014-08-26T14:46:39Z</time>
      </trkpt>
      <trkpt lat="46.34593" lon="6.62707">
        <ele>792.39307</ele>
        <time>2014-08-26T14:46:44Z</time>
      </trkpt>
      <trkpt lat="46.34594" lon="6.62721">
        <ele>792.2828</ele>
        <time>2014-08-26T14:46:49Z</time>
      </trkpt>
      <trkpt lat="46.34595" lon="6.62728">
        <ele>792.2828</ele>
        <time>2014-08-26T14:46:54Z</time>
      </trkpt>
      <trkpt lat="46.34596" lon="6.62735">
        <ele>792.27246</ele>
        <time>2014-08-26T14:46:59Z</time>
      </trkpt>
      <trkpt lat="46.34597" lon="6.62742">
        <ele>792.27246</ele>
        <time>2014-08-26T14:47:04Z</time>
      </trkpt>
      <trkpt lat="46.34599" lon="6.62753">
        <ele>792.48206</ele>
        <time>2014-08-26T14:47:09Z</time>
      </trkpt>
      <trkpt lat="46.34602" lon="6.62764">
        <ele>792.48206</ele>
        <time>2014-08-26T14:47:14Z</time>
      </trkpt>
      <trkpt lat="46.34606" lon="6.6277">
        <ele>792.93536</ele>
        <time>2014-08-26T14:47:19Z</time>
      </trkpt>
      <trkpt lat="46.34609" lon="6.62776">
        <ele>792.93536</ele>
        <time>2014-08-26T14:47:24Z</time>
      </trkpt>
      <trkpt lat="46.34616" lon="6.62781">
        <ele>793.42346</ele>
        <time>2014-08-26T14:47:29Z</time>
      </trkpt>
      <trkpt lat="46.34618" lon="6.62785">
        <ele>793.42346</ele>
        <time>2014-08-26T14:47:34Z</time>
      </trkpt>
      <trkpt lat="46.3462" lon="6.62788">
        <ele>793.42346</ele>
        <time>2014-08-26T14:47:39Z</time>
      </trkpt>
      <trkpt lat="46.34626" lon="6.62793">
        <ele>793.7668</ele>
        <time>2014-08-26T14:47:44Z</time>
      </trkpt>
      <trkpt lat="46.34631" lon="6.62793">
        <ele>793.7668</ele>
        <time>2014-08-26T14:47:49Z</time>
      </trkpt>
      <trkpt lat="46.34634" lon="6.62797">
        <ele>793.7668</ele>
        <time>2014-08-26T14:47:54Z</time>
      </trkpt>
      <trkpt lat="46.34637" lon="6.628">
        <ele>794.0157</ele>
        <time>2014-08-26T14:47:59Z</time>
      </trkpt>
      <trkpt lat="46.3464" lon="6.62802">
        <ele>794.0157</ele>
        <time>2014-08-26T14:48:04Z</time>
      </trkpt>
      <trkpt lat="46.34642" lon="6.62805">
        <ele>794.0157</ele>
        <time>2014-08-26T14:48:09Z</time>
      </trkpt>
      <trkpt lat="46.34648" lon="6.62807">
        <ele>794.0154</ele>
        <time>2014-08-26T14:48:14Z</time>
      </trkpt>
      <trkpt lat="46.34651" lon="6.62807">
        <ele>794.0154</ele>
        <time>2014-08-26T14:48:19Z</time>
      </trkpt>
      <trkpt lat="46.34658" lon="6.62809">
        <ele>793.8537</ele>
        <time>2014-08-26T14:48:24Z</time>
      </trkpt>
      <trkpt lat="46.34665" lon="6.62813">
        <ele>793.8537</ele>
        <time>2014-08-26T14:48:29Z</time>
      </trkpt>
      <trkpt lat="46.34668" lon="6.62819">
        <ele>793.68445</ele>
        <time>2014-08-26T14:48:34Z</time>
      </trkpt>
      <trkpt lat="46.34673" lon="6.62828">
        <ele>793.68445</ele>
        <time>2014-08-26T14:48:39Z</time>
      </trkpt>
      <trkpt lat="46.34678" lon="6.62834">
        <ele>793.463</ele>
        <time>2014-08-26T14:48:44Z</time>
      </trkpt>
      <trkpt lat="46.34683" lon="6.62839">
        <ele>793.463</ele>
        <time>2014-08-26T14:48:49Z</time>
      </trkpt>
      <trkpt lat="46.34687" lon="6.62846">
        <ele>793.3067</ele>
        <time>2014-08-26T14:48:54Z</time>
      </trkpt>
      <trkpt lat="46.34688" lon="6.62848">
        <ele>793.3067</ele>
        <time>2014-08-26T14:48:59Z</time>
      </trkpt>
      <trkpt lat="46.34685" lon="6.62849">
        <ele>793.3067</ele>
        <time>2014-08-26T14:49:04Z</time>
      </trkpt>
      <trkpt lat="46.34678" lon="6.62861">
        <ele>793.26636</ele>
        <time>2014-08-26T14:49:09Z</time>
      </trkpt>
      <trkpt lat="46.34675" lon="6.62866">
        <ele>793.26636</ele>
        <time>2014-08-26T14:49:14Z</time>
      </trkpt>
      <trkpt lat="46.34671" lon="6.6287">
        <ele>793.3457</ele>
        <time>2014-08-26T14:49:19Z</time>
      </trkpt>
      <trkpt lat="46.34671" lon="6.6287">
        <ele>793.3457</ele>
        <time>2014-08-26T14:49:24Z</time>
      </trkpt>
      <trkpt lat="46.34672" lon="6.62872">
        <ele>793.3457</ele>
        <time>2014-08-26T14:49:34Z</time>
      </trkpt>
      <trkpt lat="46.34672" lon="6.62872">
        <ele>793.3457</ele>
        <time>2014-08-26T14:49:39Z</time>
      </trkpt>
      <trkpt lat="46.34671" lon="6.62873">
        <ele>793.3457</ele>
        <time>2014-08-26T14:49:54Z</time>
      </trkpt>
      <trkpt lat="46.34671" lon="6.62875">
        <ele>793.3457</ele>
        <time>2014-08-26T14:49:59Z</time>
      </trkpt>
      <trkpt lat="46.34671" lon="6.62875">
        <ele>793.3457</ele>
        <time>2014-08-26T14:50:04Z</time>
      </trkpt>
      <trkpt lat="46.3467" lon="6.62876">
        <ele>793.3457</ele>
        <time>2014-08-26T14:50:14Z</time>
      </trkpt>
      <trkpt lat="46.34671" lon="6.62877">
        <ele>793.3457</ele>
        <time>2014-08-26T14:50:19Z</time>
      </trkpt>
      <trkpt lat="46.34671" lon="6.62877">
        <ele>793.3457</ele>
        <time>2014-08-26T14:50:24Z</time>
      </trkpt>
      <trkpt lat="46.34671" lon="6.62877">
        <ele>793.3457</ele>
        <time>2014-08-26T14:50:39Z</time>
      </trkpt>
      <trkpt lat="46.3467" lon="6.62879">
        <ele>793.3457</ele>
        <time>2014-08-26T14:50:44Z</time>
      </trkpt>
      <trkpt lat="46.34668" lon="6.6288">
        <ele>793.50446</ele>
        <time>2014-08-26T14:50:49Z</time>
      </trkpt>
      <trkpt lat="46.34668" lon="6.6288">
        <ele>793.50446</ele>
        <time>2014-08-26T14:50:54Z</time>
      </trkpt>
      <trkpt lat="46.34669" lon="6.62881">
        <ele>793.50446</ele>
        <time>2014-08-26T14:50:59Z</time>
      </trkpt>
      <trkpt lat="46.34667" lon="6.62881">
        <ele>793.50446</ele>
        <time>2014-08-26T14:51:04Z</time>
      </trkpt>
      <trkpt lat="46.34667" lon="6.62881">
        <ele>793.50446</ele>
        <time>2014-08-26T14:51:09Z</time>
      </trkpt>
      <trkpt lat="46.34666" lon="6.62886">
        <ele>793.50446</ele>
        <time>2014-08-26T14:51:19Z</time>
      </trkpt>
      <trkpt lat="46.34664" lon="6.6289">
        <ele>793.50446</ele>
        <time>2014-08-26T14:51:24Z</time>
      </trkpt>
      <trkpt lat="46.34664" lon="6.6289">
        <ele>793.50446</ele>
        <time>2014-08-26T14:51:29Z</time>
      </trkpt>
      <trkpt lat="46.34664" lon="6.62889">
        <ele>794.2242</ele>
        <time>2014-08-26T14:51:39Z</time>
      </trkpt>
      <trkpt lat="46.34664" lon="6.62889">
        <ele>794.2242</ele>
        <time>2014-08-26T14:51:44Z</time>
      </trkpt>
      <trkpt lat="46.34664" lon="6.62888">
        <ele>794.2242</ele>
        <time>2014-08-26T14:51:59Z</time>
      </trkpt>
      <trkpt lat="46.34662" lon="6.62888">
        <ele>794.2242</ele>
        <time>2014-08-26T14:52:04Z</time>
      </trkpt>
      <trkpt lat="46.34659" lon="6.62886">
        <ele>794.2242</ele>
        <time>2014-08-26T14:52:09Z</time>
      </trkpt>
      <trkpt lat="46.34657" lon="6.62887">
        <ele>794.2242</ele>
        <time>2014-08-26T14:52:14Z</time>
      </trkpt>
      <trkpt lat="46.34655" lon="6.62886">
        <ele>795.08466</ele>
        <time>2014-08-26T14:52:19Z</time>
      </trkpt>
      <trkpt lat="46.34654" lon="6.62886">
        <ele>795.08466</ele>
        <time>2014-08-26T14:52:24Z</time>
      </trkpt>
      <trkpt lat="46.34653" lon="6.62886">
        <ele>795.08466</ele>
        <time>2014-08-26T14:52:29Z</time>
      </trkpt>
      <trkpt lat="46.34652" lon="6.62887">
        <ele>795.08466</ele>
        <time>2014-08-26T14:52:34Z</time>
      </trkpt>
      <trkpt lat="46.34651" lon="6.62889">
        <ele>795.08466</ele>
        <time>2014-08-26T14:52:39Z</time>
      </trkpt>
      <trkpt lat="46.34651" lon="6.62894">
        <ele>795.08466</ele>
        <time>2014-08-26T14:52:44Z</time>
      </trkpt>
      <trkpt lat="46.34646" lon="6.62901">
        <ele>795.3216</ele>
        <time>2014-08-26T14:52:49Z</time>
      </trkpt>
      <trkpt lat="46.34641" lon="6.62912">
        <ele>795.3216</ele>
        <time>2014-08-26T14:52:54Z</time>
      </trkpt>
      <trkpt lat="46.34642" lon="6.62917">
        <ele>795.46814</ele>
        <time>2014-08-26T14:52:59Z</time>
      </trkpt>
      <trkpt lat="46.34639" lon="6.62921">
        <ele>795.46814</ele>
        <time>2014-08-26T14:53:04Z</time>
      </trkpt>
      <trkpt lat="46.34641" lon="6.62922">
        <ele>795.46814</ele>
        <time>2014-08-26T14:53:09Z</time>
      </trkpt>
      <trkpt lat="46.3464" lon="6.62926">
        <ele>795.46814</ele>
        <time>2014-08-26T14:53:14Z</time>
      </trkpt>
      <trkpt lat="46.34642" lon="6.62928">
        <ele>795.94635</ele>
        <time>2014-08-26T14:53:19Z</time>
      </trkpt>
      <trkpt lat="46.34643" lon="6.62931">
        <ele>795.94635</ele>
        <time>2014-08-26T14:53:24Z</time>
      </trkpt>
      <trkpt lat="46.34643" lon="6.62932">
        <ele>795.94635</ele>
        <time>2014-08-26T14:53:29Z</time>
      </trkpt>
      <trkpt lat="46.34644" lon="6.62936">
        <ele>795.94635</ele>
        <time>2014-08-26T14:53:34Z</time>
      </trkpt>
      <trkpt lat="46.34645" lon="6.62949">
        <ele>796.68536</ele>
        <time>2014-08-26T14:53:39Z</time>
      </trkpt>
      <trkpt lat="46.34645" lon="6.62949">
        <ele>796.68536</ele>
        <time>2014-08-26T14:53:44Z</time>
      </trkpt>
      <trkpt lat="46.34645" lon="6.6295">
        <ele>796.68536</ele>
        <time>2014-08-26T14:53:54Z</time>
      </trkpt>
      <trkpt lat="46.34644" lon="6.62952">
        <ele>796.68536</ele>
        <time>2014-08-26T14:53:59Z</time>
      </trkpt>
      <trkpt lat="46.34642" lon="6.62955">
        <ele>796.68536</ele>
        <time>2014-08-26T14:54:04Z</time>
      </trkpt>
      <trkpt lat="46.34642" lon="6.62958">
        <ele>796.68536</ele>
        <time>2014-08-26T14:54:09Z</time>
      </trkpt>
      <trkpt lat="46.34642" lon="6.62958">
        <ele>796.68536</ele>
        <time>2014-08-26T14:54:14Z</time>
      </trkpt>
      <trkpt lat="46.34642" lon="6.62958">
        <ele>796.68536</ele>
        <time>2014-08-26T14:54:19Z</time>
      </trkpt>
      <trkpt lat="46.34641" lon="6.62958">
        <ele>796.68536</ele>
        <time>2014-08-26T14:54:34Z</time>
      </trkpt>
      <trkpt lat="46.34639" lon="6.6296">
        <ele>798.498</ele>
        <time>2014-08-26T14:54:39Z</time>
      </trkpt>
      <trkpt lat="46.34638" lon="6.62963">
        <ele>798.498</ele>
        <time>2014-08-26T14:54:44Z</time>
      </trkpt>
      <trkpt lat="46.34636" lon="6.62968">
        <ele>798.498</ele>
        <time>2014-08-26T14:54:49Z</time>
      </trkpt>
      <trkpt lat="46.34636" lon="6.62968">
        <ele>798.498</ele>
        <time>2014-08-26T14:54:54Z</time>
      </trkpt>
      <trkpt lat="46.34637" lon="6.62969">
        <ele>798.498</ele>
        <time>2014-08-26T14:55:04Z</time>
      </trkpt>
      <trkpt lat="46.34635" lon="6.6297">
        <ele>800.18884</ele>
        <time>2014-08-26T14:55:09Z</time>
      </trkpt>
      <trkpt lat="46.34635" lon="6.62971">
        <ele>800.18884</ele>
        <time>2014-08-26T14:55:14Z</time>
      </trkpt>
      <trkpt lat="46.34635" lon="6.62971">
        <ele>800.18884</ele>
        <time>2014-08-26T14:55:19Z</time>
      </trkpt>
      <trkpt lat="46.34634" lon="6.62971">
        <ele>800.18884</ele>
        <time>2014-08-26T14:55:24Z</time>
      </trkpt>
      <trkpt lat="46.34634" lon="6.62972">
        <ele>800.18884</ele>
        <time>2014-08-26T14:55:29Z</time>
      </trkpt>
      <trkpt lat="46.34633" lon="6.62977">
        <ele>800.18884</ele>
        <time>2014-08-26T14:55:34Z</time>
      </trkpt>
      <trkpt lat="46.34632" lon="6.62979">
        <ele>800.18884</ele>
        <time>2014-08-26T14:55:39Z</time>
      </trkpt>
      <trkpt lat="46.34631" lon="6.62979">
        <ele>800.18884</ele>
        <time>2014-08-26T14:55:44Z</time>
      </trkpt>
      <trkpt lat="46.34631" lon="6.6298">
        <ele>800.18884</ele>
        <time>2014-08-26T14:55:49Z</time>
      </trkpt>
      <trkpt lat="46.3463" lon="6.62979">
        <ele>801.3858</ele>
        <time>2014-08-26T14:55:54Z</time>
      </trkpt>
      <trkpt lat="46.3463" lon="6.62979">
        <ele>801.3858</ele>
        <time>2014-08-26T14:55:59Z</time>
      </trkpt>
      <trkpt lat="46.34629" lon="6.62982">
        <ele>801.3858</ele>
        <time>2014-08-26T14:56:14Z</time>
      </trkpt>
      <trkpt lat="46.34629" lon="6.62983">
        <ele>801.3858</ele>
        <time>2014-08-26T14:56:19Z</time>
      </trkpt>
      <trkpt lat="46.34628" lon="6.62985">
        <ele>801.3858</ele>
        <time>2014-08-26T14:56:24Z</time>
      </trkpt>
      <trkpt lat="46.34628" lon="6.62986">
        <ele>801.3858</ele>
        <time>2014-08-26T14:56:29Z</time>
      </trkpt>
      <trkpt lat="46.34628" lon="6.62988">
        <ele>801.3858</ele>
        <time>2014-08-26T14:56:34Z</time>
      </trkpt>
      <trkpt lat="46.34627" lon="6.6299">
        <ele>801.3858</ele>
        <time>2014-08-26T14:56:39Z</time>
      </trkpt>
      <trkpt lat="46.3462" lon="6.62996">
        <ele>802.94165</ele>
        <time>2014-08-26T14:56:44Z</time>
      </trkpt>
      <trkpt lat="46.34621" lon="6.62997">
        <ele>802.94165</ele>
        <time>2014-08-26T14:56:49Z</time>
      </trkpt>
      <trkpt lat="46.3462" lon="6.62996">
        <ele>802.94165</ele>
        <time>2014-08-26T14:56:54Z</time>
      </trkpt>
      <trkpt lat="46.3462" lon="6.62998">
        <ele>802.94165</ele>
        <time>2014-08-26T14:56:59Z</time>
      </trkpt>
      <trkpt lat="46.34618" lon="6.63">
        <ele>802.94165</ele>
        <time>2014-08-26T14:57:04Z</time>
      </trkpt>
      <trkpt lat="46.34618" lon="6.63">
        <ele>802.94165</ele>
        <time>2014-08-26T14:57:09Z</time>
      </trkpt>
      <trkpt lat="46.3462" lon="6.63002">
        <ele>805.271</ele>
        <time>2014-08-26T14:57:14Z</time>
      </trkpt>
      <trkpt lat="46.34621" lon="6.63006">
        <ele>805.271</ele>
        <time>2014-08-26T14:57:19Z</time>
      </trkpt>
      <trkpt lat="46.34621" lon="6.63011">
        <ele>805.271</ele>
        <time>2014-08-26T14:57:24Z</time>
      </trkpt>
      <trkpt lat="46.34625" lon="6.63017">
        <ele>807.8624</ele>
        <time>2014-08-26T14:57:29Z</time>
      </trkpt>
      <trkpt lat="46.34627" lon="6.63018">
        <ele>807.8624</ele>
        <time>2014-08-26T14:57:34Z</time>
      </trkpt>
      <trkpt lat="46.34626" lon="6.63021">
        <ele>807.8624</ele>
        <time>2014-08-26T14:57:39Z</time>
      </trkpt>
      <trkpt lat="46.34625" lon="6.6302">
        <ele>807.8624</ele>
        <time>2014-08-26T14:57:44Z</time>
      </trkpt>
      <trkpt lat="46.34626" lon="6.63022">
        <ele>807.8624</ele>
        <time>2014-08-26T14:57:49Z</time>
      </trkpt>
      <trkpt lat="46.34629" lon="6.63028">
        <ele>811.3223</ele>
        <time>2014-08-26T14:57:54Z</time>
      </trkpt>
      <trkpt lat="46.34629" lon="6.63028">
        <ele>811.3223</ele>
        <time>2014-08-26T14:57:59Z</time>
      </trkpt>
      <trkpt lat="46.34629" lon="6.63028">
        <ele>811.3223</ele>
        <time>2014-08-26T14:58:04Z</time>
      </trkpt>
      <trkpt lat="46.3463" lon="6.63031">
        <ele>811.3223</ele>
        <time>2014-08-26T14:58:09Z</time>
      </trkpt>
      <trkpt lat="46.34629" lon="6.63034">
        <ele>811.3223</ele>
        <time>2014-08-26T14:58:14Z</time>
      </trkpt>
      <trkpt lat="46.34626" lon="6.6304">
        <ele>815.08636</ele>
        <time>2014-08-26T14:58:19Z</time>
      </trkpt>
      <trkpt lat="46.34622" lon="6.6304">
        <ele>815.08636</ele>
        <time>2014-08-26T14:58:24Z</time>
      </trkpt>
      <trkpt lat="46.34621" lon="6.63039">
        <ele>815.08636</ele>
        <time>2014-08-26T14:58:29Z</time>
      </trkpt>
      <trkpt lat="46.34622" lon="6.63039">
        <ele>815.08636</ele>
        <time>2014-08-26T14:58:34Z</time>
      </trkpt>
      <trkpt lat="46.34622" lon="6.6304">
        <ele>815.08636</ele>
        <time>2014-08-26T14:58:39Z</time>
      </trkpt>
      <trkpt lat="46.34621" lon="6.63041">
        <ele>815.08636</ele>
        <time>2014-08-26T14:58:44Z</time>
      </trkpt>
      <trkpt lat="46.34622" lon="6.63042">
        <ele>818.8757</ele>
        <time>2014-08-26T14:58:49Z</time>
      </trkpt>
      <trkpt lat="46.34621" lon="6.63044">
        <ele>818.8757</ele>
        <time>2014-08-26T14:58:54Z</time>
      </trkpt>
      <trkpt lat="46.34618" lon="6.6305">
        <ele>818.8757</ele>
        <time>2014-08-26T14:58:59Z</time>
      </trkpt>
      <trkpt lat="46.34617" lon="6.63053">
        <ele>822.66284</ele>
        <time>2014-08-26T14:59:04Z</time>
      </trkpt>
      <trkpt lat="46.34615" lon="6.63058">
        <ele>822.66284</ele>
        <time>2014-08-26T14:59:09Z</time>
      </trkpt>
      <trkpt lat="46.34615" lon="6.63059">
        <ele>822.66284</ele>
        <time>2014-08-26T14:59:14Z</time>
      </trkpt>
      <trkpt lat="46.3461" lon="6.6306">
        <ele>826.32166</ele>
        <time>2014-08-26T14:59:19Z</time>
      </trkpt>
      <trkpt lat="46.3461" lon="6.63062">
        <ele>826.32166</ele>
        <time>2014-08-26T14:59:24Z</time>
      </trkpt>
      <trkpt lat="46.34609" lon="6.63065">
        <ele>826.32166</ele>
        <time>2014-08-26T14:59:29Z</time>
      </trkpt>
      <trkpt lat="46.34609" lon="6.63066">
        <ele>826.32166</ele>
        <time>2014-08-26T14:59:34Z</time>
      </trkpt>
      <trkpt lat="46.34609" lon="6.63066">
        <ele>826.32166</ele>
        <time>2014-08-26T14:59:39Z</time>
      </trkpt>
      <trkpt lat="46.34604" lon="6.63069">
        <ele>830.0385</ele>
        <time>2014-08-26T14:59:44Z</time>
      </trkpt>
      <trkpt lat="46.34603" lon="6.63069">
        <ele>830.0385</ele>
        <time>2014-08-26T14:59:49Z</time>
      </trkpt>
      <trkpt lat="46.34599" lon="6.63069">
        <ele>830.0385</ele>
        <time>2014-08-26T14:59:54Z</time>
      </trkpt>
      <trkpt lat="46.34599" lon="6.63069">
        <ele>830.0385</ele>
        <time>2014-08-26T14:59:59Z</time>
      </trkpt>
      <trkpt lat="46.34599" lon="6.63069">
        <ele>830.0385</ele>
        <time>2014-08-26T15:00:04Z</time>
      </trkpt>
      <trkpt lat="46.34596" lon="6.6307">
        <ele>830.0385</ele>
        <time>2014-08-26T15:00:09Z</time>
      </trkpt>
      <trkpt lat="46.34596" lon="6.6307">
        <ele>830.0385</ele>
        <time>2014-08-26T15:00:14Z</time>
      </trkpt>
      <trkpt lat="46.34597" lon="6.63071">
        <ele>830.0385</ele>
        <time>2014-08-26T15:00:19Z</time>
      </trkpt>
      <trkpt lat="46.34594" lon="6.63071">
        <ele>833.7843</ele>
        <time>2014-08-26T15:00:24Z</time>
      </trkpt>
      <trkpt lat="46.34593" lon="6.63073">
        <ele>833.7843</ele>
        <time>2014-08-26T15:00:29Z</time>
      </trkpt>
      <trkpt lat="46.34592" lon="6.63073">
        <ele>833.7843</ele>
        <time>2014-08-26T15:00:34Z</time>
      </trkpt>
      <trkpt lat="46.3459" lon="6.63075">
        <ele>833.7843</ele>
        <time>2014-08-26T15:00:39Z</time>
      </trkpt>
      <trkpt lat="46.3459" lon="6.63075">
        <ele>833.7843</ele>
        <time>2014-08-26T15:00:44Z</time>
      </trkpt>
      <trkpt lat="46.3459" lon="6.63076">
        <ele>833.7843</ele>
        <time>2014-08-26T15:00:49Z</time>
      </trkpt>
      <trkpt lat="46.3459" lon="6.63076">
        <ele>833.7843</ele>
        <time>2014-08-26T15:00:54Z</time>
      </trkpt>
      <trkpt lat="46.34579" lon="6.63081">
        <ele>837.4603</ele>
        <time>2014-08-26T15:01:04Z</time>
      </trkpt>
      <trkpt lat="46.34577" lon="6.63081">
        <ele>837.4603</ele>
        <time>2014-08-26T15:01:09Z</time>
      </trkpt>
      <trkpt lat="46.34576" lon="6.63081">
        <ele>837.4603</ele>
        <time>2014-08-26T15:01:14Z</time>
      </trkpt>
      <trkpt lat="46.34573" lon="6.63085">
        <ele>837.4603</ele>
        <time>2014-08-26T15:01:19Z</time>
      </trkpt>
      <trkpt lat="46.34572" lon="6.63086">
        <ele>837.4603</ele>
        <time>2014-08-26T15:01:24Z</time>
      </trkpt>
      <trkpt lat="46.3457" lon="6.63085">
        <ele>841.8834</ele>
        <time>2014-08-26T15:01:29Z</time>
      </trkpt>
      <trkpt lat="46.34567" lon="6.63084">
        <ele>841.8834</ele>
        <time>2014-08-26T15:01:34Z</time>
      </trkpt>
      <trkpt lat="46.34565" lon="6.63084">
        <ele>841.8834</ele>
        <time>2014-08-26T15:01:39Z</time>
      </trkpt>
      <trkpt lat="46.34564" lon="6.63084">
        <ele>841.8834</ele>
        <time>2014-08-26T15:01:44Z</time>
      </trkpt>
      <trkpt lat="46.34561" lon="6.63086">
        <ele>846.5692</ele>
        <time>2014-08-26T15:01:49Z</time>
      </trkpt>
      <trkpt lat="46.34559" lon="6.63087">
        <ele>846.5692</ele>
        <time>2014-08-26T15:01:54Z</time>
      </trkpt>
      <trkpt lat="46.34558" lon="6.63087">
        <ele>846.5692</ele>
        <time>2014-08-26T15:01:59Z</time>
      </trkpt>
      <trkpt lat="46.34558" lon="6.63087">
        <ele>846.5692</ele>
        <time>2014-08-26T15:02:04Z</time>
      </trkpt>
      <trkpt lat="46.34555" lon="6.63086">
        <ele>846.5692</ele>
        <time>2014-08-26T15:02:14Z</time>
      </trkpt>
      <trkpt lat="46.34553" lon="6.63084">
        <ele>846.5692</ele>
        <time>2014-08-26T15:02:19Z</time>
      </trkpt>
      <trkpt lat="46.34553" lon="6.63084">
        <ele>846.5692</ele>
        <time>2014-08-26T15:02:24Z</time>
      </trkpt>
      <trkpt lat="46.3455" lon="6.63085">
        <ele>848.9774</ele>
        <time>2014-08-26T15:02:44Z</time>
      </trkpt>
      <trkpt lat="46.34547" lon="6.6309">
        <ele>851.3856</ele>
        <time>2014-08-26T15:02:49Z</time>
      </trkpt>
      <trkpt lat="46.34546" lon="6.63095">
        <ele>851.3856</ele>
        <time>2014-08-26T15:02:54Z</time>
      </trkpt>
      <trkpt lat="46.34546" lon="6.63095">
        <ele>851.3856</ele>
        <time>2014-08-26T15:02:59Z</time>
      </trkpt>
      <trkpt lat="46.34545" lon="6.63095">
        <ele>851.3856</ele>
        <time>2014-08-26T15:03:14Z</time>
      </trkpt>
      <trkpt lat="46.34538" lon="6.63093">
        <ele>855.69135</ele>
        <time>2014-08-26T15:03:19Z</time>
      </trkpt>
      <trkpt lat="46.34534" lon="6.63092">
        <ele>855.69135</ele>
        <time>2014-08-26T15:03:24Z</time>
      </trkpt>
      <trkpt lat="46.34534" lon="6.63092">
        <ele>855.69135</ele>
        <time>2014-08-26T15:03:29Z</time>
      </trkpt>
      <trkpt lat="46.34534" lon="6.63092">
        <ele>855.69135</ele>
        <time>2014-08-26T15:03:34Z</time>
      </trkpt>
      <trkpt lat="46.34534" lon="6.63092">
        <ele>855.69135</ele>
        <time>2014-08-26T15:03:49Z</time>
      </trkpt>
      <trkpt lat="46.34534" lon="6.63092">
        <ele>855.69135</ele>
        <time>2014-08-26T15:03:54Z</time>
      </trkpt>
      <trkpt lat="46.34534" lon="6.63093">
        <ele>855.69135</ele>
        <time>2014-08-26T15:05:34Z</time>
      </trkpt>
      <trkpt lat="46.34534" lon="6.63093">
        <ele>855.69135</ele>
        <time>2014-08-26T15:05:39Z</time>
      </trkpt>
      <trkpt lat="46.34534" lon="6.63093">
        <ele>855.69135</ele>
        <time>2014-08-26T15:06:19Z</time>
      </trkpt>
      <trkpt lat="46.34534" lon="6.63094">
        <ele>855.69135</ele>
        <time>2014-08-26T15:06:24Z</time>
      </trkpt>
      <trkpt lat="46.34534" lon="6.63097">
        <ele>855.69135</ele>
        <time>2014-08-26T15:06:29Z</time>
      </trkpt>
      <trkpt lat="46.34534" lon="6.63098">
        <ele>855.69135</ele>
        <time>2014-08-26T15:06:34Z</time>
      </trkpt>
      <trkpt lat="46.34533" lon="6.63098">
        <ele>859.4271</ele>
        <time>2014-08-26T15:06:39Z</time>
      </trkpt>
      <trkpt lat="46.34533" lon="6.63099">
        <ele>859.4271</ele>
        <time>2014-08-26T15:06:44Z</time>
      </trkpt>
      <trkpt lat="46.34534" lon="6.63102">
        <ele>859.4271</ele>
        <time>2014-08-26T15:06:49Z</time>
      </trkpt>
      <trkpt lat="46.34534" lon="6.63102">
        <ele>859.4271</ele>
        <time>2014-08-26T15:06:54Z</time>
      </trkpt>
      <trkpt lat="46.34534" lon="6.63104">
        <ele>859.4271</ele>
        <time>2014-08-26T15:06:59Z</time>
      </trkpt>
      <trkpt lat="46.34539" lon="6.63106">
        <ele>862.5688</ele>
        <time>2014-08-26T15:07:04Z</time>
      </trkpt>
      <trkpt lat="46.34543" lon="6.6311">
        <ele>862.5688</ele>
        <time>2014-08-26T15:07:09Z</time>
      </trkpt>
      <trkpt lat="46.34544" lon="6.6311">
        <ele>862.5688</ele>
        <time>2014-08-26T15:07:14Z</time>
      </trkpt>
      <trkpt lat="46.34547" lon="6.63114">
        <ele>865.6725</ele>
        <time>2014-08-26T15:07:19Z</time>
      </trkpt>
      <trkpt lat="46.34547" lon="6.63114">
        <ele>865.6725</ele>
        <time>2014-08-26T15:07:24Z</time>
      </trkpt>
      <trkpt lat="46.3455" lon="6.63115">
        <ele>865.6725</ele>
        <time>2014-08-26T15:07:29Z</time>
      </trkpt>
      <trkpt lat="46.34549" lon="6.63117">
        <ele>865.6725</ele>
        <time>2014-08-26T15:07:34Z</time>
      </trkpt>
      <trkpt lat="46.34554" lon="6.63119">
        <ele>868.61975</ele>
        <time>2014-08-26T15:07:39Z</time>
      </trkpt>
      <trkpt lat="46.34561" lon="6.6312">
        <ele>868.61975</ele>
        <time>2014-08-26T15:07:44Z</time>
      </trkpt>
      <trkpt lat="46.34564" lon="6.6312">
        <ele>871.40247</ele>
        <time>2014-08-26T15:07:49Z</time>
      </trkpt>
      <trkpt lat="46.34568" lon="6.63122">
        <ele>871.40247</ele>
        <time>2014-08-26T15:07:54Z</time>
      </trkpt>
      <trkpt lat="46.34575" lon="6.63121">
        <ele>874.0427</ele>
        <time>2014-08-26T15:07:59Z</time>
      </trkpt>
      <trkpt lat="46.34578" lon="6.6312">
        <ele>874.0427</ele>
        <time>2014-08-26T15:08:04Z</time>
      </trkpt>
      <trkpt lat="46.34586" lon="6.63118">
        <ele>876.4031</ele>
        <time>2014-08-26T15:08:09Z</time>
      </trkpt>
      <trkpt lat="46.34605" lon="6.63116">
        <ele>878.5159</ele>
        <time>2014-08-26T15:08:14Z</time>
      </trkpt>
      <trkpt lat="46.34621" lon="6.63118">
        <ele>880.3977</ele>
        <time>2014-08-26T15:08:19Z</time>
      </trkpt>
      <trkpt lat="46.34629" lon="6.63118">
        <ele>880.3977</ele>
        <time>2014-08-26T15:08:24Z</time>
      </trkpt>
      <trkpt lat="46.3463" lon="6.63117">
        <ele>881.97815</ele>
        <time>2014-08-26T15:08:29Z</time>
      </trkpt>
      <trkpt lat="46.34635" lon="6.63119">
        <ele>881.97815</ele>
        <time>2014-08-26T15:08:34Z</time>
      </trkpt>
      <trkpt lat="46.34646" lon="6.63125">
        <ele>883.1355</ele>
        <time>2014-08-26T15:08:39Z</time>
      </trkpt>
      <trkpt lat="46.34651" lon="6.63128">
        <ele>883.1355</ele>
        <time>2014-08-26T15:08:44Z</time>
      </trkpt>
      <trkpt lat="46.34653" lon="6.63132">
        <ele>884.08997</ele>
        <time>2014-08-26T15:08:49Z</time>
      </trkpt>
      <trkpt lat="46.34658" lon="6.63137">
        <ele>884.08997</ele>
        <time>2014-08-26T15:08:54Z</time>
      </trkpt>
      <trkpt lat="46.34665" lon="6.63147">
        <ele>884.9598</ele>
        <time>2014-08-26T15:08:59Z</time>
      </trkpt>
      <trkpt lat="46.34671" lon="6.63155">
        <ele>884.9598</ele>
        <time>2014-08-26T15:09:04Z</time>
      </trkpt>
      <trkpt lat="46.34677" lon="6.63163">
        <ele>885.5234</ele>
        <time>2014-08-26T15:09:09Z</time>
      </trkpt>
      <trkpt lat="46.34679" lon="6.63166">
        <ele>885.5234</ele>
        <time>2014-08-26T15:09:14Z</time>
      </trkpt>
      <trkpt lat="46.34681" lon="6.63168">
        <ele>885.5234</ele>
        <time>2014-08-26T15:09:19Z</time>
      </trkpt>
      <trkpt lat="46.34678" lon="6.63169">
        <ele>885.5234</ele>
        <time>2014-08-26T15:09:24Z</time>
      </trkpt>
      <trkpt lat="46.34682" lon="6.63176">
        <ele>885.85046</ele>
        <time>2014-08-26T15:09:29Z</time>
      </trkpt>
      <trkpt lat="46.34685" lon="6.63184">
        <ele>885.85046</ele>
        <time>2014-08-26T15:09:34Z</time>
      </trkpt>
      <trkpt lat="46.3469" lon="6.63188">
        <ele>885.94855</ele>
        <time>2014-08-26T15:09:39Z</time>
      </trkpt>
      <trkpt lat="46.347" lon="6.63192">
        <ele>885.75354</ele>
        <time>2014-08-26T15:09:44Z</time>
      </trkpt>
      <trkpt lat="46.34703" lon="6.632">
        <ele>885.75354</ele>
        <time>2014-08-26T15:09:49Z</time>
      </trkpt>
      <trkpt lat="46.34707" lon="6.63202">
        <ele>885.1779</ele>
        <time>2014-08-26T15:09:54Z</time>
      </trkpt>
      <trkpt lat="46.34715" lon="6.63208">
        <ele>885.1779</ele>
        <time>2014-08-26T15:09:59Z</time>
      </trkpt>
      <trkpt lat="46.34716" lon="6.63215">
        <ele>884.5021</ele>
        <time>2014-08-26T15:10:04Z</time>
      </trkpt>
      <trkpt lat="46.34714" lon="6.63219">
        <ele>884.5021</ele>
        <time>2014-08-26T15:10:09Z</time>
      </trkpt>
      <trkpt lat="46.34717" lon="6.63222">
        <ele>884.5021</ele>
        <time>2014-08-26T15:10:14Z</time>
      </trkpt>
      <trkpt lat="46.34724" lon="6.63227">
        <ele>883.97174</ele>
        <time>2014-08-26T15:10:19Z</time>
      </trkpt>
      <trkpt lat="46.3473" lon="6.63235">
        <ele>883.97174</ele>
        <time>2014-08-26T15:10:24Z</time>
      </trkpt>
      <trkpt lat="46.34736" lon="6.63244">
        <ele>883.3386</ele>
        <time>2014-08-26T15:10:29Z</time>
      </trkpt>
      <trkpt lat="46.34736" lon="6.63248">
        <ele>883.3386</ele>
        <time>2014-08-26T15:10:34Z</time>
      </trkpt>
      <trkpt lat="46.34741" lon="6.63256">
        <ele>882.5169</ele>
        <time>2014-08-26T15:10:39Z</time>
      </trkpt>
      <trkpt lat="46.34747" lon="6.63266">
        <ele>881.5286</ele>
        <time>2014-08-26T15:10:44Z</time>
      </trkpt>
      <trkpt lat="46.34753" lon="6.63272">
        <ele>881.5286</ele>
        <time>2014-08-26T15:10:49Z</time>
      </trkpt>
      <trkpt lat="46.34756" lon="6.63275">
        <ele>880.3225</ele>
        <time>2014-08-26T15:10:54Z</time>
      </trkpt>
      <trkpt lat="46.3476" lon="6.63278">
        <ele>880.3225</ele>
        <time>2014-08-26T15:10:59Z</time>
      </trkpt>
      <trkpt lat="46.34762" lon="6.63284">
        <ele>880.3225</ele>
        <time>2014-08-26T15:11:04Z</time>
      </trkpt>
      <trkpt lat="46.34764" lon="6.6329">
        <ele>878.75055</ele>
        <time>2014-08-26T15:11:09Z</time>
      </trkpt>
      <trkpt lat="46.34769" lon="6.63292">
        <ele>878.75055</ele>
        <time>2014-08-26T15:11:14Z</time>
      </trkpt>
      <trkpt lat="46.34772" lon="6.63297">
        <ele>877.09467</ele>
        <time>2014-08-26T15:11:19Z</time>
      </trkpt>
      <trkpt lat="46.3477" lon="6.63303">
        <ele>877.09467</ele>
        <time>2014-08-26T15:11:24Z</time>
      </trkpt>
      <trkpt lat="46.34773" lon="6.63312">
        <ele>875.6593</ele>
        <time>2014-08-26T15:11:29Z</time>
      </trkpt>
      <trkpt lat="46.34777" lon="6.63317">
        <ele>875.6593</ele>
        <time>2014-08-26T15:11:34Z</time>
      </trkpt>
      <trkpt lat="46.34784" lon="6.6332">
        <ele>874.49524</ele>
        <time>2014-08-26T15:11:39Z</time>
      </trkpt>
      <trkpt lat="46.34792" lon="6.63325">
        <ele>873.5476</ele>
        <time>2014-08-26T15:11:44Z</time>
      </trkpt>
      <trkpt lat="46.34799" lon="6.63328">
        <ele>873.5476</ele>
        <time>2014-08-26T15:11:49Z</time>
      </trkpt>
      <trkpt lat="46.34802" lon="6.63329">
        <ele>872.83704</ele>
        <time>2014-08-26T15:11:54Z</time>
      </trkpt>
      <trkpt lat="46.34803" lon="6.63329">
        <ele>872.83704</ele>
        <time>2014-08-26T15:11:59Z</time>
      </trkpt>
      <trkpt lat="46.34811" lon="6.63327">
        <ele>872.2519</ele>
        <time>2014-08-26T15:12:04Z</time>
      </trkpt>
      <trkpt lat="46.34813" lon="6.63327">
        <ele>872.2519</ele>
        <time>2014-08-26T15:12:09Z</time>
      </trkpt>
      <trkpt lat="46.34819" lon="6.63325">
        <ele>872.2519</ele>
        <time>2014-08-26T15:12:14Z</time>
      </trkpt>
      <trkpt lat="46.34824" lon="6.63324">
        <ele>871.57306</ele>
        <time>2014-08-26T15:12:19Z</time>
      </trkpt>
      <trkpt lat="46.34829" lon="6.63323">
        <ele>871.57306</ele>
        <time>2014-08-26T15:12:24Z</time>
      </trkpt>
      <trkpt lat="46.34836" lon="6.6332">
        <ele>870.6408</ele>
        <time>2014-08-26T15:12:29Z</time>
      </trkpt>
      <trkpt lat="46.34843" lon="6.6332">
        <ele>870.6408</ele>
        <time>2014-08-26T15:12:34Z</time>
      </trkpt>
      <trkpt lat="46.34846" lon="6.63319">
        <ele>869.4516</ele>
        <time>2014-08-26T15:12:39Z</time>
      </trkpt>
      <trkpt lat="46.34852" lon="6.63321">
        <ele>869.4516</ele>
        <time>2014-08-26T15:12:44Z</time>
      </trkpt>
      <trkpt lat="46.34856" lon="6.63321">
        <ele>868.06055</ele>
        <time>2014-08-26T15:12:49Z</time>
      </trkpt>
      <trkpt lat="46.34861" lon="6.63319">
        <ele>868.06055</ele>
        <time>2014-08-26T15:12:54Z</time>
      </trkpt>
      <trkpt lat="46.34864" lon="6.63318">
        <ele>868.06055</ele>
        <time>2014-08-26T15:12:59Z</time>
      </trkpt>
      <trkpt lat="46.34871" lon="6.63319">
        <ele>866.76385</ele>
        <time>2014-08-26T15:13:04Z</time>
      </trkpt>
      <trkpt lat="46.34883" lon="6.63321">
        <ele>865.533</ele>
        <time>2014-08-26T15:13:09Z</time>
      </trkpt>
      <trkpt lat="46.34887" lon="6.63321">
        <ele>865.533</ele>
        <time>2014-08-26T15:13:14Z</time>
      </trkpt>
      <trkpt lat="46.34898" lon="6.63319">
        <ele>864.32666</ele>
        <time>2014-08-26T15:13:19Z</time>
      </trkpt>
      <trkpt lat="46.34904" lon="6.63318">
        <ele>864.32666</ele>
        <time>2014-08-26T15:13:24Z</time>
      </trkpt>
      <trkpt lat="46.34912" lon="6.63317">
        <ele>863.0486</ele>
        <time>2014-08-26T15:13:29Z</time>
      </trkpt>
      <trkpt lat="46.34916" lon="6.63316">
        <ele>863.0486</ele>
        <time>2014-08-26T15:13:34Z</time>
      </trkpt>
      <trkpt lat="46.34922" lon="6.63315">
        <ele>861.6384</ele>
        <time>2014-08-26T15:13:39Z</time>
      </trkpt>
      <trkpt lat="46.34928" lon="6.63314">
        <ele>861.6384</ele>
        <time>2014-08-26T15:13:44Z</time>
      </trkpt>
      <trkpt lat="46.34933" lon="6.63314">
        <ele>860.2278</ele>
        <time>2014-08-26T15:13:49Z</time>
      </trkpt>
      <trkpt lat="46.34936" lon="6.63317">
        <ele>860.2278</ele>
        <time>2014-08-26T15:13:54Z</time>
      </trkpt>
      <trkpt lat="46.34943" lon="6.63319">
        <ele>858.8951</ele>
        <time>2014-08-26T15:13:59Z</time>
      </trkpt>
      <trkpt lat="46.34949" lon="6.63321">
        <ele>858.8951</ele>
        <time>2014-08-26T15:14:04Z</time>
      </trkpt>
      <trkpt lat="46.34955" lon="6.63324">
        <ele>857.62604</ele>
        <time>2014-08-26T15:14:09Z</time>
      </trkpt>
      <trkpt lat="46.3496" lon="6.63327">
        <ele>857.62604</ele>
        <time>2014-08-26T15:14:14Z</time>
      </trkpt>
      <trkpt lat="46.34969" lon="6.63331">
        <ele>856.5224</ele>
        <time>2014-08-26T15:14:19Z</time>
      </trkpt>
      <trkpt lat="46.34975" lon="6.63336">
        <ele>856.5224</ele>
        <time>2014-08-26T15:14:24Z</time>
      </trkpt>
      <trkpt lat="46.3498" lon="6.63339">
        <ele>855.53345</ele>
        <time>2014-08-26T15:14:29Z</time>
      </trkpt>
      <trkpt lat="46.34985" lon="6.63346">
        <ele>855.53345</ele>
        <time>2014-08-26T15:14:34Z</time>
      </trkpt>
      <trkpt lat="46.34988" lon="6.63348">
        <ele>854.68396</ele>
        <time>2014-08-26T15:14:39Z</time>
      </trkpt>
      <trkpt lat="46.34995" lon="6.63355">
        <ele>853.95276</ele>
        <time>2014-08-26T15:14:44Z</time>
      </trkpt>
      <trkpt lat="46.34998" lon="6.63358">
        <ele>853.95276</ele>
        <time>2014-08-26T15:14:49Z</time>
      </trkpt>
      <trkpt lat="46.35005" lon="6.63362">
        <ele>853.3054</ele>
        <time>2014-08-26T15:14:54Z</time>
      </trkpt>
      <trkpt lat="46.3501" lon="6.63365">
        <ele>853.3054</ele>
        <time>2014-08-26T15:14:59Z</time>
      </trkpt>
      <trkpt lat="46.35014" lon="6.63367">
        <ele>852.7673</ele>
        <time>2014-08-26T15:15:04Z</time>
      </trkpt>
      <trkpt lat="46.3502" lon="6.63374">
        <ele>852.7673</ele>
        <time>2014-08-26T15:15:09Z</time>
      </trkpt>
      <trkpt lat="46.35026" lon="6.63382">
        <ele>852.2171</ele>
        <time>2014-08-26T15:15:14Z</time>
      </trkpt>
      <trkpt lat="46.3503" lon="6.63386">
        <ele>852.2171</ele>
        <time>2014-08-26T15:15:19Z</time>
      </trkpt>
      <trkpt lat="46.35034" lon="6.63393">
        <ele>851.6289</ele>
        <time>2014-08-26T15:15:24Z</time>
      </trkpt>
      <trkpt lat="46.35039" lon="6.63403">
        <ele>851.6289</ele>
        <time>2014-08-26T15:15:29Z</time>
      </trkpt>
      <trkpt lat="46.35044" lon="6.63411">
        <ele>851.03613</ele>
        <time>2014-08-26T15:15:34Z</time>
      </trkpt>
      <trkpt lat="46.35047" lon="6.63416">
        <ele>851.03613</ele>
        <time>2014-08-26T15:15:39Z</time>
      </trkpt>
      <trkpt lat="46.3505" lon="6.63421">
        <ele>850.46967</ele>
        <time>2014-08-26T15:15:44Z</time>
      </trkpt>
      <trkpt lat="46.35054" lon="6.63425">
        <ele>850.46967</ele>
        <time>2014-08-26T15:15:49Z</time>
      </trkpt>
      <trkpt lat="46.35059" lon="6.63431">
        <ele>849.87134</ele>
        <time>2014-08-26T15:15:54Z</time>
      </trkpt>
      <trkpt lat="46.35063" lon="6.63438">
        <ele>849.87134</ele>
        <time>2014-08-26T15:15:59Z</time>
      </trkpt>
      <trkpt lat="46.35065" lon="6.63444">
        <ele>849.3603</ele>
        <time>2014-08-26T15:16:04Z</time>
      </trkpt>
      <trkpt lat="46.35071" lon="6.63456">
        <ele>848.90216</ele>
        <time>2014-08-26T15:16:09Z</time>
      </trkpt>
      <trkpt lat="46.35074" lon="6.63465">
        <ele>848.90216</ele>
        <time>2014-08-26T15:16:14Z</time>
      </trkpt>
      <trkpt lat="46.35076" lon="6.6347">
        <ele>848.43616</ele>
        <time>2014-08-26T15:16:19Z</time>
      </trkpt>
      <trkpt lat="46.35076" lon="6.63476">
        <ele>848.43616</ele>
        <time>2014-08-26T15:16:24Z</time>
      </trkpt>
      <trkpt lat="46.35079" lon="6.63483">
        <ele>848.10754</ele>
        <time>2014-08-26T15:16:29Z</time>
      </trkpt>
      <trkpt lat="46.35081" lon="6.63491">
        <ele>848.10754</ele>
        <time>2014-08-26T15:16:34Z</time>
      </trkpt>
      <trkpt lat="46.35084" lon="6.63497">
        <ele>847.8775</ele>
        <time>2014-08-26T15:16:39Z</time>
      </trkpt>
      <trkpt lat="46.35088" lon="6.63505">
        <ele>847.8775</ele>
        <time>2014-08-26T15:16:44Z</time>
      </trkpt>
      <trkpt lat="46.3509" lon="6.63512">
        <ele>847.75287</ele>
        <time>2014-08-26T15:16:49Z</time>
      </trkpt>
      <trkpt lat="46.35094" lon="6.63519">
        <ele>847.75287</ele>
        <time>2014-08-26T15:16:54Z</time>
      </trkpt>
      <trkpt lat="46.35097" lon="6.63525">
        <ele>847.82605</ele>
        <time>2014-08-26T15:16:59Z</time>
      </trkpt>
      <trkpt lat="46.351" lon="6.63533">
        <ele>847.82605</ele>
        <time>2014-08-26T15:17:04Z</time>
      </trkpt>
      <trkpt lat="46.35103" lon="6.63542">
        <ele>848.02356</ele>
        <time>2014-08-26T15:17:09Z</time>
      </trkpt>
      <trkpt lat="46.35107" lon="6.6355">
        <ele>848.02356</ele>
        <time>2014-08-26T15:17:14Z</time>
      </trkpt>
      <trkpt lat="46.35111" lon="6.63559">
        <ele>848.27673</ele>
        <time>2014-08-26T15:17:19Z</time>
      </trkpt>
      <trkpt lat="46.35114" lon="6.63565">
        <ele>848.27673</ele>
        <time>2014-08-26T15:17:24Z</time>
      </trkpt>
      <trkpt lat="46.35116" lon="6.63573">
        <ele>848.55066</ele>
        <time>2014-08-26T15:17:29Z</time>
      </trkpt>
      <trkpt lat="46.35121" lon="6.63579">
        <ele>848.55066</ele>
        <time>2014-08-26T15:17:34Z</time>
      </trkpt>
      <trkpt lat="46.35125" lon="6.63585">
        <ele>848.85614</ele>
        <time>2014-08-26T15:17:39Z</time>
      </trkpt>
      <trkpt lat="46.35128" lon="6.63593">
        <ele>848.85614</ele>
        <time>2014-08-26T15:17:44Z</time>
      </trkpt>
      <trkpt lat="46.35132" lon="6.63603">
        <ele>849.1452</ele>
        <time>2014-08-26T15:17:49Z</time>
      </trkpt>
      <trkpt lat="46.35134" lon="6.63611">
        <ele>849.1452</ele>
        <time>2014-08-26T15:17:54Z</time>
      </trkpt>
      <trkpt lat="46.35136" lon="6.6362">
        <ele>849.4889</ele>
        <time>2014-08-26T15:17:59Z</time>
      </trkpt>
      <trkpt lat="46.3514" lon="6.63628">
        <ele>849.4889</ele>
        <time>2014-08-26T15:18:04Z</time>
      </trkpt>
      <trkpt lat="46.35143" lon="6.63634">
        <ele>849.8519</ele>
        <time>2014-08-26T15:18:09Z</time>
      </trkpt>
      <trkpt lat="46.35147" lon="6.6364">
        <ele>849.8519</ele>
        <time>2014-08-26T15:18:14Z</time>
      </trkpt>
      <trkpt lat="46.3515" lon="6.63648">
        <ele>850.1871</ele>
        <time>2014-08-26T15:18:19Z</time>
      </trkpt>
      <trkpt lat="46.35153" lon="6.63655">
        <ele>850.1871</ele>
        <time>2014-08-26T15:18:24Z</time>
      </trkpt>
      <trkpt lat="46.35157" lon="6.63661">
        <ele>850.49396</ele>
        <time>2014-08-26T15:18:29Z</time>
      </trkpt>
      <trkpt lat="46.3516" lon="6.63668">
        <ele>850.49396</ele>
        <time>2014-08-26T15:18:34Z</time>
      </trkpt>
      <trkpt lat="46.35164" lon="6.63674">
        <ele>850.82983</ele>
        <time>2014-08-26T15:18:39Z</time>
      </trkpt>
      <trkpt lat="46.35169" lon="6.63684">
        <ele>850.82983</ele>
        <time>2014-08-26T15:18:44Z</time>
      </trkpt>
      <trkpt lat="46.35173" lon="6.63692">
        <ele>851.10364</ele>
        <time>2014-08-26T15:18:49Z</time>
      </trkpt>
      <trkpt lat="46.35177" lon="6.63698">
        <ele>851.10364</ele>
        <time>2014-08-26T15:18:54Z</time>
      </trkpt>
      <trkpt lat="46.3518" lon="6.63706">
        <ele>851.3033</ele>
        <time>2014-08-26T15:18:59Z</time>
      </trkpt>
      <trkpt lat="46.35182" lon="6.63711">
        <ele>851.3033</ele>
        <time>2014-08-26T15:19:04Z</time>
      </trkpt>
      <trkpt lat="46.35186" lon="6.63718">
        <ele>851.43207</ele>
        <time>2014-08-26T15:19:09Z</time>
      </trkpt>
      <trkpt lat="46.35189" lon="6.63724">
        <ele>851.43207</ele>
        <time>2014-08-26T15:19:14Z</time>
      </trkpt>
      <trkpt lat="46.35192" lon="6.63732">
        <ele>851.5079</ele>
        <time>2014-08-26T15:19:19Z</time>
      </trkpt>
      <trkpt lat="46.35194" lon="6.63743">
        <ele>851.5079</ele>
        <time>2014-08-26T15:19:24Z</time>
      </trkpt>
      <trkpt lat="46.35196" lon="6.63753">
        <ele>851.6049</ele>
        <time>2014-08-26T15:19:29Z</time>
      </trkpt>
      <trkpt lat="46.35199" lon="6.63762">
        <ele>851.6049</ele>
        <time>2014-08-26T15:19:34Z</time>
      </trkpt>
      <trkpt lat="46.35202" lon="6.6377">
        <ele>851.6767</ele>
        <time>2014-08-26T15:19:39Z</time>
      </trkpt>
      <trkpt lat="46.35206" lon="6.63779">
        <ele>851.6767</ele>
        <time>2014-08-26T15:19:44Z</time>
      </trkpt>
      <trkpt lat="46.3521" lon="6.63788">
        <ele>851.6947</ele>
        <time>2014-08-26T15:19:49Z</time>
      </trkpt>
      <trkpt lat="46.35213" lon="6.63796">
        <ele>851.6947</ele>
        <time>2014-08-26T15:19:54Z</time>
      </trkpt>
      <trkpt lat="46.35217" lon="6.63801">
        <ele>851.71906</ele>
        <time>2014-08-26T15:19:59Z</time>
      </trkpt>
      <trkpt lat="46.3522" lon="6.63808">
        <ele>851.71906</ele>
        <time>2014-08-26T15:20:04Z</time>
      </trkpt>
      <trkpt lat="46.35225" lon="6.63814">
        <ele>851.7623</ele>
        <time>2014-08-26T15:20:09Z</time>
      </trkpt>
      <trkpt lat="46.35228" lon="6.63821">
        <ele>851.7623</ele>
        <time>2014-08-26T15:20:14Z</time>
      </trkpt>
      <trkpt lat="46.35231" lon="6.6383">
        <ele>851.7497</ele>
        <time>2014-08-26T15:20:19Z</time>
      </trkpt>
      <trkpt lat="46.35234" lon="6.63836">
        <ele>851.7497</ele>
        <time>2014-08-26T15:20:24Z</time>
      </trkpt>
      <trkpt lat="46.35237" lon="6.63843">
        <ele>851.75616</ele>
        <time>2014-08-26T15:20:29Z</time>
      </trkpt>
      <trkpt lat="46.35241" lon="6.63851">
        <ele>851.75616</ele>
        <time>2014-08-26T15:20:34Z</time>
      </trkpt>
      <trkpt lat="46.35244" lon="6.63859">
        <ele>851.7502</ele>
        <time>2014-08-26T15:20:39Z</time>
      </trkpt>
      <trkpt lat="46.35247" lon="6.63867">
        <ele>851.7502</ele>
        <time>2014-08-26T15:20:44Z</time>
      </trkpt>
      <trkpt lat="46.3525" lon="6.63874">
        <ele>851.7459</ele>
        <time>2014-08-26T15:20:49Z</time>
      </trkpt>
      <trkpt lat="46.35252" lon="6.63882">
        <ele>851.7459</ele>
        <time>2014-08-26T15:20:54Z</time>
      </trkpt>
      <trkpt lat="46.35254" lon="6.6389">
        <ele>851.7999</ele>
        <time>2014-08-26T15:20:59Z</time>
      </trkpt>
      <trkpt lat="46.35257" lon="6.639">
        <ele>851.7999</ele>
        <time>2014-08-26T15:21:04Z</time>
      </trkpt>
      <trkpt lat="46.3526" lon="6.63908">
        <ele>851.94977</ele>
        <time>2014-08-26T15:21:09Z</time>
      </trkpt>
      <trkpt lat="46.35262" lon="6.6392">
        <ele>851.94977</ele>
        <time>2014-08-26T15:21:14Z</time>
      </trkpt>
      <trkpt lat="46.35263" lon="6.63929">
        <ele>852.187</ele>
        <time>2014-08-26T15:21:19Z</time>
      </trkpt>
      <trkpt lat="46.35265" lon="6.63939">
        <ele>852.187</ele>
        <time>2014-08-26T15:21:24Z</time>
      </trkpt>
      <trkpt lat="46.35264" lon="6.63948">
        <ele>852.5612</ele>
        <time>2014-08-26T15:21:29Z</time>
      </trkpt>
      <trkpt lat="46.35265" lon="6.63957">
        <ele>852.5612</ele>
        <time>2014-08-26T15:21:34Z</time>
      </trkpt>
      <trkpt lat="46.35267" lon="6.63967">
        <ele>852.93066</ele>
        <time>2014-08-26T15:21:39Z</time>
      </trkpt>
      <trkpt lat="46.35269" lon="6.63974">
        <ele>852.93066</ele>
        <time>2014-08-26T15:21:44Z</time>
      </trkpt>
      <trkpt lat="46.35269" lon="6.63981">
        <ele>853.3226</ele>
        <time>2014-08-26T15:21:49Z</time>
      </trkpt>
      <trkpt lat="46.35266" lon="6.63988">
        <ele>853.3226</ele>
        <time>2014-08-26T15:21:54Z</time>
      </trkpt>
      <trkpt lat="46.35263" lon="6.63994">
        <ele>853.8774</ele>
        <time>2014-08-26T15:21:59Z</time>
      </trkpt>
      <trkpt lat="46.3526" lon="6.64001">
        <ele>853.8774</ele>
        <time>2014-08-26T15:22:04Z</time>
      </trkpt>
      <trkpt lat="46.35259" lon="6.64013">
        <ele>854.4943</ele>
        <time>2014-08-26T15:22:09Z</time>
      </trkpt>
      <trkpt lat="46.3526" lon="6.64017">
        <ele>854.4943</ele>
        <time>2014-08-26T15:22:14Z</time>
      </trkpt>
      <trkpt lat="46.3526" lon="6.64023">
        <ele>854.4943</ele>
        <time>2014-08-26T15:22:19Z</time>
      </trkpt>
      <trkpt lat="46.3526" lon="6.64027">
        <ele>854.80615</ele>
        <time>2014-08-26T15:22:24Z</time>
      </trkpt>
      <trkpt lat="46.35261" lon="6.64033">
        <ele>854.80615</ele>
        <time>2014-08-26T15:22:29Z</time>
      </trkpt>
      <trkpt lat="46.35261" lon="6.64042">
        <ele>854.86255</ele>
        <time>2014-08-26T15:22:34Z</time>
      </trkpt>
      <trkpt lat="46.35265" lon="6.6405">
        <ele>854.86255</ele>
        <time>2014-08-26T15:22:39Z</time>
      </trkpt>
      <trkpt lat="46.35268" lon="6.64057">
        <ele>854.7102</ele>
        <time>2014-08-26T15:22:44Z</time>
      </trkpt>
      <trkpt lat="46.35272" lon="6.64062">
        <ele>854.7102</ele>
        <time>2014-08-26T15:22:49Z</time>
      </trkpt>
      <trkpt lat="46.35275" lon="6.64066">
        <ele>854.4076</ele>
        <time>2014-08-26T15:22:54Z</time>
      </trkpt>
      <trkpt lat="46.35277" lon="6.64071">
        <ele>854.4076</ele>
        <time>2014-08-26T15:22:59Z</time>
      </trkpt>
      <trkpt lat="46.35282" lon="6.64078">
        <ele>854.06696</ele>
        <time>2014-08-26T15:23:04Z</time>
      </trkpt>
      <trkpt lat="46.35286" lon="6.64085">
        <ele>854.06696</ele>
        <time>2014-08-26T15:23:09Z</time>
      </trkpt>
      <trkpt lat="46.35289" lon="6.64092">
        <ele>853.6339</ele>
        <time>2014-08-26T15:23:14Z</time>
      </trkpt>
      <trkpt lat="46.35292" lon="6.64098">
        <ele>853.6339</ele>
        <time>2014-08-26T15:23:19Z</time>
      </trkpt>
      <trkpt lat="46.35298" lon="6.6411">
        <ele>853.044</ele>
        <time>2014-08-26T15:23:24Z</time>
      </trkpt>
      <trkpt lat="46.35301" lon="6.6412">
        <ele>853.044</ele>
        <time>2014-08-26T15:23:29Z</time>
      </trkpt>
      <trkpt lat="46.35304" lon="6.64128">
        <ele>852.4253</ele>
        <time>2014-08-26T15:23:34Z</time>
      </trkpt>
      <trkpt lat="46.35306" lon="6.64136">
        <ele>852.4253</ele>
        <time>2014-08-26T15:23:39Z</time>
      </trkpt>
      <trkpt lat="46.35308" lon="6.64144">
        <ele>851.91095</ele>
        <time>2014-08-26T15:23:44Z</time>
      </trkpt>
      <trkpt lat="46.35309" lon="6.64154">
        <ele>851.91095</ele>
        <time>2014-08-26T15:23:49Z</time>
      </trkpt>
      <trkpt lat="46.35309" lon="6.64162">
        <ele>851.552</ele>
        <time>2014-08-26T15:23:54Z</time>
      </trkpt>
      <trkpt lat="46.35307" lon="6.64169">
        <ele>851.552</ele>
        <time>2014-08-26T15:23:59Z</time>
      </trkpt>
      <trkpt lat="46.35306" lon="6.64175">
        <ele>851.16486</ele>
        <time>2014-08-26T15:24:04Z</time>
      </trkpt>
      <trkpt lat="46.35305" lon="6.64182">
        <ele>851.16486</ele>
        <time>2014-08-26T15:24:09Z</time>
      </trkpt>
      <trkpt lat="46.35305" lon="6.64188">
        <ele>850.8244</ele>
        <time>2014-08-26T15:24:14Z</time>
      </trkpt>
      <trkpt lat="46.35304" lon="6.64196">
        <ele>850.8244</ele>
        <time>2014-08-26T15:24:19Z</time>
      </trkpt>
      <trkpt lat="46.35304" lon="6.64205">
        <ele>850.5567</ele>
        <time>2014-08-26T15:24:24Z</time>
      </trkpt>
      <trkpt lat="46.35305" lon="6.64211">
        <ele>850.5567</ele>
        <time>2014-08-26T15:24:29Z</time>
      </trkpt>
      <trkpt lat="46.35305" lon="6.64218">
        <ele>850.3136</ele>
        <time>2014-08-26T15:24:34Z</time>
      </trkpt>
      <trkpt lat="46.35306" lon="6.64225">
        <ele>850.3136</ele>
        <time>2014-08-26T15:24:39Z</time>
      </trkpt>
      <trkpt lat="46.35306" lon="6.64231">
        <ele>850.3136</ele>
        <time>2014-08-26T15:24:44Z</time>
      </trkpt>
      <trkpt lat="46.35307" lon="6.64239">
        <ele>850.1225</ele>
        <time>2014-08-26T15:24:49Z</time>
      </trkpt>
      <trkpt lat="46.35308" lon="6.64248">
        <ele>850.1225</ele>
        <time>2014-08-26T15:24:54Z</time>
      </trkpt>
      <trkpt lat="46.35309" lon="6.64256">
        <ele>849.9943</ele>
        <time>2014-08-26T15:24:59Z</time>
      </trkpt>
      <trkpt lat="46.35311" lon="6.64264">
        <ele>849.9943</ele>
        <time>2014-08-26T15:25:04Z</time>
      </trkpt>
      <trkpt lat="46.35312" lon="6.64272">
        <ele>849.93896</ele>
        <time>2014-08-26T15:25:09Z</time>
      </trkpt>
      <trkpt lat="46.35313" lon="6.64282">
        <ele>849.93896</ele>
        <time>2014-08-26T15:25:14Z</time>
      </trkpt>
      <trkpt lat="46.35315" lon="6.64289">
        <ele>850.05176</ele>
        <time>2014-08-26T15:25:19Z</time>
      </trkpt>
      <trkpt lat="46.35317" lon="6.64297">
        <ele>850.05176</ele>
        <time>2014-08-26T15:25:24Z</time>
      </trkpt>
      <trkpt lat="46.35317" lon="6.64302">
        <ele>850.37744</ele>
        <time>2014-08-26T15:25:29Z</time>
      </trkpt>
      <trkpt lat="46.35317" lon="6.64307">
        <ele>850.37744</ele>
        <time>2014-08-26T15:25:34Z</time>
      </trkpt>
      <trkpt lat="46.35319" lon="6.64315">
        <ele>850.78394</ele>
        <time>2014-08-26T15:25:39Z</time>
      </trkpt>
      <trkpt lat="46.35319" lon="6.64319">
        <ele>850.78394</ele>
        <time>2014-08-26T15:25:44Z</time>
      </trkpt>
      <trkpt lat="46.3532" lon="6.64326">
        <ele>850.78394</ele>
        <time>2014-08-26T15:25:49Z</time>
      </trkpt>
      <trkpt lat="46.35322" lon="6.64336">
        <ele>851.3648</ele>
        <time>2014-08-26T15:25:54Z</time>
      </trkpt>
      <trkpt lat="46.35325" lon="6.64345">
        <ele>851.3648</ele>
        <time>2014-08-26T15:25:59Z</time>
      </trkpt>
      <trkpt lat="46.35324" lon="6.64354">
        <ele>852.0333</ele>
        <time>2014-08-26T15:26:04Z</time>
      </trkpt>
      <trkpt lat="46.35325" lon="6.64361">
        <ele>852.0333</ele>
        <time>2014-08-26T15:26:09Z</time>
      </trkpt>
      <trkpt lat="46.35326" lon="6.64369">
        <ele>852.7953</ele>
        <time>2014-08-26T15:26:14Z</time>
      </trkpt>
      <trkpt lat="46.35328" lon="6.64375">
        <ele>852.7953</ele>
        <time>2014-08-26T15:26:19Z</time>
      </trkpt>
      <trkpt lat="46.3533" lon="6.64384">
        <ele>853.6128</ele>
        <time>2014-08-26T15:26:24Z</time>
      </trkpt>
      <trkpt lat="46.35332" lon="6.64392">
        <ele>853.6128</ele>
        <time>2014-08-26T15:26:29Z</time>
      </trkpt>
      <trkpt lat="46.35334" lon="6.64402">
        <ele>854.55133</ele>
        <time>2014-08-26T15:26:34Z</time>
      </trkpt>
      <trkpt lat="46.35335" lon="6.6441">
        <ele>854.55133</ele>
        <time>2014-08-26T15:26:39Z</time>
      </trkpt>
      <trkpt lat="46.35336" lon="6.64418">
        <ele>855.52716</ele>
        <time>2014-08-26T15:26:44Z</time>
      </trkpt>
      <trkpt lat="46.35336" lon="6.64427">
        <ele>855.52716</ele>
        <time>2014-08-26T15:26:49Z</time>
      </trkpt>
      <trkpt lat="46.35337" lon="6.64434">
        <ele>856.43384</ele>
        <time>2014-08-26T15:26:54Z</time>
      </trkpt>
      <trkpt lat="46.35339" lon="6.64441">
        <ele>856.43384</ele>
        <time>2014-08-26T15:26:59Z</time>
      </trkpt>
      <trkpt lat="46.3534" lon="6.64447">
        <ele>857.3458</ele>
        <time>2014-08-26T15:27:04Z</time>
      </trkpt>
      <trkpt lat="46.35341" lon="6.64459">
        <ele>857.3458</ele>
        <time>2014-08-26T15:27:09Z</time>
      </trkpt>
      <trkpt lat="46.35343" lon="6.64468">
        <ele>858.2747</ele>
        <time>2014-08-26T15:27:14Z</time>
      </trkpt>
      <trkpt lat="46.35344" lon="6.64475">
        <ele>858.2747</ele>
        <time>2014-08-26T15:27:19Z</time>
      </trkpt>
      <trkpt lat="46.35346" lon="6.64483">
        <ele>859.1878</ele>
        <time>2014-08-26T15:27:24Z</time>
      </trkpt>
      <trkpt lat="46.35347" lon="6.64488">
        <ele>859.1878</ele>
        <time>2014-08-26T15:27:29Z</time>
      </trkpt>
      <trkpt lat="46.35348" lon="6.64497">
        <ele>860.055</ele>
        <time>2014-08-26T15:27:34Z</time>
      </trkpt>
      <trkpt lat="46.3535" lon="6.64505">
        <ele>860.055</ele>
        <time>2014-08-26T15:27:39Z</time>
      </trkpt>
      <trkpt lat="46.35352" lon="6.64516">
        <ele>860.935</ele>
        <time>2014-08-26T15:27:44Z</time>
      </trkpt>
      <trkpt lat="46.35353" lon="6.64522">
        <ele>860.935</ele>
        <time>2014-08-26T15:27:49Z</time>
      </trkpt>
      <trkpt lat="46.35354" lon="6.6453">
        <ele>861.7382</ele>
        <time>2014-08-26T15:27:54Z</time>
      </trkpt>
      <trkpt lat="46.35356" lon="6.64539">
        <ele>861.7382</ele>
        <time>2014-08-26T15:27:59Z</time>
      </trkpt>
      <trkpt lat="46.35357" lon="6.64545">
        <ele>862.43945</ele>
        <time>2014-08-26T15:28:04Z</time>
      </trkpt>
      <trkpt lat="46.35358" lon="6.64552">
        <ele>862.43945</ele>
        <time>2014-08-26T15:28:09Z</time>
      </trkpt>
      <trkpt lat="46.3536" lon="6.64559">
        <ele>863.1455</ele>
        <time>2014-08-26T15:28:14Z</time>
      </trkpt>
      <trkpt lat="46.3536" lon="6.64567">
        <ele>863.1455</ele>
        <time>2014-08-26T15:28:19Z</time>
      </trkpt>
      <trkpt lat="46.35362" lon="6.64576">
        <ele>863.7535</ele>
        <time>2014-08-26T15:28:24Z</time>
      </trkpt>
      <trkpt lat="46.35364" lon="6.64584">
        <ele>863.7535</ele>
        <time>2014-08-26T15:28:29Z</time>
      </trkpt>
      <trkpt lat="46.35365" lon="6.64592">
        <ele>864.3415</ele>
        <time>2014-08-26T15:28:34Z</time>
      </trkpt>
      <trkpt lat="46.35366" lon="6.646">
        <ele>864.3415</ele>
        <time>2014-08-26T15:28:39Z</time>
      </trkpt>
      <trkpt lat="46.35367" lon="6.64606">
        <ele>864.9243</ele>
        <time>2014-08-26T15:28:44Z</time>
      </trkpt>
      <trkpt lat="46.35368" lon="6.64616">
        <ele>864.9243</ele>
        <time>2014-08-26T15:28:49Z</time>
      </trkpt>
      <trkpt lat="46.3537" lon="6.64624">
        <ele>865.45807</ele>
        <time>2014-08-26T15:28:54Z</time>
      </trkpt>
      <trkpt lat="46.35372" lon="6.64634">
        <ele>865.45807</ele>
        <time>2014-08-26T15:28:59Z</time>
      </trkpt>
      <trkpt lat="46.35373" lon="6.6464">
        <ele>865.95984</ele>
        <time>2014-08-26T15:29:04Z</time>
      </trkpt>
      <trkpt lat="46.35374" lon="6.64651">
        <ele>865.95984</ele>
        <time>2014-08-26T15:29:09Z</time>
      </trkpt>
      <trkpt lat="46.35376" lon="6.64659">
        <ele>866.4314</ele>
        <time>2014-08-26T15:29:14Z</time>
      </trkpt>
      <trkpt lat="46.35377" lon="6.64666">
        <ele>866.4314</ele>
        <time>2014-08-26T15:29:19Z</time>
      </trkpt>
      <trkpt lat="46.35378" lon="6.64671">
        <ele>866.9176</ele>
        <time>2014-08-26T15:29:24Z</time>
      </trkpt>
      <trkpt lat="46.3538" lon="6.64678">
        <ele>866.9176</ele>
        <time>2014-08-26T15:29:29Z</time>
      </trkpt>
      <trkpt lat="46.35382" lon="6.64685">
        <ele>867.38806</ele>
        <time>2014-08-26T15:29:34Z</time>
      </trkpt>
      <trkpt lat="46.35383" lon="6.64691">
        <ele>867.38806</ele>
        <time>2014-08-26T15:29:39Z</time>
      </trkpt>
      <trkpt lat="46.35385" lon="6.64699">
        <ele>867.829</ele>
        <time>2014-08-26T15:29:44Z</time>
      </trkpt>
      <trkpt lat="46.35387" lon="6.64708">
        <ele>867.829</ele>
        <time>2014-08-26T15:29:49Z</time>
      </trkpt>
      <trkpt lat="46.35387" lon="6.64717">
        <ele>868.1415</ele>
        <time>2014-08-26T15:29:54Z</time>
      </trkpt>
      <trkpt lat="46.35388" lon="6.64726">
        <ele>868.1415</ele>
        <time>2014-08-26T15:29:59Z</time>
      </trkpt>
      <trkpt lat="46.3539" lon="6.64733">
        <ele>868.37823</ele>
        <time>2014-08-26T15:30:04Z</time>
      </trkpt>
      <trkpt lat="46.35391" lon="6.64741">
        <ele>868.37823</ele>
        <time>2014-08-26T15:30:09Z</time>
      </trkpt>
      <trkpt lat="46.35393" lon="6.6475">
        <ele>868.574</ele>
        <time>2014-08-26T15:30:14Z</time>
      </trkpt>
      <trkpt lat="46.35394" lon="6.6476">
        <ele>868.574</ele>
        <time>2014-08-26T15:30:19Z</time>
      </trkpt>
      <trkpt lat="46.35395" lon="6.64768">
        <ele>868.8043</ele>
        <time>2014-08-26T15:30:24Z</time>
      </trkpt>
      <trkpt lat="46.35396" lon="6.64776">
        <ele>868.8043</ele>
        <time>2014-08-26T15:30:29Z</time>
      </trkpt>
      <trkpt lat="46.35398" lon="6.64785">
        <ele>868.9807</ele>
        <time>2014-08-26T15:30:34Z</time>
      </trkpt>
      <trkpt lat="46.35399" lon="6.64796">
        <ele>868.9807</ele>
        <time>2014-08-26T15:30:39Z</time>
      </trkpt>
      <trkpt lat="46.354" lon="6.64803">
        <ele>869.1365</ele>
        <time>2014-08-26T15:30:44Z</time>
      </trkpt>
      <trkpt lat="46.35401" lon="6.64811">
        <ele>869.1365</ele>
        <time>2014-08-26T15:30:49Z</time>
      </trkpt>
      <trkpt lat="46.35402" lon="6.64821">
        <ele>869.30273</ele>
        <time>2014-08-26T15:30:54Z</time>
      </trkpt>
      <trkpt lat="46.35403" lon="6.64829">
        <ele>869.30273</ele>
        <time>2014-08-26T15:30:59Z</time>
      </trkpt>
      <trkpt lat="46.35405" lon="6.64838">
        <ele>869.3929</ele>
        <time>2014-08-26T15:31:04Z</time>
      </trkpt>
      <trkpt lat="46.35406" lon="6.64846">
        <ele>869.3929</ele>
        <time>2014-08-26T15:31:09Z</time>
      </trkpt>
      <trkpt lat="46.35407" lon="6.64856">
        <ele>869.4711</ele>
        <time>2014-08-26T15:31:14Z</time>
      </trkpt>
      <trkpt lat="46.35408" lon="6.64868">
        <ele>869.4711</ele>
        <time>2014-08-26T15:31:19Z</time>
      </trkpt>
      <trkpt lat="46.3541" lon="6.64876">
        <ele>869.5969</ele>
        <time>2014-08-26T15:31:24Z</time>
      </trkpt>
      <trkpt lat="46.35411" lon="6.64884">
        <ele>869.5969</ele>
        <time>2014-08-26T15:31:29Z</time>
      </trkpt>
      <trkpt lat="46.35412" lon="6.64894">
        <ele>869.8253</ele>
        <time>2014-08-26T15:31:34Z</time>
      </trkpt>
      <trkpt lat="46.35413" lon="6.64902">
        <ele>869.8253</ele>
        <time>2014-08-26T15:31:39Z</time>
      </trkpt>
      <trkpt lat="46.35414" lon="6.64909">
        <ele>870.1349</ele>
        <time>2014-08-26T15:31:44Z</time>
      </trkpt>
      <trkpt lat="46.35417" lon="6.64916">
        <ele>870.1349</ele>
        <time>2014-08-26T15:31:49Z</time>
      </trkpt>
      <trkpt lat="46.35418" lon="6.64923">
        <ele>870.44794</ele>
        <time>2014-08-26T15:31:54Z</time>
      </trkpt>
      <trkpt lat="46.35418" lon="6.6493">
        <ele>870.44794</ele>
        <time>2014-08-26T15:31:59Z</time>
      </trkpt>
      <trkpt lat="46.3542" lon="6.6494">
        <ele>870.77905</ele>
        <time>2014-08-26T15:32:04Z</time>
      </trkpt>
      <trkpt lat="46.3542" lon="6.64948">
        <ele>870.77905</ele>
        <time>2014-08-26T15:32:09Z</time>
      </trkpt>
      <trkpt lat="46.35421" lon="6.64954">
        <ele>871.09827</ele>
        <time>2014-08-26T15:32:14Z</time>
      </trkpt>
      <trkpt lat="46.35423" lon="6.6496">
        <ele>871.09827</ele>
        <time>2014-08-26T15:32:19Z</time>
      </trkpt>
      <trkpt lat="46.35426" lon="6.64968">
        <ele>871.378</ele>
        <time>2014-08-26T15:32:24Z</time>
      </trkpt>
      <trkpt lat="46.35428" lon="6.64977">
        <ele>871.378</ele>
        <time>2014-08-26T15:32:29Z</time>
      </trkpt>
      <trkpt lat="46.35429" lon="6.64984">
        <ele>871.56396</ele>
        <time>2014-08-26T15:32:34Z</time>
      </trkpt>
      <trkpt lat="46.3543" lon="6.64994">
        <ele>871.56396</ele>
        <time>2014-08-26T15:32:39Z</time>
      </trkpt>
      <trkpt lat="46.35431" lon="6.65004">
        <ele>871.6781</ele>
        <time>2014-08-26T15:32:44Z</time>
      </trkpt>
      <trkpt lat="46.35433" lon="6.65013">
        <ele>871.6781</ele>
        <time>2014-08-26T15:32:49Z</time>
      </trkpt>
      <trkpt lat="46.35435" lon="6.65021">
        <ele>871.7122</ele>
        <time>2014-08-26T15:32:54Z</time>
      </trkpt>
      <trkpt lat="46.35436" lon="6.65028">
        <ele>871.7122</ele>
        <time>2014-08-26T15:32:59Z</time>
      </trkpt>
      <trkpt lat="46.35437" lon="6.65034">
        <ele>871.7122</ele>
        <time>2014-08-26T15:33:04Z</time>
      </trkpt>
      <trkpt lat="46.35437" lon="6.65038">
        <ele>871.8462</ele>
        <time>2014-08-26T15:33:09Z</time>
      </trkpt>
      <trkpt lat="46.3544" lon="6.65046">
        <ele>871.8462</ele>
        <time>2014-08-26T15:33:14Z</time>
      </trkpt>
      <trkpt lat="46.35441" lon="6.65053">
        <ele>872.0303</ele>
        <time>2014-08-26T15:33:19Z</time>
      </trkpt>
      <trkpt lat="46.35441" lon="6.6506">
        <ele>872.0303</ele>
        <time>2014-08-26T15:33:24Z</time>
      </trkpt>
      <trkpt lat="46.35443" lon="6.65068">
        <ele>872.23267</ele>
        <time>2014-08-26T15:33:29Z</time>
      </trkpt>
      <trkpt lat="46.35445" lon="6.65074">
        <ele>872.23267</ele>
        <time>2014-08-26T15:33:34Z</time>
      </trkpt>
      <trkpt lat="46.35447" lon="6.65081">
        <ele>872.4526</ele>
        <time>2014-08-26T15:33:39Z</time>
      </trkpt>
      <trkpt lat="46.35449" lon="6.65089">
        <ele>872.4526</ele>
        <time>2014-08-26T15:33:44Z</time>
      </trkpt>
      <trkpt lat="46.35451" lon="6.65095">
        <ele>872.6749</ele>
        <time>2014-08-26T15:33:49Z</time>
      </trkpt>
      <trkpt lat="46.3545" lon="6.65104">
        <ele>872.6749</ele>
        <time>2014-08-26T15:33:54Z</time>
      </trkpt>
      <trkpt lat="46.35451" lon="6.65111">
        <ele>872.89996</ele>
        <time>2014-08-26T15:33:59Z</time>
      </trkpt>
      <trkpt lat="46.35454" lon="6.6512">
        <ele>872.89996</ele>
        <time>2014-08-26T15:34:04Z</time>
      </trkpt>
      <trkpt lat="46.35455" lon="6.65129">
        <ele>873.17126</ele>
        <time>2014-08-26T15:34:09Z</time>
      </trkpt>
      <trkpt lat="46.35457" lon="6.65138">
        <ele>873.17126</ele>
        <time>2014-08-26T15:34:14Z</time>
      </trkpt>
      <trkpt lat="46.35458" lon="6.65146">
        <ele>873.3849</ele>
        <time>2014-08-26T15:34:19Z</time>
      </trkpt>
      <trkpt lat="46.35459" lon="6.65155">
        <ele>873.3849</ele>
        <time>2014-08-26T15:34:24Z</time>
      </trkpt>
      <trkpt lat="46.3546" lon="6.6516">
        <ele>873.56006</ele>
        <time>2014-08-26T15:34:29Z</time>
      </trkpt>
      <trkpt lat="46.35461" lon="6.65166">
        <ele>873.56006</ele>
        <time>2014-08-26T15:34:34Z</time>
      </trkpt>
      <trkpt lat="46.35463" lon="6.65177">
        <ele>873.74335</ele>
        <time>2014-08-26T15:34:39Z</time>
      </trkpt>
      <trkpt lat="46.35464" lon="6.65183">
        <ele>873.74335</ele>
        <time>2014-08-26T15:34:44Z</time>
      </trkpt>
      <trkpt lat="46.35465" lon="6.65188">
        <ele>873.74335</ele>
        <time>2014-08-26T15:34:49Z</time>
      </trkpt>
      <trkpt lat="46.35466" lon="6.65194">
        <ele>874.0356</ele>
        <time>2014-08-26T15:34:54Z</time>
      </trkpt>
      <trkpt lat="46.35468" lon="6.65203">
        <ele>874.0356</ele>
        <time>2014-08-26T15:34:59Z</time>
      </trkpt>
      <trkpt lat="46.35469" lon="6.6521">
        <ele>874.38586</ele>
        <time>2014-08-26T15:35:04Z</time>
      </trkpt>
      <trkpt lat="46.35471" lon="6.65219">
        <ele>874.38586</ele>
        <time>2014-08-26T15:35:09Z</time>
      </trkpt>
      <trkpt lat="46.35471" lon="6.65228">
        <ele>874.8187</ele>
        <time>2014-08-26T15:35:14Z</time>
      </trkpt>
      <trkpt lat="46.35472" lon="6.65235">
        <ele>874.8187</ele>
        <time>2014-08-26T15:35:19Z</time>
      </trkpt>
      <trkpt lat="46.35473" lon="6.65244">
        <ele>875.4144</ele>
        <time>2014-08-26T15:35:24Z</time>
      </trkpt>
      <trkpt lat="46.35475" lon="6.65254">
        <ele>875.4144</ele>
        <time>2014-08-26T15:35:29Z</time>
      </trkpt>
      <trkpt lat="46.35476" lon="6.65259">
        <ele>876.045</ele>
        <time>2014-08-26T15:35:34Z</time>
      </trkpt>
      <trkpt lat="46.35478" lon="6.65268">
        <ele>876.045</ele>
        <time>2014-08-26T15:35:39Z</time>
      </trkpt>
      <trkpt lat="46.35479" lon="6.65277">
        <ele>876.66394</ele>
        <time>2014-08-26T15:35:44Z</time>
      </trkpt>
      <trkpt lat="46.35481" lon="6.65286">
        <ele>876.66394</ele>
        <time>2014-08-26T15:35:49Z</time>
      </trkpt>
      <trkpt lat="46.35482" lon="6.65293">
        <ele>877.25696</ele>
        <time>2014-08-26T15:35:54Z</time>
      </trkpt>
      <trkpt lat="46.35483" lon="6.653">
        <ele>877.25696</ele>
        <time>2014-08-26T15:35:59Z</time>
      </trkpt>
      <trkpt lat="46.35485" lon="6.65307">
        <ele>877.8396</ele>
        <time>2014-08-26T15:36:04Z</time>
      </trkpt>
      <trkpt lat="46.35486" lon="6.65317">
        <ele>877.8396</ele>
        <time>2014-08-26T15:36:09Z</time>
      </trkpt>
      <trkpt lat="46.35489" lon="6.65327">
        <ele>878.3833</ele>
        <time>2014-08-26T15:36:14Z</time>
      </trkpt>
      <trkpt lat="46.35489" lon="6.65337">
        <ele>878.3833</ele>
        <time>2014-08-26T15:36:19Z</time>
      </trkpt>
      <trkpt lat="46.3549" lon="6.65343">
        <ele>878.9624</ele>
        <time>2014-08-26T15:36:24Z</time>
      </trkpt>
      <trkpt lat="46.3549" lon="6.65348">
        <ele>878.9624</ele>
        <time>2014-08-26T15:36:29Z</time>
      </trkpt>
      <trkpt lat="46.3549" lon="6.65355">
        <ele>878.9624</ele>
        <time>2014-08-26T15:36:34Z</time>
      </trkpt>
      <trkpt lat="46.35493" lon="6.65365">
        <ele>879.5448</ele>
        <time>2014-08-26T15:36:39Z</time>
      </trkpt>
      <trkpt lat="46.35496" lon="6.65375">
        <ele>879.5448</ele>
        <time>2014-08-26T15:36:44Z</time>
      </trkpt>
      <trkpt lat="46.35496" lon="6.65377">
        <ele>880.07196</ele>
        <time>2014-08-26T15:36:49Z</time>
      </trkpt>
      <trkpt lat="46.35496" lon="6.65377">
        <ele>880.07196</ele>
        <time>2014-08-26T15:36:54Z</time>
      </trkpt>
      <trkpt lat="46.35497" lon="6.65377">
        <ele>880.07196</ele>
        <time>2014-08-26T15:36:59Z</time>
      </trkpt>
      <trkpt lat="46.35497" lon="6.65377">
        <ele>880.07196</ele>
        <time>2014-08-26T15:37:04Z</time>
      </trkpt>
      <trkpt lat="46.35497" lon="6.65375">
        <ele>880.07196</ele>
        <time>2014-08-26T15:37:09Z</time>
      </trkpt>
      <trkpt lat="46.35497" lon="6.65373">
        <ele>880.07196</ele>
        <time>2014-08-26T15:37:14Z</time>
      </trkpt>
      <trkpt lat="46.35497" lon="6.65374">
        <ele>880.07196</ele>
        <time>2014-08-26T15:37:19Z</time>
      </trkpt>
      <trkpt lat="46.35497" lon="6.65375">
        <ele>880.07196</ele>
        <time>2014-08-26T15:37:24Z</time>
      </trkpt>
      <trkpt lat="46.35497" lon="6.65375">
        <ele>880.07196</ele>
        <time>2014-08-26T15:37:29Z</time>
      </trkpt>
      <trkpt lat="46.35497" lon="6.65375">
        <ele>880.07196</ele>
        <time>2014-08-26T15:37:34Z</time>
      </trkpt>
      <trkpt lat="46.35497" lon="6.65375">
        <ele>880.07196</ele>
        <time>2014-08-26T15:37:39Z</time>
      </trkpt>
      <trkpt lat="46.35497" lon="6.65375">
        <ele>880.07196</ele>
        <time>2014-08-26T15:37:44Z</time>
      </trkpt>
      <trkpt lat="46.35498" lon="6.65374">
        <ele>880.07196</ele>
        <time>2014-08-26T15:37:49Z</time>
      </trkpt>
      <trkpt lat="46.35498" lon="6.65374">
        <ele>880.07196</ele>
        <time>2014-08-26T15:37:54Z</time>
      </trkpt>
      <trkpt lat="46.35499" lon="6.65374">
        <ele>880.07196</ele>
        <time>2014-08-26T15:37:59Z</time>
      </trkpt>
      <trkpt lat="46.35498" lon="6.65373">
        <ele>880.07196</ele>
        <time>2014-08-26T15:38:04Z</time>
      </trkpt>
      <trkpt lat="46.35498" lon="6.65372">
        <ele>880.07196</ele>
        <time>2014-08-26T15:38:09Z</time>
      </trkpt>
      <trkpt lat="46.35498" lon="6.65371">
        <ele>880.07196</ele>
        <time>2014-08-26T15:38:14Z</time>
      </trkpt>
      <trkpt lat="46.35497" lon="6.65369">
        <ele>880.57635</ele>
        <time>2014-08-26T15:38:19Z</time>
      </trkpt>
      <trkpt lat="46.35497" lon="6.65368">
        <ele>880.57635</ele>
        <time>2014-08-26T15:38:24Z</time>
      </trkpt>
      <trkpt lat="46.35497" lon="6.65367">
        <ele>880.57635</ele>
        <time>2014-08-26T15:38:29Z</time>
      </trkpt>
      <trkpt lat="46.35498" lon="6.65367">
        <ele>880.57635</ele>
        <time>2014-08-26T15:38:34Z</time>
      </trkpt>
      <trkpt lat="46.35498" lon="6.65367">
        <ele>880.57635</ele>
        <time>2014-08-26T15:38:39Z</time>
      </trkpt>
      <trkpt lat="46.35498" lon="6.65366">
        <ele>880.57635</ele>
        <time>2014-08-26T15:38:44Z</time>
      </trkpt>
      <trkpt lat="46.35497" lon="6.65367">
        <ele>880.57635</ele>
        <time>2014-08-26T15:38:49Z</time>
      </trkpt>
      <trkpt lat="46.35496" lon="6.65366">
        <ele>880.57635</ele>
        <time>2014-08-26T15:38:54Z</time>
      </trkpt>
      <trkpt lat="46.35496" lon="6.65365">
        <ele>880.57635</ele>
        <time>2014-08-26T15:38:59Z</time>
      </trkpt>
      <trkpt lat="46.35496" lon="6.65365">
        <ele>880.57635</ele>
        <time>2014-08-26T15:39:04Z</time>
      </trkpt>
      <trkpt lat="46.35496" lon="6.65365">
        <ele>880.57635</ele>
        <time>2014-08-26T15:39:09Z</time>
      </trkpt>
      <trkpt lat="46.35497" lon="6.65365">
        <ele>880.57635</ele>
        <time>2014-08-26T15:39:14Z</time>
      </trkpt>
      <trkpt lat="46.35497" lon="6.65365">
        <ele>880.57635</ele>
        <time>2014-08-26T15:39:19Z</time>
      </trkpt>
      <trkpt lat="46.35497" lon="6.65366">
        <ele>881.2754</ele>
        <time>2014-08-26T15:39:24Z</time>
      </trkpt>
      <trkpt lat="46.35497" lon="6.65367">
        <ele>881.2754</ele>
        <time>2014-08-26T15:39:29Z</time>
      </trkpt>
      <trkpt lat="46.35497" lon="6.65366">
        <ele>881.2754</ele>
        <time>2014-08-26T15:39:34Z</time>
      </trkpt>
      <trkpt lat="46.35496" lon="6.65366">
        <ele>881.2754</ele>
        <time>2014-08-26T15:39:39Z</time>
      </trkpt>
      <trkpt lat="46.35497" lon="6.65367">
        <ele>881.2754</ele>
        <time>2014-08-26T15:39:44Z</time>
      </trkpt>
      <trkpt lat="46.35495" lon="6.65367">
        <ele>881.2754</ele>
        <time>2014-08-26T15:39:49Z</time>
      </trkpt>
      <trkpt lat="46.35494" lon="6.65368">
        <ele>881.2754</ele>
        <time>2014-08-26T15:39:54Z</time>
      </trkpt>
      <trkpt lat="46.35494" lon="6.65369">
        <ele>881.2754</ele>
        <time>2014-08-26T15:39:59Z</time>
      </trkpt>
      <trkpt lat="46.35495" lon="6.65369">
        <ele>881.2754</ele>
        <time>2014-08-26T15:40:04Z</time>
      </trkpt>
      <trkpt lat="46.35495" lon="6.65367">
        <ele>881.2754</ele>
        <time>2014-08-26T15:40:09Z</time>
      </trkpt>
      <trkpt lat="46.35497" lon="6.65368">
        <ele>882.2259</ele>
        <time>2014-08-26T15:40:14Z</time>
      </trkpt>
      <trkpt lat="46.35499" lon="6.65368">
        <ele>882.2259</ele>
        <time>2014-08-26T15:40:19Z</time>
      </trkpt>
      <trkpt lat="46.35499" lon="6.65367">
        <ele>882.2259</ele>
        <time>2014-08-26T15:40:24Z</time>
      </trkpt>
      <trkpt lat="46.35498" lon="6.6537">
        <ele>882.2259</ele>
        <time>2014-08-26T15:40:29Z</time>
      </trkpt>
      <trkpt lat="46.35499" lon="6.65375">
        <ele>882.2259</ele>
        <time>2014-08-26T15:40:34Z</time>
      </trkpt>
      <trkpt lat="46.355" lon="6.65382">
        <ele>882.6727</ele>
        <time>2014-08-26T15:40:39Z</time>
      </trkpt>
      <trkpt lat="46.35502" lon="6.65391">
        <ele>882.6727</ele>
        <time>2014-08-26T15:40:44Z</time>
      </trkpt>
      <trkpt lat="46.35502" lon="6.65399">
        <ele>883.0563</ele>
        <time>2014-08-26T15:40:49Z</time>
      </trkpt>
      <trkpt lat="46.35503" lon="6.6541">
        <ele>883.0563</ele>
        <time>2014-08-26T15:40:54Z</time>
      </trkpt>
      <trkpt lat="46.35503" lon="6.65416">
        <ele>883.4243</ele>
        <time>2014-08-26T15:40:59Z</time>
      </trkpt>
      <trkpt lat="46.35504" lon="6.65424">
        <ele>883.4243</ele>
        <time>2014-08-26T15:41:04Z</time>
      </trkpt>
      <trkpt lat="46.35507" lon="6.65432">
        <ele>883.8357</ele>
        <time>2014-08-26T15:41:09Z</time>
      </trkpt>
      <trkpt lat="46.35508" lon="6.6544">
        <ele>883.8357</ele>
        <time>2014-08-26T15:41:14Z</time>
      </trkpt>
      <trkpt lat="46.35509" lon="6.65448">
        <ele>884.2439</ele>
        <time>2014-08-26T15:41:19Z</time>
      </trkpt>
      <trkpt lat="46.3551" lon="6.65456">
        <ele>884.2439</ele>
        <time>2014-08-26T15:41:24Z</time>
      </trkpt>
      <trkpt lat="46.35512" lon="6.65462">
        <ele>884.6924</ele>
        <time>2014-08-26T15:41:29Z</time>
      </trkpt>
      <trkpt lat="46.35513" lon="6.65469">
        <ele>884.6924</ele>
        <time>2014-08-26T15:41:34Z</time>
      </trkpt>
      <trkpt lat="46.35514" lon="6.6548">
        <ele>885.1636</ele>
        <time>2014-08-26T15:41:39Z</time>
      </trkpt>
      <trkpt lat="46.35517" lon="6.65486">
        <ele>885.1636</ele>
        <time>2014-08-26T15:41:44Z</time>
      </trkpt>
      <trkpt lat="46.35518" lon="6.65491">
        <ele>885.1636</ele>
        <time>2014-08-26T15:41:49Z</time>
      </trkpt>
      <trkpt lat="46.3552" lon="6.65498">
        <ele>885.6988</ele>
        <time>2014-08-26T15:41:54Z</time>
      </trkpt>
      <trkpt lat="46.35521" lon="6.65507">
        <ele>885.6988</ele>
        <time>2014-08-26T15:41:59Z</time>
      </trkpt>
      <trkpt lat="46.35521" lon="6.65516">
        <ele>886.22095</ele>
        <time>2014-08-26T15:42:04Z</time>
      </trkpt>
      <trkpt lat="46.35523" lon="6.65524">
        <ele>886.22095</ele>
        <time>2014-08-26T15:42:09Z</time>
      </trkpt>
      <trkpt lat="46.35525" lon="6.65534">
        <ele>886.8027</ele>
        <time>2014-08-26T15:42:14Z</time>
      </trkpt>
      <trkpt lat="46.35524" lon="6.65541">
        <ele>886.8027</ele>
        <time>2014-08-26T15:42:19Z</time>
      </trkpt>
      <trkpt lat="46.35526" lon="6.65546">
        <ele>886.8027</ele>
        <time>2014-08-26T15:42:24Z</time>
      </trkpt>
      <trkpt lat="46.35527" lon="6.65552">
        <ele>887.45355</ele>
        <time>2014-08-26T15:42:29Z</time>
      </trkpt>
      <trkpt lat="46.35528" lon="6.65562">
        <ele>887.45355</ele>
        <time>2014-08-26T15:42:34Z</time>
      </trkpt>
      <trkpt lat="46.3553" lon="6.65571">
        <ele>888.0957</ele>
        <time>2014-08-26T15:42:39Z</time>
      </trkpt>
      <trkpt lat="46.35531" lon="6.65576">
        <ele>888.0957</ele>
        <time>2014-08-26T15:42:44Z</time>
      </trkpt>
      <trkpt lat="46.35531" lon="6.65584">
        <ele>888.0957</ele>
        <time>2014-08-26T15:42:49Z</time>
      </trkpt>
      <trkpt lat="46.35533" lon="6.65593">
        <ele>888.75806</ele>
        <time>2014-08-26T15:42:54Z</time>
      </trkpt>
      <trkpt lat="46.35535" lon="6.656">
        <ele>888.75806</ele>
        <time>2014-08-26T15:42:59Z</time>
      </trkpt>
      <trkpt lat="46.35535" lon="6.65606">
        <ele>889.3807</ele>
        <time>2014-08-26T15:43:04Z</time>
      </trkpt>
      <trkpt lat="46.35536" lon="6.65616">
        <ele>889.3807</ele>
        <time>2014-08-26T15:43:09Z</time>
      </trkpt>
      <trkpt lat="46.35537" lon="6.65624">
        <ele>889.9228</ele>
        <time>2014-08-26T15:43:14Z</time>
      </trkpt>
      <trkpt lat="46.35539" lon="6.65634">
        <ele>889.9228</ele>
        <time>2014-08-26T15:43:19Z</time>
      </trkpt>
      <trkpt lat="46.3554" lon="6.6564">
        <ele>890.43317</ele>
        <time>2014-08-26T15:43:24Z</time>
      </trkpt>
      <trkpt lat="46.35541" lon="6.65645">
        <ele>890.43317</ele>
        <time>2014-08-26T15:43:29Z</time>
      </trkpt>
      <trkpt lat="46.35543" lon="6.65654">
        <ele>890.89954</ele>
        <time>2014-08-26T15:43:34Z</time>
      </trkpt>
      <trkpt lat="46.35544" lon="6.65663">
        <ele>890.89954</ele>
        <time>2014-08-26T15:43:39Z</time>
      </trkpt>
      <trkpt lat="46.35545" lon="6.6567">
        <ele>891.3826</ele>
        <time>2014-08-26T15:43:44Z</time>
      </trkpt>
      <trkpt lat="46.35546" lon="6.65678">
        <ele>891.3826</ele>
        <time>2014-08-26T15:43:49Z</time>
      </trkpt>
      <trkpt lat="46.35548" lon="6.65686">
        <ele>891.8524</ele>
        <time>2014-08-26T15:43:54Z</time>
      </trkpt>
      <trkpt lat="46.35549" lon="6.65692">
        <ele>891.8524</ele>
        <time>2014-08-26T15:43:59Z</time>
      </trkpt>
      <trkpt lat="46.35549" lon="6.65703">
        <ele>892.3097</ele>
        <time>2014-08-26T15:44:04Z</time>
      </trkpt>
      <trkpt lat="46.3555" lon="6.6571">
        <ele>892.3097</ele>
        <time>2014-08-26T15:44:09Z</time>
      </trkpt>
      <trkpt lat="46.35552" lon="6.65717">
        <ele>892.78424</ele>
        <time>2014-08-26T15:44:14Z</time>
      </trkpt>
      <trkpt lat="46.35553" lon="6.65724">
        <ele>892.78424</ele>
        <time>2014-08-26T15:44:19Z</time>
      </trkpt>
      <trkpt lat="46.35555" lon="6.65732">
        <ele>893.2747</ele>
        <time>2014-08-26T15:44:24Z</time>
      </trkpt>
      <trkpt lat="46.35555" lon="6.65738">
        <ele>893.2747</ele>
        <time>2014-08-26T15:44:29Z</time>
      </trkpt>
      <trkpt lat="46.35555" lon="6.65745">
        <ele>893.8519</ele>
        <time>2014-08-26T15:44:34Z</time>
      </trkpt>
      <trkpt lat="46.35557" lon="6.65754">
        <ele>893.8519</ele>
        <time>2014-08-26T15:44:39Z</time>
      </trkpt>
      <trkpt lat="46.3556" lon="6.65764">
        <ele>894.4227</ele>
        <time>2014-08-26T15:44:44Z</time>
      </trkpt>
      <trkpt lat="46.35561" lon="6.6577">
        <ele>894.4227</ele>
        <time>2014-08-26T15:44:49Z</time>
      </trkpt>
      <trkpt lat="46.35562" lon="6.65776">
        <ele>894.4227</ele>
        <time>2014-08-26T15:44:54Z</time>
      </trkpt>
      <trkpt lat="46.35564" lon="6.65783">
        <ele>895.0305</ele>
        <time>2014-08-26T15:44:59Z</time>
      </trkpt>
      <trkpt lat="46.35565" lon="6.65789">
        <ele>895.0305</ele>
        <time>2014-08-26T15:45:04Z</time>
      </trkpt>
      <trkpt lat="46.35566" lon="6.65798">
        <ele>895.64343</ele>
        <time>2014-08-26T15:45:09Z</time>
      </trkpt>
      <trkpt lat="46.35568" lon="6.6581">
        <ele>895.64343</ele>
        <time>2014-08-26T15:45:14Z</time>
      </trkpt>
      <trkpt lat="46.35569" lon="6.65818">
        <ele>896.30383</ele>
        <time>2014-08-26T15:45:19Z</time>
      </trkpt>
      <trkpt lat="46.3557" lon="6.65825">
        <ele>896.30383</ele>
        <time>2014-08-26T15:45:24Z</time>
      </trkpt>
      <trkpt lat="46.35571" lon="6.65831">
        <ele>896.96454</ele>
        <time>2014-08-26T15:45:29Z</time>
      </trkpt>
      <trkpt lat="46.35572" lon="6.65839">
        <ele>896.96454</ele>
        <time>2014-08-26T15:45:34Z</time>
      </trkpt>
      <trkpt lat="46.35573" lon="6.65846">
        <ele>897.5386</ele>
        <time>2014-08-26T15:45:39Z</time>
      </trkpt>
      <trkpt lat="46.35576" lon="6.65856">
        <ele>897.5386</ele>
        <time>2014-08-26T15:45:44Z</time>
      </trkpt>
      <trkpt lat="46.35578" lon="6.65862">
        <ele>898.16174</ele>
        <time>2014-08-26T15:45:49Z</time>
      </trkpt>
      <trkpt lat="46.35579" lon="6.65868">
        <ele>898.16174</ele>
        <time>2014-08-26T15:45:54Z</time>
      </trkpt>
      <trkpt lat="46.3558" lon="6.65875">
        <ele>898.75806</ele>
        <time>2014-08-26T15:45:59Z</time>
      </trkpt>
      <trkpt lat="46.35581" lon="6.65882">
        <ele>898.75806</ele>
        <time>2014-08-26T15:46:04Z</time>
      </trkpt>
      <trkpt lat="46.35582" lon="6.6589">
        <ele>899.32916</ele>
        <time>2014-08-26T15:46:09Z</time>
      </trkpt>
      <trkpt lat="46.35582" lon="6.65897">
        <ele>899.32916</ele>
        <time>2014-08-26T15:46:14Z</time>
      </trkpt>
      <trkpt lat="46.35583" lon="6.65904">
        <ele>899.9776</ele>
        <time>2014-08-26T15:46:19Z</time>
      </trkpt>
      <trkpt lat="46.35585" lon="6.65909">
        <ele>899.9776</ele>
        <time>2014-08-26T15:46:24Z</time>
      </trkpt>
      <trkpt lat="46.35587" lon="6.65916">
        <ele>900.6396</ele>
        <time>2014-08-26T15:46:29Z</time>
      </trkpt>
      <trkpt lat="46.35589" lon="6.65925">
        <ele>900.6396</ele>
        <time>2014-08-26T15:46:34Z</time>
      </trkpt>
      <trkpt lat="46.3559" lon="6.65931">
        <ele>901.1985</ele>
        <time>2014-08-26T15:46:39Z</time>
      </trkpt>
      <trkpt lat="46.35591" lon="6.65939">
        <ele>901.1985</ele>
        <time>2014-08-26T15:46:44Z</time>
      </trkpt>
      <trkpt lat="46.35592" lon="6.65947">
        <ele>901.63293</ele>
        <time>2014-08-26T15:46:49Z</time>
      </trkpt>
      <trkpt lat="46.35593" lon="6.65952">
        <ele>901.63293</ele>
        <time>2014-08-26T15:46:54Z</time>
      </trkpt>
      <trkpt lat="46.35595" lon="6.65961">
        <ele>902.0098</ele>
        <time>2014-08-26T15:46:59Z</time>
      </trkpt>
      <trkpt lat="46.35596" lon="6.65967">
        <ele>902.0098</ele>
        <time>2014-08-26T15:47:04Z</time>
      </trkpt>
      <trkpt lat="46.35597" lon="6.65975">
        <ele>902.3916</ele>
        <time>2014-08-26T15:47:09Z</time>
      </trkpt>
      <trkpt lat="46.35597" lon="6.65982">
        <ele>902.3916</ele>
        <time>2014-08-26T15:47:14Z</time>
      </trkpt>
      <trkpt lat="46.35599" lon="6.65991">
        <ele>902.7205</ele>
        <time>2014-08-26T15:47:19Z</time>
      </trkpt>
      <trkpt lat="46.35602" lon="6.66">
        <ele>902.7205</ele>
        <time>2014-08-26T15:47:24Z</time>
      </trkpt>
      <trkpt lat="46.35603" lon="6.66008">
        <ele>903.0299</ele>
        <time>2014-08-26T15:47:29Z</time>
      </trkpt>
      <trkpt lat="46.35603" lon="6.66014">
        <ele>903.0299</ele>
        <time>2014-08-26T15:47:34Z</time>
      </trkpt>
      <trkpt lat="46.35604" lon="6.66025">
        <ele>903.365</ele>
        <time>2014-08-26T15:47:39Z</time>
      </trkpt>
      <trkpt lat="46.35605" lon="6.66032">
        <ele>903.365</ele>
        <time>2014-08-26T15:47:44Z</time>
      </trkpt>
      <trkpt lat="46.35607" lon="6.66037">
        <ele>903.7245</ele>
        <time>2014-08-26T15:47:49Z</time>
      </trkpt>
      <trkpt lat="46.35606" lon="6.66046">
        <ele>903.7245</ele>
        <time>2014-08-26T15:47:54Z</time>
      </trkpt>
      <trkpt lat="46.35608" lon="6.66055">
        <ele>904.22235</ele>
        <time>2014-08-26T15:47:59Z</time>
      </trkpt>
      <trkpt lat="46.35609" lon="6.66062">
        <ele>904.22235</ele>
        <time>2014-08-26T15:48:04Z</time>
      </trkpt>
      <trkpt lat="46.35609" lon="6.66068">
        <ele>904.84845</ele>
        <time>2014-08-26T15:48:09Z</time>
      </trkpt>
      <trkpt lat="46.35611" lon="6.66076">
        <ele>904.84845</ele>
        <time>2014-08-26T15:48:14Z</time>
      </trkpt>
      <trkpt lat="46.35613" lon="6.66083">
        <ele>905.5067</ele>
        <time>2014-08-26T15:48:19Z</time>
      </trkpt>
      <trkpt lat="46.35614" lon="6.66093">
        <ele>905.5067</ele>
        <time>2014-08-26T15:48:24Z</time>
      </trkpt>
      <trkpt lat="46.35616" lon="6.66101">
        <ele>906.16547</ele>
        <time>2014-08-26T15:48:29Z</time>
      </trkpt>
      <trkpt lat="46.35618" lon="6.6611">
        <ele>906.16547</ele>
        <time>2014-08-26T15:48:34Z</time>
      </trkpt>
      <trkpt lat="46.35619" lon="6.66117">
        <ele>906.9109</ele>
        <time>2014-08-26T15:48:39Z</time>
      </trkpt>
      <trkpt lat="46.35619" lon="6.66122">
        <ele>906.9109</ele>
        <time>2014-08-26T15:48:44Z</time>
      </trkpt>
      <trkpt lat="46.3562" lon="6.6613">
        <ele>906.9109</ele>
        <time>2014-08-26T15:48:49Z</time>
      </trkpt>
      <trkpt lat="46.35622" lon="6.66139">
        <ele>907.70715</ele>
        <time>2014-08-26T15:48:54Z</time>
      </trkpt>
      <trkpt lat="46.35624" lon="6.66147">
        <ele>907.70715</ele>
        <time>2014-08-26T15:48:59Z</time>
      </trkpt>
      <trkpt lat="46.35626" lon="6.66156">
        <ele>908.52094</ele>
        <time>2014-08-26T15:49:04Z</time>
      </trkpt>
      <trkpt lat="46.35627" lon="6.66162">
        <ele>908.52094</ele>
        <time>2014-08-26T15:49:09Z</time>
      </trkpt>
      <trkpt lat="46.35626" lon="6.66168">
        <ele>908.52094</ele>
        <time>2014-08-26T15:49:14Z</time>
      </trkpt>
      <trkpt lat="46.35627" lon="6.66178">
        <ele>909.379</ele>
        <time>2014-08-26T15:49:19Z</time>
      </trkpt>
      <trkpt lat="46.35629" lon="6.66186">
        <ele>909.379</ele>
        <time>2014-08-26T15:49:24Z</time>
      </trkpt>
      <trkpt lat="46.35633" lon="6.66194">
        <ele>910.21954</ele>
        <time>2014-08-26T15:49:29Z</time>
      </trkpt>
      <trkpt lat="46.35636" lon="6.66203">
        <ele>910.21954</ele>
        <time>2014-08-26T15:49:34Z</time>
      </trkpt>
      <trkpt lat="46.35636" lon="6.66209">
        <ele>911.05743</ele>
        <time>2014-08-26T15:49:39Z</time>
      </trkpt>
      <trkpt lat="46.35638" lon="6.66215">
        <ele>911.05743</ele>
        <time>2014-08-26T15:49:44Z</time>
      </trkpt>
      <trkpt lat="46.3564" lon="6.66222">
        <ele>911.9352</ele>
        <time>2014-08-26T15:49:49Z</time>
      </trkpt>
      <trkpt lat="46.35642" lon="6.66228">
        <ele>911.9352</ele>
        <time>2014-08-26T15:49:54Z</time>
      </trkpt>
      <trkpt lat="46.35643" lon="6.66238">
        <ele>912.84906</ele>
        <time>2014-08-26T15:49:59Z</time>
      </trkpt>
      <trkpt lat="46.35644" lon="6.66244">
        <ele>912.84906</ele>
        <time>2014-08-26T15:50:04Z</time>
      </trkpt>
      <trkpt lat="46.35648" lon="6.66249">
        <ele>913.80975</ele>
        <time>2014-08-26T15:50:09Z</time>
      </trkpt>
      <trkpt lat="46.3565" lon="6.66256">
        <ele>913.80975</ele>
        <time>2014-08-26T15:50:14Z</time>
      </trkpt>
      <trkpt lat="46.35653" lon="6.66261">
        <ele>914.683</ele>
        <time>2014-08-26T15:50:19Z</time>
      </trkpt>
      <trkpt lat="46.35656" lon="6.66267">
        <ele>914.683</ele>
        <time>2014-08-26T15:50:24Z</time>
      </trkpt>
      <trkpt lat="46.35659" lon="6.66276">
        <ele>915.3878</ele>
        <time>2014-08-26T15:50:29Z</time>
      </trkpt>
      <trkpt lat="46.35661" lon="6.66284">
        <ele>915.3878</ele>
        <time>2014-08-26T15:50:34Z</time>
      </trkpt>
      <trkpt lat="46.35663" lon="6.66288">
        <ele>915.92194</ele>
        <time>2014-08-26T15:50:39Z</time>
      </trkpt>
      <trkpt lat="46.35664" lon="6.6629">
        <ele>915.92194</ele>
        <time>2014-08-26T15:50:44Z</time>
      </trkpt>
      <trkpt lat="46.35665" lon="6.6629">
        <ele>915.92194</ele>
        <time>2014-08-26T15:50:49Z</time>
      </trkpt>
      <trkpt lat="46.35667" lon="6.66286">
        <ele>915.92194</ele>
        <time>2014-08-26T15:50:54Z</time>
      </trkpt>
      <trkpt lat="46.35666" lon="6.66284">
        <ele>915.92194</ele>
        <time>2014-08-26T15:50:59Z</time>
      </trkpt>
      <trkpt lat="46.35664" lon="6.66281">
        <ele>916.6871</ele>
        <time>2014-08-26T15:51:04Z</time>
      </trkpt>
      <trkpt lat="46.35664" lon="6.66282">
        <ele>916.6871</ele>
        <time>2014-08-26T15:51:09Z</time>
      </trkpt>
      <trkpt lat="46.35663" lon="6.66283">
        <ele>916.6871</ele>
        <time>2014-08-26T15:51:14Z</time>
      </trkpt>
      <trkpt lat="46.35663" lon="6.66283">
        <ele>916.6871</ele>
        <time>2014-08-26T15:51:19Z</time>
      </trkpt>
      <trkpt lat="46.35663" lon="6.66285">
        <ele>916.6871</ele>
        <time>2014-08-26T15:51:24Z</time>
      </trkpt>
      <trkpt lat="46.35664" lon="6.66284">
        <ele>916.6871</ele>
        <time>2014-08-26T15:51:29Z</time>
      </trkpt>
      <trkpt lat="46.35665" lon="6.66284">
        <ele>916.6871</ele>
        <time>2014-08-26T15:51:34Z</time>
      </trkpt>
      <trkpt lat="46.35666" lon="6.66285">
        <ele>916.6871</ele>
        <time>2014-08-26T15:51:39Z</time>
      </trkpt>
      <trkpt lat="46.35668" lon="6.66287">
        <ele>916.6871</ele>
        <time>2014-08-26T15:51:44Z</time>
      </trkpt>
      <trkpt lat="46.35668" lon="6.66286">
        <ele>917.34863</ele>
        <time>2014-08-26T15:51:49Z</time>
      </trkpt>
      <trkpt lat="46.35667" lon="6.66286">
        <ele>917.34863</ele>
        <time>2014-08-26T15:51:54Z</time>
      </trkpt>
      <trkpt lat="46.35667" lon="6.66286">
        <ele>917.34863</ele>
        <time>2014-08-26T15:51:59Z</time>
      </trkpt>
      <trkpt lat="46.35667" lon="6.66285">
        <ele>917.34863</ele>
        <time>2014-08-26T15:52:04Z</time>
      </trkpt>
      <trkpt lat="46.35666" lon="6.66286">
        <ele>917.34863</ele>
        <time>2014-08-26T15:52:09Z</time>
      </trkpt>
      <trkpt lat="46.35666" lon="6.66287">
        <ele>917.34863</ele>
        <time>2014-08-26T15:52:14Z</time>
      </trkpt>
      <trkpt lat="46.35665" lon="6.66288">
        <ele>917.34863</ele>
        <time>2014-08-26T15:52:19Z</time>
      </trkpt>
      <trkpt lat="46.35664" lon="6.6629">
        <ele>917.34863</ele>
        <time>2014-08-26T15:52:24Z</time>
      </trkpt>
      <trkpt lat="46.35664" lon="6.66294">
        <ele>917.34863</ele>
        <time>2014-08-26T15:52:29Z</time>
      </trkpt>
      <trkpt lat="46.35664" lon="6.66295">
        <ele>918.0582</ele>
        <time>2014-08-26T15:52:34Z</time>
      </trkpt>
      <trkpt lat="46.35665" lon="6.66295">
        <ele>918.0582</ele>
        <time>2014-08-26T15:52:39Z</time>
      </trkpt>
      <trkpt lat="46.35666" lon="6.66295">
        <ele>918.0582</ele>
        <time>2014-08-26T15:52:44Z</time>
      </trkpt>
      <trkpt lat="46.35665" lon="6.66295">
        <ele>918.0582</ele>
        <time>2014-08-26T15:52:49Z</time>
      </trkpt>
      <trkpt lat="46.35665" lon="6.66293">
        <ele>918.0582</ele>
        <time>2014-08-26T15:52:54Z</time>
      </trkpt>
      <trkpt lat="46.35665" lon="6.66291">
        <ele>918.0582</ele>
        <time>2014-08-26T15:52:59Z</time>
      </trkpt>
      <trkpt lat="46.35664" lon="6.66291">
        <ele>918.0582</ele>
        <time>2014-08-26T15:53:04Z</time>
      </trkpt>
      <trkpt lat="46.35664" lon="6.66287">
        <ele>918.81195</ele>
        <time>2014-08-26T15:53:09Z</time>
      </trkpt>
      <trkpt lat="46.35662" lon="6.66286">
        <ele>918.81195</ele>
        <time>2014-08-26T15:53:14Z</time>
      </trkpt>
      <trkpt lat="46.3566" lon="6.66287">
        <ele>918.81195</ele>
        <time>2014-08-26T15:53:19Z</time>
      </trkpt>
      <trkpt lat="46.3566" lon="6.66288">
        <ele>918.81195</ele>
        <time>2014-08-26T15:53:24Z</time>
      </trkpt>
      <trkpt lat="46.3566" lon="6.66288">
        <ele>918.81195</ele>
        <time>2014-08-26T15:53:29Z</time>
      </trkpt>
      <trkpt lat="46.3566" lon="6.66287">
        <ele>918.81195</ele>
        <time>2014-08-26T15:53:34Z</time>
      </trkpt>
      <trkpt lat="46.35662" lon="6.66286">
        <ele>918.81195</ele>
        <time>2014-08-26T15:53:39Z</time>
      </trkpt>
      <trkpt lat="46.35664" lon="6.66286">
        <ele>919.4765</ele>
        <time>2014-08-26T15:53:44Z</time>
      </trkpt>
      <trkpt lat="46.35666" lon="6.66287">
        <ele>919.4765</ele>
        <time>2014-08-26T15:53:49Z</time>
      </trkpt>
      <trkpt lat="46.35666" lon="6.6629">
        <ele>919.4765</ele>
        <time>2014-08-26T15:53:54Z</time>
      </trkpt>
      <trkpt lat="46.35665" lon="6.66293">
        <ele>919.4765</ele>
        <time>2014-08-26T15:53:59Z</time>
      </trkpt>
      <trkpt lat="46.35665" lon="6.66294">
        <ele>919.4765</ele>
        <time>2014-08-26T15:54:04Z</time>
      </trkpt>
      <trkpt lat="46.35665" lon="6.66297">
        <ele>919.4765</ele>
        <time>2014-08-26T15:54:09Z</time>
      </trkpt>
      <trkpt lat="46.35665" lon="6.66299">
        <ele>920.0871</ele>
        <time>2014-08-26T15:54:14Z</time>
      </trkpt>
      <trkpt lat="46.35664" lon="6.66299">
        <ele>920.0871</ele>
        <time>2014-08-26T15:54:19Z</time>
      </trkpt>
      <trkpt lat="46.35664" lon="6.66298">
        <ele>920.0871</ele>
        <time>2014-08-26T15:54:24Z</time>
      </trkpt>
      <trkpt lat="46.35664" lon="6.66296">
        <ele>920.0871</ele>
        <time>2014-08-26T15:54:29Z</time>
      </trkpt>
      <trkpt lat="46.35662" lon="6.66293">
        <ele>920.0871</ele>
        <time>2014-08-26T15:54:34Z</time>
      </trkpt>
      <trkpt lat="46.35662" lon="6.66293">
        <ele>920.0871</ele>
        <time>2014-08-26T15:54:39Z</time>
      </trkpt>
      <trkpt lat="46.35662" lon="6.66292">
        <ele>920.0871</ele>
        <time>2014-08-26T15:54:44Z</time>
      </trkpt>
      <trkpt lat="46.35663" lon="6.66291">
        <ele>920.0871</ele>
        <time>2014-08-26T15:54:49Z</time>
      </trkpt>
      <trkpt lat="46.35663" lon="6.66291">
        <ele>920.0871</ele>
        <time>2014-08-26T15:54:54Z</time>
      </trkpt>
      <trkpt lat="46.35662" lon="6.66291">
        <ele>920.0871</ele>
        <time>2014-08-26T15:54:59Z</time>
      </trkpt>
      <trkpt lat="46.35662" lon="6.6629">
        <ele>920.0871</ele>
        <time>2014-08-26T15:55:04Z</time>
      </trkpt>
      <trkpt lat="46.35662" lon="6.6629">
        <ele>920.0871</ele>
        <time>2014-08-26T15:55:09Z</time>
      </trkpt>
      <trkpt lat="46.35664" lon="6.66287">
        <ele>920.9359</ele>
        <time>2014-08-26T15:55:49Z</time>
      </trkpt>
      <trkpt lat="46.35665" lon="6.66286">
        <ele>920.9359</ele>
        <time>2014-08-26T15:55:54Z</time>
      </trkpt>
      <trkpt lat="46.35665" lon="6.66285">
        <ele>920.9359</ele>
        <time>2014-08-26T15:55:59Z</time>
      </trkpt>
      <trkpt lat="46.35665" lon="6.66285">
        <ele>920.9359</ele>
        <time>2014-08-26T15:56:04Z</time>
      </trkpt>
      <trkpt lat="46.35666" lon="6.66287">
        <ele>920.9359</ele>
        <time>2014-08-26T15:56:09Z</time>
      </trkpt>
      <trkpt lat="46.35667" lon="6.66289">
        <ele>920.9359</ele>
        <time>2014-08-26T15:56:14Z</time>
      </trkpt>
      <trkpt lat="46.35668" lon="6.66289">
        <ele>920.9359</ele>
        <time>2014-08-26T15:56:19Z</time>
      </trkpt>
      <trkpt lat="46.35669" lon="6.66288">
        <ele>920.9359</ele>
        <time>2014-08-26T15:56:24Z</time>
      </trkpt>
      <trkpt lat="46.35668" lon="6.66287">
        <ele>920.9359</ele>
        <time>2014-08-26T15:56:29Z</time>
      </trkpt>
      <trkpt lat="46.35666" lon="6.66286">
        <ele>921.75977</ele>
        <time>2014-08-26T15:56:34Z</time>
      </trkpt>
      <trkpt lat="46.35665" lon="6.66286">
        <ele>921.75977</ele>
        <time>2014-08-26T15:56:39Z</time>
      </trkpt>
      <trkpt lat="46.35665" lon="6.66288">
        <ele>921.75977</ele>
        <time>2014-08-26T15:56:44Z</time>
      </trkpt>
      <trkpt lat="46.35665" lon="6.66288">
        <ele>921.75977</ele>
        <time>2014-08-26T15:56:49Z</time>
      </trkpt>
      <trkpt lat="46.35665" lon="6.66288">
        <ele>921.75977</ele>
        <time>2014-08-26T15:56:54Z</time>
      </trkpt>
      <trkpt lat="46.35665" lon="6.66287">
        <ele>921.75977</ele>
        <time>2014-08-26T15:59:44Z</time>
      </trkpt>
      <trkpt lat="46.35665" lon="6.66287">
        <ele>921.75977</ele>
        <time>2014-08-26T15:59:49Z</time>
      </trkpt>
      <trkpt lat="46.35666" lon="6.66288">
        <ele>921.75977</ele>
        <time>2014-08-26T16:00:04Z</time>
      </trkpt>
      <trkpt lat="46.35668" lon="6.66291">
        <ele>921.75977</ele>
        <time>2014-08-26T16:00:09Z</time>
      </trkpt>
      <trkpt lat="46.35669" lon="6.66291">
        <ele>921.75977</ele>
        <time>2014-08-26T16:00:14Z</time>
      </trkpt>
      <trkpt lat="46.35669" lon="6.66293">
        <ele>922.94916</ele>
        <time>2014-08-26T16:00:19Z</time>
      </trkpt>
      <trkpt lat="46.35668" lon="6.66293">
        <ele>922.94916</ele>
        <time>2014-08-26T16:00:24Z</time>
      </trkpt>
      <trkpt lat="46.35668" lon="6.66293">
        <ele>922.94916</ele>
        <time>2014-08-26T16:00:29Z</time>
      </trkpt>
      <trkpt lat="46.35668" lon="6.66295">
        <ele>922.94916</ele>
        <time>2014-08-26T16:00:39Z</time>
      </trkpt>
      <trkpt lat="46.35669" lon="6.66301">
        <ele>922.94916</ele>
        <time>2014-08-26T16:00:44Z</time>
      </trkpt>
      <trkpt lat="46.35675" lon="6.66305">
        <ele>924.2594</ele>
        <time>2014-08-26T16:00:49Z</time>
      </trkpt>
      <trkpt lat="46.35682" lon="6.66308">
        <ele>924.2594</ele>
        <time>2014-08-26T16:00:54Z</time>
      </trkpt>
      <trkpt lat="46.35686" lon="6.66307">
        <ele>925.3772</ele>
        <time>2014-08-26T16:00:59Z</time>
      </trkpt>
      <trkpt lat="46.35692" lon="6.66306">
        <ele>925.3772</ele>
        <time>2014-08-26T16:01:04Z</time>
      </trkpt>
      <trkpt lat="46.35699" lon="6.66302">
        <ele>926.27203</ele>
        <time>2014-08-26T16:01:09Z</time>
      </trkpt>
      <trkpt lat="46.35704" lon="6.66299">
        <ele>926.27203</ele>
        <time>2014-08-26T16:01:14Z</time>
      </trkpt>
      <trkpt lat="46.35709" lon="6.66294">
        <ele>926.9309</ele>
        <time>2014-08-26T16:01:19Z</time>
      </trkpt>
      <trkpt lat="46.35716" lon="6.6629">
        <ele>926.9309</ele>
        <time>2014-08-26T16:01:24Z</time>
      </trkpt>
      <trkpt lat="46.35721" lon="6.66287">
        <ele>927.4432</ele>
        <time>2014-08-26T16:01:29Z</time>
      </trkpt>
      <trkpt lat="46.35726" lon="6.66285">
        <ele>927.4432</ele>
        <time>2014-08-26T16:01:34Z</time>
      </trkpt>
      <trkpt lat="46.35731" lon="6.66285">
        <ele>927.7768</ele>
        <time>2014-08-26T16:01:39Z</time>
      </trkpt>
      <trkpt lat="46.35736" lon="6.66283">
        <ele>927.7768</ele>
        <time>2014-08-26T16:01:44Z</time>
      </trkpt>
      <trkpt lat="46.35739" lon="6.66273">
        <ele>927.97473</ele>
        <time>2014-08-26T16:01:49Z</time>
      </trkpt>
      <trkpt lat="46.35743" lon="6.66271">
        <ele>927.97473</ele>
        <time>2014-08-26T16:01:54Z</time>
      </trkpt>
      <trkpt lat="46.35747" lon="6.66268">
        <ele>927.97473</ele>
        <time>2014-08-26T16:01:59Z</time>
      </trkpt>
      <trkpt lat="46.3575" lon="6.66264">
        <ele>927.616</ele>
        <time>2014-08-26T16:02:04Z</time>
      </trkpt>
      <trkpt lat="46.35754" lon="6.6626">
        <ele>927.616</ele>
        <time>2014-08-26T16:02:09Z</time>
      </trkpt>
      <trkpt lat="46.3576" lon="6.66256">
        <ele>926.975</ele>
        <time>2014-08-26T16:02:14Z</time>
      </trkpt>
      <trkpt lat="46.35767" lon="6.66252">
        <ele>926.975</ele>
        <time>2014-08-26T16:02:19Z</time>
      </trkpt>
      <trkpt lat="46.35771" lon="6.66246">
        <ele>926.0473</ele>
        <time>2014-08-26T16:02:24Z</time>
      </trkpt>
      <trkpt lat="46.35778" lon="6.66242">
        <ele>926.0473</ele>
        <time>2014-08-26T16:02:29Z</time>
      </trkpt>
      <trkpt lat="46.35788" lon="6.66237">
        <ele>924.9018</ele>
        <time>2014-08-26T16:02:34Z</time>
      </trkpt>
      <trkpt lat="46.35793" lon="6.6623">
        <ele>924.9018</ele>
        <time>2014-08-26T16:02:39Z</time>
      </trkpt>
      <trkpt lat="46.35797" lon="6.66226">
        <ele>923.68933</ele>
        <time>2014-08-26T16:02:44Z</time>
      </trkpt>
      <trkpt lat="46.35801" lon="6.66221">
        <ele>923.68933</ele>
        <time>2014-08-26T16:02:49Z</time>
      </trkpt>
      <trkpt lat="46.35805" lon="6.66216">
        <ele>922.4488</ele>
        <time>2014-08-26T16:02:54Z</time>
      </trkpt>
      <trkpt lat="46.3581" lon="6.6621">
        <ele>922.4488</ele>
        <time>2014-08-26T16:02:59Z</time>
      </trkpt>
      <trkpt lat="46.35813" lon="6.66204">
        <ele>921.14435</ele>
        <time>2014-08-26T16:03:04Z</time>
      </trkpt>
      <trkpt lat="46.35818" lon="6.66195">
        <ele>921.14435</ele>
        <time>2014-08-26T16:03:09Z</time>
      </trkpt>
      <trkpt lat="46.35823" lon="6.66189">
        <ele>919.7717</ele>
        <time>2014-08-26T16:03:14Z</time>
      </trkpt>
      <trkpt lat="46.35827" lon="6.66184">
        <ele>919.7717</ele>
        <time>2014-08-26T16:03:19Z</time>
      </trkpt>
      <trkpt lat="46.35833" lon="6.66179">
        <ele>918.3847</ele>
        <time>2014-08-26T16:03:24Z</time>
      </trkpt>
      <trkpt lat="46.35838" lon="6.66173">
        <ele>918.3847</ele>
        <time>2014-08-26T16:03:29Z</time>
      </trkpt>
      <trkpt lat="46.35841" lon="6.66168">
        <ele>916.88885</ele>
        <time>2014-08-26T16:03:34Z</time>
      </trkpt>
      <trkpt lat="46.35845" lon="6.66164">
        <ele>916.88885</ele>
        <time>2014-08-26T16:03:39Z</time>
      </trkpt>
      <trkpt lat="46.35847" lon="6.66159">
        <ele>916.88885</ele>
        <time>2014-08-26T16:03:44Z</time>
      </trkpt>
      <trkpt lat="46.35848" lon="6.66151">
        <ele>915.2547</ele>
        <time>2014-08-26T16:03:49Z</time>
      </trkpt>
      <trkpt lat="46.35845" lon="6.6614">
        <ele>915.2547</ele>
        <time>2014-08-26T16:03:54Z</time>
      </trkpt>
      <trkpt lat="46.35843" lon="6.66131">
        <ele>913.58484</ele>
        <time>2014-08-26T16:03:59Z</time>
      </trkpt>
      <trkpt lat="46.35842" lon="6.66119">
        <ele>913.58484</ele>
        <time>2014-08-26T16:04:04Z</time>
      </trkpt>
      <trkpt lat="46.3584" lon="6.66111">
        <ele>912.00305</ele>
        <time>2014-08-26T16:04:09Z</time>
      </trkpt>
      <trkpt lat="46.35838" lon="6.66103">
        <ele>912.00305</ele>
        <time>2014-08-26T16:04:14Z</time>
      </trkpt>
      <trkpt lat="46.35839" lon="6.66095">
        <ele>910.5086</ele>
        <time>2014-08-26T16:04:19Z</time>
      </trkpt>
      <trkpt lat="46.35836" lon="6.66087">
        <ele>910.5086</ele>
        <time>2014-08-26T16:04:24Z</time>
      </trkpt>
      <trkpt lat="46.35835" lon="6.66078">
        <ele>909.07135</ele>
        <time>2014-08-26T16:04:29Z</time>
      </trkpt>
      <trkpt lat="46.35833" lon="6.66069">
        <ele>909.07135</ele>
        <time>2014-08-26T16:04:34Z</time>
      </trkpt>
      <trkpt lat="46.3583" lon="6.66061">
        <ele>907.7065</ele>
        <time>2014-08-26T16:04:39Z</time>
      </trkpt>
      <trkpt lat="46.35828" lon="6.66057">
        <ele>907.7065</ele>
        <time>2014-08-26T16:04:44Z</time>
      </trkpt>
      <trkpt lat="46.35827" lon="6.66049">
        <ele>906.3844</ele>
        <time>2014-08-26T16:04:49Z</time>
      </trkpt>
      <trkpt lat="46.35828" lon="6.6604">
        <ele>906.3844</ele>
        <time>2014-08-26T16:04:54Z</time>
      </trkpt>
      <trkpt lat="46.3583" lon="6.6603">
        <ele>905.1351</ele>
        <time>2014-08-26T16:04:59Z</time>
      </trkpt>
      <trkpt lat="46.35834" lon="6.66022">
        <ele>905.1351</ele>
        <time>2014-08-26T16:05:04Z</time>
      </trkpt>
      <trkpt lat="46.35839" lon="6.66017">
        <ele>904.04364</ele>
        <time>2014-08-26T16:05:09Z</time>
      </trkpt>
      <trkpt lat="46.35843" lon="6.66011">
        <ele>904.04364</ele>
        <time>2014-08-26T16:05:14Z</time>
      </trkpt>
      <trkpt lat="46.35845" lon="6.66006">
        <ele>903.1162</ele>
        <time>2014-08-26T16:05:19Z</time>
      </trkpt>
      <trkpt lat="46.35848" lon="6.66004">
        <ele>903.1162</ele>
        <time>2014-08-26T16:05:24Z</time>
      </trkpt>
      <trkpt lat="46.3585" lon="6.66002">
        <ele>903.1162</ele>
        <time>2014-08-26T16:05:29Z</time>
      </trkpt>
      <trkpt lat="46.35853" lon="6.66001">
        <ele>903.1162</ele>
        <time>2014-08-26T16:05:34Z</time>
      </trkpt>
      <trkpt lat="46.35854" lon="6.66">
        <ele>902.19946</ele>
        <time>2014-08-26T16:05:39Z</time>
      </trkpt>
      <trkpt lat="46.35856" lon="6.66002">
        <ele>902.19946</ele>
        <time>2014-08-26T16:05:44Z</time>
      </trkpt>
      <trkpt lat="46.35863" lon="6.66003">
        <ele>902.19946</ele>
        <time>2014-08-26T16:05:49Z</time>
      </trkpt>
      <trkpt lat="46.35864" lon="6.66004">
        <ele>901.3528</ele>
        <time>2014-08-26T16:05:54Z</time>
      </trkpt>
      <trkpt lat="46.35863" lon="6.66005">
        <ele>901.3528</ele>
        <time>2014-08-26T16:05:59Z</time>
      </trkpt>
      <trkpt lat="46.35864" lon="6.66004">
        <ele>901.3528</ele>
        <time>2014-08-26T16:06:04Z</time>
      </trkpt>
      <trkpt lat="46.35865" lon="6.66005">
        <ele>901.3528</ele>
        <time>2014-08-26T16:06:09Z</time>
      </trkpt>
      <trkpt lat="46.35867" lon="6.66006">
        <ele>901.3528</ele>
        <time>2014-08-26T16:06:14Z</time>
      </trkpt>
      <trkpt lat="46.35866" lon="6.66002">
        <ele>901.3528</ele>
        <time>2014-08-26T16:06:19Z</time>
      </trkpt>
      <trkpt lat="46.35865" lon="6.65998">
        <ele>900.67426</ele>
        <time>2014-08-26T16:06:24Z</time>
      </trkpt>
      <trkpt lat="46.35865" lon="6.65989">
        <ele>900.67426</ele>
        <time>2014-08-26T16:06:29Z</time>
      </trkpt>
      <trkpt lat="46.3586" lon="6.65969">
        <ele>900.1386</ele>
        <time>2014-08-26T16:06:34Z</time>
      </trkpt>
      <trkpt lat="46.35857" lon="6.65958">
        <ele>900.1386</ele>
        <time>2014-08-26T16:06:39Z</time>
      </trkpt>
      <trkpt lat="46.35853" lon="6.6595">
        <ele>899.82306</ele>
        <time>2014-08-26T16:06:44Z</time>
      </trkpt>
      <trkpt lat="46.35851" lon="6.65941">
        <ele>899.82306</ele>
        <time>2014-08-26T16:06:49Z</time>
      </trkpt>
      <trkpt lat="46.35851" lon="6.65941">
        <ele>899.82306</ele>
        <time>2014-08-26T16:06:54Z</time>
      </trkpt>
      <trkpt lat="46.3585" lon="6.65942">
        <ele>899.82306</ele>
        <time>2014-08-26T16:06:59Z</time>
      </trkpt>
      <trkpt lat="46.35851" lon="6.65944">
        <ele>899.62524</ele>
        <time>2014-08-26T16:07:04Z</time>
      </trkpt>
      <trkpt lat="46.35851" lon="6.65945">
        <ele>899.62524</ele>
        <time>2014-08-26T16:07:09Z</time>
      </trkpt>
      <trkpt lat="46.35851" lon="6.65946">
        <ele>899.62524</ele>
        <time>2014-08-26T16:07:14Z</time>
      </trkpt>
      <trkpt lat="46.35851" lon="6.65947">
        <ele>899.62524</ele>
        <time>2014-08-26T16:07:19Z</time>
      </trkpt>
      <trkpt lat="46.35851" lon="6.65948">
        <ele>899.62524</ele>
        <time>2014-08-26T16:07:24Z</time>
      </trkpt>
      <trkpt lat="46.35852" lon="6.65947">
        <ele>899.62524</ele>
        <time>2014-08-26T16:07:29Z</time>
      </trkpt>
      <trkpt lat="46.35857" lon="6.65944">
        <ele>899.2483</ele>
        <time>2014-08-26T16:07:34Z</time>
      </trkpt>
      <trkpt lat="46.35864" lon="6.65943">
        <ele>899.2483</ele>
        <time>2014-08-26T16:07:39Z</time>
      </trkpt>
      <trkpt lat="46.3587" lon="6.65937">
        <ele>898.9075</ele>
        <time>2014-08-26T16:07:44Z</time>
      </trkpt>
      <trkpt lat="46.35878" lon="6.65934">
        <ele>898.9075</ele>
        <time>2014-08-26T16:07:49Z</time>
      </trkpt>
      <trkpt lat="46.35884" lon="6.65931">
        <ele>898.72986</ele>
        <time>2014-08-26T16:07:54Z</time>
      </trkpt>
      <trkpt lat="46.3589" lon="6.65929">
        <ele>898.72986</ele>
        <time>2014-08-26T16:07:59Z</time>
      </trkpt>
      <trkpt lat="46.35894" lon="6.65926">
        <ele>898.6022</ele>
        <time>2014-08-26T16:08:04Z</time>
      </trkpt>
      <trkpt lat="46.35896" lon="6.65921">
        <ele>898.6022</ele>
        <time>2014-08-26T16:08:09Z</time>
      </trkpt>
      <trkpt lat="46.35897" lon="6.65911">
        <ele>898.5778</ele>
        <time>2014-08-26T16:08:14Z</time>
      </trkpt>
      <trkpt lat="46.35898" lon="6.65904">
        <ele>898.5778</ele>
        <time>2014-08-26T16:08:19Z</time>
      </trkpt>
      <trkpt lat="46.359" lon="6.65896">
        <ele>898.6769</ele>
        <time>2014-08-26T16:08:24Z</time>
      </trkpt>
      <trkpt lat="46.35903" lon="6.6589">
        <ele>898.6769</ele>
        <time>2014-08-26T16:08:29Z</time>
      </trkpt>
      <trkpt lat="46.35907" lon="6.65885">
        <ele>898.80255</ele>
        <time>2014-08-26T16:08:34Z</time>
      </trkpt>
      <trkpt lat="46.35913" lon="6.6588">
        <ele>898.80255</ele>
        <time>2014-08-26T16:08:39Z</time>
      </trkpt>
      <trkpt lat="46.35919" lon="6.65876">
        <ele>898.92236</ele>
        <time>2014-08-26T16:08:44Z</time>
      </trkpt>
      <trkpt lat="46.35924" lon="6.65872">
        <ele>898.92236</ele>
        <time>2014-08-26T16:08:49Z</time>
      </trkpt>
      <trkpt lat="46.35929" lon="6.65869">
        <ele>899.0784</ele>
        <time>2014-08-26T16:08:54Z</time>
      </trkpt>
      <trkpt lat="46.35936" lon="6.65867">
        <ele>899.0784</ele>
        <time>2014-08-26T16:08:59Z</time>
      </trkpt>
      <trkpt lat="46.3594" lon="6.65863">
        <ele>899.28076</ele>
        <time>2014-08-26T16:09:04Z</time>
      </trkpt>
      <trkpt lat="46.35944" lon="6.65859">
        <ele>899.28076</ele>
        <time>2014-08-26T16:09:09Z</time>
      </trkpt>
      <trkpt lat="46.35949" lon="6.65856">
        <ele>899.53845</ele>
        <time>2014-08-26T16:09:14Z</time>
      </trkpt>
      <trkpt lat="46.35955" lon="6.65855">
        <ele>899.53845</ele>
        <time>2014-08-26T16:09:19Z</time>
      </trkpt>
      <trkpt lat="46.35962" lon="6.65853">
        <ele>899.8598</ele>
        <time>2014-08-26T16:09:24Z</time>
      </trkpt>
      <trkpt lat="46.35967" lon="6.65853">
        <ele>899.8598</ele>
        <time>2014-08-26T16:09:29Z</time>
      </trkpt>
      <trkpt lat="46.35974" lon="6.65853">
        <ele>900.19464</ele>
        <time>2014-08-26T16:09:34Z</time>
      </trkpt>
      <trkpt lat="46.3598" lon="6.65852">
        <ele>900.19464</ele>
        <time>2014-08-26T16:09:39Z</time>
      </trkpt>
      <trkpt lat="46.35985" lon="6.65852">
        <ele>900.48193</ele>
        <time>2014-08-26T16:09:44Z</time>
      </trkpt>
      <trkpt lat="46.35991" lon="6.6585">
        <ele>900.48193</ele>
        <time>2014-08-26T16:09:49Z</time>
      </trkpt>
      <trkpt lat="46.36" lon="6.65849">
        <ele>900.7231</ele>
        <time>2014-08-26T16:09:54Z</time>
      </trkpt>
      <trkpt lat="46.36004" lon="6.65848">
        <ele>900.7231</ele>
        <time>2014-08-26T16:09:59Z</time>
      </trkpt>
      <trkpt lat="46.36008" lon="6.65845">
        <ele>900.97705</ele>
        <time>2014-08-26T16:10:04Z</time>
      </trkpt>
      <trkpt lat="46.36013" lon="6.65843">
        <ele>900.97705</ele>
        <time>2014-08-26T16:10:09Z</time>
      </trkpt>
      <trkpt lat="46.3602" lon="6.6584">
        <ele>901.2552</ele>
        <time>2014-08-26T16:10:14Z</time>
      </trkpt>
      <trkpt lat="46.36027" lon="6.65836">
        <ele>901.2552</ele>
        <time>2014-08-26T16:10:19Z</time>
      </trkpt>
      <trkpt lat="46.36034" lon="6.65831">
        <ele>901.6257</ele>
        <time>2014-08-26T16:10:24Z</time>
      </trkpt>
      <trkpt lat="46.36039" lon="6.65827">
        <ele>901.6257</ele>
        <time>2014-08-26T16:10:29Z</time>
      </trkpt>
      <trkpt lat="46.36043" lon="6.65821">
        <ele>902.0362</ele>
        <time>2014-08-26T16:10:34Z</time>
      </trkpt>
      <trkpt lat="46.36047" lon="6.65817">
        <ele>902.0362</ele>
        <time>2014-08-26T16:10:39Z</time>
      </trkpt>
      <trkpt lat="46.36051" lon="6.65813">
        <ele>902.39484</ele>
        <time>2014-08-26T16:10:44Z</time>
      </trkpt>
      <trkpt lat="46.36054" lon="6.65808">
        <ele>902.39484</ele>
        <time>2014-08-26T16:10:49Z</time>
      </trkpt>
      <trkpt lat="46.36057" lon="6.65802">
        <ele>902.7464</ele>
        <time>2014-08-26T16:10:54Z</time>
      </trkpt>
      <trkpt lat="46.36063" lon="6.65797">
        <ele>902.7464</ele>
        <time>2014-08-26T16:10:59Z</time>
      </trkpt>
      <trkpt lat="46.36068" lon="6.65796">
        <ele>903.1612</ele>
        <time>2014-08-26T16:11:04Z</time>
      </trkpt>
      <trkpt lat="46.36073" lon="6.65794">
        <ele>903.1612</ele>
        <time>2014-08-26T16:11:09Z</time>
      </trkpt>
      <trkpt lat="46.36076" lon="6.6579">
        <ele>903.7188</ele>
        <time>2014-08-26T16:11:14Z</time>
      </trkpt>
      <trkpt lat="46.36082" lon="6.65785">
        <ele>903.7188</ele>
        <time>2014-08-26T16:11:19Z</time>
      </trkpt>
      <trkpt lat="46.36085" lon="6.65783">
        <ele>904.3051</ele>
        <time>2014-08-26T16:11:24Z</time>
      </trkpt>
      <trkpt lat="46.3609" lon="6.65778">
        <ele>904.3051</ele>
        <time>2014-08-26T16:11:29Z</time>
      </trkpt>
      <trkpt lat="46.36093" lon="6.65772">
        <ele>904.8721</ele>
        <time>2014-08-26T16:11:34Z</time>
      </trkpt>
      <trkpt lat="46.36096" lon="6.65765">
        <ele>904.8721</ele>
        <time>2014-08-26T16:11:39Z</time>
      </trkpt>
      <trkpt lat="46.36099" lon="6.65757">
        <ele>905.43286</ele>
        <time>2014-08-26T16:11:44Z</time>
      </trkpt>
      <trkpt lat="46.36101" lon="6.6575">
        <ele>905.43286</ele>
        <time>2014-08-26T16:11:49Z</time>
      </trkpt>
      <trkpt lat="46.36104" lon="6.65745">
        <ele>905.9855</ele>
        <time>2014-08-26T16:11:54Z</time>
      </trkpt>
      <trkpt lat="46.36106" lon="6.65736">
        <ele>905.9855</ele>
        <time>2014-08-26T16:11:59Z</time>
      </trkpt>
      <trkpt lat="46.36109" lon="6.65729">
        <ele>906.4847</ele>
        <time>2014-08-26T16:12:04Z</time>
      </trkpt>
      <trkpt lat="46.36111" lon="6.65726">
        <ele>906.4847</ele>
        <time>2014-08-26T16:12:09Z</time>
      </trkpt>
      <trkpt lat="46.36117" lon="6.6572">
        <ele>907.03314</ele>
        <time>2014-08-26T16:12:14Z</time>
      </trkpt>
      <trkpt lat="46.36121" lon="6.65714">
        <ele>907.03314</ele>
        <time>2014-08-26T16:12:19Z</time>
      </trkpt>
      <trkpt lat="46.36125" lon="6.65709">
        <ele>907.63934</ele>
        <time>2014-08-26T16:12:24Z</time>
      </trkpt>
      <trkpt lat="46.36127" lon="6.65704">
        <ele>907.63934</ele>
        <time>2014-08-26T16:12:29Z</time>
      </trkpt>
      <trkpt lat="46.36129" lon="6.65698">
        <ele>907.63934</ele>
        <time>2014-08-26T16:12:34Z</time>
      </trkpt>
      <trkpt lat="46.36136" lon="6.65692">
        <ele>908.28217</ele>
        <time>2014-08-26T16:12:39Z</time>
      </trkpt>
      <trkpt lat="46.36139" lon="6.65686">
        <ele>908.28217</ele>
        <time>2014-08-26T16:12:44Z</time>
      </trkpt>
      <trkpt lat="46.36142" lon="6.65678">
        <ele>908.9277</ele>
        <time>2014-08-26T16:12:49Z</time>
      </trkpt>
      <trkpt lat="46.36146" lon="6.65674">
        <ele>908.9277</ele>
        <time>2014-08-26T16:12:54Z</time>
      </trkpt>
      <trkpt lat="46.3615" lon="6.65672">
        <ele>909.631</ele>
        <time>2014-08-26T16:12:59Z</time>
      </trkpt>
      <trkpt lat="46.36151" lon="6.65671">
        <ele>909.631</ele>
        <time>2014-08-26T16:13:04Z</time>
      </trkpt>
      <trkpt lat="46.36155" lon="6.65668">
        <ele>909.631</ele>
        <time>2014-08-26T16:13:09Z</time>
      </trkpt>
      <trkpt lat="46.36163" lon="6.65666">
        <ele>910.4285</ele>
        <time>2014-08-26T16:13:14Z</time>
      </trkpt>
      <trkpt lat="46.36169" lon="6.65664">
        <ele>910.4285</ele>
        <time>2014-08-26T16:13:19Z</time>
      </trkpt>
      <trkpt lat="46.36173" lon="6.65663">
        <ele>911.2676</ele>
        <time>2014-08-26T16:13:24Z</time>
      </trkpt>
      <trkpt lat="46.36179" lon="6.65661">
        <ele>911.2676</ele>
        <time>2014-08-26T16:13:29Z</time>
      </trkpt>
      <trkpt lat="46.36184" lon="6.6566">
        <ele>912.1712</ele>
        <time>2014-08-26T16:13:34Z</time>
      </trkpt>
      <trkpt lat="46.36188" lon="6.65659">
        <ele>912.1712</ele>
        <time>2014-08-26T16:13:39Z</time>
      </trkpt>
      <trkpt lat="46.36192" lon="6.65658">
        <ele>912.1712</ele>
        <time>2014-08-26T16:13:44Z</time>
      </trkpt>
      <trkpt lat="46.36196" lon="6.65656">
        <ele>913.10297</ele>
        <time>2014-08-26T16:13:49Z</time>
      </trkpt>
      <trkpt lat="46.36202" lon="6.65653">
        <ele>913.10297</ele>
        <time>2014-08-26T16:13:54Z</time>
      </trkpt>
      <trkpt lat="46.36209" lon="6.65651">
        <ele>914.087</ele>
        <time>2014-08-26T16:13:59Z</time>
      </trkpt>
      <trkpt lat="46.36211" lon="6.6565">
        <ele>914.087</ele>
        <time>2014-08-26T16:14:04Z</time>
      </trkpt>
      <trkpt lat="46.36215" lon="6.65648">
        <ele>914.087</ele>
        <time>2014-08-26T16:14:09Z</time>
      </trkpt>
      <trkpt lat="46.36221" lon="6.65644">
        <ele>915.2029</ele>
        <time>2014-08-26T16:14:14Z</time>
      </trkpt>
      <trkpt lat="46.36227" lon="6.65641">
        <ele>915.2029</ele>
        <time>2014-08-26T16:14:19Z</time>
      </trkpt>
      <trkpt lat="46.36234" lon="6.65638">
        <ele>916.33704</ele>
        <time>2014-08-26T16:14:24Z</time>
      </trkpt>
      <trkpt lat="46.36235" lon="6.65636">
        <ele>916.33704</ele>
        <time>2014-08-26T16:14:29Z</time>
      </trkpt>
      <trkpt lat="46.36236" lon="6.65631">
        <ele>916.33704</ele>
        <time>2014-08-26T16:14:34Z</time>
      </trkpt>
      <trkpt lat="46.36238" lon="6.65624">
        <ele>917.60034</ele>
        <time>2014-08-26T16:14:39Z</time>
      </trkpt>
      <trkpt lat="46.36241" lon="6.65618">
        <ele>917.60034</ele>
        <time>2014-08-26T16:14:44Z</time>
      </trkpt>
      <trkpt lat="46.36246" lon="6.65611">
        <ele>918.8069</ele>
        <time>2014-08-26T16:14:49Z</time>
      </trkpt>
      <trkpt lat="46.36247" lon="6.65605">
        <ele>918.8069</ele>
        <time>2014-08-26T16:14:54Z</time>
      </trkpt>
      <trkpt lat="46.36252" lon="6.65599">
        <ele>919.9723</ele>
        <time>2014-08-26T16:14:59Z</time>
      </trkpt>
      <trkpt lat="46.36254" lon="6.65592">
        <ele>919.9723</ele>
        <time>2014-08-26T16:15:04Z</time>
      </trkpt>
      <trkpt lat="46.3626" lon="6.65586">
        <ele>921.1254</ele>
        <time>2014-08-26T16:15:09Z</time>
      </trkpt>
      <trkpt lat="46.36263" lon="6.65581">
        <ele>921.1254</ele>
        <time>2014-08-26T16:15:14Z</time>
      </trkpt>
      <trkpt lat="46.36267" lon="6.65574">
        <ele>922.3076</ele>
        <time>2014-08-26T16:15:19Z</time>
      </trkpt>
      <trkpt lat="46.3627" lon="6.65569">
        <ele>922.3076</ele>
        <time>2014-08-26T16:15:24Z</time>
      </trkpt>
      <trkpt lat="46.36275" lon="6.65563">
        <ele>923.5285</ele>
        <time>2014-08-26T16:15:29Z</time>
      </trkpt>
      <trkpt lat="46.36279" lon="6.65559">
        <ele>923.5285</ele>
        <time>2014-08-26T16:15:34Z</time>
      </trkpt>
      <trkpt lat="46.36282" lon="6.65555">
        <ele>923.5285</ele>
        <time>2014-08-26T16:15:39Z</time>
      </trkpt>
      <trkpt lat="46.36286" lon="6.65552">
        <ele>924.8689</ele>
        <time>2014-08-26T16:15:44Z</time>
      </trkpt>
      <trkpt lat="46.36289" lon="6.6555">
        <ele>924.8689</ele>
        <time>2014-08-26T16:15:49Z</time>
      </trkpt>
      <trkpt lat="46.36293" lon="6.65551">
        <ele>924.8689</ele>
        <time>2014-08-26T16:15:54Z</time>
      </trkpt>
      <trkpt lat="46.36297" lon="6.65554">
        <ele>926.3747</ele>
        <time>2014-08-26T16:15:59Z</time>
      </trkpt>
      <trkpt lat="46.363" lon="6.65557">
        <ele>926.3747</ele>
        <time>2014-08-26T16:16:04Z</time>
      </trkpt>
      <trkpt lat="46.36305" lon="6.65562">
        <ele>927.8862</ele>
        <time>2014-08-26T16:16:09Z</time>
      </trkpt>
      <trkpt lat="46.36308" lon="6.65569">
        <ele>927.8862</ele>
        <time>2014-08-26T16:16:14Z</time>
      </trkpt>
      <trkpt lat="46.3631" lon="6.65579">
        <ele>929.2702</ele>
        <time>2014-08-26T16:16:19Z</time>
      </trkpt>
      <trkpt lat="46.36311" lon="6.65589">
        <ele>929.2702</ele>
        <time>2014-08-26T16:16:24Z</time>
      </trkpt>
      <trkpt lat="46.36313" lon="6.65594">
        <ele>930.53314</ele>
        <time>2014-08-26T16:16:29Z</time>
      </trkpt>
      <trkpt lat="46.36312" lon="6.65603">
        <ele>930.53314</ele>
        <time>2014-08-26T16:16:34Z</time>
      </trkpt>
      <trkpt lat="46.36313" lon="6.65609">
        <ele>931.7104</ele>
        <time>2014-08-26T16:16:39Z</time>
      </trkpt>
      <trkpt lat="46.36315" lon="6.65616">
        <ele>931.7104</ele>
        <time>2014-08-26T16:16:44Z</time>
      </trkpt>
      <trkpt lat="46.36318" lon="6.65623">
        <ele>932.8495</ele>
        <time>2014-08-26T16:16:49Z</time>
      </trkpt>
      <trkpt lat="46.3632" lon="6.65628">
        <ele>932.8495</ele>
        <time>2014-08-26T16:16:54Z</time>
      </trkpt>
      <trkpt lat="46.36321" lon="6.6563">
        <ele>932.8495</ele>
        <time>2014-08-26T16:16:59Z</time>
      </trkpt>
      <trkpt lat="46.36322" lon="6.6563">
        <ele>932.8495</ele>
        <time>2014-08-26T16:17:04Z</time>
      </trkpt>
      <trkpt lat="46.36322" lon="6.65632">
        <ele>932.8495</ele>
        <time>2014-08-26T16:17:09Z</time>
      </trkpt>
      <trkpt lat="46.36322" lon="6.65636">
        <ele>934.0668</ele>
        <time>2014-08-26T16:17:14Z</time>
      </trkpt>
      <trkpt lat="46.36325" lon="6.65645">
        <ele>934.0668</ele>
        <time>2014-08-26T16:17:19Z</time>
      </trkpt>
      <trkpt lat="46.36327" lon="6.65654">
        <ele>935.35455</ele>
        <time>2014-08-26T16:17:24Z</time>
      </trkpt>
      <trkpt lat="46.36329" lon="6.6566">
        <ele>935.35455</ele>
        <time>2014-08-26T16:17:29Z</time>
      </trkpt>
      <trkpt lat="46.36328" lon="6.65665">
        <ele>935.35455</ele>
        <time>2014-08-26T16:17:34Z</time>
      </trkpt>
      <trkpt lat="46.36328" lon="6.65666">
        <ele>935.35455</ele>
        <time>2014-08-26T16:17:39Z</time>
      </trkpt>
      <trkpt lat="46.36328" lon="6.65663">
        <ele>936.8354</ele>
        <time>2014-08-26T16:17:44Z</time>
      </trkpt>
      <trkpt lat="46.36329" lon="6.65666">
        <ele>936.8354</ele>
        <time>2014-08-26T16:17:49Z</time>
      </trkpt>
      <trkpt lat="46.36333" lon="6.65672">
        <ele>936.8354</ele>
        <time>2014-08-26T16:17:54Z</time>
      </trkpt>
      <trkpt lat="46.36335" lon="6.65677">
        <ele>938.0458</ele>
        <time>2014-08-26T16:17:59Z</time>
      </trkpt>
      <trkpt lat="46.36337" lon="6.65683">
        <ele>938.0458</ele>
        <time>2014-08-26T16:18:04Z</time>
      </trkpt>
      <trkpt lat="46.36338" lon="6.65689">
        <ele>938.0458</ele>
        <time>2014-08-26T16:18:09Z</time>
      </trkpt>
      <trkpt lat="46.36341" lon="6.65694">
        <ele>939.03296</ele>
        <time>2014-08-26T16:18:14Z</time>
      </trkpt>
      <trkpt lat="46.36341" lon="6.65703">
        <ele>939.03296</ele>
        <time>2014-08-26T16:18:19Z</time>
      </trkpt>
      <trkpt lat="46.36342" lon="6.65709">
        <ele>939.6538</ele>
        <time>2014-08-26T16:18:24Z</time>
      </trkpt>
      <trkpt lat="46.36345" lon="6.65716">
        <ele>939.6538</ele>
        <time>2014-08-26T16:18:29Z</time>
      </trkpt>
      <trkpt lat="46.36349" lon="6.65725">
        <ele>940.1373</ele>
        <time>2014-08-26T16:18:34Z</time>
      </trkpt>
      <trkpt lat="46.3635" lon="6.65732">
        <ele>940.1373</ele>
        <time>2014-08-26T16:18:39Z</time>
      </trkpt>
      <trkpt lat="46.36352" lon="6.65739">
        <ele>940.7392</ele>
        <time>2014-08-26T16:18:44Z</time>
      </trkpt>
      <trkpt lat="46.36354" lon="6.65746">
        <ele>940.7392</ele>
        <time>2014-08-26T16:18:49Z</time>
      </trkpt>
      <trkpt lat="46.36357" lon="6.65755">
        <ele>941.5089</ele>
        <time>2014-08-26T16:18:54Z</time>
      </trkpt>
      <trkpt lat="46.36358" lon="6.65763">
        <ele>941.5089</ele>
        <time>2014-08-26T16:18:59Z</time>
      </trkpt>
      <trkpt lat="46.36361" lon="6.6577">
        <ele>942.54944</ele>
        <time>2014-08-26T16:19:04Z</time>
      </trkpt>
      <trkpt lat="46.36363" lon="6.65779">
        <ele>942.54944</ele>
        <time>2014-08-26T16:19:09Z</time>
      </trkpt>
      <trkpt lat="46.36367" lon="6.65786">
        <ele>944.0132</ele>
        <time>2014-08-26T16:19:14Z</time>
      </trkpt>
      <trkpt lat="46.36369" lon="6.6579">
        <ele>944.0132</ele>
        <time>2014-08-26T16:19:19Z</time>
      </trkpt>
      <trkpt lat="46.36368" lon="6.65798">
        <ele>945.72314</ele>
        <time>2014-08-26T16:19:24Z</time>
      </trkpt>
      <trkpt lat="46.3637" lon="6.65806">
        <ele>945.72314</ele>
        <time>2014-08-26T16:19:29Z</time>
      </trkpt>
      <trkpt lat="46.36373" lon="6.65811">
        <ele>947.63</ele>
        <time>2014-08-26T16:19:34Z</time>
      </trkpt>
      <trkpt lat="46.36374" lon="6.65818">
        <ele>947.63</ele>
        <time>2014-08-26T16:19:39Z</time>
      </trkpt>
      <trkpt lat="46.36376" lon="6.65826">
        <ele>949.45703</ele>
        <time>2014-08-26T16:19:44Z</time>
      </trkpt>
      <trkpt lat="46.36379" lon="6.65832">
        <ele>949.45703</ele>
        <time>2014-08-26T16:19:49Z</time>
      </trkpt>
      <trkpt lat="46.36381" lon="6.6584">
        <ele>951.30835</ele>
        <time>2014-08-26T16:19:54Z</time>
      </trkpt>
      <trkpt lat="46.36383" lon="6.65846">
        <ele>951.30835</ele>
        <time>2014-08-26T16:19:59Z</time>
      </trkpt>
      <trkpt lat="46.36384" lon="6.65848">
        <ele>951.30835</ele>
        <time>2014-08-26T16:20:04Z</time>
      </trkpt>
      <trkpt lat="46.36385" lon="6.65852">
        <ele>953.5255</ele>
        <time>2014-08-26T16:20:09Z</time>
      </trkpt>
      <trkpt lat="46.36385" lon="6.65855">
        <ele>953.5255</ele>
        <time>2014-08-26T16:20:14Z</time>
      </trkpt>
      <trkpt lat="46.36389" lon="6.65866">
        <ele>955.7033</ele>
        <time>2014-08-26T16:20:19Z</time>
      </trkpt>
      <trkpt lat="46.36389" lon="6.65866">
        <ele>955.7033</ele>
        <time>2014-08-26T16:20:24Z</time>
      </trkpt>
      <trkpt lat="46.36394" lon="6.65867">
        <ele>955.7033</ele>
        <time>2014-08-26T16:20:34Z</time>
      </trkpt>
      <trkpt lat="46.364" lon="6.65866">
        <ele>957.4666</ele>
        <time>2014-08-26T16:20:39Z</time>
      </trkpt>
      <trkpt lat="46.36404" lon="6.65861">
        <ele>957.4666</ele>
        <time>2014-08-26T16:20:44Z</time>
      </trkpt>
      <trkpt lat="46.36406" lon="6.65855">
        <ele>958.9014</ele>
        <time>2014-08-26T16:20:49Z</time>
      </trkpt>
      <trkpt lat="46.36407" lon="6.6585">
        <ele>958.9014</ele>
        <time>2014-08-26T16:20:54Z</time>
      </trkpt>
      <trkpt lat="46.36408" lon="6.65844">
        <ele>958.9014</ele>
        <time>2014-08-26T16:20:59Z</time>
      </trkpt>
      <trkpt lat="46.36408" lon="6.65838">
        <ele>959.9442</ele>
        <time>2014-08-26T16:21:04Z</time>
      </trkpt>
      <trkpt lat="46.36409" lon="6.65828">
        <ele>959.9442</ele>
        <time>2014-08-26T16:21:09Z</time>
      </trkpt>
      <trkpt lat="46.3641" lon="6.65821">
        <ele>960.7248</ele>
        <time>2014-08-26T16:21:14Z</time>
      </trkpt>
      <trkpt lat="46.3641" lon="6.65814">
        <ele>960.7248</ele>
        <time>2014-08-26T16:21:19Z</time>
      </trkpt>
      <trkpt lat="46.3641" lon="6.65807">
        <ele>961.3065</ele>
        <time>2014-08-26T16:21:24Z</time>
      </trkpt>
      <trkpt lat="46.36411" lon="6.65801">
        <ele>961.3065</ele>
        <time>2014-08-26T16:21:29Z</time>
      </trkpt>
      <trkpt lat="46.36411" lon="6.65794">
        <ele>961.3065</ele>
        <time>2014-08-26T16:21:34Z</time>
      </trkpt>
      <trkpt lat="46.36414" lon="6.65785">
        <ele>961.7919</ele>
        <time>2014-08-26T16:21:39Z</time>
      </trkpt>
      <trkpt lat="46.36416" lon="6.65778">
        <ele>961.7919</ele>
        <time>2014-08-26T16:21:44Z</time>
      </trkpt>
      <trkpt lat="46.36418" lon="6.65771">
        <ele>962.16095</ele>
        <time>2014-08-26T16:21:49Z</time>
      </trkpt>
      <trkpt lat="46.36419" lon="6.65766">
        <ele>962.16095</ele>
        <time>2014-08-26T16:21:54Z</time>
      </trkpt>
      <trkpt lat="46.36416" lon="6.65758">
        <ele>962.511</ele>
        <time>2014-08-26T16:21:59Z</time>
      </trkpt>
      <trkpt lat="46.36414" lon="6.65751">
        <ele>962.511</ele>
        <time>2014-08-26T16:22:04Z</time>
      </trkpt>
      <trkpt lat="46.36416" lon="6.65746">
        <ele>962.8312</ele>
        <time>2014-08-26T16:22:09Z</time>
      </trkpt>
      <trkpt lat="46.36417" lon="6.65739">
        <ele>962.8312</ele>
        <time>2014-08-26T16:22:14Z</time>
      </trkpt>
      <trkpt lat="46.36418" lon="6.6573">
        <ele>963.0396</ele>
        <time>2014-08-26T16:22:19Z</time>
      </trkpt>
      <trkpt lat="46.36419" lon="6.65725">
        <ele>963.0396</ele>
        <time>2014-08-26T16:22:24Z</time>
      </trkpt>
      <trkpt lat="46.36419" lon="6.65718">
        <ele>963.0396</ele>
        <time>2014-08-26T16:22:29Z</time>
      </trkpt>
      <trkpt lat="46.36423" lon="6.65709">
        <ele>963.10406</ele>
        <time>2014-08-26T16:22:34Z</time>
      </trkpt>
      <trkpt lat="46.36425" lon="6.65703">
        <ele>963.10406</ele>
        <time>2014-08-26T16:22:39Z</time>
      </trkpt>
      <trkpt lat="46.36426" lon="6.65698">
        <ele>963.10406</ele>
        <time>2014-08-26T16:22:44Z</time>
      </trkpt>
      <trkpt lat="46.36427" lon="6.65694">
        <ele>963.11017</ele>
        <time>2014-08-26T16:22:49Z</time>
      </trkpt>
      <trkpt lat="46.36427" lon="6.65688">
        <ele>963.11017</ele>
        <time>2014-08-26T16:22:54Z</time>
      </trkpt>
      <trkpt lat="46.36427" lon="6.65678">
        <ele>963.06555</ele>
        <time>2014-08-26T16:22:59Z</time>
      </trkpt>
      <trkpt lat="46.36428" lon="6.6567">
        <ele>963.06555</ele>
        <time>2014-08-26T16:23:04Z</time>
      </trkpt>
      <trkpt lat="46.36429" lon="6.65663">
        <ele>963.03503</ele>
        <time>2014-08-26T16:23:09Z</time>
      </trkpt>
      <trkpt lat="46.36431" lon="6.65656">
        <ele>963.03503</ele>
        <time>2014-08-26T16:23:14Z</time>
      </trkpt>
      <trkpt lat="46.36432" lon="6.65649">
        <ele>962.99207</ele>
        <time>2014-08-26T16:23:19Z</time>
      </trkpt>
      <trkpt lat="46.36432" lon="6.65636">
        <ele>962.99207</ele>
        <time>2014-08-26T16:23:24Z</time>
      </trkpt>
      <trkpt lat="46.36433" lon="6.65629">
        <ele>962.8832</ele>
        <time>2014-08-26T16:23:29Z</time>
      </trkpt>
      <trkpt lat="46.36435" lon="6.65624">
        <ele>962.8832</ele>
        <time>2014-08-26T16:23:34Z</time>
      </trkpt>
      <trkpt lat="46.36435" lon="6.65617">
        <ele>962.8832</ele>
        <time>2014-08-26T16:23:39Z</time>
      </trkpt>
      <trkpt lat="46.36435" lon="6.65612">
        <ele>962.80334</ele>
        <time>2014-08-26T16:23:44Z</time>
      </trkpt>
      <trkpt lat="46.36436" lon="6.65607">
        <ele>962.80334</ele>
        <time>2014-08-26T16:23:49Z</time>
      </trkpt>
      <trkpt lat="46.36437" lon="6.65602">
        <ele>962.80334</ele>
        <time>2014-08-26T16:23:54Z</time>
      </trkpt>
      <trkpt lat="46.36437" lon="6.65595">
        <ele>962.65283</ele>
        <time>2014-08-26T16:23:59Z</time>
      </trkpt>
      <trkpt lat="46.36433" lon="6.65586">
        <ele>962.65283</ele>
        <time>2014-08-26T16:24:04Z</time>
      </trkpt>
      <trkpt lat="46.36431" lon="6.65577">
        <ele>962.498</ele>
        <time>2014-08-26T16:24:09Z</time>
      </trkpt>
      <trkpt lat="46.36429" lon="6.65563">
        <ele>962.38586</ele>
        <time>2014-08-26T16:24:14Z</time>
      </trkpt>
      <trkpt lat="46.36433" lon="6.65554">
        <ele>962.38586</ele>
        <time>2014-08-26T16:24:19Z</time>
      </trkpt>
      <trkpt lat="46.36435" lon="6.65544">
        <ele>962.4031</ele>
        <time>2014-08-26T16:24:24Z</time>
      </trkpt>
      <trkpt lat="46.36435" lon="6.65537">
        <ele>962.4031</ele>
        <time>2014-08-26T16:24:29Z</time>
      </trkpt>
      <trkpt lat="46.36435" lon="6.65529">
        <ele>962.73035</ele>
        <time>2014-08-26T16:24:34Z</time>
      </trkpt>
      <trkpt lat="46.36435" lon="6.65521">
        <ele>962.73035</ele>
        <time>2014-08-26T16:24:39Z</time>
      </trkpt>
      <trkpt lat="46.36436" lon="6.65516">
        <ele>963.23145</ele>
        <time>2014-08-26T16:24:44Z</time>
      </trkpt>
      <trkpt lat="46.36438" lon="6.65509">
        <ele>963.23145</ele>
        <time>2014-08-26T16:24:49Z</time>
      </trkpt>
      <trkpt lat="46.36439" lon="6.65503">
        <ele>963.7654</ele>
        <time>2014-08-26T16:24:54Z</time>
      </trkpt>
      <trkpt lat="46.3644" lon="6.65494">
        <ele>963.7654</ele>
        <time>2014-08-26T16:24:59Z</time>
      </trkpt>
      <trkpt lat="46.3644" lon="6.65488">
        <ele>964.3164</ele>
        <time>2014-08-26T16:25:04Z</time>
      </trkpt>
      <trkpt lat="46.3644" lon="6.65479">
        <ele>964.3164</ele>
        <time>2014-08-26T16:25:09Z</time>
      </trkpt>
      <trkpt lat="46.36439" lon="6.65471">
        <ele>964.9708</ele>
        <time>2014-08-26T16:25:14Z</time>
      </trkpt>
      <trkpt lat="46.36442" lon="6.65461">
        <ele>964.9708</ele>
        <time>2014-08-26T16:25:19Z</time>
      </trkpt>
      <trkpt lat="46.36445" lon="6.65456">
        <ele>965.693</ele>
        <time>2014-08-26T16:25:24Z</time>
      </trkpt>
      <trkpt lat="46.36448" lon="6.6545">
        <ele>965.693</ele>
        <time>2014-08-26T16:25:29Z</time>
      </trkpt>
      <trkpt lat="46.3645" lon="6.65444">
        <ele>966.4639</ele>
        <time>2014-08-26T16:25:34Z</time>
      </trkpt>
      <trkpt lat="46.3645" lon="6.65438">
        <ele>966.4639</ele>
        <time>2014-08-26T16:25:39Z</time>
      </trkpt>
      <trkpt lat="46.36454" lon="6.6543">
        <ele>967.1362</ele>
        <time>2014-08-26T16:25:44Z</time>
      </trkpt>
      <trkpt lat="46.36458" lon="6.65424">
        <ele>967.1362</ele>
        <time>2014-08-26T16:25:49Z</time>
      </trkpt>
      <trkpt lat="46.36462" lon="6.65419">
        <ele>967.80414</ele>
        <time>2014-08-26T16:25:54Z</time>
      </trkpt>
      <trkpt lat="46.36466" lon="6.65413">
        <ele>967.80414</ele>
        <time>2014-08-26T16:25:59Z</time>
      </trkpt>
      <trkpt lat="46.36469" lon="6.65408">
        <ele>968.4827</ele>
        <time>2014-08-26T16:26:04Z</time>
      </trkpt>
      <trkpt lat="46.36472" lon="6.65404">
        <ele>968.4827</ele>
        <time>2014-08-26T16:26:09Z</time>
      </trkpt>
      <trkpt lat="46.36474" lon="6.654">
        <ele>968.4827</ele>
        <time>2014-08-26T16:26:14Z</time>
      </trkpt>
      <trkpt lat="46.36477" lon="6.65397">
        <ele>969.21484</ele>
        <time>2014-08-26T16:26:19Z</time>
      </trkpt>
      <trkpt lat="46.36482" lon="6.65394">
        <ele>969.21484</ele>
        <time>2014-08-26T16:26:24Z</time>
      </trkpt>
      <trkpt lat="46.3649" lon="6.65393">
        <ele>969.9823</ele>
        <time>2014-08-26T16:26:29Z</time>
      </trkpt>
      <trkpt lat="46.36497" lon="6.65397">
        <ele>969.9823</ele>
        <time>2014-08-26T16:26:34Z</time>
      </trkpt>
      <trkpt lat="46.36502" lon="6.65403">
        <ele>970.7537</ele>
        <time>2014-08-26T16:26:39Z</time>
      </trkpt>
      <trkpt lat="46.36503" lon="6.65411">
        <ele>970.7537</ele>
        <time>2014-08-26T16:26:44Z</time>
      </trkpt>
      <trkpt lat="46.36503" lon="6.65414">
        <ele>970.7537</ele>
        <time>2014-08-26T16:26:49Z</time>
      </trkpt>
      <trkpt lat="46.36503" lon="6.65423">
        <ele>971.44226</ele>
        <time>2014-08-26T16:26:54Z</time>
      </trkpt>
      <trkpt lat="46.36504" lon="6.65432">
        <ele>971.44226</ele>
        <time>2014-08-26T16:26:59Z</time>
      </trkpt>
      <trkpt lat="46.36503" lon="6.65439">
        <ele>972.1407</ele>
        <time>2014-08-26T16:27:04Z</time>
      </trkpt>
      <trkpt lat="46.36505" lon="6.65446">
        <ele>972.1407</ele>
        <time>2014-08-26T16:27:09Z</time>
      </trkpt>
      <trkpt lat="46.36505" lon="6.65454">
        <ele>972.84827</ele>
        <time>2014-08-26T16:27:14Z</time>
      </trkpt>
      <trkpt lat="46.36507" lon="6.6546">
        <ele>972.84827</ele>
        <time>2014-08-26T16:27:19Z</time>
      </trkpt>
      <trkpt lat="46.36508" lon="6.6547">
        <ele>973.4492</ele>
        <time>2014-08-26T16:27:24Z</time>
      </trkpt>
      <trkpt lat="46.3651" lon="6.65475">
        <ele>973.4492</ele>
        <time>2014-08-26T16:27:29Z</time>
      </trkpt>
      <trkpt lat="46.36508" lon="6.65485">
        <ele>973.9371</ele>
        <time>2014-08-26T16:27:34Z</time>
      </trkpt>
      <trkpt lat="46.36508" lon="6.65492">
        <ele>973.9371</ele>
        <time>2014-08-26T16:27:39Z</time>
      </trkpt>
      <trkpt lat="46.36508" lon="6.65501">
        <ele>974.39294</ele>
        <time>2014-08-26T16:27:44Z</time>
      </trkpt>
      <trkpt lat="46.36511" lon="6.65504">
        <ele>974.39294</ele>
        <time>2014-08-26T16:27:49Z</time>
      </trkpt>
      <trkpt lat="46.36512" lon="6.65511">
        <ele>974.39294</ele>
        <time>2014-08-26T16:27:54Z</time>
      </trkpt>
      <trkpt lat="46.36513" lon="6.65519">
        <ele>975.0359</ele>
        <time>2014-08-26T16:27:59Z</time>
      </trkpt>
      <trkpt lat="46.36514" lon="6.65525">
        <ele>975.0359</ele>
        <time>2014-08-26T16:28:04Z</time>
      </trkpt>
      <trkpt lat="46.36515" lon="6.65534">
        <ele>975.5785</ele>
        <time>2014-08-26T16:28:09Z</time>
      </trkpt>
      <trkpt lat="46.36516" lon="6.65541">
        <ele>975.5785</ele>
        <time>2014-08-26T16:28:14Z</time>
      </trkpt>
      <trkpt lat="46.36517" lon="6.65547">
        <ele>976.18695</ele>
        <time>2014-08-26T16:28:19Z</time>
      </trkpt>
      <trkpt lat="46.36518" lon="6.65554">
        <ele>976.18695</ele>
        <time>2014-08-26T16:28:24Z</time>
      </trkpt>
      <trkpt lat="46.36519" lon="6.65561">
        <ele>976.91425</ele>
        <time>2014-08-26T16:28:29Z</time>
      </trkpt>
      <trkpt lat="46.3652" lon="6.65566">
        <ele>976.91425</ele>
        <time>2014-08-26T16:28:34Z</time>
      </trkpt>
      <trkpt lat="46.36521" lon="6.65578">
        <ele>977.6217</ele>
        <time>2014-08-26T16:28:39Z</time>
      </trkpt>
      <trkpt lat="46.3652" lon="6.65589">
        <ele>977.6217</ele>
        <time>2014-08-26T16:28:44Z</time>
      </trkpt>
      <trkpt lat="46.36518" lon="6.656">
        <ele>978.2529</ele>
        <time>2014-08-26T16:28:49Z</time>
      </trkpt>
      <trkpt lat="46.36518" lon="6.65607">
        <ele>978.2529</ele>
        <time>2014-08-26T16:28:54Z</time>
      </trkpt>
      <trkpt lat="46.36519" lon="6.65613">
        <ele>978.2529</ele>
        <time>2014-08-26T16:28:59Z</time>
      </trkpt>
      <trkpt lat="46.36521" lon="6.65619">
        <ele>979.2315</ele>
        <time>2014-08-26T16:29:04Z</time>
      </trkpt>
      <trkpt lat="46.3652" lon="6.65627">
        <ele>979.2315</ele>
        <time>2014-08-26T16:29:09Z</time>
      </trkpt>
      <trkpt lat="46.3652" lon="6.65633">
        <ele>980.2571</ele>
        <time>2014-08-26T16:29:14Z</time>
      </trkpt>
      <trkpt lat="46.36521" lon="6.65639">
        <ele>980.2571</ele>
        <time>2014-08-26T16:29:19Z</time>
      </trkpt>
      <trkpt lat="46.3652" lon="6.65645">
        <ele>980.2571</ele>
        <time>2014-08-26T16:29:24Z</time>
      </trkpt>
      <trkpt lat="46.3652" lon="6.65651">
        <ele>981.4115</ele>
        <time>2014-08-26T16:29:29Z</time>
      </trkpt>
      <trkpt lat="46.3652" lon="6.65657">
        <ele>981.4115</ele>
        <time>2014-08-26T16:29:34Z</time>
      </trkpt>
      <trkpt lat="46.3652" lon="6.65664">
        <ele>981.4115</ele>
        <time>2014-08-26T16:29:39Z</time>
      </trkpt>
      <trkpt lat="46.36521" lon="6.6567">
        <ele>982.5253</ele>
        <time>2014-08-26T16:29:44Z</time>
      </trkpt>
      <trkpt lat="46.36524" lon="6.65677">
        <ele>982.5253</ele>
        <time>2014-08-26T16:29:49Z</time>
      </trkpt>
      <trkpt lat="46.36529" lon="6.6568">
        <ele>983.6722</ele>
        <time>2014-08-26T16:29:54Z</time>
      </trkpt>
      <trkpt lat="46.36535" lon="6.65685">
        <ele>983.6722</ele>
        <time>2014-08-26T16:29:59Z</time>
      </trkpt>
      <trkpt lat="46.36539" lon="6.65694">
        <ele>984.6897</ele>
        <time>2014-08-26T16:30:04Z</time>
      </trkpt>
      <trkpt lat="46.36542" lon="6.65702">
        <ele>984.6897</ele>
        <time>2014-08-26T16:30:09Z</time>
      </trkpt>
      <trkpt lat="46.36547" lon="6.65704">
        <ele>985.615</ele>
        <time>2014-08-26T16:30:14Z</time>
      </trkpt>
      <trkpt lat="46.36552" lon="6.65711">
        <ele>985.615</ele>
        <time>2014-08-26T16:30:19Z</time>
      </trkpt>
      <trkpt lat="46.36557" lon="6.65718">
        <ele>986.54047</ele>
        <time>2014-08-26T16:30:24Z</time>
      </trkpt>
      <trkpt lat="46.36559" lon="6.65722">
        <ele>986.54047</ele>
        <time>2014-08-26T16:30:29Z</time>
      </trkpt>
      <trkpt lat="46.36564" lon="6.65727">
        <ele>987.5229</ele>
        <time>2014-08-26T16:30:34Z</time>
      </trkpt>
      <trkpt lat="46.36568" lon="6.65733">
        <ele>987.5229</ele>
        <time>2014-08-26T16:30:39Z</time>
      </trkpt>
      <trkpt lat="46.36574" lon="6.65738">
        <ele>988.6148</ele>
        <time>2014-08-26T16:30:44Z</time>
      </trkpt>
      <trkpt lat="46.36576" lon="6.6574">
        <ele>988.6148</ele>
        <time>2014-08-26T16:30:49Z</time>
      </trkpt>
      <trkpt lat="46.36579" lon="6.65746">
        <ele>988.6148</ele>
        <time>2014-08-26T16:30:54Z</time>
      </trkpt>
      <trkpt lat="46.36583" lon="6.65753">
        <ele>989.8645</ele>
        <time>2014-08-26T16:30:59Z</time>
      </trkpt>
      <trkpt lat="46.36585" lon="6.65756">
        <ele>989.8645</ele>
        <time>2014-08-26T16:31:04Z</time>
      </trkpt>
      <trkpt lat="46.36585" lon="6.65756">
        <ele>989.8645</ele>
        <time>2014-08-26T16:31:09Z</time>
      </trkpt>
      <trkpt lat="46.36589" lon="6.65758">
        <ele>989.8645</ele>
        <time>2014-08-26T16:31:14Z</time>
      </trkpt>
      <trkpt lat="46.36596" lon="6.65763">
        <ele>990.86957</ele>
        <time>2014-08-26T16:31:19Z</time>
      </trkpt>
      <trkpt lat="46.36602" lon="6.65767">
        <ele>990.86957</ele>
        <time>2014-08-26T16:31:24Z</time>
      </trkpt>
      <trkpt lat="46.36607" lon="6.65772">
        <ele>991.74786</ele>
        <time>2014-08-26T16:31:29Z</time>
      </trkpt>
      <trkpt lat="46.36612" lon="6.65779">
        <ele>991.74786</ele>
        <time>2014-08-26T16:31:34Z</time>
      </trkpt>
      <trkpt lat="46.36616" lon="6.65783">
        <ele>992.62335</ele>
        <time>2014-08-26T16:31:39Z</time>
      </trkpt>
      <trkpt lat="46.36621" lon="6.65788">
        <ele>992.62335</ele>
        <time>2014-08-26T16:31:44Z</time>
      </trkpt>
      <trkpt lat="46.36624" lon="6.65794">
        <ele>993.5532</ele>
        <time>2014-08-26T16:31:49Z</time>
      </trkpt>
      <trkpt lat="46.36628" lon="6.65798">
        <ele>993.5532</ele>
        <time>2014-08-26T16:31:54Z</time>
      </trkpt>
      <trkpt lat="46.3663" lon="6.658">
        <ele>993.5532</ele>
        <time>2014-08-26T16:31:59Z</time>
      </trkpt>
      <trkpt lat="46.36635" lon="6.65794">
        <ele>994.6193</ele>
        <time>2014-08-26T16:32:04Z</time>
      </trkpt>
      <trkpt lat="46.36635" lon="6.65793">
        <ele>994.6193</ele>
        <time>2014-08-26T16:32:09Z</time>
      </trkpt>
      <trkpt lat="46.36635" lon="6.65792">
        <ele>994.6193</ele>
        <time>2014-08-26T16:32:14Z</time>
      </trkpt>
      <trkpt lat="46.36636" lon="6.65792">
        <ele>994.6193</ele>
        <time>2014-08-26T16:32:19Z</time>
      </trkpt>
      <trkpt lat="46.36636" lon="6.65791">
        <ele>994.6193</ele>
        <time>2014-08-26T16:32:24Z</time>
      </trkpt>
      <trkpt lat="46.36635" lon="6.6579">
        <ele>994.6193</ele>
        <time>2014-08-26T16:32:29Z</time>
      </trkpt>
      <trkpt lat="46.36634" lon="6.6579">
        <ele>994.6193</ele>
        <time>2014-08-26T16:32:34Z</time>
      </trkpt>
      <trkpt lat="46.36638" lon="6.65787">
        <ele>995.32056</ele>
        <time>2014-08-26T16:32:39Z</time>
      </trkpt>
      <trkpt lat="46.36643" lon="6.65778">
        <ele>995.32056</ele>
        <time>2014-08-26T16:32:44Z</time>
      </trkpt>
      <trkpt lat="46.36645" lon="6.65773">
        <ele>995.72687</ele>
        <time>2014-08-26T16:32:49Z</time>
      </trkpt>
      <trkpt lat="46.36649" lon="6.65765">
        <ele>995.72687</ele>
        <time>2014-08-26T16:32:54Z</time>
      </trkpt>
      <trkpt lat="46.3665" lon="6.65765">
        <ele>995.72687</ele>
        <time>2014-08-26T16:32:59Z</time>
      </trkpt>
      <trkpt lat="46.3665" lon="6.65764">
        <ele>995.72687</ele>
        <time>2014-08-26T16:33:04Z</time>
      </trkpt>
      <trkpt lat="46.36648" lon="6.65765">
        <ele>995.9617</ele>
        <time>2014-08-26T16:33:09Z</time>
      </trkpt>
      <trkpt lat="46.36648" lon="6.65765">
        <ele>995.9617</ele>
        <time>2014-08-26T16:33:14Z</time>
      </trkpt>
      <trkpt lat="46.36648" lon="6.65766">
        <ele>995.9617</ele>
        <time>2014-08-26T16:33:19Z</time>
      </trkpt>
      <trkpt lat="46.3665" lon="6.65767">
        <ele>995.9617</ele>
        <time>2014-08-26T16:33:24Z</time>
      </trkpt>
      <trkpt lat="46.36651" lon="6.65768">
        <ele>995.9617</ele>
        <time>2014-08-26T16:33:29Z</time>
      </trkpt>
      <trkpt lat="46.36651" lon="6.6577">
        <ele>995.9617</ele>
        <time>2014-08-26T16:33:34Z</time>
      </trkpt>
      <trkpt lat="46.36652" lon="6.65771">
        <ele>995.9617</ele>
        <time>2014-08-26T16:33:39Z</time>
      </trkpt>
      <trkpt lat="46.36652" lon="6.65771">
        <ele>995.9617</ele>
        <time>2014-08-26T16:33:44Z</time>
      </trkpt>
      <trkpt lat="46.36652" lon="6.65771">
        <ele>995.9617</ele>
        <time>2014-08-26T16:33:49Z</time>
      </trkpt>
      <trkpt lat="46.36652" lon="6.6577">
        <ele>995.9617</ele>
        <time>2014-08-26T16:33:54Z</time>
      </trkpt>
      <trkpt lat="46.36651" lon="6.65769">
        <ele>995.8371</ele>
        <time>2014-08-26T16:33:59Z</time>
      </trkpt>
      <trkpt lat="46.36649" lon="6.65769">
        <ele>995.8371</ele>
        <time>2014-08-26T16:34:04Z</time>
      </trkpt>
      <trkpt lat="46.36648" lon="6.65769">
        <ele>995.8371</ele>
        <time>2014-08-26T16:34:09Z</time>
      </trkpt>
      <trkpt lat="46.36648" lon="6.65768">
        <ele>995.8371</ele>
        <time>2014-08-26T16:34:14Z</time>
      </trkpt>
      <trkpt lat="46.36647" lon="6.65768">
        <ele>995.8371</ele>
        <time>2014-08-26T16:34:19Z</time>
      </trkpt>
      <trkpt lat="46.36647" lon="6.65768">
        <ele>995.8371</ele>
        <time>2014-08-26T16:34:24Z</time>
      </trkpt>
      <trkpt lat="46.36647" lon="6.65768">
        <ele>995.8371</ele>
        <time>2014-08-26T16:34:29Z</time>
      </trkpt>
      <trkpt lat="46.36647" lon="6.65768">
        <ele>995.8371</ele>
        <time>2014-08-26T16:34:34Z</time>
      </trkpt>
      <trkpt lat="46.36647" lon="6.65768">
        <ele>995.8371</ele>
        <time>2014-08-26T16:34:39Z</time>
      </trkpt>
      <trkpt lat="46.36646" lon="6.65767">
        <ele>995.8371</ele>
        <time>2014-08-26T16:34:44Z</time>
      </trkpt>
      <trkpt lat="46.36646" lon="6.65767">
        <ele>995.8371</ele>
        <time>2014-08-26T16:34:49Z</time>
      </trkpt>
      <trkpt lat="46.36647" lon="6.65767">
        <ele>995.8371</ele>
        <time>2014-08-26T16:34:54Z</time>
      </trkpt>
      <trkpt lat="46.36648" lon="6.65768">
        <ele>995.8371</ele>
        <time>2014-08-26T16:34:59Z</time>
      </trkpt>
      <trkpt lat="46.36649" lon="6.65767">
        <ele>995.8371</ele>
        <time>2014-08-26T16:35:04Z</time>
      </trkpt>
      <trkpt lat="46.36652" lon="6.65762">
        <ele>995.59796</ele>
        <time>2014-08-26T16:35:09Z</time>
      </trkpt>
      <trkpt lat="46.36652" lon="6.65752">
        <ele>995.59796</ele>
        <time>2014-08-26T16:35:14Z</time>
      </trkpt>
      <trkpt lat="46.36654" lon="6.65746">
        <ele>995.169</ele>
        <time>2014-08-26T16:35:19Z</time>
      </trkpt>
      <trkpt lat="46.36656" lon="6.65743">
        <ele>995.169</ele>
        <time>2014-08-26T16:35:24Z</time>
      </trkpt>
      <trkpt lat="46.36661" lon="6.65741">
        <ele>995.169</ele>
        <time>2014-08-26T16:35:29Z</time>
      </trkpt>
      <trkpt lat="46.36669" lon="6.65738">
        <ele>994.596</ele>
        <time>2014-08-26T16:35:34Z</time>
      </trkpt>
      <trkpt lat="46.36675" lon="6.65735">
        <ele>994.596</ele>
        <time>2014-08-26T16:35:39Z</time>
      </trkpt>
      <trkpt lat="46.36679" lon="6.6573">
        <ele>994.02295</ele>
        <time>2014-08-26T16:35:44Z</time>
      </trkpt>
      <trkpt lat="46.36682" lon="6.65727">
        <ele>994.02295</ele>
        <time>2014-08-26T16:35:49Z</time>
      </trkpt>
      <trkpt lat="46.36686" lon="6.65723">
        <ele>994.02295</ele>
        <time>2014-08-26T16:35:54Z</time>
      </trkpt>
      <trkpt lat="46.36692" lon="6.65718">
        <ele>993.4822</ele>
        <time>2014-08-26T16:35:59Z</time>
      </trkpt>
      <trkpt lat="46.36697" lon="6.65712">
        <ele>993.4822</ele>
        <time>2014-08-26T16:36:04Z</time>
      </trkpt>
      <trkpt lat="46.36702" lon="6.65709">
        <ele>992.9603</ele>
        <time>2014-08-26T16:36:09Z</time>
      </trkpt>
      <trkpt lat="46.36708" lon="6.65706">
        <ele>992.9603</ele>
        <time>2014-08-26T16:36:14Z</time>
      </trkpt>
      <trkpt lat="46.36709" lon="6.65705">
        <ele>992.9603</ele>
        <time>2014-08-26T16:36:19Z</time>
      </trkpt>
      <trkpt lat="46.36714" lon="6.65706">
        <ele>992.38727</ele>
        <time>2014-08-26T16:36:24Z</time>
      </trkpt>
      <trkpt lat="46.36721" lon="6.65709">
        <ele>992.38727</ele>
        <time>2014-08-26T16:36:29Z</time>
      </trkpt>
      <trkpt lat="46.36727" lon="6.6571">
        <ele>991.6981</ele>
        <time>2014-08-26T16:36:34Z</time>
      </trkpt>
      <trkpt lat="46.36732" lon="6.65707">
        <ele>991.6981</ele>
        <time>2014-08-26T16:36:39Z</time>
      </trkpt>
      <trkpt lat="46.36737" lon="6.65704">
        <ele>990.97723</ele>
        <time>2014-08-26T16:36:44Z</time>
      </trkpt>
      <trkpt lat="46.36742" lon="6.65695">
        <ele>990.97723</ele>
        <time>2014-08-26T16:36:49Z</time>
      </trkpt>
      <trkpt lat="46.36745" lon="6.65688">
        <ele>990.1297</ele>
        <time>2014-08-26T16:36:54Z</time>
      </trkpt>
      <trkpt lat="46.36746" lon="6.6568">
        <ele>990.1297</ele>
        <time>2014-08-26T16:36:59Z</time>
      </trkpt>
      <trkpt lat="46.36749" lon="6.65671">
        <ele>989.14014</ele>
        <time>2014-08-26T16:37:04Z</time>
      </trkpt>
      <trkpt lat="46.36752" lon="6.65662">
        <ele>989.14014</ele>
        <time>2014-08-26T16:37:09Z</time>
      </trkpt>
      <trkpt lat="46.36754" lon="6.65655">
        <ele>988.0953</ele>
        <time>2014-08-26T16:37:14Z</time>
      </trkpt>
      <trkpt lat="46.36756" lon="6.65646">
        <ele>988.0953</ele>
        <time>2014-08-26T16:37:19Z</time>
      </trkpt>
      <trkpt lat="46.36759" lon="6.65639">
        <ele>987.00366</ele>
        <time>2014-08-26T16:37:24Z</time>
      </trkpt>
      <trkpt lat="46.36763" lon="6.65633">
        <ele>987.00366</ele>
        <time>2014-08-26T16:37:29Z</time>
      </trkpt>
      <trkpt lat="46.36766" lon="6.65629">
        <ele>985.82996</ele>
        <time>2014-08-26T16:37:34Z</time>
      </trkpt>
      <trkpt lat="46.36771" lon="6.65625">
        <ele>985.82996</ele>
        <time>2014-08-26T16:37:39Z</time>
      </trkpt>
      <trkpt lat="46.36775" lon="6.6562">
        <ele>984.52704</ele>
        <time>2014-08-26T16:37:44Z</time>
      </trkpt>
      <trkpt lat="46.36781" lon="6.65614">
        <ele>984.52704</ele>
        <time>2014-08-26T16:37:49Z</time>
      </trkpt>
      <trkpt lat="46.36785" lon="6.65608">
        <ele>983.1238</ele>
        <time>2014-08-26T16:37:54Z</time>
      </trkpt>
      <trkpt lat="46.36789" lon="6.65605">
        <ele>983.1238</ele>
        <time>2014-08-26T16:37:59Z</time>
      </trkpt>
      <trkpt lat="46.36793" lon="6.65601">
        <ele>981.6469</ele>
        <time>2014-08-26T16:38:04Z</time>
      </trkpt>
      <trkpt lat="46.36796" lon="6.65596">
        <ele>981.6469</ele>
        <time>2014-08-26T16:38:09Z</time>
      </trkpt>
      <trkpt lat="46.36801" lon="6.65591">
        <ele>980.09265</ele>
        <time>2014-08-26T16:38:14Z</time>
      </trkpt>
      <trkpt lat="46.36805" lon="6.65587">
        <ele>980.09265</ele>
        <time>2014-08-26T16:38:19Z</time>
      </trkpt>
      <trkpt lat="46.36812" lon="6.65584">
        <ele>978.51495</ele>
        <time>2014-08-26T16:38:24Z</time>
      </trkpt>
      <trkpt lat="46.36817" lon="6.6558">
        <ele>978.51495</ele>
        <time>2014-08-26T16:38:29Z</time>
      </trkpt>
      <trkpt lat="46.36818" lon="6.65575">
        <ele>976.90643</ele>
        <time>2014-08-26T16:38:34Z</time>
      </trkpt>
      <trkpt lat="46.36821" lon="6.65571">
        <ele>976.90643</ele>
        <time>2014-08-26T16:38:39Z</time>
      </trkpt>
      <trkpt lat="46.36823" lon="6.6557">
        <ele>976.90643</ele>
        <time>2014-08-26T16:38:44Z</time>
      </trkpt>
      <trkpt lat="46.36822" lon="6.6557">
        <ele>976.90643</ele>
        <time>2014-08-26T16:38:49Z</time>
      </trkpt>
      <trkpt lat="46.36823" lon="6.6557">
        <ele>976.90643</ele>
        <time>2014-08-26T16:38:54Z</time>
      </trkpt>
      <trkpt lat="46.36824" lon="6.65573">
        <ele>975.1447</ele>
        <time>2014-08-26T16:38:59Z</time>
      </trkpt>
      <trkpt lat="46.36825" lon="6.65571">
        <ele>975.1447</ele>
        <time>2014-08-26T16:39:04Z</time>
      </trkpt>
      <trkpt lat="46.36824" lon="6.65568">
        <ele>975.1447</ele>
        <time>2014-08-26T16:39:09Z</time>
      </trkpt>
      <trkpt lat="46.36823" lon="6.65568">
        <ele>975.1447</ele>
        <time>2014-08-26T16:39:14Z</time>
      </trkpt>
      <trkpt lat="46.36822" lon="6.65566">
        <ele>975.1447</ele>
        <time>2014-08-26T16:39:19Z</time>
      </trkpt>
      <trkpt lat="46.3682" lon="6.65563">
        <ele>973.37604</ele>
        <time>2014-08-26T16:39:24Z</time>
      </trkpt>
      <trkpt lat="46.3682" lon="6.65562">
        <ele>973.37604</ele>
        <time>2014-08-26T16:39:29Z</time>
      </trkpt>
      <trkpt lat="46.36821" lon="6.65563">
        <ele>973.37604</ele>
        <time>2014-08-26T16:39:34Z</time>
      </trkpt>
      <trkpt lat="46.36826" lon="6.65571">
        <ele>971.7216</ele>
        <time>2014-08-26T16:39:39Z</time>
      </trkpt>
      <trkpt lat="46.36827" lon="6.65574">
        <ele>971.7216</ele>
        <time>2014-08-26T16:39:44Z</time>
      </trkpt>
      <trkpt lat="46.36827" lon="6.65577">
        <ele>971.7216</ele>
        <time>2014-08-26T16:39:49Z</time>
      </trkpt>
      <trkpt lat="46.36828" lon="6.65577">
        <ele>971.7216</ele>
        <time>2014-08-26T16:39:54Z</time>
      </trkpt>
      <trkpt lat="46.36827" lon="6.65576">
        <ele>971.7216</ele>
        <time>2014-08-26T16:39:59Z</time>
      </trkpt>
      <trkpt lat="46.36826" lon="6.65574">
        <ele>971.7216</ele>
        <time>2014-08-26T16:40:04Z</time>
      </trkpt>
      <trkpt lat="46.36826" lon="6.65571">
        <ele>969.9472</ele>
        <time>2014-08-26T16:40:09Z</time>
      </trkpt>
      <trkpt lat="46.36824" lon="6.65568">
        <ele>969.9472</ele>
        <time>2014-08-26T16:40:14Z</time>
      </trkpt>
      <trkpt lat="46.36822" lon="6.65567">
        <ele>969.9472</ele>
        <time>2014-08-26T16:40:19Z</time>
      </trkpt>
      <trkpt lat="46.36821" lon="6.65568">
        <ele>969.9472</ele>
        <time>2014-08-26T16:40:24Z</time>
      </trkpt>
      <trkpt lat="46.36822" lon="6.65571">
        <ele>969.9472</ele>
        <time>2014-08-26T16:40:29Z</time>
      </trkpt>
      <trkpt lat="46.36821" lon="6.65574">
        <ele>968.2827</ele>
        <time>2014-08-26T16:40:34Z</time>
      </trkpt>
      <trkpt lat="46.36823" lon="6.65577">
        <ele>968.2827</ele>
        <time>2014-08-26T16:40:39Z</time>
      </trkpt>
      <trkpt lat="46.36823" lon="6.65578">
        <ele>968.2827</ele>
        <time>2014-08-26T16:40:44Z</time>
      </trkpt>
      <trkpt lat="46.36821" lon="6.65581">
        <ele>968.2827</ele>
        <time>2014-08-26T16:40:49Z</time>
      </trkpt>
      <trkpt lat="46.3682" lon="6.65582">
        <ele>968.2827</ele>
        <time>2014-08-26T16:40:54Z</time>
      </trkpt>
      <trkpt lat="46.3682" lon="6.65584">
        <ele>968.2827</ele>
        <time>2014-08-26T16:40:59Z</time>
      </trkpt>
      <trkpt lat="46.36819" lon="6.65585">
        <ele>966.8976</ele>
        <time>2014-08-26T16:41:04Z</time>
      </trkpt>
      <trkpt lat="46.36819" lon="6.65585">
        <ele>966.8976</ele>
        <time>2014-08-26T16:41:09Z</time>
      </trkpt>
      <trkpt lat="46.3682" lon="6.65585">
        <ele>966.8976</ele>
        <time>2014-08-26T16:41:14Z</time>
      </trkpt>
      <trkpt lat="46.3682" lon="6.65586">
        <ele>966.8976</ele>
        <time>2014-08-26T16:41:19Z</time>
      </trkpt>
      <trkpt lat="46.3682" lon="6.6559">
        <ele>966.8976</ele>
        <time>2014-08-26T16:41:24Z</time>
      </trkpt>
      <trkpt lat="46.36822" lon="6.65594">
        <ele>966.8976</ele>
        <time>2014-08-26T16:41:29Z</time>
      </trkpt>
      <trkpt lat="46.36823" lon="6.65597">
        <ele>965.50104</ele>
        <time>2014-08-26T16:41:34Z</time>
      </trkpt>
      <trkpt lat="46.36824" lon="6.65598">
        <ele>965.50104</ele>
        <time>2014-08-26T16:41:39Z</time>
      </trkpt>
      <trkpt lat="46.36824" lon="6.65599">
        <ele>965.50104</ele>
        <time>2014-08-26T16:41:44Z</time>
      </trkpt>
      <trkpt lat="46.36822" lon="6.65601">
        <ele>965.50104</ele>
        <time>2014-08-26T16:41:49Z</time>
      </trkpt>
      <trkpt lat="46.36822" lon="6.65601">
        <ele>965.50104</ele>
        <time>2014-08-26T16:41:54Z</time>
      </trkpt>
      <trkpt lat="46.36821" lon="6.65603">
        <ele>965.50104</ele>
        <time>2014-08-26T16:41:59Z</time>
      </trkpt>
      <trkpt lat="46.36821" lon="6.65604">
        <ele>965.50104</ele>
        <time>2014-08-26T16:42:04Z</time>
      </trkpt>
      <trkpt lat="46.36821" lon="6.65605">
        <ele>965.50104</ele>
        <time>2014-08-26T16:42:09Z</time>
      </trkpt>
      <trkpt lat="46.36821" lon="6.65604">
        <ele>965.50104</ele>
        <time>2014-08-26T16:42:14Z</time>
      </trkpt>
      <trkpt lat="46.36821" lon="6.65603">
        <ele>965.50104</ele>
        <time>2014-08-26T16:42:19Z</time>
      </trkpt>
      <trkpt lat="46.36821" lon="6.65604">
        <ele>964.28467</ele>
        <time>2014-08-26T16:42:24Z</time>
      </trkpt>
      <trkpt lat="46.3682" lon="6.65604">
        <ele>964.28467</ele>
        <time>2014-08-26T16:42:29Z</time>
      </trkpt>
      <trkpt lat="46.36822" lon="6.65606">
        <ele>964.28467</ele>
        <time>2014-08-26T16:42:34Z</time>
      </trkpt>
      <trkpt lat="46.36824" lon="6.65608">
        <ele>964.28467</ele>
        <time>2014-08-26T16:42:39Z</time>
      </trkpt>
      <trkpt lat="46.36827" lon="6.65609">
        <ele>964.28467</ele>
        <time>2014-08-26T16:42:44Z</time>
      </trkpt>
      <trkpt lat="46.36827" lon="6.65609">
        <ele>963.00745</ele>
        <time>2014-08-26T16:42:49Z</time>
      </trkpt>
      <trkpt lat="46.36826" lon="6.65608">
        <ele>963.00745</ele>
        <time>2014-08-26T16:42:54Z</time>
      </trkpt>
      <trkpt lat="46.36827" lon="6.65607">
        <ele>963.00745</ele>
        <time>2014-08-26T16:42:59Z</time>
      </trkpt>
      <trkpt lat="46.36827" lon="6.65607">
        <ele>963.00745</ele>
        <time>2014-08-26T16:43:04Z</time>
      </trkpt>
      <trkpt lat="46.36828" lon="6.65606">
        <ele>963.00745</ele>
        <time>2014-08-26T16:43:09Z</time>
      </trkpt>
      <trkpt lat="46.36828" lon="6.65606">
        <ele>963.00745</ele>
        <time>2014-08-26T16:43:14Z</time>
      </trkpt>
      <trkpt lat="46.36829" lon="6.65606">
        <ele>963.00745</ele>
        <time>2014-08-26T16:43:19Z</time>
      </trkpt>
      <trkpt lat="46.36829" lon="6.65604">
        <ele>963.00745</ele>
        <time>2014-08-26T16:43:24Z</time>
      </trkpt>
      <trkpt lat="46.36827" lon="6.656">
        <ele>962.08026</ele>
        <time>2014-08-26T16:43:29Z</time>
      </trkpt>
      <trkpt lat="46.36825" lon="6.656">
        <ele>962.08026</ele>
        <time>2014-08-26T16:43:34Z</time>
      </trkpt>
      <trkpt lat="46.36825" lon="6.65599">
        <ele>962.08026</ele>
        <time>2014-08-26T16:43:39Z</time>
      </trkpt>
      <trkpt lat="46.36825" lon="6.656">
        <ele>962.08026</ele>
        <time>2014-08-26T16:43:44Z</time>
      </trkpt>
      <trkpt lat="46.36826" lon="6.656">
        <ele>962.08026</ele>
        <time>2014-08-26T16:43:49Z</time>
      </trkpt>
      <trkpt lat="46.36826" lon="6.656">
        <ele>962.08026</ele>
        <time>2014-08-26T16:43:54Z</time>
      </trkpt>
      <trkpt lat="46.36827" lon="6.65598">
        <ele>962.08026</ele>
        <time>2014-08-26T16:43:59Z</time>
      </trkpt>
      <trkpt lat="46.36831" lon="6.65598">
        <ele>962.08026</ele>
        <time>2014-08-26T16:44:04Z</time>
      </trkpt>
      <trkpt lat="46.36832" lon="6.65599">
        <ele>961.32043</ele>
        <time>2014-08-26T16:44:09Z</time>
      </trkpt>
      <trkpt lat="46.36832" lon="6.65599">
        <ele>961.32043</ele>
        <time>2014-08-26T16:44:14Z</time>
      </trkpt>
      <trkpt lat="46.36832" lon="6.65597">
        <ele>961.32043</ele>
        <time>2014-08-26T16:44:19Z</time>
      </trkpt>
    </trkseg>
  </trk>
</gpx>